<?xml version="1.0" encoding="UTF-8" standalone="no" ?>
<gpx xmlns="http://www.topografix.com/GPX/1/1" xmlns:xsi="http://www.w3.org/2001/XMLSchema-instance" xsi:schemaLocation="http://www.topografix.com/GPX/1/1 http://www.topografix.com/GPX/1/1/gpx.xsd" version="1.1" creator="VisuGPX - https://www.visugpx.com">
  <metadata>
    <name>160106ROBBenjamins</name>
    <desc><![CDATA[Excellente sortie]]></desc>
  </metadata>
  <trk>
    <name><![CDATA[160106ROBBenjamins]]></name>
    <trkseg>
      <trkpt lat="43.41582" lon="6.07039">
        <ele>203.80000305176</ele>
        <time>2016-01-06T13:05:21Z</time>
      </trkpt>
      <trkpt lat="43.41582" lon="6.07039">
        <ele>203.80000305176</ele>
        <time>2016-01-06T13:05:23Z</time>
      </trkpt>
      <trkpt lat="43.41582" lon="6.07039">
        <ele>203.80000305176</ele>
        <time>2016-01-06T13:05:24Z</time>
      </trkpt>
      <trkpt lat="43.41582" lon="6.07039">
        <ele>204</ele>
        <time>2016-01-06T13:05:25Z</time>
      </trkpt>
      <trkpt lat="43.41582" lon="6.07039">
        <ele>203.80000305176</ele>
        <time>2016-01-06T13:05:27Z</time>
      </trkpt>
      <trkpt lat="43.41582" lon="6.07039">
        <ele>203.60000610352</ele>
        <time>2016-01-06T13:05:29Z</time>
      </trkpt>
      <trkpt lat="43.41582" lon="6.07039">
        <ele>204</ele>
        <time>2016-01-06T13:05:31Z</time>
      </trkpt>
      <trkpt lat="43.41582" lon="6.07039">
        <ele>204</ele>
        <time>2016-01-06T13:05:33Z</time>
      </trkpt>
      <trkpt lat="43.41582" lon="6.07039">
        <ele>204</ele>
        <time>2016-01-06T13:05:34Z</time>
      </trkpt>
      <trkpt lat="43.41582" lon="6.0704">
        <ele>204</ele>
        <time>2016-01-06T13:05:35Z</time>
      </trkpt>
      <trkpt lat="43.41582" lon="6.0704">
        <ele>204.19999694824</ele>
        <time>2016-01-06T13:05:37Z</time>
      </trkpt>
      <trkpt lat="43.41582" lon="6.0704">
        <ele>204.19999694824</ele>
        <time>2016-01-06T13:05:39Z</time>
      </trkpt>
      <trkpt lat="43.41582" lon="6.07039">
        <ele>204.39999389648</ele>
        <time>2016-01-06T13:05:41Z</time>
      </trkpt>
      <trkpt lat="43.41582" lon="6.07039">
        <ele>204.19999694824</ele>
        <time>2016-01-06T13:05:43Z</time>
      </trkpt>
      <trkpt lat="43.41582" lon="6.0704">
        <ele>203.80000305176</ele>
        <time>2016-01-06T13:05:45Z</time>
      </trkpt>
      <trkpt lat="43.41582" lon="6.0704">
        <ele>203.60000610352</ele>
        <time>2016-01-06T13:05:47Z</time>
      </trkpt>
      <trkpt lat="43.41582" lon="6.0704">
        <ele>203.39999389648</ele>
        <time>2016-01-06T13:05:49Z</time>
      </trkpt>
      <trkpt lat="43.41582" lon="6.0704">
        <ele>203.39999389648</ele>
        <time>2016-01-06T13:05:51Z</time>
      </trkpt>
      <trkpt lat="43.41582" lon="6.0704">
        <ele>203.60000610352</ele>
        <time>2016-01-06T13:05:53Z</time>
      </trkpt>
      <trkpt lat="43.41582" lon="6.0704">
        <ele>203.80000305176</ele>
        <time>2016-01-06T13:05:55Z</time>
      </trkpt>
      <trkpt lat="43.41582" lon="6.0704">
        <ele>203.80000305176</ele>
        <time>2016-01-06T13:05:56Z</time>
      </trkpt>
      <trkpt lat="43.41582" lon="6.0704">
        <ele>204</ele>
        <time>2016-01-06T13:05:57Z</time>
      </trkpt>
      <trkpt lat="43.41582" lon="6.0704">
        <ele>204.19999694824</ele>
        <time>2016-01-06T13:05:59Z</time>
      </trkpt>
      <trkpt lat="43.41582" lon="6.0704">
        <ele>204</ele>
        <time>2016-01-06T13:06:01Z</time>
      </trkpt>
      <trkpt lat="43.41582" lon="6.0704">
        <ele>204.19999694824</ele>
        <time>2016-01-06T13:06:03Z</time>
      </trkpt>
      <trkpt lat="43.41582" lon="6.0704">
        <ele>204.19999694824</ele>
        <time>2016-01-06T13:06:05Z</time>
      </trkpt>
      <trkpt lat="43.41582" lon="6.0704">
        <ele>204</ele>
        <time>2016-01-06T13:06:07Z</time>
      </trkpt>
      <trkpt lat="43.41582" lon="6.0704">
        <ele>204</ele>
        <time>2016-01-06T13:06:09Z</time>
      </trkpt>
      <trkpt lat="43.41582" lon="6.0704">
        <ele>204.19999694824</ele>
        <time>2016-01-06T13:06:11Z</time>
      </trkpt>
      <trkpt lat="43.41582" lon="6.0704">
        <ele>204.19999694824</ele>
        <time>2016-01-06T13:06:13Z</time>
      </trkpt>
      <trkpt lat="43.41582" lon="6.0704">
        <ele>204</ele>
        <time>2016-01-06T13:06:15Z</time>
      </trkpt>
      <trkpt lat="43.41582" lon="6.0704">
        <ele>204</ele>
        <time>2016-01-06T13:06:17Z</time>
      </trkpt>
      <trkpt lat="43.41582" lon="6.0704">
        <ele>204</ele>
        <time>2016-01-06T13:06:19Z</time>
      </trkpt>
      <trkpt lat="43.41582" lon="6.0704">
        <ele>204</ele>
        <time>2016-01-06T13:06:21Z</time>
      </trkpt>
      <trkpt lat="43.41582" lon="6.0704">
        <ele>204</ele>
        <time>2016-01-06T13:06:23Z</time>
      </trkpt>
      <trkpt lat="43.41582" lon="6.0704">
        <ele>204</ele>
        <time>2016-01-06T13:06:25Z</time>
      </trkpt>
      <trkpt lat="43.41582" lon="6.0704">
        <ele>204.19999694824</ele>
        <time>2016-01-06T13:06:27Z</time>
      </trkpt>
      <trkpt lat="43.41582" lon="6.0704">
        <ele>204.39999389648</ele>
        <time>2016-01-06T13:06:29Z</time>
      </trkpt>
      <trkpt lat="43.41582" lon="6.0704">
        <ele>204</ele>
        <time>2016-01-06T13:06:31Z</time>
      </trkpt>
      <trkpt lat="43.41582" lon="6.07041">
        <ele>204</ele>
        <time>2016-01-06T13:06:33Z</time>
      </trkpt>
      <trkpt lat="43.41582" lon="6.07042">
        <ele>203.80000305176</ele>
        <time>2016-01-06T13:06:35Z</time>
      </trkpt>
      <trkpt lat="43.41582" lon="6.07043">
        <ele>203.60000610352</ele>
        <time>2016-01-06T13:06:37Z</time>
      </trkpt>
      <trkpt lat="43.41582" lon="6.07044">
        <ele>203.60000610352</ele>
        <time>2016-01-06T13:06:39Z</time>
      </trkpt>
      <trkpt lat="43.41582" lon="6.07044">
        <ele>203.80000305176</ele>
        <time>2016-01-06T13:06:41Z</time>
      </trkpt>
      <trkpt lat="43.41582" lon="6.07044">
        <ele>203.80000305176</ele>
        <time>2016-01-06T13:06:43Z</time>
      </trkpt>
      <trkpt lat="43.41582" lon="6.07044">
        <ele>203.80000305176</ele>
        <time>2016-01-06T13:06:45Z</time>
      </trkpt>
      <trkpt lat="43.41582" lon="6.07045">
        <ele>203.80000305176</ele>
        <time>2016-01-06T13:06:47Z</time>
      </trkpt>
      <trkpt lat="43.41582" lon="6.07046">
        <ele>203.80000305176</ele>
        <time>2016-01-06T13:06:49Z</time>
      </trkpt>
      <trkpt lat="43.41583" lon="6.07046">
        <ele>203.60000610352</ele>
        <time>2016-01-06T13:06:51Z</time>
      </trkpt>
      <trkpt lat="43.41583" lon="6.07048">
        <ele>204</ele>
        <time>2016-01-06T13:06:53Z</time>
      </trkpt>
      <trkpt lat="43.41584" lon="6.07053">
        <ele>204</ele>
        <time>2016-01-06T13:06:55Z</time>
      </trkpt>
      <trkpt lat="43.41584" lon="6.07056">
        <ele>204</ele>
        <time>2016-01-06T13:06:56Z</time>
      </trkpt>
      <trkpt lat="43.41584" lon="6.07059">
        <ele>204.19999694824</ele>
        <time>2016-01-06T13:06:57Z</time>
      </trkpt>
      <trkpt lat="43.41584" lon="6.07066">
        <ele>203.60000610352</ele>
        <time>2016-01-06T13:06:59Z</time>
      </trkpt>
      <trkpt lat="43.41585" lon="6.07073">
        <ele>203.80000305176</ele>
        <time>2016-01-06T13:07:01Z</time>
      </trkpt>
      <trkpt lat="43.41585" lon="6.07076">
        <ele>203.80000305176</ele>
        <time>2016-01-06T13:07:02Z</time>
      </trkpt>
      <trkpt lat="43.41586" lon="6.0708">
        <ele>203.80000305176</ele>
        <time>2016-01-06T13:07:03Z</time>
      </trkpt>
      <trkpt lat="43.41587" lon="6.07088">
        <ele>203.60000610352</ele>
        <time>2016-01-06T13:07:05Z</time>
      </trkpt>
      <trkpt lat="43.41587" lon="6.07097">
        <ele>203.80000305176</ele>
        <time>2016-01-06T13:07:07Z</time>
      </trkpt>
      <trkpt lat="43.41587" lon="6.07106">
        <ele>203.39999389648</ele>
        <time>2016-01-06T13:07:09Z</time>
      </trkpt>
      <trkpt lat="43.41586" lon="6.07112">
        <ele>203.60000610352</ele>
        <time>2016-01-06T13:07:11Z</time>
      </trkpt>
      <trkpt lat="43.41582" lon="6.07113">
        <ele>203.80000305176</ele>
        <time>2016-01-06T13:07:13Z</time>
      </trkpt>
      <trkpt lat="43.41578" lon="6.07114">
        <ele>203.80000305176</ele>
        <time>2016-01-06T13:07:15Z</time>
      </trkpt>
      <trkpt lat="43.41572" lon="6.07115">
        <ele>203.60000610352</ele>
        <time>2016-01-06T13:07:17Z</time>
      </trkpt>
      <trkpt lat="43.41569" lon="6.07117">
        <ele>203.60000610352</ele>
        <time>2016-01-06T13:07:18Z</time>
      </trkpt>
      <trkpt lat="43.41565" lon="6.07118">
        <ele>203.60000610352</ele>
        <time>2016-01-06T13:07:19Z</time>
      </trkpt>
      <trkpt lat="43.41558" lon="6.07118">
        <ele>203.80000305176</ele>
        <time>2016-01-06T13:07:21Z</time>
      </trkpt>
      <trkpt lat="43.41552" lon="6.07114">
        <ele>204</ele>
        <time>2016-01-06T13:07:23Z</time>
      </trkpt>
      <trkpt lat="43.4155" lon="6.0711">
        <ele>204</ele>
        <time>2016-01-06T13:07:24Z</time>
      </trkpt>
      <trkpt lat="43.4155" lon="6.07105">
        <ele>204</ele>
        <time>2016-01-06T13:07:25Z</time>
      </trkpt>
      <trkpt lat="43.4155" lon="6.071">
        <ele>204</ele>
        <time>2016-01-06T13:07:26Z</time>
      </trkpt>
      <trkpt lat="43.41549" lon="6.07094">
        <ele>203.80000305176</ele>
        <time>2016-01-06T13:07:27Z</time>
      </trkpt>
      <trkpt lat="43.41547" lon="6.07083">
        <ele>203.60000610352</ele>
        <time>2016-01-06T13:07:29Z</time>
      </trkpt>
      <trkpt lat="43.41542" lon="6.07075">
        <ele>203.80000305176</ele>
        <time>2016-01-06T13:07:31Z</time>
      </trkpt>
      <trkpt lat="43.41534" lon="6.07074">
        <ele>203.19999694824</ele>
        <time>2016-01-06T13:07:33Z</time>
      </trkpt>
      <trkpt lat="43.4153" lon="6.07075">
        <ele>203</ele>
        <time>2016-01-06T13:07:34Z</time>
      </trkpt>
      <trkpt lat="43.41525" lon="6.07076">
        <ele>202.60000610352</ele>
        <time>2016-01-06T13:07:35Z</time>
      </trkpt>
      <trkpt lat="43.41515" lon="6.07079">
        <ele>202.39999389648</ele>
        <time>2016-01-06T13:07:37Z</time>
      </trkpt>
      <trkpt lat="43.41505" lon="6.07081">
        <ele>202.39999389648</ele>
        <time>2016-01-06T13:07:39Z</time>
      </trkpt>
      <trkpt lat="43.415" lon="6.0708">
        <ele>202.60000610352</ele>
        <time>2016-01-06T13:07:40Z</time>
      </trkpt>
      <trkpt lat="43.41496" lon="6.07079">
        <ele>202.60000610352</ele>
        <time>2016-01-06T13:07:41Z</time>
      </trkpt>
      <trkpt lat="43.41487" lon="6.07075">
        <ele>202.19999694824</ele>
        <time>2016-01-06T13:07:43Z</time>
      </trkpt>
      <trkpt lat="43.41483" lon="6.07074">
        <ele>202.19999694824</ele>
        <time>2016-01-06T13:07:44Z</time>
      </trkpt>
      <trkpt lat="43.41479" lon="6.07073">
        <ele>202</ele>
        <time>2016-01-06T13:07:45Z</time>
      </trkpt>
      <trkpt lat="43.41474" lon="6.07073">
        <ele>201.60000610352</ele>
        <time>2016-01-06T13:07:47Z</time>
      </trkpt>
      <trkpt lat="43.41473" lon="6.07073">
        <ele>201.60000610352</ele>
        <time>2016-01-06T13:07:48Z</time>
      </trkpt>
      <trkpt lat="43.41471" lon="6.07072">
        <ele>201.60000610352</ele>
        <time>2016-01-06T13:07:49Z</time>
      </trkpt>
      <trkpt lat="43.4147" lon="6.07071">
        <ele>201.39999389648</ele>
        <time>2016-01-06T13:07:51Z</time>
      </trkpt>
      <trkpt lat="43.4147" lon="6.07072">
        <ele>201.19999694824</ele>
        <time>2016-01-06T13:07:53Z</time>
      </trkpt>
      <trkpt lat="43.4147" lon="6.07072">
        <ele>201.19999694824</ele>
        <time>2016-01-06T13:07:54Z</time>
      </trkpt>
      <trkpt lat="43.4147" lon="6.07072">
        <ele>201</ele>
        <time>2016-01-06T13:07:55Z</time>
      </trkpt>
      <trkpt lat="43.4147" lon="6.07072">
        <ele>201</ele>
        <time>2016-01-06T13:07:57Z</time>
      </trkpt>
      <trkpt lat="43.4147" lon="6.07072">
        <ele>201</ele>
        <time>2016-01-06T13:07:59Z</time>
      </trkpt>
      <trkpt lat="43.4147" lon="6.07072">
        <ele>201</ele>
        <time>2016-01-06T13:08:01Z</time>
      </trkpt>
      <trkpt lat="43.4147" lon="6.07072">
        <ele>201</ele>
        <time>2016-01-06T13:08:03Z</time>
      </trkpt>
      <trkpt lat="43.4147" lon="6.07072">
        <ele>200.80000305176</ele>
        <time>2016-01-06T13:08:05Z</time>
      </trkpt>
      <trkpt lat="43.4147" lon="6.07072">
        <ele>200.80000305176</ele>
        <time>2016-01-06T13:08:07Z</time>
      </trkpt>
      <trkpt lat="43.4147" lon="6.07072">
        <ele>200.80000305176</ele>
        <time>2016-01-06T13:08:09Z</time>
      </trkpt>
      <trkpt lat="43.4147" lon="6.07072">
        <ele>200.60000610352</ele>
        <time>2016-01-06T13:08:11Z</time>
      </trkpt>
      <trkpt lat="43.4147" lon="6.07072">
        <ele>200.80000305176</ele>
        <time>2016-01-06T13:08:13Z</time>
      </trkpt>
      <trkpt lat="43.4147" lon="6.07072">
        <ele>200.80000305176</ele>
        <time>2016-01-06T13:08:14Z</time>
      </trkpt>
      <trkpt lat="43.4147" lon="6.07072">
        <ele>200.80000305176</ele>
        <time>2016-01-06T13:08:15Z</time>
      </trkpt>
      <trkpt lat="43.4147" lon="6.07072">
        <ele>200.80000305176</ele>
        <time>2016-01-06T13:08:17Z</time>
      </trkpt>
      <trkpt lat="43.41468" lon="6.07072">
        <ele>200.60000610352</ele>
        <time>2016-01-06T13:08:19Z</time>
      </trkpt>
      <trkpt lat="43.41465" lon="6.07073">
        <ele>200.39999389648</ele>
        <time>2016-01-06T13:08:21Z</time>
      </trkpt>
      <trkpt lat="43.41462" lon="6.07073">
        <ele>200.60000610352</ele>
        <time>2016-01-06T13:08:23Z</time>
      </trkpt>
      <trkpt lat="43.41462" lon="6.07072">
        <ele>200.60000610352</ele>
        <time>2016-01-06T13:08:25Z</time>
      </trkpt>
      <trkpt lat="43.41462" lon="6.07072">
        <ele>200.39999389648</ele>
        <time>2016-01-06T13:08:26Z</time>
      </trkpt>
      <trkpt lat="43.41462" lon="6.07072">
        <ele>200.39999389648</ele>
        <time>2016-01-06T13:08:27Z</time>
      </trkpt>
      <trkpt lat="43.41461" lon="6.07072">
        <ele>200.39999389648</ele>
        <time>2016-01-06T13:08:29Z</time>
      </trkpt>
      <trkpt lat="43.4146" lon="6.07073">
        <ele>200.19999694824</ele>
        <time>2016-01-06T13:08:31Z</time>
      </trkpt>
      <trkpt lat="43.41458" lon="6.07076">
        <ele>200.60000610352</ele>
        <time>2016-01-06T13:08:33Z</time>
      </trkpt>
      <trkpt lat="43.41456" lon="6.07079">
        <ele>200.60000610352</ele>
        <time>2016-01-06T13:08:34Z</time>
      </trkpt>
      <trkpt lat="43.41454" lon="6.07083">
        <ele>200.60000610352</ele>
        <time>2016-01-06T13:08:35Z</time>
      </trkpt>
      <trkpt lat="43.41451" lon="6.07093">
        <ele>200.39999389648</ele>
        <time>2016-01-06T13:08:37Z</time>
      </trkpt>
      <trkpt lat="43.41449" lon="6.07099">
        <ele>200.39999389648</ele>
        <time>2016-01-06T13:08:38Z</time>
      </trkpt>
      <trkpt lat="43.41447" lon="6.07105">
        <ele>200.60000610352</ele>
        <time>2016-01-06T13:08:39Z</time>
      </trkpt>
      <trkpt lat="43.41443" lon="6.07119">
        <ele>200.60000610352</ele>
        <time>2016-01-06T13:08:41Z</time>
      </trkpt>
      <trkpt lat="43.41438" lon="6.07134">
        <ele>200.80000305176</ele>
        <time>2016-01-06T13:08:43Z</time>
      </trkpt>
      <trkpt lat="43.41433" lon="6.07149">
        <ele>200.60000610352</ele>
        <time>2016-01-06T13:08:45Z</time>
      </trkpt>
      <trkpt lat="43.41428" lon="6.07164">
        <ele>200.39999389648</ele>
        <time>2016-01-06T13:08:47Z</time>
      </trkpt>
      <trkpt lat="43.41423" lon="6.07179">
        <ele>200.39999389648</ele>
        <time>2016-01-06T13:08:49Z</time>
      </trkpt>
      <trkpt lat="43.41419" lon="6.07194">
        <ele>200</ele>
        <time>2016-01-06T13:08:51Z</time>
      </trkpt>
      <trkpt lat="43.41417" lon="6.07201">
        <ele>200</ele>
        <time>2016-01-06T13:08:52Z</time>
      </trkpt>
      <trkpt lat="43.41414" lon="6.07208">
        <ele>200</ele>
        <time>2016-01-06T13:08:53Z</time>
      </trkpt>
      <trkpt lat="43.4141" lon="6.07222">
        <ele>199.80000305176</ele>
        <time>2016-01-06T13:08:55Z</time>
      </trkpt>
      <trkpt lat="43.41406" lon="6.07236">
        <ele>199.80000305176</ele>
        <time>2016-01-06T13:08:57Z</time>
      </trkpt>
      <trkpt lat="43.41401" lon="6.0725">
        <ele>199.80000305176</ele>
        <time>2016-01-06T13:08:59Z</time>
      </trkpt>
      <trkpt lat="43.41397" lon="6.07263">
        <ele>199.60000610352</ele>
        <time>2016-01-06T13:09:01Z</time>
      </trkpt>
      <trkpt lat="43.41395" lon="6.07269">
        <ele>199.60000610352</ele>
        <time>2016-01-06T13:09:02Z</time>
      </trkpt>
      <trkpt lat="43.41393" lon="6.07276">
        <ele>199.39999389648</ele>
        <time>2016-01-06T13:09:03Z</time>
      </trkpt>
      <trkpt lat="43.41391" lon="6.07282">
        <ele>199.19999694824</ele>
        <time>2016-01-06T13:09:04Z</time>
      </trkpt>
      <trkpt lat="43.41389" lon="6.0729">
        <ele>199.19999694824</ele>
        <time>2016-01-06T13:09:05Z</time>
      </trkpt>
      <trkpt lat="43.41386" lon="6.07305">
        <ele>199.60000610352</ele>
        <time>2016-01-06T13:09:07Z</time>
      </trkpt>
      <trkpt lat="43.41384" lon="6.07319">
        <ele>199.39999389648</ele>
        <time>2016-01-06T13:09:09Z</time>
      </trkpt>
      <trkpt lat="43.41389" lon="6.07329">
        <ele>198.80000305176</ele>
        <time>2016-01-06T13:09:11Z</time>
      </trkpt>
      <trkpt lat="43.41397" lon="6.07336">
        <ele>199.19999694824</ele>
        <time>2016-01-06T13:09:13Z</time>
      </trkpt>
      <trkpt lat="43.41405" lon="6.07338">
        <ele>199.80000305176</ele>
        <time>2016-01-06T13:09:15Z</time>
      </trkpt>
      <trkpt lat="43.41414" lon="6.07338">
        <ele>200</ele>
        <time>2016-01-06T13:09:17Z</time>
      </trkpt>
      <trkpt lat="43.41419" lon="6.07338">
        <ele>199.80000305176</ele>
        <time>2016-01-06T13:09:18Z</time>
      </trkpt>
      <trkpt lat="43.41424" lon="6.07338">
        <ele>199.80000305176</ele>
        <time>2016-01-06T13:09:19Z</time>
      </trkpt>
      <trkpt lat="43.41428" lon="6.07338">
        <ele>199.80000305176</ele>
        <time>2016-01-06T13:09:20Z</time>
      </trkpt>
      <trkpt lat="43.41434" lon="6.07338">
        <ele>199.80000305176</ele>
        <time>2016-01-06T13:09:21Z</time>
      </trkpt>
      <trkpt lat="43.41445" lon="6.07338">
        <ele>200.19999694824</ele>
        <time>2016-01-06T13:09:23Z</time>
      </trkpt>
      <trkpt lat="43.41456" lon="6.07338">
        <ele>200.39999389648</ele>
        <time>2016-01-06T13:09:25Z</time>
      </trkpt>
      <trkpt lat="43.41467" lon="6.0734">
        <ele>200.60000610352</ele>
        <time>2016-01-06T13:09:27Z</time>
      </trkpt>
      <trkpt lat="43.41471" lon="6.07341">
        <ele>200.80000305176</ele>
        <time>2016-01-06T13:09:28Z</time>
      </trkpt>
      <trkpt lat="43.41476" lon="6.07344">
        <ele>200.80000305176</ele>
        <time>2016-01-06T13:09:29Z</time>
      </trkpt>
      <trkpt lat="43.41484" lon="6.0735">
        <ele>200.39999389648</ele>
        <time>2016-01-06T13:09:31Z</time>
      </trkpt>
      <trkpt lat="43.41492" lon="6.07359">
        <ele>200.80000305176</ele>
        <time>2016-01-06T13:09:33Z</time>
      </trkpt>
      <trkpt lat="43.415" lon="6.07369">
        <ele>200.60000610352</ele>
        <time>2016-01-06T13:09:35Z</time>
      </trkpt>
      <trkpt lat="43.41508" lon="6.07379">
        <ele>200.60000610352</ele>
        <time>2016-01-06T13:09:37Z</time>
      </trkpt>
      <trkpt lat="43.41516" lon="6.07388">
        <ele>200.39999389648</ele>
        <time>2016-01-06T13:09:39Z</time>
      </trkpt>
      <trkpt lat="43.41519" lon="6.07392">
        <ele>200.19999694824</ele>
        <time>2016-01-06T13:09:40Z</time>
      </trkpt>
      <trkpt lat="43.41522" lon="6.07396">
        <ele>200.39999389648</ele>
        <time>2016-01-06T13:09:41Z</time>
      </trkpt>
      <trkpt lat="43.41528" lon="6.07406">
        <ele>200.39999389648</ele>
        <time>2016-01-06T13:09:43Z</time>
      </trkpt>
      <trkpt lat="43.41533" lon="6.07416">
        <ele>200.60000610352</ele>
        <time>2016-01-06T13:09:45Z</time>
      </trkpt>
      <trkpt lat="43.41537" lon="6.07426">
        <ele>200.80000305176</ele>
        <time>2016-01-06T13:09:47Z</time>
      </trkpt>
      <trkpt lat="43.41541" lon="6.07436">
        <ele>200.60000610352</ele>
        <time>2016-01-06T13:09:49Z</time>
      </trkpt>
      <trkpt lat="43.41545" lon="6.07443">
        <ele>201</ele>
        <time>2016-01-06T13:09:51Z</time>
      </trkpt>
      <trkpt lat="43.41551" lon="6.07446">
        <ele>201.39999389648</ele>
        <time>2016-01-06T13:09:53Z</time>
      </trkpt>
      <trkpt lat="43.41557" lon="6.07446">
        <ele>202</ele>
        <time>2016-01-06T13:09:55Z</time>
      </trkpt>
      <trkpt lat="43.41561" lon="6.07445">
        <ele>202.19999694824</ele>
        <time>2016-01-06T13:09:56Z</time>
      </trkpt>
      <trkpt lat="43.41564" lon="6.07445">
        <ele>202.19999694824</ele>
        <time>2016-01-06T13:09:57Z</time>
      </trkpt>
      <trkpt lat="43.4157" lon="6.07444">
        <ele>202.60000610352</ele>
        <time>2016-01-06T13:09:59Z</time>
      </trkpt>
      <trkpt lat="43.41576" lon="6.07443">
        <ele>203</ele>
        <time>2016-01-06T13:10:01Z</time>
      </trkpt>
      <trkpt lat="43.41583" lon="6.07441">
        <ele>203.19999694824</ele>
        <time>2016-01-06T13:10:03Z</time>
      </trkpt>
      <trkpt lat="43.41589" lon="6.0744">
        <ele>203.60000610352</ele>
        <time>2016-01-06T13:10:05Z</time>
      </trkpt>
      <trkpt lat="43.41595" lon="6.07438">
        <ele>203.80000305176</ele>
        <time>2016-01-06T13:10:07Z</time>
      </trkpt>
      <trkpt lat="43.416" lon="6.07437">
        <ele>203.80000305176</ele>
        <time>2016-01-06T13:10:09Z</time>
      </trkpt>
      <trkpt lat="43.41603" lon="6.07436">
        <ele>204</ele>
        <time>2016-01-06T13:10:10Z</time>
      </trkpt>
      <trkpt lat="43.41606" lon="6.07436">
        <ele>204</ele>
        <time>2016-01-06T13:10:11Z</time>
      </trkpt>
      <trkpt lat="43.41611" lon="6.07436">
        <ele>204.39999389648</ele>
        <time>2016-01-06T13:10:13Z</time>
      </trkpt>
      <trkpt lat="43.41617" lon="6.07435">
        <ele>204.60000610352</ele>
        <time>2016-01-06T13:10:15Z</time>
      </trkpt>
      <trkpt lat="43.41623" lon="6.07435">
        <ele>205</ele>
        <time>2016-01-06T13:10:17Z</time>
      </trkpt>
      <trkpt lat="43.41629" lon="6.07434">
        <ele>204.80000305176</ele>
        <time>2016-01-06T13:10:19Z</time>
      </trkpt>
      <trkpt lat="43.41636" lon="6.07433">
        <ele>205.39999389648</ele>
        <time>2016-01-06T13:10:21Z</time>
      </trkpt>
      <trkpt lat="43.41644" lon="6.07433">
        <ele>205.60000610352</ele>
        <time>2016-01-06T13:10:23Z</time>
      </trkpt>
      <trkpt lat="43.41647" lon="6.07433">
        <ele>205.80000305176</ele>
        <time>2016-01-06T13:10:24Z</time>
      </trkpt>
      <trkpt lat="43.41651" lon="6.07432">
        <ele>205.60000610352</ele>
        <time>2016-01-06T13:10:25Z</time>
      </trkpt>
      <trkpt lat="43.41657" lon="6.07432">
        <ele>205.19999694824</ele>
        <time>2016-01-06T13:10:27Z</time>
      </trkpt>
      <trkpt lat="43.41663" lon="6.07431">
        <ele>205.60000610352</ele>
        <time>2016-01-06T13:10:29Z</time>
      </trkpt>
      <trkpt lat="43.41669" lon="6.07431">
        <ele>206</ele>
        <time>2016-01-06T13:10:31Z</time>
      </trkpt>
      <trkpt lat="43.41672" lon="6.0743">
        <ele>206.19999694824</ele>
        <time>2016-01-06T13:10:32Z</time>
      </trkpt>
      <trkpt lat="43.41674" lon="6.0743">
        <ele>206.39999389648</ele>
        <time>2016-01-06T13:10:33Z</time>
      </trkpt>
      <trkpt lat="43.41678" lon="6.0743">
        <ele>206.39999389648</ele>
        <time>2016-01-06T13:10:35Z</time>
      </trkpt>
      <trkpt lat="43.41683" lon="6.07429">
        <ele>206.60000610352</ele>
        <time>2016-01-06T13:10:37Z</time>
      </trkpt>
      <trkpt lat="43.41688" lon="6.07429">
        <ele>207.19999694824</ele>
        <time>2016-01-06T13:10:39Z</time>
      </trkpt>
      <trkpt lat="43.4169" lon="6.07428">
        <ele>207.39999389648</ele>
        <time>2016-01-06T13:10:40Z</time>
      </trkpt>
      <trkpt lat="43.41692" lon="6.07428">
        <ele>207.80000305176</ele>
        <time>2016-01-06T13:10:41Z</time>
      </trkpt>
      <trkpt lat="43.41697" lon="6.07428">
        <ele>208</ele>
        <time>2016-01-06T13:10:43Z</time>
      </trkpt>
      <trkpt lat="43.41701" lon="6.07428">
        <ele>208.60000610352</ele>
        <time>2016-01-06T13:10:45Z</time>
      </trkpt>
      <trkpt lat="43.41705" lon="6.07427">
        <ele>209</ele>
        <time>2016-01-06T13:10:47Z</time>
      </trkpt>
      <trkpt lat="43.4171" lon="6.07425">
        <ele>209.19999694824</ele>
        <time>2016-01-06T13:10:49Z</time>
      </trkpt>
      <trkpt lat="43.41714" lon="6.07424">
        <ele>210</ele>
        <time>2016-01-06T13:10:51Z</time>
      </trkpt>
      <trkpt lat="43.41718" lon="6.07423">
        <ele>210</ele>
        <time>2016-01-06T13:10:53Z</time>
      </trkpt>
      <trkpt lat="43.4172" lon="6.07422">
        <ele>210.19999694824</ele>
        <time>2016-01-06T13:10:54Z</time>
      </trkpt>
      <trkpt lat="43.41722" lon="6.07422">
        <ele>210.39999389648</ele>
        <time>2016-01-06T13:10:55Z</time>
      </trkpt>
      <trkpt lat="43.41725" lon="6.07421">
        <ele>210.80000305176</ele>
        <time>2016-01-06T13:10:57Z</time>
      </trkpt>
      <trkpt lat="43.41727" lon="6.0742">
        <ele>211</ele>
        <time>2016-01-06T13:10:58Z</time>
      </trkpt>
      <trkpt lat="43.41729" lon="6.07419">
        <ele>211.39999389648</ele>
        <time>2016-01-06T13:10:59Z</time>
      </trkpt>
      <trkpt lat="43.41732" lon="6.07418">
        <ele>211.80000305176</ele>
        <time>2016-01-06T13:11:01Z</time>
      </trkpt>
      <trkpt lat="43.41736" lon="6.07418">
        <ele>212.39999389648</ele>
        <time>2016-01-06T13:11:03Z</time>
      </trkpt>
      <trkpt lat="43.41739" lon="6.07417">
        <ele>212.80000305176</ele>
        <time>2016-01-06T13:11:05Z</time>
      </trkpt>
      <trkpt lat="43.41742" lon="6.07417">
        <ele>212.80000305176</ele>
        <time>2016-01-06T13:11:07Z</time>
      </trkpt>
      <trkpt lat="43.41743" lon="6.07416">
        <ele>213.19999694824</ele>
        <time>2016-01-06T13:11:08Z</time>
      </trkpt>
      <trkpt lat="43.41745" lon="6.07416">
        <ele>213.39999389648</ele>
        <time>2016-01-06T13:11:09Z</time>
      </trkpt>
      <trkpt lat="43.41748" lon="6.07416">
        <ele>213.80000305176</ele>
        <time>2016-01-06T13:11:11Z</time>
      </trkpt>
      <trkpt lat="43.4175" lon="6.07416">
        <ele>213.80000305176</ele>
        <time>2016-01-06T13:11:13Z</time>
      </trkpt>
      <trkpt lat="43.41753" lon="6.07416">
        <ele>214.39999389648</ele>
        <time>2016-01-06T13:11:15Z</time>
      </trkpt>
      <trkpt lat="43.41756" lon="6.07415">
        <ele>214.80000305176</ele>
        <time>2016-01-06T13:11:17Z</time>
      </trkpt>
      <trkpt lat="43.41759" lon="6.07414">
        <ele>215</ele>
        <time>2016-01-06T13:11:19Z</time>
      </trkpt>
      <trkpt lat="43.41761" lon="6.07413">
        <ele>215.39999389648</ele>
        <time>2016-01-06T13:11:21Z</time>
      </trkpt>
      <trkpt lat="43.41763" lon="6.07413">
        <ele>215.60000610352</ele>
        <time>2016-01-06T13:11:22Z</time>
      </trkpt>
      <trkpt lat="43.41765" lon="6.07413">
        <ele>215.80000305176</ele>
        <time>2016-01-06T13:11:23Z</time>
      </trkpt>
      <trkpt lat="43.41768" lon="6.07412">
        <ele>216.39999389648</ele>
        <time>2016-01-06T13:11:25Z</time>
      </trkpt>
      <trkpt lat="43.4177" lon="6.07412">
        <ele>216.60000610352</ele>
        <time>2016-01-06T13:11:26Z</time>
      </trkpt>
      <trkpt lat="43.41772" lon="6.07411">
        <ele>216.39999389648</ele>
        <time>2016-01-06T13:11:27Z</time>
      </trkpt>
      <trkpt lat="43.41775" lon="6.07411">
        <ele>216.80000305176</ele>
        <time>2016-01-06T13:11:29Z</time>
      </trkpt>
      <trkpt lat="43.41778" lon="6.0741">
        <ele>217</ele>
        <time>2016-01-06T13:11:31Z</time>
      </trkpt>
      <trkpt lat="43.41781" lon="6.07411">
        <ele>217.39999389648</ele>
        <time>2016-01-06T13:11:33Z</time>
      </trkpt>
      <trkpt lat="43.41784" lon="6.0741">
        <ele>218</ele>
        <time>2016-01-06T13:11:35Z</time>
      </trkpt>
      <trkpt lat="43.41787" lon="6.0741">
        <ele>218.19999694824</ele>
        <time>2016-01-06T13:11:37Z</time>
      </trkpt>
      <trkpt lat="43.41791" lon="6.0741">
        <ele>218.60000610352</ele>
        <time>2016-01-06T13:11:39Z</time>
      </trkpt>
      <trkpt lat="43.41794" lon="6.07411">
        <ele>218.39999389648</ele>
        <time>2016-01-06T13:11:41Z</time>
      </trkpt>
      <trkpt lat="43.41798" lon="6.07412">
        <ele>218.60000610352</ele>
        <time>2016-01-06T13:11:43Z</time>
      </trkpt>
      <trkpt lat="43.418" lon="6.07414">
        <ele>219</ele>
        <time>2016-01-06T13:11:45Z</time>
      </trkpt>
      <trkpt lat="43.41803" lon="6.07416">
        <ele>219.39999389648</ele>
        <time>2016-01-06T13:11:47Z</time>
      </trkpt>
      <trkpt lat="43.41804" lon="6.07417">
        <ele>219.39999389648</ele>
        <time>2016-01-06T13:11:48Z</time>
      </trkpt>
      <trkpt lat="43.41805" lon="6.07418">
        <ele>219.60000610352</ele>
        <time>2016-01-06T13:11:49Z</time>
      </trkpt>
      <trkpt lat="43.41807" lon="6.07421">
        <ele>219.80000305176</ele>
        <time>2016-01-06T13:11:51Z</time>
      </trkpt>
      <trkpt lat="43.41808" lon="6.07422">
        <ele>219.80000305176</ele>
        <time>2016-01-06T13:11:52Z</time>
      </trkpt>
      <trkpt lat="43.41809" lon="6.07424">
        <ele>220.19999694824</ele>
        <time>2016-01-06T13:11:53Z</time>
      </trkpt>
      <trkpt lat="43.4181" lon="6.07426">
        <ele>220.39999389648</ele>
        <time>2016-01-06T13:11:54Z</time>
      </trkpt>
      <trkpt lat="43.41811" lon="6.07428">
        <ele>220.60000610352</ele>
        <time>2016-01-06T13:11:55Z</time>
      </trkpt>
      <trkpt lat="43.41812" lon="6.07431">
        <ele>221</ele>
        <time>2016-01-06T13:11:57Z</time>
      </trkpt>
      <trkpt lat="43.41814" lon="6.07435">
        <ele>221.39999389648</ele>
        <time>2016-01-06T13:11:59Z</time>
      </trkpt>
      <trkpt lat="43.41815" lon="6.07436">
        <ele>221.60000610352</ele>
        <time>2016-01-06T13:12:00Z</time>
      </trkpt>
      <trkpt lat="43.41816" lon="6.07438">
        <ele>221.80000305176</ele>
        <time>2016-01-06T13:12:01Z</time>
      </trkpt>
      <trkpt lat="43.41818" lon="6.0744">
        <ele>222</ele>
        <time>2016-01-06T13:12:03Z</time>
      </trkpt>
      <trkpt lat="43.4182" lon="6.0744">
        <ele>222.19999694824</ele>
        <time>2016-01-06T13:12:05Z</time>
      </trkpt>
      <trkpt lat="43.41823" lon="6.07439">
        <ele>222.19999694824</ele>
        <time>2016-01-06T13:12:07Z</time>
      </trkpt>
      <trkpt lat="43.41825" lon="6.07441">
        <ele>222</ele>
        <time>2016-01-06T13:12:09Z</time>
      </trkpt>
      <trkpt lat="43.41825" lon="6.07442">
        <ele>222.19999694824</ele>
        <time>2016-01-06T13:12:11Z</time>
      </trkpt>
      <trkpt lat="43.41826" lon="6.07442">
        <ele>222.19999694824</ele>
        <time>2016-01-06T13:12:12Z</time>
      </trkpt>
      <trkpt lat="43.41826" lon="6.07442">
        <ele>222</ele>
        <time>2016-01-06T13:12:13Z</time>
      </trkpt>
      <trkpt lat="43.41827" lon="6.07442">
        <ele>222.19999694824</ele>
        <time>2016-01-06T13:12:15Z</time>
      </trkpt>
      <trkpt lat="43.41827" lon="6.07442">
        <ele>222.39999389648</ele>
        <time>2016-01-06T13:12:17Z</time>
      </trkpt>
      <trkpt lat="43.41827" lon="6.07442">
        <ele>222.39999389648</ele>
        <time>2016-01-06T13:12:19Z</time>
      </trkpt>
      <trkpt lat="43.41827" lon="6.07442">
        <ele>221.80000305176</ele>
        <time>2016-01-06T13:12:21Z</time>
      </trkpt>
      <trkpt lat="43.41827" lon="6.07442">
        <ele>221.80000305176</ele>
        <time>2016-01-06T13:12:23Z</time>
      </trkpt>
      <trkpt lat="43.41827" lon="6.07442">
        <ele>222</ele>
        <time>2016-01-06T13:12:25Z</time>
      </trkpt>
      <trkpt lat="43.41827" lon="6.07442">
        <ele>222</ele>
        <time>2016-01-06T13:12:27Z</time>
      </trkpt>
      <trkpt lat="43.41827" lon="6.07442">
        <ele>222</ele>
        <time>2016-01-06T13:12:29Z</time>
      </trkpt>
      <trkpt lat="43.41827" lon="6.07443">
        <ele>222</ele>
        <time>2016-01-06T13:12:31Z</time>
      </trkpt>
      <trkpt lat="43.41829" lon="6.07444">
        <ele>222</ele>
        <time>2016-01-06T13:12:33Z</time>
      </trkpt>
      <trkpt lat="43.41831" lon="6.07444">
        <ele>222</ele>
        <time>2016-01-06T13:12:35Z</time>
      </trkpt>
      <trkpt lat="43.41832" lon="6.07445">
        <ele>222</ele>
        <time>2016-01-06T13:12:36Z</time>
      </trkpt>
      <trkpt lat="43.41832" lon="6.07445">
        <ele>222</ele>
        <time>2016-01-06T13:12:37Z</time>
      </trkpt>
      <trkpt lat="43.41833" lon="6.07446">
        <ele>222</ele>
        <time>2016-01-06T13:12:39Z</time>
      </trkpt>
      <trkpt lat="43.41835" lon="6.07447">
        <ele>221.80000305176</ele>
        <time>2016-01-06T13:12:41Z</time>
      </trkpt>
      <trkpt lat="43.41837" lon="6.07446">
        <ele>222</ele>
        <time>2016-01-06T13:12:43Z</time>
      </trkpt>
      <trkpt lat="43.41841" lon="6.07445">
        <ele>222</ele>
        <time>2016-01-06T13:12:45Z</time>
      </trkpt>
      <trkpt lat="43.41845" lon="6.07445">
        <ele>222.39999389648</ele>
        <time>2016-01-06T13:12:47Z</time>
      </trkpt>
      <trkpt lat="43.4185" lon="6.07444">
        <ele>222.19999694824</ele>
        <time>2016-01-06T13:12:49Z</time>
      </trkpt>
      <trkpt lat="43.41853" lon="6.07443">
        <ele>222.60000610352</ele>
        <time>2016-01-06T13:12:51Z</time>
      </trkpt>
      <trkpt lat="43.41858" lon="6.07442">
        <ele>222.60000610352</ele>
        <time>2016-01-06T13:12:53Z</time>
      </trkpt>
      <trkpt lat="43.41862" lon="6.07441">
        <ele>222.60000610352</ele>
        <time>2016-01-06T13:12:55Z</time>
      </trkpt>
      <trkpt lat="43.41866" lon="6.07441">
        <ele>222.60000610352</ele>
        <time>2016-01-06T13:12:57Z</time>
      </trkpt>
      <trkpt lat="43.4187" lon="6.0744">
        <ele>222.80000305176</ele>
        <time>2016-01-06T13:12:59Z</time>
      </trkpt>
      <trkpt lat="43.41875" lon="6.0744">
        <ele>223.19999694824</ele>
        <time>2016-01-06T13:13:01Z</time>
      </trkpt>
      <trkpt lat="43.41879" lon="6.07439">
        <ele>223.19999694824</ele>
        <time>2016-01-06T13:13:03Z</time>
      </trkpt>
      <trkpt lat="43.41882" lon="6.07439">
        <ele>223.39999389648</ele>
        <time>2016-01-06T13:13:05Z</time>
      </trkpt>
      <trkpt lat="43.41887" lon="6.07438">
        <ele>223.80000305176</ele>
        <time>2016-01-06T13:13:07Z</time>
      </trkpt>
      <trkpt lat="43.41889" lon="6.07438">
        <ele>224</ele>
        <time>2016-01-06T13:13:08Z</time>
      </trkpt>
      <trkpt lat="43.41891" lon="6.07438">
        <ele>224.19999694824</ele>
        <time>2016-01-06T13:13:09Z</time>
      </trkpt>
      <trkpt lat="43.41895" lon="6.07438">
        <ele>224.39999389648</ele>
        <time>2016-01-06T13:13:11Z</time>
      </trkpt>
      <trkpt lat="43.41899" lon="6.07437">
        <ele>225</ele>
        <time>2016-01-06T13:13:13Z</time>
      </trkpt>
      <trkpt lat="43.41902" lon="6.07438">
        <ele>225.19999694824</ele>
        <time>2016-01-06T13:13:14Z</time>
      </trkpt>
      <trkpt lat="43.41904" lon="6.07438">
        <ele>225.39999389648</ele>
        <time>2016-01-06T13:13:15Z</time>
      </trkpt>
      <trkpt lat="43.41907" lon="6.07438">
        <ele>225.60000610352</ele>
        <time>2016-01-06T13:13:16Z</time>
      </trkpt>
      <trkpt lat="43.41909" lon="6.07439">
        <ele>225.80000305176</ele>
        <time>2016-01-06T13:13:17Z</time>
      </trkpt>
      <trkpt lat="43.41914" lon="6.07439">
        <ele>226.19999694824</ele>
        <time>2016-01-06T13:13:19Z</time>
      </trkpt>
      <trkpt lat="43.41919" lon="6.07439">
        <ele>226.60000610352</ele>
        <time>2016-01-06T13:13:21Z</time>
      </trkpt>
      <trkpt lat="43.41924" lon="6.0744">
        <ele>227</ele>
        <time>2016-01-06T13:13:23Z</time>
      </trkpt>
      <trkpt lat="43.41926" lon="6.0744">
        <ele>227.19999694824</ele>
        <time>2016-01-06T13:13:24Z</time>
      </trkpt>
      <trkpt lat="43.41928" lon="6.0744">
        <ele>227.60000610352</ele>
        <time>2016-01-06T13:13:25Z</time>
      </trkpt>
      <trkpt lat="43.41934" lon="6.0744">
        <ele>228.19999694824</ele>
        <time>2016-01-06T13:13:27Z</time>
      </trkpt>
      <trkpt lat="43.4194" lon="6.07439">
        <ele>228.60000610352</ele>
        <time>2016-01-06T13:13:29Z</time>
      </trkpt>
      <trkpt lat="43.41943" lon="6.07438">
        <ele>228.80000305176</ele>
        <time>2016-01-06T13:13:30Z</time>
      </trkpt>
      <trkpt lat="43.41946" lon="6.07438">
        <ele>229</ele>
        <time>2016-01-06T13:13:31Z</time>
      </trkpt>
      <trkpt lat="43.41948" lon="6.07437">
        <ele>229.19999694824</ele>
        <time>2016-01-06T13:13:32Z</time>
      </trkpt>
      <trkpt lat="43.41951" lon="6.07436">
        <ele>229.60000610352</ele>
        <time>2016-01-06T13:13:33Z</time>
      </trkpt>
      <trkpt lat="43.41956" lon="6.07435">
        <ele>230</ele>
        <time>2016-01-06T13:13:35Z</time>
      </trkpt>
      <trkpt lat="43.41958" lon="6.07434">
        <ele>230.19999694824</ele>
        <time>2016-01-06T13:13:36Z</time>
      </trkpt>
      <trkpt lat="43.4196" lon="6.07433">
        <ele>230.39999389648</ele>
        <time>2016-01-06T13:13:37Z</time>
      </trkpt>
      <trkpt lat="43.41964" lon="6.07432">
        <ele>230.80000305176</ele>
        <time>2016-01-06T13:13:39Z</time>
      </trkpt>
      <trkpt lat="43.41968" lon="6.07431">
        <ele>231</ele>
        <time>2016-01-06T13:13:41Z</time>
      </trkpt>
      <trkpt lat="43.41972" lon="6.0743">
        <ele>231.19999694824</ele>
        <time>2016-01-06T13:13:43Z</time>
      </trkpt>
      <trkpt lat="43.41976" lon="6.07429">
        <ele>231.39999389648</ele>
        <time>2016-01-06T13:13:45Z</time>
      </trkpt>
      <trkpt lat="43.4198" lon="6.07429">
        <ele>231.60000610352</ele>
        <time>2016-01-06T13:13:47Z</time>
      </trkpt>
      <trkpt lat="43.41985" lon="6.07429">
        <ele>231.60000610352</ele>
        <time>2016-01-06T13:13:49Z</time>
      </trkpt>
      <trkpt lat="43.41989" lon="6.07428">
        <ele>231.80000305176</ele>
        <time>2016-01-06T13:13:51Z</time>
      </trkpt>
      <trkpt lat="43.41994" lon="6.07428">
        <ele>232</ele>
        <time>2016-01-06T13:13:53Z</time>
      </trkpt>
      <trkpt lat="43.41998" lon="6.07429">
        <ele>232</ele>
        <time>2016-01-06T13:13:55Z</time>
      </trkpt>
      <trkpt lat="43.41999" lon="6.0743">
        <ele>232.19999694824</ele>
        <time>2016-01-06T13:13:56Z</time>
      </trkpt>
      <trkpt lat="43.42001" lon="6.07432">
        <ele>232.19999694824</ele>
        <time>2016-01-06T13:13:57Z</time>
      </trkpt>
      <trkpt lat="43.42002" lon="6.07437">
        <ele>232.60000610352</ele>
        <time>2016-01-06T13:13:59Z</time>
      </trkpt>
      <trkpt lat="43.42003" lon="6.07444">
        <ele>232.80000305176</ele>
        <time>2016-01-06T13:14:01Z</time>
      </trkpt>
      <trkpt lat="43.42004" lon="6.0745">
        <ele>232.80000305176</ele>
        <time>2016-01-06T13:14:03Z</time>
      </trkpt>
      <trkpt lat="43.42006" lon="6.07456">
        <ele>232.60000610352</ele>
        <time>2016-01-06T13:14:05Z</time>
      </trkpt>
      <trkpt lat="43.42007" lon="6.07463">
        <ele>232.39999389648</ele>
        <time>2016-01-06T13:14:07Z</time>
      </trkpt>
      <trkpt lat="43.42008" lon="6.07469">
        <ele>232.60000610352</ele>
        <time>2016-01-06T13:14:09Z</time>
      </trkpt>
      <trkpt lat="43.4201" lon="6.07474">
        <ele>232.60000610352</ele>
        <time>2016-01-06T13:14:11Z</time>
      </trkpt>
      <trkpt lat="43.42012" lon="6.0748">
        <ele>232.80000305176</ele>
        <time>2016-01-06T13:14:13Z</time>
      </trkpt>
      <trkpt lat="43.42014" lon="6.07486">
        <ele>233</ele>
        <time>2016-01-06T13:14:15Z</time>
      </trkpt>
      <trkpt lat="43.42015" lon="6.07489">
        <ele>233.19999694824</ele>
        <time>2016-01-06T13:14:16Z</time>
      </trkpt>
      <trkpt lat="43.42017" lon="6.07492">
        <ele>233.19999694824</ele>
        <time>2016-01-06T13:14:17Z</time>
      </trkpt>
      <trkpt lat="43.4202" lon="6.07496">
        <ele>233.39999389648</ele>
        <time>2016-01-06T13:14:19Z</time>
      </trkpt>
      <trkpt lat="43.42025" lon="6.07499">
        <ele>233.60000610352</ele>
        <time>2016-01-06T13:14:21Z</time>
      </trkpt>
      <trkpt lat="43.4203" lon="6.075">
        <ele>233.60000610352</ele>
        <time>2016-01-06T13:14:23Z</time>
      </trkpt>
      <trkpt lat="43.42036" lon="6.075">
        <ele>233.60000610352</ele>
        <time>2016-01-06T13:14:25Z</time>
      </trkpt>
      <trkpt lat="43.42041" lon="6.075">
        <ele>233.60000610352</ele>
        <time>2016-01-06T13:14:27Z</time>
      </trkpt>
      <trkpt lat="43.42048" lon="6.075">
        <ele>233.80000305176</ele>
        <time>2016-01-06T13:14:29Z</time>
      </trkpt>
      <trkpt lat="43.4205" lon="6.075">
        <ele>233.80000305176</ele>
        <time>2016-01-06T13:14:30Z</time>
      </trkpt>
      <trkpt lat="43.42053" lon="6.075">
        <ele>234.19999694824</ele>
        <time>2016-01-06T13:14:31Z</time>
      </trkpt>
      <trkpt lat="43.42059" lon="6.07498">
        <ele>234</ele>
        <time>2016-01-06T13:14:33Z</time>
      </trkpt>
      <trkpt lat="43.42064" lon="6.07498">
        <ele>233.80000305176</ele>
        <time>2016-01-06T13:14:35Z</time>
      </trkpt>
      <trkpt lat="43.42066" lon="6.07498">
        <ele>233.39999389648</ele>
        <time>2016-01-06T13:14:36Z</time>
      </trkpt>
      <trkpt lat="43.42068" lon="6.07498">
        <ele>233.60000610352</ele>
        <time>2016-01-06T13:14:37Z</time>
      </trkpt>
      <trkpt lat="43.42072" lon="6.07498">
        <ele>233.60000610352</ele>
        <time>2016-01-06T13:14:39Z</time>
      </trkpt>
      <trkpt lat="43.42075" lon="6.07498">
        <ele>233.60000610352</ele>
        <time>2016-01-06T13:14:41Z</time>
      </trkpt>
      <trkpt lat="43.42077" lon="6.07498">
        <ele>233.60000610352</ele>
        <time>2016-01-06T13:14:42Z</time>
      </trkpt>
      <trkpt lat="43.42078" lon="6.07498">
        <ele>234</ele>
        <time>2016-01-06T13:14:43Z</time>
      </trkpt>
      <trkpt lat="43.42081" lon="6.07497">
        <ele>233.80000305176</ele>
        <time>2016-01-06T13:14:45Z</time>
      </trkpt>
      <trkpt lat="43.42085" lon="6.07497">
        <ele>233.60000610352</ele>
        <time>2016-01-06T13:14:47Z</time>
      </trkpt>
      <trkpt lat="43.42087" lon="6.07497">
        <ele>233.80000305176</ele>
        <time>2016-01-06T13:14:48Z</time>
      </trkpt>
      <trkpt lat="43.42089" lon="6.07497">
        <ele>233.80000305176</ele>
        <time>2016-01-06T13:14:49Z</time>
      </trkpt>
      <trkpt lat="43.42094" lon="6.07499">
        <ele>233.39999389648</ele>
        <time>2016-01-06T13:14:51Z</time>
      </trkpt>
      <trkpt lat="43.42101" lon="6.075">
        <ele>233.19999694824</ele>
        <time>2016-01-06T13:14:53Z</time>
      </trkpt>
      <trkpt lat="43.42106" lon="6.07499">
        <ele>233</ele>
        <time>2016-01-06T13:14:55Z</time>
      </trkpt>
      <trkpt lat="43.42111" lon="6.07499">
        <ele>232.39999389648</ele>
        <time>2016-01-06T13:14:57Z</time>
      </trkpt>
      <trkpt lat="43.42114" lon="6.07498">
        <ele>232.19999694824</ele>
        <time>2016-01-06T13:14:58Z</time>
      </trkpt>
      <trkpt lat="43.42117" lon="6.07496">
        <ele>231.80000305176</ele>
        <time>2016-01-06T13:14:59Z</time>
      </trkpt>
      <trkpt lat="43.42119" lon="6.07495">
        <ele>231.80000305176</ele>
        <time>2016-01-06T13:15:00Z</time>
      </trkpt>
      <trkpt lat="43.42122" lon="6.07493">
        <ele>231.60000610352</ele>
        <time>2016-01-06T13:15:01Z</time>
      </trkpt>
      <trkpt lat="43.42125" lon="6.07488">
        <ele>231.39999389648</ele>
        <time>2016-01-06T13:15:03Z</time>
      </trkpt>
      <trkpt lat="43.42125" lon="6.07485">
        <ele>231.19999694824</ele>
        <time>2016-01-06T13:15:04Z</time>
      </trkpt>
      <trkpt lat="43.42126" lon="6.07482">
        <ele>231</ele>
        <time>2016-01-06T13:15:05Z</time>
      </trkpt>
      <trkpt lat="43.42129" lon="6.07476">
        <ele>230.60000610352</ele>
        <time>2016-01-06T13:15:07Z</time>
      </trkpt>
      <trkpt lat="43.42131" lon="6.07469">
        <ele>230</ele>
        <time>2016-01-06T13:15:09Z</time>
      </trkpt>
      <trkpt lat="43.42133" lon="6.07462">
        <ele>229.80000305176</ele>
        <time>2016-01-06T13:15:11Z</time>
      </trkpt>
      <trkpt lat="43.42134" lon="6.07456">
        <ele>229.60000610352</ele>
        <time>2016-01-06T13:15:13Z</time>
      </trkpt>
      <trkpt lat="43.42135" lon="6.07454">
        <ele>229.19999694824</ele>
        <time>2016-01-06T13:15:14Z</time>
      </trkpt>
      <trkpt lat="43.42135" lon="6.07451">
        <ele>228.80000305176</ele>
        <time>2016-01-06T13:15:15Z</time>
      </trkpt>
      <trkpt lat="43.42137" lon="6.07445">
        <ele>228.39999389648</ele>
        <time>2016-01-06T13:15:17Z</time>
      </trkpt>
      <trkpt lat="43.4214" lon="6.07437">
        <ele>228.39999389648</ele>
        <time>2016-01-06T13:15:19Z</time>
      </trkpt>
      <trkpt lat="43.42142" lon="6.07427">
        <ele>228.39999389648</ele>
        <time>2016-01-06T13:15:21Z</time>
      </trkpt>
      <trkpt lat="43.42143" lon="6.07421">
        <ele>228.39999389648</ele>
        <time>2016-01-06T13:15:22Z</time>
      </trkpt>
      <trkpt lat="43.42144" lon="6.07415">
        <ele>228.60000610352</ele>
        <time>2016-01-06T13:15:23Z</time>
      </trkpt>
      <trkpt lat="43.42146" lon="6.07403">
        <ele>228.60000610352</ele>
        <time>2016-01-06T13:15:25Z</time>
      </trkpt>
      <trkpt lat="43.42148" lon="6.07389">
        <ele>228.60000610352</ele>
        <time>2016-01-06T13:15:27Z</time>
      </trkpt>
      <trkpt lat="43.4215" lon="6.07376">
        <ele>228.60000610352</ele>
        <time>2016-01-06T13:15:29Z</time>
      </trkpt>
      <trkpt lat="43.42152" lon="6.07362">
        <ele>228.80000305176</ele>
        <time>2016-01-06T13:15:31Z</time>
      </trkpt>
      <trkpt lat="43.42154" lon="6.07348">
        <ele>228.80000305176</ele>
        <time>2016-01-06T13:15:33Z</time>
      </trkpt>
      <trkpt lat="43.42155" lon="6.07334">
        <ele>229.19999694824</ele>
        <time>2016-01-06T13:15:35Z</time>
      </trkpt>
      <trkpt lat="43.42157" lon="6.07319">
        <ele>228.80000305176</ele>
        <time>2016-01-06T13:15:37Z</time>
      </trkpt>
      <trkpt lat="43.4216" lon="6.07305">
        <ele>228.60000610352</ele>
        <time>2016-01-06T13:15:39Z</time>
      </trkpt>
      <trkpt lat="43.42162" lon="6.07291">
        <ele>229</ele>
        <time>2016-01-06T13:15:41Z</time>
      </trkpt>
      <trkpt lat="43.42164" lon="6.07279">
        <ele>229</ele>
        <time>2016-01-06T13:15:43Z</time>
      </trkpt>
      <trkpt lat="43.42166" lon="6.07267">
        <ele>229.19999694824</ele>
        <time>2016-01-06T13:15:45Z</time>
      </trkpt>
      <trkpt lat="43.42167" lon="6.07261">
        <ele>229.19999694824</ele>
        <time>2016-01-06T13:15:46Z</time>
      </trkpt>
      <trkpt lat="43.42169" lon="6.07255">
        <ele>229.39999389648</ele>
        <time>2016-01-06T13:15:47Z</time>
      </trkpt>
      <trkpt lat="43.4217" lon="6.07249">
        <ele>229.60000610352</ele>
        <time>2016-01-06T13:15:48Z</time>
      </trkpt>
      <trkpt lat="43.42171" lon="6.07243">
        <ele>229.80000305176</ele>
        <time>2016-01-06T13:15:49Z</time>
      </trkpt>
      <trkpt lat="43.42171" lon="6.07238">
        <ele>230</ele>
        <time>2016-01-06T13:15:50Z</time>
      </trkpt>
      <trkpt lat="43.42173" lon="6.07232">
        <ele>230.39999389648</ele>
        <time>2016-01-06T13:15:51Z</time>
      </trkpt>
      <trkpt lat="43.42175" lon="6.07221">
        <ele>230.60000610352</ele>
        <time>2016-01-06T13:15:53Z</time>
      </trkpt>
      <trkpt lat="43.42175" lon="6.07216">
        <ele>230.60000610352</ele>
        <time>2016-01-06T13:15:54Z</time>
      </trkpt>
      <trkpt lat="43.42176" lon="6.0721">
        <ele>230.80000305176</ele>
        <time>2016-01-06T13:15:55Z</time>
      </trkpt>
      <trkpt lat="43.42178" lon="6.07198">
        <ele>230.80000305176</ele>
        <time>2016-01-06T13:15:57Z</time>
      </trkpt>
      <trkpt lat="43.42179" lon="6.07185">
        <ele>230.39999389648</ele>
        <time>2016-01-06T13:15:59Z</time>
      </trkpt>
      <trkpt lat="43.42181" lon="6.0717">
        <ele>230.19999694824</ele>
        <time>2016-01-06T13:16:01Z</time>
      </trkpt>
      <trkpt lat="43.42181" lon="6.07154">
        <ele>228.80000305176</ele>
        <time>2016-01-06T13:16:03Z</time>
      </trkpt>
      <trkpt lat="43.42178" lon="6.07138">
        <ele>228.60000610352</ele>
        <time>2016-01-06T13:16:05Z</time>
      </trkpt>
      <trkpt lat="43.42173" lon="6.07122">
        <ele>228.19999694824</ele>
        <time>2016-01-06T13:16:07Z</time>
      </trkpt>
      <trkpt lat="43.42171" lon="6.07106">
        <ele>228</ele>
        <time>2016-01-06T13:16:09Z</time>
      </trkpt>
      <trkpt lat="43.42169" lon="6.071">
        <ele>228</ele>
        <time>2016-01-06T13:16:10Z</time>
      </trkpt>
      <trkpt lat="43.42167" lon="6.07093">
        <ele>228</ele>
        <time>2016-01-06T13:16:11Z</time>
      </trkpt>
      <trkpt lat="43.42165" lon="6.07083">
        <ele>227.39999389648</ele>
        <time>2016-01-06T13:16:13Z</time>
      </trkpt>
      <trkpt lat="43.42164" lon="6.07079">
        <ele>227.60000610352</ele>
        <time>2016-01-06T13:16:14Z</time>
      </trkpt>
      <trkpt lat="43.42163" lon="6.07075">
        <ele>227.80000305176</ele>
        <time>2016-01-06T13:16:15Z</time>
      </trkpt>
      <trkpt lat="43.42163" lon="6.07068">
        <ele>228</ele>
        <time>2016-01-06T13:16:17Z</time>
      </trkpt>
      <trkpt lat="43.42166" lon="6.07065">
        <ele>228.19999694824</ele>
        <time>2016-01-06T13:16:18Z</time>
      </trkpt>
      <trkpt lat="43.42168" lon="6.07063">
        <ele>228.60000610352</ele>
        <time>2016-01-06T13:16:19Z</time>
      </trkpt>
      <trkpt lat="43.42175" lon="6.07062">
        <ele>228.80000305176</ele>
        <time>2016-01-06T13:16:21Z</time>
      </trkpt>
      <trkpt lat="43.42178" lon="6.07062">
        <ele>229</ele>
        <time>2016-01-06T13:16:22Z</time>
      </trkpt>
      <trkpt lat="43.42182" lon="6.07062">
        <ele>229.19999694824</ele>
        <time>2016-01-06T13:16:23Z</time>
      </trkpt>
      <trkpt lat="43.42184" lon="6.07063">
        <ele>229.60000610352</ele>
        <time>2016-01-06T13:16:24Z</time>
      </trkpt>
      <trkpt lat="43.42188" lon="6.07063">
        <ele>229.80000305176</ele>
        <time>2016-01-06T13:16:25Z</time>
      </trkpt>
      <trkpt lat="43.42195" lon="6.07064">
        <ele>229.80000305176</ele>
        <time>2016-01-06T13:16:28Z</time>
      </trkpt>
      <trkpt lat="43.42204" lon="6.07065">
        <ele>230.39999389648</ele>
        <time>2016-01-06T13:16:31Z</time>
      </trkpt>
      <trkpt lat="43.42207" lon="6.07065">
        <ele>230.60000610352</ele>
        <time>2016-01-06T13:16:32Z</time>
      </trkpt>
      <trkpt lat="43.42209" lon="6.07065">
        <ele>230.60000610352</ele>
        <time>2016-01-06T13:16:33Z</time>
      </trkpt>
      <trkpt lat="43.4221" lon="6.07066">
        <ele>230.60000610352</ele>
        <time>2016-01-06T13:16:34Z</time>
      </trkpt>
      <trkpt lat="43.4221" lon="6.07066">
        <ele>230.80000305176</ele>
        <time>2016-01-06T13:16:35Z</time>
      </trkpt>
      <trkpt lat="43.42214" lon="6.07065">
        <ele>231</ele>
        <time>2016-01-06T13:16:37Z</time>
      </trkpt>
      <trkpt lat="43.4222" lon="6.07066">
        <ele>231.39999389648</ele>
        <time>2016-01-06T13:16:39Z</time>
      </trkpt>
      <trkpt lat="43.42228" lon="6.07072">
        <ele>231.39999389648</ele>
        <time>2016-01-06T13:16:41Z</time>
      </trkpt>
      <trkpt lat="43.42231" lon="6.07077">
        <ele>231.39999389648</ele>
        <time>2016-01-06T13:16:42Z</time>
      </trkpt>
      <trkpt lat="43.42233" lon="6.07083">
        <ele>231.39999389648</ele>
        <time>2016-01-06T13:16:43Z</time>
      </trkpt>
      <trkpt lat="43.42234" lon="6.0709">
        <ele>231.39999389648</ele>
        <time>2016-01-06T13:16:44Z</time>
      </trkpt>
      <trkpt lat="43.42235" lon="6.07097">
        <ele>231</ele>
        <time>2016-01-06T13:16:45Z</time>
      </trkpt>
      <trkpt lat="43.42236" lon="6.07104">
        <ele>230.80000305176</ele>
        <time>2016-01-06T13:16:46Z</time>
      </trkpt>
      <trkpt lat="43.42236" lon="6.07112">
        <ele>230.60000610352</ele>
        <time>2016-01-06T13:16:47Z</time>
      </trkpt>
      <trkpt lat="43.42236" lon="6.07125">
        <ele>230.19999694824</ele>
        <time>2016-01-06T13:16:49Z</time>
      </trkpt>
      <trkpt lat="43.42235" lon="6.07137">
        <ele>229.80000305176</ele>
        <time>2016-01-06T13:16:51Z</time>
      </trkpt>
      <trkpt lat="43.42235" lon="6.07144">
        <ele>229.60000610352</ele>
        <time>2016-01-06T13:16:52Z</time>
      </trkpt>
      <trkpt lat="43.42234" lon="6.07149">
        <ele>229.60000610352</ele>
        <time>2016-01-06T13:16:53Z</time>
      </trkpt>
      <trkpt lat="43.42233" lon="6.07162">
        <ele>229.60000610352</ele>
        <time>2016-01-06T13:16:55Z</time>
      </trkpt>
      <trkpt lat="43.42231" lon="6.07173">
        <ele>230</ele>
        <time>2016-01-06T13:16:57Z</time>
      </trkpt>
      <trkpt lat="43.4223" lon="6.07185">
        <ele>229.80000305176</ele>
        <time>2016-01-06T13:16:59Z</time>
      </trkpt>
      <trkpt lat="43.42229" lon="6.07191">
        <ele>229.80000305176</ele>
        <time>2016-01-06T13:17:00Z</time>
      </trkpt>
      <trkpt lat="43.42228" lon="6.07196">
        <ele>229.80000305176</ele>
        <time>2016-01-06T13:17:01Z</time>
      </trkpt>
      <trkpt lat="43.42226" lon="6.07207">
        <ele>230.19999694824</ele>
        <time>2016-01-06T13:17:03Z</time>
      </trkpt>
      <trkpt lat="43.42225" lon="6.07217">
        <ele>230.39999389648</ele>
        <time>2016-01-06T13:17:05Z</time>
      </trkpt>
      <trkpt lat="43.42225" lon="6.07222">
        <ele>230.39999389648</ele>
        <time>2016-01-06T13:17:06Z</time>
      </trkpt>
      <trkpt lat="43.42223" lon="6.07239">
        <ele>230.39999389648</ele>
        <time>2016-01-06T13:17:09Z</time>
      </trkpt>
      <trkpt lat="43.42221" lon="6.07251">
        <ele>230.39999389648</ele>
        <time>2016-01-06T13:17:11Z</time>
      </trkpt>
      <trkpt lat="43.42221" lon="6.07258">
        <ele>230.39999389648</ele>
        <time>2016-01-06T13:17:12Z</time>
      </trkpt>
      <trkpt lat="43.42219" lon="6.0727">
        <ele>230.19999694824</ele>
        <time>2016-01-06T13:17:14Z</time>
      </trkpt>
      <trkpt lat="43.42218" lon="6.07276">
        <ele>230</ele>
        <time>2016-01-06T13:17:15Z</time>
      </trkpt>
      <trkpt lat="43.42217" lon="6.07283">
        <ele>230</ele>
        <time>2016-01-06T13:17:16Z</time>
      </trkpt>
      <trkpt lat="43.42215" lon="6.07301">
        <ele>229.80000305176</ele>
        <time>2016-01-06T13:17:19Z</time>
      </trkpt>
      <trkpt lat="43.42213" lon="6.07313">
        <ele>229.80000305176</ele>
        <time>2016-01-06T13:17:21Z</time>
      </trkpt>
      <trkpt lat="43.42212" lon="6.07319">
        <ele>230</ele>
        <time>2016-01-06T13:17:22Z</time>
      </trkpt>
      <trkpt lat="43.42212" lon="6.07324">
        <ele>230.19999694824</ele>
        <time>2016-01-06T13:17:23Z</time>
      </trkpt>
      <trkpt lat="43.4221" lon="6.07336">
        <ele>230.39999389648</ele>
        <time>2016-01-06T13:17:25Z</time>
      </trkpt>
      <trkpt lat="43.42208" lon="6.07348">
        <ele>230.39999389648</ele>
        <time>2016-01-06T13:17:27Z</time>
      </trkpt>
      <trkpt lat="43.42207" lon="6.07354">
        <ele>230.39999389648</ele>
        <time>2016-01-06T13:17:28Z</time>
      </trkpt>
      <trkpt lat="43.42204" lon="6.07372">
        <ele>230.60000610352</ele>
        <time>2016-01-06T13:17:31Z</time>
      </trkpt>
      <trkpt lat="43.42204" lon="6.07379">
        <ele>230.60000610352</ele>
        <time>2016-01-06T13:17:32Z</time>
      </trkpt>
      <trkpt lat="43.42201" lon="6.07396">
        <ele>230.19999694824</ele>
        <time>2016-01-06T13:17:35Z</time>
      </trkpt>
      <trkpt lat="43.422" lon="6.07408">
        <ele>229.80000305176</ele>
        <time>2016-01-06T13:17:37Z</time>
      </trkpt>
      <trkpt lat="43.42199" lon="6.07415">
        <ele>230</ele>
        <time>2016-01-06T13:17:38Z</time>
      </trkpt>
      <trkpt lat="43.42199" lon="6.0742">
        <ele>229.80000305176</ele>
        <time>2016-01-06T13:17:39Z</time>
      </trkpt>
      <trkpt lat="43.42197" lon="6.07426">
        <ele>229.80000305176</ele>
        <time>2016-01-06T13:17:40Z</time>
      </trkpt>
      <trkpt lat="43.42196" lon="6.07441">
        <ele>230</ele>
        <time>2016-01-06T13:17:43Z</time>
      </trkpt>
      <trkpt lat="43.42194" lon="6.07446">
        <ele>230.19999694824</ele>
        <time>2016-01-06T13:17:44Z</time>
      </trkpt>
      <trkpt lat="43.42194" lon="6.07451">
        <ele>230.19999694824</ele>
        <time>2016-01-06T13:17:45Z</time>
      </trkpt>
      <trkpt lat="43.42191" lon="6.07462">
        <ele>230.39999389648</ele>
        <time>2016-01-06T13:17:47Z</time>
      </trkpt>
      <trkpt lat="43.4219" lon="6.07467">
        <ele>230.39999389648</ele>
        <time>2016-01-06T13:17:48Z</time>
      </trkpt>
      <trkpt lat="43.42186" lon="6.07483">
        <ele>230.39999389648</ele>
        <time>2016-01-06T13:17:51Z</time>
      </trkpt>
      <trkpt lat="43.42185" lon="6.07488">
        <ele>230.39999389648</ele>
        <time>2016-01-06T13:17:52Z</time>
      </trkpt>
      <trkpt lat="43.42184" lon="6.07493">
        <ele>230.39999389648</ele>
        <time>2016-01-06T13:17:53Z</time>
      </trkpt>
      <trkpt lat="43.42181" lon="6.07504">
        <ele>230.80000305176</ele>
        <time>2016-01-06T13:17:55Z</time>
      </trkpt>
      <trkpt lat="43.4218" lon="6.07509">
        <ele>230.80000305176</ele>
        <time>2016-01-06T13:17:56Z</time>
      </trkpt>
      <trkpt lat="43.42179" lon="6.07513">
        <ele>231.19999694824</ele>
        <time>2016-01-06T13:17:57Z</time>
      </trkpt>
      <trkpt lat="43.42176" lon="6.07522">
        <ele>231.19999694824</ele>
        <time>2016-01-06T13:17:59Z</time>
      </trkpt>
      <trkpt lat="43.42176" lon="6.07527">
        <ele>231.39999389648</ele>
        <time>2016-01-06T13:18:00Z</time>
      </trkpt>
      <trkpt lat="43.42174" lon="6.07537">
        <ele>231.60000610352</ele>
        <time>2016-01-06T13:18:02Z</time>
      </trkpt>
      <trkpt lat="43.42173" lon="6.07548">
        <ele>231.80000305176</ele>
        <time>2016-01-06T13:18:04Z</time>
      </trkpt>
      <trkpt lat="43.4217" lon="6.07564">
        <ele>231.80000305176</ele>
        <time>2016-01-06T13:18:07Z</time>
      </trkpt>
      <trkpt lat="43.4217" lon="6.07569">
        <ele>232</ele>
        <time>2016-01-06T13:18:08Z</time>
      </trkpt>
      <trkpt lat="43.42168" lon="6.07579">
        <ele>232</ele>
        <time>2016-01-06T13:18:10Z</time>
      </trkpt>
      <trkpt lat="43.42166" lon="6.0759">
        <ele>232</ele>
        <time>2016-01-06T13:18:12Z</time>
      </trkpt>
      <trkpt lat="43.42164" lon="6.076">
        <ele>232.39999389648</ele>
        <time>2016-01-06T13:18:14Z</time>
      </trkpt>
      <trkpt lat="43.42163" lon="6.07604">
        <ele>232.39999389648</ele>
        <time>2016-01-06T13:18:15Z</time>
      </trkpt>
      <trkpt lat="43.42161" lon="6.07609">
        <ele>232.19999694824</ele>
        <time>2016-01-06T13:18:16Z</time>
      </trkpt>
      <trkpt lat="43.42159" lon="6.07617">
        <ele>232.60000610352</ele>
        <time>2016-01-06T13:18:18Z</time>
      </trkpt>
      <trkpt lat="43.42159" lon="6.07621">
        <ele>232.80000305176</ele>
        <time>2016-01-06T13:18:19Z</time>
      </trkpt>
      <trkpt lat="43.42157" lon="6.07626">
        <ele>232.80000305176</ele>
        <time>2016-01-06T13:18:20Z</time>
      </trkpt>
      <trkpt lat="43.42157" lon="6.0763">
        <ele>232.80000305176</ele>
        <time>2016-01-06T13:18:21Z</time>
      </trkpt>
      <trkpt lat="43.42155" lon="6.07635">
        <ele>232.80000305176</ele>
        <time>2016-01-06T13:18:22Z</time>
      </trkpt>
      <trkpt lat="43.42152" lon="6.07643">
        <ele>233.80000305176</ele>
        <time>2016-01-06T13:18:24Z</time>
      </trkpt>
      <trkpt lat="43.4215" lon="6.07651">
        <ele>233.60000610352</ele>
        <time>2016-01-06T13:18:26Z</time>
      </trkpt>
      <trkpt lat="43.42148" lon="6.0766">
        <ele>233.60000610352</ele>
        <time>2016-01-06T13:18:28Z</time>
      </trkpt>
      <trkpt lat="43.42146" lon="6.07669">
        <ele>234</ele>
        <time>2016-01-06T13:18:30Z</time>
      </trkpt>
      <trkpt lat="43.42143" lon="6.07677">
        <ele>234.60000610352</ele>
        <time>2016-01-06T13:18:32Z</time>
      </trkpt>
      <trkpt lat="43.4214" lon="6.07685">
        <ele>234.80000305176</ele>
        <time>2016-01-06T13:18:34Z</time>
      </trkpt>
      <trkpt lat="43.42138" lon="6.07693">
        <ele>235.19999694824</ele>
        <time>2016-01-06T13:18:36Z</time>
      </trkpt>
      <trkpt lat="43.42135" lon="6.07702">
        <ele>235.80000305176</ele>
        <time>2016-01-06T13:18:38Z</time>
      </trkpt>
      <trkpt lat="43.42134" lon="6.07705">
        <ele>236</ele>
        <time>2016-01-06T13:18:39Z</time>
      </trkpt>
      <trkpt lat="43.42132" lon="6.0771">
        <ele>236</ele>
        <time>2016-01-06T13:18:40Z</time>
      </trkpt>
      <trkpt lat="43.4213" lon="6.07719">
        <ele>236.39999389648</ele>
        <time>2016-01-06T13:18:42Z</time>
      </trkpt>
      <trkpt lat="43.42128" lon="6.07727">
        <ele>237.19999694824</ele>
        <time>2016-01-06T13:18:44Z</time>
      </trkpt>
      <trkpt lat="43.42126" lon="6.07731">
        <ele>237.39999389648</ele>
        <time>2016-01-06T13:18:45Z</time>
      </trkpt>
      <trkpt lat="43.42125" lon="6.07735">
        <ele>237.39999389648</ele>
        <time>2016-01-06T13:18:46Z</time>
      </trkpt>
      <trkpt lat="43.42122" lon="6.07743">
        <ele>237.60000610352</ele>
        <time>2016-01-06T13:18:48Z</time>
      </trkpt>
      <trkpt lat="43.4212" lon="6.07751">
        <ele>238.19999694824</ele>
        <time>2016-01-06T13:18:50Z</time>
      </trkpt>
      <trkpt lat="43.42119" lon="6.07754">
        <ele>238.39999389648</ele>
        <time>2016-01-06T13:18:51Z</time>
      </trkpt>
      <trkpt lat="43.42118" lon="6.07759">
        <ele>238.80000305176</ele>
        <time>2016-01-06T13:18:52Z</time>
      </trkpt>
      <trkpt lat="43.42116" lon="6.07767">
        <ele>239.19999694824</ele>
        <time>2016-01-06T13:18:54Z</time>
      </trkpt>
      <trkpt lat="43.42114" lon="6.07775">
        <ele>239.19999694824</ele>
        <time>2016-01-06T13:18:56Z</time>
      </trkpt>
      <trkpt lat="43.42113" lon="6.07779">
        <ele>239.39999389648</ele>
        <time>2016-01-06T13:18:57Z</time>
      </trkpt>
      <trkpt lat="43.42112" lon="6.07783">
        <ele>239.80000305176</ele>
        <time>2016-01-06T13:18:58Z</time>
      </trkpt>
      <trkpt lat="43.42109" lon="6.07791">
        <ele>240.39999389648</ele>
        <time>2016-01-06T13:19:00Z</time>
      </trkpt>
      <trkpt lat="43.42108" lon="6.07795">
        <ele>240.60000610352</ele>
        <time>2016-01-06T13:19:01Z</time>
      </trkpt>
      <trkpt lat="43.42107" lon="6.078">
        <ele>240.60000610352</ele>
        <time>2016-01-06T13:19:02Z</time>
      </trkpt>
      <trkpt lat="43.42104" lon="6.07808">
        <ele>241</ele>
        <time>2016-01-06T13:19:04Z</time>
      </trkpt>
      <trkpt lat="43.42102" lon="6.07815">
        <ele>241.39999389648</ele>
        <time>2016-01-06T13:19:06Z</time>
      </trkpt>
      <trkpt lat="43.42101" lon="6.07819">
        <ele>241.60000610352</ele>
        <time>2016-01-06T13:19:07Z</time>
      </trkpt>
      <trkpt lat="43.421" lon="6.07822">
        <ele>242</ele>
        <time>2016-01-06T13:19:08Z</time>
      </trkpt>
      <trkpt lat="43.42099" lon="6.07829">
        <ele>242.39999389648</ele>
        <time>2016-01-06T13:19:10Z</time>
      </trkpt>
      <trkpt lat="43.42097" lon="6.07837">
        <ele>243</ele>
        <time>2016-01-06T13:19:13Z</time>
      </trkpt>
      <trkpt lat="43.42096" lon="6.07842">
        <ele>243.39999389648</ele>
        <time>2016-01-06T13:19:15Z</time>
      </trkpt>
      <trkpt lat="43.42096" lon="6.07844">
        <ele>243.80000305176</ele>
        <time>2016-01-06T13:19:16Z</time>
      </trkpt>
      <trkpt lat="43.42095" lon="6.07848">
        <ele>243.60000610352</ele>
        <time>2016-01-06T13:19:18Z</time>
      </trkpt>
      <trkpt lat="43.42094" lon="6.07851">
        <ele>243.80000305176</ele>
        <time>2016-01-06T13:19:20Z</time>
      </trkpt>
      <trkpt lat="43.42094" lon="6.07854">
        <ele>244.19999694824</ele>
        <time>2016-01-06T13:19:22Z</time>
      </trkpt>
      <trkpt lat="43.42094" lon="6.07856">
        <ele>244</ele>
        <time>2016-01-06T13:19:23Z</time>
      </trkpt>
      <trkpt lat="43.42094" lon="6.07856">
        <ele>244</ele>
        <time>2016-01-06T13:19:25Z</time>
      </trkpt>
      <trkpt lat="43.42094" lon="6.07856">
        <ele>244.19999694824</ele>
        <time>2016-01-06T13:19:26Z</time>
      </trkpt>
      <trkpt lat="43.42094" lon="6.07857">
        <ele>244.19999694824</ele>
        <time>2016-01-06T13:19:27Z</time>
      </trkpt>
      <trkpt lat="43.42094" lon="6.07857">
        <ele>244.19999694824</ele>
        <time>2016-01-06T13:19:29Z</time>
      </trkpt>
      <trkpt lat="43.42094" lon="6.07857">
        <ele>244.19999694824</ele>
        <time>2016-01-06T13:19:30Z</time>
      </trkpt>
      <trkpt lat="43.42094" lon="6.07857">
        <ele>244.19999694824</ele>
        <time>2016-01-06T13:19:32Z</time>
      </trkpt>
      <trkpt lat="43.42094" lon="6.07857">
        <ele>244</ele>
        <time>2016-01-06T13:19:34Z</time>
      </trkpt>
      <trkpt lat="43.42094" lon="6.07857">
        <ele>243.80000305176</ele>
        <time>2016-01-06T13:19:36Z</time>
      </trkpt>
      <trkpt lat="43.42094" lon="6.07857">
        <ele>243.60000610352</ele>
        <time>2016-01-06T13:19:38Z</time>
      </trkpt>
      <trkpt lat="43.42094" lon="6.07857">
        <ele>243.80000305176</ele>
        <time>2016-01-06T13:19:40Z</time>
      </trkpt>
      <trkpt lat="43.42094" lon="6.07857">
        <ele>243.60000610352</ele>
        <time>2016-01-06T13:19:42Z</time>
      </trkpt>
      <trkpt lat="43.42094" lon="6.07857">
        <ele>243.80000305176</ele>
        <time>2016-01-06T13:19:44Z</time>
      </trkpt>
      <trkpt lat="43.42094" lon="6.07857">
        <ele>244</ele>
        <time>2016-01-06T13:19:46Z</time>
      </trkpt>
      <trkpt lat="43.42094" lon="6.07857">
        <ele>244</ele>
        <time>2016-01-06T13:19:47Z</time>
      </trkpt>
      <trkpt lat="43.42094" lon="6.07857">
        <ele>244.19999694824</ele>
        <time>2016-01-06T13:19:48Z</time>
      </trkpt>
      <trkpt lat="43.42094" lon="6.07857">
        <ele>244.19999694824</ele>
        <time>2016-01-06T13:19:49Z</time>
      </trkpt>
      <trkpt lat="43.42094" lon="6.07857">
        <ele>244</ele>
        <time>2016-01-06T13:19:50Z</time>
      </trkpt>
      <trkpt lat="43.42094" lon="6.07857">
        <ele>243.60000610352</ele>
        <time>2016-01-06T13:19:52Z</time>
      </trkpt>
      <trkpt lat="43.42094" lon="6.07857">
        <ele>243.60000610352</ele>
        <time>2016-01-06T13:19:53Z</time>
      </trkpt>
      <trkpt lat="43.42094" lon="6.07857">
        <ele>243.60000610352</ele>
        <time>2016-01-06T13:19:54Z</time>
      </trkpt>
      <trkpt lat="43.42094" lon="6.07858">
        <ele>243.60000610352</ele>
        <time>2016-01-06T13:19:56Z</time>
      </trkpt>
      <trkpt lat="43.42094" lon="6.07858">
        <ele>243.80000305176</ele>
        <time>2016-01-06T13:19:59Z</time>
      </trkpt>
      <trkpt lat="43.42094" lon="6.07858">
        <ele>243.80000305176</ele>
        <time>2016-01-06T13:20:01Z</time>
      </trkpt>
      <trkpt lat="43.42094" lon="6.07858">
        <ele>243.60000610352</ele>
        <time>2016-01-06T13:20:03Z</time>
      </trkpt>
      <trkpt lat="43.42094" lon="6.07858">
        <ele>243.80000305176</ele>
        <time>2016-01-06T13:20:05Z</time>
      </trkpt>
      <trkpt lat="43.42094" lon="6.07858">
        <ele>243.80000305176</ele>
        <time>2016-01-06T13:20:06Z</time>
      </trkpt>
      <trkpt lat="43.42094" lon="6.07858">
        <ele>243.80000305176</ele>
        <time>2016-01-06T13:20:08Z</time>
      </trkpt>
      <trkpt lat="43.42094" lon="6.07858">
        <ele>243.80000305176</ele>
        <time>2016-01-06T13:20:11Z</time>
      </trkpt>
      <trkpt lat="43.42094" lon="6.07858">
        <ele>243.80000305176</ele>
        <time>2016-01-06T13:20:13Z</time>
      </trkpt>
      <trkpt lat="43.42094" lon="6.07858">
        <ele>243.80000305176</ele>
        <time>2016-01-06T13:20:15Z</time>
      </trkpt>
      <trkpt lat="43.42094" lon="6.07858">
        <ele>243.80000305176</ele>
        <time>2016-01-06T13:20:17Z</time>
      </trkpt>
      <trkpt lat="43.42094" lon="6.07858">
        <ele>243.80000305176</ele>
        <time>2016-01-06T13:20:19Z</time>
      </trkpt>
      <trkpt lat="43.42094" lon="6.07858">
        <ele>243.80000305176</ele>
        <time>2016-01-06T13:20:21Z</time>
      </trkpt>
      <trkpt lat="43.42094" lon="6.07858">
        <ele>243.60000610352</ele>
        <time>2016-01-06T13:20:23Z</time>
      </trkpt>
      <trkpt lat="43.42094" lon="6.07858">
        <ele>243.60000610352</ele>
        <time>2016-01-06T13:20:24Z</time>
      </trkpt>
      <trkpt lat="43.42094" lon="6.07858">
        <ele>243.60000610352</ele>
        <time>2016-01-06T13:20:26Z</time>
      </trkpt>
      <trkpt lat="43.42094" lon="6.07858">
        <ele>244</ele>
        <time>2016-01-06T13:20:29Z</time>
      </trkpt>
      <trkpt lat="43.42094" lon="6.07858">
        <ele>243.60000610352</ele>
        <time>2016-01-06T13:20:31Z</time>
      </trkpt>
      <trkpt lat="43.42094" lon="6.07858">
        <ele>243.60000610352</ele>
        <time>2016-01-06T13:20:33Z</time>
      </trkpt>
      <trkpt lat="43.42094" lon="6.07858">
        <ele>243.80000305176</ele>
        <time>2016-01-06T13:20:34Z</time>
      </trkpt>
      <trkpt lat="43.42094" lon="6.07858">
        <ele>243.60000610352</ele>
        <time>2016-01-06T13:20:37Z</time>
      </trkpt>
      <trkpt lat="43.42094" lon="6.07858">
        <ele>243.60000610352</ele>
        <time>2016-01-06T13:20:38Z</time>
      </trkpt>
      <trkpt lat="43.42094" lon="6.07858">
        <ele>243.60000610352</ele>
        <time>2016-01-06T13:20:40Z</time>
      </trkpt>
      <trkpt lat="43.42094" lon="6.07858">
        <ele>243.39999389648</ele>
        <time>2016-01-06T13:20:43Z</time>
      </trkpt>
      <trkpt lat="43.42094" lon="6.07858">
        <ele>243.60000610352</ele>
        <time>2016-01-06T13:20:45Z</time>
      </trkpt>
      <trkpt lat="43.42094" lon="6.07858">
        <ele>243.60000610352</ele>
        <time>2016-01-06T13:20:46Z</time>
      </trkpt>
      <trkpt lat="43.42094" lon="6.07858">
        <ele>243.60000610352</ele>
        <time>2016-01-06T13:20:49Z</time>
      </trkpt>
      <trkpt lat="43.42094" lon="6.07858">
        <ele>243.60000610352</ele>
        <time>2016-01-06T13:20:50Z</time>
      </trkpt>
      <trkpt lat="43.42094" lon="6.07858">
        <ele>243.60000610352</ele>
        <time>2016-01-06T13:20:53Z</time>
      </trkpt>
      <trkpt lat="43.42094" lon="6.07858">
        <ele>243.39999389648</ele>
        <time>2016-01-06T13:20:55Z</time>
      </trkpt>
      <trkpt lat="43.42094" lon="6.07858">
        <ele>243.39999389648</ele>
        <time>2016-01-06T13:20:57Z</time>
      </trkpt>
      <trkpt lat="43.42094" lon="6.07858">
        <ele>243.60000610352</ele>
        <time>2016-01-06T13:20:58Z</time>
      </trkpt>
      <trkpt lat="43.42094" lon="6.07858">
        <ele>243.60000610352</ele>
        <time>2016-01-06T13:20:59Z</time>
      </trkpt>
      <trkpt lat="43.42094" lon="6.07858">
        <ele>243.60000610352</ele>
        <time>2016-01-06T13:21:01Z</time>
      </trkpt>
      <trkpt lat="43.42094" lon="6.07858">
        <ele>243.39999389648</ele>
        <time>2016-01-06T13:21:03Z</time>
      </trkpt>
      <trkpt lat="43.42094" lon="6.07858">
        <ele>243.39999389648</ele>
        <time>2016-01-06T13:21:05Z</time>
      </trkpt>
      <trkpt lat="43.42094" lon="6.07858">
        <ele>243.60000610352</ele>
        <time>2016-01-06T13:21:07Z</time>
      </trkpt>
      <trkpt lat="43.42094" lon="6.07858">
        <ele>243.39999389648</ele>
        <time>2016-01-06T13:21:09Z</time>
      </trkpt>
      <trkpt lat="43.42094" lon="6.07858">
        <ele>243.60000610352</ele>
        <time>2016-01-06T13:21:10Z</time>
      </trkpt>
      <trkpt lat="43.42094" lon="6.07858">
        <ele>243.39999389648</ele>
        <time>2016-01-06T13:21:13Z</time>
      </trkpt>
      <trkpt lat="43.42094" lon="6.07858">
        <ele>243.39999389648</ele>
        <time>2016-01-06T13:21:15Z</time>
      </trkpt>
      <trkpt lat="43.42094" lon="6.07858">
        <ele>243.39999389648</ele>
        <time>2016-01-06T13:21:17Z</time>
      </trkpt>
      <trkpt lat="43.42094" lon="6.07858">
        <ele>243.39999389648</ele>
        <time>2016-01-06T13:21:18Z</time>
      </trkpt>
      <trkpt lat="43.42094" lon="6.07858">
        <ele>243.39999389648</ele>
        <time>2016-01-06T13:21:20Z</time>
      </trkpt>
      <trkpt lat="43.42094" lon="6.07858">
        <ele>243.19999694824</ele>
        <time>2016-01-06T13:21:22Z</time>
      </trkpt>
      <trkpt lat="43.42094" lon="6.07858">
        <ele>243.19999694824</ele>
        <time>2016-01-06T13:21:24Z</time>
      </trkpt>
      <trkpt lat="43.42094" lon="6.07858">
        <ele>243.19999694824</ele>
        <time>2016-01-06T13:21:26Z</time>
      </trkpt>
      <trkpt lat="43.42094" lon="6.07858">
        <ele>243.19999694824</ele>
        <time>2016-01-06T13:21:28Z</time>
      </trkpt>
      <trkpt lat="43.42094" lon="6.07858">
        <ele>243</ele>
        <time>2016-01-06T13:21:30Z</time>
      </trkpt>
      <trkpt lat="43.42094" lon="6.07858">
        <ele>243.19999694824</ele>
        <time>2016-01-06T13:21:32Z</time>
      </trkpt>
      <trkpt lat="43.42094" lon="6.07858">
        <ele>243</ele>
        <time>2016-01-06T13:21:34Z</time>
      </trkpt>
      <trkpt lat="43.42094" lon="6.07858">
        <ele>243.19999694824</ele>
        <time>2016-01-06T13:21:36Z</time>
      </trkpt>
      <trkpt lat="43.42094" lon="6.07858">
        <ele>243.39999389648</ele>
        <time>2016-01-06T13:21:39Z</time>
      </trkpt>
      <trkpt lat="43.42094" lon="6.07858">
        <ele>243.39999389648</ele>
        <time>2016-01-06T13:21:40Z</time>
      </trkpt>
      <trkpt lat="43.42094" lon="6.07858">
        <ele>243.39999389648</ele>
        <time>2016-01-06T13:21:42Z</time>
      </trkpt>
      <trkpt lat="43.42094" lon="6.07858">
        <ele>243.39999389648</ele>
        <time>2016-01-06T13:21:43Z</time>
      </trkpt>
      <trkpt lat="43.42094" lon="6.07858">
        <ele>243.60000610352</ele>
        <time>2016-01-06T13:21:44Z</time>
      </trkpt>
      <trkpt lat="43.42094" lon="6.07858">
        <ele>243.39999389648</ele>
        <time>2016-01-06T13:21:46Z</time>
      </trkpt>
      <trkpt lat="43.42094" lon="6.07858">
        <ele>243.19999694824</ele>
        <time>2016-01-06T13:21:48Z</time>
      </trkpt>
      <trkpt lat="43.42094" lon="6.07858">
        <ele>243.60000610352</ele>
        <time>2016-01-06T13:21:50Z</time>
      </trkpt>
      <trkpt lat="43.42094" lon="6.07858">
        <ele>243.60000610352</ele>
        <time>2016-01-06T13:21:51Z</time>
      </trkpt>
      <trkpt lat="43.42094" lon="6.07856">
        <ele>243.39999389648</ele>
        <time>2016-01-06T13:21:53Z</time>
      </trkpt>
      <trkpt lat="43.42093" lon="6.07856">
        <ele>243.39999389648</ele>
        <time>2016-01-06T13:21:54Z</time>
      </trkpt>
      <trkpt lat="43.42093" lon="6.07856">
        <ele>243</ele>
        <time>2016-01-06T13:21:55Z</time>
      </trkpt>
      <trkpt lat="43.42093" lon="6.07856">
        <ele>243</ele>
        <time>2016-01-06T13:21:56Z</time>
      </trkpt>
      <trkpt lat="43.42093" lon="6.07856">
        <ele>243.19999694824</ele>
        <time>2016-01-06T13:21:58Z</time>
      </trkpt>
      <trkpt lat="43.42093" lon="6.07856">
        <ele>243.19999694824</ele>
        <time>2016-01-06T13:22:01Z</time>
      </trkpt>
      <trkpt lat="43.42093" lon="6.07856">
        <ele>243.39999389648</ele>
        <time>2016-01-06T13:22:03Z</time>
      </trkpt>
      <trkpt lat="43.42093" lon="6.07856">
        <ele>243.39999389648</ele>
        <time>2016-01-06T13:22:07Z</time>
      </trkpt>
      <trkpt lat="43.42093" lon="6.07856">
        <ele>243.19999694824</ele>
        <time>2016-01-06T13:22:09Z</time>
      </trkpt>
      <trkpt lat="43.42093" lon="6.07856">
        <ele>243.39999389648</ele>
        <time>2016-01-06T13:22:11Z</time>
      </trkpt>
      <trkpt lat="43.42093" lon="6.07856">
        <ele>243.39999389648</ele>
        <time>2016-01-06T13:22:13Z</time>
      </trkpt>
      <trkpt lat="43.42093" lon="6.07856">
        <ele>243.19999694824</ele>
        <time>2016-01-06T13:22:14Z</time>
      </trkpt>
      <trkpt lat="43.42093" lon="6.07856">
        <ele>243.19999694824</ele>
        <time>2016-01-06T13:22:15Z</time>
      </trkpt>
      <trkpt lat="43.42093" lon="6.07856">
        <ele>243.19999694824</ele>
        <time>2016-01-06T13:22:17Z</time>
      </trkpt>
      <trkpt lat="43.42093" lon="6.07856">
        <ele>243.19999694824</ele>
        <time>2016-01-06T13:22:19Z</time>
      </trkpt>
      <trkpt lat="43.42093" lon="6.07856">
        <ele>243.19999694824</ele>
        <time>2016-01-06T13:22:21Z</time>
      </trkpt>
      <trkpt lat="43.42093" lon="6.07856">
        <ele>243.19999694824</ele>
        <time>2016-01-06T13:22:23Z</time>
      </trkpt>
      <trkpt lat="43.42093" lon="6.07856">
        <ele>243.19999694824</ele>
        <time>2016-01-06T13:22:25Z</time>
      </trkpt>
      <trkpt lat="43.42093" lon="6.07856">
        <ele>243.19999694824</ele>
        <time>2016-01-06T13:22:27Z</time>
      </trkpt>
      <trkpt lat="43.42093" lon="6.07856">
        <ele>243</ele>
        <time>2016-01-06T13:22:28Z</time>
      </trkpt>
      <trkpt lat="43.42093" lon="6.07856">
        <ele>243</ele>
        <time>2016-01-06T13:22:30Z</time>
      </trkpt>
      <trkpt lat="43.42093" lon="6.07856">
        <ele>243</ele>
        <time>2016-01-06T13:22:32Z</time>
      </trkpt>
      <trkpt lat="43.42093" lon="6.07856">
        <ele>243</ele>
        <time>2016-01-06T13:22:36Z</time>
      </trkpt>
      <trkpt lat="43.42093" lon="6.07856">
        <ele>243.19999694824</ele>
        <time>2016-01-06T13:22:39Z</time>
      </trkpt>
      <trkpt lat="43.42093" lon="6.07856">
        <ele>243</ele>
        <time>2016-01-06T13:22:41Z</time>
      </trkpt>
      <trkpt lat="43.42093" lon="6.07856">
        <ele>243</ele>
        <time>2016-01-06T13:22:43Z</time>
      </trkpt>
      <trkpt lat="43.42093" lon="6.07856">
        <ele>243</ele>
        <time>2016-01-06T13:22:45Z</time>
      </trkpt>
      <trkpt lat="43.42093" lon="6.07856">
        <ele>243.19999694824</ele>
        <time>2016-01-06T13:22:47Z</time>
      </trkpt>
      <trkpt lat="43.42093" lon="6.07855">
        <ele>243.39999389648</ele>
        <time>2016-01-06T13:22:49Z</time>
      </trkpt>
      <trkpt lat="43.42093" lon="6.07856">
        <ele>243.39999389648</ele>
        <time>2016-01-06T13:22:51Z</time>
      </trkpt>
      <trkpt lat="43.42093" lon="6.07856">
        <ele>243.39999389648</ele>
        <time>2016-01-06T13:22:53Z</time>
      </trkpt>
      <trkpt lat="43.42093" lon="6.07856">
        <ele>243.19999694824</ele>
        <time>2016-01-06T13:22:54Z</time>
      </trkpt>
      <trkpt lat="43.42092" lon="6.07856">
        <ele>243</ele>
        <time>2016-01-06T13:22:56Z</time>
      </trkpt>
      <trkpt lat="43.42092" lon="6.07856">
        <ele>243</ele>
        <time>2016-01-06T13:22:58Z</time>
      </trkpt>
      <trkpt lat="43.42092" lon="6.07856">
        <ele>243</ele>
        <time>2016-01-06T13:23:00Z</time>
      </trkpt>
      <trkpt lat="43.42092" lon="6.07856">
        <ele>243.19999694824</ele>
        <time>2016-01-06T13:23:02Z</time>
      </trkpt>
      <trkpt lat="43.42092" lon="6.07856">
        <ele>243.19999694824</ele>
        <time>2016-01-06T13:23:05Z</time>
      </trkpt>
      <trkpt lat="43.42092" lon="6.07855">
        <ele>243.19999694824</ele>
        <time>2016-01-06T13:23:06Z</time>
      </trkpt>
      <trkpt lat="43.42092" lon="6.07855">
        <ele>243.19999694824</ele>
        <time>2016-01-06T13:23:08Z</time>
      </trkpt>
      <trkpt lat="43.42092" lon="6.07855">
        <ele>243.19999694824</ele>
        <time>2016-01-06T13:23:10Z</time>
      </trkpt>
      <trkpt lat="43.42092" lon="6.07855">
        <ele>243.19999694824</ele>
        <time>2016-01-06T13:23:11Z</time>
      </trkpt>
      <trkpt lat="43.42092" lon="6.07855">
        <ele>243</ele>
        <time>2016-01-06T13:23:12Z</time>
      </trkpt>
      <trkpt lat="43.42092" lon="6.07855">
        <ele>243.19999694824</ele>
        <time>2016-01-06T13:23:14Z</time>
      </trkpt>
      <trkpt lat="43.42092" lon="6.07855">
        <ele>243.39999389648</ele>
        <time>2016-01-06T13:23:16Z</time>
      </trkpt>
      <trkpt lat="43.42092" lon="6.07855">
        <ele>243.19999694824</ele>
        <time>2016-01-06T13:23:18Z</time>
      </trkpt>
      <trkpt lat="43.42092" lon="6.07855">
        <ele>243</ele>
        <time>2016-01-06T13:23:20Z</time>
      </trkpt>
      <trkpt lat="43.42092" lon="6.07855">
        <ele>243</ele>
        <time>2016-01-06T13:23:22Z</time>
      </trkpt>
      <trkpt lat="43.42092" lon="6.07855">
        <ele>242.80000305176</ele>
        <time>2016-01-06T13:23:24Z</time>
      </trkpt>
      <trkpt lat="43.42093" lon="6.07855">
        <ele>242.60000610352</ele>
        <time>2016-01-06T13:23:27Z</time>
      </trkpt>
      <trkpt lat="43.42092" lon="6.07855">
        <ele>242.60000610352</ele>
        <time>2016-01-06T13:23:29Z</time>
      </trkpt>
      <trkpt lat="43.42092" lon="6.07855">
        <ele>242.60000610352</ele>
        <time>2016-01-06T13:23:30Z</time>
      </trkpt>
      <trkpt lat="43.42092" lon="6.07855">
        <ele>242.60000610352</ele>
        <time>2016-01-06T13:23:33Z</time>
      </trkpt>
      <trkpt lat="43.42092" lon="6.07855">
        <ele>242.60000610352</ele>
        <time>2016-01-06T13:23:34Z</time>
      </trkpt>
      <trkpt lat="43.42092" lon="6.07855">
        <ele>242.60000610352</ele>
        <time>2016-01-06T13:23:36Z</time>
      </trkpt>
      <trkpt lat="43.42092" lon="6.07855">
        <ele>242.60000610352</ele>
        <time>2016-01-06T13:23:38Z</time>
      </trkpt>
      <trkpt lat="43.42092" lon="6.07856">
        <ele>242.80000305176</ele>
        <time>2016-01-06T13:23:41Z</time>
      </trkpt>
      <trkpt lat="43.42092" lon="6.07856">
        <ele>243</ele>
        <time>2016-01-06T13:23:42Z</time>
      </trkpt>
      <trkpt lat="43.42092" lon="6.07856">
        <ele>242.80000305176</ele>
        <time>2016-01-06T13:23:44Z</time>
      </trkpt>
      <trkpt lat="43.42092" lon="6.07856">
        <ele>242.80000305176</ele>
        <time>2016-01-06T13:23:46Z</time>
      </trkpt>
      <trkpt lat="43.42092" lon="6.07856">
        <ele>242.80000305176</ele>
        <time>2016-01-06T13:23:48Z</time>
      </trkpt>
      <trkpt lat="43.42092" lon="6.07856">
        <ele>243</ele>
        <time>2016-01-06T13:23:51Z</time>
      </trkpt>
      <trkpt lat="43.42092" lon="6.07856">
        <ele>242.80000305176</ele>
        <time>2016-01-06T13:23:53Z</time>
      </trkpt>
      <trkpt lat="43.42092" lon="6.07856">
        <ele>242.80000305176</ele>
        <time>2016-01-06T13:23:55Z</time>
      </trkpt>
      <trkpt lat="43.42092" lon="6.07856">
        <ele>242.80000305176</ele>
        <time>2016-01-06T13:23:56Z</time>
      </trkpt>
      <trkpt lat="43.42093" lon="6.07857">
        <ele>242.80000305176</ele>
        <time>2016-01-06T13:23:59Z</time>
      </trkpt>
      <trkpt lat="43.42093" lon="6.07857">
        <ele>242.80000305176</ele>
        <time>2016-01-06T13:24:00Z</time>
      </trkpt>
      <trkpt lat="43.42093" lon="6.07857">
        <ele>242.80000305176</ele>
        <time>2016-01-06T13:24:01Z</time>
      </trkpt>
      <trkpt lat="43.42093" lon="6.07857">
        <ele>242.80000305176</ele>
        <time>2016-01-06T13:24:02Z</time>
      </trkpt>
      <trkpt lat="43.42093" lon="6.07859">
        <ele>243</ele>
        <time>2016-01-06T13:24:04Z</time>
      </trkpt>
      <trkpt lat="43.42093" lon="6.0786">
        <ele>243</ele>
        <time>2016-01-06T13:24:07Z</time>
      </trkpt>
      <trkpt lat="43.42093" lon="6.0786">
        <ele>243.19999694824</ele>
        <time>2016-01-06T13:24:08Z</time>
      </trkpt>
      <trkpt lat="43.42093" lon="6.07861">
        <ele>243</ele>
        <time>2016-01-06T13:24:11Z</time>
      </trkpt>
      <trkpt lat="43.42093" lon="6.07861">
        <ele>243</ele>
        <time>2016-01-06T13:24:13Z</time>
      </trkpt>
      <trkpt lat="43.42093" lon="6.07861">
        <ele>243</ele>
        <time>2016-01-06T13:24:14Z</time>
      </trkpt>
      <trkpt lat="43.42093" lon="6.07861">
        <ele>242.80000305176</ele>
        <time>2016-01-06T13:24:16Z</time>
      </trkpt>
      <trkpt lat="43.42093" lon="6.07861">
        <ele>242.80000305176</ele>
        <time>2016-01-06T13:24:19Z</time>
      </trkpt>
      <trkpt lat="43.42093" lon="6.07861">
        <ele>242.80000305176</ele>
        <time>2016-01-06T13:24:20Z</time>
      </trkpt>
      <trkpt lat="43.42093" lon="6.07861">
        <ele>242.80000305176</ele>
        <time>2016-01-06T13:24:21Z</time>
      </trkpt>
      <trkpt lat="43.42093" lon="6.07861">
        <ele>243</ele>
        <time>2016-01-06T13:24:23Z</time>
      </trkpt>
      <trkpt lat="43.42093" lon="6.07861">
        <ele>243</ele>
        <time>2016-01-06T13:24:25Z</time>
      </trkpt>
      <trkpt lat="43.42093" lon="6.07861">
        <ele>243</ele>
        <time>2016-01-06T13:24:26Z</time>
      </trkpt>
      <trkpt lat="43.42093" lon="6.07861">
        <ele>243</ele>
        <time>2016-01-06T13:24:28Z</time>
      </trkpt>
      <trkpt lat="43.42093" lon="6.07861">
        <ele>242.80000305176</ele>
        <time>2016-01-06T13:24:31Z</time>
      </trkpt>
      <trkpt lat="43.42093" lon="6.07861">
        <ele>242.80000305176</ele>
        <time>2016-01-06T13:24:33Z</time>
      </trkpt>
      <trkpt lat="43.42093" lon="6.07861">
        <ele>242.80000305176</ele>
        <time>2016-01-06T13:24:35Z</time>
      </trkpt>
      <trkpt lat="43.42093" lon="6.07861">
        <ele>242.60000610352</ele>
        <time>2016-01-06T13:24:37Z</time>
      </trkpt>
      <trkpt lat="43.42093" lon="6.07861">
        <ele>242.60000610352</ele>
        <time>2016-01-06T13:24:39Z</time>
      </trkpt>
      <trkpt lat="43.42093" lon="6.07862">
        <ele>242.60000610352</ele>
        <time>2016-01-06T13:24:40Z</time>
      </trkpt>
      <trkpt lat="43.42095" lon="6.07864">
        <ele>242.19999694824</ele>
        <time>2016-01-06T13:24:42Z</time>
      </trkpt>
      <trkpt lat="43.42096" lon="6.07865">
        <ele>242.19999694824</ele>
        <time>2016-01-06T13:24:43Z</time>
      </trkpt>
      <trkpt lat="43.42097" lon="6.07867">
        <ele>242.19999694824</ele>
        <time>2016-01-06T13:24:44Z</time>
      </trkpt>
      <trkpt lat="43.42099" lon="6.07873">
        <ele>242.19999694824</ele>
        <time>2016-01-06T13:24:46Z</time>
      </trkpt>
      <trkpt lat="43.42102" lon="6.0788">
        <ele>241.60000610352</ele>
        <time>2016-01-06T13:24:48Z</time>
      </trkpt>
      <trkpt lat="43.42106" lon="6.07885">
        <ele>240.80000305176</ele>
        <time>2016-01-06T13:24:50Z</time>
      </trkpt>
      <trkpt lat="43.42108" lon="6.07887">
        <ele>240.39999389648</ele>
        <time>2016-01-06T13:24:51Z</time>
      </trkpt>
      <trkpt lat="43.42111" lon="6.07888">
        <ele>240.19999694824</ele>
        <time>2016-01-06T13:24:52Z</time>
      </trkpt>
      <trkpt lat="43.42114" lon="6.07888">
        <ele>240</ele>
        <time>2016-01-06T13:24:53Z</time>
      </trkpt>
      <trkpt lat="43.42118" lon="6.07888">
        <ele>239.39999389648</ele>
        <time>2016-01-06T13:24:54Z</time>
      </trkpt>
      <trkpt lat="43.42124" lon="6.07888">
        <ele>239</ele>
        <time>2016-01-06T13:24:56Z</time>
      </trkpt>
      <trkpt lat="43.4213" lon="6.07886">
        <ele>239.19999694824</ele>
        <time>2016-01-06T13:24:58Z</time>
      </trkpt>
      <trkpt lat="43.42133" lon="6.07886">
        <ele>239</ele>
        <time>2016-01-06T13:24:59Z</time>
      </trkpt>
      <trkpt lat="43.42137" lon="6.07886">
        <ele>238.39999389648</ele>
        <time>2016-01-06T13:25:00Z</time>
      </trkpt>
      <trkpt lat="43.42141" lon="6.07886">
        <ele>237.60000610352</ele>
        <time>2016-01-06T13:25:01Z</time>
      </trkpt>
      <trkpt lat="43.42146" lon="6.07885">
        <ele>237.39999389648</ele>
        <time>2016-01-06T13:25:02Z</time>
      </trkpt>
      <trkpt lat="43.42158" lon="6.07884">
        <ele>236.39999389648</ele>
        <time>2016-01-06T13:25:04Z</time>
      </trkpt>
      <trkpt lat="43.42171" lon="6.07883">
        <ele>235.80000305176</ele>
        <time>2016-01-06T13:25:06Z</time>
      </trkpt>
      <trkpt lat="43.42183" lon="6.07882">
        <ele>235.80000305176</ele>
        <time>2016-01-06T13:25:08Z</time>
      </trkpt>
      <trkpt lat="43.42189" lon="6.07882">
        <ele>235.19999694824</ele>
        <time>2016-01-06T13:25:09Z</time>
      </trkpt>
      <trkpt lat="43.42195" lon="6.07884">
        <ele>234.39999389648</ele>
        <time>2016-01-06T13:25:10Z</time>
      </trkpt>
      <trkpt lat="43.42205" lon="6.07887">
        <ele>234.60000610352</ele>
        <time>2016-01-06T13:25:12Z</time>
      </trkpt>
      <trkpt lat="43.42213" lon="6.0789">
        <ele>235.39999389648</ele>
        <time>2016-01-06T13:25:14Z</time>
      </trkpt>
      <trkpt lat="43.42217" lon="6.07892">
        <ele>236</ele>
        <time>2016-01-06T13:25:15Z</time>
      </trkpt>
      <trkpt lat="43.42221" lon="6.07893">
        <ele>236.60000610352</ele>
        <time>2016-01-06T13:25:16Z</time>
      </trkpt>
      <trkpt lat="43.42229" lon="6.07896">
        <ele>236</ele>
        <time>2016-01-06T13:25:18Z</time>
      </trkpt>
      <trkpt lat="43.42232" lon="6.07898">
        <ele>235.80000305176</ele>
        <time>2016-01-06T13:25:19Z</time>
      </trkpt>
      <trkpt lat="43.42234" lon="6.07901">
        <ele>236.19999694824</ele>
        <time>2016-01-06T13:25:20Z</time>
      </trkpt>
      <trkpt lat="43.42235" lon="6.07904">
        <ele>236.60000610352</ele>
        <time>2016-01-06T13:25:21Z</time>
      </trkpt>
      <trkpt lat="43.42236" lon="6.07908">
        <ele>237</ele>
        <time>2016-01-06T13:25:22Z</time>
      </trkpt>
      <trkpt lat="43.42238" lon="6.07914">
        <ele>237.60000610352</ele>
        <time>2016-01-06T13:25:24Z</time>
      </trkpt>
      <trkpt lat="43.4224" lon="6.0792">
        <ele>238</ele>
        <time>2016-01-06T13:25:26Z</time>
      </trkpt>
      <trkpt lat="43.42242" lon="6.07926">
        <ele>237.60000610352</ele>
        <time>2016-01-06T13:25:28Z</time>
      </trkpt>
      <trkpt lat="43.42242" lon="6.07928">
        <ele>237.80000305176</ele>
        <time>2016-01-06T13:25:29Z</time>
      </trkpt>
      <trkpt lat="43.42244" lon="6.07929">
        <ele>237.80000305176</ele>
        <time>2016-01-06T13:25:31Z</time>
      </trkpt>
      <trkpt lat="43.42244" lon="6.07929">
        <ele>237.80000305176</ele>
        <time>2016-01-06T13:25:32Z</time>
      </trkpt>
      <trkpt lat="43.42244" lon="6.07929">
        <ele>237.80000305176</ele>
        <time>2016-01-06T13:25:33Z</time>
      </trkpt>
      <trkpt lat="43.42244" lon="6.07929">
        <ele>237.60000610352</ele>
        <time>2016-01-06T13:25:34Z</time>
      </trkpt>
      <trkpt lat="43.42245" lon="6.07928">
        <ele>237.60000610352</ele>
        <time>2016-01-06T13:25:36Z</time>
      </trkpt>
      <trkpt lat="43.42245" lon="6.07928">
        <ele>237.19999694824</ele>
        <time>2016-01-06T13:25:38Z</time>
      </trkpt>
      <trkpt lat="43.42245" lon="6.07928">
        <ele>237.39999389648</ele>
        <time>2016-01-06T13:25:40Z</time>
      </trkpt>
      <trkpt lat="43.42245" lon="6.07928">
        <ele>237.39999389648</ele>
        <time>2016-01-06T13:25:41Z</time>
      </trkpt>
      <trkpt lat="43.42245" lon="6.07928">
        <ele>237.39999389648</ele>
        <time>2016-01-06T13:25:42Z</time>
      </trkpt>
      <trkpt lat="43.42245" lon="6.07928">
        <ele>237.39999389648</ele>
        <time>2016-01-06T13:25:44Z</time>
      </trkpt>
      <trkpt lat="43.42245" lon="6.07928">
        <ele>237.19999694824</ele>
        <time>2016-01-06T13:25:46Z</time>
      </trkpt>
      <trkpt lat="43.42245" lon="6.07928">
        <ele>237.19999694824</ele>
        <time>2016-01-06T13:25:48Z</time>
      </trkpt>
      <trkpt lat="43.42245" lon="6.07928">
        <ele>237.39999389648</ele>
        <time>2016-01-06T13:25:50Z</time>
      </trkpt>
      <trkpt lat="43.42245" lon="6.07928">
        <ele>237.19999694824</ele>
        <time>2016-01-06T13:25:52Z</time>
      </trkpt>
      <trkpt lat="43.42245" lon="6.07928">
        <ele>237</ele>
        <time>2016-01-06T13:25:54Z</time>
      </trkpt>
      <trkpt lat="43.42245" lon="6.07928">
        <ele>237.19999694824</ele>
        <time>2016-01-06T13:25:56Z</time>
      </trkpt>
      <trkpt lat="43.42245" lon="6.07928">
        <ele>237</ele>
        <time>2016-01-06T13:25:58Z</time>
      </trkpt>
      <trkpt lat="43.42245" lon="6.07928">
        <ele>237.19999694824</ele>
        <time>2016-01-06T13:26:00Z</time>
      </trkpt>
      <trkpt lat="43.42245" lon="6.07928">
        <ele>237.39999389648</ele>
        <time>2016-01-06T13:26:02Z</time>
      </trkpt>
      <trkpt lat="43.42245" lon="6.07928">
        <ele>237.39999389648</ele>
        <time>2016-01-06T13:26:04Z</time>
      </trkpt>
      <trkpt lat="43.42245" lon="6.07928">
        <ele>237.39999389648</ele>
        <time>2016-01-06T13:26:06Z</time>
      </trkpt>
      <trkpt lat="43.42245" lon="6.07928">
        <ele>237.19999694824</ele>
        <time>2016-01-06T13:26:08Z</time>
      </trkpt>
      <trkpt lat="43.42245" lon="6.07928">
        <ele>237.19999694824</ele>
        <time>2016-01-06T13:26:10Z</time>
      </trkpt>
      <trkpt lat="43.42245" lon="6.07928">
        <ele>237.19999694824</ele>
        <time>2016-01-06T13:26:13Z</time>
      </trkpt>
      <trkpt lat="43.42245" lon="6.07928">
        <ele>237.19999694824</ele>
        <time>2016-01-06T13:26:14Z</time>
      </trkpt>
      <trkpt lat="43.42245" lon="6.07928">
        <ele>237.19999694824</ele>
        <time>2016-01-06T13:26:16Z</time>
      </trkpt>
      <trkpt lat="43.42245" lon="6.07928">
        <ele>237</ele>
        <time>2016-01-06T13:26:18Z</time>
      </trkpt>
      <trkpt lat="43.42245" lon="6.07928">
        <ele>237</ele>
        <time>2016-01-06T13:26:20Z</time>
      </trkpt>
      <trkpt lat="43.42245" lon="6.07928">
        <ele>237.19999694824</ele>
        <time>2016-01-06T13:26:22Z</time>
      </trkpt>
      <trkpt lat="43.42245" lon="6.07928">
        <ele>237.39999389648</ele>
        <time>2016-01-06T13:26:24Z</time>
      </trkpt>
      <trkpt lat="43.42245" lon="6.07929">
        <ele>237.60000610352</ele>
        <time>2016-01-06T13:26:26Z</time>
      </trkpt>
      <trkpt lat="43.42245" lon="6.07929">
        <ele>237.80000305176</ele>
        <time>2016-01-06T13:26:28Z</time>
      </trkpt>
      <trkpt lat="43.42245" lon="6.0793">
        <ele>237.60000610352</ele>
        <time>2016-01-06T13:26:29Z</time>
      </trkpt>
      <trkpt lat="43.42245" lon="6.07929">
        <ele>237.60000610352</ele>
        <time>2016-01-06T13:26:30Z</time>
      </trkpt>
      <trkpt lat="43.42245" lon="6.07929">
        <ele>237.60000610352</ele>
        <time>2016-01-06T13:26:32Z</time>
      </trkpt>
      <trkpt lat="43.42245" lon="6.07929">
        <ele>237.80000305176</ele>
        <time>2016-01-06T13:26:35Z</time>
      </trkpt>
      <trkpt lat="43.42245" lon="6.0793">
        <ele>238</ele>
        <time>2016-01-06T13:26:37Z</time>
      </trkpt>
      <trkpt lat="43.42246" lon="6.07931">
        <ele>237.80000305176</ele>
        <time>2016-01-06T13:26:38Z</time>
      </trkpt>
      <trkpt lat="43.42246" lon="6.07932">
        <ele>237.80000305176</ele>
        <time>2016-01-06T13:26:39Z</time>
      </trkpt>
      <trkpt lat="43.42246" lon="6.07933">
        <ele>237.80000305176</ele>
        <time>2016-01-06T13:26:40Z</time>
      </trkpt>
      <trkpt lat="43.42246" lon="6.07933">
        <ele>238</ele>
        <time>2016-01-06T13:26:41Z</time>
      </trkpt>
      <trkpt lat="43.42246" lon="6.07937">
        <ele>237.60000610352</ele>
        <time>2016-01-06T13:26:43Z</time>
      </trkpt>
      <trkpt lat="43.42246" lon="6.07939">
        <ele>237.60000610352</ele>
        <time>2016-01-06T13:26:44Z</time>
      </trkpt>
      <trkpt lat="43.42247" lon="6.07944">
        <ele>237.80000305176</ele>
        <time>2016-01-06T13:26:46Z</time>
      </trkpt>
      <trkpt lat="43.42247" lon="6.07947">
        <ele>238</ele>
        <time>2016-01-06T13:26:47Z</time>
      </trkpt>
      <trkpt lat="43.42247" lon="6.07951">
        <ele>237.80000305176</ele>
        <time>2016-01-06T13:26:48Z</time>
      </trkpt>
      <trkpt lat="43.42249" lon="6.0796">
        <ele>238.19999694824</ele>
        <time>2016-01-06T13:26:50Z</time>
      </trkpt>
      <trkpt lat="43.42254" lon="6.0797">
        <ele>237</ele>
        <time>2016-01-06T13:26:52Z</time>
      </trkpt>
      <trkpt lat="43.4226" lon="6.07974">
        <ele>236.19999694824</ele>
        <time>2016-01-06T13:26:54Z</time>
      </trkpt>
      <trkpt lat="43.42264" lon="6.07973">
        <ele>236.19999694824</ele>
        <time>2016-01-06T13:26:55Z</time>
      </trkpt>
      <trkpt lat="43.42268" lon="6.07972">
        <ele>235.80000305176</ele>
        <time>2016-01-06T13:26:56Z</time>
      </trkpt>
      <trkpt lat="43.42278" lon="6.07968">
        <ele>236.19999694824</ele>
        <time>2016-01-06T13:26:59Z</time>
      </trkpt>
      <trkpt lat="43.42281" lon="6.07968">
        <ele>236.19999694824</ele>
        <time>2016-01-06T13:27:00Z</time>
      </trkpt>
      <trkpt lat="43.42286" lon="6.07968">
        <ele>237.19999694824</ele>
        <time>2016-01-06T13:27:02Z</time>
      </trkpt>
      <trkpt lat="43.42294" lon="6.07971">
        <ele>237.80000305176</ele>
        <time>2016-01-06T13:27:05Z</time>
      </trkpt>
      <trkpt lat="43.42296" lon="6.07974">
        <ele>237.80000305176</ele>
        <time>2016-01-06T13:27:06Z</time>
      </trkpt>
      <trkpt lat="43.42304" lon="6.07985">
        <ele>237.39999389648</ele>
        <time>2016-01-06T13:27:09Z</time>
      </trkpt>
      <trkpt lat="43.42307" lon="6.07988">
        <ele>237.19999694824</ele>
        <time>2016-01-06T13:27:10Z</time>
      </trkpt>
      <trkpt lat="43.42313" lon="6.07994">
        <ele>237</ele>
        <time>2016-01-06T13:27:12Z</time>
      </trkpt>
      <trkpt lat="43.42317" lon="6.08">
        <ele>237.80000305176</ele>
        <time>2016-01-06T13:27:14Z</time>
      </trkpt>
      <trkpt lat="43.42322" lon="6.08004">
        <ele>238.39999389648</ele>
        <time>2016-01-06T13:27:16Z</time>
      </trkpt>
      <trkpt lat="43.42324" lon="6.08006">
        <ele>238.60000610352</ele>
        <time>2016-01-06T13:27:17Z</time>
      </trkpt>
      <trkpt lat="43.42327" lon="6.08007">
        <ele>238.60000610352</ele>
        <time>2016-01-06T13:27:18Z</time>
      </trkpt>
      <trkpt lat="43.4233" lon="6.08007">
        <ele>238.60000610352</ele>
        <time>2016-01-06T13:27:19Z</time>
      </trkpt>
      <trkpt lat="43.42332" lon="6.08006">
        <ele>239</ele>
        <time>2016-01-06T13:27:20Z</time>
      </trkpt>
      <trkpt lat="43.42336" lon="6.08001">
        <ele>239.19999694824</ele>
        <time>2016-01-06T13:27:22Z</time>
      </trkpt>
      <trkpt lat="43.42338" lon="6.07999">
        <ele>239.60000610352</ele>
        <time>2016-01-06T13:27:23Z</time>
      </trkpt>
      <trkpt lat="43.42339" lon="6.07996">
        <ele>240</ele>
        <time>2016-01-06T13:27:24Z</time>
      </trkpt>
      <trkpt lat="43.4234" lon="6.07994">
        <ele>240.39999389648</ele>
        <time>2016-01-06T13:27:25Z</time>
      </trkpt>
      <trkpt lat="43.42343" lon="6.07989">
        <ele>241.19999694824</ele>
        <time>2016-01-06T13:27:27Z</time>
      </trkpt>
      <trkpt lat="43.42344" lon="6.07985">
        <ele>241.19999694824</ele>
        <time>2016-01-06T13:27:28Z</time>
      </trkpt>
      <trkpt lat="43.42345" lon="6.07983">
        <ele>241.19999694824</ele>
        <time>2016-01-06T13:27:29Z</time>
      </trkpt>
      <trkpt lat="43.42347" lon="6.07979">
        <ele>241.80000305176</ele>
        <time>2016-01-06T13:27:31Z</time>
      </trkpt>
      <trkpt lat="43.42348" lon="6.07978">
        <ele>242.19999694824</ele>
        <time>2016-01-06T13:27:32Z</time>
      </trkpt>
      <trkpt lat="43.42348" lon="6.07977">
        <ele>242.60000610352</ele>
        <time>2016-01-06T13:27:33Z</time>
      </trkpt>
      <trkpt lat="43.42348" lon="6.07977">
        <ele>242.39999389648</ele>
        <time>2016-01-06T13:27:34Z</time>
      </trkpt>
      <trkpt lat="43.4235" lon="6.07976">
        <ele>242.19999694824</ele>
        <time>2016-01-06T13:27:37Z</time>
      </trkpt>
      <trkpt lat="43.42351" lon="6.07974">
        <ele>242.60000610352</ele>
        <time>2016-01-06T13:27:38Z</time>
      </trkpt>
      <trkpt lat="43.42353" lon="6.07972">
        <ele>242.60000610352</ele>
        <time>2016-01-06T13:27:39Z</time>
      </trkpt>
      <trkpt lat="43.42354" lon="6.0797">
        <ele>242.39999389648</ele>
        <time>2016-01-06T13:27:40Z</time>
      </trkpt>
      <trkpt lat="43.42356" lon="6.07968">
        <ele>242.39999389648</ele>
        <time>2016-01-06T13:27:41Z</time>
      </trkpt>
      <trkpt lat="43.42358" lon="6.07965">
        <ele>242.80000305176</ele>
        <time>2016-01-06T13:27:42Z</time>
      </trkpt>
      <trkpt lat="43.4236" lon="6.07962">
        <ele>243</ele>
        <time>2016-01-06T13:27:43Z</time>
      </trkpt>
      <trkpt lat="43.42362" lon="6.0796">
        <ele>243.19999694824</ele>
        <time>2016-01-06T13:27:44Z</time>
      </trkpt>
      <trkpt lat="43.42366" lon="6.07955">
        <ele>243.19999694824</ele>
        <time>2016-01-06T13:27:46Z</time>
      </trkpt>
      <trkpt lat="43.42371" lon="6.07951">
        <ele>243.19999694824</ele>
        <time>2016-01-06T13:27:48Z</time>
      </trkpt>
      <trkpt lat="43.42375" lon="6.07945">
        <ele>243</ele>
        <time>2016-01-06T13:27:50Z</time>
      </trkpt>
      <trkpt lat="43.42378" lon="6.07943">
        <ele>243.39999389648</ele>
        <time>2016-01-06T13:27:51Z</time>
      </trkpt>
      <trkpt lat="43.4238" lon="6.07939">
        <ele>243.60000610352</ele>
        <time>2016-01-06T13:27:52Z</time>
      </trkpt>
      <trkpt lat="43.42385" lon="6.07934">
        <ele>243.39999389648</ele>
        <time>2016-01-06T13:27:54Z</time>
      </trkpt>
      <trkpt lat="43.42389" lon="6.07929">
        <ele>243.80000305176</ele>
        <time>2016-01-06T13:27:56Z</time>
      </trkpt>
      <trkpt lat="43.42394" lon="6.07924">
        <ele>244.39999389648</ele>
        <time>2016-01-06T13:27:58Z</time>
      </trkpt>
      <trkpt lat="43.42397" lon="6.07922">
        <ele>244.39999389648</ele>
        <time>2016-01-06T13:27:59Z</time>
      </trkpt>
      <trkpt lat="43.42401" lon="6.0792">
        <ele>244.39999389648</ele>
        <time>2016-01-06T13:28:00Z</time>
      </trkpt>
      <trkpt lat="43.42408" lon="6.07918">
        <ele>244.19999694824</ele>
        <time>2016-01-06T13:28:02Z</time>
      </trkpt>
      <trkpt lat="43.42414" lon="6.07916">
        <ele>244</ele>
        <time>2016-01-06T13:28:04Z</time>
      </trkpt>
      <trkpt lat="43.42416" lon="6.07916">
        <ele>244</ele>
        <time>2016-01-06T13:28:05Z</time>
      </trkpt>
      <trkpt lat="43.42419" lon="6.07916">
        <ele>244.19999694824</ele>
        <time>2016-01-06T13:28:06Z</time>
      </trkpt>
      <trkpt lat="43.42425" lon="6.07916">
        <ele>243.80000305176</ele>
        <time>2016-01-06T13:28:08Z</time>
      </trkpt>
      <trkpt lat="43.4243" lon="6.07917">
        <ele>243.80000305176</ele>
        <time>2016-01-06T13:28:10Z</time>
      </trkpt>
      <trkpt lat="43.42437" lon="6.07919">
        <ele>243.60000610352</ele>
        <time>2016-01-06T13:28:12Z</time>
      </trkpt>
      <trkpt lat="43.42443" lon="6.0792">
        <ele>244</ele>
        <time>2016-01-06T13:28:14Z</time>
      </trkpt>
      <trkpt lat="43.4245" lon="6.0792">
        <ele>244</ele>
        <time>2016-01-06T13:28:16Z</time>
      </trkpt>
      <trkpt lat="43.42452" lon="6.07921">
        <ele>244</ele>
        <time>2016-01-06T13:28:17Z</time>
      </trkpt>
      <trkpt lat="43.42454" lon="6.07921">
        <ele>244</ele>
        <time>2016-01-06T13:28:18Z</time>
      </trkpt>
      <trkpt lat="43.42459" lon="6.0792">
        <ele>243.80000305176</ele>
        <time>2016-01-06T13:28:20Z</time>
      </trkpt>
      <trkpt lat="43.42461" lon="6.07919">
        <ele>244</ele>
        <time>2016-01-06T13:28:21Z</time>
      </trkpt>
      <trkpt lat="43.42463" lon="6.07917">
        <ele>244.39999389648</ele>
        <time>2016-01-06T13:28:22Z</time>
      </trkpt>
      <trkpt lat="43.42466" lon="6.07915">
        <ele>244.39999389648</ele>
        <time>2016-01-06T13:28:23Z</time>
      </trkpt>
      <trkpt lat="43.42468" lon="6.07913">
        <ele>244.60000610352</ele>
        <time>2016-01-06T13:28:24Z</time>
      </trkpt>
      <trkpt lat="43.42472" lon="6.0791">
        <ele>244.80000305176</ele>
        <time>2016-01-06T13:28:26Z</time>
      </trkpt>
      <trkpt lat="43.42474" lon="6.07908">
        <ele>244.80000305176</ele>
        <time>2016-01-06T13:28:27Z</time>
      </trkpt>
      <trkpt lat="43.42476" lon="6.07907">
        <ele>245</ele>
        <time>2016-01-06T13:28:28Z</time>
      </trkpt>
      <trkpt lat="43.4248" lon="6.07906">
        <ele>245.19999694824</ele>
        <time>2016-01-06T13:28:30Z</time>
      </trkpt>
      <trkpt lat="43.42484" lon="6.07904">
        <ele>245.19999694824</ele>
        <time>2016-01-06T13:28:32Z</time>
      </trkpt>
      <trkpt lat="43.42488" lon="6.07903">
        <ele>245.60000610352</ele>
        <time>2016-01-06T13:28:34Z</time>
      </trkpt>
      <trkpt lat="43.4249" lon="6.07902">
        <ele>245.60000610352</ele>
        <time>2016-01-06T13:28:35Z</time>
      </trkpt>
      <trkpt lat="43.42493" lon="6.07902">
        <ele>245.80000305176</ele>
        <time>2016-01-06T13:28:36Z</time>
      </trkpt>
      <trkpt lat="43.42498" lon="6.07901">
        <ele>245.80000305176</ele>
        <time>2016-01-06T13:28:38Z</time>
      </trkpt>
      <trkpt lat="43.42503" lon="6.079">
        <ele>246.19999694824</ele>
        <time>2016-01-06T13:28:40Z</time>
      </trkpt>
      <trkpt lat="43.42508" lon="6.07899">
        <ele>246.39999389648</ele>
        <time>2016-01-06T13:28:42Z</time>
      </trkpt>
      <trkpt lat="43.42513" lon="6.07898">
        <ele>246.80000305176</ele>
        <time>2016-01-06T13:28:44Z</time>
      </trkpt>
      <trkpt lat="43.42519" lon="6.07897">
        <ele>247</ele>
        <time>2016-01-06T13:28:46Z</time>
      </trkpt>
      <trkpt lat="43.42521" lon="6.07896">
        <ele>247.19999694824</ele>
        <time>2016-01-06T13:28:47Z</time>
      </trkpt>
      <trkpt lat="43.42524" lon="6.07895">
        <ele>247.39999389648</ele>
        <time>2016-01-06T13:28:48Z</time>
      </trkpt>
      <trkpt lat="43.42526" lon="6.07895">
        <ele>247.80000305176</ele>
        <time>2016-01-06T13:28:49Z</time>
      </trkpt>
      <trkpt lat="43.42529" lon="6.07894">
        <ele>248.19999694824</ele>
        <time>2016-01-06T13:28:50Z</time>
      </trkpt>
      <trkpt lat="43.42534" lon="6.07894">
        <ele>248.39999389648</ele>
        <time>2016-01-06T13:28:52Z</time>
      </trkpt>
      <trkpt lat="43.42539" lon="6.07896">
        <ele>249</ele>
        <time>2016-01-06T13:28:54Z</time>
      </trkpt>
      <trkpt lat="43.42544" lon="6.07897">
        <ele>249.19999694824</ele>
        <time>2016-01-06T13:28:56Z</time>
      </trkpt>
      <trkpt lat="43.42548" lon="6.079">
        <ele>249.60000610352</ele>
        <time>2016-01-06T13:28:58Z</time>
      </trkpt>
      <trkpt lat="43.4255" lon="6.07902">
        <ele>249.60000610352</ele>
        <time>2016-01-06T13:28:59Z</time>
      </trkpt>
      <trkpt lat="43.42551" lon="6.07904">
        <ele>249.80000305176</ele>
        <time>2016-01-06T13:29:00Z</time>
      </trkpt>
      <trkpt lat="43.42554" lon="6.0791">
        <ele>250</ele>
        <time>2016-01-06T13:29:02Z</time>
      </trkpt>
      <trkpt lat="43.42555" lon="6.07913">
        <ele>250.39999389648</ele>
        <time>2016-01-06T13:29:03Z</time>
      </trkpt>
      <trkpt lat="43.42556" lon="6.07916">
        <ele>250.60000610352</ele>
        <time>2016-01-06T13:29:04Z</time>
      </trkpt>
      <trkpt lat="43.42557" lon="6.07919">
        <ele>250.60000610352</ele>
        <time>2016-01-06T13:29:05Z</time>
      </trkpt>
      <trkpt lat="43.42558" lon="6.07922">
        <ele>250.80000305176</ele>
        <time>2016-01-06T13:29:06Z</time>
      </trkpt>
      <trkpt lat="43.42559" lon="6.07929">
        <ele>250.60000610352</ele>
        <time>2016-01-06T13:29:08Z</time>
      </trkpt>
      <trkpt lat="43.42561" lon="6.07933">
        <ele>250.60000610352</ele>
        <time>2016-01-06T13:29:10Z</time>
      </trkpt>
      <trkpt lat="43.42564" lon="6.07938">
        <ele>250.80000305176</ele>
        <time>2016-01-06T13:29:12Z</time>
      </trkpt>
      <trkpt lat="43.42567" lon="6.07941">
        <ele>251.19999694824</ele>
        <time>2016-01-06T13:29:14Z</time>
      </trkpt>
      <trkpt lat="43.42571" lon="6.07944">
        <ele>251.19999694824</ele>
        <time>2016-01-06T13:29:16Z</time>
      </trkpt>
      <trkpt lat="43.42575" lon="6.07947">
        <ele>251.60000610352</ele>
        <time>2016-01-06T13:29:18Z</time>
      </trkpt>
      <trkpt lat="43.42579" lon="6.07951">
        <ele>252</ele>
        <time>2016-01-06T13:29:20Z</time>
      </trkpt>
      <trkpt lat="43.4258" lon="6.07953">
        <ele>252.39999389648</ele>
        <time>2016-01-06T13:29:21Z</time>
      </trkpt>
      <trkpt lat="43.42582" lon="6.07954">
        <ele>252.60000610352</ele>
        <time>2016-01-06T13:29:22Z</time>
      </trkpt>
      <trkpt lat="43.42585" lon="6.07957">
        <ele>252.60000610352</ele>
        <time>2016-01-06T13:29:24Z</time>
      </trkpt>
      <trkpt lat="43.42588" lon="6.0796">
        <ele>253</ele>
        <time>2016-01-06T13:29:26Z</time>
      </trkpt>
      <trkpt lat="43.42591" lon="6.07963">
        <ele>253.39999389648</ele>
        <time>2016-01-06T13:29:28Z</time>
      </trkpt>
      <trkpt lat="43.42592" lon="6.07965">
        <ele>253.39999389648</ele>
        <time>2016-01-06T13:29:29Z</time>
      </trkpt>
      <trkpt lat="43.42594" lon="6.07967">
        <ele>253.39999389648</ele>
        <time>2016-01-06T13:29:30Z</time>
      </trkpt>
      <trkpt lat="43.42596" lon="6.07971">
        <ele>253.39999389648</ele>
        <time>2016-01-06T13:29:32Z</time>
      </trkpt>
      <trkpt lat="43.42599" lon="6.07974">
        <ele>253.80000305176</ele>
        <time>2016-01-06T13:29:34Z</time>
      </trkpt>
      <trkpt lat="43.42603" lon="6.07977">
        <ele>253.80000305176</ele>
        <time>2016-01-06T13:29:36Z</time>
      </trkpt>
      <trkpt lat="43.42607" lon="6.0798">
        <ele>253.80000305176</ele>
        <time>2016-01-06T13:29:38Z</time>
      </trkpt>
      <trkpt lat="43.42608" lon="6.07982">
        <ele>253.60000610352</ele>
        <time>2016-01-06T13:29:39Z</time>
      </trkpt>
      <trkpt lat="43.4261" lon="6.07984">
        <ele>253.80000305176</ele>
        <time>2016-01-06T13:29:40Z</time>
      </trkpt>
      <trkpt lat="43.42613" lon="6.07989">
        <ele>253.39999389648</ele>
        <time>2016-01-06T13:29:42Z</time>
      </trkpt>
      <trkpt lat="43.42615" lon="6.07995">
        <ele>254</ele>
        <time>2016-01-06T13:29:44Z</time>
      </trkpt>
      <trkpt lat="43.42617" lon="6.08">
        <ele>254.19999694824</ele>
        <time>2016-01-06T13:29:46Z</time>
      </trkpt>
      <trkpt lat="43.42617" lon="6.08004">
        <ele>254.19999694824</ele>
        <time>2016-01-06T13:29:48Z</time>
      </trkpt>
      <trkpt lat="43.42617" lon="6.08007">
        <ele>254.19999694824</ele>
        <time>2016-01-06T13:29:49Z</time>
      </trkpt>
      <trkpt lat="43.42618" lon="6.0801">
        <ele>254.60000610352</ele>
        <time>2016-01-06T13:29:50Z</time>
      </trkpt>
      <trkpt lat="43.42619" lon="6.08015">
        <ele>255</ele>
        <time>2016-01-06T13:29:52Z</time>
      </trkpt>
      <trkpt lat="43.42619" lon="6.08018">
        <ele>255.39999389648</ele>
        <time>2016-01-06T13:29:53Z</time>
      </trkpt>
      <trkpt lat="43.42619" lon="6.0802">
        <ele>255.60000610352</ele>
        <time>2016-01-06T13:29:54Z</time>
      </trkpt>
      <trkpt lat="43.42619" lon="6.08025">
        <ele>255.60000610352</ele>
        <time>2016-01-06T13:29:56Z</time>
      </trkpt>
      <trkpt lat="43.42619" lon="6.08028">
        <ele>255.60000610352</ele>
        <time>2016-01-06T13:29:57Z</time>
      </trkpt>
      <trkpt lat="43.42619" lon="6.08031">
        <ele>255.60000610352</ele>
        <time>2016-01-06T13:29:58Z</time>
      </trkpt>
      <trkpt lat="43.4262" lon="6.08034">
        <ele>255.60000610352</ele>
        <time>2016-01-06T13:29:59Z</time>
      </trkpt>
      <trkpt lat="43.4262" lon="6.08038">
        <ele>255.60000610352</ele>
        <time>2016-01-06T13:30:00Z</time>
      </trkpt>
      <trkpt lat="43.4262" lon="6.08044">
        <ele>255.60000610352</ele>
        <time>2016-01-06T13:30:02Z</time>
      </trkpt>
      <trkpt lat="43.4262" lon="6.08049">
        <ele>255.80000305176</ele>
        <time>2016-01-06T13:30:04Z</time>
      </trkpt>
      <trkpt lat="43.4262" lon="6.08052">
        <ele>256</ele>
        <time>2016-01-06T13:30:05Z</time>
      </trkpt>
      <trkpt lat="43.4262" lon="6.08054">
        <ele>256</ele>
        <time>2016-01-06T13:30:06Z</time>
      </trkpt>
      <trkpt lat="43.4262" lon="6.08057">
        <ele>256.20001220703</ele>
        <time>2016-01-06T13:30:07Z</time>
      </trkpt>
      <trkpt lat="43.4262" lon="6.08059">
        <ele>256.60000610352</ele>
        <time>2016-01-06T13:30:08Z</time>
      </trkpt>
      <trkpt lat="43.42621" lon="6.08063">
        <ele>257.20001220703</ele>
        <time>2016-01-06T13:30:10Z</time>
      </trkpt>
      <trkpt lat="43.42622" lon="6.08069">
        <ele>257.20001220703</ele>
        <time>2016-01-06T13:30:12Z</time>
      </trkpt>
      <trkpt lat="43.42624" lon="6.08074">
        <ele>257.39999389648</ele>
        <time>2016-01-06T13:30:14Z</time>
      </trkpt>
      <trkpt lat="43.42625" lon="6.08076">
        <ele>257.79998779297</ele>
        <time>2016-01-06T13:30:15Z</time>
      </trkpt>
      <trkpt lat="43.42626" lon="6.08079">
        <ele>258</ele>
        <time>2016-01-06T13:30:16Z</time>
      </trkpt>
      <trkpt lat="43.42628" lon="6.08083">
        <ele>257.79998779297</ele>
        <time>2016-01-06T13:30:18Z</time>
      </trkpt>
      <trkpt lat="43.42631" lon="6.08086">
        <ele>258.39999389648</ele>
        <time>2016-01-06T13:30:20Z</time>
      </trkpt>
      <trkpt lat="43.42633" lon="6.08087">
        <ele>258.39999389648</ele>
        <time>2016-01-06T13:30:21Z</time>
      </trkpt>
      <trkpt lat="43.42635" lon="6.08087">
        <ele>258.20001220703</ele>
        <time>2016-01-06T13:30:22Z</time>
      </trkpt>
      <trkpt lat="43.4264" lon="6.08087">
        <ele>258</ele>
        <time>2016-01-06T13:30:24Z</time>
      </trkpt>
      <trkpt lat="43.42643" lon="6.08086">
        <ele>258</ele>
        <time>2016-01-06T13:30:26Z</time>
      </trkpt>
      <trkpt lat="43.42645" lon="6.08084">
        <ele>258</ele>
        <time>2016-01-06T13:30:27Z</time>
      </trkpt>
      <trkpt lat="43.42647" lon="6.08083">
        <ele>257.79998779297</ele>
        <time>2016-01-06T13:30:28Z</time>
      </trkpt>
      <trkpt lat="43.42651" lon="6.08079">
        <ele>257.60000610352</ele>
        <time>2016-01-06T13:30:30Z</time>
      </trkpt>
      <trkpt lat="43.42655" lon="6.08076">
        <ele>257.79998779297</ele>
        <time>2016-01-06T13:30:32Z</time>
      </trkpt>
      <trkpt lat="43.42659" lon="6.08073">
        <ele>257.79998779297</ele>
        <time>2016-01-06T13:30:34Z</time>
      </trkpt>
      <trkpt lat="43.42661" lon="6.08072">
        <ele>257.79998779297</ele>
        <time>2016-01-06T13:30:35Z</time>
      </trkpt>
      <trkpt lat="43.42662" lon="6.08072">
        <ele>258</ele>
        <time>2016-01-06T13:30:36Z</time>
      </trkpt>
      <trkpt lat="43.42666" lon="6.08073">
        <ele>258.20001220703</ele>
        <time>2016-01-06T13:30:38Z</time>
      </trkpt>
      <trkpt lat="43.4267" lon="6.08075">
        <ele>258.39999389648</ele>
        <time>2016-01-06T13:30:40Z</time>
      </trkpt>
      <trkpt lat="43.42672" lon="6.08076">
        <ele>258.39999389648</ele>
        <time>2016-01-06T13:30:41Z</time>
      </trkpt>
      <trkpt lat="43.42673" lon="6.08078">
        <ele>258.39999389648</ele>
        <time>2016-01-06T13:30:42Z</time>
      </trkpt>
      <trkpt lat="43.42677" lon="6.08081">
        <ele>258.39999389648</ele>
        <time>2016-01-06T13:30:44Z</time>
      </trkpt>
      <trkpt lat="43.42679" lon="6.08085">
        <ele>258.60000610352</ele>
        <time>2016-01-06T13:30:46Z</time>
      </trkpt>
      <trkpt lat="43.42681" lon="6.08087">
        <ele>258.60000610352</ele>
        <time>2016-01-06T13:30:47Z</time>
      </trkpt>
      <trkpt lat="43.42683" lon="6.08089">
        <ele>258.60000610352</ele>
        <time>2016-01-06T13:30:48Z</time>
      </trkpt>
      <trkpt lat="43.42686" lon="6.08093">
        <ele>258.79998779297</ele>
        <time>2016-01-06T13:30:50Z</time>
      </trkpt>
      <trkpt lat="43.4269" lon="6.08097">
        <ele>259.20001220703</ele>
        <time>2016-01-06T13:30:52Z</time>
      </trkpt>
      <trkpt lat="43.42693" lon="6.08099">
        <ele>259.60000610352</ele>
        <time>2016-01-06T13:30:54Z</time>
      </trkpt>
      <trkpt lat="43.42697" lon="6.08102">
        <ele>259.60000610352</ele>
        <time>2016-01-06T13:30:56Z</time>
      </trkpt>
      <trkpt lat="43.42701" lon="6.08105">
        <ele>259.60000610352</ele>
        <time>2016-01-06T13:30:58Z</time>
      </trkpt>
      <trkpt lat="43.42706" lon="6.08108">
        <ele>259.79998779297</ele>
        <time>2016-01-06T13:31:00Z</time>
      </trkpt>
      <trkpt lat="43.4271" lon="6.0811">
        <ele>259.79998779297</ele>
        <time>2016-01-06T13:31:02Z</time>
      </trkpt>
      <trkpt lat="43.42714" lon="6.08113">
        <ele>260</ele>
        <time>2016-01-06T13:31:04Z</time>
      </trkpt>
      <trkpt lat="43.42718" lon="6.08116">
        <ele>260</ele>
        <time>2016-01-06T13:31:06Z</time>
      </trkpt>
      <trkpt lat="43.42722" lon="6.08119">
        <ele>260</ele>
        <time>2016-01-06T13:31:08Z</time>
      </trkpt>
      <trkpt lat="43.42726" lon="6.08122">
        <ele>260.39999389648</ele>
        <time>2016-01-06T13:31:10Z</time>
      </trkpt>
      <trkpt lat="43.42727" lon="6.08124">
        <ele>260.60000610352</ele>
        <time>2016-01-06T13:31:11Z</time>
      </trkpt>
      <trkpt lat="43.42728" lon="6.08127">
        <ele>260.79998779297</ele>
        <time>2016-01-06T13:31:12Z</time>
      </trkpt>
      <trkpt lat="43.42731" lon="6.08132">
        <ele>261.20001220703</ele>
        <time>2016-01-06T13:31:14Z</time>
      </trkpt>
      <trkpt lat="43.42735" lon="6.08136">
        <ele>261.20001220703</ele>
        <time>2016-01-06T13:31:16Z</time>
      </trkpt>
      <trkpt lat="43.42739" lon="6.0814">
        <ele>261.20001220703</ele>
        <time>2016-01-06T13:31:18Z</time>
      </trkpt>
      <trkpt lat="43.42743" lon="6.08143">
        <ele>261.20001220703</ele>
        <time>2016-01-06T13:31:20Z</time>
      </trkpt>
      <trkpt lat="43.42747" lon="6.08144">
        <ele>261.39999389648</ele>
        <time>2016-01-06T13:31:22Z</time>
      </trkpt>
      <trkpt lat="43.42749" lon="6.08144">
        <ele>261.60000610352</ele>
        <time>2016-01-06T13:31:23Z</time>
      </trkpt>
      <trkpt lat="43.42751" lon="6.08144">
        <ele>261.60000610352</ele>
        <time>2016-01-06T13:31:24Z</time>
      </trkpt>
      <trkpt lat="43.42755" lon="6.08147">
        <ele>261.60000610352</ele>
        <time>2016-01-06T13:31:26Z</time>
      </trkpt>
      <trkpt lat="43.42758" lon="6.08151">
        <ele>262</ele>
        <time>2016-01-06T13:31:28Z</time>
      </trkpt>
      <trkpt lat="43.4276" lon="6.08155">
        <ele>262.39999389648</ele>
        <time>2016-01-06T13:31:30Z</time>
      </trkpt>
      <trkpt lat="43.42763" lon="6.0816">
        <ele>262.39999389648</ele>
        <time>2016-01-06T13:31:32Z</time>
      </trkpt>
      <trkpt lat="43.42766" lon="6.08164">
        <ele>262.39999389648</ele>
        <time>2016-01-06T13:31:34Z</time>
      </trkpt>
      <trkpt lat="43.42767" lon="6.08166">
        <ele>262.79998779297</ele>
        <time>2016-01-06T13:31:35Z</time>
      </trkpt>
      <trkpt lat="43.42769" lon="6.08168">
        <ele>263</ele>
        <time>2016-01-06T13:31:36Z</time>
      </trkpt>
      <trkpt lat="43.42772" lon="6.08171">
        <ele>263.20001220703</ele>
        <time>2016-01-06T13:31:38Z</time>
      </trkpt>
      <trkpt lat="43.42775" lon="6.08175">
        <ele>263</ele>
        <time>2016-01-06T13:31:40Z</time>
      </trkpt>
      <trkpt lat="43.42776" lon="6.08176">
        <ele>263.20001220703</ele>
        <time>2016-01-06T13:31:41Z</time>
      </trkpt>
      <trkpt lat="43.42778" lon="6.08179">
        <ele>263.39999389648</ele>
        <time>2016-01-06T13:31:42Z</time>
      </trkpt>
      <trkpt lat="43.4278" lon="6.08183">
        <ele>263.79998779297</ele>
        <time>2016-01-06T13:31:44Z</time>
      </trkpt>
      <trkpt lat="43.42781" lon="6.08188">
        <ele>264.20001220703</ele>
        <time>2016-01-06T13:31:46Z</time>
      </trkpt>
      <trkpt lat="43.42783" lon="6.08194">
        <ele>264.39999389648</ele>
        <time>2016-01-06T13:31:48Z</time>
      </trkpt>
      <trkpt lat="43.42784" lon="6.082">
        <ele>264.60000610352</ele>
        <time>2016-01-06T13:31:50Z</time>
      </trkpt>
      <trkpt lat="43.42785" lon="6.08202">
        <ele>264.79998779297</ele>
        <time>2016-01-06T13:31:51Z</time>
      </trkpt>
      <trkpt lat="43.42785" lon="6.08206">
        <ele>264.79998779297</ele>
        <time>2016-01-06T13:31:52Z</time>
      </trkpt>
      <trkpt lat="43.42785" lon="6.08211">
        <ele>264.79998779297</ele>
        <time>2016-01-06T13:31:54Z</time>
      </trkpt>
      <trkpt lat="43.42786" lon="6.08217">
        <ele>265.39999389648</ele>
        <time>2016-01-06T13:31:56Z</time>
      </trkpt>
      <trkpt lat="43.42786" lon="6.08224">
        <ele>265.79998779297</ele>
        <time>2016-01-06T13:31:58Z</time>
      </trkpt>
      <trkpt lat="43.42788" lon="6.08229">
        <ele>265.60000610352</ele>
        <time>2016-01-06T13:32:00Z</time>
      </trkpt>
      <trkpt lat="43.42788" lon="6.08232">
        <ele>265.79998779297</ele>
        <time>2016-01-06T13:32:01Z</time>
      </trkpt>
      <trkpt lat="43.42789" lon="6.08234">
        <ele>266.20001220703</ele>
        <time>2016-01-06T13:32:02Z</time>
      </trkpt>
      <trkpt lat="43.42791" lon="6.0824">
        <ele>266.39999389648</ele>
        <time>2016-01-06T13:32:04Z</time>
      </trkpt>
      <trkpt lat="43.42792" lon="6.08246">
        <ele>266.79998779297</ele>
        <time>2016-01-06T13:32:06Z</time>
      </trkpt>
      <trkpt lat="43.42793" lon="6.08251">
        <ele>266.60000610352</ele>
        <time>2016-01-06T13:32:08Z</time>
      </trkpt>
      <trkpt lat="43.42794" lon="6.08253">
        <ele>267</ele>
        <time>2016-01-06T13:32:09Z</time>
      </trkpt>
      <trkpt lat="43.42795" lon="6.08256">
        <ele>267.20001220703</ele>
        <time>2016-01-06T13:32:10Z</time>
      </trkpt>
      <trkpt lat="43.42797" lon="6.08258">
        <ele>267.79998779297</ele>
        <time>2016-01-06T13:32:12Z</time>
      </trkpt>
      <trkpt lat="43.42798" lon="6.08259">
        <ele>268</ele>
        <time>2016-01-06T13:32:14Z</time>
      </trkpt>
      <trkpt lat="43.42798" lon="6.08259">
        <ele>268</ele>
        <time>2016-01-06T13:32:16Z</time>
      </trkpt>
      <trkpt lat="43.42799" lon="6.08258">
        <ele>268</ele>
        <time>2016-01-06T13:32:17Z</time>
      </trkpt>
      <trkpt lat="43.42799" lon="6.08258">
        <ele>267.79998779297</ele>
        <time>2016-01-06T13:32:18Z</time>
      </trkpt>
      <trkpt lat="43.42799" lon="6.08258">
        <ele>267.79998779297</ele>
        <time>2016-01-06T13:32:20Z</time>
      </trkpt>
      <trkpt lat="43.42799" lon="6.08258">
        <ele>267.79998779297</ele>
        <time>2016-01-06T13:32:22Z</time>
      </trkpt>
      <trkpt lat="43.42799" lon="6.08258">
        <ele>267.79998779297</ele>
        <time>2016-01-06T13:32:24Z</time>
      </trkpt>
      <trkpt lat="43.42799" lon="6.08258">
        <ele>267.79998779297</ele>
        <time>2016-01-06T13:32:26Z</time>
      </trkpt>
      <trkpt lat="43.42799" lon="6.08258">
        <ele>267.79998779297</ele>
        <time>2016-01-06T13:32:28Z</time>
      </trkpt>
      <trkpt lat="43.42799" lon="6.08258">
        <ele>267.79998779297</ele>
        <time>2016-01-06T13:32:30Z</time>
      </trkpt>
      <trkpt lat="43.42799" lon="6.08258">
        <ele>267.79998779297</ele>
        <time>2016-01-06T13:32:32Z</time>
      </trkpt>
      <trkpt lat="43.42799" lon="6.08258">
        <ele>268</ele>
        <time>2016-01-06T13:32:34Z</time>
      </trkpt>
      <trkpt lat="43.42799" lon="6.08258">
        <ele>267.79998779297</ele>
        <time>2016-01-06T13:32:36Z</time>
      </trkpt>
      <trkpt lat="43.42799" lon="6.08258">
        <ele>267.79998779297</ele>
        <time>2016-01-06T13:32:38Z</time>
      </trkpt>
      <trkpt lat="43.42799" lon="6.08258">
        <ele>267.79998779297</ele>
        <time>2016-01-06T13:32:40Z</time>
      </trkpt>
      <trkpt lat="43.42799" lon="6.08258">
        <ele>267.60000610352</ele>
        <time>2016-01-06T13:32:42Z</time>
      </trkpt>
      <trkpt lat="43.42799" lon="6.08258">
        <ele>267.79998779297</ele>
        <time>2016-01-06T13:32:44Z</time>
      </trkpt>
      <trkpt lat="43.42799" lon="6.08258">
        <ele>267.79998779297</ele>
        <time>2016-01-06T13:32:46Z</time>
      </trkpt>
      <trkpt lat="43.42799" lon="6.08258">
        <ele>267.79998779297</ele>
        <time>2016-01-06T13:32:48Z</time>
      </trkpt>
      <trkpt lat="43.42799" lon="6.08258">
        <ele>268</ele>
        <time>2016-01-06T13:32:50Z</time>
      </trkpt>
      <trkpt lat="43.42799" lon="6.08258">
        <ele>268</ele>
        <time>2016-01-06T13:32:52Z</time>
      </trkpt>
      <trkpt lat="43.42799" lon="6.08258">
        <ele>267.79998779297</ele>
        <time>2016-01-06T13:32:54Z</time>
      </trkpt>
      <trkpt lat="43.42799" lon="6.08258">
        <ele>267.79998779297</ele>
        <time>2016-01-06T13:32:56Z</time>
      </trkpt>
      <trkpt lat="43.42799" lon="6.08258">
        <ele>267.60000610352</ele>
        <time>2016-01-06T13:32:58Z</time>
      </trkpt>
      <trkpt lat="43.42799" lon="6.08258">
        <ele>267.60000610352</ele>
        <time>2016-01-06T13:33:00Z</time>
      </trkpt>
      <trkpt lat="43.42799" lon="6.08258">
        <ele>267.79998779297</ele>
        <time>2016-01-06T13:33:01Z</time>
      </trkpt>
      <trkpt lat="43.42799" lon="6.08257">
        <ele>267.79998779297</ele>
        <time>2016-01-06T13:33:02Z</time>
      </trkpt>
      <trkpt lat="43.42799" lon="6.08257">
        <ele>267.79998779297</ele>
        <time>2016-01-06T13:33:04Z</time>
      </trkpt>
      <trkpt lat="43.42799" lon="6.08257">
        <ele>267.79998779297</ele>
        <time>2016-01-06T13:33:06Z</time>
      </trkpt>
      <trkpt lat="43.42799" lon="6.08257">
        <ele>268</ele>
        <time>2016-01-06T13:33:08Z</time>
      </trkpt>
      <trkpt lat="43.42799" lon="6.08257">
        <ele>268</ele>
        <time>2016-01-06T13:33:09Z</time>
      </trkpt>
      <trkpt lat="43.42799" lon="6.08257">
        <ele>268</ele>
        <time>2016-01-06T13:33:10Z</time>
      </trkpt>
      <trkpt lat="43.42799" lon="6.08257">
        <ele>267.79998779297</ele>
        <time>2016-01-06T13:33:12Z</time>
      </trkpt>
      <trkpt lat="43.42799" lon="6.08257">
        <ele>267.79998779297</ele>
        <time>2016-01-06T13:33:14Z</time>
      </trkpt>
      <trkpt lat="43.42799" lon="6.08257">
        <ele>267.79998779297</ele>
        <time>2016-01-06T13:33:16Z</time>
      </trkpt>
      <trkpt lat="43.42799" lon="6.08257">
        <ele>267.79998779297</ele>
        <time>2016-01-06T13:33:18Z</time>
      </trkpt>
      <trkpt lat="43.42799" lon="6.08257">
        <ele>267.79998779297</ele>
        <time>2016-01-06T13:33:20Z</time>
      </trkpt>
      <trkpt lat="43.42799" lon="6.08257">
        <ele>267.79998779297</ele>
        <time>2016-01-06T13:33:22Z</time>
      </trkpt>
      <trkpt lat="43.42799" lon="6.08257">
        <ele>267.79998779297</ele>
        <time>2016-01-06T13:33:24Z</time>
      </trkpt>
      <trkpt lat="43.42799" lon="6.08257">
        <ele>267.79998779297</ele>
        <time>2016-01-06T13:33:26Z</time>
      </trkpt>
      <trkpt lat="43.42799" lon="6.08257">
        <ele>267.79998779297</ele>
        <time>2016-01-06T13:33:28Z</time>
      </trkpt>
      <trkpt lat="43.42799" lon="6.08257">
        <ele>268</ele>
        <time>2016-01-06T13:33:30Z</time>
      </trkpt>
      <trkpt lat="43.42799" lon="6.08257">
        <ele>267.79998779297</ele>
        <time>2016-01-06T13:33:32Z</time>
      </trkpt>
      <trkpt lat="43.42799" lon="6.08257">
        <ele>267.79998779297</ele>
        <time>2016-01-06T13:33:34Z</time>
      </trkpt>
      <trkpt lat="43.42799" lon="6.08257">
        <ele>267.79998779297</ele>
        <time>2016-01-06T13:33:36Z</time>
      </trkpt>
      <trkpt lat="43.42799" lon="6.08257">
        <ele>268</ele>
        <time>2016-01-06T13:33:38Z</time>
      </trkpt>
      <trkpt lat="43.42799" lon="6.08257">
        <ele>268.20001220703</ele>
        <time>2016-01-06T13:33:40Z</time>
      </trkpt>
      <trkpt lat="43.42799" lon="6.08257">
        <ele>268.20001220703</ele>
        <time>2016-01-06T13:33:42Z</time>
      </trkpt>
      <trkpt lat="43.42799" lon="6.08257">
        <ele>268</ele>
        <time>2016-01-06T13:33:44Z</time>
      </trkpt>
      <trkpt lat="43.42799" lon="6.08257">
        <ele>268</ele>
        <time>2016-01-06T13:33:46Z</time>
      </trkpt>
      <trkpt lat="43.42799" lon="6.08257">
        <ele>268</ele>
        <time>2016-01-06T13:33:48Z</time>
      </trkpt>
      <trkpt lat="43.42799" lon="6.08257">
        <ele>267.79998779297</ele>
        <time>2016-01-06T13:33:50Z</time>
      </trkpt>
      <trkpt lat="43.42799" lon="6.08257">
        <ele>267.79998779297</ele>
        <time>2016-01-06T13:33:52Z</time>
      </trkpt>
      <trkpt lat="43.428" lon="6.08257">
        <ele>267.79998779297</ele>
        <time>2016-01-06T13:33:54Z</time>
      </trkpt>
      <trkpt lat="43.428" lon="6.08257">
        <ele>268</ele>
        <time>2016-01-06T13:33:56Z</time>
      </trkpt>
      <trkpt lat="43.428" lon="6.08257">
        <ele>268</ele>
        <time>2016-01-06T13:33:57Z</time>
      </trkpt>
      <trkpt lat="43.428" lon="6.08257">
        <ele>268</ele>
        <time>2016-01-06T13:33:58Z</time>
      </trkpt>
      <trkpt lat="43.428" lon="6.08257">
        <ele>267.79998779297</ele>
        <time>2016-01-06T13:34:00Z</time>
      </trkpt>
      <trkpt lat="43.428" lon="6.08257">
        <ele>267.79998779297</ele>
        <time>2016-01-06T13:34:02Z</time>
      </trkpt>
      <trkpt lat="43.428" lon="6.08257">
        <ele>267.60000610352</ele>
        <time>2016-01-06T13:34:04Z</time>
      </trkpt>
      <trkpt lat="43.428" lon="6.08257">
        <ele>267.79998779297</ele>
        <time>2016-01-06T13:34:06Z</time>
      </trkpt>
      <trkpt lat="43.428" lon="6.08257">
        <ele>267.79998779297</ele>
        <time>2016-01-06T13:34:07Z</time>
      </trkpt>
      <trkpt lat="43.428" lon="6.08257">
        <ele>267.79998779297</ele>
        <time>2016-01-06T13:34:08Z</time>
      </trkpt>
      <trkpt lat="43.428" lon="6.08257">
        <ele>267.79998779297</ele>
        <time>2016-01-06T13:34:10Z</time>
      </trkpt>
      <trkpt lat="43.428" lon="6.08257">
        <ele>267.79998779297</ele>
        <time>2016-01-06T13:34:12Z</time>
      </trkpt>
      <trkpt lat="43.428" lon="6.08257">
        <ele>267.79998779297</ele>
        <time>2016-01-06T13:34:14Z</time>
      </trkpt>
      <trkpt lat="43.428" lon="6.08257">
        <ele>268</ele>
        <time>2016-01-06T13:34:16Z</time>
      </trkpt>
      <trkpt lat="43.428" lon="6.08257">
        <ele>268</ele>
        <time>2016-01-06T13:34:18Z</time>
      </trkpt>
      <trkpt lat="43.428" lon="6.08257">
        <ele>268</ele>
        <time>2016-01-06T13:34:20Z</time>
      </trkpt>
      <trkpt lat="43.428" lon="6.08257">
        <ele>268</ele>
        <time>2016-01-06T13:34:22Z</time>
      </trkpt>
      <trkpt lat="43.428" lon="6.08257">
        <ele>268</ele>
        <time>2016-01-06T13:34:24Z</time>
      </trkpt>
      <trkpt lat="43.428" lon="6.08257">
        <ele>268</ele>
        <time>2016-01-06T13:34:26Z</time>
      </trkpt>
      <trkpt lat="43.428" lon="6.08257">
        <ele>267.60000610352</ele>
        <time>2016-01-06T13:34:28Z</time>
      </trkpt>
      <trkpt lat="43.428" lon="6.08257">
        <ele>267.60000610352</ele>
        <time>2016-01-06T13:34:30Z</time>
      </trkpt>
      <trkpt lat="43.428" lon="6.08257">
        <ele>267.60000610352</ele>
        <time>2016-01-06T13:34:32Z</time>
      </trkpt>
      <trkpt lat="43.428" lon="6.08257">
        <ele>267.79998779297</ele>
        <time>2016-01-06T13:34:34Z</time>
      </trkpt>
      <trkpt lat="43.428" lon="6.08257">
        <ele>267.79998779297</ele>
        <time>2016-01-06T13:34:36Z</time>
      </trkpt>
      <trkpt lat="43.428" lon="6.08257">
        <ele>268</ele>
        <time>2016-01-06T13:34:38Z</time>
      </trkpt>
      <trkpt lat="43.428" lon="6.08257">
        <ele>267.79998779297</ele>
        <time>2016-01-06T13:34:40Z</time>
      </trkpt>
      <trkpt lat="43.428" lon="6.08257">
        <ele>267.79998779297</ele>
        <time>2016-01-06T13:34:42Z</time>
      </trkpt>
      <trkpt lat="43.428" lon="6.08257">
        <ele>267.60000610352</ele>
        <time>2016-01-06T13:34:44Z</time>
      </trkpt>
      <trkpt lat="43.428" lon="6.08257">
        <ele>267.79998779297</ele>
        <time>2016-01-06T13:34:46Z</time>
      </trkpt>
      <trkpt lat="43.428" lon="6.08257">
        <ele>267.79998779297</ele>
        <time>2016-01-06T13:34:48Z</time>
      </trkpt>
      <trkpt lat="43.428" lon="6.08257">
        <ele>267.79998779297</ele>
        <time>2016-01-06T13:34:50Z</time>
      </trkpt>
      <trkpt lat="43.428" lon="6.08257">
        <ele>267.79998779297</ele>
        <time>2016-01-06T13:34:52Z</time>
      </trkpt>
      <trkpt lat="43.428" lon="6.08257">
        <ele>267.79998779297</ele>
        <time>2016-01-06T13:34:54Z</time>
      </trkpt>
      <trkpt lat="43.428" lon="6.08257">
        <ele>267.79998779297</ele>
        <time>2016-01-06T13:34:56Z</time>
      </trkpt>
      <trkpt lat="43.428" lon="6.08257">
        <ele>267.79998779297</ele>
        <time>2016-01-06T13:34:58Z</time>
      </trkpt>
      <trkpt lat="43.428" lon="6.08257">
        <ele>267.79998779297</ele>
        <time>2016-01-06T13:35:00Z</time>
      </trkpt>
      <trkpt lat="43.428" lon="6.08257">
        <ele>267.79998779297</ele>
        <time>2016-01-06T13:35:02Z</time>
      </trkpt>
      <trkpt lat="43.428" lon="6.08257">
        <ele>267.79998779297</ele>
        <time>2016-01-06T13:35:04Z</time>
      </trkpt>
      <trkpt lat="43.428" lon="6.08257">
        <ele>267.79998779297</ele>
        <time>2016-01-06T13:35:06Z</time>
      </trkpt>
      <trkpt lat="43.428" lon="6.08257">
        <ele>267.79998779297</ele>
        <time>2016-01-06T13:35:08Z</time>
      </trkpt>
      <trkpt lat="43.428" lon="6.08257">
        <ele>267.79998779297</ele>
        <time>2016-01-06T13:35:10Z</time>
      </trkpt>
      <trkpt lat="43.428" lon="6.08257">
        <ele>267.60000610352</ele>
        <time>2016-01-06T13:35:12Z</time>
      </trkpt>
      <trkpt lat="43.428" lon="6.08257">
        <ele>267.79998779297</ele>
        <time>2016-01-06T13:35:14Z</time>
      </trkpt>
      <trkpt lat="43.428" lon="6.08257">
        <ele>267.79998779297</ele>
        <time>2016-01-06T13:35:16Z</time>
      </trkpt>
      <trkpt lat="43.428" lon="6.08257">
        <ele>268</ele>
        <time>2016-01-06T13:35:18Z</time>
      </trkpt>
      <trkpt lat="43.428" lon="6.08257">
        <ele>268</ele>
        <time>2016-01-06T13:35:20Z</time>
      </trkpt>
      <trkpt lat="43.428" lon="6.08257">
        <ele>268</ele>
        <time>2016-01-06T13:35:22Z</time>
      </trkpt>
      <trkpt lat="43.428" lon="6.08257">
        <ele>268</ele>
        <time>2016-01-06T13:35:24Z</time>
      </trkpt>
      <trkpt lat="43.428" lon="6.08257">
        <ele>267.79998779297</ele>
        <time>2016-01-06T13:35:26Z</time>
      </trkpt>
      <trkpt lat="43.428" lon="6.08257">
        <ele>267.79998779297</ele>
        <time>2016-01-06T13:35:28Z</time>
      </trkpt>
      <trkpt lat="43.428" lon="6.08257">
        <ele>267.79998779297</ele>
        <time>2016-01-06T13:35:30Z</time>
      </trkpt>
      <trkpt lat="43.428" lon="6.08257">
        <ele>268</ele>
        <time>2016-01-06T13:35:32Z</time>
      </trkpt>
      <trkpt lat="43.428" lon="6.08257">
        <ele>268</ele>
        <time>2016-01-06T13:35:34Z</time>
      </trkpt>
      <trkpt lat="43.428" lon="6.08257">
        <ele>268</ele>
        <time>2016-01-06T13:35:36Z</time>
      </trkpt>
      <trkpt lat="43.428" lon="6.08257">
        <ele>268</ele>
        <time>2016-01-06T13:35:38Z</time>
      </trkpt>
      <trkpt lat="43.428" lon="6.08257">
        <ele>268</ele>
        <time>2016-01-06T13:35:40Z</time>
      </trkpt>
      <trkpt lat="43.428" lon="6.08257">
        <ele>268</ele>
        <time>2016-01-06T13:35:42Z</time>
      </trkpt>
      <trkpt lat="43.428" lon="6.08257">
        <ele>268</ele>
        <time>2016-01-06T13:35:44Z</time>
      </trkpt>
      <trkpt lat="43.428" lon="6.08257">
        <ele>268</ele>
        <time>2016-01-06T13:35:46Z</time>
      </trkpt>
      <trkpt lat="43.428" lon="6.08257">
        <ele>268.20001220703</ele>
        <time>2016-01-06T13:35:48Z</time>
      </trkpt>
      <trkpt lat="43.42801" lon="6.08257">
        <ele>268.20001220703</ele>
        <time>2016-01-06T13:35:50Z</time>
      </trkpt>
      <trkpt lat="43.42802" lon="6.08257">
        <ele>268</ele>
        <time>2016-01-06T13:35:51Z</time>
      </trkpt>
      <trkpt lat="43.42803" lon="6.08257">
        <ele>268</ele>
        <time>2016-01-06T13:35:52Z</time>
      </trkpt>
      <trkpt lat="43.42806" lon="6.08257">
        <ele>268</ele>
        <time>2016-01-06T13:35:54Z</time>
      </trkpt>
      <trkpt lat="43.42809" lon="6.08256">
        <ele>268.20001220703</ele>
        <time>2016-01-06T13:35:56Z</time>
      </trkpt>
      <trkpt lat="43.42812" lon="6.08255">
        <ele>268.39999389648</ele>
        <time>2016-01-06T13:35:58Z</time>
      </trkpt>
      <trkpt lat="43.42815" lon="6.08255">
        <ele>268.79998779297</ele>
        <time>2016-01-06T13:36:00Z</time>
      </trkpt>
      <trkpt lat="43.42817" lon="6.08255">
        <ele>269</ele>
        <time>2016-01-06T13:36:02Z</time>
      </trkpt>
      <trkpt lat="43.42817" lon="6.08254">
        <ele>269</ele>
        <time>2016-01-06T13:36:04Z</time>
      </trkpt>
      <trkpt lat="43.42817" lon="6.08254">
        <ele>268.79998779297</ele>
        <time>2016-01-06T13:36:06Z</time>
      </trkpt>
      <trkpt lat="43.42817" lon="6.08254">
        <ele>268.79998779297</ele>
        <time>2016-01-06T13:36:08Z</time>
      </trkpt>
      <trkpt lat="43.42817" lon="6.08254">
        <ele>269</ele>
        <time>2016-01-06T13:36:10Z</time>
      </trkpt>
      <trkpt lat="43.42817" lon="6.08254">
        <ele>269</ele>
        <time>2016-01-06T13:36:12Z</time>
      </trkpt>
      <trkpt lat="43.42817" lon="6.08254">
        <ele>268.79998779297</ele>
        <time>2016-01-06T13:36:14Z</time>
      </trkpt>
      <trkpt lat="43.42817" lon="6.08255">
        <ele>268.60000610352</ele>
        <time>2016-01-06T13:36:16Z</time>
      </trkpt>
      <trkpt lat="43.42819" lon="6.08256">
        <ele>268.79998779297</ele>
        <time>2016-01-06T13:36:18Z</time>
      </trkpt>
      <trkpt lat="43.42822" lon="6.08257">
        <ele>269</ele>
        <time>2016-01-06T13:36:19Z</time>
      </trkpt>
      <trkpt lat="43.42824" lon="6.08259">
        <ele>268.60000610352</ele>
        <time>2016-01-06T13:36:20Z</time>
      </trkpt>
      <trkpt lat="43.42828" lon="6.08265">
        <ele>268.20001220703</ele>
        <time>2016-01-06T13:36:22Z</time>
      </trkpt>
      <trkpt lat="43.42832" lon="6.08273">
        <ele>268</ele>
        <time>2016-01-06T13:36:24Z</time>
      </trkpt>
      <trkpt lat="43.42834" lon="6.08278">
        <ele>267.79998779297</ele>
        <time>2016-01-06T13:36:25Z</time>
      </trkpt>
      <trkpt lat="43.42835" lon="6.08282">
        <ele>267.60000610352</ele>
        <time>2016-01-06T13:36:26Z</time>
      </trkpt>
      <trkpt lat="43.42837" lon="6.08287">
        <ele>267.39999389648</ele>
        <time>2016-01-06T13:36:27Z</time>
      </trkpt>
      <trkpt lat="43.42838" lon="6.08293">
        <ele>267.20001220703</ele>
        <time>2016-01-06T13:36:28Z</time>
      </trkpt>
      <trkpt lat="43.42839" lon="6.08303">
        <ele>267.20001220703</ele>
        <time>2016-01-06T13:36:30Z</time>
      </trkpt>
      <trkpt lat="43.42841" lon="6.08312">
        <ele>267.79998779297</ele>
        <time>2016-01-06T13:36:32Z</time>
      </trkpt>
      <trkpt lat="43.42842" lon="6.0832">
        <ele>268</ele>
        <time>2016-01-06T13:36:34Z</time>
      </trkpt>
      <trkpt lat="43.42844" lon="6.08327">
        <ele>268</ele>
        <time>2016-01-06T13:36:36Z</time>
      </trkpt>
      <trkpt lat="43.42846" lon="6.08334">
        <ele>268.20001220703</ele>
        <time>2016-01-06T13:36:38Z</time>
      </trkpt>
      <trkpt lat="43.42847" lon="6.0834">
        <ele>268.60000610352</ele>
        <time>2016-01-06T13:36:40Z</time>
      </trkpt>
      <trkpt lat="43.42848" lon="6.08344">
        <ele>269</ele>
        <time>2016-01-06T13:36:41Z</time>
      </trkpt>
      <trkpt lat="43.42849" lon="6.08347">
        <ele>269</ele>
        <time>2016-01-06T13:36:42Z</time>
      </trkpt>
      <trkpt lat="43.4285" lon="6.08355">
        <ele>269.20001220703</ele>
        <time>2016-01-06T13:36:44Z</time>
      </trkpt>
      <trkpt lat="43.42851" lon="6.08359">
        <ele>269.20001220703</ele>
        <time>2016-01-06T13:36:45Z</time>
      </trkpt>
      <trkpt lat="43.42852" lon="6.08363">
        <ele>269</ele>
        <time>2016-01-06T13:36:46Z</time>
      </trkpt>
      <trkpt lat="43.42854" lon="6.08371">
        <ele>269.20001220703</ele>
        <time>2016-01-06T13:36:48Z</time>
      </trkpt>
      <trkpt lat="43.42857" lon="6.08378">
        <ele>269.20001220703</ele>
        <time>2016-01-06T13:36:50Z</time>
      </trkpt>
      <trkpt lat="43.42859" lon="6.08386">
        <ele>269.20001220703</ele>
        <time>2016-01-06T13:36:52Z</time>
      </trkpt>
      <trkpt lat="43.4286" lon="6.08393">
        <ele>269.60000610352</ele>
        <time>2016-01-06T13:36:54Z</time>
      </trkpt>
      <trkpt lat="43.42862" lon="6.084">
        <ele>269.60000610352</ele>
        <time>2016-01-06T13:36:56Z</time>
      </trkpt>
      <trkpt lat="43.42863" lon="6.08406">
        <ele>269.79998779297</ele>
        <time>2016-01-06T13:36:58Z</time>
      </trkpt>
      <trkpt lat="43.42866" lon="6.08413">
        <ele>269.79998779297</ele>
        <time>2016-01-06T13:37:00Z</time>
      </trkpt>
      <trkpt lat="43.42867" lon="6.08416">
        <ele>269.79998779297</ele>
        <time>2016-01-06T13:37:01Z</time>
      </trkpt>
      <trkpt lat="43.42869" lon="6.08419">
        <ele>269.79998779297</ele>
        <time>2016-01-06T13:37:02Z</time>
      </trkpt>
      <trkpt lat="43.42874" lon="6.08424">
        <ele>269.60000610352</ele>
        <time>2016-01-06T13:37:04Z</time>
      </trkpt>
      <trkpt lat="43.42878" lon="6.0843">
        <ele>269.79998779297</ele>
        <time>2016-01-06T13:37:06Z</time>
      </trkpt>
      <trkpt lat="43.42883" lon="6.08436">
        <ele>269.79998779297</ele>
        <time>2016-01-06T13:37:08Z</time>
      </trkpt>
      <trkpt lat="43.42887" lon="6.08442">
        <ele>270</ele>
        <time>2016-01-06T13:37:10Z</time>
      </trkpt>
      <trkpt lat="43.42891" lon="6.08448">
        <ele>270</ele>
        <time>2016-01-06T13:37:12Z</time>
      </trkpt>
      <trkpt lat="43.42895" lon="6.08455">
        <ele>270</ele>
        <time>2016-01-06T13:37:14Z</time>
      </trkpt>
      <trkpt lat="43.42897" lon="6.08459">
        <ele>270.39999389648</ele>
        <time>2016-01-06T13:37:15Z</time>
      </trkpt>
      <trkpt lat="43.42899" lon="6.08462">
        <ele>270.79998779297</ele>
        <time>2016-01-06T13:37:16Z</time>
      </trkpt>
      <trkpt lat="43.42903" lon="6.08469">
        <ele>271</ele>
        <time>2016-01-06T13:37:18Z</time>
      </trkpt>
      <trkpt lat="43.42907" lon="6.08477">
        <ele>271</ele>
        <time>2016-01-06T13:37:20Z</time>
      </trkpt>
      <trkpt lat="43.42912" lon="6.08484">
        <ele>270.79998779297</ele>
        <time>2016-01-06T13:37:22Z</time>
      </trkpt>
      <trkpt lat="43.42918" lon="6.0849">
        <ele>271.20001220703</ele>
        <time>2016-01-06T13:37:24Z</time>
      </trkpt>
      <trkpt lat="43.42921" lon="6.08493">
        <ele>271.20001220703</ele>
        <time>2016-01-06T13:37:25Z</time>
      </trkpt>
      <trkpt lat="43.42924" lon="6.08496">
        <ele>271</ele>
        <time>2016-01-06T13:37:26Z</time>
      </trkpt>
      <trkpt lat="43.42931" lon="6.08502">
        <ele>271.20001220703</ele>
        <time>2016-01-06T13:37:28Z</time>
      </trkpt>
      <trkpt lat="43.42937" lon="6.0851">
        <ele>271</ele>
        <time>2016-01-06T13:37:30Z</time>
      </trkpt>
      <trkpt lat="43.4294" lon="6.08514">
        <ele>270.60000610352</ele>
        <time>2016-01-06T13:37:31Z</time>
      </trkpt>
      <trkpt lat="43.42942" lon="6.08518">
        <ele>270.79998779297</ele>
        <time>2016-01-06T13:37:32Z</time>
      </trkpt>
      <trkpt lat="43.42945" lon="6.08527">
        <ele>271.20001220703</ele>
        <time>2016-01-06T13:37:34Z</time>
      </trkpt>
      <trkpt lat="43.42947" lon="6.08536">
        <ele>270.79998779297</ele>
        <time>2016-01-06T13:37:36Z</time>
      </trkpt>
      <trkpt lat="43.42949" lon="6.0854">
        <ele>270.79998779297</ele>
        <time>2016-01-06T13:37:37Z</time>
      </trkpt>
      <trkpt lat="43.4295" lon="6.08544">
        <ele>271</ele>
        <time>2016-01-06T13:37:38Z</time>
      </trkpt>
      <trkpt lat="43.42953" lon="6.08552">
        <ele>270.79998779297</ele>
        <time>2016-01-06T13:37:40Z</time>
      </trkpt>
      <trkpt lat="43.42955" lon="6.0856">
        <ele>271.20001220703</ele>
        <time>2016-01-06T13:37:42Z</time>
      </trkpt>
      <trkpt lat="43.42957" lon="6.08569">
        <ele>271.20001220703</ele>
        <time>2016-01-06T13:37:44Z</time>
      </trkpt>
      <trkpt lat="43.42958" lon="6.08572">
        <ele>271.20001220703</ele>
        <time>2016-01-06T13:37:45Z</time>
      </trkpt>
      <trkpt lat="43.42959" lon="6.08577">
        <ele>271.20001220703</ele>
        <time>2016-01-06T13:37:46Z</time>
      </trkpt>
      <trkpt lat="43.42961" lon="6.08585">
        <ele>271.39999389648</ele>
        <time>2016-01-06T13:37:48Z</time>
      </trkpt>
      <trkpt lat="43.42963" lon="6.08593">
        <ele>271.39999389648</ele>
        <time>2016-01-06T13:37:50Z</time>
      </trkpt>
      <trkpt lat="43.42965" lon="6.086">
        <ele>272.20001220703</ele>
        <time>2016-01-06T13:37:52Z</time>
      </trkpt>
      <trkpt lat="43.42966" lon="6.08604">
        <ele>272.20001220703</ele>
        <time>2016-01-06T13:37:53Z</time>
      </trkpt>
      <trkpt lat="43.42967" lon="6.08608">
        <ele>272.20001220703</ele>
        <time>2016-01-06T13:37:54Z</time>
      </trkpt>
      <trkpt lat="43.42969" lon="6.08615">
        <ele>271.79998779297</ele>
        <time>2016-01-06T13:37:56Z</time>
      </trkpt>
      <trkpt lat="43.42971" lon="6.08623">
        <ele>272.20001220703</ele>
        <time>2016-01-06T13:37:58Z</time>
      </trkpt>
      <trkpt lat="43.42973" lon="6.08632">
        <ele>272.39999389648</ele>
        <time>2016-01-06T13:38:00Z</time>
      </trkpt>
      <trkpt lat="43.42974" lon="6.0864">
        <ele>272.60000610352</ele>
        <time>2016-01-06T13:38:02Z</time>
      </trkpt>
      <trkpt lat="43.42976" lon="6.08648">
        <ele>271.79998779297</ele>
        <time>2016-01-06T13:38:04Z</time>
      </trkpt>
      <trkpt lat="43.42979" lon="6.08656">
        <ele>272.20001220703</ele>
        <time>2016-01-06T13:38:06Z</time>
      </trkpt>
      <trkpt lat="43.42981" lon="6.08664">
        <ele>272.60000610352</ele>
        <time>2016-01-06T13:38:08Z</time>
      </trkpt>
      <trkpt lat="43.42982" lon="6.08672">
        <ele>272.79998779297</ele>
        <time>2016-01-06T13:38:10Z</time>
      </trkpt>
      <trkpt lat="43.42984" lon="6.0868">
        <ele>272.79998779297</ele>
        <time>2016-01-06T13:38:12Z</time>
      </trkpt>
      <trkpt lat="43.42987" lon="6.08689">
        <ele>273</ele>
        <time>2016-01-06T13:38:14Z</time>
      </trkpt>
      <trkpt lat="43.42989" lon="6.08698">
        <ele>273.20001220703</ele>
        <time>2016-01-06T13:38:16Z</time>
      </trkpt>
      <trkpt lat="43.42992" lon="6.08706">
        <ele>273.39999389648</ele>
        <time>2016-01-06T13:38:18Z</time>
      </trkpt>
      <trkpt lat="43.42995" lon="6.08713">
        <ele>273.20001220703</ele>
        <time>2016-01-06T13:38:20Z</time>
      </trkpt>
      <trkpt lat="43.42999" lon="6.0872">
        <ele>273.60000610352</ele>
        <time>2016-01-06T13:38:22Z</time>
      </trkpt>
      <trkpt lat="43.43002" lon="6.08727">
        <ele>273.79998779297</ele>
        <time>2016-01-06T13:38:24Z</time>
      </trkpt>
      <trkpt lat="43.43003" lon="6.08731">
        <ele>274</ele>
        <time>2016-01-06T13:38:25Z</time>
      </trkpt>
      <trkpt lat="43.43004" lon="6.08735">
        <ele>274.20001220703</ele>
        <time>2016-01-06T13:38:26Z</time>
      </trkpt>
      <trkpt lat="43.43007" lon="6.08742">
        <ele>274.60000610352</ele>
        <time>2016-01-06T13:38:28Z</time>
      </trkpt>
      <trkpt lat="43.43009" lon="6.08749">
        <ele>275.20001220703</ele>
        <time>2016-01-06T13:38:30Z</time>
      </trkpt>
      <trkpt lat="43.4301" lon="6.08753">
        <ele>275.20001220703</ele>
        <time>2016-01-06T13:38:31Z</time>
      </trkpt>
      <trkpt lat="43.43011" lon="6.08757">
        <ele>275.20001220703</ele>
        <time>2016-01-06T13:38:32Z</time>
      </trkpt>
      <trkpt lat="43.43013" lon="6.08764">
        <ele>275</ele>
        <time>2016-01-06T13:38:34Z</time>
      </trkpt>
      <trkpt lat="43.43014" lon="6.08771">
        <ele>275.60000610352</ele>
        <time>2016-01-06T13:38:36Z</time>
      </trkpt>
      <trkpt lat="43.43015" lon="6.08779">
        <ele>275.39999389648</ele>
        <time>2016-01-06T13:38:38Z</time>
      </trkpt>
      <trkpt lat="43.43015" lon="6.08783">
        <ele>275.39999389648</ele>
        <time>2016-01-06T13:38:39Z</time>
      </trkpt>
      <trkpt lat="43.43015" lon="6.08787">
        <ele>275.60000610352</ele>
        <time>2016-01-06T13:38:40Z</time>
      </trkpt>
      <trkpt lat="43.43016" lon="6.08794">
        <ele>275.79998779297</ele>
        <time>2016-01-06T13:38:42Z</time>
      </trkpt>
      <trkpt lat="43.43017" lon="6.08801">
        <ele>275.60000610352</ele>
        <time>2016-01-06T13:38:44Z</time>
      </trkpt>
      <trkpt lat="43.43018" lon="6.08804">
        <ele>275.39999389648</ele>
        <time>2016-01-06T13:38:45Z</time>
      </trkpt>
      <trkpt lat="43.43018" lon="6.08808">
        <ele>275.60000610352</ele>
        <time>2016-01-06T13:38:46Z</time>
      </trkpt>
      <trkpt lat="43.43019" lon="6.08816">
        <ele>276.39999389648</ele>
        <time>2016-01-06T13:38:48Z</time>
      </trkpt>
      <trkpt lat="43.43021" lon="6.08823">
        <ele>276.79998779297</ele>
        <time>2016-01-06T13:38:50Z</time>
      </trkpt>
      <trkpt lat="43.43023" lon="6.0883">
        <ele>276.39999389648</ele>
        <time>2016-01-06T13:38:52Z</time>
      </trkpt>
      <trkpt lat="43.43024" lon="6.08837">
        <ele>276.60000610352</ele>
        <time>2016-01-06T13:38:54Z</time>
      </trkpt>
      <trkpt lat="43.43025" lon="6.08844">
        <ele>277</ele>
        <time>2016-01-06T13:38:56Z</time>
      </trkpt>
      <trkpt lat="43.43025" lon="6.08851">
        <ele>277.39999389648</ele>
        <time>2016-01-06T13:38:58Z</time>
      </trkpt>
      <trkpt lat="43.43025" lon="6.08855">
        <ele>277</ele>
        <time>2016-01-06T13:38:59Z</time>
      </trkpt>
      <trkpt lat="43.43024" lon="6.08859">
        <ele>277</ele>
        <time>2016-01-06T13:39:00Z</time>
      </trkpt>
      <trkpt lat="43.43023" lon="6.08865">
        <ele>277</ele>
        <time>2016-01-06T13:39:02Z</time>
      </trkpt>
      <trkpt lat="43.43022" lon="6.08869">
        <ele>277.20001220703</ele>
        <time>2016-01-06T13:39:03Z</time>
      </trkpt>
      <trkpt lat="43.43022" lon="6.08872">
        <ele>277.39999389648</ele>
        <time>2016-01-06T13:39:04Z</time>
      </trkpt>
      <trkpt lat="43.43023" lon="6.08875">
        <ele>277.60000610352</ele>
        <time>2016-01-06T13:39:05Z</time>
      </trkpt>
      <trkpt lat="43.43023" lon="6.08878">
        <ele>277.60000610352</ele>
        <time>2016-01-06T13:39:06Z</time>
      </trkpt>
      <trkpt lat="43.43024" lon="6.08885">
        <ele>278.20001220703</ele>
        <time>2016-01-06T13:39:08Z</time>
      </trkpt>
      <trkpt lat="43.43025" lon="6.08891">
        <ele>278.20001220703</ele>
        <time>2016-01-06T13:39:10Z</time>
      </trkpt>
      <trkpt lat="43.43024" lon="6.08895">
        <ele>278</ele>
        <time>2016-01-06T13:39:11Z</time>
      </trkpt>
      <trkpt lat="43.43024" lon="6.08899">
        <ele>278.20001220703</ele>
        <time>2016-01-06T13:39:12Z</time>
      </trkpt>
      <trkpt lat="43.43023" lon="6.08902">
        <ele>278.20001220703</ele>
        <time>2016-01-06T13:39:13Z</time>
      </trkpt>
      <trkpt lat="43.43022" lon="6.08905">
        <ele>278</ele>
        <time>2016-01-06T13:39:14Z</time>
      </trkpt>
      <trkpt lat="43.43021" lon="6.08912">
        <ele>278.79998779297</ele>
        <time>2016-01-06T13:39:16Z</time>
      </trkpt>
      <trkpt lat="43.43019" lon="6.08919">
        <ele>278.79998779297</ele>
        <time>2016-01-06T13:39:18Z</time>
      </trkpt>
      <trkpt lat="43.4302" lon="6.08925">
        <ele>278.79998779297</ele>
        <time>2016-01-06T13:39:20Z</time>
      </trkpt>
      <trkpt lat="43.43021" lon="6.08927">
        <ele>279</ele>
        <time>2016-01-06T13:39:21Z</time>
      </trkpt>
      <trkpt lat="43.43023" lon="6.0893">
        <ele>279.20001220703</ele>
        <time>2016-01-06T13:39:22Z</time>
      </trkpt>
      <trkpt lat="43.43024" lon="6.08933">
        <ele>279.39999389648</ele>
        <time>2016-01-06T13:39:23Z</time>
      </trkpt>
      <trkpt lat="43.43025" lon="6.08937">
        <ele>279.39999389648</ele>
        <time>2016-01-06T13:39:24Z</time>
      </trkpt>
      <trkpt lat="43.43026" lon="6.08943">
        <ele>279.20001220703</ele>
        <time>2016-01-06T13:39:26Z</time>
      </trkpt>
      <trkpt lat="43.43026" lon="6.08946">
        <ele>279.39999389648</ele>
        <time>2016-01-06T13:39:27Z</time>
      </trkpt>
      <trkpt lat="43.43027" lon="6.08949">
        <ele>279.39999389648</ele>
        <time>2016-01-06T13:39:28Z</time>
      </trkpt>
      <trkpt lat="43.43027" lon="6.08953">
        <ele>279.39999389648</ele>
        <time>2016-01-06T13:39:30Z</time>
      </trkpt>
      <trkpt lat="43.43027" lon="6.08954">
        <ele>279.79998779297</ele>
        <time>2016-01-06T13:39:32Z</time>
      </trkpt>
      <trkpt lat="43.43027" lon="6.08954">
        <ele>279.79998779297</ele>
        <time>2016-01-06T13:39:34Z</time>
      </trkpt>
      <trkpt lat="43.43027" lon="6.08954">
        <ele>279.79998779297</ele>
        <time>2016-01-06T13:39:36Z</time>
      </trkpt>
      <trkpt lat="43.43027" lon="6.08954">
        <ele>279.79998779297</ele>
        <time>2016-01-06T13:39:38Z</time>
      </trkpt>
      <trkpt lat="43.43027" lon="6.08954">
        <ele>280</ele>
        <time>2016-01-06T13:39:40Z</time>
      </trkpt>
      <trkpt lat="43.43027" lon="6.08954">
        <ele>279.79998779297</ele>
        <time>2016-01-06T13:39:42Z</time>
      </trkpt>
      <trkpt lat="43.43027" lon="6.08954">
        <ele>279.79998779297</ele>
        <time>2016-01-06T13:39:44Z</time>
      </trkpt>
      <trkpt lat="43.43027" lon="6.08954">
        <ele>280</ele>
        <time>2016-01-06T13:39:45Z</time>
      </trkpt>
      <trkpt lat="43.43027" lon="6.08954">
        <ele>279.79998779297</ele>
        <time>2016-01-06T13:39:48Z</time>
      </trkpt>
      <trkpt lat="43.43027" lon="6.08954">
        <ele>279.79998779297</ele>
        <time>2016-01-06T13:39:50Z</time>
      </trkpt>
      <trkpt lat="43.43027" lon="6.08954">
        <ele>280</ele>
        <time>2016-01-06T13:39:52Z</time>
      </trkpt>
      <trkpt lat="43.43027" lon="6.08954">
        <ele>280</ele>
        <time>2016-01-06T13:39:54Z</time>
      </trkpt>
      <trkpt lat="43.43027" lon="6.08954">
        <ele>280.20001220703</ele>
        <time>2016-01-06T13:39:56Z</time>
      </trkpt>
      <trkpt lat="43.43027" lon="6.08954">
        <ele>280.20001220703</ele>
        <time>2016-01-06T13:39:58Z</time>
      </trkpt>
      <trkpt lat="43.43027" lon="6.08954">
        <ele>280</ele>
        <time>2016-01-06T13:40:00Z</time>
      </trkpt>
      <trkpt lat="43.43027" lon="6.08954">
        <ele>280</ele>
        <time>2016-01-06T13:40:02Z</time>
      </trkpt>
      <trkpt lat="43.43027" lon="6.08954">
        <ele>280.20001220703</ele>
        <time>2016-01-06T13:40:04Z</time>
      </trkpt>
      <trkpt lat="43.43027" lon="6.08954">
        <ele>280.20001220703</ele>
        <time>2016-01-06T13:40:06Z</time>
      </trkpt>
      <trkpt lat="43.43027" lon="6.08954">
        <ele>280.20001220703</ele>
        <time>2016-01-06T13:40:07Z</time>
      </trkpt>
      <trkpt lat="43.43027" lon="6.08954">
        <ele>280.20001220703</ele>
        <time>2016-01-06T13:40:08Z</time>
      </trkpt>
      <trkpt lat="43.43027" lon="6.08954">
        <ele>280.20001220703</ele>
        <time>2016-01-06T13:40:10Z</time>
      </trkpt>
      <trkpt lat="43.43027" lon="6.08954">
        <ele>280.20001220703</ele>
        <time>2016-01-06T13:40:12Z</time>
      </trkpt>
      <trkpt lat="43.43027" lon="6.08954">
        <ele>280.20001220703</ele>
        <time>2016-01-06T13:40:14Z</time>
      </trkpt>
      <trkpt lat="43.43027" lon="6.08954">
        <ele>280.20001220703</ele>
        <time>2016-01-06T13:40:16Z</time>
      </trkpt>
      <trkpt lat="43.43027" lon="6.08954">
        <ele>280.20001220703</ele>
        <time>2016-01-06T13:40:18Z</time>
      </trkpt>
      <trkpt lat="43.43027" lon="6.08954">
        <ele>280.20001220703</ele>
        <time>2016-01-06T13:40:20Z</time>
      </trkpt>
      <trkpt lat="43.43027" lon="6.08954">
        <ele>280.39999389648</ele>
        <time>2016-01-06T13:40:22Z</time>
      </trkpt>
      <trkpt lat="43.43027" lon="6.08954">
        <ele>280</ele>
        <time>2016-01-06T13:40:24Z</time>
      </trkpt>
      <trkpt lat="43.43027" lon="6.08954">
        <ele>280.20001220703</ele>
        <time>2016-01-06T13:40:26Z</time>
      </trkpt>
      <trkpt lat="43.43027" lon="6.08954">
        <ele>280.20001220703</ele>
        <time>2016-01-06T13:40:28Z</time>
      </trkpt>
      <trkpt lat="43.43027" lon="6.08954">
        <ele>280.20001220703</ele>
        <time>2016-01-06T13:40:30Z</time>
      </trkpt>
      <trkpt lat="43.43027" lon="6.08954">
        <ele>280.20001220703</ele>
        <time>2016-01-06T13:40:32Z</time>
      </trkpt>
      <trkpt lat="43.43027" lon="6.08954">
        <ele>280</ele>
        <time>2016-01-06T13:40:34Z</time>
      </trkpt>
      <trkpt lat="43.43027" lon="6.08954">
        <ele>280</ele>
        <time>2016-01-06T13:40:36Z</time>
      </trkpt>
      <trkpt lat="43.43027" lon="6.08954">
        <ele>280</ele>
        <time>2016-01-06T13:40:38Z</time>
      </trkpt>
      <trkpt lat="43.43027" lon="6.08954">
        <ele>279.79998779297</ele>
        <time>2016-01-06T13:40:40Z</time>
      </trkpt>
      <trkpt lat="43.43027" lon="6.08954">
        <ele>280</ele>
        <time>2016-01-06T13:40:42Z</time>
      </trkpt>
      <trkpt lat="43.43027" lon="6.08954">
        <ele>280</ele>
        <time>2016-01-06T13:40:44Z</time>
      </trkpt>
      <trkpt lat="43.43027" lon="6.08954">
        <ele>279.79998779297</ele>
        <time>2016-01-06T13:40:46Z</time>
      </trkpt>
      <trkpt lat="43.43027" lon="6.08954">
        <ele>279.79998779297</ele>
        <time>2016-01-06T13:40:48Z</time>
      </trkpt>
      <trkpt lat="43.43027" lon="6.08954">
        <ele>280</ele>
        <time>2016-01-06T13:40:50Z</time>
      </trkpt>
      <trkpt lat="43.43027" lon="6.08954">
        <ele>279.79998779297</ele>
        <time>2016-01-06T13:40:52Z</time>
      </trkpt>
      <trkpt lat="43.43027" lon="6.08954">
        <ele>279.79998779297</ele>
        <time>2016-01-06T13:40:54Z</time>
      </trkpt>
      <trkpt lat="43.43027" lon="6.08954">
        <ele>279.79998779297</ele>
        <time>2016-01-06T13:40:56Z</time>
      </trkpt>
      <trkpt lat="43.43027" lon="6.08954">
        <ele>279.79998779297</ele>
        <time>2016-01-06T13:40:58Z</time>
      </trkpt>
      <trkpt lat="43.43027" lon="6.08954">
        <ele>279.79998779297</ele>
        <time>2016-01-06T13:41:00Z</time>
      </trkpt>
      <trkpt lat="43.43027" lon="6.08954">
        <ele>280</ele>
        <time>2016-01-06T13:41:02Z</time>
      </trkpt>
      <trkpt lat="43.43027" lon="6.08954">
        <ele>280</ele>
        <time>2016-01-06T13:41:04Z</time>
      </trkpt>
      <trkpt lat="43.43027" lon="6.08953">
        <ele>280</ele>
        <time>2016-01-06T13:41:06Z</time>
      </trkpt>
      <trkpt lat="43.43027" lon="6.08953">
        <ele>280</ele>
        <time>2016-01-06T13:41:08Z</time>
      </trkpt>
      <trkpt lat="43.43027" lon="6.08953">
        <ele>280</ele>
        <time>2016-01-06T13:41:10Z</time>
      </trkpt>
      <trkpt lat="43.43027" lon="6.08953">
        <ele>280</ele>
        <time>2016-01-06T13:41:12Z</time>
      </trkpt>
      <trkpt lat="43.43027" lon="6.08953">
        <ele>280.20001220703</ele>
        <time>2016-01-06T13:41:14Z</time>
      </trkpt>
      <trkpt lat="43.43027" lon="6.08953">
        <ele>280</ele>
        <time>2016-01-06T13:41:16Z</time>
      </trkpt>
      <trkpt lat="43.43027" lon="6.08953">
        <ele>280</ele>
        <time>2016-01-06T13:41:18Z</time>
      </trkpt>
      <trkpt lat="43.43027" lon="6.08953">
        <ele>279.79998779297</ele>
        <time>2016-01-06T13:41:20Z</time>
      </trkpt>
      <trkpt lat="43.43027" lon="6.08953">
        <ele>280</ele>
        <time>2016-01-06T13:41:22Z</time>
      </trkpt>
      <trkpt lat="43.43027" lon="6.08953">
        <ele>280</ele>
        <time>2016-01-06T13:41:24Z</time>
      </trkpt>
      <trkpt lat="43.43027" lon="6.08953">
        <ele>280</ele>
        <time>2016-01-06T13:41:26Z</time>
      </trkpt>
      <trkpt lat="43.43027" lon="6.08953">
        <ele>280</ele>
        <time>2016-01-06T13:41:28Z</time>
      </trkpt>
      <trkpt lat="43.43027" lon="6.08953">
        <ele>280</ele>
        <time>2016-01-06T13:41:30Z</time>
      </trkpt>
      <trkpt lat="43.43027" lon="6.08953">
        <ele>280</ele>
        <time>2016-01-06T13:41:32Z</time>
      </trkpt>
      <trkpt lat="43.43027" lon="6.08953">
        <ele>280</ele>
        <time>2016-01-06T13:41:34Z</time>
      </trkpt>
      <trkpt lat="43.43027" lon="6.08953">
        <ele>279.79998779297</ele>
        <time>2016-01-06T13:41:36Z</time>
      </trkpt>
      <trkpt lat="43.43027" lon="6.08956">
        <ele>280</ele>
        <time>2016-01-06T13:41:38Z</time>
      </trkpt>
      <trkpt lat="43.43028" lon="6.08959">
        <ele>280.20001220703</ele>
        <time>2016-01-06T13:41:40Z</time>
      </trkpt>
      <trkpt lat="43.43028" lon="6.08961">
        <ele>280.20001220703</ele>
        <time>2016-01-06T13:41:41Z</time>
      </trkpt>
      <trkpt lat="43.43027" lon="6.08964">
        <ele>280</ele>
        <time>2016-01-06T13:41:42Z</time>
      </trkpt>
      <trkpt lat="43.43027" lon="6.08971">
        <ele>280</ele>
        <time>2016-01-06T13:41:44Z</time>
      </trkpt>
      <trkpt lat="43.43027" lon="6.08978">
        <ele>280.60000610352</ele>
        <time>2016-01-06T13:41:46Z</time>
      </trkpt>
      <trkpt lat="43.43027" lon="6.08982">
        <ele>280.79998779297</ele>
        <time>2016-01-06T13:41:47Z</time>
      </trkpt>
      <trkpt lat="43.43026" lon="6.08986">
        <ele>281.20001220703</ele>
        <time>2016-01-06T13:41:48Z</time>
      </trkpt>
      <trkpt lat="43.43026" lon="6.08994">
        <ele>281.39999389648</ele>
        <time>2016-01-06T13:41:50Z</time>
      </trkpt>
      <trkpt lat="43.43026" lon="6.09002">
        <ele>282</ele>
        <time>2016-01-06T13:41:52Z</time>
      </trkpt>
      <trkpt lat="43.43026" lon="6.0901">
        <ele>282</ele>
        <time>2016-01-06T13:41:54Z</time>
      </trkpt>
      <trkpt lat="43.43026" lon="6.09014">
        <ele>282.20001220703</ele>
        <time>2016-01-06T13:41:55Z</time>
      </trkpt>
      <trkpt lat="43.43026" lon="6.09018">
        <ele>282.39999389648</ele>
        <time>2016-01-06T13:41:56Z</time>
      </trkpt>
      <trkpt lat="43.43024" lon="6.09026">
        <ele>283</ele>
        <time>2016-01-06T13:41:58Z</time>
      </trkpt>
      <trkpt lat="43.43023" lon="6.09033">
        <ele>283</ele>
        <time>2016-01-06T13:42:00Z</time>
      </trkpt>
      <trkpt lat="43.4302" lon="6.09039">
        <ele>283</ele>
        <time>2016-01-06T13:42:02Z</time>
      </trkpt>
      <trkpt lat="43.43016" lon="6.09044">
        <ele>283.20001220703</ele>
        <time>2016-01-06T13:42:04Z</time>
      </trkpt>
      <trkpt lat="43.43015" lon="6.09046">
        <ele>283.39999389648</ele>
        <time>2016-01-06T13:42:05Z</time>
      </trkpt>
      <trkpt lat="43.43014" lon="6.09048">
        <ele>283.60000610352</ele>
        <time>2016-01-06T13:42:06Z</time>
      </trkpt>
      <trkpt lat="43.43012" lon="6.09049">
        <ele>283.60000610352</ele>
        <time>2016-01-06T13:42:07Z</time>
      </trkpt>
      <trkpt lat="43.43011" lon="6.0905">
        <ele>283.60000610352</ele>
        <time>2016-01-06T13:42:08Z</time>
      </trkpt>
      <trkpt lat="43.43009" lon="6.09051">
        <ele>283.60000610352</ele>
        <time>2016-01-06T13:42:09Z</time>
      </trkpt>
      <trkpt lat="43.43007" lon="6.09053">
        <ele>283.60000610352</ele>
        <time>2016-01-06T13:42:10Z</time>
      </trkpt>
      <trkpt lat="43.43003" lon="6.09054">
        <ele>283.60000610352</ele>
        <time>2016-01-06T13:42:12Z</time>
      </trkpt>
      <trkpt lat="43.43001" lon="6.09057">
        <ele>284</ele>
        <time>2016-01-06T13:42:14Z</time>
      </trkpt>
      <trkpt lat="43.43" lon="6.09058">
        <ele>284.20001220703</ele>
        <time>2016-01-06T13:42:15Z</time>
      </trkpt>
      <trkpt lat="43.42999" lon="6.09059">
        <ele>284.20001220703</ele>
        <time>2016-01-06T13:42:16Z</time>
      </trkpt>
      <trkpt lat="43.42996" lon="6.09061">
        <ele>284.39999389648</ele>
        <time>2016-01-06T13:42:18Z</time>
      </trkpt>
      <trkpt lat="43.42995" lon="6.09063">
        <ele>284.39999389648</ele>
        <time>2016-01-06T13:42:19Z</time>
      </trkpt>
      <trkpt lat="43.42994" lon="6.09065">
        <ele>284.60000610352</ele>
        <time>2016-01-06T13:42:20Z</time>
      </trkpt>
      <trkpt lat="43.42993" lon="6.09066">
        <ele>284.79998779297</ele>
        <time>2016-01-06T13:42:21Z</time>
      </trkpt>
      <trkpt lat="43.42992" lon="6.09067">
        <ele>284.79998779297</ele>
        <time>2016-01-06T13:42:22Z</time>
      </trkpt>
      <trkpt lat="43.42989" lon="6.0907">
        <ele>285</ele>
        <time>2016-01-06T13:42:24Z</time>
      </trkpt>
      <trkpt lat="43.42986" lon="6.09073">
        <ele>285.20001220703</ele>
        <time>2016-01-06T13:42:26Z</time>
      </trkpt>
      <trkpt lat="43.42984" lon="6.09074">
        <ele>285.20001220703</ele>
        <time>2016-01-06T13:42:27Z</time>
      </trkpt>
      <trkpt lat="43.42981" lon="6.09076">
        <ele>285</ele>
        <time>2016-01-06T13:42:28Z</time>
      </trkpt>
      <trkpt lat="43.42975" lon="6.09079">
        <ele>284.20001220703</ele>
        <time>2016-01-06T13:42:30Z</time>
      </trkpt>
      <trkpt lat="43.42968" lon="6.09081">
        <ele>283.79998779297</ele>
        <time>2016-01-06T13:42:32Z</time>
      </trkpt>
      <trkpt lat="43.42965" lon="6.09084">
        <ele>282.20001220703</ele>
        <time>2016-01-06T13:42:33Z</time>
      </trkpt>
      <trkpt lat="43.42962" lon="6.09087">
        <ele>281</ele>
        <time>2016-01-06T13:42:34Z</time>
      </trkpt>
      <trkpt lat="43.42958" lon="6.09091">
        <ele>280.39999389648</ele>
        <time>2016-01-06T13:42:35Z</time>
      </trkpt>
      <trkpt lat="43.42954" lon="6.09096">
        <ele>280.20001220703</ele>
        <time>2016-01-06T13:42:36Z</time>
      </trkpt>
      <trkpt lat="43.4295" lon="6.09102">
        <ele>279.39999389648</ele>
        <time>2016-01-06T13:42:37Z</time>
      </trkpt>
      <trkpt lat="43.42946" lon="6.09109">
        <ele>278.20001220703</ele>
        <time>2016-01-06T13:42:38Z</time>
      </trkpt>
      <trkpt lat="43.42942" lon="6.09126">
        <ele>277.39999389648</ele>
        <time>2016-01-06T13:42:40Z</time>
      </trkpt>
      <trkpt lat="43.42942" lon="6.09134">
        <ele>276.39999389648</ele>
        <time>2016-01-06T13:42:41Z</time>
      </trkpt>
      <trkpt lat="43.42941" lon="6.09143">
        <ele>276</ele>
        <time>2016-01-06T13:42:42Z</time>
      </trkpt>
      <trkpt lat="43.42941" lon="6.09162">
        <ele>274.79998779297</ele>
        <time>2016-01-06T13:42:44Z</time>
      </trkpt>
      <trkpt lat="43.42941" lon="6.09169">
        <ele>273.60000610352</ele>
        <time>2016-01-06T13:42:45Z</time>
      </trkpt>
      <trkpt lat="43.4294" lon="6.09176">
        <ele>272.79998779297</ele>
        <time>2016-01-06T13:42:46Z</time>
      </trkpt>
      <trkpt lat="43.42934" lon="6.09186">
        <ele>272.20001220703</ele>
        <time>2016-01-06T13:42:48Z</time>
      </trkpt>
      <trkpt lat="43.42929" lon="6.0919">
        <ele>271.60000610352</ele>
        <time>2016-01-06T13:42:49Z</time>
      </trkpt>
      <trkpt lat="43.42925" lon="6.09194">
        <ele>271.20001220703</ele>
        <time>2016-01-06T13:42:50Z</time>
      </trkpt>
      <trkpt lat="43.42921" lon="6.09198">
        <ele>270.79998779297</ele>
        <time>2016-01-06T13:42:51Z</time>
      </trkpt>
      <trkpt lat="43.42916" lon="6.09202">
        <ele>270.60000610352</ele>
        <time>2016-01-06T13:42:52Z</time>
      </trkpt>
      <trkpt lat="43.42914" lon="6.09207">
        <ele>271</ele>
        <time>2016-01-06T13:42:53Z</time>
      </trkpt>
      <trkpt lat="43.42911" lon="6.09213">
        <ele>271</ele>
        <time>2016-01-06T13:42:54Z</time>
      </trkpt>
      <trkpt lat="43.42909" lon="6.09219">
        <ele>270.79998779297</ele>
        <time>2016-01-06T13:42:55Z</time>
      </trkpt>
      <trkpt lat="43.42908" lon="6.09226">
        <ele>270.79998779297</ele>
        <time>2016-01-06T13:42:56Z</time>
      </trkpt>
      <trkpt lat="43.42908" lon="6.09239">
        <ele>270.39999389648</ele>
        <time>2016-01-06T13:42:58Z</time>
      </trkpt>
      <trkpt lat="43.42909" lon="6.09245">
        <ele>270.39999389648</ele>
        <time>2016-01-06T13:42:59Z</time>
      </trkpt>
      <trkpt lat="43.4291" lon="6.09253">
        <ele>269.79998779297</ele>
        <time>2016-01-06T13:43:00Z</time>
      </trkpt>
      <trkpt lat="43.4291" lon="6.09262">
        <ele>268.60000610352</ele>
        <time>2016-01-06T13:43:01Z</time>
      </trkpt>
      <trkpt lat="43.42912" lon="6.0927">
        <ele>267.79998779297</ele>
        <time>2016-01-06T13:43:02Z</time>
      </trkpt>
      <trkpt lat="43.42913" lon="6.09278">
        <ele>268.39999389648</ele>
        <time>2016-01-06T13:43:03Z</time>
      </trkpt>
      <trkpt lat="43.42914" lon="6.09288">
        <ele>269</ele>
        <time>2016-01-06T13:43:04Z</time>
      </trkpt>
      <trkpt lat="43.42913" lon="6.09306">
        <ele>268</ele>
        <time>2016-01-06T13:43:06Z</time>
      </trkpt>
      <trkpt lat="43.42912" lon="6.09314">
        <ele>267</ele>
        <time>2016-01-06T13:43:07Z</time>
      </trkpt>
      <trkpt lat="43.42911" lon="6.09323">
        <ele>267</ele>
        <time>2016-01-06T13:43:08Z</time>
      </trkpt>
      <trkpt lat="43.42909" lon="6.09338">
        <ele>266.79998779297</ele>
        <time>2016-01-06T13:43:10Z</time>
      </trkpt>
      <trkpt lat="43.42908" lon="6.09345">
        <ele>266.60000610352</ele>
        <time>2016-01-06T13:43:11Z</time>
      </trkpt>
      <trkpt lat="43.42907" lon="6.09351">
        <ele>266.39999389648</ele>
        <time>2016-01-06T13:43:12Z</time>
      </trkpt>
      <trkpt lat="43.42907" lon="6.09358">
        <ele>266.60000610352</ele>
        <time>2016-01-06T13:43:13Z</time>
      </trkpt>
      <trkpt lat="43.42907" lon="6.09365">
        <ele>266.39999389648</ele>
        <time>2016-01-06T13:43:14Z</time>
      </trkpt>
      <trkpt lat="43.42905" lon="6.09381">
        <ele>266.39999389648</ele>
        <time>2016-01-06T13:43:16Z</time>
      </trkpt>
      <trkpt lat="43.42904" lon="6.09386">
        <ele>265.79998779297</ele>
        <time>2016-01-06T13:43:17Z</time>
      </trkpt>
      <trkpt lat="43.42903" lon="6.0939">
        <ele>265.60000610352</ele>
        <time>2016-01-06T13:43:18Z</time>
      </trkpt>
      <trkpt lat="43.42903" lon="6.09392">
        <ele>265.39999389648</ele>
        <time>2016-01-06T13:43:19Z</time>
      </trkpt>
      <trkpt lat="43.42903" lon="6.09394">
        <ele>265.39999389648</ele>
        <time>2016-01-06T13:43:20Z</time>
      </trkpt>
      <trkpt lat="43.42901" lon="6.09397">
        <ele>265</ele>
        <time>2016-01-06T13:43:22Z</time>
      </trkpt>
      <trkpt lat="43.42901" lon="6.09399">
        <ele>265</ele>
        <time>2016-01-06T13:43:24Z</time>
      </trkpt>
      <trkpt lat="43.42901" lon="6.09399">
        <ele>265</ele>
        <time>2016-01-06T13:43:25Z</time>
      </trkpt>
      <trkpt lat="43.42901" lon="6.094">
        <ele>265</ele>
        <time>2016-01-06T13:43:26Z</time>
      </trkpt>
      <trkpt lat="43.42901" lon="6.094">
        <ele>265.20001220703</ele>
        <time>2016-01-06T13:43:28Z</time>
      </trkpt>
      <trkpt lat="43.42901" lon="6.094">
        <ele>265.39999389648</ele>
        <time>2016-01-06T13:43:30Z</time>
      </trkpt>
      <trkpt lat="43.42901" lon="6.094">
        <ele>265.20001220703</ele>
        <time>2016-01-06T13:43:32Z</time>
      </trkpt>
      <trkpt lat="43.42901" lon="6.094">
        <ele>265.20001220703</ele>
        <time>2016-01-06T13:43:34Z</time>
      </trkpt>
      <trkpt lat="43.429" lon="6.094">
        <ele>265</ele>
        <time>2016-01-06T13:43:36Z</time>
      </trkpt>
      <trkpt lat="43.429" lon="6.09401">
        <ele>265</ele>
        <time>2016-01-06T13:43:38Z</time>
      </trkpt>
      <trkpt lat="43.429" lon="6.09401">
        <ele>265.20001220703</ele>
        <time>2016-01-06T13:43:40Z</time>
      </trkpt>
      <trkpt lat="43.42901" lon="6.09401">
        <ele>265.39999389648</ele>
        <time>2016-01-06T13:43:42Z</time>
      </trkpt>
      <trkpt lat="43.42901" lon="6.09401">
        <ele>265.39999389648</ele>
        <time>2016-01-06T13:43:44Z</time>
      </trkpt>
      <trkpt lat="43.42901" lon="6.09401">
        <ele>265.60000610352</ele>
        <time>2016-01-06T13:43:46Z</time>
      </trkpt>
      <trkpt lat="43.42901" lon="6.09401">
        <ele>265.39999389648</ele>
        <time>2016-01-06T13:43:48Z</time>
      </trkpt>
      <trkpt lat="43.42901" lon="6.09401">
        <ele>265.39999389648</ele>
        <time>2016-01-06T13:43:50Z</time>
      </trkpt>
      <trkpt lat="43.42901" lon="6.09401">
        <ele>265.39999389648</ele>
        <time>2016-01-06T13:43:52Z</time>
      </trkpt>
      <trkpt lat="43.42901" lon="6.09401">
        <ele>265.39999389648</ele>
        <time>2016-01-06T13:43:54Z</time>
      </trkpt>
      <trkpt lat="43.429" lon="6.09401">
        <ele>265.60000610352</ele>
        <time>2016-01-06T13:43:56Z</time>
      </trkpt>
      <trkpt lat="43.42901" lon="6.09401">
        <ele>265.60000610352</ele>
        <time>2016-01-06T13:43:58Z</time>
      </trkpt>
      <trkpt lat="43.42901" lon="6.09401">
        <ele>265.60000610352</ele>
        <time>2016-01-06T13:44:00Z</time>
      </trkpt>
      <trkpt lat="43.42901" lon="6.09401">
        <ele>265.60000610352</ele>
        <time>2016-01-06T13:44:02Z</time>
      </trkpt>
      <trkpt lat="43.42901" lon="6.09401">
        <ele>265.60000610352</ele>
        <time>2016-01-06T13:44:04Z</time>
      </trkpt>
      <trkpt lat="43.42901" lon="6.09401">
        <ele>265.60000610352</ele>
        <time>2016-01-06T13:44:06Z</time>
      </trkpt>
      <trkpt lat="43.42901" lon="6.09401">
        <ele>265.60000610352</ele>
        <time>2016-01-06T13:44:08Z</time>
      </trkpt>
      <trkpt lat="43.42901" lon="6.09401">
        <ele>265.20001220703</ele>
        <time>2016-01-06T13:44:10Z</time>
      </trkpt>
      <trkpt lat="43.42901" lon="6.09401">
        <ele>265.20001220703</ele>
        <time>2016-01-06T13:44:12Z</time>
      </trkpt>
      <trkpt lat="43.42901" lon="6.09401">
        <ele>265.20001220703</ele>
        <time>2016-01-06T13:44:14Z</time>
      </trkpt>
      <trkpt lat="43.42901" lon="6.09401">
        <ele>265</ele>
        <time>2016-01-06T13:44:16Z</time>
      </trkpt>
      <trkpt lat="43.42901" lon="6.09401">
        <ele>265.20001220703</ele>
        <time>2016-01-06T13:44:18Z</time>
      </trkpt>
      <trkpt lat="43.42901" lon="6.09401">
        <ele>265.39999389648</ele>
        <time>2016-01-06T13:44:20Z</time>
      </trkpt>
      <trkpt lat="43.42901" lon="6.09401">
        <ele>265.39999389648</ele>
        <time>2016-01-06T13:44:22Z</time>
      </trkpt>
      <trkpt lat="43.42901" lon="6.09401">
        <ele>265.39999389648</ele>
        <time>2016-01-06T13:44:24Z</time>
      </trkpt>
      <trkpt lat="43.42901" lon="6.09401">
        <ele>265.60000610352</ele>
        <time>2016-01-06T13:44:26Z</time>
      </trkpt>
      <trkpt lat="43.42901" lon="6.09401">
        <ele>265.39999389648</ele>
        <time>2016-01-06T13:44:28Z</time>
      </trkpt>
      <trkpt lat="43.42901" lon="6.09401">
        <ele>265.60000610352</ele>
        <time>2016-01-06T13:44:30Z</time>
      </trkpt>
      <trkpt lat="43.42901" lon="6.09401">
        <ele>265.79998779297</ele>
        <time>2016-01-06T13:44:32Z</time>
      </trkpt>
      <trkpt lat="43.42901" lon="6.09401">
        <ele>265.60000610352</ele>
        <time>2016-01-06T13:44:34Z</time>
      </trkpt>
      <trkpt lat="43.42901" lon="6.09401">
        <ele>265.60000610352</ele>
        <time>2016-01-06T13:44:36Z</time>
      </trkpt>
      <trkpt lat="43.42901" lon="6.09401">
        <ele>265.60000610352</ele>
        <time>2016-01-06T13:44:38Z</time>
      </trkpt>
      <trkpt lat="43.42901" lon="6.09401">
        <ele>265.60000610352</ele>
        <time>2016-01-06T13:44:40Z</time>
      </trkpt>
      <trkpt lat="43.42901" lon="6.09401">
        <ele>265.60000610352</ele>
        <time>2016-01-06T13:44:42Z</time>
      </trkpt>
      <trkpt lat="43.42901" lon="6.09401">
        <ele>265.60000610352</ele>
        <time>2016-01-06T13:44:44Z</time>
      </trkpt>
      <trkpt lat="43.42901" lon="6.09401">
        <ele>265.79998779297</ele>
        <time>2016-01-06T13:44:46Z</time>
      </trkpt>
      <trkpt lat="43.42901" lon="6.09401">
        <ele>265.60000610352</ele>
        <time>2016-01-06T13:44:48Z</time>
      </trkpt>
      <trkpt lat="43.42901" lon="6.09401">
        <ele>265.60000610352</ele>
        <time>2016-01-06T13:44:50Z</time>
      </trkpt>
      <trkpt lat="43.42901" lon="6.09401">
        <ele>265.79998779297</ele>
        <time>2016-01-06T13:44:52Z</time>
      </trkpt>
      <trkpt lat="43.42901" lon="6.09401">
        <ele>265.60000610352</ele>
        <time>2016-01-06T13:44:54Z</time>
      </trkpt>
      <trkpt lat="43.42901" lon="6.09401">
        <ele>265.60000610352</ele>
        <time>2016-01-06T13:44:56Z</time>
      </trkpt>
      <trkpt lat="43.42901" lon="6.09401">
        <ele>265.39999389648</ele>
        <time>2016-01-06T13:44:58Z</time>
      </trkpt>
      <trkpt lat="43.42901" lon="6.09401">
        <ele>265.60000610352</ele>
        <time>2016-01-06T13:45:00Z</time>
      </trkpt>
      <trkpt lat="43.42901" lon="6.09401">
        <ele>265.39999389648</ele>
        <time>2016-01-06T13:45:02Z</time>
      </trkpt>
      <trkpt lat="43.42901" lon="6.09401">
        <ele>265.60000610352</ele>
        <time>2016-01-06T13:45:04Z</time>
      </trkpt>
      <trkpt lat="43.42901" lon="6.09401">
        <ele>265.60000610352</ele>
        <time>2016-01-06T13:45:06Z</time>
      </trkpt>
      <trkpt lat="43.42901" lon="6.09401">
        <ele>265.20001220703</ele>
        <time>2016-01-06T13:45:08Z</time>
      </trkpt>
      <trkpt lat="43.42901" lon="6.09401">
        <ele>265</ele>
        <time>2016-01-06T13:45:10Z</time>
      </trkpt>
      <trkpt lat="43.42901" lon="6.09401">
        <ele>265.20001220703</ele>
        <time>2016-01-06T13:45:12Z</time>
      </trkpt>
      <trkpt lat="43.42901" lon="6.09401">
        <ele>264.79998779297</ele>
        <time>2016-01-06T13:45:14Z</time>
      </trkpt>
      <trkpt lat="43.42901" lon="6.09401">
        <ele>264.79998779297</ele>
        <time>2016-01-06T13:45:16Z</time>
      </trkpt>
      <trkpt lat="43.42901" lon="6.09401">
        <ele>264.79998779297</ele>
        <time>2016-01-06T13:45:18Z</time>
      </trkpt>
      <trkpt lat="43.42901" lon="6.09401">
        <ele>264.79998779297</ele>
        <time>2016-01-06T13:45:20Z</time>
      </trkpt>
      <trkpt lat="43.42901" lon="6.09401">
        <ele>265</ele>
        <time>2016-01-06T13:45:22Z</time>
      </trkpt>
      <trkpt lat="43.42901" lon="6.09401">
        <ele>264.79998779297</ele>
        <time>2016-01-06T13:45:24Z</time>
      </trkpt>
      <trkpt lat="43.42901" lon="6.09401">
        <ele>265</ele>
        <time>2016-01-06T13:45:26Z</time>
      </trkpt>
      <trkpt lat="43.42901" lon="6.09401">
        <ele>265</ele>
        <time>2016-01-06T13:45:28Z</time>
      </trkpt>
      <trkpt lat="43.42901" lon="6.09401">
        <ele>265</ele>
        <time>2016-01-06T13:45:30Z</time>
      </trkpt>
      <trkpt lat="43.42901" lon="6.09401">
        <ele>265</ele>
        <time>2016-01-06T13:45:32Z</time>
      </trkpt>
      <trkpt lat="43.42901" lon="6.09401">
        <ele>264.79998779297</ele>
        <time>2016-01-06T13:45:34Z</time>
      </trkpt>
      <trkpt lat="43.42901" lon="6.09401">
        <ele>265</ele>
        <time>2016-01-06T13:45:36Z</time>
      </trkpt>
      <trkpt lat="43.42901" lon="6.09401">
        <ele>265</ele>
        <time>2016-01-06T13:45:38Z</time>
      </trkpt>
      <trkpt lat="43.42901" lon="6.09401">
        <ele>264.79998779297</ele>
        <time>2016-01-06T13:45:40Z</time>
      </trkpt>
      <trkpt lat="43.42901" lon="6.09401">
        <ele>265</ele>
        <time>2016-01-06T13:45:42Z</time>
      </trkpt>
      <trkpt lat="43.42901" lon="6.09401">
        <ele>265.20001220703</ele>
        <time>2016-01-06T13:45:44Z</time>
      </trkpt>
      <trkpt lat="43.42901" lon="6.09401">
        <ele>265.20001220703</ele>
        <time>2016-01-06T13:45:46Z</time>
      </trkpt>
      <trkpt lat="43.42901" lon="6.09401">
        <ele>265.39999389648</ele>
        <time>2016-01-06T13:45:48Z</time>
      </trkpt>
      <trkpt lat="43.42901" lon="6.09401">
        <ele>265.39999389648</ele>
        <time>2016-01-06T13:45:50Z</time>
      </trkpt>
      <trkpt lat="43.42901" lon="6.09401">
        <ele>265.60000610352</ele>
        <time>2016-01-06T13:45:52Z</time>
      </trkpt>
      <trkpt lat="43.42901" lon="6.09401">
        <ele>265.39999389648</ele>
        <time>2016-01-06T13:45:54Z</time>
      </trkpt>
      <trkpt lat="43.42901" lon="6.09401">
        <ele>265.39999389648</ele>
        <time>2016-01-06T13:45:56Z</time>
      </trkpt>
      <trkpt lat="43.42901" lon="6.09401">
        <ele>265.60000610352</ele>
        <time>2016-01-06T13:45:58Z</time>
      </trkpt>
      <trkpt lat="43.429" lon="6.09401">
        <ele>265.60000610352</ele>
        <time>2016-01-06T13:46:00Z</time>
      </trkpt>
      <trkpt lat="43.42901" lon="6.09401">
        <ele>265.39999389648</ele>
        <time>2016-01-06T13:46:02Z</time>
      </trkpt>
      <trkpt lat="43.42901" lon="6.09401">
        <ele>265.60000610352</ele>
        <time>2016-01-06T13:46:04Z</time>
      </trkpt>
      <trkpt lat="43.42901" lon="6.09401">
        <ele>265.60000610352</ele>
        <time>2016-01-06T13:46:06Z</time>
      </trkpt>
      <trkpt lat="43.42901" lon="6.09401">
        <ele>265.39999389648</ele>
        <time>2016-01-06T13:46:08Z</time>
      </trkpt>
      <trkpt lat="43.42901" lon="6.09401">
        <ele>265.39999389648</ele>
        <time>2016-01-06T13:46:10Z</time>
      </trkpt>
      <trkpt lat="43.42901" lon="6.09401">
        <ele>265.39999389648</ele>
        <time>2016-01-06T13:46:12Z</time>
      </trkpt>
      <trkpt lat="43.429" lon="6.09401">
        <ele>265.60000610352</ele>
        <time>2016-01-06T13:46:14Z</time>
      </trkpt>
      <trkpt lat="43.42901" lon="6.09401">
        <ele>265.60000610352</ele>
        <time>2016-01-06T13:46:16Z</time>
      </trkpt>
      <trkpt lat="43.42901" lon="6.09401">
        <ele>265.39999389648</ele>
        <time>2016-01-06T13:46:18Z</time>
      </trkpt>
      <trkpt lat="43.42901" lon="6.09401">
        <ele>265.60000610352</ele>
        <time>2016-01-06T13:46:20Z</time>
      </trkpt>
      <trkpt lat="43.42901" lon="6.09401">
        <ele>265.60000610352</ele>
        <time>2016-01-06T13:46:22Z</time>
      </trkpt>
      <trkpt lat="43.42901" lon="6.09401">
        <ele>265.60000610352</ele>
        <time>2016-01-06T13:46:24Z</time>
      </trkpt>
      <trkpt lat="43.42901" lon="6.09401">
        <ele>265.60000610352</ele>
        <time>2016-01-06T13:46:26Z</time>
      </trkpt>
      <trkpt lat="43.42901" lon="6.09401">
        <ele>265.60000610352</ele>
        <time>2016-01-06T13:46:28Z</time>
      </trkpt>
      <trkpt lat="43.42901" lon="6.09401">
        <ele>265.60000610352</ele>
        <time>2016-01-06T13:46:30Z</time>
      </trkpt>
      <trkpt lat="43.42901" lon="6.09401">
        <ele>265.39999389648</ele>
        <time>2016-01-06T13:46:32Z</time>
      </trkpt>
      <trkpt lat="43.42901" lon="6.09401">
        <ele>265.60000610352</ele>
        <time>2016-01-06T13:46:34Z</time>
      </trkpt>
      <trkpt lat="43.42901" lon="6.09401">
        <ele>265.60000610352</ele>
        <time>2016-01-06T13:46:36Z</time>
      </trkpt>
      <trkpt lat="43.42901" lon="6.09401">
        <ele>265.39999389648</ele>
        <time>2016-01-06T13:46:38Z</time>
      </trkpt>
      <trkpt lat="43.42901" lon="6.09401">
        <ele>265.20001220703</ele>
        <time>2016-01-06T13:46:40Z</time>
      </trkpt>
      <trkpt lat="43.42901" lon="6.09401">
        <ele>265.39999389648</ele>
        <time>2016-01-06T13:46:42Z</time>
      </trkpt>
      <trkpt lat="43.42901" lon="6.09401">
        <ele>265.39999389648</ele>
        <time>2016-01-06T13:46:44Z</time>
      </trkpt>
      <trkpt lat="43.42901" lon="6.09401">
        <ele>265.20001220703</ele>
        <time>2016-01-06T13:46:46Z</time>
      </trkpt>
      <trkpt lat="43.429" lon="6.09401">
        <ele>265</ele>
        <time>2016-01-06T13:46:48Z</time>
      </trkpt>
      <trkpt lat="43.42901" lon="6.09401">
        <ele>265.20001220703</ele>
        <time>2016-01-06T13:46:50Z</time>
      </trkpt>
      <trkpt lat="43.42901" lon="6.09401">
        <ele>265.39999389648</ele>
        <time>2016-01-06T13:46:52Z</time>
      </trkpt>
      <trkpt lat="43.42901" lon="6.09401">
        <ele>265.39999389648</ele>
        <time>2016-01-06T13:46:54Z</time>
      </trkpt>
      <trkpt lat="43.42901" lon="6.09401">
        <ele>265.20001220703</ele>
        <time>2016-01-06T13:46:56Z</time>
      </trkpt>
      <trkpt lat="43.42901" lon="6.09401">
        <ele>265.20001220703</ele>
        <time>2016-01-06T13:46:58Z</time>
      </trkpt>
      <trkpt lat="43.42901" lon="6.09401">
        <ele>265.39999389648</ele>
        <time>2016-01-06T13:47:00Z</time>
      </trkpt>
      <trkpt lat="43.42901" lon="6.09401">
        <ele>265.20001220703</ele>
        <time>2016-01-06T13:47:02Z</time>
      </trkpt>
      <trkpt lat="43.42901" lon="6.09401">
        <ele>265.39999389648</ele>
        <time>2016-01-06T13:47:04Z</time>
      </trkpt>
      <trkpt lat="43.42901" lon="6.09401">
        <ele>265.39999389648</ele>
        <time>2016-01-06T13:47:06Z</time>
      </trkpt>
      <trkpt lat="43.42901" lon="6.09401">
        <ele>265.39999389648</ele>
        <time>2016-01-06T13:47:08Z</time>
      </trkpt>
      <trkpt lat="43.42901" lon="6.09401">
        <ele>265.39999389648</ele>
        <time>2016-01-06T13:47:10Z</time>
      </trkpt>
      <trkpt lat="43.42901" lon="6.09401">
        <ele>265.39999389648</ele>
        <time>2016-01-06T13:47:12Z</time>
      </trkpt>
      <trkpt lat="43.42901" lon="6.09401">
        <ele>265.39999389648</ele>
        <time>2016-01-06T13:47:14Z</time>
      </trkpt>
      <trkpt lat="43.42901" lon="6.09401">
        <ele>265.60000610352</ele>
        <time>2016-01-06T13:47:16Z</time>
      </trkpt>
      <trkpt lat="43.42901" lon="6.09401">
        <ele>265.60000610352</ele>
        <time>2016-01-06T13:47:18Z</time>
      </trkpt>
      <trkpt lat="43.42901" lon="6.09401">
        <ele>265.39999389648</ele>
        <time>2016-01-06T13:47:20Z</time>
      </trkpt>
      <trkpt lat="43.42901" lon="6.09401">
        <ele>265.60000610352</ele>
        <time>2016-01-06T13:47:22Z</time>
      </trkpt>
      <trkpt lat="43.42901" lon="6.09401">
        <ele>265.39999389648</ele>
        <time>2016-01-06T13:47:24Z</time>
      </trkpt>
      <trkpt lat="43.42901" lon="6.09401">
        <ele>265.39999389648</ele>
        <time>2016-01-06T13:47:26Z</time>
      </trkpt>
      <trkpt lat="43.42901" lon="6.09401">
        <ele>265.39999389648</ele>
        <time>2016-01-06T13:47:28Z</time>
      </trkpt>
      <trkpt lat="43.42901" lon="6.09401">
        <ele>265.39999389648</ele>
        <time>2016-01-06T13:47:30Z</time>
      </trkpt>
      <trkpt lat="43.42901" lon="6.09401">
        <ele>265.39999389648</ele>
        <time>2016-01-06T13:47:32Z</time>
      </trkpt>
      <trkpt lat="43.429" lon="6.09401">
        <ele>265.39999389648</ele>
        <time>2016-01-06T13:47:34Z</time>
      </trkpt>
      <trkpt lat="43.42901" lon="6.09401">
        <ele>265.39999389648</ele>
        <time>2016-01-06T13:47:36Z</time>
      </trkpt>
      <trkpt lat="43.42901" lon="6.09401">
        <ele>265.39999389648</ele>
        <time>2016-01-06T13:47:38Z</time>
      </trkpt>
      <trkpt lat="43.42901" lon="6.09401">
        <ele>265.39999389648</ele>
        <time>2016-01-06T13:47:40Z</time>
      </trkpt>
      <trkpt lat="43.42901" lon="6.09401">
        <ele>265.39999389648</ele>
        <time>2016-01-06T13:47:42Z</time>
      </trkpt>
      <trkpt lat="43.42901" lon="6.09401">
        <ele>265.20001220703</ele>
        <time>2016-01-06T13:47:44Z</time>
      </trkpt>
      <trkpt lat="43.429" lon="6.09401">
        <ele>265.20001220703</ele>
        <time>2016-01-06T13:47:46Z</time>
      </trkpt>
      <trkpt lat="43.42901" lon="6.09401">
        <ele>265.20001220703</ele>
        <time>2016-01-06T13:47:48Z</time>
      </trkpt>
      <trkpt lat="43.42901" lon="6.09402">
        <ele>265.20001220703</ele>
        <time>2016-01-06T13:47:50Z</time>
      </trkpt>
      <trkpt lat="43.429" lon="6.09404">
        <ele>265.39999389648</ele>
        <time>2016-01-06T13:47:52Z</time>
      </trkpt>
      <trkpt lat="43.42899" lon="6.09406">
        <ele>265.60000610352</ele>
        <time>2016-01-06T13:47:53Z</time>
      </trkpt>
      <trkpt lat="43.42899" lon="6.0941">
        <ele>265.60000610352</ele>
        <time>2016-01-06T13:47:54Z</time>
      </trkpt>
      <trkpt lat="43.42897" lon="6.0942">
        <ele>265.60000610352</ele>
        <time>2016-01-06T13:47:56Z</time>
      </trkpt>
      <trkpt lat="43.42896" lon="6.09425">
        <ele>265.60000610352</ele>
        <time>2016-01-06T13:47:57Z</time>
      </trkpt>
      <trkpt lat="43.42894" lon="6.09432">
        <ele>265.60000610352</ele>
        <time>2016-01-06T13:47:58Z</time>
      </trkpt>
      <trkpt lat="43.42894" lon="6.09438">
        <ele>265.79998779297</ele>
        <time>2016-01-06T13:47:59Z</time>
      </trkpt>
      <trkpt lat="43.42894" lon="6.09444">
        <ele>266.20001220703</ele>
        <time>2016-01-06T13:48:00Z</time>
      </trkpt>
      <trkpt lat="43.42894" lon="6.0945">
        <ele>266.20001220703</ele>
        <time>2016-01-06T13:48:01Z</time>
      </trkpt>
      <trkpt lat="43.42896" lon="6.09455">
        <ele>265.79998779297</ele>
        <time>2016-01-06T13:48:02Z</time>
      </trkpt>
      <trkpt lat="43.429" lon="6.09465">
        <ele>264.39999389648</ele>
        <time>2016-01-06T13:48:04Z</time>
      </trkpt>
      <trkpt lat="43.42901" lon="6.0947">
        <ele>264</ele>
        <time>2016-01-06T13:48:05Z</time>
      </trkpt>
      <trkpt lat="43.42902" lon="6.09475">
        <ele>264</ele>
        <time>2016-01-06T13:48:06Z</time>
      </trkpt>
      <trkpt lat="43.42904" lon="6.09485">
        <ele>263</ele>
        <time>2016-01-06T13:48:08Z</time>
      </trkpt>
      <trkpt lat="43.42903" lon="6.09495">
        <ele>262.79998779297</ele>
        <time>2016-01-06T13:48:10Z</time>
      </trkpt>
      <trkpt lat="43.42901" lon="6.09504">
        <ele>262.39999389648</ele>
        <time>2016-01-06T13:48:12Z</time>
      </trkpt>
      <trkpt lat="43.42899" lon="6.09509">
        <ele>262.60000610352</ele>
        <time>2016-01-06T13:48:13Z</time>
      </trkpt>
      <trkpt lat="43.42898" lon="6.09514">
        <ele>262.60000610352</ele>
        <time>2016-01-06T13:48:14Z</time>
      </trkpt>
      <trkpt lat="43.42895" lon="6.09523">
        <ele>262.20001220703</ele>
        <time>2016-01-06T13:48:16Z</time>
      </trkpt>
      <trkpt lat="43.42894" lon="6.09532">
        <ele>263</ele>
        <time>2016-01-06T13:48:18Z</time>
      </trkpt>
      <trkpt lat="43.42894" lon="6.09537">
        <ele>263</ele>
        <time>2016-01-06T13:48:19Z</time>
      </trkpt>
      <trkpt lat="43.42894" lon="6.09541">
        <ele>262.79998779297</ele>
        <time>2016-01-06T13:48:20Z</time>
      </trkpt>
      <trkpt lat="43.42896" lon="6.09552">
        <ele>261.60000610352</ele>
        <time>2016-01-06T13:48:22Z</time>
      </trkpt>
      <trkpt lat="43.42898" lon="6.09561">
        <ele>261.20001220703</ele>
        <time>2016-01-06T13:48:24Z</time>
      </trkpt>
      <trkpt lat="43.429" lon="6.09567">
        <ele>261</ele>
        <time>2016-01-06T13:48:26Z</time>
      </trkpt>
      <trkpt lat="43.42901" lon="6.09573">
        <ele>261</ele>
        <time>2016-01-06T13:48:28Z</time>
      </trkpt>
      <trkpt lat="43.42902" lon="6.0958">
        <ele>260.79998779297</ele>
        <time>2016-01-06T13:48:30Z</time>
      </trkpt>
      <trkpt lat="43.42901" lon="6.09585">
        <ele>260.60000610352</ele>
        <time>2016-01-06T13:48:32Z</time>
      </trkpt>
      <trkpt lat="43.42901" lon="6.09587">
        <ele>260.60000610352</ele>
        <time>2016-01-06T13:48:33Z</time>
      </trkpt>
      <trkpt lat="43.429" lon="6.0959">
        <ele>260.60000610352</ele>
        <time>2016-01-06T13:48:34Z</time>
      </trkpt>
      <trkpt lat="43.42899" lon="6.09593">
        <ele>260.60000610352</ele>
        <time>2016-01-06T13:48:35Z</time>
      </trkpt>
      <trkpt lat="43.42898" lon="6.09596">
        <ele>260.20001220703</ele>
        <time>2016-01-06T13:48:36Z</time>
      </trkpt>
      <trkpt lat="43.42895" lon="6.09601">
        <ele>260.39999389648</ele>
        <time>2016-01-06T13:48:38Z</time>
      </trkpt>
      <trkpt lat="43.42894" lon="6.09604">
        <ele>260.39999389648</ele>
        <time>2016-01-06T13:48:39Z</time>
      </trkpt>
      <trkpt lat="43.42891" lon="6.09608">
        <ele>260.20001220703</ele>
        <time>2016-01-06T13:48:40Z</time>
      </trkpt>
      <trkpt lat="43.42887" lon="6.09613">
        <ele>260</ele>
        <time>2016-01-06T13:48:42Z</time>
      </trkpt>
      <trkpt lat="43.42884" lon="6.09617">
        <ele>259.60000610352</ele>
        <time>2016-01-06T13:48:44Z</time>
      </trkpt>
      <trkpt lat="43.42883" lon="6.0962">
        <ele>259.39999389648</ele>
        <time>2016-01-06T13:48:45Z</time>
      </trkpt>
      <trkpt lat="43.42881" lon="6.09624">
        <ele>259.39999389648</ele>
        <time>2016-01-06T13:48:46Z</time>
      </trkpt>
      <trkpt lat="43.42879" lon="6.0963">
        <ele>259.20001220703</ele>
        <time>2016-01-06T13:48:48Z</time>
      </trkpt>
      <trkpt lat="43.42878" lon="6.09634">
        <ele>259</ele>
        <time>2016-01-06T13:48:49Z</time>
      </trkpt>
      <trkpt lat="43.42876" lon="6.09638">
        <ele>259.20001220703</ele>
        <time>2016-01-06T13:48:50Z</time>
      </trkpt>
      <trkpt lat="43.42873" lon="6.09644">
        <ele>258.79998779297</ele>
        <time>2016-01-06T13:48:52Z</time>
      </trkpt>
      <trkpt lat="43.42871" lon="6.0965">
        <ele>258.60000610352</ele>
        <time>2016-01-06T13:48:54Z</time>
      </trkpt>
      <trkpt lat="43.42868" lon="6.09657">
        <ele>258</ele>
        <time>2016-01-06T13:48:56Z</time>
      </trkpt>
      <trkpt lat="43.42864" lon="6.09664">
        <ele>257.60000610352</ele>
        <time>2016-01-06T13:48:58Z</time>
      </trkpt>
      <trkpt lat="43.42859" lon="6.09672">
        <ele>257.39999389648</ele>
        <time>2016-01-06T13:49:00Z</time>
      </trkpt>
      <trkpt lat="43.42857" lon="6.09677">
        <ele>257.60000610352</ele>
        <time>2016-01-06T13:49:01Z</time>
      </trkpt>
      <trkpt lat="43.42854" lon="6.09681">
        <ele>257.60000610352</ele>
        <time>2016-01-06T13:49:02Z</time>
      </trkpt>
      <trkpt lat="43.42849" lon="6.09692">
        <ele>257</ele>
        <time>2016-01-06T13:49:04Z</time>
      </trkpt>
      <trkpt lat="43.42846" lon="6.09697">
        <ele>256.79998779297</ele>
        <time>2016-01-06T13:49:05Z</time>
      </trkpt>
      <trkpt lat="43.42843" lon="6.09702">
        <ele>256.60000610352</ele>
        <time>2016-01-06T13:49:06Z</time>
      </trkpt>
      <trkpt lat="43.4284" lon="6.09707">
        <ele>256.60000610352</ele>
        <time>2016-01-06T13:49:07Z</time>
      </trkpt>
      <trkpt lat="43.42836" lon="6.09711">
        <ele>256.39999389648</ele>
        <time>2016-01-06T13:49:08Z</time>
      </trkpt>
      <trkpt lat="43.42831" lon="6.09719">
        <ele>256</ele>
        <time>2016-01-06T13:49:10Z</time>
      </trkpt>
      <trkpt lat="43.42828" lon="6.09723">
        <ele>255.60000610352</ele>
        <time>2016-01-06T13:49:11Z</time>
      </trkpt>
      <trkpt lat="43.42825" lon="6.09728">
        <ele>255.39999389648</ele>
        <time>2016-01-06T13:49:12Z</time>
      </trkpt>
      <trkpt lat="43.42823" lon="6.09732">
        <ele>255.39999389648</ele>
        <time>2016-01-06T13:49:13Z</time>
      </trkpt>
      <trkpt lat="43.42821" lon="6.09736">
        <ele>255.39999389648</ele>
        <time>2016-01-06T13:49:14Z</time>
      </trkpt>
      <trkpt lat="43.42817" lon="6.09743">
        <ele>255.60000610352</ele>
        <time>2016-01-06T13:49:16Z</time>
      </trkpt>
      <trkpt lat="43.42812" lon="6.09748">
        <ele>255.39999389648</ele>
        <time>2016-01-06T13:49:18Z</time>
      </trkpt>
      <trkpt lat="43.42808" lon="6.09752">
        <ele>255.39999389648</ele>
        <time>2016-01-06T13:49:20Z</time>
      </trkpt>
      <trkpt lat="43.42804" lon="6.09757">
        <ele>255</ele>
        <time>2016-01-06T13:49:22Z</time>
      </trkpt>
      <trkpt lat="43.42797" lon="6.09761">
        <ele>256.39999389648</ele>
        <time>2016-01-06T13:49:24Z</time>
      </trkpt>
      <trkpt lat="43.42793" lon="6.09763">
        <ele>256.39999389648</ele>
        <time>2016-01-06T13:49:25Z</time>
      </trkpt>
      <trkpt lat="43.42789" lon="6.09764">
        <ele>255.39999389648</ele>
        <time>2016-01-06T13:49:26Z</time>
      </trkpt>
      <trkpt lat="43.42786" lon="6.09764">
        <ele>254.80000305176</ele>
        <time>2016-01-06T13:49:27Z</time>
      </trkpt>
      <trkpt lat="43.42782" lon="6.09765">
        <ele>254.80000305176</ele>
        <time>2016-01-06T13:49:28Z</time>
      </trkpt>
      <trkpt lat="43.42775" lon="6.09767">
        <ele>253.60000610352</ele>
        <time>2016-01-06T13:49:30Z</time>
      </trkpt>
      <trkpt lat="43.4277" lon="6.09768">
        <ele>253.19999694824</ele>
        <time>2016-01-06T13:49:31Z</time>
      </trkpt>
      <trkpt lat="43.42765" lon="6.09768">
        <ele>253</ele>
        <time>2016-01-06T13:49:32Z</time>
      </trkpt>
      <trkpt lat="43.4276" lon="6.09767">
        <ele>252.19999694824</ele>
        <time>2016-01-06T13:49:33Z</time>
      </trkpt>
      <trkpt lat="43.42755" lon="6.09765">
        <ele>251.80000305176</ele>
        <time>2016-01-06T13:49:34Z</time>
      </trkpt>
      <trkpt lat="43.42744" lon="6.09759">
        <ele>250.80000305176</ele>
        <time>2016-01-06T13:49:36Z</time>
      </trkpt>
      <trkpt lat="43.42733" lon="6.09755">
        <ele>250.39999389648</ele>
        <time>2016-01-06T13:49:38Z</time>
      </trkpt>
      <trkpt lat="43.42722" lon="6.09754">
        <ele>250.19999694824</ele>
        <time>2016-01-06T13:49:40Z</time>
      </trkpt>
      <trkpt lat="43.42718" lon="6.09753">
        <ele>249.60000610352</ele>
        <time>2016-01-06T13:49:41Z</time>
      </trkpt>
      <trkpt lat="43.42712" lon="6.09752">
        <ele>249.60000610352</ele>
        <time>2016-01-06T13:49:42Z</time>
      </trkpt>
      <trkpt lat="43.42707" lon="6.09753">
        <ele>249.19999694824</ele>
        <time>2016-01-06T13:49:43Z</time>
      </trkpt>
      <trkpt lat="43.42702" lon="6.09753">
        <ele>248.39999389648</ele>
        <time>2016-01-06T13:49:44Z</time>
      </trkpt>
      <trkpt lat="43.42693" lon="6.09755">
        <ele>248</ele>
        <time>2016-01-06T13:49:46Z</time>
      </trkpt>
      <trkpt lat="43.42685" lon="6.0976">
        <ele>248.80000305176</ele>
        <time>2016-01-06T13:49:48Z</time>
      </trkpt>
      <trkpt lat="43.4268" lon="6.09768">
        <ele>248.19999694824</ele>
        <time>2016-01-06T13:49:50Z</time>
      </trkpt>
      <trkpt lat="43.4268" lon="6.0977">
        <ele>248</ele>
        <time>2016-01-06T13:49:51Z</time>
      </trkpt>
      <trkpt lat="43.42679" lon="6.09773">
        <ele>247.80000305176</ele>
        <time>2016-01-06T13:49:52Z</time>
      </trkpt>
      <trkpt lat="43.42679" lon="6.09774">
        <ele>247.60000610352</ele>
        <time>2016-01-06T13:49:54Z</time>
      </trkpt>
      <trkpt lat="43.42678" lon="6.09777">
        <ele>247.60000610352</ele>
        <time>2016-01-06T13:49:56Z</time>
      </trkpt>
      <trkpt lat="43.42678" lon="6.09777">
        <ele>247.60000610352</ele>
        <time>2016-01-06T13:49:58Z</time>
      </trkpt>
      <trkpt lat="43.42677" lon="6.09777">
        <ele>247.39999389648</ele>
        <time>2016-01-06T13:50:00Z</time>
      </trkpt>
      <trkpt lat="43.42677" lon="6.09777">
        <ele>247.39999389648</ele>
        <time>2016-01-06T13:50:02Z</time>
      </trkpt>
      <trkpt lat="43.42677" lon="6.09777">
        <ele>247.39999389648</ele>
        <time>2016-01-06T13:50:04Z</time>
      </trkpt>
      <trkpt lat="43.42677" lon="6.09777">
        <ele>247.39999389648</ele>
        <time>2016-01-06T13:50:06Z</time>
      </trkpt>
      <trkpt lat="43.42677" lon="6.09777">
        <ele>247.39999389648</ele>
        <time>2016-01-06T13:50:08Z</time>
      </trkpt>
      <trkpt lat="43.42677" lon="6.09777">
        <ele>247.60000610352</ele>
        <time>2016-01-06T13:50:10Z</time>
      </trkpt>
      <trkpt lat="43.42677" lon="6.09778">
        <ele>247.60000610352</ele>
        <time>2016-01-06T13:50:12Z</time>
      </trkpt>
      <trkpt lat="43.42677" lon="6.09778">
        <ele>247.39999389648</ele>
        <time>2016-01-06T13:50:14Z</time>
      </trkpt>
      <trkpt lat="43.42677" lon="6.09778">
        <ele>247.60000610352</ele>
        <time>2016-01-06T13:50:16Z</time>
      </trkpt>
      <trkpt lat="43.42677" lon="6.09778">
        <ele>247.39999389648</ele>
        <time>2016-01-06T13:50:18Z</time>
      </trkpt>
      <trkpt lat="43.42677" lon="6.09778">
        <ele>247.39999389648</ele>
        <time>2016-01-06T13:50:20Z</time>
      </trkpt>
      <trkpt lat="43.42677" lon="6.09778">
        <ele>247.60000610352</ele>
        <time>2016-01-06T13:50:22Z</time>
      </trkpt>
      <trkpt lat="43.42677" lon="6.09778">
        <ele>247.60000610352</ele>
        <time>2016-01-06T13:50:24Z</time>
      </trkpt>
      <trkpt lat="43.42677" lon="6.09778">
        <ele>247.60000610352</ele>
        <time>2016-01-06T13:50:26Z</time>
      </trkpt>
      <trkpt lat="43.42677" lon="6.0978">
        <ele>247.39999389648</ele>
        <time>2016-01-06T13:50:28Z</time>
      </trkpt>
      <trkpt lat="43.42676" lon="6.09782">
        <ele>247.19999694824</ele>
        <time>2016-01-06T13:50:30Z</time>
      </trkpt>
      <trkpt lat="43.42675" lon="6.09784">
        <ele>247.19999694824</ele>
        <time>2016-01-06T13:50:31Z</time>
      </trkpt>
      <trkpt lat="43.42673" lon="6.09785">
        <ele>247.19999694824</ele>
        <time>2016-01-06T13:50:32Z</time>
      </trkpt>
      <trkpt lat="43.4267" lon="6.09791">
        <ele>247.39999389648</ele>
        <time>2016-01-06T13:50:34Z</time>
      </trkpt>
      <trkpt lat="43.42668" lon="6.09797">
        <ele>247.19999694824</ele>
        <time>2016-01-06T13:50:36Z</time>
      </trkpt>
      <trkpt lat="43.42665" lon="6.098">
        <ele>246.80000305176</ele>
        <time>2016-01-06T13:50:37Z</time>
      </trkpt>
      <trkpt lat="43.42662" lon="6.09804">
        <ele>246.60000610352</ele>
        <time>2016-01-06T13:50:38Z</time>
      </trkpt>
      <trkpt lat="43.42656" lon="6.09812">
        <ele>246.19999694824</ele>
        <time>2016-01-06T13:50:40Z</time>
      </trkpt>
      <trkpt lat="43.42656" lon="6.09817">
        <ele>246.19999694824</ele>
        <time>2016-01-06T13:50:41Z</time>
      </trkpt>
      <trkpt lat="43.42656" lon="6.09824">
        <ele>246.19999694824</ele>
        <time>2016-01-06T13:50:42Z</time>
      </trkpt>
      <trkpt lat="43.42655" lon="6.09832">
        <ele>246.39999389648</ele>
        <time>2016-01-06T13:50:43Z</time>
      </trkpt>
      <trkpt lat="43.42654" lon="6.09839">
        <ele>246.19999694824</ele>
        <time>2016-01-06T13:50:44Z</time>
      </trkpt>
      <trkpt lat="43.42652" lon="6.0985">
        <ele>245.39999389648</ele>
        <time>2016-01-06T13:50:46Z</time>
      </trkpt>
      <trkpt lat="43.42651" lon="6.09855">
        <ele>244.60000610352</ele>
        <time>2016-01-06T13:50:47Z</time>
      </trkpt>
      <trkpt lat="43.42651" lon="6.09861">
        <ele>244</ele>
        <time>2016-01-06T13:50:48Z</time>
      </trkpt>
      <trkpt lat="43.42649" lon="6.09873">
        <ele>242.80000305176</ele>
        <time>2016-01-06T13:50:50Z</time>
      </trkpt>
      <trkpt lat="43.42649" lon="6.09886">
        <ele>243.60000610352</ele>
        <time>2016-01-06T13:50:52Z</time>
      </trkpt>
      <trkpt lat="43.42653" lon="6.09893">
        <ele>243.39999389648</ele>
        <time>2016-01-06T13:50:54Z</time>
      </trkpt>
      <trkpt lat="43.42655" lon="6.09894">
        <ele>243.19999694824</ele>
        <time>2016-01-06T13:50:55Z</time>
      </trkpt>
      <trkpt lat="43.42657" lon="6.09895">
        <ele>243.19999694824</ele>
        <time>2016-01-06T13:50:56Z</time>
      </trkpt>
      <trkpt lat="43.42661" lon="6.09896">
        <ele>243.60000610352</ele>
        <time>2016-01-06T13:50:58Z</time>
      </trkpt>
      <trkpt lat="43.42664" lon="6.09899">
        <ele>243.80000305176</ele>
        <time>2016-01-06T13:51:00Z</time>
      </trkpt>
      <trkpt lat="43.42667" lon="6.099">
        <ele>243.80000305176</ele>
        <time>2016-01-06T13:51:02Z</time>
      </trkpt>
      <trkpt lat="43.4267" lon="6.09903">
        <ele>244</ele>
        <time>2016-01-06T13:51:04Z</time>
      </trkpt>
      <trkpt lat="43.42673" lon="6.09905">
        <ele>244.39999389648</ele>
        <time>2016-01-06T13:51:06Z</time>
      </trkpt>
      <trkpt lat="43.42674" lon="6.09906">
        <ele>244.80000305176</ele>
        <time>2016-01-06T13:51:07Z</time>
      </trkpt>
      <trkpt lat="43.42675" lon="6.09908">
        <ele>245</ele>
        <time>2016-01-06T13:51:08Z</time>
      </trkpt>
      <trkpt lat="43.42678" lon="6.09911">
        <ele>245.19999694824</ele>
        <time>2016-01-06T13:51:10Z</time>
      </trkpt>
      <trkpt lat="43.4268" lon="6.09915">
        <ele>245.39999389648</ele>
        <time>2016-01-06T13:51:12Z</time>
      </trkpt>
      <trkpt lat="43.42681" lon="6.0992">
        <ele>246</ele>
        <time>2016-01-06T13:51:14Z</time>
      </trkpt>
      <trkpt lat="43.42682" lon="6.09922">
        <ele>246.19999694824</ele>
        <time>2016-01-06T13:51:15Z</time>
      </trkpt>
      <trkpt lat="43.42683" lon="6.09924">
        <ele>246.39999389648</ele>
        <time>2016-01-06T13:51:16Z</time>
      </trkpt>
      <trkpt lat="43.42683" lon="6.0993">
        <ele>246.80000305176</ele>
        <time>2016-01-06T13:51:18Z</time>
      </trkpt>
      <trkpt lat="43.42683" lon="6.09934">
        <ele>247.19999694824</ele>
        <time>2016-01-06T13:51:20Z</time>
      </trkpt>
      <trkpt lat="43.42683" lon="6.09935">
        <ele>247.39999389648</ele>
        <time>2016-01-06T13:51:21Z</time>
      </trkpt>
      <trkpt lat="43.42683" lon="6.09937">
        <ele>247.60000610352</ele>
        <time>2016-01-06T13:51:22Z</time>
      </trkpt>
      <trkpt lat="43.42683" lon="6.0994">
        <ele>247.60000610352</ele>
        <time>2016-01-06T13:51:24Z</time>
      </trkpt>
      <trkpt lat="43.42682" lon="6.09941">
        <ele>247.80000305176</ele>
        <time>2016-01-06T13:51:26Z</time>
      </trkpt>
      <trkpt lat="43.42682" lon="6.09942">
        <ele>247.60000610352</ele>
        <time>2016-01-06T13:51:27Z</time>
      </trkpt>
      <trkpt lat="43.42681" lon="6.09943">
        <ele>247.80000305176</ele>
        <time>2016-01-06T13:51:28Z</time>
      </trkpt>
      <trkpt lat="43.4268" lon="6.09945">
        <ele>248</ele>
        <time>2016-01-06T13:51:30Z</time>
      </trkpt>
      <trkpt lat="43.42679" lon="6.09948">
        <ele>248.39999389648</ele>
        <time>2016-01-06T13:51:32Z</time>
      </trkpt>
      <trkpt lat="43.4268" lon="6.09949">
        <ele>248.60000610352</ele>
        <time>2016-01-06T13:51:34Z</time>
      </trkpt>
      <trkpt lat="43.4268" lon="6.09949">
        <ele>248.80000305176</ele>
        <time>2016-01-06T13:51:36Z</time>
      </trkpt>
      <trkpt lat="43.4268" lon="6.09949">
        <ele>248.80000305176</ele>
        <time>2016-01-06T13:51:38Z</time>
      </trkpt>
      <trkpt lat="43.4268" lon="6.09949">
        <ele>248.80000305176</ele>
        <time>2016-01-06T13:51:40Z</time>
      </trkpt>
      <trkpt lat="43.4268" lon="6.09949">
        <ele>248.80000305176</ele>
        <time>2016-01-06T13:51:42Z</time>
      </trkpt>
      <trkpt lat="43.4268" lon="6.09949">
        <ele>248.80000305176</ele>
        <time>2016-01-06T13:51:44Z</time>
      </trkpt>
      <trkpt lat="43.4268" lon="6.09949">
        <ele>248.60000610352</ele>
        <time>2016-01-06T13:51:46Z</time>
      </trkpt>
      <trkpt lat="43.4268" lon="6.09949">
        <ele>248.80000305176</ele>
        <time>2016-01-06T13:51:48Z</time>
      </trkpt>
      <trkpt lat="43.4268" lon="6.09949">
        <ele>249</ele>
        <time>2016-01-06T13:51:50Z</time>
      </trkpt>
      <trkpt lat="43.4268" lon="6.09949">
        <ele>249</ele>
        <time>2016-01-06T13:51:52Z</time>
      </trkpt>
      <trkpt lat="43.4268" lon="6.09949">
        <ele>249</ele>
        <time>2016-01-06T13:51:54Z</time>
      </trkpt>
      <trkpt lat="43.4268" lon="6.09949">
        <ele>249</ele>
        <time>2016-01-06T13:51:56Z</time>
      </trkpt>
      <trkpt lat="43.4268" lon="6.09949">
        <ele>248.80000305176</ele>
        <time>2016-01-06T13:51:58Z</time>
      </trkpt>
      <trkpt lat="43.4268" lon="6.09949">
        <ele>248.80000305176</ele>
        <time>2016-01-06T13:52:00Z</time>
      </trkpt>
      <trkpt lat="43.4268" lon="6.09949">
        <ele>248.60000610352</ele>
        <time>2016-01-06T13:52:02Z</time>
      </trkpt>
      <trkpt lat="43.4268" lon="6.09949">
        <ele>248.60000610352</ele>
        <time>2016-01-06T13:52:04Z</time>
      </trkpt>
      <trkpt lat="43.4268" lon="6.09949">
        <ele>248.80000305176</ele>
        <time>2016-01-06T13:52:06Z</time>
      </trkpt>
      <trkpt lat="43.4268" lon="6.09949">
        <ele>248.80000305176</ele>
        <time>2016-01-06T13:52:08Z</time>
      </trkpt>
      <trkpt lat="43.4268" lon="6.09949">
        <ele>248.80000305176</ele>
        <time>2016-01-06T13:52:10Z</time>
      </trkpt>
      <trkpt lat="43.4268" lon="6.09949">
        <ele>249</ele>
        <time>2016-01-06T13:52:12Z</time>
      </trkpt>
      <trkpt lat="43.4268" lon="6.09949">
        <ele>249.19999694824</ele>
        <time>2016-01-06T13:52:14Z</time>
      </trkpt>
      <trkpt lat="43.42678" lon="6.09952">
        <ele>249.39999389648</ele>
        <time>2016-01-06T13:52:16Z</time>
      </trkpt>
      <trkpt lat="43.42678" lon="6.09956">
        <ele>249.80000305176</ele>
        <time>2016-01-06T13:52:18Z</time>
      </trkpt>
      <trkpt lat="43.42677" lon="6.09959">
        <ele>249.80000305176</ele>
        <time>2016-01-06T13:52:20Z</time>
      </trkpt>
      <trkpt lat="43.42676" lon="6.09963">
        <ele>249.80000305176</ele>
        <time>2016-01-06T13:52:22Z</time>
      </trkpt>
      <trkpt lat="43.42675" lon="6.09968">
        <ele>250</ele>
        <time>2016-01-06T13:52:24Z</time>
      </trkpt>
      <trkpt lat="43.42675" lon="6.0997">
        <ele>250.19999694824</ele>
        <time>2016-01-06T13:52:25Z</time>
      </trkpt>
      <trkpt lat="43.42674" lon="6.09972">
        <ele>250.39999389648</ele>
        <time>2016-01-06T13:52:26Z</time>
      </trkpt>
      <trkpt lat="43.42675" lon="6.09976">
        <ele>251</ele>
        <time>2016-01-06T13:52:28Z</time>
      </trkpt>
      <trkpt lat="43.42675" lon="6.09978">
        <ele>251.19999694824</ele>
        <time>2016-01-06T13:52:29Z</time>
      </trkpt>
      <trkpt lat="43.42675" lon="6.0998">
        <ele>251.39999389648</ele>
        <time>2016-01-06T13:52:30Z</time>
      </trkpt>
      <trkpt lat="43.42675" lon="6.09985">
        <ele>251.60000610352</ele>
        <time>2016-01-06T13:52:32Z</time>
      </trkpt>
      <trkpt lat="43.42676" lon="6.0999">
        <ele>252</ele>
        <time>2016-01-06T13:52:34Z</time>
      </trkpt>
      <trkpt lat="43.42676" lon="6.09994">
        <ele>252.39999389648</ele>
        <time>2016-01-06T13:52:36Z</time>
      </trkpt>
      <trkpt lat="43.42677" lon="6.09998">
        <ele>252.80000305176</ele>
        <time>2016-01-06T13:52:38Z</time>
      </trkpt>
      <trkpt lat="43.42678" lon="6.10001">
        <ele>253.19999694824</ele>
        <time>2016-01-06T13:52:40Z</time>
      </trkpt>
      <trkpt lat="43.42678" lon="6.10003">
        <ele>253.39999389648</ele>
        <time>2016-01-06T13:52:41Z</time>
      </trkpt>
      <trkpt lat="43.42678" lon="6.10005">
        <ele>253.60000610352</ele>
        <time>2016-01-06T13:52:42Z</time>
      </trkpt>
      <trkpt lat="43.42678" lon="6.10009">
        <ele>254</ele>
        <time>2016-01-06T13:52:44Z</time>
      </trkpt>
      <trkpt lat="43.42678" lon="6.10011">
        <ele>254.19999694824</ele>
        <time>2016-01-06T13:52:45Z</time>
      </trkpt>
      <trkpt lat="43.42679" lon="6.10012">
        <ele>254</ele>
        <time>2016-01-06T13:52:46Z</time>
      </trkpt>
      <trkpt lat="43.42679" lon="6.10016">
        <ele>254.19999694824</ele>
        <time>2016-01-06T13:52:48Z</time>
      </trkpt>
      <trkpt lat="43.4268" lon="6.1002">
        <ele>254.39999389648</ele>
        <time>2016-01-06T13:52:50Z</time>
      </trkpt>
      <trkpt lat="43.4268" lon="6.10021">
        <ele>254.60000610352</ele>
        <time>2016-01-06T13:52:51Z</time>
      </trkpt>
      <trkpt lat="43.42681" lon="6.10023">
        <ele>254.80000305176</ele>
        <time>2016-01-06T13:52:52Z</time>
      </trkpt>
      <trkpt lat="43.42683" lon="6.10026">
        <ele>254.80000305176</ele>
        <time>2016-01-06T13:52:54Z</time>
      </trkpt>
      <trkpt lat="43.42685" lon="6.10028">
        <ele>255</ele>
        <time>2016-01-06T13:52:56Z</time>
      </trkpt>
      <trkpt lat="43.42687" lon="6.10031">
        <ele>255.39999389648</ele>
        <time>2016-01-06T13:52:58Z</time>
      </trkpt>
      <trkpt lat="43.42688" lon="6.10031">
        <ele>255.39999389648</ele>
        <time>2016-01-06T13:52:59Z</time>
      </trkpt>
      <trkpt lat="43.4269" lon="6.10032">
        <ele>255.39999389648</ele>
        <time>2016-01-06T13:53:00Z</time>
      </trkpt>
      <trkpt lat="43.42692" lon="6.10034">
        <ele>255.60000610352</ele>
        <time>2016-01-06T13:53:02Z</time>
      </trkpt>
      <trkpt lat="43.42694" lon="6.10035">
        <ele>255.80000305176</ele>
        <time>2016-01-06T13:53:03Z</time>
      </trkpt>
      <trkpt lat="43.42695" lon="6.10036">
        <ele>255.80000305176</ele>
        <time>2016-01-06T13:53:04Z</time>
      </trkpt>
      <trkpt lat="43.42697" lon="6.10036">
        <ele>256.20001220703</ele>
        <time>2016-01-06T13:53:05Z</time>
      </trkpt>
      <trkpt lat="43.42699" lon="6.10037">
        <ele>256.39999389648</ele>
        <time>2016-01-06T13:53:06Z</time>
      </trkpt>
      <trkpt lat="43.42702" lon="6.10038">
        <ele>256.39999389648</ele>
        <time>2016-01-06T13:53:08Z</time>
      </trkpt>
      <trkpt lat="43.42705" lon="6.1004">
        <ele>256.79998779297</ele>
        <time>2016-01-06T13:53:10Z</time>
      </trkpt>
      <trkpt lat="43.42706" lon="6.1004">
        <ele>256.79998779297</ele>
        <time>2016-01-06T13:53:11Z</time>
      </trkpt>
      <trkpt lat="43.42708" lon="6.10041">
        <ele>257</ele>
        <time>2016-01-06T13:53:12Z</time>
      </trkpt>
      <trkpt lat="43.42711" lon="6.10041">
        <ele>257.60000610352</ele>
        <time>2016-01-06T13:53:14Z</time>
      </trkpt>
      <trkpt lat="43.42712" lon="6.10041">
        <ele>257.79998779297</ele>
        <time>2016-01-06T13:53:15Z</time>
      </trkpt>
      <trkpt lat="43.42714" lon="6.10041">
        <ele>258</ele>
        <time>2016-01-06T13:53:16Z</time>
      </trkpt>
      <trkpt lat="43.42717" lon="6.1004">
        <ele>257.79998779297</ele>
        <time>2016-01-06T13:53:18Z</time>
      </trkpt>
      <trkpt lat="43.4272" lon="6.10041">
        <ele>257.79998779297</ele>
        <time>2016-01-06T13:53:20Z</time>
      </trkpt>
      <trkpt lat="43.42722" lon="6.10041">
        <ele>257.79998779297</ele>
        <time>2016-01-06T13:53:22Z</time>
      </trkpt>
      <trkpt lat="43.42725" lon="6.10042">
        <ele>258</ele>
        <time>2016-01-06T13:53:24Z</time>
      </trkpt>
      <trkpt lat="43.42728" lon="6.10042">
        <ele>258.20001220703</ele>
        <time>2016-01-06T13:53:26Z</time>
      </trkpt>
      <trkpt lat="43.42729" lon="6.10041">
        <ele>258.39999389648</ele>
        <time>2016-01-06T13:53:27Z</time>
      </trkpt>
      <trkpt lat="43.42731" lon="6.10041">
        <ele>258.39999389648</ele>
        <time>2016-01-06T13:53:28Z</time>
      </trkpt>
      <trkpt lat="43.42734" lon="6.10041">
        <ele>258.39999389648</ele>
        <time>2016-01-06T13:53:30Z</time>
      </trkpt>
      <trkpt lat="43.42737" lon="6.10041">
        <ele>259</ele>
        <time>2016-01-06T13:53:32Z</time>
      </trkpt>
      <trkpt lat="43.42738" lon="6.1004">
        <ele>259.20001220703</ele>
        <time>2016-01-06T13:53:33Z</time>
      </trkpt>
      <trkpt lat="43.42739" lon="6.10039">
        <ele>259.39999389648</ele>
        <time>2016-01-06T13:53:34Z</time>
      </trkpt>
      <trkpt lat="43.42744" lon="6.10039">
        <ele>259.60000610352</ele>
        <time>2016-01-06T13:53:36Z</time>
      </trkpt>
      <trkpt lat="43.42747" lon="6.10038">
        <ele>259.79998779297</ele>
        <time>2016-01-06T13:53:38Z</time>
      </trkpt>
      <trkpt lat="43.42749" lon="6.10038">
        <ele>260.20001220703</ele>
        <time>2016-01-06T13:53:39Z</time>
      </trkpt>
      <trkpt lat="43.42751" lon="6.10037">
        <ele>260.39999389648</ele>
        <time>2016-01-06T13:53:40Z</time>
      </trkpt>
      <trkpt lat="43.42755" lon="6.10037">
        <ele>261</ele>
        <time>2016-01-06T13:53:42Z</time>
      </trkpt>
      <trkpt lat="43.42759" lon="6.10038">
        <ele>261.20001220703</ele>
        <time>2016-01-06T13:53:44Z</time>
      </trkpt>
      <trkpt lat="43.42761" lon="6.10041">
        <ele>262</ele>
        <time>2016-01-06T13:53:46Z</time>
      </trkpt>
      <trkpt lat="43.42764" lon="6.10043">
        <ele>262.39999389648</ele>
        <time>2016-01-06T13:53:48Z</time>
      </trkpt>
      <trkpt lat="43.42767" lon="6.10045">
        <ele>262.60000610352</ele>
        <time>2016-01-06T13:53:50Z</time>
      </trkpt>
      <trkpt lat="43.42771" lon="6.10048">
        <ele>263</ele>
        <time>2016-01-06T13:53:52Z</time>
      </trkpt>
      <trkpt lat="43.42774" lon="6.1005">
        <ele>263.39999389648</ele>
        <time>2016-01-06T13:53:54Z</time>
      </trkpt>
      <trkpt lat="43.42777" lon="6.10051">
        <ele>263.79998779297</ele>
        <time>2016-01-06T13:53:56Z</time>
      </trkpt>
      <trkpt lat="43.4278" lon="6.10053">
        <ele>264.39999389648</ele>
        <time>2016-01-06T13:53:58Z</time>
      </trkpt>
      <trkpt lat="43.42783" lon="6.10055">
        <ele>264.79998779297</ele>
        <time>2016-01-06T13:54:00Z</time>
      </trkpt>
      <trkpt lat="43.42786" lon="6.10056">
        <ele>265</ele>
        <time>2016-01-06T13:54:02Z</time>
      </trkpt>
      <trkpt lat="43.42789" lon="6.10057">
        <ele>265.39999389648</ele>
        <time>2016-01-06T13:54:04Z</time>
      </trkpt>
      <trkpt lat="43.42792" lon="6.10059">
        <ele>265.20001220703</ele>
        <time>2016-01-06T13:54:06Z</time>
      </trkpt>
      <trkpt lat="43.42796" lon="6.1006">
        <ele>266</ele>
        <time>2016-01-06T13:54:08Z</time>
      </trkpt>
      <trkpt lat="43.42799" lon="6.10061">
        <ele>266.20001220703</ele>
        <time>2016-01-06T13:54:10Z</time>
      </trkpt>
      <trkpt lat="43.42801" lon="6.10064">
        <ele>266.39999389648</ele>
        <time>2016-01-06T13:54:12Z</time>
      </trkpt>
      <trkpt lat="43.42803" lon="6.10067">
        <ele>266.79998779297</ele>
        <time>2016-01-06T13:54:14Z</time>
      </trkpt>
      <trkpt lat="43.42805" lon="6.10071">
        <ele>267</ele>
        <time>2016-01-06T13:54:16Z</time>
      </trkpt>
      <trkpt lat="43.42807" lon="6.10075">
        <ele>267.20001220703</ele>
        <time>2016-01-06T13:54:18Z</time>
      </trkpt>
      <trkpt lat="43.42808" lon="6.10077">
        <ele>267.39999389648</ele>
        <time>2016-01-06T13:54:19Z</time>
      </trkpt>
      <trkpt lat="43.42808" lon="6.10079">
        <ele>267.39999389648</ele>
        <time>2016-01-06T13:54:20Z</time>
      </trkpt>
      <trkpt lat="43.42809" lon="6.10083">
        <ele>267.79998779297</ele>
        <time>2016-01-06T13:54:22Z</time>
      </trkpt>
      <trkpt lat="43.4281" lon="6.10087">
        <ele>268</ele>
        <time>2016-01-06T13:54:24Z</time>
      </trkpt>
      <trkpt lat="43.4281" lon="6.10091">
        <ele>268.20001220703</ele>
        <time>2016-01-06T13:54:26Z</time>
      </trkpt>
      <trkpt lat="43.4281" lon="6.10093">
        <ele>268.60000610352</ele>
        <time>2016-01-06T13:54:27Z</time>
      </trkpt>
      <trkpt lat="43.42809" lon="6.10096">
        <ele>268.79998779297</ele>
        <time>2016-01-06T13:54:28Z</time>
      </trkpt>
      <trkpt lat="43.4281" lon="6.101">
        <ele>269</ele>
        <time>2016-01-06T13:54:30Z</time>
      </trkpt>
      <trkpt lat="43.42809" lon="6.10102">
        <ele>269</ele>
        <time>2016-01-06T13:54:31Z</time>
      </trkpt>
      <trkpt lat="43.42809" lon="6.10104">
        <ele>269.20001220703</ele>
        <time>2016-01-06T13:54:32Z</time>
      </trkpt>
      <trkpt lat="43.42809" lon="6.10106">
        <ele>269.60000610352</ele>
        <time>2016-01-06T13:54:33Z</time>
      </trkpt>
      <trkpt lat="43.42809" lon="6.10108">
        <ele>269.79998779297</ele>
        <time>2016-01-06T13:54:34Z</time>
      </trkpt>
      <trkpt lat="43.42809" lon="6.1011">
        <ele>270</ele>
        <time>2016-01-06T13:54:35Z</time>
      </trkpt>
      <trkpt lat="43.42809" lon="6.10111">
        <ele>270.20001220703</ele>
        <time>2016-01-06T13:54:36Z</time>
      </trkpt>
      <trkpt lat="43.4281" lon="6.10115">
        <ele>270.60000610352</ele>
        <time>2016-01-06T13:54:38Z</time>
      </trkpt>
      <trkpt lat="43.4281" lon="6.10116">
        <ele>270.60000610352</ele>
        <time>2016-01-06T13:54:39Z</time>
      </trkpt>
      <trkpt lat="43.42811" lon="6.10118">
        <ele>270.60000610352</ele>
        <time>2016-01-06T13:54:40Z</time>
      </trkpt>
      <trkpt lat="43.42812" lon="6.10121">
        <ele>270.79998779297</ele>
        <time>2016-01-06T13:54:42Z</time>
      </trkpt>
      <trkpt lat="43.42813" lon="6.10122">
        <ele>271</ele>
        <time>2016-01-06T13:54:43Z</time>
      </trkpt>
      <trkpt lat="43.42813" lon="6.10124">
        <ele>271.20001220703</ele>
        <time>2016-01-06T13:54:44Z</time>
      </trkpt>
      <trkpt lat="43.42815" lon="6.10128">
        <ele>271.39999389648</ele>
        <time>2016-01-06T13:54:46Z</time>
      </trkpt>
      <trkpt lat="43.42816" lon="6.10132">
        <ele>271.60000610352</ele>
        <time>2016-01-06T13:54:48Z</time>
      </trkpt>
      <trkpt lat="43.42817" lon="6.10134">
        <ele>271.79998779297</ele>
        <time>2016-01-06T13:54:49Z</time>
      </trkpt>
      <trkpt lat="43.42817" lon="6.10135">
        <ele>272.20001220703</ele>
        <time>2016-01-06T13:54:50Z</time>
      </trkpt>
      <trkpt lat="43.42819" lon="6.10139">
        <ele>272.60000610352</ele>
        <time>2016-01-06T13:54:52Z</time>
      </trkpt>
      <trkpt lat="43.4282" lon="6.10142">
        <ele>272.79998779297</ele>
        <time>2016-01-06T13:54:54Z</time>
      </trkpt>
      <trkpt lat="43.4282" lon="6.10144">
        <ele>273</ele>
        <time>2016-01-06T13:54:55Z</time>
      </trkpt>
      <trkpt lat="43.4282" lon="6.10145">
        <ele>273.20001220703</ele>
        <time>2016-01-06T13:54:56Z</time>
      </trkpt>
      <trkpt lat="43.42822" lon="6.10148">
        <ele>273.39999389648</ele>
        <time>2016-01-06T13:54:58Z</time>
      </trkpt>
      <trkpt lat="43.42822" lon="6.10151">
        <ele>273.60000610352</ele>
        <time>2016-01-06T13:55:00Z</time>
      </trkpt>
      <trkpt lat="43.42823" lon="6.10154">
        <ele>273.79998779297</ele>
        <time>2016-01-06T13:55:02Z</time>
      </trkpt>
      <trkpt lat="43.42823" lon="6.10155">
        <ele>273.79998779297</ele>
        <time>2016-01-06T13:55:03Z</time>
      </trkpt>
      <trkpt lat="43.42824" lon="6.10156">
        <ele>274.20001220703</ele>
        <time>2016-01-06T13:55:04Z</time>
      </trkpt>
      <trkpt lat="43.42825" lon="6.1016">
        <ele>274.39999389648</ele>
        <time>2016-01-06T13:55:06Z</time>
      </trkpt>
      <trkpt lat="43.42825" lon="6.10163">
        <ele>274.60000610352</ele>
        <time>2016-01-06T13:55:08Z</time>
      </trkpt>
      <trkpt lat="43.42826" lon="6.10167">
        <ele>274.39999389648</ele>
        <time>2016-01-06T13:55:10Z</time>
      </trkpt>
      <trkpt lat="43.42826" lon="6.1017">
        <ele>274.60000610352</ele>
        <time>2016-01-06T13:55:12Z</time>
      </trkpt>
      <trkpt lat="43.42826" lon="6.10173">
        <ele>274.60000610352</ele>
        <time>2016-01-06T13:55:14Z</time>
      </trkpt>
      <trkpt lat="43.42827" lon="6.10176">
        <ele>274.60000610352</ele>
        <time>2016-01-06T13:55:16Z</time>
      </trkpt>
      <trkpt lat="43.42827" lon="6.10179">
        <ele>274.79998779297</ele>
        <time>2016-01-06T13:55:18Z</time>
      </trkpt>
      <trkpt lat="43.42826" lon="6.10181">
        <ele>274.79998779297</ele>
        <time>2016-01-06T13:55:19Z</time>
      </trkpt>
      <trkpt lat="43.42826" lon="6.10183">
        <ele>274.79998779297</ele>
        <time>2016-01-06T13:55:20Z</time>
      </trkpt>
      <trkpt lat="43.42825" lon="6.10186">
        <ele>274.79998779297</ele>
        <time>2016-01-06T13:55:22Z</time>
      </trkpt>
      <trkpt lat="43.42825" lon="6.10188">
        <ele>274.60000610352</ele>
        <time>2016-01-06T13:55:23Z</time>
      </trkpt>
      <trkpt lat="43.42825" lon="6.1019">
        <ele>274.79998779297</ele>
        <time>2016-01-06T13:55:24Z</time>
      </trkpt>
      <trkpt lat="43.42825" lon="6.10193">
        <ele>275</ele>
        <time>2016-01-06T13:55:26Z</time>
      </trkpt>
      <trkpt lat="43.42825" lon="6.10196">
        <ele>275.20001220703</ele>
        <time>2016-01-06T13:55:28Z</time>
      </trkpt>
      <trkpt lat="43.42825" lon="6.10198">
        <ele>275.39999389648</ele>
        <time>2016-01-06T13:55:29Z</time>
      </trkpt>
      <trkpt lat="43.42825" lon="6.102">
        <ele>275.39999389648</ele>
        <time>2016-01-06T13:55:30Z</time>
      </trkpt>
      <trkpt lat="43.42825" lon="6.10201">
        <ele>275.60000610352</ele>
        <time>2016-01-06T13:55:31Z</time>
      </trkpt>
      <trkpt lat="43.42826" lon="6.10202">
        <ele>275.79998779297</ele>
        <time>2016-01-06T13:55:32Z</time>
      </trkpt>
      <trkpt lat="43.42826" lon="6.10206">
        <ele>276</ele>
        <time>2016-01-06T13:55:34Z</time>
      </trkpt>
      <trkpt lat="43.42826" lon="6.10207">
        <ele>276</ele>
        <time>2016-01-06T13:55:35Z</time>
      </trkpt>
      <trkpt lat="43.42826" lon="6.10208">
        <ele>276.20001220703</ele>
        <time>2016-01-06T13:55:36Z</time>
      </trkpt>
      <trkpt lat="43.42826" lon="6.10208">
        <ele>276.20001220703</ele>
        <time>2016-01-06T13:55:37Z</time>
      </trkpt>
      <trkpt lat="43.42826" lon="6.10208">
        <ele>276.20001220703</ele>
        <time>2016-01-06T13:55:38Z</time>
      </trkpt>
      <trkpt lat="43.42826" lon="6.10208">
        <ele>276.20001220703</ele>
        <time>2016-01-06T13:55:40Z</time>
      </trkpt>
      <trkpt lat="43.42826" lon="6.10208">
        <ele>276.20001220703</ele>
        <time>2016-01-06T13:55:42Z</time>
      </trkpt>
      <trkpt lat="43.42826" lon="6.10208">
        <ele>276.39999389648</ele>
        <time>2016-01-06T13:55:44Z</time>
      </trkpt>
      <trkpt lat="43.42826" lon="6.10208">
        <ele>276.39999389648</ele>
        <time>2016-01-06T13:55:46Z</time>
      </trkpt>
      <trkpt lat="43.42826" lon="6.10208">
        <ele>276.20001220703</ele>
        <time>2016-01-06T13:55:48Z</time>
      </trkpt>
      <trkpt lat="43.42826" lon="6.10208">
        <ele>276.20001220703</ele>
        <time>2016-01-06T13:55:50Z</time>
      </trkpt>
      <trkpt lat="43.42826" lon="6.10208">
        <ele>276.39999389648</ele>
        <time>2016-01-06T13:55:52Z</time>
      </trkpt>
      <trkpt lat="43.42826" lon="6.10207">
        <ele>276.39999389648</ele>
        <time>2016-01-06T13:55:54Z</time>
      </trkpt>
      <trkpt lat="43.42826" lon="6.10208">
        <ele>276.60000610352</ele>
        <time>2016-01-06T13:55:56Z</time>
      </trkpt>
      <trkpt lat="43.42825" lon="6.10207">
        <ele>276.39999389648</ele>
        <time>2016-01-06T13:55:58Z</time>
      </trkpt>
      <trkpt lat="43.42825" lon="6.10207">
        <ele>276.39999389648</ele>
        <time>2016-01-06T13:56:00Z</time>
      </trkpt>
      <trkpt lat="43.42825" lon="6.10207">
        <ele>276.20001220703</ele>
        <time>2016-01-06T13:56:02Z</time>
      </trkpt>
      <trkpt lat="43.42825" lon="6.10207">
        <ele>276</ele>
        <time>2016-01-06T13:56:04Z</time>
      </trkpt>
      <trkpt lat="43.42825" lon="6.10206">
        <ele>276</ele>
        <time>2016-01-06T13:56:05Z</time>
      </trkpt>
      <trkpt lat="43.42825" lon="6.10206">
        <ele>276</ele>
        <time>2016-01-06T13:56:06Z</time>
      </trkpt>
      <trkpt lat="43.42825" lon="6.10207">
        <ele>276.20001220703</ele>
        <time>2016-01-06T13:56:08Z</time>
      </trkpt>
      <trkpt lat="43.42825" lon="6.10207">
        <ele>276.20001220703</ele>
        <time>2016-01-06T13:56:10Z</time>
      </trkpt>
      <trkpt lat="43.42825" lon="6.10207">
        <ele>276.20001220703</ele>
        <time>2016-01-06T13:56:12Z</time>
      </trkpt>
      <trkpt lat="43.42825" lon="6.10207">
        <ele>276.20001220703</ele>
        <time>2016-01-06T13:56:14Z</time>
      </trkpt>
      <trkpt lat="43.42825" lon="6.10207">
        <ele>276.20001220703</ele>
        <time>2016-01-06T13:56:16Z</time>
      </trkpt>
      <trkpt lat="43.42825" lon="6.10207">
        <ele>276.20001220703</ele>
        <time>2016-01-06T13:56:18Z</time>
      </trkpt>
      <trkpt lat="43.42825" lon="6.10207">
        <ele>276</ele>
        <time>2016-01-06T13:56:20Z</time>
      </trkpt>
      <trkpt lat="43.42825" lon="6.10207">
        <ele>276</ele>
        <time>2016-01-06T13:56:22Z</time>
      </trkpt>
      <trkpt lat="43.42825" lon="6.10207">
        <ele>276.20001220703</ele>
        <time>2016-01-06T13:56:23Z</time>
      </trkpt>
      <trkpt lat="43.42825" lon="6.10207">
        <ele>276.20001220703</ele>
        <time>2016-01-06T13:56:24Z</time>
      </trkpt>
      <trkpt lat="43.42825" lon="6.10207">
        <ele>276</ele>
        <time>2016-01-06T13:56:26Z</time>
      </trkpt>
      <trkpt lat="43.42825" lon="6.10207">
        <ele>276.20001220703</ele>
        <time>2016-01-06T13:56:28Z</time>
      </trkpt>
      <trkpt lat="43.42825" lon="6.10207">
        <ele>276</ele>
        <time>2016-01-06T13:56:30Z</time>
      </trkpt>
      <trkpt lat="43.42825" lon="6.10207">
        <ele>276</ele>
        <time>2016-01-06T13:56:32Z</time>
      </trkpt>
      <trkpt lat="43.42825" lon="6.10207">
        <ele>276</ele>
        <time>2016-01-06T13:56:34Z</time>
      </trkpt>
      <trkpt lat="43.42825" lon="6.10207">
        <ele>276</ele>
        <time>2016-01-06T13:56:36Z</time>
      </trkpt>
      <trkpt lat="43.42825" lon="6.10207">
        <ele>276</ele>
        <time>2016-01-06T13:56:38Z</time>
      </trkpt>
      <trkpt lat="43.42825" lon="6.10207">
        <ele>276</ele>
        <time>2016-01-06T13:56:40Z</time>
      </trkpt>
      <trkpt lat="43.42825" lon="6.10207">
        <ele>276.20001220703</ele>
        <time>2016-01-06T13:56:42Z</time>
      </trkpt>
      <trkpt lat="43.42825" lon="6.10207">
        <ele>276.20001220703</ele>
        <time>2016-01-06T13:56:44Z</time>
      </trkpt>
      <trkpt lat="43.42825" lon="6.10207">
        <ele>276.20001220703</ele>
        <time>2016-01-06T13:56:46Z</time>
      </trkpt>
      <trkpt lat="43.42825" lon="6.10207">
        <ele>276.20001220703</ele>
        <time>2016-01-06T13:56:48Z</time>
      </trkpt>
      <trkpt lat="43.42825" lon="6.10207">
        <ele>276.20001220703</ele>
        <time>2016-01-06T13:56:50Z</time>
      </trkpt>
      <trkpt lat="43.42825" lon="6.10207">
        <ele>276.20001220703</ele>
        <time>2016-01-06T13:56:52Z</time>
      </trkpt>
      <trkpt lat="43.42825" lon="6.10207">
        <ele>276.20001220703</ele>
        <time>2016-01-06T13:56:54Z</time>
      </trkpt>
      <trkpt lat="43.42825" lon="6.10207">
        <ele>276.39999389648</ele>
        <time>2016-01-06T13:56:56Z</time>
      </trkpt>
      <trkpt lat="43.42825" lon="6.10207">
        <ele>276.20001220703</ele>
        <time>2016-01-06T13:56:58Z</time>
      </trkpt>
      <trkpt lat="43.42825" lon="6.10207">
        <ele>276.20001220703</ele>
        <time>2016-01-06T13:57:00Z</time>
      </trkpt>
      <trkpt lat="43.42825" lon="6.10207">
        <ele>276.20001220703</ele>
        <time>2016-01-06T13:57:02Z</time>
      </trkpt>
      <trkpt lat="43.42825" lon="6.10207">
        <ele>276.20001220703</ele>
        <time>2016-01-06T13:57:04Z</time>
      </trkpt>
      <trkpt lat="43.42825" lon="6.10205">
        <ele>276</ele>
        <time>2016-01-06T13:57:06Z</time>
      </trkpt>
      <trkpt lat="43.42825" lon="6.10205">
        <ele>276</ele>
        <time>2016-01-06T13:57:08Z</time>
      </trkpt>
      <trkpt lat="43.42825" lon="6.10205">
        <ele>275.79998779297</ele>
        <time>2016-01-06T13:57:09Z</time>
      </trkpt>
      <trkpt lat="43.42825" lon="6.10206">
        <ele>275.60000610352</ele>
        <time>2016-01-06T13:57:10Z</time>
      </trkpt>
      <trkpt lat="43.42825" lon="6.10206">
        <ele>275.60000610352</ele>
        <time>2016-01-06T13:57:12Z</time>
      </trkpt>
      <trkpt lat="43.42825" lon="6.10206">
        <ele>275.79998779297</ele>
        <time>2016-01-06T13:57:14Z</time>
      </trkpt>
      <trkpt lat="43.42825" lon="6.10206">
        <ele>275.79998779297</ele>
        <time>2016-01-06T13:57:16Z</time>
      </trkpt>
      <trkpt lat="43.42825" lon="6.10206">
        <ele>275.79998779297</ele>
        <time>2016-01-06T13:57:18Z</time>
      </trkpt>
      <trkpt lat="43.42825" lon="6.10206">
        <ele>275.79998779297</ele>
        <time>2016-01-06T13:57:19Z</time>
      </trkpt>
      <trkpt lat="43.42825" lon="6.10206">
        <ele>275.79998779297</ele>
        <time>2016-01-06T13:57:20Z</time>
      </trkpt>
      <trkpt lat="43.42825" lon="6.10206">
        <ele>275.79998779297</ele>
        <time>2016-01-06T13:57:22Z</time>
      </trkpt>
      <trkpt lat="43.42825" lon="6.10206">
        <ele>275.79998779297</ele>
        <time>2016-01-06T13:57:24Z</time>
      </trkpt>
      <trkpt lat="43.42825" lon="6.10206">
        <ele>275.60000610352</ele>
        <time>2016-01-06T13:57:26Z</time>
      </trkpt>
      <trkpt lat="43.42825" lon="6.10206">
        <ele>275.60000610352</ele>
        <time>2016-01-06T13:57:28Z</time>
      </trkpt>
      <trkpt lat="43.42825" lon="6.10206">
        <ele>275.60000610352</ele>
        <time>2016-01-06T13:57:30Z</time>
      </trkpt>
      <trkpt lat="43.42825" lon="6.10206">
        <ele>275.60000610352</ele>
        <time>2016-01-06T13:57:32Z</time>
      </trkpt>
      <trkpt lat="43.42825" lon="6.10205">
        <ele>275.79998779297</ele>
        <time>2016-01-06T13:57:34Z</time>
      </trkpt>
      <trkpt lat="43.42825" lon="6.10205">
        <ele>275.79998779297</ele>
        <time>2016-01-06T13:57:36Z</time>
      </trkpt>
      <trkpt lat="43.42825" lon="6.10205">
        <ele>275.60000610352</ele>
        <time>2016-01-06T13:57:37Z</time>
      </trkpt>
      <trkpt lat="43.42825" lon="6.10205">
        <ele>275.60000610352</ele>
        <time>2016-01-06T13:57:40Z</time>
      </trkpt>
      <trkpt lat="43.42825" lon="6.10205">
        <ele>275.60000610352</ele>
        <time>2016-01-06T13:57:42Z</time>
      </trkpt>
      <trkpt lat="43.42825" lon="6.10205">
        <ele>275.60000610352</ele>
        <time>2016-01-06T13:57:44Z</time>
      </trkpt>
      <trkpt lat="43.42825" lon="6.10205">
        <ele>275.60000610352</ele>
        <time>2016-01-06T13:57:46Z</time>
      </trkpt>
      <trkpt lat="43.42825" lon="6.10205">
        <ele>275.60000610352</ele>
        <time>2016-01-06T13:57:48Z</time>
      </trkpt>
      <trkpt lat="43.42825" lon="6.10205">
        <ele>275.39999389648</ele>
        <time>2016-01-06T13:57:50Z</time>
      </trkpt>
      <trkpt lat="43.42825" lon="6.10205">
        <ele>275.60000610352</ele>
        <time>2016-01-06T13:57:52Z</time>
      </trkpt>
      <trkpt lat="43.42825" lon="6.10205">
        <ele>275.60000610352</ele>
        <time>2016-01-06T13:57:54Z</time>
      </trkpt>
      <trkpt lat="43.42825" lon="6.10205">
        <ele>275.39999389648</ele>
        <time>2016-01-06T13:57:56Z</time>
      </trkpt>
      <trkpt lat="43.42825" lon="6.10205">
        <ele>275.39999389648</ele>
        <time>2016-01-06T13:57:58Z</time>
      </trkpt>
      <trkpt lat="43.42825" lon="6.10205">
        <ele>275.39999389648</ele>
        <time>2016-01-06T13:58:00Z</time>
      </trkpt>
      <trkpt lat="43.42825" lon="6.10205">
        <ele>275.39999389648</ele>
        <time>2016-01-06T13:58:02Z</time>
      </trkpt>
      <trkpt lat="43.42825" lon="6.10205">
        <ele>275.20001220703</ele>
        <time>2016-01-06T13:58:04Z</time>
      </trkpt>
      <trkpt lat="43.42825" lon="6.10205">
        <ele>275.60000610352</ele>
        <time>2016-01-06T13:58:06Z</time>
      </trkpt>
      <trkpt lat="43.42825" lon="6.10205">
        <ele>275.60000610352</ele>
        <time>2016-01-06T13:58:08Z</time>
      </trkpt>
      <trkpt lat="43.42825" lon="6.10205">
        <ele>275.60000610352</ele>
        <time>2016-01-06T13:58:10Z</time>
      </trkpt>
      <trkpt lat="43.42825" lon="6.10206">
        <ele>275.79998779297</ele>
        <time>2016-01-06T13:58:12Z</time>
      </trkpt>
      <trkpt lat="43.42825" lon="6.10206">
        <ele>276</ele>
        <time>2016-01-06T13:58:14Z</time>
      </trkpt>
      <trkpt lat="43.42825" lon="6.10206">
        <ele>276.20001220703</ele>
        <time>2016-01-06T13:58:16Z</time>
      </trkpt>
      <trkpt lat="43.42825" lon="6.10206">
        <ele>276.20001220703</ele>
        <time>2016-01-06T13:58:18Z</time>
      </trkpt>
      <trkpt lat="43.42825" lon="6.10206">
        <ele>276.20001220703</ele>
        <time>2016-01-06T13:58:19Z</time>
      </trkpt>
      <trkpt lat="43.42825" lon="6.10206">
        <ele>276.20001220703</ele>
        <time>2016-01-06T13:58:20Z</time>
      </trkpt>
      <trkpt lat="43.42825" lon="6.10206">
        <ele>276.20001220703</ele>
        <time>2016-01-06T13:58:22Z</time>
      </trkpt>
      <trkpt lat="43.42825" lon="6.10206">
        <ele>276.39999389648</ele>
        <time>2016-01-06T13:58:24Z</time>
      </trkpt>
      <trkpt lat="43.42825" lon="6.10206">
        <ele>276.20001220703</ele>
        <time>2016-01-06T13:58:26Z</time>
      </trkpt>
      <trkpt lat="43.42825" lon="6.10206">
        <ele>276.20001220703</ele>
        <time>2016-01-06T13:58:28Z</time>
      </trkpt>
      <trkpt lat="43.42825" lon="6.10206">
        <ele>276.20001220703</ele>
        <time>2016-01-06T13:58:30Z</time>
      </trkpt>
      <trkpt lat="43.42825" lon="6.10206">
        <ele>276.20001220703</ele>
        <time>2016-01-06T13:58:32Z</time>
      </trkpt>
      <trkpt lat="43.42825" lon="6.10206">
        <ele>276.39999389648</ele>
        <time>2016-01-06T13:58:34Z</time>
      </trkpt>
      <trkpt lat="43.42825" lon="6.10206">
        <ele>276.39999389648</ele>
        <time>2016-01-06T13:58:36Z</time>
      </trkpt>
      <trkpt lat="43.42825" lon="6.10206">
        <ele>276.39999389648</ele>
        <time>2016-01-06T13:58:38Z</time>
      </trkpt>
      <trkpt lat="43.42825" lon="6.10206">
        <ele>276.39999389648</ele>
        <time>2016-01-06T13:58:40Z</time>
      </trkpt>
      <trkpt lat="43.42825" lon="6.10206">
        <ele>276.20001220703</ele>
        <time>2016-01-06T13:58:42Z</time>
      </trkpt>
      <trkpt lat="43.42825" lon="6.10206">
        <ele>276</ele>
        <time>2016-01-06T13:58:44Z</time>
      </trkpt>
      <trkpt lat="43.42825" lon="6.10206">
        <ele>276</ele>
        <time>2016-01-06T13:58:46Z</time>
      </trkpt>
      <trkpt lat="43.42825" lon="6.10206">
        <ele>276</ele>
        <time>2016-01-06T13:58:48Z</time>
      </trkpt>
      <trkpt lat="43.42825" lon="6.10206">
        <ele>275.79998779297</ele>
        <time>2016-01-06T13:58:50Z</time>
      </trkpt>
      <trkpt lat="43.42825" lon="6.10206">
        <ele>275.79998779297</ele>
        <time>2016-01-06T13:58:52Z</time>
      </trkpt>
      <trkpt lat="43.42825" lon="6.10206">
        <ele>276</ele>
        <time>2016-01-06T13:58:54Z</time>
      </trkpt>
      <trkpt lat="43.42825" lon="6.10206">
        <ele>276</ele>
        <time>2016-01-06T13:58:56Z</time>
      </trkpt>
      <trkpt lat="43.42825" lon="6.10206">
        <ele>276</ele>
        <time>2016-01-06T13:58:58Z</time>
      </trkpt>
      <trkpt lat="43.42825" lon="6.10206">
        <ele>276</ele>
        <time>2016-01-06T13:59:00Z</time>
      </trkpt>
      <trkpt lat="43.42825" lon="6.10206">
        <ele>276</ele>
        <time>2016-01-06T13:59:02Z</time>
      </trkpt>
      <trkpt lat="43.42825" lon="6.10206">
        <ele>276.20001220703</ele>
        <time>2016-01-06T13:59:04Z</time>
      </trkpt>
      <trkpt lat="43.42825" lon="6.10206">
        <ele>276</ele>
        <time>2016-01-06T13:59:06Z</time>
      </trkpt>
      <trkpt lat="43.42825" lon="6.10206">
        <ele>276.20001220703</ele>
        <time>2016-01-06T13:59:08Z</time>
      </trkpt>
      <trkpt lat="43.42825" lon="6.10206">
        <ele>276.20001220703</ele>
        <time>2016-01-06T13:59:10Z</time>
      </trkpt>
      <trkpt lat="43.42825" lon="6.10206">
        <ele>276</ele>
        <time>2016-01-06T13:59:12Z</time>
      </trkpt>
      <trkpt lat="43.42825" lon="6.10206">
        <ele>276.20001220703</ele>
        <time>2016-01-06T13:59:13Z</time>
      </trkpt>
      <trkpt lat="43.42825" lon="6.10206">
        <ele>276.20001220703</ele>
        <time>2016-01-06T13:59:14Z</time>
      </trkpt>
      <trkpt lat="43.42825" lon="6.10206">
        <ele>276</ele>
        <time>2016-01-06T13:59:16Z</time>
      </trkpt>
      <trkpt lat="43.42825" lon="6.10206">
        <ele>276</ele>
        <time>2016-01-06T13:59:18Z</time>
      </trkpt>
      <trkpt lat="43.42825" lon="6.10206">
        <ele>276</ele>
        <time>2016-01-06T13:59:20Z</time>
      </trkpt>
      <trkpt lat="43.42825" lon="6.10206">
        <ele>276</ele>
        <time>2016-01-06T13:59:22Z</time>
      </trkpt>
      <trkpt lat="43.42825" lon="6.10206">
        <ele>276</ele>
        <time>2016-01-06T13:59:24Z</time>
      </trkpt>
      <trkpt lat="43.42825" lon="6.10206">
        <ele>276</ele>
        <time>2016-01-06T13:59:26Z</time>
      </trkpt>
      <trkpt lat="43.42825" lon="6.10206">
        <ele>276</ele>
        <time>2016-01-06T13:59:28Z</time>
      </trkpt>
      <trkpt lat="43.42825" lon="6.10206">
        <ele>276</ele>
        <time>2016-01-06T13:59:30Z</time>
      </trkpt>
      <trkpt lat="43.42825" lon="6.10206">
        <ele>276</ele>
        <time>2016-01-06T13:59:32Z</time>
      </trkpt>
      <trkpt lat="43.42825" lon="6.10206">
        <ele>276.20001220703</ele>
        <time>2016-01-06T13:59:34Z</time>
      </trkpt>
      <trkpt lat="43.42825" lon="6.10206">
        <ele>275.79998779297</ele>
        <time>2016-01-06T13:59:36Z</time>
      </trkpt>
      <trkpt lat="43.42825" lon="6.10207">
        <ele>275.79998779297</ele>
        <time>2016-01-06T13:59:38Z</time>
      </trkpt>
      <trkpt lat="43.42825" lon="6.10207">
        <ele>275.79998779297</ele>
        <time>2016-01-06T13:59:40Z</time>
      </trkpt>
      <trkpt lat="43.42825" lon="6.10207">
        <ele>275.79998779297</ele>
        <time>2016-01-06T13:59:42Z</time>
      </trkpt>
      <trkpt lat="43.42825" lon="6.10207">
        <ele>275.79998779297</ele>
        <time>2016-01-06T13:59:44Z</time>
      </trkpt>
      <trkpt lat="43.42825" lon="6.10207">
        <ele>276</ele>
        <time>2016-01-06T13:59:46Z</time>
      </trkpt>
      <trkpt lat="43.42825" lon="6.10207">
        <ele>275.60000610352</ele>
        <time>2016-01-06T13:59:48Z</time>
      </trkpt>
      <trkpt lat="43.42825" lon="6.10207">
        <ele>275.39999389648</ele>
        <time>2016-01-06T13:59:50Z</time>
      </trkpt>
      <trkpt lat="43.42825" lon="6.10207">
        <ele>275.20001220703</ele>
        <time>2016-01-06T13:59:51Z</time>
      </trkpt>
      <trkpt lat="43.42825" lon="6.10207">
        <ele>275</ele>
        <time>2016-01-06T13:59:52Z</time>
      </trkpt>
      <trkpt lat="43.42825" lon="6.10207">
        <ele>275.20001220703</ele>
        <time>2016-01-06T13:59:54Z</time>
      </trkpt>
      <trkpt lat="43.42825" lon="6.10207">
        <ele>275.20001220703</ele>
        <time>2016-01-06T13:59:56Z</time>
      </trkpt>
      <trkpt lat="43.42825" lon="6.10207">
        <ele>275.39999389648</ele>
        <time>2016-01-06T13:59:58Z</time>
      </trkpt>
      <trkpt lat="43.42826" lon="6.10209">
        <ele>275.20001220703</ele>
        <time>2016-01-06T14:00:00Z</time>
      </trkpt>
      <trkpt lat="43.42829" lon="6.10212">
        <ele>275.39999389648</ele>
        <time>2016-01-06T14:00:02Z</time>
      </trkpt>
      <trkpt lat="43.42833" lon="6.10213">
        <ele>275.79998779297</ele>
        <time>2016-01-06T14:00:04Z</time>
      </trkpt>
      <trkpt lat="43.42834" lon="6.10216">
        <ele>276.39999389648</ele>
        <time>2016-01-06T14:00:06Z</time>
      </trkpt>
      <trkpt lat="43.42834" lon="6.10215">
        <ele>276.60000610352</ele>
        <time>2016-01-06T14:00:07Z</time>
      </trkpt>
      <trkpt lat="43.42833" lon="6.10214">
        <ele>276.60000610352</ele>
        <time>2016-01-06T14:00:08Z</time>
      </trkpt>
      <trkpt lat="43.42832" lon="6.10211">
        <ele>276.60000610352</ele>
        <time>2016-01-06T14:00:10Z</time>
      </trkpt>
      <trkpt lat="43.4283" lon="6.10209">
        <ele>275.79998779297</ele>
        <time>2016-01-06T14:00:12Z</time>
      </trkpt>
      <trkpt lat="43.42829" lon="6.10208">
        <ele>275.39999389648</ele>
        <time>2016-01-06T14:00:13Z</time>
      </trkpt>
      <trkpt lat="43.42827" lon="6.10208">
        <ele>275.60000610352</ele>
        <time>2016-01-06T14:00:14Z</time>
      </trkpt>
      <trkpt lat="43.42827" lon="6.10208">
        <ele>275.60000610352</ele>
        <time>2016-01-06T14:00:16Z</time>
      </trkpt>
      <trkpt lat="43.42826" lon="6.10208">
        <ele>275.60000610352</ele>
        <time>2016-01-06T14:00:18Z</time>
      </trkpt>
      <trkpt lat="43.42826" lon="6.10208">
        <ele>275.79998779297</ele>
        <time>2016-01-06T14:00:20Z</time>
      </trkpt>
      <trkpt lat="43.42826" lon="6.10208">
        <ele>275.60000610352</ele>
        <time>2016-01-06T14:00:22Z</time>
      </trkpt>
      <trkpt lat="43.42826" lon="6.10208">
        <ele>275.60000610352</ele>
        <time>2016-01-06T14:00:24Z</time>
      </trkpt>
      <trkpt lat="43.42826" lon="6.10208">
        <ele>275.79998779297</ele>
        <time>2016-01-06T14:00:25Z</time>
      </trkpt>
      <trkpt lat="43.42826" lon="6.10208">
        <ele>275.79998779297</ele>
        <time>2016-01-06T14:00:26Z</time>
      </trkpt>
      <trkpt lat="43.42826" lon="6.10208">
        <ele>275.60000610352</ele>
        <time>2016-01-06T14:00:28Z</time>
      </trkpt>
      <trkpt lat="43.42826" lon="6.10208">
        <ele>276</ele>
        <time>2016-01-06T14:00:30Z</time>
      </trkpt>
      <trkpt lat="43.42826" lon="6.10208">
        <ele>276</ele>
        <time>2016-01-06T14:00:32Z</time>
      </trkpt>
      <trkpt lat="43.42826" lon="6.10208">
        <ele>275.79998779297</ele>
        <time>2016-01-06T14:00:34Z</time>
      </trkpt>
      <trkpt lat="43.42826" lon="6.10208">
        <ele>275.79998779297</ele>
        <time>2016-01-06T14:00:36Z</time>
      </trkpt>
      <trkpt lat="43.42826" lon="6.10208">
        <ele>275.60000610352</ele>
        <time>2016-01-06T14:00:38Z</time>
      </trkpt>
      <trkpt lat="43.42826" lon="6.10208">
        <ele>275.60000610352</ele>
        <time>2016-01-06T14:00:40Z</time>
      </trkpt>
      <trkpt lat="43.42826" lon="6.10208">
        <ele>275.60000610352</ele>
        <time>2016-01-06T14:00:42Z</time>
      </trkpt>
      <trkpt lat="43.42826" lon="6.10208">
        <ele>275.79998779297</ele>
        <time>2016-01-06T14:00:44Z</time>
      </trkpt>
      <trkpt lat="43.42826" lon="6.10208">
        <ele>275.79998779297</ele>
        <time>2016-01-06T14:00:46Z</time>
      </trkpt>
      <trkpt lat="43.42826" lon="6.10208">
        <ele>276</ele>
        <time>2016-01-06T14:00:48Z</time>
      </trkpt>
      <trkpt lat="43.42826" lon="6.10208">
        <ele>275.79998779297</ele>
        <time>2016-01-06T14:00:50Z</time>
      </trkpt>
      <trkpt lat="43.42826" lon="6.10208">
        <ele>275.79998779297</ele>
        <time>2016-01-06T14:00:52Z</time>
      </trkpt>
      <trkpt lat="43.42828" lon="6.10209">
        <ele>275.60000610352</ele>
        <time>2016-01-06T14:00:53Z</time>
      </trkpt>
      <trkpt lat="43.42829" lon="6.10211">
        <ele>275.60000610352</ele>
        <time>2016-01-06T14:00:54Z</time>
      </trkpt>
      <trkpt lat="43.4283" lon="6.10211">
        <ele>275.79998779297</ele>
        <time>2016-01-06T14:00:55Z</time>
      </trkpt>
      <trkpt lat="43.42832" lon="6.10212">
        <ele>276.39999389648</ele>
        <time>2016-01-06T14:00:56Z</time>
      </trkpt>
      <trkpt lat="43.42833" lon="6.10213">
        <ele>276.60000610352</ele>
        <time>2016-01-06T14:00:57Z</time>
      </trkpt>
      <trkpt lat="43.42834" lon="6.10214">
        <ele>277</ele>
        <time>2016-01-06T14:00:58Z</time>
      </trkpt>
      <trkpt lat="43.42836" lon="6.10217">
        <ele>277.39999389648</ele>
        <time>2016-01-06T14:01:00Z</time>
      </trkpt>
      <trkpt lat="43.42836" lon="6.10218">
        <ele>277.79998779297</ele>
        <time>2016-01-06T14:01:01Z</time>
      </trkpt>
      <trkpt lat="43.42837" lon="6.10219">
        <ele>278.20001220703</ele>
        <time>2016-01-06T14:01:02Z</time>
      </trkpt>
      <trkpt lat="43.42837" lon="6.1022">
        <ele>278.39999389648</ele>
        <time>2016-01-06T14:01:03Z</time>
      </trkpt>
      <trkpt lat="43.42838" lon="6.10222">
        <ele>278.60000610352</ele>
        <time>2016-01-06T14:01:04Z</time>
      </trkpt>
      <trkpt lat="43.42838" lon="6.10226">
        <ele>278.20001220703</ele>
        <time>2016-01-06T14:01:06Z</time>
      </trkpt>
      <trkpt lat="43.42838" lon="6.1023">
        <ele>278.20001220703</ele>
        <time>2016-01-06T14:01:08Z</time>
      </trkpt>
      <trkpt lat="43.42839" lon="6.10233">
        <ele>278</ele>
        <time>2016-01-06T14:01:10Z</time>
      </trkpt>
      <trkpt lat="43.42839" lon="6.10235">
        <ele>278.20001220703</ele>
        <time>2016-01-06T14:01:11Z</time>
      </trkpt>
      <trkpt lat="43.42838" lon="6.10237">
        <ele>278.60000610352</ele>
        <time>2016-01-06T14:01:12Z</time>
      </trkpt>
      <trkpt lat="43.42836" lon="6.10237">
        <ele>278.60000610352</ele>
        <time>2016-01-06T14:01:13Z</time>
      </trkpt>
      <trkpt lat="43.42834" lon="6.10237">
        <ele>278.60000610352</ele>
        <time>2016-01-06T14:01:14Z</time>
      </trkpt>
      <trkpt lat="43.42831" lon="6.10238">
        <ele>278.39999389648</ele>
        <time>2016-01-06T14:01:16Z</time>
      </trkpt>
      <trkpt lat="43.42828" lon="6.1024">
        <ele>278.39999389648</ele>
        <time>2016-01-06T14:01:18Z</time>
      </trkpt>
      <trkpt lat="43.42827" lon="6.10243">
        <ele>278.20001220703</ele>
        <time>2016-01-06T14:01:20Z</time>
      </trkpt>
      <trkpt lat="43.42823" lon="6.10245">
        <ele>277.79998779297</ele>
        <time>2016-01-06T14:01:22Z</time>
      </trkpt>
      <trkpt lat="43.4282" lon="6.10246">
        <ele>277.39999389648</ele>
        <time>2016-01-06T14:01:23Z</time>
      </trkpt>
      <trkpt lat="43.42818" lon="6.10247">
        <ele>277.20001220703</ele>
        <time>2016-01-06T14:01:24Z</time>
      </trkpt>
      <trkpt lat="43.42813" lon="6.10246">
        <ele>276.60000610352</ele>
        <time>2016-01-06T14:01:26Z</time>
      </trkpt>
      <trkpt lat="43.42812" lon="6.10244">
        <ele>276.20001220703</ele>
        <time>2016-01-06T14:01:27Z</time>
      </trkpt>
      <trkpt lat="43.42811" lon="6.10241">
        <ele>276.39999389648</ele>
        <time>2016-01-06T14:01:28Z</time>
      </trkpt>
      <trkpt lat="43.42813" lon="6.10236">
        <ele>276.60000610352</ele>
        <time>2016-01-06T14:01:30Z</time>
      </trkpt>
      <trkpt lat="43.42816" lon="6.10231">
        <ele>276.39999389648</ele>
        <time>2016-01-06T14:01:32Z</time>
      </trkpt>
      <trkpt lat="43.42819" lon="6.10226">
        <ele>276</ele>
        <time>2016-01-06T14:01:34Z</time>
      </trkpt>
      <trkpt lat="43.42822" lon="6.10223">
        <ele>275.60000610352</ele>
        <time>2016-01-06T14:01:36Z</time>
      </trkpt>
      <trkpt lat="43.42824" lon="6.10221">
        <ele>276</ele>
        <time>2016-01-06T14:01:38Z</time>
      </trkpt>
      <trkpt lat="43.42825" lon="6.10219">
        <ele>275.60000610352</ele>
        <time>2016-01-06T14:01:40Z</time>
      </trkpt>
      <trkpt lat="43.42825" lon="6.10218">
        <ele>275.60000610352</ele>
        <time>2016-01-06T14:01:41Z</time>
      </trkpt>
      <trkpt lat="43.42825" lon="6.10217">
        <ele>275.60000610352</ele>
        <time>2016-01-06T14:01:42Z</time>
      </trkpt>
      <trkpt lat="43.42825" lon="6.10217">
        <ele>275.39999389648</ele>
        <time>2016-01-06T14:01:44Z</time>
      </trkpt>
      <trkpt lat="43.42825" lon="6.10216">
        <ele>275.39999389648</ele>
        <time>2016-01-06T14:01:46Z</time>
      </trkpt>
      <trkpt lat="43.42825" lon="6.10215">
        <ele>275.39999389648</ele>
        <time>2016-01-06T14:01:48Z</time>
      </trkpt>
      <trkpt lat="43.42825" lon="6.10214">
        <ele>275.39999389648</ele>
        <time>2016-01-06T14:01:50Z</time>
      </trkpt>
      <trkpt lat="43.42825" lon="6.10214">
        <ele>275.39999389648</ele>
        <time>2016-01-06T14:01:52Z</time>
      </trkpt>
      <trkpt lat="43.42825" lon="6.10214">
        <ele>275.60000610352</ele>
        <time>2016-01-06T14:01:54Z</time>
      </trkpt>
      <trkpt lat="43.42825" lon="6.10214">
        <ele>275.39999389648</ele>
        <time>2016-01-06T14:01:56Z</time>
      </trkpt>
      <trkpt lat="43.42825" lon="6.10214">
        <ele>275.39999389648</ele>
        <time>2016-01-06T14:01:58Z</time>
      </trkpt>
      <trkpt lat="43.42825" lon="6.10214">
        <ele>275.20001220703</ele>
        <time>2016-01-06T14:02:00Z</time>
      </trkpt>
      <trkpt lat="43.42825" lon="6.10214">
        <ele>275.20001220703</ele>
        <time>2016-01-06T14:02:02Z</time>
      </trkpt>
      <trkpt lat="43.42825" lon="6.10214">
        <ele>275.20001220703</ele>
        <time>2016-01-06T14:02:04Z</time>
      </trkpt>
      <trkpt lat="43.42825" lon="6.10214">
        <ele>275.20001220703</ele>
        <time>2016-01-06T14:02:06Z</time>
      </trkpt>
      <trkpt lat="43.42825" lon="6.10214">
        <ele>275</ele>
        <time>2016-01-06T14:02:08Z</time>
      </trkpt>
      <trkpt lat="43.42825" lon="6.10214">
        <ele>275</ele>
        <time>2016-01-06T14:02:10Z</time>
      </trkpt>
      <trkpt lat="43.42825" lon="6.10214">
        <ele>275</ele>
        <time>2016-01-06T14:02:12Z</time>
      </trkpt>
      <trkpt lat="43.42825" lon="6.10214">
        <ele>275.20001220703</ele>
        <time>2016-01-06T14:02:14Z</time>
      </trkpt>
      <trkpt lat="43.42825" lon="6.10214">
        <ele>275.20001220703</ele>
        <time>2016-01-06T14:02:16Z</time>
      </trkpt>
      <trkpt lat="43.42825" lon="6.10214">
        <ele>275.20001220703</ele>
        <time>2016-01-06T14:02:18Z</time>
      </trkpt>
      <trkpt lat="43.42825" lon="6.10214">
        <ele>275.20001220703</ele>
        <time>2016-01-06T14:02:20Z</time>
      </trkpt>
      <trkpt lat="43.42825" lon="6.10214">
        <ele>275</ele>
        <time>2016-01-06T14:02:22Z</time>
      </trkpt>
      <trkpt lat="43.42825" lon="6.10214">
        <ele>274.79998779297</ele>
        <time>2016-01-06T14:02:24Z</time>
      </trkpt>
      <trkpt lat="43.42825" lon="6.10213">
        <ele>275</ele>
        <time>2016-01-06T14:02:26Z</time>
      </trkpt>
      <trkpt lat="43.42825" lon="6.10213">
        <ele>275.20001220703</ele>
        <time>2016-01-06T14:02:28Z</time>
      </trkpt>
      <trkpt lat="43.42825" lon="6.10214">
        <ele>275.20001220703</ele>
        <time>2016-01-06T14:02:30Z</time>
      </trkpt>
      <trkpt lat="43.42825" lon="6.10214">
        <ele>275.39999389648</ele>
        <time>2016-01-06T14:02:32Z</time>
      </trkpt>
      <trkpt lat="43.42825" lon="6.10214">
        <ele>275.20001220703</ele>
        <time>2016-01-06T14:02:34Z</time>
      </trkpt>
      <trkpt lat="43.42825" lon="6.10214">
        <ele>275</ele>
        <time>2016-01-06T14:02:36Z</time>
      </trkpt>
      <trkpt lat="43.42825" lon="6.10214">
        <ele>275.20001220703</ele>
        <time>2016-01-06T14:02:37Z</time>
      </trkpt>
      <trkpt lat="43.42825" lon="6.10214">
        <ele>275.20001220703</ele>
        <time>2016-01-06T14:02:38Z</time>
      </trkpt>
      <trkpt lat="43.42825" lon="6.10214">
        <ele>275</ele>
        <time>2016-01-06T14:02:40Z</time>
      </trkpt>
      <trkpt lat="43.42825" lon="6.10214">
        <ele>275</ele>
        <time>2016-01-06T14:02:42Z</time>
      </trkpt>
      <trkpt lat="43.42825" lon="6.10214">
        <ele>275</ele>
        <time>2016-01-06T14:02:44Z</time>
      </trkpt>
      <trkpt lat="43.42825" lon="6.10214">
        <ele>275</ele>
        <time>2016-01-06T14:02:46Z</time>
      </trkpt>
      <trkpt lat="43.42825" lon="6.10214">
        <ele>275.20001220703</ele>
        <time>2016-01-06T14:02:48Z</time>
      </trkpt>
      <trkpt lat="43.42825" lon="6.10214">
        <ele>275</ele>
        <time>2016-01-06T14:02:50Z</time>
      </trkpt>
      <trkpt lat="43.42825" lon="6.10214">
        <ele>274.79998779297</ele>
        <time>2016-01-06T14:02:52Z</time>
      </trkpt>
      <trkpt lat="43.42825" lon="6.10214">
        <ele>274.79998779297</ele>
        <time>2016-01-06T14:02:54Z</time>
      </trkpt>
      <trkpt lat="43.42825" lon="6.10214">
        <ele>275.20001220703</ele>
        <time>2016-01-06T14:02:56Z</time>
      </trkpt>
      <trkpt lat="43.42825" lon="6.10214">
        <ele>275.60000610352</ele>
        <time>2016-01-06T14:02:58Z</time>
      </trkpt>
      <trkpt lat="43.42825" lon="6.10214">
        <ele>275.79998779297</ele>
        <time>2016-01-06T14:03:00Z</time>
      </trkpt>
      <trkpt lat="43.42825" lon="6.10214">
        <ele>275.60000610352</ele>
        <time>2016-01-06T14:03:02Z</time>
      </trkpt>
      <trkpt lat="43.42825" lon="6.10214">
        <ele>275.60000610352</ele>
        <time>2016-01-06T14:03:04Z</time>
      </trkpt>
      <trkpt lat="43.42825" lon="6.10214">
        <ele>275.60000610352</ele>
        <time>2016-01-06T14:03:06Z</time>
      </trkpt>
      <trkpt lat="43.42825" lon="6.10214">
        <ele>275.79998779297</ele>
        <time>2016-01-06T14:03:07Z</time>
      </trkpt>
      <trkpt lat="43.42825" lon="6.10214">
        <ele>275.79998779297</ele>
        <time>2016-01-06T14:03:08Z</time>
      </trkpt>
      <trkpt lat="43.42825" lon="6.10214">
        <ele>275.79998779297</ele>
        <time>2016-01-06T14:03:10Z</time>
      </trkpt>
      <trkpt lat="43.42825" lon="6.10215">
        <ele>276</ele>
        <time>2016-01-06T14:03:12Z</time>
      </trkpt>
      <trkpt lat="43.42823" lon="6.10216">
        <ele>275.79998779297</ele>
        <time>2016-01-06T14:03:14Z</time>
      </trkpt>
      <trkpt lat="43.42824" lon="6.10216">
        <ele>276</ele>
        <time>2016-01-06T14:03:15Z</time>
      </trkpt>
      <trkpt lat="43.42824" lon="6.10216">
        <ele>276.20001220703</ele>
        <time>2016-01-06T14:03:16Z</time>
      </trkpt>
      <trkpt lat="43.42824" lon="6.10216">
        <ele>276</ele>
        <time>2016-01-06T14:03:18Z</time>
      </trkpt>
      <trkpt lat="43.42823" lon="6.10217">
        <ele>276.20001220703</ele>
        <time>2016-01-06T14:03:20Z</time>
      </trkpt>
      <trkpt lat="43.42823" lon="6.10217">
        <ele>276.20001220703</ele>
        <time>2016-01-06T14:03:22Z</time>
      </trkpt>
      <trkpt lat="43.42823" lon="6.10216">
        <ele>276</ele>
        <time>2016-01-06T14:03:23Z</time>
      </trkpt>
      <trkpt lat="43.42823" lon="6.10216">
        <ele>275.79998779297</ele>
        <time>2016-01-06T14:03:24Z</time>
      </trkpt>
      <trkpt lat="43.42823" lon="6.10216">
        <ele>275.79998779297</ele>
        <time>2016-01-06T14:03:26Z</time>
      </trkpt>
      <trkpt lat="43.42823" lon="6.10216">
        <ele>275.79998779297</ele>
        <time>2016-01-06T14:03:28Z</time>
      </trkpt>
      <trkpt lat="43.42823" lon="6.10216">
        <ele>275.79998779297</ele>
        <time>2016-01-06T14:03:30Z</time>
      </trkpt>
      <trkpt lat="43.42823" lon="6.10216">
        <ele>275.79998779297</ele>
        <time>2016-01-06T14:03:32Z</time>
      </trkpt>
      <trkpt lat="43.42823" lon="6.10216">
        <ele>275.60000610352</ele>
        <time>2016-01-06T14:03:34Z</time>
      </trkpt>
      <trkpt lat="43.42823" lon="6.10216">
        <ele>275.79998779297</ele>
        <time>2016-01-06T14:03:36Z</time>
      </trkpt>
      <trkpt lat="43.42823" lon="6.10216">
        <ele>275.79998779297</ele>
        <time>2016-01-06T14:03:38Z</time>
      </trkpt>
      <trkpt lat="43.42823" lon="6.10216">
        <ele>275.79998779297</ele>
        <time>2016-01-06T14:03:40Z</time>
      </trkpt>
      <trkpt lat="43.42823" lon="6.10216">
        <ele>275.79998779297</ele>
        <time>2016-01-06T14:03:42Z</time>
      </trkpt>
      <trkpt lat="43.42823" lon="6.10216">
        <ele>275.60000610352</ele>
        <time>2016-01-06T14:03:44Z</time>
      </trkpt>
      <trkpt lat="43.42823" lon="6.10216">
        <ele>275.60000610352</ele>
        <time>2016-01-06T14:03:46Z</time>
      </trkpt>
      <trkpt lat="43.42823" lon="6.10216">
        <ele>275.60000610352</ele>
        <time>2016-01-06T14:03:48Z</time>
      </trkpt>
      <trkpt lat="43.42823" lon="6.10216">
        <ele>275.39999389648</ele>
        <time>2016-01-06T14:03:50Z</time>
      </trkpt>
      <trkpt lat="43.42823" lon="6.10216">
        <ele>275.39999389648</ele>
        <time>2016-01-06T14:03:52Z</time>
      </trkpt>
      <trkpt lat="43.42823" lon="6.10216">
        <ele>275.20001220703</ele>
        <time>2016-01-06T14:03:54Z</time>
      </trkpt>
      <trkpt lat="43.42823" lon="6.10216">
        <ele>275</ele>
        <time>2016-01-06T14:03:55Z</time>
      </trkpt>
      <trkpt lat="43.42823" lon="6.10216">
        <ele>275</ele>
        <time>2016-01-06T14:03:56Z</time>
      </trkpt>
      <trkpt lat="43.42823" lon="6.10216">
        <ele>274.79998779297</ele>
        <time>2016-01-06T14:03:58Z</time>
      </trkpt>
      <trkpt lat="43.42823" lon="6.10216">
        <ele>274.79998779297</ele>
        <time>2016-01-06T14:04:00Z</time>
      </trkpt>
      <trkpt lat="43.42823" lon="6.10216">
        <ele>274.79998779297</ele>
        <time>2016-01-06T14:04:02Z</time>
      </trkpt>
      <trkpt lat="43.42823" lon="6.10216">
        <ele>274.79998779297</ele>
        <time>2016-01-06T14:04:03Z</time>
      </trkpt>
      <trkpt lat="43.42823" lon="6.10216">
        <ele>274.79998779297</ele>
        <time>2016-01-06T14:04:04Z</time>
      </trkpt>
      <trkpt lat="43.42823" lon="6.10216">
        <ele>274.60000610352</ele>
        <time>2016-01-06T14:04:06Z</time>
      </trkpt>
      <trkpt lat="43.42823" lon="6.10216">
        <ele>274.60000610352</ele>
        <time>2016-01-06T14:04:08Z</time>
      </trkpt>
      <trkpt lat="43.42823" lon="6.10216">
        <ele>274.79998779297</ele>
        <time>2016-01-06T14:04:10Z</time>
      </trkpt>
      <trkpt lat="43.42823" lon="6.10216">
        <ele>274.60000610352</ele>
        <time>2016-01-06T14:04:12Z</time>
      </trkpt>
      <trkpt lat="43.42823" lon="6.10216">
        <ele>274.39999389648</ele>
        <time>2016-01-06T14:04:14Z</time>
      </trkpt>
      <trkpt lat="43.42823" lon="6.10216">
        <ele>274.39999389648</ele>
        <time>2016-01-06T14:04:16Z</time>
      </trkpt>
      <trkpt lat="43.42823" lon="6.10216">
        <ele>274.60000610352</ele>
        <time>2016-01-06T14:04:18Z</time>
      </trkpt>
      <trkpt lat="43.42823" lon="6.10216">
        <ele>274.60000610352</ele>
        <time>2016-01-06T14:04:19Z</time>
      </trkpt>
      <trkpt lat="43.42823" lon="6.10216">
        <ele>274.60000610352</ele>
        <time>2016-01-06T14:04:20Z</time>
      </trkpt>
      <trkpt lat="43.42823" lon="6.10216">
        <ele>274.60000610352</ele>
        <time>2016-01-06T14:04:22Z</time>
      </trkpt>
      <trkpt lat="43.42823" lon="6.10216">
        <ele>274.60000610352</ele>
        <time>2016-01-06T14:04:24Z</time>
      </trkpt>
      <trkpt lat="43.42823" lon="6.10216">
        <ele>274.60000610352</ele>
        <time>2016-01-06T14:04:26Z</time>
      </trkpt>
      <trkpt lat="43.42823" lon="6.10216">
        <ele>274.79998779297</ele>
        <time>2016-01-06T14:04:28Z</time>
      </trkpt>
      <trkpt lat="43.42823" lon="6.10216">
        <ele>274.79998779297</ele>
        <time>2016-01-06T14:04:30Z</time>
      </trkpt>
      <trkpt lat="43.42823" lon="6.10216">
        <ele>274.79998779297</ele>
        <time>2016-01-06T14:04:32Z</time>
      </trkpt>
      <trkpt lat="43.42823" lon="6.10216">
        <ele>274.79998779297</ele>
        <time>2016-01-06T14:04:34Z</time>
      </trkpt>
      <trkpt lat="43.42823" lon="6.10216">
        <ele>274.79998779297</ele>
        <time>2016-01-06T14:04:36Z</time>
      </trkpt>
      <trkpt lat="43.42823" lon="6.10216">
        <ele>274.79998779297</ele>
        <time>2016-01-06T14:04:38Z</time>
      </trkpt>
      <trkpt lat="43.42823" lon="6.10216">
        <ele>274.60000610352</ele>
        <time>2016-01-06T14:04:40Z</time>
      </trkpt>
      <trkpt lat="43.42823" lon="6.10216">
        <ele>274.60000610352</ele>
        <time>2016-01-06T14:04:42Z</time>
      </trkpt>
      <trkpt lat="43.42823" lon="6.10216">
        <ele>274.39999389648</ele>
        <time>2016-01-06T14:04:44Z</time>
      </trkpt>
      <trkpt lat="43.42823" lon="6.10216">
        <ele>274.60000610352</ele>
        <time>2016-01-06T14:04:46Z</time>
      </trkpt>
      <trkpt lat="43.42823" lon="6.10216">
        <ele>274.79998779297</ele>
        <time>2016-01-06T14:04:48Z</time>
      </trkpt>
      <trkpt lat="43.42823" lon="6.10216">
        <ele>274.79998779297</ele>
        <time>2016-01-06T14:04:50Z</time>
      </trkpt>
      <trkpt lat="43.42823" lon="6.10216">
        <ele>275</ele>
        <time>2016-01-06T14:04:52Z</time>
      </trkpt>
      <trkpt lat="43.42823" lon="6.10216">
        <ele>275.20001220703</ele>
        <time>2016-01-06T14:04:54Z</time>
      </trkpt>
      <trkpt lat="43.42823" lon="6.10216">
        <ele>275.39999389648</ele>
        <time>2016-01-06T14:04:56Z</time>
      </trkpt>
      <trkpt lat="43.42823" lon="6.10216">
        <ele>275.39999389648</ele>
        <time>2016-01-06T14:04:58Z</time>
      </trkpt>
      <trkpt lat="43.42823" lon="6.10216">
        <ele>275.39999389648</ele>
        <time>2016-01-06T14:05:00Z</time>
      </trkpt>
      <trkpt lat="43.42823" lon="6.10216">
        <ele>275.39999389648</ele>
        <time>2016-01-06T14:05:02Z</time>
      </trkpt>
      <trkpt lat="43.42823" lon="6.10216">
        <ele>275.39999389648</ele>
        <time>2016-01-06T14:05:04Z</time>
      </trkpt>
      <trkpt lat="43.42823" lon="6.10216">
        <ele>275.39999389648</ele>
        <time>2016-01-06T14:05:06Z</time>
      </trkpt>
      <trkpt lat="43.42823" lon="6.10216">
        <ele>275.39999389648</ele>
        <time>2016-01-06T14:05:08Z</time>
      </trkpt>
      <trkpt lat="43.42823" lon="6.10216">
        <ele>275.20001220703</ele>
        <time>2016-01-06T14:05:10Z</time>
      </trkpt>
      <trkpt lat="43.42823" lon="6.10216">
        <ele>275.20001220703</ele>
        <time>2016-01-06T14:05:12Z</time>
      </trkpt>
      <trkpt lat="43.42823" lon="6.10216">
        <ele>274.79998779297</ele>
        <time>2016-01-06T14:05:14Z</time>
      </trkpt>
      <trkpt lat="43.42823" lon="6.10216">
        <ele>274.60000610352</ele>
        <time>2016-01-06T14:05:16Z</time>
      </trkpt>
      <trkpt lat="43.42823" lon="6.10216">
        <ele>274.79998779297</ele>
        <time>2016-01-06T14:05:18Z</time>
      </trkpt>
      <trkpt lat="43.42823" lon="6.10216">
        <ele>274.60000610352</ele>
        <time>2016-01-06T14:05:20Z</time>
      </trkpt>
      <trkpt lat="43.42823" lon="6.10216">
        <ele>274.60000610352</ele>
        <time>2016-01-06T14:05:22Z</time>
      </trkpt>
      <trkpt lat="43.42823" lon="6.10216">
        <ele>275</ele>
        <time>2016-01-06T14:05:24Z</time>
      </trkpt>
      <trkpt lat="43.42823" lon="6.10216">
        <ele>275</ele>
        <time>2016-01-06T14:05:26Z</time>
      </trkpt>
      <trkpt lat="43.42823" lon="6.10215">
        <ele>275</ele>
        <time>2016-01-06T14:05:28Z</time>
      </trkpt>
      <trkpt lat="43.42823" lon="6.10215">
        <ele>275</ele>
        <time>2016-01-06T14:05:30Z</time>
      </trkpt>
      <trkpt lat="43.42823" lon="6.10215">
        <ele>275</ele>
        <time>2016-01-06T14:05:32Z</time>
      </trkpt>
      <trkpt lat="43.42823" lon="6.10215">
        <ele>275.20001220703</ele>
        <time>2016-01-06T14:05:34Z</time>
      </trkpt>
      <trkpt lat="43.42823" lon="6.10215">
        <ele>275.39999389648</ele>
        <time>2016-01-06T14:05:36Z</time>
      </trkpt>
      <trkpt lat="43.42823" lon="6.10215">
        <ele>275.20001220703</ele>
        <time>2016-01-06T14:05:38Z</time>
      </trkpt>
      <trkpt lat="43.42823" lon="6.10215">
        <ele>275.20001220703</ele>
        <time>2016-01-06T14:05:40Z</time>
      </trkpt>
      <trkpt lat="43.42823" lon="6.10215">
        <ele>275.20001220703</ele>
        <time>2016-01-06T14:05:42Z</time>
      </trkpt>
      <trkpt lat="43.42823" lon="6.10215">
        <ele>274.79998779297</ele>
        <time>2016-01-06T14:05:44Z</time>
      </trkpt>
      <trkpt lat="43.42823" lon="6.10215">
        <ele>274.79998779297</ele>
        <time>2016-01-06T14:05:46Z</time>
      </trkpt>
      <trkpt lat="43.42823" lon="6.10215">
        <ele>275</ele>
        <time>2016-01-06T14:05:48Z</time>
      </trkpt>
      <trkpt lat="43.42823" lon="6.10215">
        <ele>275.20001220703</ele>
        <time>2016-01-06T14:05:50Z</time>
      </trkpt>
      <trkpt lat="43.42823" lon="6.10215">
        <ele>275</ele>
        <time>2016-01-06T14:05:52Z</time>
      </trkpt>
      <trkpt lat="43.42823" lon="6.10215">
        <ele>275.20001220703</ele>
        <time>2016-01-06T14:05:54Z</time>
      </trkpt>
      <trkpt lat="43.42823" lon="6.10215">
        <ele>275.20001220703</ele>
        <time>2016-01-06T14:05:56Z</time>
      </trkpt>
      <trkpt lat="43.42823" lon="6.10215">
        <ele>275.20001220703</ele>
        <time>2016-01-06T14:05:58Z</time>
      </trkpt>
      <trkpt lat="43.42823" lon="6.10215">
        <ele>275.20001220703</ele>
        <time>2016-01-06T14:06:00Z</time>
      </trkpt>
      <trkpt lat="43.42823" lon="6.10215">
        <ele>275.20001220703</ele>
        <time>2016-01-06T14:06:02Z</time>
      </trkpt>
      <trkpt lat="43.42823" lon="6.10215">
        <ele>275.39999389648</ele>
        <time>2016-01-06T14:06:04Z</time>
      </trkpt>
      <trkpt lat="43.42823" lon="6.10215">
        <ele>275.39999389648</ele>
        <time>2016-01-06T14:06:06Z</time>
      </trkpt>
      <trkpt lat="43.42824" lon="6.10215">
        <ele>275.60000610352</ele>
        <time>2016-01-06T14:06:08Z</time>
      </trkpt>
      <trkpt lat="43.42824" lon="6.10215">
        <ele>275.60000610352</ele>
        <time>2016-01-06T14:06:10Z</time>
      </trkpt>
      <trkpt lat="43.42824" lon="6.10215">
        <ele>275.60000610352</ele>
        <time>2016-01-06T14:06:11Z</time>
      </trkpt>
      <trkpt lat="43.42825" lon="6.10215">
        <ele>275.39999389648</ele>
        <time>2016-01-06T14:06:12Z</time>
      </trkpt>
      <trkpt lat="43.42825" lon="6.10215">
        <ele>275.20001220703</ele>
        <time>2016-01-06T14:06:13Z</time>
      </trkpt>
      <trkpt lat="43.42826" lon="6.10214">
        <ele>275</ele>
        <time>2016-01-06T14:06:14Z</time>
      </trkpt>
      <trkpt lat="43.42826" lon="6.10212">
        <ele>274.79998779297</ele>
        <time>2016-01-06T14:06:16Z</time>
      </trkpt>
      <trkpt lat="43.42827" lon="6.10211">
        <ele>274.79998779297</ele>
        <time>2016-01-06T14:06:18Z</time>
      </trkpt>
      <trkpt lat="43.42827" lon="6.10211">
        <ele>275.20001220703</ele>
        <time>2016-01-06T14:06:20Z</time>
      </trkpt>
      <trkpt lat="43.42826" lon="6.10211">
        <ele>275.39999389648</ele>
        <time>2016-01-06T14:06:21Z</time>
      </trkpt>
      <trkpt lat="43.42827" lon="6.10211">
        <ele>275.20001220703</ele>
        <time>2016-01-06T14:06:22Z</time>
      </trkpt>
      <trkpt lat="43.42827" lon="6.1021">
        <ele>275.20001220703</ele>
        <time>2016-01-06T14:06:24Z</time>
      </trkpt>
      <trkpt lat="43.42827" lon="6.1021">
        <ele>275.20001220703</ele>
        <time>2016-01-06T14:06:26Z</time>
      </trkpt>
      <trkpt lat="43.42827" lon="6.1021">
        <ele>275.39999389648</ele>
        <time>2016-01-06T14:06:28Z</time>
      </trkpt>
      <trkpt lat="43.42826" lon="6.1021">
        <ele>275.60000610352</ele>
        <time>2016-01-06T14:06:29Z</time>
      </trkpt>
      <trkpt lat="43.42827" lon="6.1021">
        <ele>275.60000610352</ele>
        <time>2016-01-06T14:06:30Z</time>
      </trkpt>
      <trkpt lat="43.42826" lon="6.1021">
        <ele>275.39999389648</ele>
        <time>2016-01-06T14:06:32Z</time>
      </trkpt>
      <trkpt lat="43.42826" lon="6.1021">
        <ele>275.39999389648</ele>
        <time>2016-01-06T14:06:34Z</time>
      </trkpt>
      <trkpt lat="43.42826" lon="6.1021">
        <ele>275.39999389648</ele>
        <time>2016-01-06T14:06:36Z</time>
      </trkpt>
      <trkpt lat="43.42826" lon="6.1021">
        <ele>275.20001220703</ele>
        <time>2016-01-06T14:06:37Z</time>
      </trkpt>
      <trkpt lat="43.42826" lon="6.1021">
        <ele>275.20001220703</ele>
        <time>2016-01-06T14:06:38Z</time>
      </trkpt>
      <trkpt lat="43.42826" lon="6.1021">
        <ele>275</ele>
        <time>2016-01-06T14:06:40Z</time>
      </trkpt>
      <trkpt lat="43.42826" lon="6.1021">
        <ele>275</ele>
        <time>2016-01-06T14:06:42Z</time>
      </trkpt>
      <trkpt lat="43.42826" lon="6.1021">
        <ele>275</ele>
        <time>2016-01-06T14:06:44Z</time>
      </trkpt>
      <trkpt lat="43.42826" lon="6.1021">
        <ele>275.20001220703</ele>
        <time>2016-01-06T14:06:46Z</time>
      </trkpt>
      <trkpt lat="43.42827" lon="6.1021">
        <ele>275.20001220703</ele>
        <time>2016-01-06T14:06:48Z</time>
      </trkpt>
      <trkpt lat="43.42828" lon="6.10211">
        <ele>275</ele>
        <time>2016-01-06T14:06:49Z</time>
      </trkpt>
      <trkpt lat="43.42829" lon="6.10213">
        <ele>275</ele>
        <time>2016-01-06T14:06:50Z</time>
      </trkpt>
      <trkpt lat="43.42832" lon="6.10216">
        <ele>275.39999389648</ele>
        <time>2016-01-06T14:06:52Z</time>
      </trkpt>
      <trkpt lat="43.42834" lon="6.10218">
        <ele>276.20001220703</ele>
        <time>2016-01-06T14:06:54Z</time>
      </trkpt>
      <trkpt lat="43.42834" lon="6.10219">
        <ele>276.79998779297</ele>
        <time>2016-01-06T14:06:55Z</time>
      </trkpt>
      <trkpt lat="43.42834" lon="6.10219">
        <ele>277.20001220703</ele>
        <time>2016-01-06T14:06:56Z</time>
      </trkpt>
      <trkpt lat="43.42834" lon="6.10219">
        <ele>277.60000610352</ele>
        <time>2016-01-06T14:06:58Z</time>
      </trkpt>
      <trkpt lat="43.42835" lon="6.10219">
        <ele>277.60000610352</ele>
        <time>2016-01-06T14:06:59Z</time>
      </trkpt>
      <trkpt lat="43.42835" lon="6.10219">
        <ele>277.60000610352</ele>
        <time>2016-01-06T14:07:00Z</time>
      </trkpt>
      <trkpt lat="43.42834" lon="6.10217">
        <ele>277</ele>
        <time>2016-01-06T14:07:02Z</time>
      </trkpt>
      <trkpt lat="43.42833" lon="6.10216">
        <ele>276.79998779297</ele>
        <time>2016-01-06T14:07:04Z</time>
      </trkpt>
      <trkpt lat="43.42833" lon="6.10215">
        <ele>276.60000610352</ele>
        <time>2016-01-06T14:07:05Z</time>
      </trkpt>
      <trkpt lat="43.42832" lon="6.10213">
        <ele>276.60000610352</ele>
        <time>2016-01-06T14:07:06Z</time>
      </trkpt>
      <trkpt lat="43.4283" lon="6.10211">
        <ele>275.79998779297</ele>
        <time>2016-01-06T14:07:08Z</time>
      </trkpt>
      <trkpt lat="43.4283" lon="6.1021">
        <ele>275.60000610352</ele>
        <time>2016-01-06T14:07:09Z</time>
      </trkpt>
      <trkpt lat="43.42828" lon="6.10209">
        <ele>275.60000610352</ele>
        <time>2016-01-06T14:07:10Z</time>
      </trkpt>
      <trkpt lat="43.42827" lon="6.10209">
        <ele>275.60000610352</ele>
        <time>2016-01-06T14:07:11Z</time>
      </trkpt>
      <trkpt lat="43.42827" lon="6.10209">
        <ele>275.39999389648</ele>
        <time>2016-01-06T14:07:12Z</time>
      </trkpt>
      <trkpt lat="43.42827" lon="6.10209">
        <ele>275.39999389648</ele>
        <time>2016-01-06T14:07:13Z</time>
      </trkpt>
      <trkpt lat="43.42827" lon="6.10209">
        <ele>275.20001220703</ele>
        <time>2016-01-06T14:07:14Z</time>
      </trkpt>
      <trkpt lat="43.42826" lon="6.10208">
        <ele>275.39999389648</ele>
        <time>2016-01-06T14:07:16Z</time>
      </trkpt>
      <trkpt lat="43.42826" lon="6.10208">
        <ele>275.39999389648</ele>
        <time>2016-01-06T14:07:17Z</time>
      </trkpt>
      <trkpt lat="43.42826" lon="6.10208">
        <ele>275.39999389648</ele>
        <time>2016-01-06T14:07:18Z</time>
      </trkpt>
      <trkpt lat="43.42826" lon="6.10208">
        <ele>275.39999389648</ele>
        <time>2016-01-06T14:07:20Z</time>
      </trkpt>
      <trkpt lat="43.42826" lon="6.10208">
        <ele>275.20001220703</ele>
        <time>2016-01-06T14:07:22Z</time>
      </trkpt>
      <trkpt lat="43.42826" lon="6.10208">
        <ele>275</ele>
        <time>2016-01-06T14:07:24Z</time>
      </trkpt>
      <trkpt lat="43.42826" lon="6.10208">
        <ele>275</ele>
        <time>2016-01-06T14:07:26Z</time>
      </trkpt>
      <trkpt lat="43.42826" lon="6.10208">
        <ele>275.20001220703</ele>
        <time>2016-01-06T14:07:28Z</time>
      </trkpt>
      <trkpt lat="43.42826" lon="6.10208">
        <ele>275.39999389648</ele>
        <time>2016-01-06T14:07:30Z</time>
      </trkpt>
      <trkpt lat="43.42826" lon="6.10208">
        <ele>275.39999389648</ele>
        <time>2016-01-06T14:07:31Z</time>
      </trkpt>
      <trkpt lat="43.42826" lon="6.10208">
        <ele>275.39999389648</ele>
        <time>2016-01-06T14:07:32Z</time>
      </trkpt>
      <trkpt lat="43.42826" lon="6.10208">
        <ele>275.20001220703</ele>
        <time>2016-01-06T14:07:34Z</time>
      </trkpt>
      <trkpt lat="43.42826" lon="6.10208">
        <ele>275.39999389648</ele>
        <time>2016-01-06T14:07:36Z</time>
      </trkpt>
      <trkpt lat="43.42826" lon="6.10208">
        <ele>275.60000610352</ele>
        <time>2016-01-06T14:07:38Z</time>
      </trkpt>
      <trkpt lat="43.42826" lon="6.10208">
        <ele>275.60000610352</ele>
        <time>2016-01-06T14:07:40Z</time>
      </trkpt>
      <trkpt lat="43.42826" lon="6.10208">
        <ele>275.60000610352</ele>
        <time>2016-01-06T14:07:42Z</time>
      </trkpt>
      <trkpt lat="43.42827" lon="6.1021">
        <ele>275.60000610352</ele>
        <time>2016-01-06T14:07:44Z</time>
      </trkpt>
      <trkpt lat="43.4283" lon="6.10213">
        <ele>275.60000610352</ele>
        <time>2016-01-06T14:07:46Z</time>
      </trkpt>
      <trkpt lat="43.42831" lon="6.10214">
        <ele>275.79998779297</ele>
        <time>2016-01-06T14:07:47Z</time>
      </trkpt>
      <trkpt lat="43.42832" lon="6.10215">
        <ele>275.79998779297</ele>
        <time>2016-01-06T14:07:48Z</time>
      </trkpt>
      <trkpt lat="43.42833" lon="6.10217">
        <ele>276.20001220703</ele>
        <time>2016-01-06T14:07:49Z</time>
      </trkpt>
      <trkpt lat="43.42833" lon="6.10218">
        <ele>276.79998779297</ele>
        <time>2016-01-06T14:07:50Z</time>
      </trkpt>
      <trkpt lat="43.42834" lon="6.10218">
        <ele>277.20001220703</ele>
        <time>2016-01-06T14:07:52Z</time>
      </trkpt>
      <trkpt lat="43.42834" lon="6.10218">
        <ele>277.39999389648</ele>
        <time>2016-01-06T14:07:54Z</time>
      </trkpt>
      <trkpt lat="43.42834" lon="6.10218">
        <ele>277.20001220703</ele>
        <time>2016-01-06T14:07:56Z</time>
      </trkpt>
      <trkpt lat="43.42834" lon="6.10218">
        <ele>277.20001220703</ele>
        <time>2016-01-06T14:07:58Z</time>
      </trkpt>
      <trkpt lat="43.42833" lon="6.10217">
        <ele>277</ele>
        <time>2016-01-06T14:08:00Z</time>
      </trkpt>
      <trkpt lat="43.42833" lon="6.10216">
        <ele>277</ele>
        <time>2016-01-06T14:08:01Z</time>
      </trkpt>
      <trkpt lat="43.42833" lon="6.10215">
        <ele>276.79998779297</ele>
        <time>2016-01-06T14:08:02Z</time>
      </trkpt>
      <trkpt lat="43.42833" lon="6.10213">
        <ele>276.60000610352</ele>
        <time>2016-01-06T14:08:03Z</time>
      </trkpt>
      <trkpt lat="43.42833" lon="6.10212">
        <ele>276.39999389648</ele>
        <time>2016-01-06T14:08:04Z</time>
      </trkpt>
      <trkpt lat="43.42833" lon="6.10212">
        <ele>276.20001220703</ele>
        <time>2016-01-06T14:08:06Z</time>
      </trkpt>
      <trkpt lat="43.42833" lon="6.10211">
        <ele>276</ele>
        <time>2016-01-06T14:08:08Z</time>
      </trkpt>
      <trkpt lat="43.42833" lon="6.1021">
        <ele>276</ele>
        <time>2016-01-06T14:08:09Z</time>
      </trkpt>
      <trkpt lat="43.42832" lon="6.1021">
        <ele>276.20001220703</ele>
        <time>2016-01-06T14:08:10Z</time>
      </trkpt>
      <trkpt lat="43.42833" lon="6.1021">
        <ele>276.20001220703</ele>
        <time>2016-01-06T14:08:11Z</time>
      </trkpt>
      <trkpt lat="43.42832" lon="6.10211">
        <ele>276.20001220703</ele>
        <time>2016-01-06T14:08:12Z</time>
      </trkpt>
      <trkpt lat="43.42832" lon="6.1021">
        <ele>276.20001220703</ele>
        <time>2016-01-06T14:08:14Z</time>
      </trkpt>
      <trkpt lat="43.42832" lon="6.1021">
        <ele>276</ele>
        <time>2016-01-06T14:08:16Z</time>
      </trkpt>
      <trkpt lat="43.42831" lon="6.10208">
        <ele>275.60000610352</ele>
        <time>2016-01-06T14:08:18Z</time>
      </trkpt>
      <trkpt lat="43.4283" lon="6.10208">
        <ele>275.39999389648</ele>
        <time>2016-01-06T14:08:19Z</time>
      </trkpt>
      <trkpt lat="43.4283" lon="6.10208">
        <ele>275.20001220703</ele>
        <time>2016-01-06T14:08:20Z</time>
      </trkpt>
      <trkpt lat="43.4283" lon="6.10208">
        <ele>275</ele>
        <time>2016-01-06T14:08:22Z</time>
      </trkpt>
      <trkpt lat="43.4283" lon="6.10208">
        <ele>275</ele>
        <time>2016-01-06T14:08:23Z</time>
      </trkpt>
      <trkpt lat="43.4283" lon="6.10208">
        <ele>275.20001220703</ele>
        <time>2016-01-06T14:08:26Z</time>
      </trkpt>
      <trkpt lat="43.4283" lon="6.10208">
        <ele>275.20001220703</ele>
        <time>2016-01-06T14:08:27Z</time>
      </trkpt>
      <trkpt lat="43.42828" lon="6.10207">
        <ele>275</ele>
        <time>2016-01-06T14:08:30Z</time>
      </trkpt>
      <trkpt lat="43.42828" lon="6.10207">
        <ele>275</ele>
        <time>2016-01-06T14:08:32Z</time>
      </trkpt>
      <trkpt lat="43.42828" lon="6.10207">
        <ele>275</ele>
        <time>2016-01-06T14:08:33Z</time>
      </trkpt>
      <trkpt lat="43.42827" lon="6.10207">
        <ele>274.79998779297</ele>
        <time>2016-01-06T14:08:34Z</time>
      </trkpt>
      <trkpt lat="43.42827" lon="6.10207">
        <ele>275</ele>
        <time>2016-01-06T14:08:36Z</time>
      </trkpt>
      <trkpt lat="43.42828" lon="6.10207">
        <ele>275</ele>
        <time>2016-01-06T14:08:38Z</time>
      </trkpt>
      <trkpt lat="43.42828" lon="6.10207">
        <ele>274.79998779297</ele>
        <time>2016-01-06T14:08:40Z</time>
      </trkpt>
      <trkpt lat="43.42828" lon="6.10207">
        <ele>275</ele>
        <time>2016-01-06T14:08:42Z</time>
      </trkpt>
      <trkpt lat="43.42827" lon="6.10207">
        <ele>275</ele>
        <time>2016-01-06T14:08:44Z</time>
      </trkpt>
      <trkpt lat="43.42827" lon="6.10207">
        <ele>275</ele>
        <time>2016-01-06T14:08:46Z</time>
      </trkpt>
      <trkpt lat="43.42828" lon="6.10207">
        <ele>275.20001220703</ele>
        <time>2016-01-06T14:08:48Z</time>
      </trkpt>
      <trkpt lat="43.42827" lon="6.10207">
        <ele>275.20001220703</ele>
        <time>2016-01-06T14:08:50Z</time>
      </trkpt>
      <trkpt lat="43.42827" lon="6.10207">
        <ele>275.39999389648</ele>
        <time>2016-01-06T14:08:52Z</time>
      </trkpt>
      <trkpt lat="43.42828" lon="6.10207">
        <ele>275.39999389648</ele>
        <time>2016-01-06T14:08:54Z</time>
      </trkpt>
      <trkpt lat="43.42828" lon="6.10207">
        <ele>275.39999389648</ele>
        <time>2016-01-06T14:08:56Z</time>
      </trkpt>
      <trkpt lat="43.42828" lon="6.10207">
        <ele>275</ele>
        <time>2016-01-06T14:08:58Z</time>
      </trkpt>
      <trkpt lat="43.42828" lon="6.10207">
        <ele>274.79998779297</ele>
        <time>2016-01-06T14:09:00Z</time>
      </trkpt>
      <trkpt lat="43.42828" lon="6.10207">
        <ele>274.60000610352</ele>
        <time>2016-01-06T14:09:02Z</time>
      </trkpt>
      <trkpt lat="43.42828" lon="6.10207">
        <ele>274.60000610352</ele>
        <time>2016-01-06T14:09:04Z</time>
      </trkpt>
      <trkpt lat="43.42828" lon="6.10207">
        <ele>274.39999389648</ele>
        <time>2016-01-06T14:09:06Z</time>
      </trkpt>
      <trkpt lat="43.42828" lon="6.10207">
        <ele>274.60000610352</ele>
        <time>2016-01-06T14:09:08Z</time>
      </trkpt>
      <trkpt lat="43.42828" lon="6.10207">
        <ele>274.79998779297</ele>
        <time>2016-01-06T14:09:10Z</time>
      </trkpt>
      <trkpt lat="43.42828" lon="6.10207">
        <ele>275</ele>
        <time>2016-01-06T14:09:11Z</time>
      </trkpt>
      <trkpt lat="43.42828" lon="6.10207">
        <ele>275</ele>
        <time>2016-01-06T14:09:12Z</time>
      </trkpt>
      <trkpt lat="43.42828" lon="6.10207">
        <ele>275.20001220703</ele>
        <time>2016-01-06T14:09:14Z</time>
      </trkpt>
      <trkpt lat="43.42828" lon="6.10207">
        <ele>275.20001220703</ele>
        <time>2016-01-06T14:09:16Z</time>
      </trkpt>
      <trkpt lat="43.42828" lon="6.10207">
        <ele>275.20001220703</ele>
        <time>2016-01-06T14:09:18Z</time>
      </trkpt>
      <trkpt lat="43.42828" lon="6.10207">
        <ele>275.20001220703</ele>
        <time>2016-01-06T14:09:20Z</time>
      </trkpt>
      <trkpt lat="43.42828" lon="6.10207">
        <ele>275.20001220703</ele>
        <time>2016-01-06T14:09:22Z</time>
      </trkpt>
      <trkpt lat="43.42828" lon="6.10207">
        <ele>275.20001220703</ele>
        <time>2016-01-06T14:09:24Z</time>
      </trkpt>
      <trkpt lat="43.42828" lon="6.10207">
        <ele>275.20001220703</ele>
        <time>2016-01-06T14:09:26Z</time>
      </trkpt>
      <trkpt lat="43.42828" lon="6.10207">
        <ele>275.20001220703</ele>
        <time>2016-01-06T14:09:28Z</time>
      </trkpt>
      <trkpt lat="43.4283" lon="6.1021">
        <ele>275.20001220703</ele>
        <time>2016-01-06T14:09:30Z</time>
      </trkpt>
      <trkpt lat="43.42833" lon="6.10213">
        <ele>276.39999389648</ele>
        <time>2016-01-06T14:09:32Z</time>
      </trkpt>
      <trkpt lat="43.42834" lon="6.10214">
        <ele>276.60000610352</ele>
        <time>2016-01-06T14:09:33Z</time>
      </trkpt>
      <trkpt lat="43.42835" lon="6.10216">
        <ele>276.79998779297</ele>
        <time>2016-01-06T14:09:34Z</time>
      </trkpt>
      <trkpt lat="43.42836" lon="6.10218">
        <ele>277</ele>
        <time>2016-01-06T14:09:35Z</time>
      </trkpt>
      <trkpt lat="43.42836" lon="6.10219">
        <ele>277.60000610352</ele>
        <time>2016-01-06T14:09:36Z</time>
      </trkpt>
      <trkpt lat="43.42836" lon="6.1022">
        <ele>278</ele>
        <time>2016-01-06T14:09:37Z</time>
      </trkpt>
      <trkpt lat="43.42837" lon="6.10221">
        <ele>278.39999389648</ele>
        <time>2016-01-06T14:09:38Z</time>
      </trkpt>
      <trkpt lat="43.42838" lon="6.10223">
        <ele>278.79998779297</ele>
        <time>2016-01-06T14:09:39Z</time>
      </trkpt>
      <trkpt lat="43.42838" lon="6.10226">
        <ele>278.79998779297</ele>
        <time>2016-01-06T14:09:40Z</time>
      </trkpt>
      <trkpt lat="43.42839" lon="6.10231">
        <ele>278.79998779297</ele>
        <time>2016-01-06T14:09:42Z</time>
      </trkpt>
      <trkpt lat="43.42839" lon="6.10235">
        <ele>278.79998779297</ele>
        <time>2016-01-06T14:09:44Z</time>
      </trkpt>
      <trkpt lat="43.42839" lon="6.10239">
        <ele>278.79998779297</ele>
        <time>2016-01-06T14:09:46Z</time>
      </trkpt>
      <trkpt lat="43.42839" lon="6.10243">
        <ele>278.39999389648</ele>
        <time>2016-01-06T14:09:48Z</time>
      </trkpt>
      <trkpt lat="43.42839" lon="6.10246">
        <ele>278.60000610352</ele>
        <time>2016-01-06T14:09:49Z</time>
      </trkpt>
      <trkpt lat="43.42838" lon="6.10247">
        <ele>278.60000610352</ele>
        <time>2016-01-06T14:09:50Z</time>
      </trkpt>
      <trkpt lat="43.42836" lon="6.10249">
        <ele>278.60000610352</ele>
        <time>2016-01-06T14:09:52Z</time>
      </trkpt>
      <trkpt lat="43.42834" lon="6.10249">
        <ele>278.79998779297</ele>
        <time>2016-01-06T14:09:54Z</time>
      </trkpt>
      <trkpt lat="43.42832" lon="6.1025">
        <ele>279.39999389648</ele>
        <time>2016-01-06T14:09:56Z</time>
      </trkpt>
      <trkpt lat="43.4283" lon="6.1025">
        <ele>279.20001220703</ele>
        <time>2016-01-06T14:09:57Z</time>
      </trkpt>
      <trkpt lat="43.42828" lon="6.10251">
        <ele>279</ele>
        <time>2016-01-06T14:09:58Z</time>
      </trkpt>
      <trkpt lat="43.42824" lon="6.10251">
        <ele>278.39999389648</ele>
        <time>2016-01-06T14:10:00Z</time>
      </trkpt>
      <trkpt lat="43.4282" lon="6.10252">
        <ele>278.39999389648</ele>
        <time>2016-01-06T14:10:02Z</time>
      </trkpt>
      <trkpt lat="43.42818" lon="6.10252">
        <ele>278</ele>
        <time>2016-01-06T14:10:03Z</time>
      </trkpt>
      <trkpt lat="43.42816" lon="6.10253">
        <ele>277.60000610352</ele>
        <time>2016-01-06T14:10:04Z</time>
      </trkpt>
      <trkpt lat="43.42812" lon="6.10256">
        <ele>277</ele>
        <time>2016-01-06T14:10:06Z</time>
      </trkpt>
      <trkpt lat="43.4281" lon="6.10258">
        <ele>277.39999389648</ele>
        <time>2016-01-06T14:10:08Z</time>
      </trkpt>
      <trkpt lat="43.42809" lon="6.10261">
        <ele>277.79998779297</ele>
        <time>2016-01-06T14:10:09Z</time>
      </trkpt>
      <trkpt lat="43.42808" lon="6.10263">
        <ele>278.20001220703</ele>
        <time>2016-01-06T14:10:10Z</time>
      </trkpt>
      <trkpt lat="43.42805" lon="6.1027">
        <ele>278.39999389648</ele>
        <time>2016-01-06T14:10:12Z</time>
      </trkpt>
      <trkpt lat="43.42805" lon="6.10273">
        <ele>278.39999389648</ele>
        <time>2016-01-06T14:10:13Z</time>
      </trkpt>
      <trkpt lat="43.42804" lon="6.10275">
        <ele>278.20001220703</ele>
        <time>2016-01-06T14:10:14Z</time>
      </trkpt>
      <trkpt lat="43.42804" lon="6.1028">
        <ele>278.20001220703</ele>
        <time>2016-01-06T14:10:16Z</time>
      </trkpt>
      <trkpt lat="43.42804" lon="6.10286">
        <ele>278.20001220703</ele>
        <time>2016-01-06T14:10:18Z</time>
      </trkpt>
      <trkpt lat="43.42805" lon="6.10291">
        <ele>278</ele>
        <time>2016-01-06T14:10:20Z</time>
      </trkpt>
      <trkpt lat="43.42806" lon="6.10296">
        <ele>277.79998779297</ele>
        <time>2016-01-06T14:10:22Z</time>
      </trkpt>
      <trkpt lat="43.42808" lon="6.10301">
        <ele>277.60000610352</ele>
        <time>2016-01-06T14:10:24Z</time>
      </trkpt>
      <trkpt lat="43.4281" lon="6.10305">
        <ele>277.60000610352</ele>
        <time>2016-01-06T14:10:26Z</time>
      </trkpt>
      <trkpt lat="43.42812" lon="6.1031">
        <ele>277.60000610352</ele>
        <time>2016-01-06T14:10:28Z</time>
      </trkpt>
      <trkpt lat="43.42813" lon="6.10313">
        <ele>277.60000610352</ele>
        <time>2016-01-06T14:10:29Z</time>
      </trkpt>
      <trkpt lat="43.42814" lon="6.10315">
        <ele>277.60000610352</ele>
        <time>2016-01-06T14:10:30Z</time>
      </trkpt>
      <trkpt lat="43.42816" lon="6.10321">
        <ele>277.39999389648</ele>
        <time>2016-01-06T14:10:32Z</time>
      </trkpt>
      <trkpt lat="43.42819" lon="6.10325">
        <ele>277.20001220703</ele>
        <time>2016-01-06T14:10:34Z</time>
      </trkpt>
      <trkpt lat="43.42821" lon="6.10331">
        <ele>277</ele>
        <time>2016-01-06T14:10:36Z</time>
      </trkpt>
      <trkpt lat="43.42822" lon="6.10334">
        <ele>277</ele>
        <time>2016-01-06T14:10:37Z</time>
      </trkpt>
      <trkpt lat="43.42822" lon="6.10337">
        <ele>277</ele>
        <time>2016-01-06T14:10:38Z</time>
      </trkpt>
      <trkpt lat="43.42823" lon="6.10343">
        <ele>277.39999389648</ele>
        <time>2016-01-06T14:10:40Z</time>
      </trkpt>
      <trkpt lat="43.42823" lon="6.10349">
        <ele>277.60000610352</ele>
        <time>2016-01-06T14:10:42Z</time>
      </trkpt>
      <trkpt lat="43.42823" lon="6.10356">
        <ele>278</ele>
        <time>2016-01-06T14:10:44Z</time>
      </trkpt>
      <trkpt lat="43.42823" lon="6.10359">
        <ele>278.39999389648</ele>
        <time>2016-01-06T14:10:45Z</time>
      </trkpt>
      <trkpt lat="43.42822" lon="6.10362">
        <ele>278.60000610352</ele>
        <time>2016-01-06T14:10:46Z</time>
      </trkpt>
      <trkpt lat="43.42822" lon="6.10364">
        <ele>278.79998779297</ele>
        <time>2016-01-06T14:10:47Z</time>
      </trkpt>
      <trkpt lat="43.42822" lon="6.10367">
        <ele>279</ele>
        <time>2016-01-06T14:10:48Z</time>
      </trkpt>
      <trkpt lat="43.42821" lon="6.10372">
        <ele>279.60000610352</ele>
        <time>2016-01-06T14:10:50Z</time>
      </trkpt>
      <trkpt lat="43.4282" lon="6.10375">
        <ele>279.79998779297</ele>
        <time>2016-01-06T14:10:52Z</time>
      </trkpt>
      <trkpt lat="43.4282" lon="6.10377">
        <ele>280</ele>
        <time>2016-01-06T14:10:54Z</time>
      </trkpt>
      <trkpt lat="43.42819" lon="6.1038">
        <ele>280.20001220703</ele>
        <time>2016-01-06T14:10:56Z</time>
      </trkpt>
      <trkpt lat="43.42818" lon="6.10381">
        <ele>280.20001220703</ele>
        <time>2016-01-06T14:10:57Z</time>
      </trkpt>
      <trkpt lat="43.42818" lon="6.10382">
        <ele>280.20001220703</ele>
        <time>2016-01-06T14:10:58Z</time>
      </trkpt>
      <trkpt lat="43.42817" lon="6.10384">
        <ele>280.39999389648</ele>
        <time>2016-01-06T14:11:00Z</time>
      </trkpt>
      <trkpt lat="43.42817" lon="6.10386">
        <ele>280.39999389648</ele>
        <time>2016-01-06T14:11:02Z</time>
      </trkpt>
      <trkpt lat="43.42816" lon="6.10389">
        <ele>280.60000610352</ele>
        <time>2016-01-06T14:11:04Z</time>
      </trkpt>
      <trkpt lat="43.42817" lon="6.10392">
        <ele>280.79998779297</ele>
        <time>2016-01-06T14:11:06Z</time>
      </trkpt>
      <trkpt lat="43.4282" lon="6.10392">
        <ele>280.79998779297</ele>
        <time>2016-01-06T14:11:08Z</time>
      </trkpt>
      <trkpt lat="43.42822" lon="6.10392">
        <ele>280.60000610352</ele>
        <time>2016-01-06T14:11:10Z</time>
      </trkpt>
      <trkpt lat="43.42824" lon="6.10392">
        <ele>280.60000610352</ele>
        <time>2016-01-06T14:11:12Z</time>
      </trkpt>
      <trkpt lat="43.42825" lon="6.10391">
        <ele>280.60000610352</ele>
        <time>2016-01-06T14:11:13Z</time>
      </trkpt>
      <trkpt lat="43.42826" lon="6.1039">
        <ele>280.60000610352</ele>
        <time>2016-01-06T14:11:14Z</time>
      </trkpt>
      <trkpt lat="43.42826" lon="6.10389">
        <ele>280.79998779297</ele>
        <time>2016-01-06T14:11:15Z</time>
      </trkpt>
      <trkpt lat="43.42827" lon="6.10389">
        <ele>280.79998779297</ele>
        <time>2016-01-06T14:11:16Z</time>
      </trkpt>
      <trkpt lat="43.42827" lon="6.10389">
        <ele>280.60000610352</ele>
        <time>2016-01-06T14:11:18Z</time>
      </trkpt>
      <trkpt lat="43.42827" lon="6.10389">
        <ele>280.60000610352</ele>
        <time>2016-01-06T14:11:19Z</time>
      </trkpt>
      <trkpt lat="43.42827" lon="6.10389">
        <ele>280.60000610352</ele>
        <time>2016-01-06T14:11:20Z</time>
      </trkpt>
      <trkpt lat="43.42827" lon="6.10389">
        <ele>280.60000610352</ele>
        <time>2016-01-06T14:11:22Z</time>
      </trkpt>
      <trkpt lat="43.42827" lon="6.10389">
        <ele>280.20001220703</ele>
        <time>2016-01-06T14:11:24Z</time>
      </trkpt>
      <trkpt lat="43.42827" lon="6.10389">
        <ele>280</ele>
        <time>2016-01-06T14:11:26Z</time>
      </trkpt>
      <trkpt lat="43.42827" lon="6.10389">
        <ele>280</ele>
        <time>2016-01-06T14:11:28Z</time>
      </trkpt>
      <trkpt lat="43.42827" lon="6.10389">
        <ele>280</ele>
        <time>2016-01-06T14:11:30Z</time>
      </trkpt>
      <trkpt lat="43.42827" lon="6.10389">
        <ele>279.79998779297</ele>
        <time>2016-01-06T14:11:32Z</time>
      </trkpt>
      <trkpt lat="43.42827" lon="6.10389">
        <ele>279.79998779297</ele>
        <time>2016-01-06T14:11:34Z</time>
      </trkpt>
      <trkpt lat="43.42827" lon="6.10388">
        <ele>279.79998779297</ele>
        <time>2016-01-06T14:11:36Z</time>
      </trkpt>
      <trkpt lat="43.42827" lon="6.10388">
        <ele>279.79998779297</ele>
        <time>2016-01-06T14:11:38Z</time>
      </trkpt>
      <trkpt lat="43.42827" lon="6.10388">
        <ele>280.20001220703</ele>
        <time>2016-01-06T14:11:40Z</time>
      </trkpt>
      <trkpt lat="43.42827" lon="6.10388">
        <ele>280.39999389648</ele>
        <time>2016-01-06T14:11:42Z</time>
      </trkpt>
      <trkpt lat="43.42827" lon="6.10388">
        <ele>280.39999389648</ele>
        <time>2016-01-06T14:11:44Z</time>
      </trkpt>
      <trkpt lat="43.42827" lon="6.10388">
        <ele>280.39999389648</ele>
        <time>2016-01-06T14:11:46Z</time>
      </trkpt>
      <trkpt lat="43.42827" lon="6.10388">
        <ele>280.60000610352</ele>
        <time>2016-01-06T14:11:48Z</time>
      </trkpt>
      <trkpt lat="43.42827" lon="6.10388">
        <ele>280.79998779297</ele>
        <time>2016-01-06T14:11:49Z</time>
      </trkpt>
      <trkpt lat="43.42827" lon="6.10388">
        <ele>280.79998779297</ele>
        <time>2016-01-06T14:11:50Z</time>
      </trkpt>
      <trkpt lat="43.42827" lon="6.10388">
        <ele>280.60000610352</ele>
        <time>2016-01-06T14:11:52Z</time>
      </trkpt>
      <trkpt lat="43.42827" lon="6.10388">
        <ele>280.79998779297</ele>
        <time>2016-01-06T14:11:54Z</time>
      </trkpt>
      <trkpt lat="43.42827" lon="6.10388">
        <ele>280.79998779297</ele>
        <time>2016-01-06T14:11:56Z</time>
      </trkpt>
      <trkpt lat="43.42827" lon="6.10388">
        <ele>280.79998779297</ele>
        <time>2016-01-06T14:11:58Z</time>
      </trkpt>
      <trkpt lat="43.42827" lon="6.10388">
        <ele>280.60000610352</ele>
        <time>2016-01-06T14:12:00Z</time>
      </trkpt>
      <trkpt lat="43.42827" lon="6.10388">
        <ele>280.79998779297</ele>
        <time>2016-01-06T14:12:02Z</time>
      </trkpt>
      <trkpt lat="43.42827" lon="6.10388">
        <ele>280.79998779297</ele>
        <time>2016-01-06T14:12:04Z</time>
      </trkpt>
      <trkpt lat="43.42827" lon="6.10388">
        <ele>280.79998779297</ele>
        <time>2016-01-06T14:12:06Z</time>
      </trkpt>
      <trkpt lat="43.42827" lon="6.10388">
        <ele>280.60000610352</ele>
        <time>2016-01-06T14:12:08Z</time>
      </trkpt>
      <trkpt lat="43.42827" lon="6.10388">
        <ele>280.60000610352</ele>
        <time>2016-01-06T14:12:10Z</time>
      </trkpt>
      <trkpt lat="43.42827" lon="6.10388">
        <ele>280.60000610352</ele>
        <time>2016-01-06T14:12:12Z</time>
      </trkpt>
      <trkpt lat="43.42827" lon="6.10388">
        <ele>280.60000610352</ele>
        <time>2016-01-06T14:12:14Z</time>
      </trkpt>
      <trkpt lat="43.42827" lon="6.10388">
        <ele>280.39999389648</ele>
        <time>2016-01-06T14:12:16Z</time>
      </trkpt>
      <trkpt lat="43.42827" lon="6.10388">
        <ele>280.20001220703</ele>
        <time>2016-01-06T14:12:18Z</time>
      </trkpt>
      <trkpt lat="43.42827" lon="6.10388">
        <ele>280.39999389648</ele>
        <time>2016-01-06T14:12:20Z</time>
      </trkpt>
      <trkpt lat="43.42827" lon="6.10388">
        <ele>280.39999389648</ele>
        <time>2016-01-06T14:12:22Z</time>
      </trkpt>
      <trkpt lat="43.42827" lon="6.10388">
        <ele>280.39999389648</ele>
        <time>2016-01-06T14:12:24Z</time>
      </trkpt>
      <trkpt lat="43.42827" lon="6.10388">
        <ele>280.20001220703</ele>
        <time>2016-01-06T14:12:26Z</time>
      </trkpt>
      <trkpt lat="43.42827" lon="6.10388">
        <ele>280.39999389648</ele>
        <time>2016-01-06T14:12:28Z</time>
      </trkpt>
      <trkpt lat="43.42827" lon="6.10388">
        <ele>280.39999389648</ele>
        <time>2016-01-06T14:12:30Z</time>
      </trkpt>
      <trkpt lat="43.42827" lon="6.10388">
        <ele>280.20001220703</ele>
        <time>2016-01-06T14:12:32Z</time>
      </trkpt>
      <trkpt lat="43.42827" lon="6.10388">
        <ele>280</ele>
        <time>2016-01-06T14:12:34Z</time>
      </trkpt>
      <trkpt lat="43.42827" lon="6.10388">
        <ele>280</ele>
        <time>2016-01-06T14:12:36Z</time>
      </trkpt>
      <trkpt lat="43.42827" lon="6.10388">
        <ele>280</ele>
        <time>2016-01-06T14:12:38Z</time>
      </trkpt>
      <trkpt lat="43.42827" lon="6.10388">
        <ele>280</ele>
        <time>2016-01-06T14:12:40Z</time>
      </trkpt>
      <trkpt lat="43.42827" lon="6.10388">
        <ele>279.79998779297</ele>
        <time>2016-01-06T14:12:42Z</time>
      </trkpt>
      <trkpt lat="43.42827" lon="6.10388">
        <ele>279.79998779297</ele>
        <time>2016-01-06T14:12:44Z</time>
      </trkpt>
      <trkpt lat="43.42827" lon="6.10388">
        <ele>279.79998779297</ele>
        <time>2016-01-06T14:12:46Z</time>
      </trkpt>
      <trkpt lat="43.42827" lon="6.10388">
        <ele>279.79998779297</ele>
        <time>2016-01-06T14:12:48Z</time>
      </trkpt>
      <trkpt lat="43.42827" lon="6.10388">
        <ele>279.60000610352</ele>
        <time>2016-01-06T14:12:50Z</time>
      </trkpt>
      <trkpt lat="43.42827" lon="6.10388">
        <ele>279.79998779297</ele>
        <time>2016-01-06T14:12:52Z</time>
      </trkpt>
      <trkpt lat="43.42827" lon="6.10388">
        <ele>279.60000610352</ele>
        <time>2016-01-06T14:12:54Z</time>
      </trkpt>
      <trkpt lat="43.42827" lon="6.10388">
        <ele>279.60000610352</ele>
        <time>2016-01-06T14:12:56Z</time>
      </trkpt>
      <trkpt lat="43.42827" lon="6.10388">
        <ele>280</ele>
        <time>2016-01-06T14:12:58Z</time>
      </trkpt>
      <trkpt lat="43.42827" lon="6.10388">
        <ele>279.79998779297</ele>
        <time>2016-01-06T14:13:00Z</time>
      </trkpt>
      <trkpt lat="43.42827" lon="6.10388">
        <ele>279.79998779297</ele>
        <time>2016-01-06T14:13:02Z</time>
      </trkpt>
      <trkpt lat="43.42827" lon="6.10388">
        <ele>280</ele>
        <time>2016-01-06T14:13:04Z</time>
      </trkpt>
      <trkpt lat="43.42827" lon="6.10388">
        <ele>280</ele>
        <time>2016-01-06T14:13:06Z</time>
      </trkpt>
      <trkpt lat="43.42827" lon="6.10388">
        <ele>279.79998779297</ele>
        <time>2016-01-06T14:13:08Z</time>
      </trkpt>
      <trkpt lat="43.42827" lon="6.10388">
        <ele>279.79998779297</ele>
        <time>2016-01-06T14:13:10Z</time>
      </trkpt>
      <trkpt lat="43.42827" lon="6.10388">
        <ele>279.60000610352</ele>
        <time>2016-01-06T14:13:12Z</time>
      </trkpt>
      <trkpt lat="43.42827" lon="6.10388">
        <ele>279.60000610352</ele>
        <time>2016-01-06T14:13:14Z</time>
      </trkpt>
      <trkpt lat="43.42827" lon="6.10388">
        <ele>279.60000610352</ele>
        <time>2016-01-06T14:13:16Z</time>
      </trkpt>
      <trkpt lat="43.42827" lon="6.10388">
        <ele>279.79998779297</ele>
        <time>2016-01-06T14:13:18Z</time>
      </trkpt>
      <trkpt lat="43.42827" lon="6.10388">
        <ele>280</ele>
        <time>2016-01-06T14:13:20Z</time>
      </trkpt>
      <trkpt lat="43.42827" lon="6.10388">
        <ele>280</ele>
        <time>2016-01-06T14:13:22Z</time>
      </trkpt>
      <trkpt lat="43.42827" lon="6.10388">
        <ele>279.79998779297</ele>
        <time>2016-01-06T14:13:24Z</time>
      </trkpt>
      <trkpt lat="43.42827" lon="6.10388">
        <ele>280</ele>
        <time>2016-01-06T14:13:26Z</time>
      </trkpt>
      <trkpt lat="43.42827" lon="6.10388">
        <ele>280.20001220703</ele>
        <time>2016-01-06T14:13:28Z</time>
      </trkpt>
      <trkpt lat="43.42827" lon="6.10388">
        <ele>280</ele>
        <time>2016-01-06T14:13:30Z</time>
      </trkpt>
      <trkpt lat="43.42827" lon="6.10388">
        <ele>280.39999389648</ele>
        <time>2016-01-06T14:13:32Z</time>
      </trkpt>
      <trkpt lat="43.42827" lon="6.10388">
        <ele>280.39999389648</ele>
        <time>2016-01-06T14:13:34Z</time>
      </trkpt>
      <trkpt lat="43.42827" lon="6.10388">
        <ele>280.39999389648</ele>
        <time>2016-01-06T14:13:36Z</time>
      </trkpt>
      <trkpt lat="43.42827" lon="6.10388">
        <ele>280.60000610352</ele>
        <time>2016-01-06T14:13:38Z</time>
      </trkpt>
      <trkpt lat="43.42827" lon="6.10388">
        <ele>280.60000610352</ele>
        <time>2016-01-06T14:13:40Z</time>
      </trkpt>
      <trkpt lat="43.42826" lon="6.10388">
        <ele>280.60000610352</ele>
        <time>2016-01-06T14:13:42Z</time>
      </trkpt>
      <trkpt lat="43.42826" lon="6.10388">
        <ele>280.60000610352</ele>
        <time>2016-01-06T14:13:43Z</time>
      </trkpt>
      <trkpt lat="43.42827" lon="6.10388">
        <ele>280.60000610352</ele>
        <time>2016-01-06T14:13:44Z</time>
      </trkpt>
      <trkpt lat="43.42827" lon="6.10388">
        <ele>280.39999389648</ele>
        <time>2016-01-06T14:13:46Z</time>
      </trkpt>
      <trkpt lat="43.42827" lon="6.10388">
        <ele>280.20001220703</ele>
        <time>2016-01-06T14:13:48Z</time>
      </trkpt>
      <trkpt lat="43.42826" lon="6.10388">
        <ele>280.39999389648</ele>
        <time>2016-01-06T14:13:50Z</time>
      </trkpt>
      <trkpt lat="43.42826" lon="6.10388">
        <ele>280.20001220703</ele>
        <time>2016-01-06T14:13:52Z</time>
      </trkpt>
      <trkpt lat="43.42827" lon="6.10388">
        <ele>280.20001220703</ele>
        <time>2016-01-06T14:13:53Z</time>
      </trkpt>
      <trkpt lat="43.42827" lon="6.10388">
        <ele>280</ele>
        <time>2016-01-06T14:13:54Z</time>
      </trkpt>
      <trkpt lat="43.42826" lon="6.10387">
        <ele>280</ele>
        <time>2016-01-06T14:13:56Z</time>
      </trkpt>
      <trkpt lat="43.42827" lon="6.10387">
        <ele>280</ele>
        <time>2016-01-06T14:13:58Z</time>
      </trkpt>
      <trkpt lat="43.42826" lon="6.10387">
        <ele>280.20001220703</ele>
        <time>2016-01-06T14:14:00Z</time>
      </trkpt>
      <trkpt lat="43.42827" lon="6.10387">
        <ele>280.20001220703</ele>
        <time>2016-01-06T14:14:02Z</time>
      </trkpt>
      <trkpt lat="43.42827" lon="6.10387">
        <ele>280.20001220703</ele>
        <time>2016-01-06T14:14:04Z</time>
      </trkpt>
      <trkpt lat="43.42827" lon="6.10387">
        <ele>280.39999389648</ele>
        <time>2016-01-06T14:14:06Z</time>
      </trkpt>
      <trkpt lat="43.42827" lon="6.10387">
        <ele>280.60000610352</ele>
        <time>2016-01-06T14:14:08Z</time>
      </trkpt>
      <trkpt lat="43.42827" lon="6.10387">
        <ele>280.39999389648</ele>
        <time>2016-01-06T14:14:10Z</time>
      </trkpt>
      <trkpt lat="43.42827" lon="6.10387">
        <ele>280.39999389648</ele>
        <time>2016-01-06T14:14:12Z</time>
      </trkpt>
      <trkpt lat="43.42827" lon="6.10387">
        <ele>280.20001220703</ele>
        <time>2016-01-06T14:14:14Z</time>
      </trkpt>
      <trkpt lat="43.42827" lon="6.10387">
        <ele>280</ele>
        <time>2016-01-06T14:14:16Z</time>
      </trkpt>
      <trkpt lat="43.42827" lon="6.10387">
        <ele>280</ele>
        <time>2016-01-06T14:14:18Z</time>
      </trkpt>
      <trkpt lat="43.42827" lon="6.10387">
        <ele>279.79998779297</ele>
        <time>2016-01-06T14:14:20Z</time>
      </trkpt>
      <trkpt lat="43.42827" lon="6.10387">
        <ele>280</ele>
        <time>2016-01-06T14:14:22Z</time>
      </trkpt>
      <trkpt lat="43.42827" lon="6.10387">
        <ele>280.20001220703</ele>
        <time>2016-01-06T14:14:24Z</time>
      </trkpt>
      <trkpt lat="43.42827" lon="6.10387">
        <ele>280.20001220703</ele>
        <time>2016-01-06T14:14:26Z</time>
      </trkpt>
      <trkpt lat="43.42827" lon="6.10387">
        <ele>280.20001220703</ele>
        <time>2016-01-06T14:14:28Z</time>
      </trkpt>
      <trkpt lat="43.42827" lon="6.10387">
        <ele>280.20001220703</ele>
        <time>2016-01-06T14:14:30Z</time>
      </trkpt>
      <trkpt lat="43.42827" lon="6.10387">
        <ele>280</ele>
        <time>2016-01-06T14:14:32Z</time>
      </trkpt>
      <trkpt lat="43.42827" lon="6.10387">
        <ele>280</ele>
        <time>2016-01-06T14:14:34Z</time>
      </trkpt>
      <trkpt lat="43.42827" lon="6.10387">
        <ele>280.20001220703</ele>
        <time>2016-01-06T14:14:36Z</time>
      </trkpt>
      <trkpt lat="43.42827" lon="6.10387">
        <ele>280</ele>
        <time>2016-01-06T14:14:38Z</time>
      </trkpt>
      <trkpt lat="43.42827" lon="6.10387">
        <ele>280</ele>
        <time>2016-01-06T14:14:40Z</time>
      </trkpt>
      <trkpt lat="43.42827" lon="6.10387">
        <ele>279.79998779297</ele>
        <time>2016-01-06T14:14:42Z</time>
      </trkpt>
      <trkpt lat="43.42827" lon="6.10387">
        <ele>279.79998779297</ele>
        <time>2016-01-06T14:14:44Z</time>
      </trkpt>
      <trkpt lat="43.42827" lon="6.10387">
        <ele>280</ele>
        <time>2016-01-06T14:14:46Z</time>
      </trkpt>
      <trkpt lat="43.42827" lon="6.10387">
        <ele>280</ele>
        <time>2016-01-06T14:14:48Z</time>
      </trkpt>
      <trkpt lat="43.42827" lon="6.10387">
        <ele>280</ele>
        <time>2016-01-06T14:14:50Z</time>
      </trkpt>
      <trkpt lat="43.42827" lon="6.10387">
        <ele>280.39999389648</ele>
        <time>2016-01-06T14:14:54Z</time>
      </trkpt>
      <trkpt lat="43.42827" lon="6.10387">
        <ele>280.39999389648</ele>
        <time>2016-01-06T14:14:56Z</time>
      </trkpt>
      <trkpt lat="43.42828" lon="6.10386">
        <ele>280.79998779297</ele>
        <time>2016-01-06T14:14:58Z</time>
      </trkpt>
      <trkpt lat="43.4283" lon="6.10384">
        <ele>281</ele>
        <time>2016-01-06T14:15:00Z</time>
      </trkpt>
      <trkpt lat="43.42836" lon="6.10378">
        <ele>280.79998779297</ele>
        <time>2016-01-06T14:15:02Z</time>
      </trkpt>
      <trkpt lat="43.42842" lon="6.10374">
        <ele>279.79998779297</ele>
        <time>2016-01-06T14:15:03Z</time>
      </trkpt>
      <trkpt lat="43.42848" lon="6.10369">
        <ele>279.60000610352</ele>
        <time>2016-01-06T14:15:04Z</time>
      </trkpt>
      <trkpt lat="43.42849" lon="6.10367">
        <ele>280</ele>
        <time>2016-01-06T14:15:06Z</time>
      </trkpt>
      <trkpt lat="43.42851" lon="6.10363">
        <ele>280</ele>
        <time>2016-01-06T14:15:08Z</time>
      </trkpt>
      <trkpt lat="43.42849" lon="6.10358">
        <ele>279.60000610352</ele>
        <time>2016-01-06T14:15:10Z</time>
      </trkpt>
      <trkpt lat="43.42844" lon="6.10353">
        <ele>278.79998779297</ele>
        <time>2016-01-06T14:15:12Z</time>
      </trkpt>
      <trkpt lat="43.42839" lon="6.10351">
        <ele>278.20001220703</ele>
        <time>2016-01-06T14:15:14Z</time>
      </trkpt>
      <trkpt lat="43.42838" lon="6.10352">
        <ele>278</ele>
        <time>2016-01-06T14:15:15Z</time>
      </trkpt>
      <trkpt lat="43.42836" lon="6.10354">
        <ele>277.20001220703</ele>
        <time>2016-01-06T14:15:16Z</time>
      </trkpt>
      <trkpt lat="43.42836" lon="6.10357">
        <ele>276.79998779297</ele>
        <time>2016-01-06T14:15:17Z</time>
      </trkpt>
      <trkpt lat="43.42836" lon="6.1036">
        <ele>277</ele>
        <time>2016-01-06T14:15:18Z</time>
      </trkpt>
      <trkpt lat="43.42836" lon="6.10364">
        <ele>277.60000610352</ele>
        <time>2016-01-06T14:15:20Z</time>
      </trkpt>
      <trkpt lat="43.42836" lon="6.10368">
        <ele>277.79998779297</ele>
        <time>2016-01-06T14:15:22Z</time>
      </trkpt>
      <trkpt lat="43.42837" lon="6.10369">
        <ele>277.60000610352</ele>
        <time>2016-01-06T14:15:23Z</time>
      </trkpt>
      <trkpt lat="43.42837" lon="6.1037">
        <ele>277.60000610352</ele>
        <time>2016-01-06T14:15:24Z</time>
      </trkpt>
      <trkpt lat="43.42837" lon="6.10369">
        <ele>277.39999389648</ele>
        <time>2016-01-06T14:15:26Z</time>
      </trkpt>
      <trkpt lat="43.42838" lon="6.10369">
        <ele>277.39999389648</ele>
        <time>2016-01-06T14:15:27Z</time>
      </trkpt>
      <trkpt lat="43.42837" lon="6.10369">
        <ele>277.20001220703</ele>
        <time>2016-01-06T14:15:28Z</time>
      </trkpt>
      <trkpt lat="43.42838" lon="6.10369">
        <ele>276.79998779297</ele>
        <time>2016-01-06T14:15:30Z</time>
      </trkpt>
      <trkpt lat="43.4284" lon="6.10369">
        <ele>277</ele>
        <time>2016-01-06T14:15:32Z</time>
      </trkpt>
      <trkpt lat="43.42841" lon="6.10369">
        <ele>277.20001220703</ele>
        <time>2016-01-06T14:15:33Z</time>
      </trkpt>
      <trkpt lat="43.42842" lon="6.10368">
        <ele>277.20001220703</ele>
        <time>2016-01-06T14:15:34Z</time>
      </trkpt>
      <trkpt lat="43.42841" lon="6.10368">
        <ele>277.20001220703</ele>
        <time>2016-01-06T14:15:36Z</time>
      </trkpt>
      <trkpt lat="43.42841" lon="6.10368">
        <ele>277</ele>
        <time>2016-01-06T14:15:38Z</time>
      </trkpt>
      <trkpt lat="43.42841" lon="6.10368">
        <ele>276.60000610352</ele>
        <time>2016-01-06T14:15:40Z</time>
      </trkpt>
      <trkpt lat="43.42841" lon="6.10368">
        <ele>276.39999389648</ele>
        <time>2016-01-06T14:15:42Z</time>
      </trkpt>
      <trkpt lat="43.42841" lon="6.10368">
        <ele>276.39999389648</ele>
        <time>2016-01-06T14:15:44Z</time>
      </trkpt>
      <trkpt lat="43.42841" lon="6.10368">
        <ele>276.79998779297</ele>
        <time>2016-01-06T14:15:46Z</time>
      </trkpt>
      <trkpt lat="43.42841" lon="6.10368">
        <ele>276.60000610352</ele>
        <time>2016-01-06T14:15:48Z</time>
      </trkpt>
      <trkpt lat="43.42841" lon="6.10368">
        <ele>276.79998779297</ele>
        <time>2016-01-06T14:15:50Z</time>
      </trkpt>
      <trkpt lat="43.42841" lon="6.10368">
        <ele>276.79998779297</ele>
        <time>2016-01-06T14:15:52Z</time>
      </trkpt>
      <trkpt lat="43.42841" lon="6.10368">
        <ele>276.79998779297</ele>
        <time>2016-01-06T14:15:54Z</time>
      </trkpt>
      <trkpt lat="43.42841" lon="6.10368">
        <ele>276.60000610352</ele>
        <time>2016-01-06T14:15:56Z</time>
      </trkpt>
      <trkpt lat="43.42841" lon="6.10368">
        <ele>276.60000610352</ele>
        <time>2016-01-06T14:15:58Z</time>
      </trkpt>
      <trkpt lat="43.42841" lon="6.10368">
        <ele>276.39999389648</ele>
        <time>2016-01-06T14:16:00Z</time>
      </trkpt>
      <trkpt lat="43.42841" lon="6.10368">
        <ele>276.39999389648</ele>
        <time>2016-01-06T14:16:02Z</time>
      </trkpt>
      <trkpt lat="43.42841" lon="6.10368">
        <ele>276.39999389648</ele>
        <time>2016-01-06T14:16:04Z</time>
      </trkpt>
      <trkpt lat="43.42841" lon="6.10368">
        <ele>276.39999389648</ele>
        <time>2016-01-06T14:16:06Z</time>
      </trkpt>
      <trkpt lat="43.42841" lon="6.10368">
        <ele>276.20001220703</ele>
        <time>2016-01-06T14:16:08Z</time>
      </trkpt>
      <trkpt lat="43.42841" lon="6.10368">
        <ele>276.20001220703</ele>
        <time>2016-01-06T14:16:09Z</time>
      </trkpt>
      <trkpt lat="43.42841" lon="6.10368">
        <ele>276.20001220703</ele>
        <time>2016-01-06T14:16:10Z</time>
      </trkpt>
      <trkpt lat="43.42841" lon="6.10368">
        <ele>276.39999389648</ele>
        <time>2016-01-06T14:16:12Z</time>
      </trkpt>
      <trkpt lat="43.42841" lon="6.10368">
        <ele>276.39999389648</ele>
        <time>2016-01-06T14:16:14Z</time>
      </trkpt>
      <trkpt lat="43.42841" lon="6.10368">
        <ele>276.39999389648</ele>
        <time>2016-01-06T14:16:16Z</time>
      </trkpt>
      <trkpt lat="43.42841" lon="6.10368">
        <ele>276.60000610352</ele>
        <time>2016-01-06T14:16:18Z</time>
      </trkpt>
      <trkpt lat="43.42841" lon="6.10368">
        <ele>276.20001220703</ele>
        <time>2016-01-06T14:16:20Z</time>
      </trkpt>
      <trkpt lat="43.42841" lon="6.10368">
        <ele>276.39999389648</ele>
        <time>2016-01-06T14:16:22Z</time>
      </trkpt>
      <trkpt lat="43.42841" lon="6.10368">
        <ele>276.20001220703</ele>
        <time>2016-01-06T14:16:24Z</time>
      </trkpt>
      <trkpt lat="43.42841" lon="6.10368">
        <ele>276.20001220703</ele>
        <time>2016-01-06T14:16:26Z</time>
      </trkpt>
      <trkpt lat="43.42841" lon="6.10368">
        <ele>276.20001220703</ele>
        <time>2016-01-06T14:16:28Z</time>
      </trkpt>
      <trkpt lat="43.42841" lon="6.10368">
        <ele>276</ele>
        <time>2016-01-06T14:16:30Z</time>
      </trkpt>
      <trkpt lat="43.42841" lon="6.10368">
        <ele>276</ele>
        <time>2016-01-06T14:16:32Z</time>
      </trkpt>
      <trkpt lat="43.42841" lon="6.10368">
        <ele>276</ele>
        <time>2016-01-06T14:16:34Z</time>
      </trkpt>
      <trkpt lat="43.42841" lon="6.10368">
        <ele>275.79998779297</ele>
        <time>2016-01-06T14:16:36Z</time>
      </trkpt>
      <trkpt lat="43.42841" lon="6.10368">
        <ele>275.79998779297</ele>
        <time>2016-01-06T14:16:38Z</time>
      </trkpt>
      <trkpt lat="43.42841" lon="6.10368">
        <ele>275.79998779297</ele>
        <time>2016-01-06T14:16:40Z</time>
      </trkpt>
      <trkpt lat="43.42841" lon="6.10368">
        <ele>275.79998779297</ele>
        <time>2016-01-06T14:16:42Z</time>
      </trkpt>
      <trkpt lat="43.42841" lon="6.10368">
        <ele>276</ele>
        <time>2016-01-06T14:16:44Z</time>
      </trkpt>
      <trkpt lat="43.42841" lon="6.10368">
        <ele>276.20001220703</ele>
        <time>2016-01-06T14:16:46Z</time>
      </trkpt>
      <trkpt lat="43.42841" lon="6.10368">
        <ele>276.39999389648</ele>
        <time>2016-01-06T14:16:48Z</time>
      </trkpt>
      <trkpt lat="43.42841" lon="6.10368">
        <ele>276.20001220703</ele>
        <time>2016-01-06T14:16:50Z</time>
      </trkpt>
      <trkpt lat="43.42841" lon="6.10368">
        <ele>276.20001220703</ele>
        <time>2016-01-06T14:16:52Z</time>
      </trkpt>
      <trkpt lat="43.42841" lon="6.10368">
        <ele>276</ele>
        <time>2016-01-06T14:16:54Z</time>
      </trkpt>
      <trkpt lat="43.42841" lon="6.10368">
        <ele>276.20001220703</ele>
        <time>2016-01-06T14:16:56Z</time>
      </trkpt>
      <trkpt lat="43.42841" lon="6.10368">
        <ele>276</ele>
        <time>2016-01-06T14:16:58Z</time>
      </trkpt>
      <trkpt lat="43.42841" lon="6.10368">
        <ele>276.20001220703</ele>
        <time>2016-01-06T14:17:00Z</time>
      </trkpt>
      <trkpt lat="43.42841" lon="6.10368">
        <ele>276.20001220703</ele>
        <time>2016-01-06T14:17:02Z</time>
      </trkpt>
      <trkpt lat="43.42841" lon="6.10368">
        <ele>276.20001220703</ele>
        <time>2016-01-06T14:17:04Z</time>
      </trkpt>
      <trkpt lat="43.42841" lon="6.10368">
        <ele>276.20001220703</ele>
        <time>2016-01-06T14:17:06Z</time>
      </trkpt>
      <trkpt lat="43.42841" lon="6.10368">
        <ele>276</ele>
        <time>2016-01-06T14:17:08Z</time>
      </trkpt>
      <trkpt lat="43.42841" lon="6.10368">
        <ele>276</ele>
        <time>2016-01-06T14:17:10Z</time>
      </trkpt>
      <trkpt lat="43.42841" lon="6.10368">
        <ele>276</ele>
        <time>2016-01-06T14:17:12Z</time>
      </trkpt>
      <trkpt lat="43.42841" lon="6.10368">
        <ele>276</ele>
        <time>2016-01-06T14:17:14Z</time>
      </trkpt>
      <trkpt lat="43.42841" lon="6.10368">
        <ele>276.20001220703</ele>
        <time>2016-01-06T14:17:16Z</time>
      </trkpt>
      <trkpt lat="43.42841" lon="6.10368">
        <ele>276</ele>
        <time>2016-01-06T14:17:18Z</time>
      </trkpt>
      <trkpt lat="43.42841" lon="6.10368">
        <ele>276</ele>
        <time>2016-01-06T14:17:20Z</time>
      </trkpt>
      <trkpt lat="43.42841" lon="6.10368">
        <ele>276</ele>
        <time>2016-01-06T14:17:22Z</time>
      </trkpt>
      <trkpt lat="43.42841" lon="6.10368">
        <ele>276.20001220703</ele>
        <time>2016-01-06T14:17:24Z</time>
      </trkpt>
      <trkpt lat="43.42841" lon="6.10368">
        <ele>276.39999389648</ele>
        <time>2016-01-06T14:17:26Z</time>
      </trkpt>
      <trkpt lat="43.42841" lon="6.10368">
        <ele>276.39999389648</ele>
        <time>2016-01-06T14:17:28Z</time>
      </trkpt>
      <trkpt lat="43.42841" lon="6.10368">
        <ele>276.39999389648</ele>
        <time>2016-01-06T14:17:30Z</time>
      </trkpt>
      <trkpt lat="43.42841" lon="6.10368">
        <ele>276.60000610352</ele>
        <time>2016-01-06T14:17:32Z</time>
      </trkpt>
      <trkpt lat="43.42841" lon="6.10368">
        <ele>276.60000610352</ele>
        <time>2016-01-06T14:17:33Z</time>
      </trkpt>
      <trkpt lat="43.42841" lon="6.10368">
        <ele>276.60000610352</ele>
        <time>2016-01-06T14:17:34Z</time>
      </trkpt>
      <trkpt lat="43.42841" lon="6.10368">
        <ele>276.60000610352</ele>
        <time>2016-01-06T14:17:36Z</time>
      </trkpt>
      <trkpt lat="43.42841" lon="6.10368">
        <ele>276.39999389648</ele>
        <time>2016-01-06T14:17:38Z</time>
      </trkpt>
      <trkpt lat="43.42841" lon="6.10368">
        <ele>276.39999389648</ele>
        <time>2016-01-06T14:17:40Z</time>
      </trkpt>
      <trkpt lat="43.42841" lon="6.10368">
        <ele>276.20001220703</ele>
        <time>2016-01-06T14:17:42Z</time>
      </trkpt>
      <trkpt lat="43.42841" lon="6.10368">
        <ele>276.20001220703</ele>
        <time>2016-01-06T14:17:44Z</time>
      </trkpt>
      <trkpt lat="43.42841" lon="6.10368">
        <ele>276.39999389648</ele>
        <time>2016-01-06T14:17:46Z</time>
      </trkpt>
      <trkpt lat="43.42841" lon="6.10368">
        <ele>276</ele>
        <time>2016-01-06T14:17:48Z</time>
      </trkpt>
      <trkpt lat="43.42841" lon="6.10368">
        <ele>276</ele>
        <time>2016-01-06T14:17:50Z</time>
      </trkpt>
      <trkpt lat="43.42841" lon="6.10368">
        <ele>276</ele>
        <time>2016-01-06T14:17:52Z</time>
      </trkpt>
      <trkpt lat="43.42841" lon="6.10368">
        <ele>276</ele>
        <time>2016-01-06T14:17:54Z</time>
      </trkpt>
      <trkpt lat="43.42841" lon="6.10368">
        <ele>275.79998779297</ele>
        <time>2016-01-06T14:17:56Z</time>
      </trkpt>
      <trkpt lat="43.42841" lon="6.10368">
        <ele>276</ele>
        <time>2016-01-06T14:17:58Z</time>
      </trkpt>
      <trkpt lat="43.42841" lon="6.10368">
        <ele>275.79998779297</ele>
        <time>2016-01-06T14:18:00Z</time>
      </trkpt>
      <trkpt lat="43.42841" lon="6.10368">
        <ele>275.79998779297</ele>
        <time>2016-01-06T14:18:02Z</time>
      </trkpt>
      <trkpt lat="43.42841" lon="6.10368">
        <ele>275.79998779297</ele>
        <time>2016-01-06T14:18:04Z</time>
      </trkpt>
      <trkpt lat="43.42841" lon="6.10368">
        <ele>275.79998779297</ele>
        <time>2016-01-06T14:18:06Z</time>
      </trkpt>
      <trkpt lat="43.42841" lon="6.10368">
        <ele>276</ele>
        <time>2016-01-06T14:18:08Z</time>
      </trkpt>
      <trkpt lat="43.42841" lon="6.10368">
        <ele>276</ele>
        <time>2016-01-06T14:18:10Z</time>
      </trkpt>
      <trkpt lat="43.42841" lon="6.10368">
        <ele>275.79998779297</ele>
        <time>2016-01-06T14:18:12Z</time>
      </trkpt>
      <trkpt lat="43.42841" lon="6.10368">
        <ele>275.79998779297</ele>
        <time>2016-01-06T14:18:14Z</time>
      </trkpt>
      <trkpt lat="43.42841" lon="6.10368">
        <ele>276</ele>
        <time>2016-01-06T14:18:16Z</time>
      </trkpt>
      <trkpt lat="43.42841" lon="6.10368">
        <ele>276</ele>
        <time>2016-01-06T14:18:18Z</time>
      </trkpt>
      <trkpt lat="43.42841" lon="6.10368">
        <ele>276</ele>
        <time>2016-01-06T14:18:20Z</time>
      </trkpt>
      <trkpt lat="43.42841" lon="6.10368">
        <ele>275.60000610352</ele>
        <time>2016-01-06T14:18:22Z</time>
      </trkpt>
      <trkpt lat="43.42841" lon="6.10368">
        <ele>275.60000610352</ele>
        <time>2016-01-06T14:18:24Z</time>
      </trkpt>
      <trkpt lat="43.42841" lon="6.10368">
        <ele>275.60000610352</ele>
        <time>2016-01-06T14:18:26Z</time>
      </trkpt>
      <trkpt lat="43.42841" lon="6.10368">
        <ele>275.79998779297</ele>
        <time>2016-01-06T14:18:28Z</time>
      </trkpt>
      <trkpt lat="43.42841" lon="6.10368">
        <ele>275.79998779297</ele>
        <time>2016-01-06T14:18:30Z</time>
      </trkpt>
      <trkpt lat="43.42841" lon="6.10368">
        <ele>276</ele>
        <time>2016-01-06T14:18:32Z</time>
      </trkpt>
      <trkpt lat="43.42841" lon="6.10368">
        <ele>276.39999389648</ele>
        <time>2016-01-06T14:18:34Z</time>
      </trkpt>
      <trkpt lat="43.42841" lon="6.10368">
        <ele>276</ele>
        <time>2016-01-06T14:18:36Z</time>
      </trkpt>
      <trkpt lat="43.42841" lon="6.10368">
        <ele>275.60000610352</ele>
        <time>2016-01-06T14:18:38Z</time>
      </trkpt>
      <trkpt lat="43.42841" lon="6.10368">
        <ele>275.39999389648</ele>
        <time>2016-01-06T14:18:39Z</time>
      </trkpt>
      <trkpt lat="43.42841" lon="6.10368">
        <ele>275.20001220703</ele>
        <time>2016-01-06T14:18:40Z</time>
      </trkpt>
      <trkpt lat="43.42841" lon="6.10368">
        <ele>275</ele>
        <time>2016-01-06T14:18:42Z</time>
      </trkpt>
      <trkpt lat="43.42841" lon="6.10368">
        <ele>275.39999389648</ele>
        <time>2016-01-06T14:18:44Z</time>
      </trkpt>
      <trkpt lat="43.42841" lon="6.10368">
        <ele>275.60000610352</ele>
        <time>2016-01-06T14:18:46Z</time>
      </trkpt>
      <trkpt lat="43.42841" lon="6.10368">
        <ele>275.60000610352</ele>
        <time>2016-01-06T14:18:48Z</time>
      </trkpt>
      <trkpt lat="43.42841" lon="6.10368">
        <ele>275.39999389648</ele>
        <time>2016-01-06T14:18:50Z</time>
      </trkpt>
      <trkpt lat="43.42841" lon="6.10368">
        <ele>275.20001220703</ele>
        <time>2016-01-06T14:18:52Z</time>
      </trkpt>
      <trkpt lat="43.42841" lon="6.10368">
        <ele>275.39999389648</ele>
        <time>2016-01-06T14:18:54Z</time>
      </trkpt>
      <trkpt lat="43.42841" lon="6.10368">
        <ele>275.60000610352</ele>
        <time>2016-01-06T14:18:56Z</time>
      </trkpt>
      <trkpt lat="43.42841" lon="6.10368">
        <ele>275.79998779297</ele>
        <time>2016-01-06T14:18:58Z</time>
      </trkpt>
      <trkpt lat="43.42841" lon="6.10368">
        <ele>275.79998779297</ele>
        <time>2016-01-06T14:19:00Z</time>
      </trkpt>
      <trkpt lat="43.42841" lon="6.10368">
        <ele>276</ele>
        <time>2016-01-06T14:19:02Z</time>
      </trkpt>
      <trkpt lat="43.42841" lon="6.10368">
        <ele>275.79998779297</ele>
        <time>2016-01-06T14:19:04Z</time>
      </trkpt>
      <trkpt lat="43.42841" lon="6.10368">
        <ele>276</ele>
        <time>2016-01-06T14:19:06Z</time>
      </trkpt>
      <trkpt lat="43.42841" lon="6.10368">
        <ele>276.20001220703</ele>
        <time>2016-01-06T14:19:08Z</time>
      </trkpt>
      <trkpt lat="43.42841" lon="6.10368">
        <ele>276.20001220703</ele>
        <time>2016-01-06T14:19:10Z</time>
      </trkpt>
      <trkpt lat="43.42841" lon="6.10368">
        <ele>276.20001220703</ele>
        <time>2016-01-06T14:19:12Z</time>
      </trkpt>
      <trkpt lat="43.42841" lon="6.10368">
        <ele>276.20001220703</ele>
        <time>2016-01-06T14:19:14Z</time>
      </trkpt>
      <trkpt lat="43.42841" lon="6.10368">
        <ele>276.20001220703</ele>
        <time>2016-01-06T14:19:16Z</time>
      </trkpt>
      <trkpt lat="43.42841" lon="6.10368">
        <ele>276.20001220703</ele>
        <time>2016-01-06T14:19:18Z</time>
      </trkpt>
      <trkpt lat="43.42841" lon="6.10368">
        <ele>276.39999389648</ele>
        <time>2016-01-06T14:19:20Z</time>
      </trkpt>
      <trkpt lat="43.42841" lon="6.10368">
        <ele>276.39999389648</ele>
        <time>2016-01-06T14:19:22Z</time>
      </trkpt>
      <trkpt lat="43.42841" lon="6.10368">
        <ele>276.39999389648</ele>
        <time>2016-01-06T14:19:24Z</time>
      </trkpt>
      <trkpt lat="43.42841" lon="6.10368">
        <ele>276.20001220703</ele>
        <time>2016-01-06T14:19:26Z</time>
      </trkpt>
      <trkpt lat="43.42841" lon="6.10368">
        <ele>276.20001220703</ele>
        <time>2016-01-06T14:19:28Z</time>
      </trkpt>
      <trkpt lat="43.42841" lon="6.10368">
        <ele>276</ele>
        <time>2016-01-06T14:19:30Z</time>
      </trkpt>
      <trkpt lat="43.42841" lon="6.10368">
        <ele>276.20001220703</ele>
        <time>2016-01-06T14:19:32Z</time>
      </trkpt>
      <trkpt lat="43.42841" lon="6.10368">
        <ele>276</ele>
        <time>2016-01-06T14:19:34Z</time>
      </trkpt>
      <trkpt lat="43.42841" lon="6.10368">
        <ele>276.20001220703</ele>
        <time>2016-01-06T14:19:36Z</time>
      </trkpt>
      <trkpt lat="43.42841" lon="6.10368">
        <ele>276.20001220703</ele>
        <time>2016-01-06T14:19:38Z</time>
      </trkpt>
      <trkpt lat="43.42841" lon="6.10368">
        <ele>276</ele>
        <time>2016-01-06T14:19:40Z</time>
      </trkpt>
      <trkpt lat="43.42841" lon="6.10368">
        <ele>276</ele>
        <time>2016-01-06T14:19:42Z</time>
      </trkpt>
      <trkpt lat="43.42841" lon="6.10368">
        <ele>276</ele>
        <time>2016-01-06T14:19:44Z</time>
      </trkpt>
      <trkpt lat="43.42841" lon="6.10368">
        <ele>276</ele>
        <time>2016-01-06T14:19:46Z</time>
      </trkpt>
      <trkpt lat="43.42841" lon="6.10368">
        <ele>275.79998779297</ele>
        <time>2016-01-06T14:19:48Z</time>
      </trkpt>
      <trkpt lat="43.42841" lon="6.10368">
        <ele>275.79998779297</ele>
        <time>2016-01-06T14:19:50Z</time>
      </trkpt>
      <trkpt lat="43.42841" lon="6.10368">
        <ele>275.79998779297</ele>
        <time>2016-01-06T14:19:52Z</time>
      </trkpt>
      <trkpt lat="43.42841" lon="6.10368">
        <ele>275.79998779297</ele>
        <time>2016-01-06T14:19:54Z</time>
      </trkpt>
      <trkpt lat="43.42841" lon="6.10368">
        <ele>275.79998779297</ele>
        <time>2016-01-06T14:19:56Z</time>
      </trkpt>
      <trkpt lat="43.42841" lon="6.10368">
        <ele>275.79998779297</ele>
        <time>2016-01-06T14:19:58Z</time>
      </trkpt>
      <trkpt lat="43.42841" lon="6.10368">
        <ele>276</ele>
        <time>2016-01-06T14:20:00Z</time>
      </trkpt>
      <trkpt lat="43.42841" lon="6.10368">
        <ele>275.79998779297</ele>
        <time>2016-01-06T14:20:02Z</time>
      </trkpt>
      <trkpt lat="43.42841" lon="6.10368">
        <ele>275.79998779297</ele>
        <time>2016-01-06T14:20:04Z</time>
      </trkpt>
      <trkpt lat="43.42841" lon="6.10368">
        <ele>275.60000610352</ele>
        <time>2016-01-06T14:20:06Z</time>
      </trkpt>
      <trkpt lat="43.42841" lon="6.10368">
        <ele>275.60000610352</ele>
        <time>2016-01-06T14:20:08Z</time>
      </trkpt>
      <trkpt lat="43.42841" lon="6.10368">
        <ele>275.60000610352</ele>
        <time>2016-01-06T14:20:10Z</time>
      </trkpt>
      <trkpt lat="43.42841" lon="6.10368">
        <ele>275.79998779297</ele>
        <time>2016-01-06T14:20:12Z</time>
      </trkpt>
      <trkpt lat="43.42841" lon="6.10368">
        <ele>276</ele>
        <time>2016-01-06T14:20:14Z</time>
      </trkpt>
      <trkpt lat="43.42841" lon="6.10368">
        <ele>276</ele>
        <time>2016-01-06T14:20:16Z</time>
      </trkpt>
      <trkpt lat="43.42841" lon="6.10368">
        <ele>275.79998779297</ele>
        <time>2016-01-06T14:20:18Z</time>
      </trkpt>
      <trkpt lat="43.42841" lon="6.10368">
        <ele>275.79998779297</ele>
        <time>2016-01-06T14:20:20Z</time>
      </trkpt>
      <trkpt lat="43.42841" lon="6.10368">
        <ele>275.79998779297</ele>
        <time>2016-01-06T14:20:22Z</time>
      </trkpt>
      <trkpt lat="43.42841" lon="6.10368">
        <ele>275.79998779297</ele>
        <time>2016-01-06T14:20:24Z</time>
      </trkpt>
      <trkpt lat="43.42841" lon="6.10368">
        <ele>276</ele>
        <time>2016-01-06T14:20:26Z</time>
      </trkpt>
      <trkpt lat="43.42841" lon="6.10368">
        <ele>275.79998779297</ele>
        <time>2016-01-06T14:20:28Z</time>
      </trkpt>
      <trkpt lat="43.42841" lon="6.10368">
        <ele>275.79998779297</ele>
        <time>2016-01-06T14:20:30Z</time>
      </trkpt>
      <trkpt lat="43.42841" lon="6.10368">
        <ele>275.79998779297</ele>
        <time>2016-01-06T14:20:32Z</time>
      </trkpt>
      <trkpt lat="43.42841" lon="6.10368">
        <ele>276.20001220703</ele>
        <time>2016-01-06T14:20:34Z</time>
      </trkpt>
      <trkpt lat="43.42841" lon="6.10368">
        <ele>276.60000610352</ele>
        <time>2016-01-06T14:20:36Z</time>
      </trkpt>
      <trkpt lat="43.42841" lon="6.10369">
        <ele>276.79998779297</ele>
        <time>2016-01-06T14:20:37Z</time>
      </trkpt>
      <trkpt lat="43.42841" lon="6.10369">
        <ele>276.79998779297</ele>
        <time>2016-01-06T14:20:38Z</time>
      </trkpt>
      <trkpt lat="43.42841" lon="6.10369">
        <ele>276.79998779297</ele>
        <time>2016-01-06T14:20:40Z</time>
      </trkpt>
      <trkpt lat="43.42841" lon="6.10369">
        <ele>276.60000610352</ele>
        <time>2016-01-06T14:20:42Z</time>
      </trkpt>
      <trkpt lat="43.42841" lon="6.10369">
        <ele>276.79998779297</ele>
        <time>2016-01-06T14:20:44Z</time>
      </trkpt>
      <trkpt lat="43.42841" lon="6.10369">
        <ele>276.60000610352</ele>
        <time>2016-01-06T14:20:46Z</time>
      </trkpt>
      <trkpt lat="43.42841" lon="6.10369">
        <ele>276.79998779297</ele>
        <time>2016-01-06T14:20:48Z</time>
      </trkpt>
      <trkpt lat="43.42841" lon="6.10369">
        <ele>276.79998779297</ele>
        <time>2016-01-06T14:20:50Z</time>
      </trkpt>
      <trkpt lat="43.42841" lon="6.10369">
        <ele>276.60000610352</ele>
        <time>2016-01-06T14:20:52Z</time>
      </trkpt>
      <trkpt lat="43.42841" lon="6.10369">
        <ele>276.60000610352</ele>
        <time>2016-01-06T14:20:54Z</time>
      </trkpt>
      <trkpt lat="43.42841" lon="6.10369">
        <ele>276.60000610352</ele>
        <time>2016-01-06T14:20:56Z</time>
      </trkpt>
      <trkpt lat="43.42841" lon="6.10369">
        <ele>276.79998779297</ele>
        <time>2016-01-06T14:20:58Z</time>
      </trkpt>
      <trkpt lat="43.42841" lon="6.10369">
        <ele>277</ele>
        <time>2016-01-06T14:21:00Z</time>
      </trkpt>
      <trkpt lat="43.42841" lon="6.10369">
        <ele>277.39999389648</ele>
        <time>2016-01-06T14:21:02Z</time>
      </trkpt>
      <trkpt lat="43.42841" lon="6.10369">
        <ele>277.20001220703</ele>
        <time>2016-01-06T14:21:04Z</time>
      </trkpt>
      <trkpt lat="43.42841" lon="6.10369">
        <ele>277.39999389648</ele>
        <time>2016-01-06T14:21:06Z</time>
      </trkpt>
      <trkpt lat="43.42841" lon="6.10369">
        <ele>277.60000610352</ele>
        <time>2016-01-06T14:21:08Z</time>
      </trkpt>
      <trkpt lat="43.42841" lon="6.10369">
        <ele>277.79998779297</ele>
        <time>2016-01-06T14:21:09Z</time>
      </trkpt>
      <trkpt lat="43.42841" lon="6.10369">
        <ele>278</ele>
        <time>2016-01-06T14:21:10Z</time>
      </trkpt>
      <trkpt lat="43.42841" lon="6.10369">
        <ele>278</ele>
        <time>2016-01-06T14:21:12Z</time>
      </trkpt>
      <trkpt lat="43.42841" lon="6.10369">
        <ele>278.20001220703</ele>
        <time>2016-01-06T14:21:14Z</time>
      </trkpt>
      <trkpt lat="43.42841" lon="6.10369">
        <ele>277.79998779297</ele>
        <time>2016-01-06T14:21:16Z</time>
      </trkpt>
      <trkpt lat="43.42841" lon="6.10369">
        <ele>277.60000610352</ele>
        <time>2016-01-06T14:21:18Z</time>
      </trkpt>
      <trkpt lat="43.42841" lon="6.10369">
        <ele>277.39999389648</ele>
        <time>2016-01-06T14:21:20Z</time>
      </trkpt>
      <trkpt lat="43.42841" lon="6.10369">
        <ele>277.20001220703</ele>
        <time>2016-01-06T14:21:22Z</time>
      </trkpt>
      <trkpt lat="43.42841" lon="6.10369">
        <ele>277.39999389648</ele>
        <time>2016-01-06T14:21:24Z</time>
      </trkpt>
      <trkpt lat="43.42841" lon="6.10369">
        <ele>277.39999389648</ele>
        <time>2016-01-06T14:21:26Z</time>
      </trkpt>
      <trkpt lat="43.42841" lon="6.10369">
        <ele>277.39999389648</ele>
        <time>2016-01-06T14:21:28Z</time>
      </trkpt>
      <trkpt lat="43.42841" lon="6.10369">
        <ele>277.39999389648</ele>
        <time>2016-01-06T14:21:30Z</time>
      </trkpt>
      <trkpt lat="43.42841" lon="6.10369">
        <ele>277.39999389648</ele>
        <time>2016-01-06T14:21:31Z</time>
      </trkpt>
      <trkpt lat="43.42841" lon="6.10369">
        <ele>277.39999389648</ele>
        <time>2016-01-06T14:21:32Z</time>
      </trkpt>
      <trkpt lat="43.42841" lon="6.10369">
        <ele>277.20001220703</ele>
        <time>2016-01-06T14:21:34Z</time>
      </trkpt>
      <trkpt lat="43.42841" lon="6.10369">
        <ele>277.20001220703</ele>
        <time>2016-01-06T14:21:36Z</time>
      </trkpt>
      <trkpt lat="43.42841" lon="6.10369">
        <ele>277</ele>
        <time>2016-01-06T14:21:38Z</time>
      </trkpt>
      <trkpt lat="43.42841" lon="6.10369">
        <ele>277</ele>
        <time>2016-01-06T14:21:40Z</time>
      </trkpt>
      <trkpt lat="43.42841" lon="6.10369">
        <ele>277</ele>
        <time>2016-01-06T14:21:42Z</time>
      </trkpt>
      <trkpt lat="43.42841" lon="6.10369">
        <ele>276.79998779297</ele>
        <time>2016-01-06T14:21:44Z</time>
      </trkpt>
      <trkpt lat="43.42841" lon="6.10369">
        <ele>276.79998779297</ele>
        <time>2016-01-06T14:21:46Z</time>
      </trkpt>
      <trkpt lat="43.42841" lon="6.10369">
        <ele>276.79998779297</ele>
        <time>2016-01-06T14:21:47Z</time>
      </trkpt>
      <trkpt lat="43.42841" lon="6.10369">
        <ele>277</ele>
        <time>2016-01-06T14:21:48Z</time>
      </trkpt>
      <trkpt lat="43.42841" lon="6.10369">
        <ele>277</ele>
        <time>2016-01-06T14:21:50Z</time>
      </trkpt>
      <trkpt lat="43.42841" lon="6.10369">
        <ele>276.79998779297</ele>
        <time>2016-01-06T14:21:52Z</time>
      </trkpt>
      <trkpt lat="43.42841" lon="6.10369">
        <ele>276.79998779297</ele>
        <time>2016-01-06T14:21:54Z</time>
      </trkpt>
      <trkpt lat="43.42841" lon="6.1037">
        <ele>276.60000610352</ele>
        <time>2016-01-06T14:21:56Z</time>
      </trkpt>
      <trkpt lat="43.42838" lon="6.10374">
        <ele>276.79998779297</ele>
        <time>2016-01-06T14:21:58Z</time>
      </trkpt>
      <trkpt lat="43.42836" lon="6.10376">
        <ele>277.20001220703</ele>
        <time>2016-01-06T14:21:59Z</time>
      </trkpt>
      <trkpt lat="43.42834" lon="6.10377">
        <ele>277.79998779297</ele>
        <time>2016-01-06T14:22:00Z</time>
      </trkpt>
      <trkpt lat="43.42832" lon="6.10378">
        <ele>278</ele>
        <time>2016-01-06T14:22:01Z</time>
      </trkpt>
      <trkpt lat="43.42831" lon="6.10379">
        <ele>278.20001220703</ele>
        <time>2016-01-06T14:22:02Z</time>
      </trkpt>
      <trkpt lat="43.4283" lon="6.10381">
        <ele>278.60000610352</ele>
        <time>2016-01-06T14:22:03Z</time>
      </trkpt>
      <trkpt lat="43.42828" lon="6.10383">
        <ele>279.20001220703</ele>
        <time>2016-01-06T14:22:04Z</time>
      </trkpt>
      <trkpt lat="43.42827" lon="6.10384">
        <ele>279.60000610352</ele>
        <time>2016-01-06T14:22:05Z</time>
      </trkpt>
      <trkpt lat="43.42826" lon="6.10384">
        <ele>279.79998779297</ele>
        <time>2016-01-06T14:22:06Z</time>
      </trkpt>
      <trkpt lat="43.42825" lon="6.10384">
        <ele>280</ele>
        <time>2016-01-06T14:22:07Z</time>
      </trkpt>
      <trkpt lat="43.42824" lon="6.10385">
        <ele>280</ele>
        <time>2016-01-06T14:22:08Z</time>
      </trkpt>
      <trkpt lat="43.42824" lon="6.10385">
        <ele>280.20001220703</ele>
        <time>2016-01-06T14:22:10Z</time>
      </trkpt>
      <trkpt lat="43.42824" lon="6.10385">
        <ele>280.20001220703</ele>
        <time>2016-01-06T14:22:11Z</time>
      </trkpt>
      <trkpt lat="43.42824" lon="6.10386">
        <ele>280.20001220703</ele>
        <time>2016-01-06T14:22:12Z</time>
      </trkpt>
      <trkpt lat="43.42824" lon="6.10386">
        <ele>280.20001220703</ele>
        <time>2016-01-06T14:22:14Z</time>
      </trkpt>
      <trkpt lat="43.42824" lon="6.10386">
        <ele>280.20001220703</ele>
        <time>2016-01-06T14:22:16Z</time>
      </trkpt>
      <trkpt lat="43.42824" lon="6.10386">
        <ele>280.20001220703</ele>
        <time>2016-01-06T14:22:18Z</time>
      </trkpt>
      <trkpt lat="43.42824" lon="6.10386">
        <ele>280</ele>
        <time>2016-01-06T14:22:20Z</time>
      </trkpt>
      <trkpt lat="43.42824" lon="6.10386">
        <ele>280</ele>
        <time>2016-01-06T14:22:22Z</time>
      </trkpt>
      <trkpt lat="43.42824" lon="6.10386">
        <ele>280</ele>
        <time>2016-01-06T14:22:24Z</time>
      </trkpt>
      <trkpt lat="43.42824" lon="6.10386">
        <ele>280</ele>
        <time>2016-01-06T14:22:26Z</time>
      </trkpt>
      <trkpt lat="43.42824" lon="6.10386">
        <ele>279.79998779297</ele>
        <time>2016-01-06T14:22:28Z</time>
      </trkpt>
      <trkpt lat="43.42824" lon="6.10386">
        <ele>280</ele>
        <time>2016-01-06T14:22:30Z</time>
      </trkpt>
      <trkpt lat="43.42824" lon="6.10386">
        <ele>280.20001220703</ele>
        <time>2016-01-06T14:22:32Z</time>
      </trkpt>
      <trkpt lat="43.42824" lon="6.10386">
        <ele>280.20001220703</ele>
        <time>2016-01-06T14:22:34Z</time>
      </trkpt>
      <trkpt lat="43.42824" lon="6.10386">
        <ele>280.60000610352</ele>
        <time>2016-01-06T14:22:36Z</time>
      </trkpt>
      <trkpt lat="43.42824" lon="6.10386">
        <ele>280.39999389648</ele>
        <time>2016-01-06T14:22:38Z</time>
      </trkpt>
      <trkpt lat="43.42824" lon="6.10386">
        <ele>280.39999389648</ele>
        <time>2016-01-06T14:22:40Z</time>
      </trkpt>
      <trkpt lat="43.42824" lon="6.10386">
        <ele>280.39999389648</ele>
        <time>2016-01-06T14:22:42Z</time>
      </trkpt>
      <trkpt lat="43.42824" lon="6.10386">
        <ele>280.60000610352</ele>
        <time>2016-01-06T14:22:44Z</time>
      </trkpt>
      <trkpt lat="43.42824" lon="6.10386">
        <ele>280.60000610352</ele>
        <time>2016-01-06T14:22:46Z</time>
      </trkpt>
      <trkpt lat="43.42824" lon="6.10386">
        <ele>280.39999389648</ele>
        <time>2016-01-06T14:22:48Z</time>
      </trkpt>
      <trkpt lat="43.42824" lon="6.10386">
        <ele>280.60000610352</ele>
        <time>2016-01-06T14:22:50Z</time>
      </trkpt>
      <trkpt lat="43.42824" lon="6.10386">
        <ele>281.20001220703</ele>
        <time>2016-01-06T14:22:52Z</time>
      </trkpt>
      <trkpt lat="43.42824" lon="6.10386">
        <ele>281.20001220703</ele>
        <time>2016-01-06T14:22:54Z</time>
      </trkpt>
      <trkpt lat="43.42824" lon="6.10386">
        <ele>281</ele>
        <time>2016-01-06T14:22:55Z</time>
      </trkpt>
      <trkpt lat="43.42824" lon="6.10386">
        <ele>280.79998779297</ele>
        <time>2016-01-06T14:22:56Z</time>
      </trkpt>
      <trkpt lat="43.42824" lon="6.10386">
        <ele>280.20001220703</ele>
        <time>2016-01-06T14:22:58Z</time>
      </trkpt>
      <trkpt lat="43.42824" lon="6.10386">
        <ele>280</ele>
        <time>2016-01-06T14:23:00Z</time>
      </trkpt>
      <trkpt lat="43.42824" lon="6.10386">
        <ele>280.39999389648</ele>
        <time>2016-01-06T14:23:02Z</time>
      </trkpt>
      <trkpt lat="43.42824" lon="6.10386">
        <ele>280.20001220703</ele>
        <time>2016-01-06T14:23:04Z</time>
      </trkpt>
      <trkpt lat="43.42824" lon="6.10386">
        <ele>280.39999389648</ele>
        <time>2016-01-06T14:23:06Z</time>
      </trkpt>
      <trkpt lat="43.42824" lon="6.10386">
        <ele>280.60000610352</ele>
        <time>2016-01-06T14:23:08Z</time>
      </trkpt>
      <trkpt lat="43.42824" lon="6.10386">
        <ele>280.20001220703</ele>
        <time>2016-01-06T14:23:10Z</time>
      </trkpt>
      <trkpt lat="43.42824" lon="6.10386">
        <ele>280.39999389648</ele>
        <time>2016-01-06T14:23:12Z</time>
      </trkpt>
      <trkpt lat="43.42824" lon="6.10386">
        <ele>280.20001220703</ele>
        <time>2016-01-06T14:23:14Z</time>
      </trkpt>
      <trkpt lat="43.42824" lon="6.10386">
        <ele>280</ele>
        <time>2016-01-06T14:23:16Z</time>
      </trkpt>
      <trkpt lat="43.42824" lon="6.10386">
        <ele>280</ele>
        <time>2016-01-06T14:23:17Z</time>
      </trkpt>
      <trkpt lat="43.42824" lon="6.10386">
        <ele>280.20001220703</ele>
        <time>2016-01-06T14:23:18Z</time>
      </trkpt>
      <trkpt lat="43.42824" lon="6.10386">
        <ele>280.39999389648</ele>
        <time>2016-01-06T14:23:20Z</time>
      </trkpt>
      <trkpt lat="43.42824" lon="6.10386">
        <ele>280.20001220703</ele>
        <time>2016-01-06T14:23:22Z</time>
      </trkpt>
      <trkpt lat="43.42824" lon="6.10386">
        <ele>280.39999389648</ele>
        <time>2016-01-06T14:23:24Z</time>
      </trkpt>
      <trkpt lat="43.42824" lon="6.10386">
        <ele>280.39999389648</ele>
        <time>2016-01-06T14:23:26Z</time>
      </trkpt>
      <trkpt lat="43.42824" lon="6.10386">
        <ele>280.20001220703</ele>
        <time>2016-01-06T14:23:28Z</time>
      </trkpt>
      <trkpt lat="43.42824" lon="6.10386">
        <ele>280</ele>
        <time>2016-01-06T14:23:30Z</time>
      </trkpt>
      <trkpt lat="43.42824" lon="6.10386">
        <ele>280.20001220703</ele>
        <time>2016-01-06T14:23:32Z</time>
      </trkpt>
      <trkpt lat="43.42824" lon="6.10386">
        <ele>280.20001220703</ele>
        <time>2016-01-06T14:23:33Z</time>
      </trkpt>
      <trkpt lat="43.42824" lon="6.10386">
        <ele>280.20001220703</ele>
        <time>2016-01-06T14:23:34Z</time>
      </trkpt>
      <trkpt lat="43.42824" lon="6.10386">
        <ele>280</ele>
        <time>2016-01-06T14:23:36Z</time>
      </trkpt>
      <trkpt lat="43.42824" lon="6.10386">
        <ele>280.20001220703</ele>
        <time>2016-01-06T14:23:38Z</time>
      </trkpt>
      <trkpt lat="43.42824" lon="6.10386">
        <ele>280.20001220703</ele>
        <time>2016-01-06T14:23:40Z</time>
      </trkpt>
      <trkpt lat="43.42824" lon="6.10386">
        <ele>280.39999389648</ele>
        <time>2016-01-06T14:23:42Z</time>
      </trkpt>
      <trkpt lat="43.42824" lon="6.10386">
        <ele>280.39999389648</ele>
        <time>2016-01-06T14:23:44Z</time>
      </trkpt>
      <trkpt lat="43.42824" lon="6.10386">
        <ele>280.39999389648</ele>
        <time>2016-01-06T14:23:46Z</time>
      </trkpt>
      <trkpt lat="43.42824" lon="6.10386">
        <ele>280.20001220703</ele>
        <time>2016-01-06T14:23:48Z</time>
      </trkpt>
      <trkpt lat="43.42824" lon="6.10386">
        <ele>280.20001220703</ele>
        <time>2016-01-06T14:23:50Z</time>
      </trkpt>
      <trkpt lat="43.42824" lon="6.10386">
        <ele>280</ele>
        <time>2016-01-06T14:23:52Z</time>
      </trkpt>
      <trkpt lat="43.42824" lon="6.10386">
        <ele>279.60000610352</ele>
        <time>2016-01-06T14:23:54Z</time>
      </trkpt>
      <trkpt lat="43.42824" lon="6.10386">
        <ele>279.79998779297</ele>
        <time>2016-01-06T14:23:56Z</time>
      </trkpt>
      <trkpt lat="43.42824" lon="6.10386">
        <ele>280</ele>
        <time>2016-01-06T14:23:58Z</time>
      </trkpt>
      <trkpt lat="43.42824" lon="6.10386">
        <ele>279.79998779297</ele>
        <time>2016-01-06T14:24:00Z</time>
      </trkpt>
      <trkpt lat="43.42824" lon="6.10386">
        <ele>279.79998779297</ele>
        <time>2016-01-06T14:24:01Z</time>
      </trkpt>
      <trkpt lat="43.42824" lon="6.10386">
        <ele>279.79998779297</ele>
        <time>2016-01-06T14:24:02Z</time>
      </trkpt>
      <trkpt lat="43.42824" lon="6.10386">
        <ele>279.79998779297</ele>
        <time>2016-01-06T14:24:04Z</time>
      </trkpt>
      <trkpt lat="43.42824" lon="6.10386">
        <ele>279.60000610352</ele>
        <time>2016-01-06T14:24:06Z</time>
      </trkpt>
      <trkpt lat="43.42824" lon="6.10386">
        <ele>279.79998779297</ele>
        <time>2016-01-06T14:24:08Z</time>
      </trkpt>
      <trkpt lat="43.42824" lon="6.10386">
        <ele>279.79998779297</ele>
        <time>2016-01-06T14:24:10Z</time>
      </trkpt>
      <trkpt lat="43.42824" lon="6.10386">
        <ele>279.79998779297</ele>
        <time>2016-01-06T14:24:12Z</time>
      </trkpt>
      <trkpt lat="43.42824" lon="6.10386">
        <ele>280</ele>
        <time>2016-01-06T14:24:14Z</time>
      </trkpt>
      <trkpt lat="43.42824" lon="6.10386">
        <ele>280</ele>
        <time>2016-01-06T14:24:16Z</time>
      </trkpt>
      <trkpt lat="43.42824" lon="6.10386">
        <ele>280.20001220703</ele>
        <time>2016-01-06T14:24:18Z</time>
      </trkpt>
      <trkpt lat="43.42824" lon="6.10386">
        <ele>280.20001220703</ele>
        <time>2016-01-06T14:24:20Z</time>
      </trkpt>
      <trkpt lat="43.42824" lon="6.10386">
        <ele>280.39999389648</ele>
        <time>2016-01-06T14:24:22Z</time>
      </trkpt>
      <trkpt lat="43.42824" lon="6.10386">
        <ele>280.39999389648</ele>
        <time>2016-01-06T14:24:24Z</time>
      </trkpt>
      <trkpt lat="43.42824" lon="6.10386">
        <ele>280.60000610352</ele>
        <time>2016-01-06T14:24:26Z</time>
      </trkpt>
      <trkpt lat="43.42824" lon="6.10386">
        <ele>280.79998779297</ele>
        <time>2016-01-06T14:24:28Z</time>
      </trkpt>
      <trkpt lat="43.42824" lon="6.10386">
        <ele>280.60000610352</ele>
        <time>2016-01-06T14:24:30Z</time>
      </trkpt>
      <trkpt lat="43.42824" lon="6.10386">
        <ele>280.39999389648</ele>
        <time>2016-01-06T14:24:31Z</time>
      </trkpt>
      <trkpt lat="43.42824" lon="6.10386">
        <ele>280.39999389648</ele>
        <time>2016-01-06T14:24:32Z</time>
      </trkpt>
      <trkpt lat="43.42824" lon="6.10386">
        <ele>280.20001220703</ele>
        <time>2016-01-06T14:24:34Z</time>
      </trkpt>
      <trkpt lat="43.42824" lon="6.10386">
        <ele>280.20001220703</ele>
        <time>2016-01-06T14:24:36Z</time>
      </trkpt>
      <trkpt lat="43.42824" lon="6.10386">
        <ele>280</ele>
        <time>2016-01-06T14:24:38Z</time>
      </trkpt>
      <trkpt lat="43.42824" lon="6.10386">
        <ele>280</ele>
        <time>2016-01-06T14:24:40Z</time>
      </trkpt>
      <trkpt lat="43.42824" lon="6.10386">
        <ele>280.39999389648</ele>
        <time>2016-01-06T14:24:42Z</time>
      </trkpt>
      <trkpt lat="43.42824" lon="6.10386">
        <ele>280.60000610352</ele>
        <time>2016-01-06T14:24:44Z</time>
      </trkpt>
      <trkpt lat="43.42824" lon="6.10386">
        <ele>280.60000610352</ele>
        <time>2016-01-06T14:24:46Z</time>
      </trkpt>
      <trkpt lat="43.42824" lon="6.10386">
        <ele>280.60000610352</ele>
        <time>2016-01-06T14:24:48Z</time>
      </trkpt>
      <trkpt lat="43.42824" lon="6.10386">
        <ele>280.60000610352</ele>
        <time>2016-01-06T14:24:50Z</time>
      </trkpt>
      <trkpt lat="43.42824" lon="6.10386">
        <ele>280.39999389648</ele>
        <time>2016-01-06T14:24:52Z</time>
      </trkpt>
      <trkpt lat="43.42824" lon="6.10386">
        <ele>280.39999389648</ele>
        <time>2016-01-06T14:24:54Z</time>
      </trkpt>
      <trkpt lat="43.42824" lon="6.10386">
        <ele>280.39999389648</ele>
        <time>2016-01-06T14:24:56Z</time>
      </trkpt>
      <trkpt lat="43.42824" lon="6.10386">
        <ele>280.39999389648</ele>
        <time>2016-01-06T14:24:58Z</time>
      </trkpt>
      <trkpt lat="43.42824" lon="6.10386">
        <ele>280.39999389648</ele>
        <time>2016-01-06T14:25:00Z</time>
      </trkpt>
      <trkpt lat="43.42824" lon="6.10386">
        <ele>280.39999389648</ele>
        <time>2016-01-06T14:25:02Z</time>
      </trkpt>
      <trkpt lat="43.42824" lon="6.10386">
        <ele>280.20001220703</ele>
        <time>2016-01-06T14:25:04Z</time>
      </trkpt>
      <trkpt lat="43.42824" lon="6.10386">
        <ele>280.20001220703</ele>
        <time>2016-01-06T14:25:06Z</time>
      </trkpt>
      <trkpt lat="43.42824" lon="6.10386">
        <ele>280.39999389648</ele>
        <time>2016-01-06T14:25:08Z</time>
      </trkpt>
      <trkpt lat="43.42824" lon="6.10386">
        <ele>280.39999389648</ele>
        <time>2016-01-06T14:25:09Z</time>
      </trkpt>
      <trkpt lat="43.42824" lon="6.10386">
        <ele>280.39999389648</ele>
        <time>2016-01-06T14:25:10Z</time>
      </trkpt>
      <trkpt lat="43.42824" lon="6.10386">
        <ele>280.39999389648</ele>
        <time>2016-01-06T14:25:12Z</time>
      </trkpt>
      <trkpt lat="43.42824" lon="6.10386">
        <ele>280.39999389648</ele>
        <time>2016-01-06T14:25:14Z</time>
      </trkpt>
      <trkpt lat="43.42824" lon="6.10386">
        <ele>280.39999389648</ele>
        <time>2016-01-06T14:25:16Z</time>
      </trkpt>
      <trkpt lat="43.42824" lon="6.10386">
        <ele>280.39999389648</ele>
        <time>2016-01-06T14:25:18Z</time>
      </trkpt>
      <trkpt lat="43.42823" lon="6.10386">
        <ele>280.60000610352</ele>
        <time>2016-01-06T14:25:20Z</time>
      </trkpt>
      <trkpt lat="43.42823" lon="6.10387">
        <ele>280.79998779297</ele>
        <time>2016-01-06T14:25:22Z</time>
      </trkpt>
      <trkpt lat="43.42824" lon="6.10389">
        <ele>280.79998779297</ele>
        <time>2016-01-06T14:25:24Z</time>
      </trkpt>
      <trkpt lat="43.42824" lon="6.10391">
        <ele>280.79998779297</ele>
        <time>2016-01-06T14:25:26Z</time>
      </trkpt>
      <trkpt lat="43.42825" lon="6.10393">
        <ele>280.79998779297</ele>
        <time>2016-01-06T14:25:28Z</time>
      </trkpt>
      <trkpt lat="43.42826" lon="6.10396">
        <ele>280.39999389648</ele>
        <time>2016-01-06T14:25:30Z</time>
      </trkpt>
      <trkpt lat="43.42828" lon="6.10398">
        <ele>280.60000610352</ele>
        <time>2016-01-06T14:25:32Z</time>
      </trkpt>
      <trkpt lat="43.42829" lon="6.10399">
        <ele>280.79998779297</ele>
        <time>2016-01-06T14:25:33Z</time>
      </trkpt>
      <trkpt lat="43.4283" lon="6.10401">
        <ele>280.79998779297</ele>
        <time>2016-01-06T14:25:34Z</time>
      </trkpt>
      <trkpt lat="43.4283" lon="6.10403">
        <ele>280.79998779297</ele>
        <time>2016-01-06T14:25:35Z</time>
      </trkpt>
      <trkpt lat="43.42831" lon="6.10406">
        <ele>281</ele>
        <time>2016-01-06T14:25:36Z</time>
      </trkpt>
      <trkpt lat="43.42831" lon="6.1041">
        <ele>280.79998779297</ele>
        <time>2016-01-06T14:25:38Z</time>
      </trkpt>
      <trkpt lat="43.42831" lon="6.10414">
        <ele>280.79998779297</ele>
        <time>2016-01-06T14:25:40Z</time>
      </trkpt>
      <trkpt lat="43.42831" lon="6.10418">
        <ele>280.79998779297</ele>
        <time>2016-01-06T14:25:42Z</time>
      </trkpt>
      <trkpt lat="43.42832" lon="6.10422">
        <ele>280.79998779297</ele>
        <time>2016-01-06T14:25:44Z</time>
      </trkpt>
      <trkpt lat="43.42832" lon="6.10424">
        <ele>280.79998779297</ele>
        <time>2016-01-06T14:25:45Z</time>
      </trkpt>
      <trkpt lat="43.42833" lon="6.10427">
        <ele>280.79998779297</ele>
        <time>2016-01-06T14:25:46Z</time>
      </trkpt>
      <trkpt lat="43.42833" lon="6.10431">
        <ele>281</ele>
        <time>2016-01-06T14:25:48Z</time>
      </trkpt>
      <trkpt lat="43.42834" lon="6.10435">
        <ele>281</ele>
        <time>2016-01-06T14:25:50Z</time>
      </trkpt>
      <trkpt lat="43.42834" lon="6.10437">
        <ele>281.20001220703</ele>
        <time>2016-01-06T14:25:51Z</time>
      </trkpt>
      <trkpt lat="43.42835" lon="6.10439">
        <ele>281.39999389648</ele>
        <time>2016-01-06T14:25:52Z</time>
      </trkpt>
      <trkpt lat="43.42836" lon="6.10443">
        <ele>281.60000610352</ele>
        <time>2016-01-06T14:25:54Z</time>
      </trkpt>
      <trkpt lat="43.42837" lon="6.10447">
        <ele>282.20001220703</ele>
        <time>2016-01-06T14:25:56Z</time>
      </trkpt>
      <trkpt lat="43.42837" lon="6.10452">
        <ele>282.20001220703</ele>
        <time>2016-01-06T14:25:58Z</time>
      </trkpt>
      <trkpt lat="43.42838" lon="6.10454">
        <ele>282.20001220703</ele>
        <time>2016-01-06T14:25:59Z</time>
      </trkpt>
      <trkpt lat="43.42838" lon="6.10457">
        <ele>282.20001220703</ele>
        <time>2016-01-06T14:26:00Z</time>
      </trkpt>
      <trkpt lat="43.42838" lon="6.10463">
        <ele>282.20001220703</ele>
        <time>2016-01-06T14:26:02Z</time>
      </trkpt>
      <trkpt lat="43.42838" lon="6.10466">
        <ele>282.20001220703</ele>
        <time>2016-01-06T14:26:03Z</time>
      </trkpt>
      <trkpt lat="43.42838" lon="6.1047">
        <ele>282</ele>
        <time>2016-01-06T14:26:04Z</time>
      </trkpt>
      <trkpt lat="43.42838" lon="6.10478">
        <ele>281.79998779297</ele>
        <time>2016-01-06T14:26:06Z</time>
      </trkpt>
      <trkpt lat="43.4284" lon="6.10487">
        <ele>281.20001220703</ele>
        <time>2016-01-06T14:26:08Z</time>
      </trkpt>
      <trkpt lat="43.42844" lon="6.10497">
        <ele>280.79998779297</ele>
        <time>2016-01-06T14:26:10Z</time>
      </trkpt>
      <trkpt lat="43.42849" lon="6.10507">
        <ele>280.20001220703</ele>
        <time>2016-01-06T14:26:12Z</time>
      </trkpt>
      <trkpt lat="43.42852" lon="6.10513">
        <ele>279.79998779297</ele>
        <time>2016-01-06T14:26:13Z</time>
      </trkpt>
      <trkpt lat="43.42855" lon="6.10519">
        <ele>279.79998779297</ele>
        <time>2016-01-06T14:26:14Z</time>
      </trkpt>
      <trkpt lat="43.42861" lon="6.10531">
        <ele>279.39999389648</ele>
        <time>2016-01-06T14:26:16Z</time>
      </trkpt>
      <trkpt lat="43.42866" lon="6.10545">
        <ele>278.60000610352</ele>
        <time>2016-01-06T14:26:18Z</time>
      </trkpt>
      <trkpt lat="43.4287" lon="6.10561">
        <ele>277.79998779297</ele>
        <time>2016-01-06T14:26:20Z</time>
      </trkpt>
      <trkpt lat="43.42872" lon="6.10568">
        <ele>277.20001220703</ele>
        <time>2016-01-06T14:26:21Z</time>
      </trkpt>
      <trkpt lat="43.42874" lon="6.10576">
        <ele>277.20001220703</ele>
        <time>2016-01-06T14:26:22Z</time>
      </trkpt>
      <trkpt lat="43.42875" lon="6.10584">
        <ele>277</ele>
        <time>2016-01-06T14:26:23Z</time>
      </trkpt>
      <trkpt lat="43.42875" lon="6.10593">
        <ele>277</ele>
        <time>2016-01-06T14:26:24Z</time>
      </trkpt>
      <trkpt lat="43.42878" lon="6.10609">
        <ele>277.20001220703</ele>
        <time>2016-01-06T14:26:26Z</time>
      </trkpt>
      <trkpt lat="43.42883" lon="6.10623">
        <ele>277</ele>
        <time>2016-01-06T14:26:28Z</time>
      </trkpt>
      <trkpt lat="43.42892" lon="6.10634">
        <ele>275.39999389648</ele>
        <time>2016-01-06T14:26:30Z</time>
      </trkpt>
      <trkpt lat="43.42901" lon="6.10643">
        <ele>275.60000610352</ele>
        <time>2016-01-06T14:26:32Z</time>
      </trkpt>
      <trkpt lat="43.42911" lon="6.10649">
        <ele>276.39999389648</ele>
        <time>2016-01-06T14:26:34Z</time>
      </trkpt>
      <trkpt lat="43.42915" lon="6.10651">
        <ele>275.79998779297</ele>
        <time>2016-01-06T14:26:35Z</time>
      </trkpt>
      <trkpt lat="43.4292" lon="6.10653">
        <ele>275.20001220703</ele>
        <time>2016-01-06T14:26:36Z</time>
      </trkpt>
      <trkpt lat="43.42927" lon="6.10655">
        <ele>275</ele>
        <time>2016-01-06T14:26:38Z</time>
      </trkpt>
      <trkpt lat="43.4293" lon="6.10655">
        <ele>275.20001220703</ele>
        <time>2016-01-06T14:26:39Z</time>
      </trkpt>
      <trkpt lat="43.42933" lon="6.10655">
        <ele>275.20001220703</ele>
        <time>2016-01-06T14:26:40Z</time>
      </trkpt>
      <trkpt lat="43.42939" lon="6.10655">
        <ele>275.39999389648</ele>
        <time>2016-01-06T14:26:42Z</time>
      </trkpt>
      <trkpt lat="43.42945" lon="6.10655">
        <ele>275.60000610352</ele>
        <time>2016-01-06T14:26:44Z</time>
      </trkpt>
      <trkpt lat="43.42951" lon="6.10655">
        <ele>276</ele>
        <time>2016-01-06T14:26:46Z</time>
      </trkpt>
      <trkpt lat="43.42954" lon="6.10655">
        <ele>276.20001220703</ele>
        <time>2016-01-06T14:26:47Z</time>
      </trkpt>
      <trkpt lat="43.42957" lon="6.10655">
        <ele>276</ele>
        <time>2016-01-06T14:26:48Z</time>
      </trkpt>
      <trkpt lat="43.42963" lon="6.10655">
        <ele>276.20001220703</ele>
        <time>2016-01-06T14:26:50Z</time>
      </trkpt>
      <trkpt lat="43.42968" lon="6.10654">
        <ele>276.39999389648</ele>
        <time>2016-01-06T14:26:52Z</time>
      </trkpt>
      <trkpt lat="43.42973" lon="6.10655">
        <ele>276.39999389648</ele>
        <time>2016-01-06T14:26:54Z</time>
      </trkpt>
      <trkpt lat="43.42978" lon="6.10655">
        <ele>276.39999389648</ele>
        <time>2016-01-06T14:26:56Z</time>
      </trkpt>
      <trkpt lat="43.42981" lon="6.10656">
        <ele>276.20001220703</ele>
        <time>2016-01-06T14:26:57Z</time>
      </trkpt>
      <trkpt lat="43.42983" lon="6.10657">
        <ele>276.39999389648</ele>
        <time>2016-01-06T14:26:58Z</time>
      </trkpt>
      <trkpt lat="43.42988" lon="6.10657">
        <ele>276.39999389648</ele>
        <time>2016-01-06T14:27:00Z</time>
      </trkpt>
      <trkpt lat="43.42992" lon="6.10656">
        <ele>276.79998779297</ele>
        <time>2016-01-06T14:27:02Z</time>
      </trkpt>
      <trkpt lat="43.42995" lon="6.10656">
        <ele>277.20001220703</ele>
        <time>2016-01-06T14:27:03Z</time>
      </trkpt>
      <trkpt lat="43.42997" lon="6.10655">
        <ele>277.39999389648</ele>
        <time>2016-01-06T14:27:04Z</time>
      </trkpt>
      <trkpt lat="43.43001" lon="6.10653">
        <ele>277.60000610352</ele>
        <time>2016-01-06T14:27:06Z</time>
      </trkpt>
      <trkpt lat="43.43005" lon="6.10654">
        <ele>277.79998779297</ele>
        <time>2016-01-06T14:27:08Z</time>
      </trkpt>
      <trkpt lat="43.43007" lon="6.10654">
        <ele>277.79998779297</ele>
        <time>2016-01-06T14:27:09Z</time>
      </trkpt>
      <trkpt lat="43.43009" lon="6.10654">
        <ele>277.79998779297</ele>
        <time>2016-01-06T14:27:10Z</time>
      </trkpt>
      <trkpt lat="43.43013" lon="6.10655">
        <ele>278</ele>
        <time>2016-01-06T14:27:12Z</time>
      </trkpt>
      <trkpt lat="43.43016" lon="6.10655">
        <ele>278.20001220703</ele>
        <time>2016-01-06T14:27:14Z</time>
      </trkpt>
      <trkpt lat="43.43018" lon="6.10655">
        <ele>278.39999389648</ele>
        <time>2016-01-06T14:27:16Z</time>
      </trkpt>
      <trkpt lat="43.43019" lon="6.10655">
        <ele>278.39999389648</ele>
        <time>2016-01-06T14:27:17Z</time>
      </trkpt>
      <trkpt lat="43.43018" lon="6.10654">
        <ele>278.60000610352</ele>
        <time>2016-01-06T14:27:18Z</time>
      </trkpt>
      <trkpt lat="43.43019" lon="6.10655">
        <ele>278.60000610352</ele>
        <time>2016-01-06T14:27:20Z</time>
      </trkpt>
      <trkpt lat="43.43018" lon="6.10655">
        <ele>278.39999389648</ele>
        <time>2016-01-06T14:27:22Z</time>
      </trkpt>
      <trkpt lat="43.43019" lon="6.10655">
        <ele>278.20001220703</ele>
        <time>2016-01-06T14:27:24Z</time>
      </trkpt>
      <trkpt lat="43.43019" lon="6.10655">
        <ele>278.20001220703</ele>
        <time>2016-01-06T14:27:26Z</time>
      </trkpt>
      <trkpt lat="43.43018" lon="6.10655">
        <ele>278</ele>
        <time>2016-01-06T14:27:28Z</time>
      </trkpt>
      <trkpt lat="43.43018" lon="6.10655">
        <ele>278</ele>
        <time>2016-01-06T14:27:30Z</time>
      </trkpt>
      <trkpt lat="43.43018" lon="6.10655">
        <ele>278</ele>
        <time>2016-01-06T14:27:32Z</time>
      </trkpt>
      <trkpt lat="43.43018" lon="6.10655">
        <ele>278</ele>
        <time>2016-01-06T14:27:34Z</time>
      </trkpt>
      <trkpt lat="43.43018" lon="6.10655">
        <ele>277.79998779297</ele>
        <time>2016-01-06T14:27:35Z</time>
      </trkpt>
      <trkpt lat="43.43018" lon="6.10655">
        <ele>277.79998779297</ele>
        <time>2016-01-06T14:27:36Z</time>
      </trkpt>
      <trkpt lat="43.43018" lon="6.10655">
        <ele>277.79998779297</ele>
        <time>2016-01-06T14:27:38Z</time>
      </trkpt>
      <trkpt lat="43.43018" lon="6.10654">
        <ele>277.79998779297</ele>
        <time>2016-01-06T14:27:40Z</time>
      </trkpt>
      <trkpt lat="43.43018" lon="6.10655">
        <ele>277.79998779297</ele>
        <time>2016-01-06T14:27:42Z</time>
      </trkpt>
      <trkpt lat="43.43016" lon="6.10654">
        <ele>278</ele>
        <time>2016-01-06T14:27:44Z</time>
      </trkpt>
      <trkpt lat="43.43016" lon="6.10653">
        <ele>278</ele>
        <time>2016-01-06T14:27:45Z</time>
      </trkpt>
      <trkpt lat="43.43016" lon="6.10652">
        <ele>278</ele>
        <time>2016-01-06T14:27:46Z</time>
      </trkpt>
      <trkpt lat="43.43016" lon="6.10651">
        <ele>278.20001220703</ele>
        <time>2016-01-06T14:27:48Z</time>
      </trkpt>
      <trkpt lat="43.43016" lon="6.1065">
        <ele>278.39999389648</ele>
        <time>2016-01-06T14:27:50Z</time>
      </trkpt>
      <trkpt lat="43.43016" lon="6.1065">
        <ele>278.60000610352</ele>
        <time>2016-01-06T14:27:52Z</time>
      </trkpt>
      <trkpt lat="43.43016" lon="6.1065">
        <ele>278.39999389648</ele>
        <time>2016-01-06T14:27:54Z</time>
      </trkpt>
      <trkpt lat="43.43016" lon="6.1065">
        <ele>278.60000610352</ele>
        <time>2016-01-06T14:27:56Z</time>
      </trkpt>
      <trkpt lat="43.43016" lon="6.1065">
        <ele>278.60000610352</ele>
        <time>2016-01-06T14:27:58Z</time>
      </trkpt>
      <trkpt lat="43.43016" lon="6.1065">
        <ele>278.39999389648</ele>
        <time>2016-01-06T14:28:00Z</time>
      </trkpt>
      <trkpt lat="43.43016" lon="6.1065">
        <ele>278.79998779297</ele>
        <time>2016-01-06T14:28:02Z</time>
      </trkpt>
      <trkpt lat="43.43016" lon="6.1065">
        <ele>278.79998779297</ele>
        <time>2016-01-06T14:28:03Z</time>
      </trkpt>
      <trkpt lat="43.43016" lon="6.1065">
        <ele>279</ele>
        <time>2016-01-06T14:28:04Z</time>
      </trkpt>
      <trkpt lat="43.43016" lon="6.10648">
        <ele>279</ele>
        <time>2016-01-06T14:28:06Z</time>
      </trkpt>
      <trkpt lat="43.43019" lon="6.10646">
        <ele>279</ele>
        <time>2016-01-06T14:28:08Z</time>
      </trkpt>
      <trkpt lat="43.43023" lon="6.10648">
        <ele>279.20001220703</ele>
        <time>2016-01-06T14:28:10Z</time>
      </trkpt>
      <trkpt lat="43.43026" lon="6.1065">
        <ele>279.39999389648</ele>
        <time>2016-01-06T14:28:12Z</time>
      </trkpt>
      <trkpt lat="43.43027" lon="6.10653">
        <ele>279.39999389648</ele>
        <time>2016-01-06T14:28:14Z</time>
      </trkpt>
      <trkpt lat="43.4303" lon="6.10655">
        <ele>279.60000610352</ele>
        <time>2016-01-06T14:28:16Z</time>
      </trkpt>
      <trkpt lat="43.43033" lon="6.10654">
        <ele>279.39999389648</ele>
        <time>2016-01-06T14:28:18Z</time>
      </trkpt>
      <trkpt lat="43.43033" lon="6.1065">
        <ele>279.39999389648</ele>
        <time>2016-01-06T14:28:20Z</time>
      </trkpt>
      <trkpt lat="43.4303" lon="6.10648">
        <ele>279.60000610352</ele>
        <time>2016-01-06T14:28:22Z</time>
      </trkpt>
      <trkpt lat="43.43027" lon="6.10647">
        <ele>279.79998779297</ele>
        <time>2016-01-06T14:28:24Z</time>
      </trkpt>
      <trkpt lat="43.43025" lon="6.10648">
        <ele>279</ele>
        <time>2016-01-06T14:28:26Z</time>
      </trkpt>
      <trkpt lat="43.43023" lon="6.10648">
        <ele>279</ele>
        <time>2016-01-06T14:28:28Z</time>
      </trkpt>
      <trkpt lat="43.4302" lon="6.10649">
        <ele>279.20001220703</ele>
        <time>2016-01-06T14:28:30Z</time>
      </trkpt>
      <trkpt lat="43.43019" lon="6.1065">
        <ele>279</ele>
        <time>2016-01-06T14:28:32Z</time>
      </trkpt>
      <trkpt lat="43.43018" lon="6.10651">
        <ele>278.79998779297</ele>
        <time>2016-01-06T14:28:34Z</time>
      </trkpt>
      <trkpt lat="43.43015" lon="6.10649">
        <ele>278.79998779297</ele>
        <time>2016-01-06T14:28:36Z</time>
      </trkpt>
      <trkpt lat="43.43015" lon="6.10649">
        <ele>278.39999389648</ele>
        <time>2016-01-06T14:28:38Z</time>
      </trkpt>
      <trkpt lat="43.43015" lon="6.10649">
        <ele>278.39999389648</ele>
        <time>2016-01-06T14:28:40Z</time>
      </trkpt>
      <trkpt lat="43.43014" lon="6.10649">
        <ele>278.39999389648</ele>
        <time>2016-01-06T14:28:42Z</time>
      </trkpt>
      <trkpt lat="43.43014" lon="6.10649">
        <ele>277.60000610352</ele>
        <time>2016-01-06T14:28:44Z</time>
      </trkpt>
      <trkpt lat="43.43014" lon="6.10649">
        <ele>277.39999389648</ele>
        <time>2016-01-06T14:28:46Z</time>
      </trkpt>
      <trkpt lat="43.43014" lon="6.10649">
        <ele>277.39999389648</ele>
        <time>2016-01-06T14:28:48Z</time>
      </trkpt>
      <trkpt lat="43.43014" lon="6.10649">
        <ele>277.39999389648</ele>
        <time>2016-01-06T14:28:49Z</time>
      </trkpt>
      <trkpt lat="43.43014" lon="6.10649">
        <ele>277.39999389648</ele>
        <time>2016-01-06T14:28:50Z</time>
      </trkpt>
      <trkpt lat="43.43014" lon="6.10649">
        <ele>277.39999389648</ele>
        <time>2016-01-06T14:28:52Z</time>
      </trkpt>
      <trkpt lat="43.43014" lon="6.10649">
        <ele>277.39999389648</ele>
        <time>2016-01-06T14:28:54Z</time>
      </trkpt>
      <trkpt lat="43.43014" lon="6.10649">
        <ele>277.39999389648</ele>
        <time>2016-01-06T14:28:56Z</time>
      </trkpt>
      <trkpt lat="43.43014" lon="6.10649">
        <ele>277.39999389648</ele>
        <time>2016-01-06T14:28:58Z</time>
      </trkpt>
      <trkpt lat="43.43014" lon="6.10649">
        <ele>277.39999389648</ele>
        <time>2016-01-06T14:29:00Z</time>
      </trkpt>
      <trkpt lat="43.43014" lon="6.10649">
        <ele>277.20001220703</ele>
        <time>2016-01-06T14:29:02Z</time>
      </trkpt>
      <trkpt lat="43.43014" lon="6.10649">
        <ele>277.39999389648</ele>
        <time>2016-01-06T14:29:04Z</time>
      </trkpt>
      <trkpt lat="43.43014" lon="6.10649">
        <ele>277.39999389648</ele>
        <time>2016-01-06T14:29:06Z</time>
      </trkpt>
      <trkpt lat="43.43014" lon="6.10649">
        <ele>277.20001220703</ele>
        <time>2016-01-06T14:29:08Z</time>
      </trkpt>
      <trkpt lat="43.43014" lon="6.10649">
        <ele>276.79998779297</ele>
        <time>2016-01-06T14:29:10Z</time>
      </trkpt>
      <trkpt lat="43.43014" lon="6.10649">
        <ele>276.60000610352</ele>
        <time>2016-01-06T14:29:12Z</time>
      </trkpt>
      <trkpt lat="43.43014" lon="6.10649">
        <ele>276.79998779297</ele>
        <time>2016-01-06T14:29:14Z</time>
      </trkpt>
      <trkpt lat="43.43014" lon="6.10649">
        <ele>276.79998779297</ele>
        <time>2016-01-06T14:29:16Z</time>
      </trkpt>
      <trkpt lat="43.43014" lon="6.10649">
        <ele>276.79998779297</ele>
        <time>2016-01-06T14:29:18Z</time>
      </trkpt>
      <trkpt lat="43.43014" lon="6.10649">
        <ele>276.60000610352</ele>
        <time>2016-01-06T14:29:20Z</time>
      </trkpt>
      <trkpt lat="43.43014" lon="6.10649">
        <ele>276.60000610352</ele>
        <time>2016-01-06T14:29:22Z</time>
      </trkpt>
      <trkpt lat="43.43014" lon="6.10649">
        <ele>276.39999389648</ele>
        <time>2016-01-06T14:29:24Z</time>
      </trkpt>
      <trkpt lat="43.43014" lon="6.10649">
        <ele>276.39999389648</ele>
        <time>2016-01-06T14:29:26Z</time>
      </trkpt>
      <trkpt lat="43.43014" lon="6.10649">
        <ele>276.60000610352</ele>
        <time>2016-01-06T14:29:27Z</time>
      </trkpt>
      <trkpt lat="43.43014" lon="6.10649">
        <ele>276.60000610352</ele>
        <time>2016-01-06T14:29:28Z</time>
      </trkpt>
      <trkpt lat="43.43014" lon="6.10649">
        <ele>276.60000610352</ele>
        <time>2016-01-06T14:29:30Z</time>
      </trkpt>
      <trkpt lat="43.43014" lon="6.10649">
        <ele>276.39999389648</ele>
        <time>2016-01-06T14:29:32Z</time>
      </trkpt>
      <trkpt lat="43.43014" lon="6.10649">
        <ele>276.60000610352</ele>
        <time>2016-01-06T14:29:34Z</time>
      </trkpt>
      <trkpt lat="43.43014" lon="6.10649">
        <ele>276.79998779297</ele>
        <time>2016-01-06T14:29:36Z</time>
      </trkpt>
      <trkpt lat="43.43014" lon="6.10649">
        <ele>276.79998779297</ele>
        <time>2016-01-06T14:29:38Z</time>
      </trkpt>
      <trkpt lat="43.43014" lon="6.10649">
        <ele>276.79998779297</ele>
        <time>2016-01-06T14:29:40Z</time>
      </trkpt>
      <trkpt lat="43.43014" lon="6.10649">
        <ele>276.79998779297</ele>
        <time>2016-01-06T14:29:42Z</time>
      </trkpt>
      <trkpt lat="43.43014" lon="6.10649">
        <ele>276.79998779297</ele>
        <time>2016-01-06T14:29:44Z</time>
      </trkpt>
      <trkpt lat="43.43014" lon="6.10649">
        <ele>276.79998779297</ele>
        <time>2016-01-06T14:29:46Z</time>
      </trkpt>
      <trkpt lat="43.43014" lon="6.10649">
        <ele>276.79998779297</ele>
        <time>2016-01-06T14:29:48Z</time>
      </trkpt>
      <trkpt lat="43.43014" lon="6.10649">
        <ele>276.60000610352</ele>
        <time>2016-01-06T14:29:50Z</time>
      </trkpt>
      <trkpt lat="43.43014" lon="6.10649">
        <ele>276.60000610352</ele>
        <time>2016-01-06T14:29:52Z</time>
      </trkpt>
      <trkpt lat="43.43014" lon="6.10649">
        <ele>276.39999389648</ele>
        <time>2016-01-06T14:29:54Z</time>
      </trkpt>
      <trkpt lat="43.43014" lon="6.10649">
        <ele>276.60000610352</ele>
        <time>2016-01-06T14:29:56Z</time>
      </trkpt>
      <trkpt lat="43.43014" lon="6.10649">
        <ele>276.60000610352</ele>
        <time>2016-01-06T14:29:58Z</time>
      </trkpt>
      <trkpt lat="43.43014" lon="6.10649">
        <ele>276.60000610352</ele>
        <time>2016-01-06T14:30:00Z</time>
      </trkpt>
      <trkpt lat="43.43014" lon="6.10649">
        <ele>276.60000610352</ele>
        <time>2016-01-06T14:30:02Z</time>
      </trkpt>
      <trkpt lat="43.43014" lon="6.10649">
        <ele>276.60000610352</ele>
        <time>2016-01-06T14:30:04Z</time>
      </trkpt>
      <trkpt lat="43.43014" lon="6.10649">
        <ele>276.60000610352</ele>
        <time>2016-01-06T14:30:06Z</time>
      </trkpt>
      <trkpt lat="43.43014" lon="6.10649">
        <ele>276.60000610352</ele>
        <time>2016-01-06T14:30:08Z</time>
      </trkpt>
      <trkpt lat="43.43014" lon="6.10649">
        <ele>276.60000610352</ele>
        <time>2016-01-06T14:30:10Z</time>
      </trkpt>
      <trkpt lat="43.43014" lon="6.10649">
        <ele>276.20001220703</ele>
        <time>2016-01-06T14:30:12Z</time>
      </trkpt>
      <trkpt lat="43.43014" lon="6.10649">
        <ele>276.39999389648</ele>
        <time>2016-01-06T14:30:14Z</time>
      </trkpt>
      <trkpt lat="43.43014" lon="6.10649">
        <ele>276.39999389648</ele>
        <time>2016-01-06T14:30:16Z</time>
      </trkpt>
      <trkpt lat="43.43014" lon="6.10649">
        <ele>276.39999389648</ele>
        <time>2016-01-06T14:30:18Z</time>
      </trkpt>
      <trkpt lat="43.43014" lon="6.10649">
        <ele>276.39999389648</ele>
        <time>2016-01-06T14:30:20Z</time>
      </trkpt>
      <trkpt lat="43.43014" lon="6.10649">
        <ele>276.60000610352</ele>
        <time>2016-01-06T14:30:22Z</time>
      </trkpt>
      <trkpt lat="43.43014" lon="6.10649">
        <ele>276.60000610352</ele>
        <time>2016-01-06T14:30:24Z</time>
      </trkpt>
      <trkpt lat="43.43014" lon="6.10649">
        <ele>276.79998779297</ele>
        <time>2016-01-06T14:30:26Z</time>
      </trkpt>
      <trkpt lat="43.43014" lon="6.10649">
        <ele>276.60000610352</ele>
        <time>2016-01-06T14:30:28Z</time>
      </trkpt>
      <trkpt lat="43.43014" lon="6.10649">
        <ele>276.79998779297</ele>
        <time>2016-01-06T14:30:30Z</time>
      </trkpt>
      <trkpt lat="43.43014" lon="6.10649">
        <ele>276.60000610352</ele>
        <time>2016-01-06T14:30:32Z</time>
      </trkpt>
      <trkpt lat="43.43014" lon="6.10649">
        <ele>276.60000610352</ele>
        <time>2016-01-06T14:30:34Z</time>
      </trkpt>
      <trkpt lat="43.43014" lon="6.10649">
        <ele>276.60000610352</ele>
        <time>2016-01-06T14:30:36Z</time>
      </trkpt>
      <trkpt lat="43.43014" lon="6.10649">
        <ele>276.60000610352</ele>
        <time>2016-01-06T14:30:38Z</time>
      </trkpt>
      <trkpt lat="43.43014" lon="6.10649">
        <ele>276.60000610352</ele>
        <time>2016-01-06T14:30:40Z</time>
      </trkpt>
      <trkpt lat="43.43014" lon="6.10649">
        <ele>276.79998779297</ele>
        <time>2016-01-06T14:30:42Z</time>
      </trkpt>
      <trkpt lat="43.43014" lon="6.10649">
        <ele>276.79998779297</ele>
        <time>2016-01-06T14:30:44Z</time>
      </trkpt>
      <trkpt lat="43.43014" lon="6.10649">
        <ele>276.60000610352</ele>
        <time>2016-01-06T14:30:46Z</time>
      </trkpt>
      <trkpt lat="43.43014" lon="6.10649">
        <ele>276.79998779297</ele>
        <time>2016-01-06T14:30:48Z</time>
      </trkpt>
      <trkpt lat="43.43014" lon="6.10649">
        <ele>276.79998779297</ele>
        <time>2016-01-06T14:30:50Z</time>
      </trkpt>
      <trkpt lat="43.43014" lon="6.10649">
        <ele>276.79998779297</ele>
        <time>2016-01-06T14:30:52Z</time>
      </trkpt>
      <trkpt lat="43.43014" lon="6.10649">
        <ele>276.79998779297</ele>
        <time>2016-01-06T14:30:54Z</time>
      </trkpt>
      <trkpt lat="43.43014" lon="6.10649">
        <ele>277</ele>
        <time>2016-01-06T14:30:56Z</time>
      </trkpt>
      <trkpt lat="43.43014" lon="6.10649">
        <ele>277.20001220703</ele>
        <time>2016-01-06T14:30:58Z</time>
      </trkpt>
      <trkpt lat="43.43014" lon="6.10649">
        <ele>276.79998779297</ele>
        <time>2016-01-06T14:31:00Z</time>
      </trkpt>
      <trkpt lat="43.43014" lon="6.10649">
        <ele>276.60000610352</ele>
        <time>2016-01-06T14:31:02Z</time>
      </trkpt>
      <trkpt lat="43.43014" lon="6.10649">
        <ele>276.79998779297</ele>
        <time>2016-01-06T14:31:04Z</time>
      </trkpt>
      <trkpt lat="43.43014" lon="6.10649">
        <ele>276.79998779297</ele>
        <time>2016-01-06T14:31:06Z</time>
      </trkpt>
      <trkpt lat="43.43014" lon="6.10649">
        <ele>276.79998779297</ele>
        <time>2016-01-06T14:31:08Z</time>
      </trkpt>
      <trkpt lat="43.43014" lon="6.10648">
        <ele>276.79998779297</ele>
        <time>2016-01-06T14:31:10Z</time>
      </trkpt>
      <trkpt lat="43.43014" lon="6.10648">
        <ele>277.39999389648</ele>
        <time>2016-01-06T14:31:12Z</time>
      </trkpt>
      <trkpt lat="43.43014" lon="6.10648">
        <ele>277.39999389648</ele>
        <time>2016-01-06T14:31:13Z</time>
      </trkpt>
      <trkpt lat="43.43014" lon="6.10648">
        <ele>277.39999389648</ele>
        <time>2016-01-06T14:31:14Z</time>
      </trkpt>
      <trkpt lat="43.43014" lon="6.10648">
        <ele>277.39999389648</ele>
        <time>2016-01-06T14:31:16Z</time>
      </trkpt>
      <trkpt lat="43.43014" lon="6.10648">
        <ele>277.20001220703</ele>
        <time>2016-01-06T14:31:18Z</time>
      </trkpt>
      <trkpt lat="43.43014" lon="6.10648">
        <ele>277.20001220703</ele>
        <time>2016-01-06T14:31:20Z</time>
      </trkpt>
      <trkpt lat="43.43014" lon="6.10648">
        <ele>277.20001220703</ele>
        <time>2016-01-06T14:31:22Z</time>
      </trkpt>
      <trkpt lat="43.43014" lon="6.10648">
        <ele>277.20001220703</ele>
        <time>2016-01-06T14:31:24Z</time>
      </trkpt>
      <trkpt lat="43.43014" lon="6.10648">
        <ele>277.20001220703</ele>
        <time>2016-01-06T14:31:25Z</time>
      </trkpt>
      <trkpt lat="43.43014" lon="6.10648">
        <ele>277.20001220703</ele>
        <time>2016-01-06T14:31:26Z</time>
      </trkpt>
      <trkpt lat="43.43014" lon="6.10648">
        <ele>277.39999389648</ele>
        <time>2016-01-06T14:31:28Z</time>
      </trkpt>
      <trkpt lat="43.43014" lon="6.10648">
        <ele>277.39999389648</ele>
        <time>2016-01-06T14:31:30Z</time>
      </trkpt>
      <trkpt lat="43.43014" lon="6.10648">
        <ele>277.39999389648</ele>
        <time>2016-01-06T14:31:32Z</time>
      </trkpt>
      <trkpt lat="43.43014" lon="6.10647">
        <ele>277.60000610352</ele>
        <time>2016-01-06T14:31:34Z</time>
      </trkpt>
      <trkpt lat="43.43014" lon="6.10647">
        <ele>277.60000610352</ele>
        <time>2016-01-06T14:31:36Z</time>
      </trkpt>
      <trkpt lat="43.43014" lon="6.10647">
        <ele>277.39999389648</ele>
        <time>2016-01-06T14:31:38Z</time>
      </trkpt>
      <trkpt lat="43.43014" lon="6.10647">
        <ele>277.20001220703</ele>
        <time>2016-01-06T14:31:40Z</time>
      </trkpt>
      <trkpt lat="43.43014" lon="6.10647">
        <ele>277.20001220703</ele>
        <time>2016-01-06T14:31:42Z</time>
      </trkpt>
      <trkpt lat="43.43014" lon="6.10647">
        <ele>277.20001220703</ele>
        <time>2016-01-06T14:31:44Z</time>
      </trkpt>
      <trkpt lat="43.43014" lon="6.10647">
        <ele>277</ele>
        <time>2016-01-06T14:31:46Z</time>
      </trkpt>
      <trkpt lat="43.43014" lon="6.10647">
        <ele>277.20001220703</ele>
        <time>2016-01-06T14:31:48Z</time>
      </trkpt>
      <trkpt lat="43.43014" lon="6.10647">
        <ele>277.20001220703</ele>
        <time>2016-01-06T14:31:50Z</time>
      </trkpt>
      <trkpt lat="43.43014" lon="6.10647">
        <ele>277.20001220703</ele>
        <time>2016-01-06T14:31:52Z</time>
      </trkpt>
      <trkpt lat="43.43014" lon="6.10647">
        <ele>277.39999389648</ele>
        <time>2016-01-06T14:31:54Z</time>
      </trkpt>
      <trkpt lat="43.43014" lon="6.10647">
        <ele>277.39999389648</ele>
        <time>2016-01-06T14:31:56Z</time>
      </trkpt>
      <trkpt lat="43.43014" lon="6.10647">
        <ele>277.60000610352</ele>
        <time>2016-01-06T14:31:57Z</time>
      </trkpt>
      <trkpt lat="43.43014" lon="6.10647">
        <ele>277.60000610352</ele>
        <time>2016-01-06T14:31:58Z</time>
      </trkpt>
      <trkpt lat="43.43014" lon="6.10647">
        <ele>277.39999389648</ele>
        <time>2016-01-06T14:32:00Z</time>
      </trkpt>
      <trkpt lat="43.43014" lon="6.10647">
        <ele>277.60000610352</ele>
        <time>2016-01-06T14:32:02Z</time>
      </trkpt>
      <trkpt lat="43.43015" lon="6.10645">
        <ele>277.60000610352</ele>
        <time>2016-01-06T14:32:04Z</time>
      </trkpt>
      <trkpt lat="43.43015" lon="6.10645">
        <ele>277.79998779297</ele>
        <time>2016-01-06T14:32:06Z</time>
      </trkpt>
      <trkpt lat="43.43016" lon="6.10645">
        <ele>277.60000610352</ele>
        <time>2016-01-06T14:32:08Z</time>
      </trkpt>
      <trkpt lat="43.43017" lon="6.10645">
        <ele>277.60000610352</ele>
        <time>2016-01-06T14:32:10Z</time>
      </trkpt>
      <trkpt lat="43.43018" lon="6.10646">
        <ele>277.60000610352</ele>
        <time>2016-01-06T14:32:12Z</time>
      </trkpt>
      <trkpt lat="43.43018" lon="6.10647">
        <ele>277.39999389648</ele>
        <time>2016-01-06T14:32:14Z</time>
      </trkpt>
      <trkpt lat="43.43018" lon="6.10647">
        <ele>277.39999389648</ele>
        <time>2016-01-06T14:32:15Z</time>
      </trkpt>
      <trkpt lat="43.43018" lon="6.10647">
        <ele>277.60000610352</ele>
        <time>2016-01-06T14:32:16Z</time>
      </trkpt>
      <trkpt lat="43.43018" lon="6.10647">
        <ele>277.79998779297</ele>
        <time>2016-01-06T14:32:18Z</time>
      </trkpt>
      <trkpt lat="43.43018" lon="6.10647">
        <ele>277.79998779297</ele>
        <time>2016-01-06T14:32:20Z</time>
      </trkpt>
      <trkpt lat="43.43018" lon="6.10647">
        <ele>277.60000610352</ele>
        <time>2016-01-06T14:32:22Z</time>
      </trkpt>
      <trkpt lat="43.43018" lon="6.10647">
        <ele>277.60000610352</ele>
        <time>2016-01-06T14:32:24Z</time>
      </trkpt>
      <trkpt lat="43.43018" lon="6.10647">
        <ele>277.60000610352</ele>
        <time>2016-01-06T14:32:26Z</time>
      </trkpt>
      <trkpt lat="43.43018" lon="6.10647">
        <ele>277.39999389648</ele>
        <time>2016-01-06T14:32:28Z</time>
      </trkpt>
      <trkpt lat="43.43018" lon="6.10647">
        <ele>277.39999389648</ele>
        <time>2016-01-06T14:32:30Z</time>
      </trkpt>
      <trkpt lat="43.43018" lon="6.10647">
        <ele>277.60000610352</ele>
        <time>2016-01-06T14:32:31Z</time>
      </trkpt>
      <trkpt lat="43.43018" lon="6.10647">
        <ele>277.79998779297</ele>
        <time>2016-01-06T14:32:32Z</time>
      </trkpt>
      <trkpt lat="43.43018" lon="6.10647">
        <ele>277.79998779297</ele>
        <time>2016-01-06T14:32:34Z</time>
      </trkpt>
      <trkpt lat="43.43018" lon="6.10647">
        <ele>277.79998779297</ele>
        <time>2016-01-06T14:32:36Z</time>
      </trkpt>
      <trkpt lat="43.43018" lon="6.10647">
        <ele>278</ele>
        <time>2016-01-06T14:32:38Z</time>
      </trkpt>
      <trkpt lat="43.43018" lon="6.10647">
        <ele>278</ele>
        <time>2016-01-06T14:32:40Z</time>
      </trkpt>
      <trkpt lat="43.43018" lon="6.10647">
        <ele>278</ele>
        <time>2016-01-06T14:32:42Z</time>
      </trkpt>
      <trkpt lat="43.43018" lon="6.10647">
        <ele>278.39999389648</ele>
        <time>2016-01-06T14:32:44Z</time>
      </trkpt>
      <trkpt lat="43.43018" lon="6.10647">
        <ele>278.20001220703</ele>
        <time>2016-01-06T14:32:46Z</time>
      </trkpt>
      <trkpt lat="43.43019" lon="6.10647">
        <ele>278.60000610352</ele>
        <time>2016-01-06T14:32:48Z</time>
      </trkpt>
      <trkpt lat="43.43019" lon="6.10649">
        <ele>278.39999389648</ele>
        <time>2016-01-06T14:32:50Z</time>
      </trkpt>
      <trkpt lat="43.43021" lon="6.10651">
        <ele>278.20001220703</ele>
        <time>2016-01-06T14:32:51Z</time>
      </trkpt>
      <trkpt lat="43.43022" lon="6.10652">
        <ele>278.20001220703</ele>
        <time>2016-01-06T14:32:52Z</time>
      </trkpt>
      <trkpt lat="43.43024" lon="6.10654">
        <ele>278.20001220703</ele>
        <time>2016-01-06T14:32:54Z</time>
      </trkpt>
      <trkpt lat="43.43025" lon="6.10655">
        <ele>278</ele>
        <time>2016-01-06T14:32:55Z</time>
      </trkpt>
      <trkpt lat="43.43026" lon="6.10656">
        <ele>278</ele>
        <time>2016-01-06T14:32:56Z</time>
      </trkpt>
      <trkpt lat="43.43029" lon="6.1066">
        <ele>278.39999389648</ele>
        <time>2016-01-06T14:32:58Z</time>
      </trkpt>
      <trkpt lat="43.43031" lon="6.10664">
        <ele>278.60000610352</ele>
        <time>2016-01-06T14:33:00Z</time>
      </trkpt>
      <trkpt lat="43.43032" lon="6.10666">
        <ele>278.60000610352</ele>
        <time>2016-01-06T14:33:01Z</time>
      </trkpt>
      <trkpt lat="43.43032" lon="6.10669">
        <ele>278.60000610352</ele>
        <time>2016-01-06T14:33:02Z</time>
      </trkpt>
      <trkpt lat="43.43033" lon="6.10675">
        <ele>278.79998779297</ele>
        <time>2016-01-06T14:33:04Z</time>
      </trkpt>
      <trkpt lat="43.43032" lon="6.10679">
        <ele>278.79998779297</ele>
        <time>2016-01-06T14:33:06Z</time>
      </trkpt>
      <trkpt lat="43.43031" lon="6.1068">
        <ele>279</ele>
        <time>2016-01-06T14:33:07Z</time>
      </trkpt>
      <trkpt lat="43.4303" lon="6.10682">
        <ele>279.20001220703</ele>
        <time>2016-01-06T14:33:08Z</time>
      </trkpt>
      <trkpt lat="43.43028" lon="6.10684">
        <ele>279.20001220703</ele>
        <time>2016-01-06T14:33:10Z</time>
      </trkpt>
      <trkpt lat="43.43026" lon="6.10686">
        <ele>279</ele>
        <time>2016-01-06T14:33:12Z</time>
      </trkpt>
      <trkpt lat="43.43021" lon="6.10688">
        <ele>278.79998779297</ele>
        <time>2016-01-06T14:33:14Z</time>
      </trkpt>
      <trkpt lat="43.43015" lon="6.1069">
        <ele>278.39999389648</ele>
        <time>2016-01-06T14:33:16Z</time>
      </trkpt>
      <trkpt lat="43.43012" lon="6.10691">
        <ele>278</ele>
        <time>2016-01-06T14:33:17Z</time>
      </trkpt>
      <trkpt lat="43.43009" lon="6.10694">
        <ele>277.20001220703</ele>
        <time>2016-01-06T14:33:18Z</time>
      </trkpt>
      <trkpt lat="43.43005" lon="6.10701">
        <ele>277.20001220703</ele>
        <time>2016-01-06T14:33:20Z</time>
      </trkpt>
      <trkpt lat="43.43005" lon="6.10706">
        <ele>277</ele>
        <time>2016-01-06T14:33:21Z</time>
      </trkpt>
      <trkpt lat="43.43003" lon="6.1071">
        <ele>276.60000610352</ele>
        <time>2016-01-06T14:33:22Z</time>
      </trkpt>
      <trkpt lat="43.43001" lon="6.10716">
        <ele>276.60000610352</ele>
        <time>2016-01-06T14:33:24Z</time>
      </trkpt>
      <trkpt lat="43.42999" lon="6.10721">
        <ele>276.60000610352</ele>
        <time>2016-01-06T14:33:26Z</time>
      </trkpt>
      <trkpt lat="43.42998" lon="6.10725">
        <ele>276.39999389648</ele>
        <time>2016-01-06T14:33:27Z</time>
      </trkpt>
      <trkpt lat="43.42996" lon="6.10728">
        <ele>276</ele>
        <time>2016-01-06T14:33:28Z</time>
      </trkpt>
      <trkpt lat="43.42992" lon="6.10734">
        <ele>275.79998779297</ele>
        <time>2016-01-06T14:33:30Z</time>
      </trkpt>
      <trkpt lat="43.4299" lon="6.10737">
        <ele>276</ele>
        <time>2016-01-06T14:33:31Z</time>
      </trkpt>
      <trkpt lat="43.42987" lon="6.10739">
        <ele>275.60000610352</ele>
        <time>2016-01-06T14:33:32Z</time>
      </trkpt>
      <trkpt lat="43.42982" lon="6.10745">
        <ele>275</ele>
        <time>2016-01-06T14:33:34Z</time>
      </trkpt>
      <trkpt lat="43.4298" lon="6.10749">
        <ele>274.39999389648</ele>
        <time>2016-01-06T14:33:35Z</time>
      </trkpt>
      <trkpt lat="43.42979" lon="6.10752">
        <ele>274.20001220703</ele>
        <time>2016-01-06T14:33:36Z</time>
      </trkpt>
      <trkpt lat="43.42979" lon="6.10754">
        <ele>274.20001220703</ele>
        <time>2016-01-06T14:33:37Z</time>
      </trkpt>
      <trkpt lat="43.42978" lon="6.10757">
        <ele>274.20001220703</ele>
        <time>2016-01-06T14:33:38Z</time>
      </trkpt>
      <trkpt lat="43.42978" lon="6.1076">
        <ele>274</ele>
        <time>2016-01-06T14:33:39Z</time>
      </trkpt>
      <trkpt lat="43.42979" lon="6.10763">
        <ele>273.79998779297</ele>
        <time>2016-01-06T14:33:40Z</time>
      </trkpt>
      <trkpt lat="43.42981" lon="6.10768">
        <ele>273.39999389648</ele>
        <time>2016-01-06T14:33:42Z</time>
      </trkpt>
      <trkpt lat="43.42981" lon="6.10771">
        <ele>273.39999389648</ele>
        <time>2016-01-06T14:33:44Z</time>
      </trkpt>
      <trkpt lat="43.42984" lon="6.10775">
        <ele>273.60000610352</ele>
        <time>2016-01-06T14:33:46Z</time>
      </trkpt>
      <trkpt lat="43.42986" lon="6.1078">
        <ele>273.39999389648</ele>
        <time>2016-01-06T14:33:48Z</time>
      </trkpt>
      <trkpt lat="43.42987" lon="6.10783">
        <ele>273.60000610352</ele>
        <time>2016-01-06T14:33:49Z</time>
      </trkpt>
      <trkpt lat="43.42988" lon="6.10785">
        <ele>273.79998779297</ele>
        <time>2016-01-06T14:33:50Z</time>
      </trkpt>
      <trkpt lat="43.4299" lon="6.10787">
        <ele>274</ele>
        <time>2016-01-06T14:33:52Z</time>
      </trkpt>
      <trkpt lat="43.42992" lon="6.1079">
        <ele>274.20001220703</ele>
        <time>2016-01-06T14:33:54Z</time>
      </trkpt>
      <trkpt lat="43.42996" lon="6.10795">
        <ele>274.39999389648</ele>
        <time>2016-01-06T14:33:56Z</time>
      </trkpt>
      <trkpt lat="43.42997" lon="6.108">
        <ele>274.39999389648</ele>
        <time>2016-01-06T14:33:58Z</time>
      </trkpt>
      <trkpt lat="43.42998" lon="6.10803">
        <ele>274.20001220703</ele>
        <time>2016-01-06T14:33:59Z</time>
      </trkpt>
      <trkpt lat="43.42998" lon="6.10806">
        <ele>274.20001220703</ele>
        <time>2016-01-06T14:34:00Z</time>
      </trkpt>
      <trkpt lat="43.42999" lon="6.10813">
        <ele>274.39999389648</ele>
        <time>2016-01-06T14:34:02Z</time>
      </trkpt>
      <trkpt lat="43.42999" lon="6.10819">
        <ele>274.60000610352</ele>
        <time>2016-01-06T14:34:04Z</time>
      </trkpt>
      <trkpt lat="43.42998" lon="6.10823">
        <ele>274.39999389648</ele>
        <time>2016-01-06T14:34:06Z</time>
      </trkpt>
      <trkpt lat="43.42996" lon="6.10826">
        <ele>274.20001220703</ele>
        <time>2016-01-06T14:34:08Z</time>
      </trkpt>
      <trkpt lat="43.42995" lon="6.10828">
        <ele>274.20001220703</ele>
        <time>2016-01-06T14:34:09Z</time>
      </trkpt>
      <trkpt lat="43.42994" lon="6.1083">
        <ele>274</ele>
        <time>2016-01-06T14:34:10Z</time>
      </trkpt>
      <trkpt lat="43.42992" lon="6.10833">
        <ele>274</ele>
        <time>2016-01-06T14:34:12Z</time>
      </trkpt>
      <trkpt lat="43.42992" lon="6.10833">
        <ele>273.79998779297</ele>
        <time>2016-01-06T14:34:14Z</time>
      </trkpt>
      <trkpt lat="43.42992" lon="6.10833">
        <ele>273.79998779297</ele>
        <time>2016-01-06T14:34:16Z</time>
      </trkpt>
      <trkpt lat="43.42992" lon="6.10833">
        <ele>273.79998779297</ele>
        <time>2016-01-06T14:34:18Z</time>
      </trkpt>
      <trkpt lat="43.42992" lon="6.10833">
        <ele>273.79998779297</ele>
        <time>2016-01-06T14:34:20Z</time>
      </trkpt>
      <trkpt lat="43.42991" lon="6.10833">
        <ele>273.79998779297</ele>
        <time>2016-01-06T14:34:22Z</time>
      </trkpt>
      <trkpt lat="43.42991" lon="6.10833">
        <ele>273.79998779297</ele>
        <time>2016-01-06T14:34:24Z</time>
      </trkpt>
      <trkpt lat="43.42991" lon="6.10833">
        <ele>273.79998779297</ele>
        <time>2016-01-06T14:34:26Z</time>
      </trkpt>
      <trkpt lat="43.42991" lon="6.10833">
        <ele>274</ele>
        <time>2016-01-06T14:34:28Z</time>
      </trkpt>
      <trkpt lat="43.42991" lon="6.10833">
        <ele>274</ele>
        <time>2016-01-06T14:34:30Z</time>
      </trkpt>
      <trkpt lat="43.42991" lon="6.10833">
        <ele>273.79998779297</ele>
        <time>2016-01-06T14:34:32Z</time>
      </trkpt>
      <trkpt lat="43.42991" lon="6.10833">
        <ele>273.79998779297</ele>
        <time>2016-01-06T14:34:34Z</time>
      </trkpt>
      <trkpt lat="43.42991" lon="6.10832">
        <ele>273.60000610352</ele>
        <time>2016-01-06T14:34:36Z</time>
      </trkpt>
      <trkpt lat="43.42989" lon="6.1083">
        <ele>273.60000610352</ele>
        <time>2016-01-06T14:34:38Z</time>
      </trkpt>
      <trkpt lat="43.42986" lon="6.10828">
        <ele>273.60000610352</ele>
        <time>2016-01-06T14:34:40Z</time>
      </trkpt>
      <trkpt lat="43.42984" lon="6.10826">
        <ele>273.20001220703</ele>
        <time>2016-01-06T14:34:41Z</time>
      </trkpt>
      <trkpt lat="43.42981" lon="6.10825">
        <ele>273</ele>
        <time>2016-01-06T14:34:42Z</time>
      </trkpt>
      <trkpt lat="43.42979" lon="6.10825">
        <ele>272.79998779297</ele>
        <time>2016-01-06T14:34:43Z</time>
      </trkpt>
      <trkpt lat="43.42977" lon="6.10825">
        <ele>273.20001220703</ele>
        <time>2016-01-06T14:34:44Z</time>
      </trkpt>
      <trkpt lat="43.42973" lon="6.10826">
        <ele>272.79998779297</ele>
        <time>2016-01-06T14:34:46Z</time>
      </trkpt>
      <trkpt lat="43.42968" lon="6.10824">
        <ele>272.20001220703</ele>
        <time>2016-01-06T14:34:48Z</time>
      </trkpt>
      <trkpt lat="43.42963" lon="6.10824">
        <ele>271.79998779297</ele>
        <time>2016-01-06T14:34:50Z</time>
      </trkpt>
      <trkpt lat="43.42958" lon="6.10823">
        <ele>271.79998779297</ele>
        <time>2016-01-06T14:34:52Z</time>
      </trkpt>
      <trkpt lat="43.42953" lon="6.10823">
        <ele>271.20001220703</ele>
        <time>2016-01-06T14:34:54Z</time>
      </trkpt>
      <trkpt lat="43.4295" lon="6.10823">
        <ele>271</ele>
        <time>2016-01-06T14:34:55Z</time>
      </trkpt>
      <trkpt lat="43.42948" lon="6.10822">
        <ele>270.79998779297</ele>
        <time>2016-01-06T14:34:56Z</time>
      </trkpt>
      <trkpt lat="43.42943" lon="6.1082">
        <ele>271</ele>
        <time>2016-01-06T14:34:58Z</time>
      </trkpt>
      <trkpt lat="43.42938" lon="6.10819">
        <ele>271.39999389648</ele>
        <time>2016-01-06T14:35:00Z</time>
      </trkpt>
      <trkpt lat="43.42933" lon="6.10818">
        <ele>271.20001220703</ele>
        <time>2016-01-06T14:35:02Z</time>
      </trkpt>
      <trkpt lat="43.42928" lon="6.10817">
        <ele>271.20001220703</ele>
        <time>2016-01-06T14:35:04Z</time>
      </trkpt>
      <trkpt lat="43.42923" lon="6.10816">
        <ele>271.20001220703</ele>
        <time>2016-01-06T14:35:06Z</time>
      </trkpt>
      <trkpt lat="43.42918" lon="6.10814">
        <ele>270.79998779297</ele>
        <time>2016-01-06T14:35:08Z</time>
      </trkpt>
      <trkpt lat="43.42913" lon="6.10814">
        <ele>271</ele>
        <time>2016-01-06T14:35:10Z</time>
      </trkpt>
      <trkpt lat="43.42909" lon="6.10814">
        <ele>270.79998779297</ele>
        <time>2016-01-06T14:35:12Z</time>
      </trkpt>
      <trkpt lat="43.42906" lon="6.10813">
        <ele>270.79998779297</ele>
        <time>2016-01-06T14:35:14Z</time>
      </trkpt>
      <trkpt lat="43.42903" lon="6.10811">
        <ele>270.79998779297</ele>
        <time>2016-01-06T14:35:16Z</time>
      </trkpt>
      <trkpt lat="43.42899" lon="6.1081">
        <ele>271</ele>
        <time>2016-01-06T14:35:18Z</time>
      </trkpt>
      <trkpt lat="43.42896" lon="6.10809">
        <ele>271</ele>
        <time>2016-01-06T14:35:20Z</time>
      </trkpt>
      <trkpt lat="43.42892" lon="6.10809">
        <ele>271</ele>
        <time>2016-01-06T14:35:22Z</time>
      </trkpt>
      <trkpt lat="43.42891" lon="6.10809">
        <ele>270.79998779297</ele>
        <time>2016-01-06T14:35:23Z</time>
      </trkpt>
      <trkpt lat="43.42889" lon="6.10809">
        <ele>270.39999389648</ele>
        <time>2016-01-06T14:35:24Z</time>
      </trkpt>
      <trkpt lat="43.42885" lon="6.10809">
        <ele>270.60000610352</ele>
        <time>2016-01-06T14:35:26Z</time>
      </trkpt>
      <trkpt lat="43.42882" lon="6.10808">
        <ele>271</ele>
        <time>2016-01-06T14:35:28Z</time>
      </trkpt>
      <trkpt lat="43.42878" lon="6.10808">
        <ele>271.20001220703</ele>
        <time>2016-01-06T14:35:30Z</time>
      </trkpt>
      <trkpt lat="43.42874" lon="6.10807">
        <ele>271.39999389648</ele>
        <time>2016-01-06T14:35:32Z</time>
      </trkpt>
      <trkpt lat="43.4287" lon="6.10807">
        <ele>271.60000610352</ele>
        <time>2016-01-06T14:35:34Z</time>
      </trkpt>
      <trkpt lat="43.42866" lon="6.10806">
        <ele>271.60000610352</ele>
        <time>2016-01-06T14:35:36Z</time>
      </trkpt>
      <trkpt lat="43.42863" lon="6.10806">
        <ele>271.60000610352</ele>
        <time>2016-01-06T14:35:38Z</time>
      </trkpt>
      <trkpt lat="43.42861" lon="6.10806">
        <ele>271.60000610352</ele>
        <time>2016-01-06T14:35:39Z</time>
      </trkpt>
      <trkpt lat="43.42859" lon="6.10805">
        <ele>271.60000610352</ele>
        <time>2016-01-06T14:35:40Z</time>
      </trkpt>
      <trkpt lat="43.42855" lon="6.10805">
        <ele>271.79998779297</ele>
        <time>2016-01-06T14:35:42Z</time>
      </trkpt>
      <trkpt lat="43.42851" lon="6.10804">
        <ele>272</ele>
        <time>2016-01-06T14:35:44Z</time>
      </trkpt>
      <trkpt lat="43.42847" lon="6.10803">
        <ele>272.60000610352</ele>
        <time>2016-01-06T14:35:46Z</time>
      </trkpt>
      <trkpt lat="43.42844" lon="6.10803">
        <ele>272.79998779297</ele>
        <time>2016-01-06T14:35:48Z</time>
      </trkpt>
      <trkpt lat="43.42841" lon="6.10804">
        <ele>272.79998779297</ele>
        <time>2016-01-06T14:35:50Z</time>
      </trkpt>
      <trkpt lat="43.4284" lon="6.10806">
        <ele>272.79998779297</ele>
        <time>2016-01-06T14:35:51Z</time>
      </trkpt>
      <trkpt lat="43.42839" lon="6.10807">
        <ele>272.60000610352</ele>
        <time>2016-01-06T14:35:52Z</time>
      </trkpt>
      <trkpt lat="43.42839" lon="6.10809">
        <ele>272.79998779297</ele>
        <time>2016-01-06T14:35:53Z</time>
      </trkpt>
      <trkpt lat="43.42838" lon="6.1081">
        <ele>272.79998779297</ele>
        <time>2016-01-06T14:35:54Z</time>
      </trkpt>
      <trkpt lat="43.42838" lon="6.10815">
        <ele>272.60000610352</ele>
        <time>2016-01-06T14:35:56Z</time>
      </trkpt>
      <trkpt lat="43.42836" lon="6.10821">
        <ele>272.39999389648</ele>
        <time>2016-01-06T14:35:58Z</time>
      </trkpt>
      <trkpt lat="43.42836" lon="6.10825">
        <ele>272.39999389648</ele>
        <time>2016-01-06T14:35:59Z</time>
      </trkpt>
      <trkpt lat="43.42835" lon="6.10829">
        <ele>272.39999389648</ele>
        <time>2016-01-06T14:36:00Z</time>
      </trkpt>
      <trkpt lat="43.42833" lon="6.10836">
        <ele>272.60000610352</ele>
        <time>2016-01-06T14:36:02Z</time>
      </trkpt>
      <trkpt lat="43.42832" lon="6.10842">
        <ele>272.39999389648</ele>
        <time>2016-01-06T14:36:04Z</time>
      </trkpt>
      <trkpt lat="43.42831" lon="6.10849">
        <ele>272.39999389648</ele>
        <time>2016-01-06T14:36:06Z</time>
      </trkpt>
      <trkpt lat="43.42829" lon="6.10855">
        <ele>272.39999389648</ele>
        <time>2016-01-06T14:36:08Z</time>
      </trkpt>
      <trkpt lat="43.42827" lon="6.10861">
        <ele>272.20001220703</ele>
        <time>2016-01-06T14:36:10Z</time>
      </trkpt>
      <trkpt lat="43.42824" lon="6.10869">
        <ele>272</ele>
        <time>2016-01-06T14:36:12Z</time>
      </trkpt>
      <trkpt lat="43.4282" lon="6.1088">
        <ele>270.60000610352</ele>
        <time>2016-01-06T14:36:14Z</time>
      </trkpt>
      <trkpt lat="43.42819" lon="6.10885">
        <ele>270.60000610352</ele>
        <time>2016-01-06T14:36:15Z</time>
      </trkpt>
      <trkpt lat="43.42818" lon="6.10893">
        <ele>271</ele>
        <time>2016-01-06T14:36:16Z</time>
      </trkpt>
      <trkpt lat="43.42818" lon="6.10908">
        <ele>270.20001220703</ele>
        <time>2016-01-06T14:36:18Z</time>
      </trkpt>
      <trkpt lat="43.42818" lon="6.10924">
        <ele>268.79998779297</ele>
        <time>2016-01-06T14:36:20Z</time>
      </trkpt>
      <trkpt lat="43.42817" lon="6.1094">
        <ele>268.60000610352</ele>
        <time>2016-01-06T14:36:22Z</time>
      </trkpt>
      <trkpt lat="43.42817" lon="6.10956">
        <ele>268.60000610352</ele>
        <time>2016-01-06T14:36:24Z</time>
      </trkpt>
      <trkpt lat="43.42819" lon="6.10963">
        <ele>268.39999389648</ele>
        <time>2016-01-06T14:36:25Z</time>
      </trkpt>
      <trkpt lat="43.42822" lon="6.10969">
        <ele>268.20001220703</ele>
        <time>2016-01-06T14:36:26Z</time>
      </trkpt>
      <trkpt lat="43.4283" lon="6.10978">
        <ele>268.20001220703</ele>
        <time>2016-01-06T14:36:28Z</time>
      </trkpt>
      <trkpt lat="43.42832" lon="6.10982">
        <ele>267.60000610352</ele>
        <time>2016-01-06T14:36:29Z</time>
      </trkpt>
      <trkpt lat="43.42835" lon="6.10987">
        <ele>267.39999389648</ele>
        <time>2016-01-06T14:36:30Z</time>
      </trkpt>
      <trkpt lat="43.42841" lon="6.10995">
        <ele>268.60000610352</ele>
        <time>2016-01-06T14:36:32Z</time>
      </trkpt>
      <trkpt lat="43.42844" lon="6.11003">
        <ele>268.60000610352</ele>
        <time>2016-01-06T14:36:34Z</time>
      </trkpt>
      <trkpt lat="43.42845" lon="6.11006">
        <ele>268.79998779297</ele>
        <time>2016-01-06T14:36:35Z</time>
      </trkpt>
      <trkpt lat="43.42847" lon="6.1101">
        <ele>269.20001220703</ele>
        <time>2016-01-06T14:36:36Z</time>
      </trkpt>
      <trkpt lat="43.42849" lon="6.11014">
        <ele>269.79998779297</ele>
        <time>2016-01-06T14:36:37Z</time>
      </trkpt>
      <trkpt lat="43.4285" lon="6.11017">
        <ele>270.20001220703</ele>
        <time>2016-01-06T14:36:38Z</time>
      </trkpt>
      <trkpt lat="43.42853" lon="6.11024">
        <ele>270.79998779297</ele>
        <time>2016-01-06T14:36:40Z</time>
      </trkpt>
      <trkpt lat="43.42854" lon="6.11026">
        <ele>270.79998779297</ele>
        <time>2016-01-06T14:36:41Z</time>
      </trkpt>
      <trkpt lat="43.42855" lon="6.1103">
        <ele>271.20001220703</ele>
        <time>2016-01-06T14:36:42Z</time>
      </trkpt>
      <trkpt lat="43.42857" lon="6.11036">
        <ele>271.79998779297</ele>
        <time>2016-01-06T14:36:44Z</time>
      </trkpt>
      <trkpt lat="43.42859" lon="6.11042">
        <ele>272</ele>
        <time>2016-01-06T14:36:46Z</time>
      </trkpt>
      <trkpt lat="43.42861" lon="6.11048">
        <ele>272.60000610352</ele>
        <time>2016-01-06T14:36:48Z</time>
      </trkpt>
      <trkpt lat="43.42863" lon="6.11054">
        <ele>272.60000610352</ele>
        <time>2016-01-06T14:36:50Z</time>
      </trkpt>
      <trkpt lat="43.42864" lon="6.1106">
        <ele>273.20001220703</ele>
        <time>2016-01-06T14:36:52Z</time>
      </trkpt>
      <trkpt lat="43.42864" lon="6.11066">
        <ele>273.60000610352</ele>
        <time>2016-01-06T14:36:54Z</time>
      </trkpt>
      <trkpt lat="43.42863" lon="6.11072">
        <ele>274.79998779297</ele>
        <time>2016-01-06T14:36:56Z</time>
      </trkpt>
      <trkpt lat="43.42863" lon="6.11077">
        <ele>275.39999389648</ele>
        <time>2016-01-06T14:36:58Z</time>
      </trkpt>
      <trkpt lat="43.42861" lon="6.1108">
        <ele>275.79998779297</ele>
        <time>2016-01-06T14:37:00Z</time>
      </trkpt>
      <trkpt lat="43.4286" lon="6.11083">
        <ele>276</ele>
        <time>2016-01-06T14:37:02Z</time>
      </trkpt>
      <trkpt lat="43.42859" lon="6.11085">
        <ele>276.39999389648</ele>
        <time>2016-01-06T14:37:04Z</time>
      </trkpt>
      <trkpt lat="43.42857" lon="6.11087">
        <ele>276.60000610352</ele>
        <time>2016-01-06T14:37:06Z</time>
      </trkpt>
      <trkpt lat="43.42857" lon="6.11088">
        <ele>276.79998779297</ele>
        <time>2016-01-06T14:37:07Z</time>
      </trkpt>
      <trkpt lat="43.42856" lon="6.1109">
        <ele>277</ele>
        <time>2016-01-06T14:37:08Z</time>
      </trkpt>
      <trkpt lat="43.42855" lon="6.11092">
        <ele>277</ele>
        <time>2016-01-06T14:37:10Z</time>
      </trkpt>
      <trkpt lat="43.42854" lon="6.11094">
        <ele>277</ele>
        <time>2016-01-06T14:37:12Z</time>
      </trkpt>
      <trkpt lat="43.42855" lon="6.11095">
        <ele>277</ele>
        <time>2016-01-06T14:37:14Z</time>
      </trkpt>
      <trkpt lat="43.42855" lon="6.11095">
        <ele>277</ele>
        <time>2016-01-06T14:37:16Z</time>
      </trkpt>
      <trkpt lat="43.42855" lon="6.11095">
        <ele>277</ele>
        <time>2016-01-06T14:37:18Z</time>
      </trkpt>
      <trkpt lat="43.42855" lon="6.11095">
        <ele>276.79998779297</ele>
        <time>2016-01-06T14:37:20Z</time>
      </trkpt>
      <trkpt lat="43.42855" lon="6.11095">
        <ele>276.79998779297</ele>
        <time>2016-01-06T14:37:22Z</time>
      </trkpt>
      <trkpt lat="43.42855" lon="6.11095">
        <ele>277</ele>
        <time>2016-01-06T14:37:24Z</time>
      </trkpt>
      <trkpt lat="43.42855" lon="6.11096">
        <ele>277</ele>
        <time>2016-01-06T14:37:26Z</time>
      </trkpt>
      <trkpt lat="43.42855" lon="6.11096">
        <ele>276.79998779297</ele>
        <time>2016-01-06T14:37:27Z</time>
      </trkpt>
      <trkpt lat="43.42855" lon="6.11096">
        <ele>277</ele>
        <time>2016-01-06T14:37:28Z</time>
      </trkpt>
      <trkpt lat="43.42855" lon="6.11096">
        <ele>276.79998779297</ele>
        <time>2016-01-06T14:37:30Z</time>
      </trkpt>
      <trkpt lat="43.42855" lon="6.11096">
        <ele>276.79998779297</ele>
        <time>2016-01-06T14:37:32Z</time>
      </trkpt>
      <trkpt lat="43.42855" lon="6.11096">
        <ele>276.79998779297</ele>
        <time>2016-01-06T14:37:34Z</time>
      </trkpt>
      <trkpt lat="43.42855" lon="6.11096">
        <ele>276.79998779297</ele>
        <time>2016-01-06T14:37:36Z</time>
      </trkpt>
      <trkpt lat="43.42855" lon="6.11096">
        <ele>276.79998779297</ele>
        <time>2016-01-06T14:37:38Z</time>
      </trkpt>
      <trkpt lat="43.42855" lon="6.11096">
        <ele>277</ele>
        <time>2016-01-06T14:37:40Z</time>
      </trkpt>
      <trkpt lat="43.42855" lon="6.11096">
        <ele>277.20001220703</ele>
        <time>2016-01-06T14:37:42Z</time>
      </trkpt>
      <trkpt lat="43.42855" lon="6.11096">
        <ele>277</ele>
        <time>2016-01-06T14:37:44Z</time>
      </trkpt>
      <trkpt lat="43.42855" lon="6.11096">
        <ele>277</ele>
        <time>2016-01-06T14:37:46Z</time>
      </trkpt>
      <trkpt lat="43.42855" lon="6.11096">
        <ele>277.20001220703</ele>
        <time>2016-01-06T14:37:48Z</time>
      </trkpt>
      <trkpt lat="43.42855" lon="6.11096">
        <ele>277</ele>
        <time>2016-01-06T14:37:50Z</time>
      </trkpt>
      <trkpt lat="43.42855" lon="6.11096">
        <ele>277.20001220703</ele>
        <time>2016-01-06T14:37:52Z</time>
      </trkpt>
      <trkpt lat="43.42855" lon="6.11096">
        <ele>277.20001220703</ele>
        <time>2016-01-06T14:37:54Z</time>
      </trkpt>
      <trkpt lat="43.42855" lon="6.11096">
        <ele>277</ele>
        <time>2016-01-06T14:37:56Z</time>
      </trkpt>
      <trkpt lat="43.42855" lon="6.11096">
        <ele>277</ele>
        <time>2016-01-06T14:37:58Z</time>
      </trkpt>
      <trkpt lat="43.42855" lon="6.11096">
        <ele>277</ele>
        <time>2016-01-06T14:38:00Z</time>
      </trkpt>
      <trkpt lat="43.42855" lon="6.11096">
        <ele>277</ele>
        <time>2016-01-06T14:38:02Z</time>
      </trkpt>
      <trkpt lat="43.42855" lon="6.11096">
        <ele>276.79998779297</ele>
        <time>2016-01-06T14:38:04Z</time>
      </trkpt>
      <trkpt lat="43.42855" lon="6.11096">
        <ele>276.79998779297</ele>
        <time>2016-01-06T14:38:06Z</time>
      </trkpt>
      <trkpt lat="43.42855" lon="6.11096">
        <ele>277</ele>
        <time>2016-01-06T14:38:07Z</time>
      </trkpt>
      <trkpt lat="43.42855" lon="6.11096">
        <ele>276.79998779297</ele>
        <time>2016-01-06T14:38:08Z</time>
      </trkpt>
      <trkpt lat="43.42855" lon="6.11096">
        <ele>276.79998779297</ele>
        <time>2016-01-06T14:38:10Z</time>
      </trkpt>
      <trkpt lat="43.42855" lon="6.11096">
        <ele>276.79998779297</ele>
        <time>2016-01-06T14:38:12Z</time>
      </trkpt>
      <trkpt lat="43.42855" lon="6.11096">
        <ele>277</ele>
        <time>2016-01-06T14:38:14Z</time>
      </trkpt>
      <trkpt lat="43.42855" lon="6.11096">
        <ele>277.20001220703</ele>
        <time>2016-01-06T14:38:16Z</time>
      </trkpt>
      <trkpt lat="43.42855" lon="6.11096">
        <ele>277</ele>
        <time>2016-01-06T14:38:18Z</time>
      </trkpt>
      <trkpt lat="43.42855" lon="6.11096">
        <ele>277.20001220703</ele>
        <time>2016-01-06T14:38:20Z</time>
      </trkpt>
      <trkpt lat="43.42855" lon="6.11096">
        <ele>277.20001220703</ele>
        <time>2016-01-06T14:38:22Z</time>
      </trkpt>
      <trkpt lat="43.42855" lon="6.11096">
        <ele>277.20001220703</ele>
        <time>2016-01-06T14:38:24Z</time>
      </trkpt>
      <trkpt lat="43.42855" lon="6.11096">
        <ele>277.39999389648</ele>
        <time>2016-01-06T14:38:26Z</time>
      </trkpt>
      <trkpt lat="43.42855" lon="6.11096">
        <ele>277</ele>
        <time>2016-01-06T14:38:28Z</time>
      </trkpt>
      <trkpt lat="43.42855" lon="6.11096">
        <ele>277</ele>
        <time>2016-01-06T14:38:30Z</time>
      </trkpt>
      <trkpt lat="43.42855" lon="6.11096">
        <ele>277</ele>
        <time>2016-01-06T14:38:32Z</time>
      </trkpt>
      <trkpt lat="43.42855" lon="6.11096">
        <ele>277</ele>
        <time>2016-01-06T14:38:34Z</time>
      </trkpt>
      <trkpt lat="43.42855" lon="6.11096">
        <ele>277</ele>
        <time>2016-01-06T14:38:35Z</time>
      </trkpt>
      <trkpt lat="43.42855" lon="6.11096">
        <ele>277</ele>
        <time>2016-01-06T14:38:36Z</time>
      </trkpt>
      <trkpt lat="43.42855" lon="6.11096">
        <ele>277</ele>
        <time>2016-01-06T14:38:38Z</time>
      </trkpt>
      <trkpt lat="43.42855" lon="6.11096">
        <ele>277</ele>
        <time>2016-01-06T14:38:40Z</time>
      </trkpt>
      <trkpt lat="43.42855" lon="6.11096">
        <ele>277</ele>
        <time>2016-01-06T14:38:42Z</time>
      </trkpt>
      <trkpt lat="43.42855" lon="6.11096">
        <ele>277</ele>
        <time>2016-01-06T14:38:44Z</time>
      </trkpt>
      <trkpt lat="43.42855" lon="6.11096">
        <ele>276.79998779297</ele>
        <time>2016-01-06T14:38:46Z</time>
      </trkpt>
      <trkpt lat="43.42855" lon="6.11096">
        <ele>277</ele>
        <time>2016-01-06T14:38:48Z</time>
      </trkpt>
      <trkpt lat="43.42855" lon="6.11096">
        <ele>277</ele>
        <time>2016-01-06T14:38:50Z</time>
      </trkpt>
      <trkpt lat="43.42855" lon="6.11096">
        <ele>277</ele>
        <time>2016-01-06T14:38:52Z</time>
      </trkpt>
      <trkpt lat="43.42855" lon="6.11096">
        <ele>277</ele>
        <time>2016-01-06T14:38:54Z</time>
      </trkpt>
      <trkpt lat="43.42855" lon="6.11096">
        <ele>277.20001220703</ele>
        <time>2016-01-06T14:38:55Z</time>
      </trkpt>
      <trkpt lat="43.42855" lon="6.11096">
        <ele>277.20001220703</ele>
        <time>2016-01-06T14:38:56Z</time>
      </trkpt>
      <trkpt lat="43.42855" lon="6.11096">
        <ele>277.20001220703</ele>
        <time>2016-01-06T14:38:58Z</time>
      </trkpt>
      <trkpt lat="43.42855" lon="6.11096">
        <ele>277.20001220703</ele>
        <time>2016-01-06T14:39:00Z</time>
      </trkpt>
      <trkpt lat="43.42855" lon="6.11096">
        <ele>277.20001220703</ele>
        <time>2016-01-06T14:39:02Z</time>
      </trkpt>
      <trkpt lat="43.42855" lon="6.11099">
        <ele>277.20001220703</ele>
        <time>2016-01-06T14:39:04Z</time>
      </trkpt>
      <trkpt lat="43.42855" lon="6.11103">
        <ele>277.20001220703</ele>
        <time>2016-01-06T14:39:06Z</time>
      </trkpt>
      <trkpt lat="43.42857" lon="6.11109">
        <ele>277</ele>
        <time>2016-01-06T14:39:08Z</time>
      </trkpt>
      <trkpt lat="43.42859" lon="6.11114">
        <ele>277.20001220703</ele>
        <time>2016-01-06T14:39:10Z</time>
      </trkpt>
      <trkpt lat="43.42861" lon="6.11117">
        <ele>277.20001220703</ele>
        <time>2016-01-06T14:39:11Z</time>
      </trkpt>
      <trkpt lat="43.42863" lon="6.1112">
        <ele>277.20001220703</ele>
        <time>2016-01-06T14:39:12Z</time>
      </trkpt>
      <trkpt lat="43.42868" lon="6.11125">
        <ele>276.79998779297</ele>
        <time>2016-01-06T14:39:14Z</time>
      </trkpt>
      <trkpt lat="43.42874" lon="6.11131">
        <ele>277</ele>
        <time>2016-01-06T14:39:16Z</time>
      </trkpt>
      <trkpt lat="43.42878" lon="6.11138">
        <ele>276.79998779297</ele>
        <time>2016-01-06T14:39:18Z</time>
      </trkpt>
      <trkpt lat="43.4288" lon="6.11144">
        <ele>276.60000610352</ele>
        <time>2016-01-06T14:39:20Z</time>
      </trkpt>
      <trkpt lat="43.42881" lon="6.11148">
        <ele>276.20001220703</ele>
        <time>2016-01-06T14:39:21Z</time>
      </trkpt>
      <trkpt lat="43.42882" lon="6.11151">
        <ele>276.20001220703</ele>
        <time>2016-01-06T14:39:22Z</time>
      </trkpt>
      <trkpt lat="43.42885" lon="6.11158">
        <ele>276.20001220703</ele>
        <time>2016-01-06T14:39:24Z</time>
      </trkpt>
      <trkpt lat="43.42889" lon="6.11166">
        <ele>275.79998779297</ele>
        <time>2016-01-06T14:39:26Z</time>
      </trkpt>
      <trkpt lat="43.42893" lon="6.11174">
        <ele>275.39999389648</ele>
        <time>2016-01-06T14:39:28Z</time>
      </trkpt>
      <trkpt lat="43.42896" lon="6.11184">
        <ele>275</ele>
        <time>2016-01-06T14:39:30Z</time>
      </trkpt>
      <trkpt lat="43.42897" lon="6.11188">
        <ele>274.60000610352</ele>
        <time>2016-01-06T14:39:31Z</time>
      </trkpt>
      <trkpt lat="43.42899" lon="6.11193">
        <ele>274</ele>
        <time>2016-01-06T14:39:32Z</time>
      </trkpt>
      <trkpt lat="43.42899" lon="6.11203">
        <ele>273.60000610352</ele>
        <time>2016-01-06T14:39:34Z</time>
      </trkpt>
      <trkpt lat="43.42898" lon="6.11208">
        <ele>273.39999389648</ele>
        <time>2016-01-06T14:39:35Z</time>
      </trkpt>
      <trkpt lat="43.42896" lon="6.11212">
        <ele>273</ele>
        <time>2016-01-06T14:39:36Z</time>
      </trkpt>
      <trkpt lat="43.42892" lon="6.11216">
        <ele>273</ele>
        <time>2016-01-06T14:39:38Z</time>
      </trkpt>
      <trkpt lat="43.42888" lon="6.1122">
        <ele>273.60000610352</ele>
        <time>2016-01-06T14:39:40Z</time>
      </trkpt>
      <trkpt lat="43.42884" lon="6.11226">
        <ele>274</ele>
        <time>2016-01-06T14:39:42Z</time>
      </trkpt>
      <trkpt lat="43.42879" lon="6.11232">
        <ele>274</ele>
        <time>2016-01-06T14:39:44Z</time>
      </trkpt>
      <trkpt lat="43.42876" lon="6.11237">
        <ele>274.60000610352</ele>
        <time>2016-01-06T14:39:46Z</time>
      </trkpt>
      <trkpt lat="43.42872" lon="6.11242">
        <ele>274</ele>
        <time>2016-01-06T14:39:48Z</time>
      </trkpt>
      <trkpt lat="43.42868" lon="6.11247">
        <ele>274.60000610352</ele>
        <time>2016-01-06T14:39:50Z</time>
      </trkpt>
      <trkpt lat="43.42867" lon="6.1125">
        <ele>274.79998779297</ele>
        <time>2016-01-06T14:39:51Z</time>
      </trkpt>
      <trkpt lat="43.42865" lon="6.11253">
        <ele>275</ele>
        <time>2016-01-06T14:39:52Z</time>
      </trkpt>
      <trkpt lat="43.42862" lon="6.11257">
        <ele>275.20001220703</ele>
        <time>2016-01-06T14:39:54Z</time>
      </trkpt>
      <trkpt lat="43.42859" lon="6.11263">
        <ele>275.20001220703</ele>
        <time>2016-01-06T14:39:56Z</time>
      </trkpt>
      <trkpt lat="43.42855" lon="6.11269">
        <ele>275.20001220703</ele>
        <time>2016-01-06T14:39:58Z</time>
      </trkpt>
      <trkpt lat="43.42853" lon="6.11275">
        <ele>275.20001220703</ele>
        <time>2016-01-06T14:40:00Z</time>
      </trkpt>
      <trkpt lat="43.42851" lon="6.11283">
        <ele>275</ele>
        <time>2016-01-06T14:40:02Z</time>
      </trkpt>
      <trkpt lat="43.42849" lon="6.11289">
        <ele>274.79998779297</ele>
        <time>2016-01-06T14:40:04Z</time>
      </trkpt>
      <trkpt lat="43.42846" lon="6.11297">
        <ele>275</ele>
        <time>2016-01-06T14:40:06Z</time>
      </trkpt>
      <trkpt lat="43.42844" lon="6.113">
        <ele>275.20001220703</ele>
        <time>2016-01-06T14:40:07Z</time>
      </trkpt>
      <trkpt lat="43.42842" lon="6.11303">
        <ele>275.39999389648</ele>
        <time>2016-01-06T14:40:08Z</time>
      </trkpt>
      <trkpt lat="43.42839" lon="6.11312">
        <ele>274.79998779297</ele>
        <time>2016-01-06T14:40:10Z</time>
      </trkpt>
      <trkpt lat="43.42835" lon="6.11321">
        <ele>274.79998779297</ele>
        <time>2016-01-06T14:40:12Z</time>
      </trkpt>
      <trkpt lat="43.42834" lon="6.11326">
        <ele>275.20001220703</ele>
        <time>2016-01-06T14:40:13Z</time>
      </trkpt>
      <trkpt lat="43.42832" lon="6.11331">
        <ele>274.79998779297</ele>
        <time>2016-01-06T14:40:14Z</time>
      </trkpt>
      <trkpt lat="43.42829" lon="6.11339">
        <ele>274.20001220703</ele>
        <time>2016-01-06T14:40:16Z</time>
      </trkpt>
      <trkpt lat="43.42826" lon="6.11343">
        <ele>274.79998779297</ele>
        <time>2016-01-06T14:40:17Z</time>
      </trkpt>
      <trkpt lat="43.42824" lon="6.11348">
        <ele>274.60000610352</ele>
        <time>2016-01-06T14:40:18Z</time>
      </trkpt>
      <trkpt lat="43.42822" lon="6.11352">
        <ele>274</ele>
        <time>2016-01-06T14:40:19Z</time>
      </trkpt>
      <trkpt lat="43.42818" lon="6.11356">
        <ele>273.79998779297</ele>
        <time>2016-01-06T14:40:20Z</time>
      </trkpt>
      <trkpt lat="43.42814" lon="6.1136">
        <ele>273.60000610352</ele>
        <time>2016-01-06T14:40:22Z</time>
      </trkpt>
      <trkpt lat="43.42809" lon="6.11365">
        <ele>272.79998779297</ele>
        <time>2016-01-06T14:40:24Z</time>
      </trkpt>
      <trkpt lat="43.42807" lon="6.11368">
        <ele>273.60000610352</ele>
        <time>2016-01-06T14:40:26Z</time>
      </trkpt>
      <trkpt lat="43.428" lon="6.11372">
        <ele>273</ele>
        <time>2016-01-06T14:40:28Z</time>
      </trkpt>
      <trkpt lat="43.42794" lon="6.11377">
        <ele>272.79998779297</ele>
        <time>2016-01-06T14:40:30Z</time>
      </trkpt>
      <trkpt lat="43.42787" lon="6.11383">
        <ele>272.39999389648</ele>
        <time>2016-01-06T14:40:32Z</time>
      </trkpt>
      <trkpt lat="43.42782" lon="6.11391">
        <ele>272.39999389648</ele>
        <time>2016-01-06T14:40:34Z</time>
      </trkpt>
      <trkpt lat="43.42776" lon="6.114">
        <ele>272.39999389648</ele>
        <time>2016-01-06T14:40:36Z</time>
      </trkpt>
      <trkpt lat="43.42771" lon="6.11411">
        <ele>272</ele>
        <time>2016-01-06T14:40:38Z</time>
      </trkpt>
      <trkpt lat="43.42767" lon="6.1142">
        <ele>271.39999389648</ele>
        <time>2016-01-06T14:40:40Z</time>
      </trkpt>
      <trkpt lat="43.42762" lon="6.11424">
        <ele>270.39999389648</ele>
        <time>2016-01-06T14:40:42Z</time>
      </trkpt>
      <trkpt lat="43.42761" lon="6.11433">
        <ele>269.60000610352</ele>
        <time>2016-01-06T14:40:44Z</time>
      </trkpt>
      <trkpt lat="43.42759" lon="6.11442">
        <ele>269</ele>
        <time>2016-01-06T14:40:46Z</time>
      </trkpt>
      <trkpt lat="43.42758" lon="6.11448">
        <ele>268.79998779297</ele>
        <time>2016-01-06T14:40:48Z</time>
      </trkpt>
      <trkpt lat="43.42757" lon="6.11452">
        <ele>269</ele>
        <time>2016-01-06T14:40:49Z</time>
      </trkpt>
      <trkpt lat="43.42756" lon="6.11456">
        <ele>268.79998779297</ele>
        <time>2016-01-06T14:40:50Z</time>
      </trkpt>
      <trkpt lat="43.42755" lon="6.11465">
        <ele>268</ele>
        <time>2016-01-06T14:40:52Z</time>
      </trkpt>
      <trkpt lat="43.42754" lon="6.11469">
        <ele>267.20001220703</ele>
        <time>2016-01-06T14:40:53Z</time>
      </trkpt>
      <trkpt lat="43.42752" lon="6.11472">
        <ele>266.60000610352</ele>
        <time>2016-01-06T14:40:54Z</time>
      </trkpt>
      <trkpt lat="43.4275" lon="6.1148">
        <ele>266.20001220703</ele>
        <time>2016-01-06T14:40:56Z</time>
      </trkpt>
      <trkpt lat="43.42749" lon="6.11487">
        <ele>265.79998779297</ele>
        <time>2016-01-06T14:40:58Z</time>
      </trkpt>
      <trkpt lat="43.42749" lon="6.11498">
        <ele>264</ele>
        <time>2016-01-06T14:41:00Z</time>
      </trkpt>
      <trkpt lat="43.4275" lon="6.11503">
        <ele>263.39999389648</ele>
        <time>2016-01-06T14:41:01Z</time>
      </trkpt>
      <trkpt lat="43.42752" lon="6.11508">
        <ele>263.60000610352</ele>
        <time>2016-01-06T14:41:02Z</time>
      </trkpt>
      <trkpt lat="43.42756" lon="6.11518">
        <ele>264</ele>
        <time>2016-01-06T14:41:04Z</time>
      </trkpt>
      <trkpt lat="43.42757" lon="6.11529">
        <ele>263.39999389648</ele>
        <time>2016-01-06T14:41:06Z</time>
      </trkpt>
      <trkpt lat="43.42758" lon="6.11535">
        <ele>262.79998779297</ele>
        <time>2016-01-06T14:41:07Z</time>
      </trkpt>
      <trkpt lat="43.42759" lon="6.1154">
        <ele>262.39999389648</ele>
        <time>2016-01-06T14:41:08Z</time>
      </trkpt>
      <trkpt lat="43.4276" lon="6.1155">
        <ele>262.20001220703</ele>
        <time>2016-01-06T14:41:10Z</time>
      </trkpt>
      <trkpt lat="43.4276" lon="6.1156">
        <ele>262.79998779297</ele>
        <time>2016-01-06T14:41:12Z</time>
      </trkpt>
      <trkpt lat="43.42761" lon="6.11569">
        <ele>262.39999389648</ele>
        <time>2016-01-06T14:41:14Z</time>
      </trkpt>
      <trkpt lat="43.42762" lon="6.11578">
        <ele>263.39999389648</ele>
        <time>2016-01-06T14:41:16Z</time>
      </trkpt>
      <trkpt lat="43.42763" lon="6.11585">
        <ele>264</ele>
        <time>2016-01-06T14:41:18Z</time>
      </trkpt>
      <trkpt lat="43.42764" lon="6.11591">
        <ele>264.20001220703</ele>
        <time>2016-01-06T14:41:20Z</time>
      </trkpt>
      <trkpt lat="43.42764" lon="6.11595">
        <ele>264.20001220703</ele>
        <time>2016-01-06T14:41:21Z</time>
      </trkpt>
      <trkpt lat="43.42764" lon="6.11599">
        <ele>264.20001220703</ele>
        <time>2016-01-06T14:41:22Z</time>
      </trkpt>
      <trkpt lat="43.42764" lon="6.11606">
        <ele>264.20001220703</ele>
        <time>2016-01-06T14:41:24Z</time>
      </trkpt>
      <trkpt lat="43.42764" lon="6.11611">
        <ele>263.79998779297</ele>
        <time>2016-01-06T14:41:26Z</time>
      </trkpt>
      <trkpt lat="43.42762" lon="6.11613">
        <ele>263.60000610352</ele>
        <time>2016-01-06T14:41:27Z</time>
      </trkpt>
      <trkpt lat="43.42762" lon="6.11616">
        <ele>263</ele>
        <time>2016-01-06T14:41:28Z</time>
      </trkpt>
      <trkpt lat="43.42762" lon="6.11618">
        <ele>262.39999389648</ele>
        <time>2016-01-06T14:41:29Z</time>
      </trkpt>
      <trkpt lat="43.42761" lon="6.1162">
        <ele>262.20001220703</ele>
        <time>2016-01-06T14:41:30Z</time>
      </trkpt>
      <trkpt lat="43.4276" lon="6.11623">
        <ele>262.20001220703</ele>
        <time>2016-01-06T14:41:32Z</time>
      </trkpt>
      <trkpt lat="43.42759" lon="6.11623">
        <ele>262.39999389648</ele>
        <time>2016-01-06T14:41:34Z</time>
      </trkpt>
      <trkpt lat="43.42757" lon="6.11625">
        <ele>262.20001220703</ele>
        <time>2016-01-06T14:41:36Z</time>
      </trkpt>
      <trkpt lat="43.42752" lon="6.11628">
        <ele>261.79998779297</ele>
        <time>2016-01-06T14:41:38Z</time>
      </trkpt>
      <trkpt lat="43.42748" lon="6.11631">
        <ele>261.39999389648</ele>
        <time>2016-01-06T14:41:40Z</time>
      </trkpt>
      <trkpt lat="43.42746" lon="6.11632">
        <ele>261.39999389648</ele>
        <time>2016-01-06T14:41:41Z</time>
      </trkpt>
      <trkpt lat="43.42743" lon="6.11633">
        <ele>261.39999389648</ele>
        <time>2016-01-06T14:41:42Z</time>
      </trkpt>
      <trkpt lat="43.42738" lon="6.11636">
        <ele>261.39999389648</ele>
        <time>2016-01-06T14:41:44Z</time>
      </trkpt>
      <trkpt lat="43.42735" lon="6.11637">
        <ele>261.20001220703</ele>
        <time>2016-01-06T14:41:46Z</time>
      </trkpt>
      <trkpt lat="43.42732" lon="6.1164">
        <ele>261.39999389648</ele>
        <time>2016-01-06T14:41:48Z</time>
      </trkpt>
      <trkpt lat="43.4273" lon="6.11645">
        <ele>261.79998779297</ele>
        <time>2016-01-06T14:41:50Z</time>
      </trkpt>
      <trkpt lat="43.42727" lon="6.1165">
        <ele>261.39999389648</ele>
        <time>2016-01-06T14:41:52Z</time>
      </trkpt>
      <trkpt lat="43.42725" lon="6.11656">
        <ele>261</ele>
        <time>2016-01-06T14:41:54Z</time>
      </trkpt>
      <trkpt lat="43.42723" lon="6.1166">
        <ele>261.39999389648</ele>
        <time>2016-01-06T14:41:56Z</time>
      </trkpt>
      <trkpt lat="43.42722" lon="6.11661">
        <ele>261</ele>
        <time>2016-01-06T14:41:57Z</time>
      </trkpt>
      <trkpt lat="43.42722" lon="6.11663">
        <ele>260.79998779297</ele>
        <time>2016-01-06T14:41:58Z</time>
      </trkpt>
      <trkpt lat="43.42722" lon="6.11666">
        <ele>260.39999389648</ele>
        <time>2016-01-06T14:42:00Z</time>
      </trkpt>
      <trkpt lat="43.42722" lon="6.11666">
        <ele>260.20001220703</ele>
        <time>2016-01-06T14:42:01Z</time>
      </trkpt>
      <trkpt lat="43.42723" lon="6.11667">
        <ele>260</ele>
        <time>2016-01-06T14:42:02Z</time>
      </trkpt>
      <trkpt lat="43.42723" lon="6.11669">
        <ele>259.79998779297</ele>
        <time>2016-01-06T14:42:03Z</time>
      </trkpt>
      <trkpt lat="43.42724" lon="6.11671">
        <ele>259.79998779297</ele>
        <time>2016-01-06T14:42:04Z</time>
      </trkpt>
      <trkpt lat="43.42727" lon="6.11676">
        <ele>259</ele>
        <time>2016-01-06T14:42:06Z</time>
      </trkpt>
      <trkpt lat="43.42731" lon="6.11681">
        <ele>257.79998779297</ele>
        <time>2016-01-06T14:42:08Z</time>
      </trkpt>
      <trkpt lat="43.42733" lon="6.11685">
        <ele>256.79998779297</ele>
        <time>2016-01-06T14:42:10Z</time>
      </trkpt>
      <trkpt lat="43.42734" lon="6.11688">
        <ele>255.60000610352</ele>
        <time>2016-01-06T14:42:12Z</time>
      </trkpt>
      <trkpt lat="43.42735" lon="6.11689">
        <ele>255.39999389648</ele>
        <time>2016-01-06T14:42:13Z</time>
      </trkpt>
      <trkpt lat="43.42736" lon="6.1169">
        <ele>255.19999694824</ele>
        <time>2016-01-06T14:42:14Z</time>
      </trkpt>
      <trkpt lat="43.42739" lon="6.11691">
        <ele>254.80000305176</ele>
        <time>2016-01-06T14:42:16Z</time>
      </trkpt>
      <trkpt lat="43.4274" lon="6.11693">
        <ele>254</ele>
        <time>2016-01-06T14:42:17Z</time>
      </trkpt>
      <trkpt lat="43.42741" lon="6.11696">
        <ele>253.39999389648</ele>
        <time>2016-01-06T14:42:18Z</time>
      </trkpt>
      <trkpt lat="43.42744" lon="6.117">
        <ele>252.60000610352</ele>
        <time>2016-01-06T14:42:20Z</time>
      </trkpt>
      <trkpt lat="43.42747" lon="6.11701">
        <ele>252</ele>
        <time>2016-01-06T14:42:22Z</time>
      </trkpt>
      <trkpt lat="43.42749" lon="6.11702">
        <ele>251.39999389648</ele>
        <time>2016-01-06T14:42:23Z</time>
      </trkpt>
      <trkpt lat="43.42751" lon="6.11703">
        <ele>250.80000305176</ele>
        <time>2016-01-06T14:42:24Z</time>
      </trkpt>
      <trkpt lat="43.42751" lon="6.11703">
        <ele>250.39999389648</ele>
        <time>2016-01-06T14:42:26Z</time>
      </trkpt>
      <trkpt lat="43.42751" lon="6.11703">
        <ele>250.39999389648</ele>
        <time>2016-01-06T14:42:27Z</time>
      </trkpt>
      <trkpt lat="43.42751" lon="6.11703">
        <ele>250.19999694824</ele>
        <time>2016-01-06T14:42:28Z</time>
      </trkpt>
      <trkpt lat="43.42751" lon="6.11703">
        <ele>249.80000305176</ele>
        <time>2016-01-06T14:42:30Z</time>
      </trkpt>
      <trkpt lat="43.42751" lon="6.11703">
        <ele>250</ele>
        <time>2016-01-06T14:42:32Z</time>
      </trkpt>
      <trkpt lat="43.42751" lon="6.11703">
        <ele>250</ele>
        <time>2016-01-06T14:42:34Z</time>
      </trkpt>
      <trkpt lat="43.42751" lon="6.11703">
        <ele>249.80000305176</ele>
        <time>2016-01-06T14:42:36Z</time>
      </trkpt>
      <trkpt lat="43.42751" lon="6.11703">
        <ele>249.80000305176</ele>
        <time>2016-01-06T14:42:38Z</time>
      </trkpt>
      <trkpt lat="43.42751" lon="6.11703">
        <ele>249.80000305176</ele>
        <time>2016-01-06T14:42:40Z</time>
      </trkpt>
      <trkpt lat="43.42751" lon="6.11703">
        <ele>249.60000610352</ele>
        <time>2016-01-06T14:42:42Z</time>
      </trkpt>
      <trkpt lat="43.42751" lon="6.11703">
        <ele>249.80000305176</ele>
        <time>2016-01-06T14:42:44Z</time>
      </trkpt>
      <trkpt lat="43.42751" lon="6.11703">
        <ele>249.80000305176</ele>
        <time>2016-01-06T14:42:46Z</time>
      </trkpt>
      <trkpt lat="43.42751" lon="6.11703">
        <ele>249.80000305176</ele>
        <time>2016-01-06T14:42:48Z</time>
      </trkpt>
      <trkpt lat="43.42751" lon="6.11703">
        <ele>249.60000610352</ele>
        <time>2016-01-06T14:42:50Z</time>
      </trkpt>
      <trkpt lat="43.42751" lon="6.11703">
        <ele>249.60000610352</ele>
        <time>2016-01-06T14:42:52Z</time>
      </trkpt>
      <trkpt lat="43.42751" lon="6.11703">
        <ele>249.60000610352</ele>
        <time>2016-01-06T14:42:54Z</time>
      </trkpt>
      <trkpt lat="43.42751" lon="6.11703">
        <ele>249.60000610352</ele>
        <time>2016-01-06T14:42:56Z</time>
      </trkpt>
      <trkpt lat="43.42751" lon="6.11703">
        <ele>249.39999389648</ele>
        <time>2016-01-06T14:42:58Z</time>
      </trkpt>
      <trkpt lat="43.42751" lon="6.11703">
        <ele>249.60000610352</ele>
        <time>2016-01-06T14:43:00Z</time>
      </trkpt>
      <trkpt lat="43.42751" lon="6.11703">
        <ele>249.60000610352</ele>
        <time>2016-01-06T14:43:02Z</time>
      </trkpt>
      <trkpt lat="43.42751" lon="6.11703">
        <ele>249.60000610352</ele>
        <time>2016-01-06T14:43:04Z</time>
      </trkpt>
      <trkpt lat="43.42751" lon="6.11703">
        <ele>249.80000305176</ele>
        <time>2016-01-06T14:43:06Z</time>
      </trkpt>
      <trkpt lat="43.42751" lon="6.11703">
        <ele>249.80000305176</ele>
        <time>2016-01-06T14:43:07Z</time>
      </trkpt>
      <trkpt lat="43.42751" lon="6.11703">
        <ele>249.80000305176</ele>
        <time>2016-01-06T14:43:08Z</time>
      </trkpt>
      <trkpt lat="43.42751" lon="6.11703">
        <ele>249.80000305176</ele>
        <time>2016-01-06T14:43:10Z</time>
      </trkpt>
      <trkpt lat="43.42751" lon="6.11703">
        <ele>249.80000305176</ele>
        <time>2016-01-06T14:43:12Z</time>
      </trkpt>
      <trkpt lat="43.42751" lon="6.11703">
        <ele>249.80000305176</ele>
        <time>2016-01-06T14:43:14Z</time>
      </trkpt>
      <trkpt lat="43.42751" lon="6.11703">
        <ele>250</ele>
        <time>2016-01-06T14:43:16Z</time>
      </trkpt>
      <trkpt lat="43.42751" lon="6.11703">
        <ele>250.19999694824</ele>
        <time>2016-01-06T14:43:18Z</time>
      </trkpt>
      <trkpt lat="43.42751" lon="6.11703">
        <ele>250</ele>
        <time>2016-01-06T14:43:20Z</time>
      </trkpt>
      <trkpt lat="43.42751" lon="6.11703">
        <ele>250</ele>
        <time>2016-01-06T14:43:21Z</time>
      </trkpt>
      <trkpt lat="43.42751" lon="6.11703">
        <ele>250.19999694824</ele>
        <time>2016-01-06T14:43:22Z</time>
      </trkpt>
      <trkpt lat="43.42752" lon="6.11705">
        <ele>250.60000610352</ele>
        <time>2016-01-06T14:43:24Z</time>
      </trkpt>
      <trkpt lat="43.42753" lon="6.11706">
        <ele>250.60000610352</ele>
        <time>2016-01-06T14:43:25Z</time>
      </trkpt>
      <trkpt lat="43.42755" lon="6.11706">
        <ele>250.39999389648</ele>
        <time>2016-01-06T14:43:26Z</time>
      </trkpt>
      <trkpt lat="43.42757" lon="6.11706">
        <ele>250</ele>
        <time>2016-01-06T14:43:27Z</time>
      </trkpt>
      <trkpt lat="43.4276" lon="6.11707">
        <ele>249.80000305176</ele>
        <time>2016-01-06T14:43:28Z</time>
      </trkpt>
      <trkpt lat="43.42762" lon="6.11712">
        <ele>249.39999389648</ele>
        <time>2016-01-06T14:43:30Z</time>
      </trkpt>
      <trkpt lat="43.42763" lon="6.11714">
        <ele>249.39999389648</ele>
        <time>2016-01-06T14:43:31Z</time>
      </trkpt>
      <trkpt lat="43.42763" lon="6.11717">
        <ele>249.19999694824</ele>
        <time>2016-01-06T14:43:32Z</time>
      </trkpt>
      <trkpt lat="43.42767" lon="6.11718">
        <ele>249.39999389648</ele>
        <time>2016-01-06T14:43:34Z</time>
      </trkpt>
      <trkpt lat="43.42769" lon="6.11717">
        <ele>249.19999694824</ele>
        <time>2016-01-06T14:43:35Z</time>
      </trkpt>
      <trkpt lat="43.42773" lon="6.11716">
        <ele>248.80000305176</ele>
        <time>2016-01-06T14:43:36Z</time>
      </trkpt>
      <trkpt lat="43.4278" lon="6.11709">
        <ele>248.19999694824</ele>
        <time>2016-01-06T14:43:38Z</time>
      </trkpt>
      <trkpt lat="43.42783" lon="6.11708">
        <ele>248</ele>
        <time>2016-01-06T14:43:39Z</time>
      </trkpt>
      <trkpt lat="43.42786" lon="6.11706">
        <ele>247.39999389648</ele>
        <time>2016-01-06T14:43:40Z</time>
      </trkpt>
      <trkpt lat="43.42789" lon="6.11702">
        <ele>246.80000305176</ele>
        <time>2016-01-06T14:43:41Z</time>
      </trkpt>
      <trkpt lat="43.42792" lon="6.11698">
        <ele>246</ele>
        <time>2016-01-06T14:43:42Z</time>
      </trkpt>
      <trkpt lat="43.42796" lon="6.11695">
        <ele>245.39999389648</ele>
        <time>2016-01-06T14:43:43Z</time>
      </trkpt>
      <trkpt lat="43.42799" lon="6.11692">
        <ele>245</ele>
        <time>2016-01-06T14:43:44Z</time>
      </trkpt>
      <trkpt lat="43.42802" lon="6.1169">
        <ele>244.80000305176</ele>
        <time>2016-01-06T14:43:45Z</time>
      </trkpt>
      <trkpt lat="43.42807" lon="6.11691">
        <ele>244</ele>
        <time>2016-01-06T14:43:46Z</time>
      </trkpt>
      <trkpt lat="43.4281" lon="6.11694">
        <ele>243.39999389648</ele>
        <time>2016-01-06T14:43:47Z</time>
      </trkpt>
      <trkpt lat="43.42812" lon="6.11701">
        <ele>243.19999694824</ele>
        <time>2016-01-06T14:43:48Z</time>
      </trkpt>
      <trkpt lat="43.42813" lon="6.11708">
        <ele>242.80000305176</ele>
        <time>2016-01-06T14:43:49Z</time>
      </trkpt>
      <trkpt lat="43.42814" lon="6.11716">
        <ele>241.80000305176</ele>
        <time>2016-01-06T14:43:50Z</time>
      </trkpt>
      <trkpt lat="43.42815" lon="6.11723">
        <ele>241</ele>
        <time>2016-01-06T14:43:51Z</time>
      </trkpt>
      <trkpt lat="43.42815" lon="6.1173">
        <ele>240.39999389648</ele>
        <time>2016-01-06T14:43:52Z</time>
      </trkpt>
      <trkpt lat="43.42812" lon="6.1174">
        <ele>240</ele>
        <time>2016-01-06T14:43:54Z</time>
      </trkpt>
      <trkpt lat="43.4281" lon="6.11749">
        <ele>239</ele>
        <time>2016-01-06T14:43:56Z</time>
      </trkpt>
      <trkpt lat="43.42807" lon="6.11756">
        <ele>239.19999694824</ele>
        <time>2016-01-06T14:43:58Z</time>
      </trkpt>
      <trkpt lat="43.42804" lon="6.11759">
        <ele>239.39999389648</ele>
        <time>2016-01-06T14:44:00Z</time>
      </trkpt>
      <trkpt lat="43.42804" lon="6.11765">
        <ele>239.60000610352</ele>
        <time>2016-01-06T14:44:02Z</time>
      </trkpt>
      <trkpt lat="43.42803" lon="6.11772">
        <ele>240</ele>
        <time>2016-01-06T14:44:04Z</time>
      </trkpt>
      <trkpt lat="43.42804" lon="6.11778">
        <ele>240.39999389648</ele>
        <time>2016-01-06T14:44:06Z</time>
      </trkpt>
      <trkpt lat="43.42804" lon="6.11779">
        <ele>240.80000305176</ele>
        <time>2016-01-06T14:44:07Z</time>
      </trkpt>
      <trkpt lat="43.42805" lon="6.1178">
        <ele>241</ele>
        <time>2016-01-06T14:44:08Z</time>
      </trkpt>
      <trkpt lat="43.42805" lon="6.11782">
        <ele>241</ele>
        <time>2016-01-06T14:44:09Z</time>
      </trkpt>
      <trkpt lat="43.42806" lon="6.11785">
        <ele>240.80000305176</ele>
        <time>2016-01-06T14:44:10Z</time>
      </trkpt>
      <trkpt lat="43.42807" lon="6.11791">
        <ele>240.60000610352</ele>
        <time>2016-01-06T14:44:12Z</time>
      </trkpt>
      <trkpt lat="43.42807" lon="6.11795">
        <ele>241</ele>
        <time>2016-01-06T14:44:13Z</time>
      </trkpt>
      <trkpt lat="43.42808" lon="6.11798">
        <ele>241.19999694824</ele>
        <time>2016-01-06T14:44:14Z</time>
      </trkpt>
      <trkpt lat="43.42809" lon="6.11805">
        <ele>242</ele>
        <time>2016-01-06T14:44:16Z</time>
      </trkpt>
      <trkpt lat="43.4281" lon="6.11812">
        <ele>242.19999694824</ele>
        <time>2016-01-06T14:44:18Z</time>
      </trkpt>
      <trkpt lat="43.42812" lon="6.11816">
        <ele>242.19999694824</ele>
        <time>2016-01-06T14:44:19Z</time>
      </trkpt>
      <trkpt lat="43.42812" lon="6.11819">
        <ele>242.39999389648</ele>
        <time>2016-01-06T14:44:20Z</time>
      </trkpt>
      <trkpt lat="43.42812" lon="6.11825">
        <ele>242.80000305176</ele>
        <time>2016-01-06T14:44:22Z</time>
      </trkpt>
      <trkpt lat="43.4281" lon="6.1183">
        <ele>243.19999694824</ele>
        <time>2016-01-06T14:44:24Z</time>
      </trkpt>
      <trkpt lat="43.4281" lon="6.11832">
        <ele>243.39999389648</ele>
        <time>2016-01-06T14:44:25Z</time>
      </trkpt>
      <trkpt lat="43.4281" lon="6.11835">
        <ele>243.60000610352</ele>
        <time>2016-01-06T14:44:26Z</time>
      </trkpt>
      <trkpt lat="43.4281" lon="6.1184">
        <ele>244</ele>
        <time>2016-01-06T14:44:28Z</time>
      </trkpt>
      <trkpt lat="43.42809" lon="6.11842">
        <ele>244.19999694824</ele>
        <time>2016-01-06T14:44:29Z</time>
      </trkpt>
      <trkpt lat="43.42808" lon="6.11845">
        <ele>244.39999389648</ele>
        <time>2016-01-06T14:44:30Z</time>
      </trkpt>
      <trkpt lat="43.42807" lon="6.11846">
        <ele>244.39999389648</ele>
        <time>2016-01-06T14:44:31Z</time>
      </trkpt>
      <trkpt lat="43.42807" lon="6.11848">
        <ele>244.39999389648</ele>
        <time>2016-01-06T14:44:32Z</time>
      </trkpt>
      <trkpt lat="43.42805" lon="6.11852">
        <ele>244.39999389648</ele>
        <time>2016-01-06T14:44:34Z</time>
      </trkpt>
      <trkpt lat="43.42804" lon="6.11853">
        <ele>244.60000610352</ele>
        <time>2016-01-06T14:44:35Z</time>
      </trkpt>
      <trkpt lat="43.42804" lon="6.11854">
        <ele>244.80000305176</ele>
        <time>2016-01-06T14:44:36Z</time>
      </trkpt>
      <trkpt lat="43.42802" lon="6.11854">
        <ele>245</ele>
        <time>2016-01-06T14:44:38Z</time>
      </trkpt>
      <trkpt lat="43.42801" lon="6.11854">
        <ele>245.19999694824</ele>
        <time>2016-01-06T14:44:40Z</time>
      </trkpt>
      <trkpt lat="43.42801" lon="6.11854">
        <ele>245</ele>
        <time>2016-01-06T14:44:41Z</time>
      </trkpt>
      <trkpt lat="43.428" lon="6.11853">
        <ele>245</ele>
        <time>2016-01-06T14:44:42Z</time>
      </trkpt>
      <trkpt lat="43.42799" lon="6.11853">
        <ele>244.80000305176</ele>
        <time>2016-01-06T14:44:44Z</time>
      </trkpt>
      <trkpt lat="43.42797" lon="6.11853">
        <ele>245</ele>
        <time>2016-01-06T14:44:46Z</time>
      </trkpt>
      <trkpt lat="43.42797" lon="6.11853">
        <ele>245</ele>
        <time>2016-01-06T14:44:47Z</time>
      </trkpt>
      <trkpt lat="43.42796" lon="6.11853">
        <ele>245</ele>
        <time>2016-01-06T14:44:48Z</time>
      </trkpt>
      <trkpt lat="43.42793" lon="6.11851">
        <ele>245.19999694824</ele>
        <time>2016-01-06T14:44:50Z</time>
      </trkpt>
      <trkpt lat="43.42789" lon="6.11849">
        <ele>245.19999694824</ele>
        <time>2016-01-06T14:44:52Z</time>
      </trkpt>
      <trkpt lat="43.42788" lon="6.11849">
        <ele>245</ele>
        <time>2016-01-06T14:44:53Z</time>
      </trkpt>
      <trkpt lat="43.42785" lon="6.11849">
        <ele>245</ele>
        <time>2016-01-06T14:44:54Z</time>
      </trkpt>
      <trkpt lat="43.42781" lon="6.11848">
        <ele>245.39999389648</ele>
        <time>2016-01-06T14:44:56Z</time>
      </trkpt>
      <trkpt lat="43.42779" lon="6.11849">
        <ele>245.60000610352</ele>
        <time>2016-01-06T14:44:57Z</time>
      </trkpt>
      <trkpt lat="43.42777" lon="6.11849">
        <ele>246</ele>
        <time>2016-01-06T14:44:58Z</time>
      </trkpt>
      <trkpt lat="43.42776" lon="6.11851">
        <ele>246.80000305176</ele>
        <time>2016-01-06T14:44:59Z</time>
      </trkpt>
      <trkpt lat="43.42775" lon="6.11852">
        <ele>247.39999389648</ele>
        <time>2016-01-06T14:45:00Z</time>
      </trkpt>
      <trkpt lat="43.42773" lon="6.11853">
        <ele>248.19999694824</ele>
        <time>2016-01-06T14:45:01Z</time>
      </trkpt>
      <trkpt lat="43.42772" lon="6.11854">
        <ele>248.60000610352</ele>
        <time>2016-01-06T14:45:02Z</time>
      </trkpt>
      <trkpt lat="43.4277" lon="6.11855">
        <ele>249.19999694824</ele>
        <time>2016-01-06T14:45:04Z</time>
      </trkpt>
      <trkpt lat="43.42767" lon="6.11856">
        <ele>250</ele>
        <time>2016-01-06T14:45:06Z</time>
      </trkpt>
      <trkpt lat="43.42766" lon="6.11855">
        <ele>250.39999389648</ele>
        <time>2016-01-06T14:45:07Z</time>
      </trkpt>
      <trkpt lat="43.42765" lon="6.11855">
        <ele>250.60000610352</ele>
        <time>2016-01-06T14:45:08Z</time>
      </trkpt>
      <trkpt lat="43.42764" lon="6.11856">
        <ele>250.60000610352</ele>
        <time>2016-01-06T14:45:09Z</time>
      </trkpt>
      <trkpt lat="43.42764" lon="6.11856">
        <ele>250.80000305176</ele>
        <time>2016-01-06T14:45:10Z</time>
      </trkpt>
      <trkpt lat="43.42762" lon="6.11857">
        <ele>251.39999389648</ele>
        <time>2016-01-06T14:45:12Z</time>
      </trkpt>
      <trkpt lat="43.42761" lon="6.11857">
        <ele>251.60000610352</ele>
        <time>2016-01-06T14:45:13Z</time>
      </trkpt>
      <trkpt lat="43.4276" lon="6.11858">
        <ele>251.80000305176</ele>
        <time>2016-01-06T14:45:14Z</time>
      </trkpt>
      <trkpt lat="43.42758" lon="6.1186">
        <ele>252</ele>
        <time>2016-01-06T14:45:16Z</time>
      </trkpt>
      <trkpt lat="43.42756" lon="6.11862">
        <ele>252.19999694824</ele>
        <time>2016-01-06T14:45:18Z</time>
      </trkpt>
      <trkpt lat="43.42754" lon="6.11864">
        <ele>252.80000305176</ele>
        <time>2016-01-06T14:45:20Z</time>
      </trkpt>
      <trkpt lat="43.42754" lon="6.11865">
        <ele>253</ele>
        <time>2016-01-06T14:45:21Z</time>
      </trkpt>
      <trkpt lat="43.42753" lon="6.11866">
        <ele>253.39999389648</ele>
        <time>2016-01-06T14:45:22Z</time>
      </trkpt>
      <trkpt lat="43.42752" lon="6.11867">
        <ele>253.80000305176</ele>
        <time>2016-01-06T14:45:23Z</time>
      </trkpt>
      <trkpt lat="43.4275" lon="6.11868">
        <ele>254</ele>
        <time>2016-01-06T14:45:24Z</time>
      </trkpt>
      <trkpt lat="43.42747" lon="6.11868">
        <ele>254.39999389648</ele>
        <time>2016-01-06T14:45:26Z</time>
      </trkpt>
      <trkpt lat="43.42744" lon="6.11869">
        <ele>254.60000610352</ele>
        <time>2016-01-06T14:45:28Z</time>
      </trkpt>
      <trkpt lat="43.42742" lon="6.11869">
        <ele>254.80000305176</ele>
        <time>2016-01-06T14:45:30Z</time>
      </trkpt>
      <trkpt lat="43.42739" lon="6.1187">
        <ele>255</ele>
        <time>2016-01-06T14:45:32Z</time>
      </trkpt>
      <trkpt lat="43.42736" lon="6.11871">
        <ele>255.19999694824</ele>
        <time>2016-01-06T14:45:34Z</time>
      </trkpt>
      <trkpt lat="43.42735" lon="6.11871">
        <ele>255.19999694824</ele>
        <time>2016-01-06T14:45:35Z</time>
      </trkpt>
      <trkpt lat="43.42734" lon="6.11872">
        <ele>255.19999694824</ele>
        <time>2016-01-06T14:45:36Z</time>
      </trkpt>
      <trkpt lat="43.42732" lon="6.11873">
        <ele>255.39999389648</ele>
        <time>2016-01-06T14:45:38Z</time>
      </trkpt>
      <trkpt lat="43.4273" lon="6.11874">
        <ele>255.80000305176</ele>
        <time>2016-01-06T14:45:40Z</time>
      </trkpt>
      <trkpt lat="43.42729" lon="6.11874">
        <ele>255.80000305176</ele>
        <time>2016-01-06T14:45:41Z</time>
      </trkpt>
      <trkpt lat="43.42728" lon="6.11875">
        <ele>256</ele>
        <time>2016-01-06T14:45:42Z</time>
      </trkpt>
      <trkpt lat="43.42727" lon="6.11876">
        <ele>256</ele>
        <time>2016-01-06T14:45:44Z</time>
      </trkpt>
      <trkpt lat="43.42727" lon="6.11877">
        <ele>256</ele>
        <time>2016-01-06T14:45:46Z</time>
      </trkpt>
      <trkpt lat="43.42727" lon="6.11877">
        <ele>256</ele>
        <time>2016-01-06T14:45:48Z</time>
      </trkpt>
      <trkpt lat="43.42727" lon="6.11877">
        <ele>256</ele>
        <time>2016-01-06T14:45:50Z</time>
      </trkpt>
      <trkpt lat="43.42727" lon="6.11877">
        <ele>256</ele>
        <time>2016-01-06T14:45:52Z</time>
      </trkpt>
      <trkpt lat="43.42727" lon="6.11877">
        <ele>256</ele>
        <time>2016-01-06T14:45:54Z</time>
      </trkpt>
      <trkpt lat="43.42727" lon="6.11877">
        <ele>255.80000305176</ele>
        <time>2016-01-06T14:45:56Z</time>
      </trkpt>
      <trkpt lat="43.42727" lon="6.11877">
        <ele>255.80000305176</ele>
        <time>2016-01-06T14:45:58Z</time>
      </trkpt>
      <trkpt lat="43.42727" lon="6.11877">
        <ele>255.80000305176</ele>
        <time>2016-01-06T14:46:00Z</time>
      </trkpt>
      <trkpt lat="43.42727" lon="6.11877">
        <ele>255.80000305176</ele>
        <time>2016-01-06T14:46:01Z</time>
      </trkpt>
      <trkpt lat="43.42728" lon="6.11877">
        <ele>256</ele>
        <time>2016-01-06T14:46:04Z</time>
      </trkpt>
      <trkpt lat="43.42727" lon="6.11877">
        <ele>256.20001220703</ele>
        <time>2016-01-06T14:46:06Z</time>
      </trkpt>
      <trkpt lat="43.42728" lon="6.11877">
        <ele>256</ele>
        <time>2016-01-06T14:46:08Z</time>
      </trkpt>
      <trkpt lat="43.42728" lon="6.11877">
        <ele>256</ele>
        <time>2016-01-06T14:46:10Z</time>
      </trkpt>
      <trkpt lat="43.42728" lon="6.11877">
        <ele>256.20001220703</ele>
        <time>2016-01-06T14:46:12Z</time>
      </trkpt>
      <trkpt lat="43.42728" lon="6.11877">
        <ele>256.20001220703</ele>
        <time>2016-01-06T14:46:14Z</time>
      </trkpt>
      <trkpt lat="43.42728" lon="6.11877">
        <ele>256</ele>
        <time>2016-01-06T14:46:16Z</time>
      </trkpt>
      <trkpt lat="43.42728" lon="6.11877">
        <ele>256</ele>
        <time>2016-01-06T14:46:18Z</time>
      </trkpt>
      <trkpt lat="43.42728" lon="6.11877">
        <ele>256</ele>
        <time>2016-01-06T14:46:20Z</time>
      </trkpt>
      <trkpt lat="43.42728" lon="6.11877">
        <ele>256</ele>
        <time>2016-01-06T14:46:22Z</time>
      </trkpt>
      <trkpt lat="43.42728" lon="6.11877">
        <ele>256</ele>
        <time>2016-01-06T14:46:23Z</time>
      </trkpt>
      <trkpt lat="43.42728" lon="6.11877">
        <ele>256</ele>
        <time>2016-01-06T14:46:24Z</time>
      </trkpt>
      <trkpt lat="43.42728" lon="6.11877">
        <ele>256</ele>
        <time>2016-01-06T14:46:26Z</time>
      </trkpt>
      <trkpt lat="43.42728" lon="6.11877">
        <ele>255.80000305176</ele>
        <time>2016-01-06T14:46:28Z</time>
      </trkpt>
      <trkpt lat="43.42727" lon="6.11877">
        <ele>255.80000305176</ele>
        <time>2016-01-06T14:46:30Z</time>
      </trkpt>
      <trkpt lat="43.42727" lon="6.11877">
        <ele>255.80000305176</ele>
        <time>2016-01-06T14:46:32Z</time>
      </trkpt>
      <trkpt lat="43.42727" lon="6.11877">
        <ele>255.80000305176</ele>
        <time>2016-01-06T14:46:34Z</time>
      </trkpt>
      <trkpt lat="43.42727" lon="6.11877">
        <ele>255.60000610352</ele>
        <time>2016-01-06T14:46:36Z</time>
      </trkpt>
      <trkpt lat="43.42727" lon="6.11877">
        <ele>255.60000610352</ele>
        <time>2016-01-06T14:46:38Z</time>
      </trkpt>
      <trkpt lat="43.42727" lon="6.11877">
        <ele>255.60000610352</ele>
        <time>2016-01-06T14:46:40Z</time>
      </trkpt>
      <trkpt lat="43.42727" lon="6.11877">
        <ele>255.80000305176</ele>
        <time>2016-01-06T14:46:42Z</time>
      </trkpt>
      <trkpt lat="43.42727" lon="6.11877">
        <ele>255.80000305176</ele>
        <time>2016-01-06T14:46:44Z</time>
      </trkpt>
      <trkpt lat="43.42727" lon="6.11877">
        <ele>255.80000305176</ele>
        <time>2016-01-06T14:46:46Z</time>
      </trkpt>
      <trkpt lat="43.42727" lon="6.11877">
        <ele>256</ele>
        <time>2016-01-06T14:46:48Z</time>
      </trkpt>
      <trkpt lat="43.42727" lon="6.11877">
        <ele>256</ele>
        <time>2016-01-06T14:46:50Z</time>
      </trkpt>
      <trkpt lat="43.42727" lon="6.11877">
        <ele>255.80000305176</ele>
        <time>2016-01-06T14:46:52Z</time>
      </trkpt>
      <trkpt lat="43.42727" lon="6.11877">
        <ele>255.80000305176</ele>
        <time>2016-01-06T14:46:54Z</time>
      </trkpt>
      <trkpt lat="43.42727" lon="6.11877">
        <ele>255.80000305176</ele>
        <time>2016-01-06T14:46:56Z</time>
      </trkpt>
      <trkpt lat="43.42727" lon="6.11877">
        <ele>255.80000305176</ele>
        <time>2016-01-06T14:46:58Z</time>
      </trkpt>
      <trkpt lat="43.42727" lon="6.11877">
        <ele>255.60000610352</ele>
        <time>2016-01-06T14:47:00Z</time>
      </trkpt>
      <trkpt lat="43.42727" lon="6.11877">
        <ele>255.80000305176</ele>
        <time>2016-01-06T14:47:02Z</time>
      </trkpt>
      <trkpt lat="43.42727" lon="6.11877">
        <ele>255.80000305176</ele>
        <time>2016-01-06T14:47:04Z</time>
      </trkpt>
      <trkpt lat="43.42727" lon="6.11877">
        <ele>255.60000610352</ele>
        <time>2016-01-06T14:47:06Z</time>
      </trkpt>
      <trkpt lat="43.42727" lon="6.11877">
        <ele>255.80000305176</ele>
        <time>2016-01-06T14:47:08Z</time>
      </trkpt>
      <trkpt lat="43.42727" lon="6.11877">
        <ele>255.80000305176</ele>
        <time>2016-01-06T14:47:10Z</time>
      </trkpt>
      <trkpt lat="43.42727" lon="6.11878">
        <ele>255.80000305176</ele>
        <time>2016-01-06T14:47:12Z</time>
      </trkpt>
      <trkpt lat="43.42727" lon="6.11878">
        <ele>255.80000305176</ele>
        <time>2016-01-06T14:47:14Z</time>
      </trkpt>
      <trkpt lat="43.42727" lon="6.11878">
        <ele>255.60000610352</ele>
        <time>2016-01-06T14:47:16Z</time>
      </trkpt>
      <trkpt lat="43.42727" lon="6.11878">
        <ele>255.39999389648</ele>
        <time>2016-01-06T14:47:18Z</time>
      </trkpt>
      <trkpt lat="43.42727" lon="6.11877">
        <ele>255.60000610352</ele>
        <time>2016-01-06T14:47:20Z</time>
      </trkpt>
      <trkpt lat="43.42727" lon="6.11877">
        <ele>255.60000610352</ele>
        <time>2016-01-06T14:47:21Z</time>
      </trkpt>
      <trkpt lat="43.42727" lon="6.11877">
        <ele>255.60000610352</ele>
        <time>2016-01-06T14:47:22Z</time>
      </trkpt>
      <trkpt lat="43.42727" lon="6.11877">
        <ele>255.80000305176</ele>
        <time>2016-01-06T14:47:24Z</time>
      </trkpt>
      <trkpt lat="43.42727" lon="6.11877">
        <ele>255.60000610352</ele>
        <time>2016-01-06T14:47:26Z</time>
      </trkpt>
      <trkpt lat="43.42727" lon="6.11877">
        <ele>255.60000610352</ele>
        <time>2016-01-06T14:47:28Z</time>
      </trkpt>
      <trkpt lat="43.42727" lon="6.11877">
        <ele>255.39999389648</ele>
        <time>2016-01-06T14:47:30Z</time>
      </trkpt>
      <trkpt lat="43.42727" lon="6.11877">
        <ele>255.19999694824</ele>
        <time>2016-01-06T14:47:32Z</time>
      </trkpt>
      <trkpt lat="43.42727" lon="6.11877">
        <ele>255.60000610352</ele>
        <time>2016-01-06T14:47:34Z</time>
      </trkpt>
      <trkpt lat="43.42727" lon="6.11877">
        <ele>255.39999389648</ele>
        <time>2016-01-06T14:47:36Z</time>
      </trkpt>
      <trkpt lat="43.42727" lon="6.11877">
        <ele>255.39999389648</ele>
        <time>2016-01-06T14:47:38Z</time>
      </trkpt>
      <trkpt lat="43.42727" lon="6.11877">
        <ele>255.60000610352</ele>
        <time>2016-01-06T14:47:40Z</time>
      </trkpt>
      <trkpt lat="43.42727" lon="6.11878">
        <ele>255.60000610352</ele>
        <time>2016-01-06T14:47:42Z</time>
      </trkpt>
      <trkpt lat="43.42727" lon="6.11878">
        <ele>255.60000610352</ele>
        <time>2016-01-06T14:47:44Z</time>
      </trkpt>
      <trkpt lat="43.42727" lon="6.11878">
        <ele>255.60000610352</ele>
        <time>2016-01-06T14:47:46Z</time>
      </trkpt>
      <trkpt lat="43.42727" lon="6.11878">
        <ele>255.60000610352</ele>
        <time>2016-01-06T14:47:48Z</time>
      </trkpt>
      <trkpt lat="43.42727" lon="6.11878">
        <ele>255.60000610352</ele>
        <time>2016-01-06T14:47:50Z</time>
      </trkpt>
      <trkpt lat="43.42727" lon="6.11878">
        <ele>255.39999389648</ele>
        <time>2016-01-06T14:47:52Z</time>
      </trkpt>
      <trkpt lat="43.42727" lon="6.11878">
        <ele>255.39999389648</ele>
        <time>2016-01-06T14:47:54Z</time>
      </trkpt>
      <trkpt lat="43.42727" lon="6.11878">
        <ele>255.39999389648</ele>
        <time>2016-01-06T14:47:56Z</time>
      </trkpt>
      <trkpt lat="43.42727" lon="6.11877">
        <ele>255.39999389648</ele>
        <time>2016-01-06T14:47:57Z</time>
      </trkpt>
      <trkpt lat="43.42727" lon="6.11878">
        <ele>255.39999389648</ele>
        <time>2016-01-06T14:47:58Z</time>
      </trkpt>
      <trkpt lat="43.42727" lon="6.11877">
        <ele>255.39999389648</ele>
        <time>2016-01-06T14:48:00Z</time>
      </trkpt>
      <trkpt lat="43.42727" lon="6.11877">
        <ele>255.39999389648</ele>
        <time>2016-01-06T14:48:02Z</time>
      </trkpt>
      <trkpt lat="43.42727" lon="6.11877">
        <ele>255.39999389648</ele>
        <time>2016-01-06T14:48:04Z</time>
      </trkpt>
      <trkpt lat="43.42727" lon="6.11877">
        <ele>255.19999694824</ele>
        <time>2016-01-06T14:48:06Z</time>
      </trkpt>
      <trkpt lat="43.42727" lon="6.11877">
        <ele>255</ele>
        <time>2016-01-06T14:48:08Z</time>
      </trkpt>
      <trkpt lat="43.42727" lon="6.11877">
        <ele>255.19999694824</ele>
        <time>2016-01-06T14:48:10Z</time>
      </trkpt>
      <trkpt lat="43.42727" lon="6.11877">
        <ele>255.39999389648</ele>
        <time>2016-01-06T14:48:12Z</time>
      </trkpt>
      <trkpt lat="43.42727" lon="6.11877">
        <ele>255.39999389648</ele>
        <time>2016-01-06T14:48:14Z</time>
      </trkpt>
      <trkpt lat="43.42727" lon="6.11877">
        <ele>255.60000610352</ele>
        <time>2016-01-06T14:48:16Z</time>
      </trkpt>
      <trkpt lat="43.42727" lon="6.11877">
        <ele>255.60000610352</ele>
        <time>2016-01-06T14:48:18Z</time>
      </trkpt>
      <trkpt lat="43.42727" lon="6.11877">
        <ele>255.39999389648</ele>
        <time>2016-01-06T14:48:20Z</time>
      </trkpt>
      <trkpt lat="43.42727" lon="6.11877">
        <ele>255.39999389648</ele>
        <time>2016-01-06T14:48:22Z</time>
      </trkpt>
      <trkpt lat="43.42727" lon="6.11877">
        <ele>255.39999389648</ele>
        <time>2016-01-06T14:48:24Z</time>
      </trkpt>
      <trkpt lat="43.42727" lon="6.11877">
        <ele>255.39999389648</ele>
        <time>2016-01-06T14:48:26Z</time>
      </trkpt>
      <trkpt lat="43.42727" lon="6.11877">
        <ele>255.39999389648</ele>
        <time>2016-01-06T14:48:28Z</time>
      </trkpt>
      <trkpt lat="43.42728" lon="6.11877">
        <ele>255.39999389648</ele>
        <time>2016-01-06T14:48:30Z</time>
      </trkpt>
      <trkpt lat="43.42728" lon="6.11877">
        <ele>255.39999389648</ele>
        <time>2016-01-06T14:48:32Z</time>
      </trkpt>
      <trkpt lat="43.42728" lon="6.11877">
        <ele>255.39999389648</ele>
        <time>2016-01-06T14:48:34Z</time>
      </trkpt>
      <trkpt lat="43.42728" lon="6.11877">
        <ele>255.39999389648</ele>
        <time>2016-01-06T14:48:36Z</time>
      </trkpt>
      <trkpt lat="43.42727" lon="6.11877">
        <ele>255.39999389648</ele>
        <time>2016-01-06T14:48:38Z</time>
      </trkpt>
      <trkpt lat="43.42728" lon="6.11877">
        <ele>255.39999389648</ele>
        <time>2016-01-06T14:48:40Z</time>
      </trkpt>
      <trkpt lat="43.42727" lon="6.11877">
        <ele>255.19999694824</ele>
        <time>2016-01-06T14:48:42Z</time>
      </trkpt>
      <trkpt lat="43.42727" lon="6.11877">
        <ele>255.39999389648</ele>
        <time>2016-01-06T14:48:44Z</time>
      </trkpt>
      <trkpt lat="43.42728" lon="6.11877">
        <ele>255.19999694824</ele>
        <time>2016-01-06T14:48:46Z</time>
      </trkpt>
      <trkpt lat="43.42727" lon="6.11877">
        <ele>255.19999694824</ele>
        <time>2016-01-06T14:48:48Z</time>
      </trkpt>
      <trkpt lat="43.42727" lon="6.11877">
        <ele>255</ele>
        <time>2016-01-06T14:48:50Z</time>
      </trkpt>
      <trkpt lat="43.42727" lon="6.11877">
        <ele>255.19999694824</ele>
        <time>2016-01-06T14:48:52Z</time>
      </trkpt>
      <trkpt lat="43.42726" lon="6.11877">
        <ele>255.39999389648</ele>
        <time>2016-01-06T14:48:53Z</time>
      </trkpt>
      <trkpt lat="43.42725" lon="6.11878">
        <ele>255.39999389648</ele>
        <time>2016-01-06T14:48:54Z</time>
      </trkpt>
      <trkpt lat="43.42723" lon="6.1188">
        <ele>255.19999694824</ele>
        <time>2016-01-06T14:48:56Z</time>
      </trkpt>
      <trkpt lat="43.42719" lon="6.11882">
        <ele>255.19999694824</ele>
        <time>2016-01-06T14:48:58Z</time>
      </trkpt>
      <trkpt lat="43.42715" lon="6.11884">
        <ele>255.39999389648</ele>
        <time>2016-01-06T14:49:00Z</time>
      </trkpt>
      <trkpt lat="43.42714" lon="6.11885">
        <ele>255.39999389648</ele>
        <time>2016-01-06T14:49:01Z</time>
      </trkpt>
      <trkpt lat="43.42712" lon="6.11887">
        <ele>255.39999389648</ele>
        <time>2016-01-06T14:49:02Z</time>
      </trkpt>
      <trkpt lat="43.42709" lon="6.11891">
        <ele>255.19999694824</ele>
        <time>2016-01-06T14:49:04Z</time>
      </trkpt>
      <trkpt lat="43.42706" lon="6.11896">
        <ele>255.39999389648</ele>
        <time>2016-01-06T14:49:06Z</time>
      </trkpt>
      <trkpt lat="43.42706" lon="6.119">
        <ele>255.60000610352</ele>
        <time>2016-01-06T14:49:07Z</time>
      </trkpt>
      <trkpt lat="43.42707" lon="6.11903">
        <ele>255.19999694824</ele>
        <time>2016-01-06T14:49:08Z</time>
      </trkpt>
      <trkpt lat="43.42707" lon="6.11911">
        <ele>254.80000305176</ele>
        <time>2016-01-06T14:49:10Z</time>
      </trkpt>
      <trkpt lat="43.42709" lon="6.11921">
        <ele>254.19999694824</ele>
        <time>2016-01-06T14:49:12Z</time>
      </trkpt>
      <trkpt lat="43.42714" lon="6.1193">
        <ele>253.80000305176</ele>
        <time>2016-01-06T14:49:14Z</time>
      </trkpt>
      <trkpt lat="43.42718" lon="6.11934">
        <ele>253.60000610352</ele>
        <time>2016-01-06T14:49:15Z</time>
      </trkpt>
      <trkpt lat="43.42722" lon="6.11938">
        <ele>253.39999389648</ele>
        <time>2016-01-06T14:49:16Z</time>
      </trkpt>
      <trkpt lat="43.42726" lon="6.11942">
        <ele>252.60000610352</ele>
        <time>2016-01-06T14:49:17Z</time>
      </trkpt>
      <trkpt lat="43.4273" lon="6.11947">
        <ele>251.60000610352</ele>
        <time>2016-01-06T14:49:18Z</time>
      </trkpt>
      <trkpt lat="43.42734" lon="6.11949">
        <ele>251</ele>
        <time>2016-01-06T14:49:19Z</time>
      </trkpt>
      <trkpt lat="43.42737" lon="6.11953">
        <ele>251.19999694824</ele>
        <time>2016-01-06T14:49:20Z</time>
      </trkpt>
      <trkpt lat="43.42739" lon="6.11962">
        <ele>251.19999694824</ele>
        <time>2016-01-06T14:49:22Z</time>
      </trkpt>
      <trkpt lat="43.42739" lon="6.11967">
        <ele>250.60000610352</ele>
        <time>2016-01-06T14:49:23Z</time>
      </trkpt>
      <trkpt lat="43.42739" lon="6.11972">
        <ele>250</ele>
        <time>2016-01-06T14:49:24Z</time>
      </trkpt>
      <trkpt lat="43.42739" lon="6.11978">
        <ele>249.80000305176</ele>
        <time>2016-01-06T14:49:25Z</time>
      </trkpt>
      <trkpt lat="43.42739" lon="6.11984">
        <ele>249.80000305176</ele>
        <time>2016-01-06T14:49:26Z</time>
      </trkpt>
      <trkpt lat="43.42738" lon="6.11996">
        <ele>249.60000610352</ele>
        <time>2016-01-06T14:49:28Z</time>
      </trkpt>
      <trkpt lat="43.42739" lon="6.12008">
        <ele>249.19999694824</ele>
        <time>2016-01-06T14:49:30Z</time>
      </trkpt>
      <trkpt lat="43.42739" lon="6.12019">
        <ele>249</ele>
        <time>2016-01-06T14:49:32Z</time>
      </trkpt>
      <trkpt lat="43.42739" lon="6.12025">
        <ele>249</ele>
        <time>2016-01-06T14:49:33Z</time>
      </trkpt>
      <trkpt lat="43.42738" lon="6.1203">
        <ele>249</ele>
        <time>2016-01-06T14:49:34Z</time>
      </trkpt>
      <trkpt lat="43.42739" lon="6.12035">
        <ele>248.80000305176</ele>
        <time>2016-01-06T14:49:35Z</time>
      </trkpt>
      <trkpt lat="43.4274" lon="6.1204">
        <ele>248.39999389648</ele>
        <time>2016-01-06T14:49:36Z</time>
      </trkpt>
      <trkpt lat="43.42741" lon="6.12043">
        <ele>248</ele>
        <time>2016-01-06T14:49:37Z</time>
      </trkpt>
      <trkpt lat="43.42741" lon="6.12045">
        <ele>247.80000305176</ele>
        <time>2016-01-06T14:49:38Z</time>
      </trkpt>
      <trkpt lat="43.42741" lon="6.12046">
        <ele>247.80000305176</ele>
        <time>2016-01-06T14:49:40Z</time>
      </trkpt>
      <trkpt lat="43.42742" lon="6.12048">
        <ele>247.80000305176</ele>
        <time>2016-01-06T14:49:42Z</time>
      </trkpt>
      <trkpt lat="43.42742" lon="6.12052">
        <ele>247.80000305176</ele>
        <time>2016-01-06T14:49:44Z</time>
      </trkpt>
      <trkpt lat="43.42742" lon="6.12058">
        <ele>247.60000610352</ele>
        <time>2016-01-06T14:49:46Z</time>
      </trkpt>
      <trkpt lat="43.42742" lon="6.12061">
        <ele>247.60000610352</ele>
        <time>2016-01-06T14:49:47Z</time>
      </trkpt>
      <trkpt lat="43.42743" lon="6.12065">
        <ele>247.60000610352</ele>
        <time>2016-01-06T14:49:48Z</time>
      </trkpt>
      <trkpt lat="43.42744" lon="6.12074">
        <ele>247.39999389648</ele>
        <time>2016-01-06T14:49:50Z</time>
      </trkpt>
      <trkpt lat="43.42746" lon="6.12083">
        <ele>247.19999694824</ele>
        <time>2016-01-06T14:49:52Z</time>
      </trkpt>
      <trkpt lat="43.42747" lon="6.12088">
        <ele>247.19999694824</ele>
        <time>2016-01-06T14:49:53Z</time>
      </trkpt>
      <trkpt lat="43.42749" lon="6.12092">
        <ele>247.19999694824</ele>
        <time>2016-01-06T14:49:54Z</time>
      </trkpt>
      <trkpt lat="43.42753" lon="6.121">
        <ele>246.60000610352</ele>
        <time>2016-01-06T14:49:56Z</time>
      </trkpt>
      <trkpt lat="43.42756" lon="6.12105">
        <ele>245.60000610352</ele>
        <time>2016-01-06T14:49:58Z</time>
      </trkpt>
      <trkpt lat="43.42759" lon="6.12108">
        <ele>245.39999389648</ele>
        <time>2016-01-06T14:49:59Z</time>
      </trkpt>
      <trkpt lat="43.42761" lon="6.1211">
        <ele>245.39999389648</ele>
        <time>2016-01-06T14:50:00Z</time>
      </trkpt>
      <trkpt lat="43.42764" lon="6.12113">
        <ele>245</ele>
        <time>2016-01-06T14:50:02Z</time>
      </trkpt>
      <trkpt lat="43.42765" lon="6.12115">
        <ele>244.60000610352</ele>
        <time>2016-01-06T14:50:03Z</time>
      </trkpt>
      <trkpt lat="43.42765" lon="6.12117">
        <ele>244.39999389648</ele>
        <time>2016-01-06T14:50:04Z</time>
      </trkpt>
      <trkpt lat="43.42765" lon="6.12119">
        <ele>244.19999694824</ele>
        <time>2016-01-06T14:50:05Z</time>
      </trkpt>
      <trkpt lat="43.42766" lon="6.12122">
        <ele>243.80000305176</ele>
        <time>2016-01-06T14:50:06Z</time>
      </trkpt>
      <trkpt lat="43.42767" lon="6.12125">
        <ele>243.39999389648</ele>
        <time>2016-01-06T14:50:07Z</time>
      </trkpt>
      <trkpt lat="43.42769" lon="6.12128">
        <ele>243.19999694824</ele>
        <time>2016-01-06T14:50:08Z</time>
      </trkpt>
      <trkpt lat="43.4277" lon="6.12131">
        <ele>243</ele>
        <time>2016-01-06T14:50:09Z</time>
      </trkpt>
      <trkpt lat="43.42771" lon="6.12134">
        <ele>243</ele>
        <time>2016-01-06T14:50:10Z</time>
      </trkpt>
      <trkpt lat="43.42775" lon="6.12141">
        <ele>242.60000610352</ele>
        <time>2016-01-06T14:50:12Z</time>
      </trkpt>
      <trkpt lat="43.42778" lon="6.12147">
        <ele>242.39999389648</ele>
        <time>2016-01-06T14:50:14Z</time>
      </trkpt>
      <trkpt lat="43.42781" lon="6.12154">
        <ele>242</ele>
        <time>2016-01-06T14:50:16Z</time>
      </trkpt>
      <trkpt lat="43.42783" lon="6.12156">
        <ele>241.80000305176</ele>
        <time>2016-01-06T14:50:17Z</time>
      </trkpt>
      <trkpt lat="43.42785" lon="6.12158">
        <ele>241.80000305176</ele>
        <time>2016-01-06T14:50:18Z</time>
      </trkpt>
      <trkpt lat="43.42789" lon="6.12161">
        <ele>241.39999389648</ele>
        <time>2016-01-06T14:50:20Z</time>
      </trkpt>
      <trkpt lat="43.42792" lon="6.12162">
        <ele>241.19999694824</ele>
        <time>2016-01-06T14:50:21Z</time>
      </trkpt>
      <trkpt lat="43.42794" lon="6.12163">
        <ele>240.80000305176</ele>
        <time>2016-01-06T14:50:22Z</time>
      </trkpt>
      <trkpt lat="43.42797" lon="6.12163">
        <ele>240.60000610352</ele>
        <time>2016-01-06T14:50:24Z</time>
      </trkpt>
      <trkpt lat="43.428" lon="6.12164">
        <ele>240.39999389648</ele>
        <time>2016-01-06T14:50:26Z</time>
      </trkpt>
      <trkpt lat="43.42803" lon="6.12164">
        <ele>240</ele>
        <time>2016-01-06T14:50:28Z</time>
      </trkpt>
      <trkpt lat="43.42805" lon="6.12163">
        <ele>240</ele>
        <time>2016-01-06T14:50:30Z</time>
      </trkpt>
      <trkpt lat="43.42805" lon="6.12163">
        <ele>240</ele>
        <time>2016-01-06T14:50:31Z</time>
      </trkpt>
      <trkpt lat="43.42806" lon="6.12163">
        <ele>240</ele>
        <time>2016-01-06T14:50:32Z</time>
      </trkpt>
      <trkpt lat="43.42807" lon="6.12163">
        <ele>239.80000305176</ele>
        <time>2016-01-06T14:50:33Z</time>
      </trkpt>
      <trkpt lat="43.42807" lon="6.12163">
        <ele>239.80000305176</ele>
        <time>2016-01-06T14:50:34Z</time>
      </trkpt>
      <trkpt lat="43.4281" lon="6.12164">
        <ele>240</ele>
        <time>2016-01-06T14:50:36Z</time>
      </trkpt>
      <trkpt lat="43.42813" lon="6.12164">
        <ele>240.19999694824</ele>
        <time>2016-01-06T14:50:38Z</time>
      </trkpt>
      <trkpt lat="43.42817" lon="6.12164">
        <ele>240</ele>
        <time>2016-01-06T14:50:39Z</time>
      </trkpt>
      <trkpt lat="43.4282" lon="6.12163">
        <ele>239.80000305176</ele>
        <time>2016-01-06T14:50:40Z</time>
      </trkpt>
      <trkpt lat="43.42823" lon="6.12163">
        <ele>239.60000610352</ele>
        <time>2016-01-06T14:50:42Z</time>
      </trkpt>
      <trkpt lat="43.42826" lon="6.12163">
        <ele>239.39999389648</ele>
        <time>2016-01-06T14:50:43Z</time>
      </trkpt>
      <trkpt lat="43.42828" lon="6.12163">
        <ele>239.19999694824</ele>
        <time>2016-01-06T14:50:44Z</time>
      </trkpt>
      <trkpt lat="43.42831" lon="6.12162">
        <ele>239</ele>
        <time>2016-01-06T14:50:45Z</time>
      </trkpt>
      <trkpt lat="43.42833" lon="6.12162">
        <ele>239</ele>
        <time>2016-01-06T14:50:46Z</time>
      </trkpt>
      <trkpt lat="43.42838" lon="6.1216">
        <ele>239</ele>
        <time>2016-01-06T14:50:48Z</time>
      </trkpt>
      <trkpt lat="43.42844" lon="6.1216">
        <ele>238.80000305176</ele>
        <time>2016-01-06T14:50:50Z</time>
      </trkpt>
      <trkpt lat="43.42852" lon="6.12159">
        <ele>238.60000610352</ele>
        <time>2016-01-06T14:50:52Z</time>
      </trkpt>
      <trkpt lat="43.42855" lon="6.1216">
        <ele>238</ele>
        <time>2016-01-06T14:50:53Z</time>
      </trkpt>
      <trkpt lat="43.42859" lon="6.1216">
        <ele>237.39999389648</ele>
        <time>2016-01-06T14:50:54Z</time>
      </trkpt>
      <trkpt lat="43.42865" lon="6.12162">
        <ele>236.19999694824</ele>
        <time>2016-01-06T14:50:56Z</time>
      </trkpt>
      <trkpt lat="43.42868" lon="6.12162">
        <ele>236.19999694824</ele>
        <time>2016-01-06T14:50:57Z</time>
      </trkpt>
      <trkpt lat="43.42872" lon="6.12161">
        <ele>236</ele>
        <time>2016-01-06T14:50:58Z</time>
      </trkpt>
      <trkpt lat="43.42879" lon="6.12159">
        <ele>236.19999694824</ele>
        <time>2016-01-06T14:51:00Z</time>
      </trkpt>
      <trkpt lat="43.42887" lon="6.12159">
        <ele>235.80000305176</ele>
        <time>2016-01-06T14:51:02Z</time>
      </trkpt>
      <trkpt lat="43.4289" lon="6.12157">
        <ele>235.80000305176</ele>
        <time>2016-01-06T14:51:03Z</time>
      </trkpt>
      <trkpt lat="43.42894" lon="6.12156">
        <ele>235.80000305176</ele>
        <time>2016-01-06T14:51:04Z</time>
      </trkpt>
      <trkpt lat="43.42898" lon="6.12155">
        <ele>235.39999389648</ele>
        <time>2016-01-06T14:51:05Z</time>
      </trkpt>
      <trkpt lat="43.42903" lon="6.12153">
        <ele>234.80000305176</ele>
        <time>2016-01-06T14:51:06Z</time>
      </trkpt>
      <trkpt lat="43.42907" lon="6.12147">
        <ele>234.80000305176</ele>
        <time>2016-01-06T14:51:08Z</time>
      </trkpt>
      <trkpt lat="43.42912" lon="6.12141">
        <ele>234.60000610352</ele>
        <time>2016-01-06T14:51:10Z</time>
      </trkpt>
      <trkpt lat="43.42913" lon="6.12139">
        <ele>234.19999694824</ele>
        <time>2016-01-06T14:51:11Z</time>
      </trkpt>
      <trkpt lat="43.42914" lon="6.12135">
        <ele>233.80000305176</ele>
        <time>2016-01-06T14:51:12Z</time>
      </trkpt>
      <trkpt lat="43.42913" lon="6.12131">
        <ele>233.39999389648</ele>
        <time>2016-01-06T14:51:13Z</time>
      </trkpt>
      <trkpt lat="43.42912" lon="6.12129">
        <ele>233.39999389648</ele>
        <time>2016-01-06T14:51:14Z</time>
      </trkpt>
      <trkpt lat="43.42912" lon="6.12121">
        <ele>233.39999389648</ele>
        <time>2016-01-06T14:51:16Z</time>
      </trkpt>
      <trkpt lat="43.42912" lon="6.12118">
        <ele>233</ele>
        <time>2016-01-06T14:51:17Z</time>
      </trkpt>
      <trkpt lat="43.42912" lon="6.12113">
        <ele>232.80000305176</ele>
        <time>2016-01-06T14:51:18Z</time>
      </trkpt>
      <trkpt lat="43.42911" lon="6.12104">
        <ele>231.80000305176</ele>
        <time>2016-01-06T14:51:20Z</time>
      </trkpt>
      <trkpt lat="43.4291" lon="6.121">
        <ele>231.60000610352</ele>
        <time>2016-01-06T14:51:21Z</time>
      </trkpt>
      <trkpt lat="43.4291" lon="6.12095">
        <ele>231</ele>
        <time>2016-01-06T14:51:22Z</time>
      </trkpt>
      <trkpt lat="43.4291" lon="6.1209">
        <ele>230.80000305176</ele>
        <time>2016-01-06T14:51:23Z</time>
      </trkpt>
      <trkpt lat="43.4291" lon="6.12085">
        <ele>230.80000305176</ele>
        <time>2016-01-06T14:51:24Z</time>
      </trkpt>
      <trkpt lat="43.4291" lon="6.12077">
        <ele>230.60000610352</ele>
        <time>2016-01-06T14:51:26Z</time>
      </trkpt>
      <trkpt lat="43.4291" lon="6.12074">
        <ele>230.60000610352</ele>
        <time>2016-01-06T14:51:27Z</time>
      </trkpt>
      <trkpt lat="43.42909" lon="6.12071">
        <ele>230.39999389648</ele>
        <time>2016-01-06T14:51:28Z</time>
      </trkpt>
      <trkpt lat="43.42908" lon="6.12063">
        <ele>230.19999694824</ele>
        <time>2016-01-06T14:51:30Z</time>
      </trkpt>
      <trkpt lat="43.42905" lon="6.12055">
        <ele>230</ele>
        <time>2016-01-06T14:51:32Z</time>
      </trkpt>
      <trkpt lat="43.42904" lon="6.12052">
        <ele>229.60000610352</ele>
        <time>2016-01-06T14:51:33Z</time>
      </trkpt>
      <trkpt lat="43.42904" lon="6.12048">
        <ele>229.19999694824</ele>
        <time>2016-01-06T14:51:34Z</time>
      </trkpt>
      <trkpt lat="43.42903" lon="6.1204">
        <ele>228.60000610352</ele>
        <time>2016-01-06T14:51:36Z</time>
      </trkpt>
      <trkpt lat="43.42903" lon="6.12036">
        <ele>228.39999389648</ele>
        <time>2016-01-06T14:51:37Z</time>
      </trkpt>
      <trkpt lat="43.42902" lon="6.12032">
        <ele>228.39999389648</ele>
        <time>2016-01-06T14:51:38Z</time>
      </trkpt>
      <trkpt lat="43.42902" lon="6.12023">
        <ele>228.19999694824</ele>
        <time>2016-01-06T14:51:40Z</time>
      </trkpt>
      <trkpt lat="43.42901" lon="6.12014">
        <ele>227</ele>
        <time>2016-01-06T14:51:42Z</time>
      </trkpt>
      <trkpt lat="43.42899" lon="6.12006">
        <ele>226.19999694824</ele>
        <time>2016-01-06T14:51:44Z</time>
      </trkpt>
      <trkpt lat="43.42897" lon="6.11999">
        <ele>225.80000305176</ele>
        <time>2016-01-06T14:51:46Z</time>
      </trkpt>
      <trkpt lat="43.42893" lon="6.11992">
        <ele>225</ele>
        <time>2016-01-06T14:51:48Z</time>
      </trkpt>
      <trkpt lat="43.42891" lon="6.11988">
        <ele>224.80000305176</ele>
        <time>2016-01-06T14:51:49Z</time>
      </trkpt>
      <trkpt lat="43.42889" lon="6.11986">
        <ele>224.80000305176</ele>
        <time>2016-01-06T14:51:50Z</time>
      </trkpt>
      <trkpt lat="43.42887" lon="6.11983">
        <ele>224.80000305176</ele>
        <time>2016-01-06T14:51:51Z</time>
      </trkpt>
      <trkpt lat="43.42886" lon="6.11979">
        <ele>224.60000610352</ele>
        <time>2016-01-06T14:51:52Z</time>
      </trkpt>
      <trkpt lat="43.42884" lon="6.11971">
        <ele>224.39999389648</ele>
        <time>2016-01-06T14:51:54Z</time>
      </trkpt>
      <trkpt lat="43.42883" lon="6.11965">
        <ele>224.60000610352</ele>
        <time>2016-01-06T14:51:56Z</time>
      </trkpt>
      <trkpt lat="43.42882" lon="6.11958">
        <ele>224.19999694824</ele>
        <time>2016-01-06T14:51:58Z</time>
      </trkpt>
      <trkpt lat="43.42883" lon="6.11955">
        <ele>224</ele>
        <time>2016-01-06T14:51:59Z</time>
      </trkpt>
      <trkpt lat="43.42882" lon="6.11952">
        <ele>223.80000305176</ele>
        <time>2016-01-06T14:52:00Z</time>
      </trkpt>
      <trkpt lat="43.42881" lon="6.1195">
        <ele>223.80000305176</ele>
        <time>2016-01-06T14:52:01Z</time>
      </trkpt>
      <trkpt lat="43.42881" lon="6.11948">
        <ele>223.80000305176</ele>
        <time>2016-01-06T14:52:02Z</time>
      </trkpt>
      <trkpt lat="43.4288" lon="6.11945">
        <ele>223.60000610352</ele>
        <time>2016-01-06T14:52:04Z</time>
      </trkpt>
      <trkpt lat="43.42879" lon="6.11941">
        <ele>223.39999389648</ele>
        <time>2016-01-06T14:52:06Z</time>
      </trkpt>
      <trkpt lat="43.42879" lon="6.11939">
        <ele>223.60000610352</ele>
        <time>2016-01-06T14:52:07Z</time>
      </trkpt>
      <trkpt lat="43.42879" lon="6.11937">
        <ele>223.60000610352</ele>
        <time>2016-01-06T14:52:08Z</time>
      </trkpt>
      <trkpt lat="43.42879" lon="6.11931">
        <ele>223.19999694824</ele>
        <time>2016-01-06T14:52:10Z</time>
      </trkpt>
      <trkpt lat="43.42878" lon="6.11923">
        <ele>223.19999694824</ele>
        <time>2016-01-06T14:52:12Z</time>
      </trkpt>
      <trkpt lat="43.42879" lon="6.11913">
        <ele>223.80000305176</ele>
        <time>2016-01-06T14:52:14Z</time>
      </trkpt>
      <trkpt lat="43.42879" lon="6.11908">
        <ele>222.39999389648</ele>
        <time>2016-01-06T14:52:16Z</time>
      </trkpt>
      <trkpt lat="43.42878" lon="6.11902">
        <ele>222.19999694824</ele>
        <time>2016-01-06T14:52:18Z</time>
      </trkpt>
      <trkpt lat="43.42879" lon="6.11898">
        <ele>221.39999389648</ele>
        <time>2016-01-06T14:52:20Z</time>
      </trkpt>
      <trkpt lat="43.42879" lon="6.11898">
        <ele>221.19999694824</ele>
        <time>2016-01-06T14:52:21Z</time>
      </trkpt>
      <trkpt lat="43.42879" lon="6.11897">
        <ele>221.19999694824</ele>
        <time>2016-01-06T14:52:22Z</time>
      </trkpt>
      <trkpt lat="43.42879" lon="6.11897">
        <ele>221.39999389648</ele>
        <time>2016-01-06T14:52:24Z</time>
      </trkpt>
      <trkpt lat="43.42879" lon="6.11896">
        <ele>221.60000610352</ele>
        <time>2016-01-06T14:52:25Z</time>
      </trkpt>
      <trkpt lat="43.42879" lon="6.11896">
        <ele>221.60000610352</ele>
        <time>2016-01-06T14:52:26Z</time>
      </trkpt>
      <trkpt lat="43.42879" lon="6.11895">
        <ele>221.60000610352</ele>
        <time>2016-01-06T14:52:28Z</time>
      </trkpt>
      <trkpt lat="43.42879" lon="6.11895">
        <ele>221.60000610352</ele>
        <time>2016-01-06T14:52:30Z</time>
      </trkpt>
      <trkpt lat="43.42879" lon="6.11892">
        <ele>221.39999389648</ele>
        <time>2016-01-06T14:52:32Z</time>
      </trkpt>
      <trkpt lat="43.42879" lon="6.11891">
        <ele>221.39999389648</ele>
        <time>2016-01-06T14:52:34Z</time>
      </trkpt>
      <trkpt lat="43.42879" lon="6.11891">
        <ele>221.39999389648</ele>
        <time>2016-01-06T14:52:36Z</time>
      </trkpt>
      <trkpt lat="43.42878" lon="6.1189">
        <ele>221.19999694824</ele>
        <time>2016-01-06T14:52:37Z</time>
      </trkpt>
      <trkpt lat="43.42878" lon="6.11889">
        <ele>221</ele>
        <time>2016-01-06T14:52:38Z</time>
      </trkpt>
      <trkpt lat="43.42877" lon="6.11886">
        <ele>220.80000305176</ele>
        <time>2016-01-06T14:52:40Z</time>
      </trkpt>
      <trkpt lat="43.42878" lon="6.11885">
        <ele>220.80000305176</ele>
        <time>2016-01-06T14:52:41Z</time>
      </trkpt>
      <trkpt lat="43.42878" lon="6.11883">
        <ele>220.60000610352</ele>
        <time>2016-01-06T14:52:42Z</time>
      </trkpt>
      <trkpt lat="43.42878" lon="6.11881">
        <ele>220.39999389648</ele>
        <time>2016-01-06T14:52:43Z</time>
      </trkpt>
      <trkpt lat="43.42879" lon="6.11879">
        <ele>219.80000305176</ele>
        <time>2016-01-06T14:52:44Z</time>
      </trkpt>
      <trkpt lat="43.42879" lon="6.11874">
        <ele>219.39999389648</ele>
        <time>2016-01-06T14:52:46Z</time>
      </trkpt>
      <trkpt lat="43.4288" lon="6.1187">
        <ele>219</ele>
        <time>2016-01-06T14:52:48Z</time>
      </trkpt>
      <trkpt lat="43.4288" lon="6.11869">
        <ele>219</ele>
        <time>2016-01-06T14:52:49Z</time>
      </trkpt>
      <trkpt lat="43.4288" lon="6.11869">
        <ele>218.60000610352</ele>
        <time>2016-01-06T14:52:50Z</time>
      </trkpt>
      <trkpt lat="43.4288" lon="6.11868">
        <ele>218.39999389648</ele>
        <time>2016-01-06T14:52:52Z</time>
      </trkpt>
      <trkpt lat="43.4288" lon="6.11866">
        <ele>218.19999694824</ele>
        <time>2016-01-06T14:52:54Z</time>
      </trkpt>
      <trkpt lat="43.4288" lon="6.11863">
        <ele>217.80000305176</ele>
        <time>2016-01-06T14:52:56Z</time>
      </trkpt>
      <trkpt lat="43.4288" lon="6.11862">
        <ele>217.60000610352</ele>
        <time>2016-01-06T14:52:57Z</time>
      </trkpt>
      <trkpt lat="43.42879" lon="6.1186">
        <ele>217.60000610352</ele>
        <time>2016-01-06T14:52:58Z</time>
      </trkpt>
      <trkpt lat="43.42877" lon="6.11856">
        <ele>217.39999389648</ele>
        <time>2016-01-06T14:53:00Z</time>
      </trkpt>
      <trkpt lat="43.42876" lon="6.11853">
        <ele>217.39999389648</ele>
        <time>2016-01-06T14:53:02Z</time>
      </trkpt>
      <trkpt lat="43.42875" lon="6.11851">
        <ele>217.80000305176</ele>
        <time>2016-01-06T14:53:04Z</time>
      </trkpt>
      <trkpt lat="43.42873" lon="6.11848">
        <ele>218</ele>
        <time>2016-01-06T14:53:06Z</time>
      </trkpt>
      <trkpt lat="43.42874" lon="6.11846">
        <ele>218</ele>
        <time>2016-01-06T14:53:07Z</time>
      </trkpt>
      <trkpt lat="43.42874" lon="6.11845">
        <ele>218.19999694824</ele>
        <time>2016-01-06T14:53:08Z</time>
      </trkpt>
      <trkpt lat="43.42875" lon="6.11841">
        <ele>218</ele>
        <time>2016-01-06T14:53:10Z</time>
      </trkpt>
      <trkpt lat="43.42875" lon="6.11839">
        <ele>217.80000305176</ele>
        <time>2016-01-06T14:53:11Z</time>
      </trkpt>
      <trkpt lat="43.42876" lon="6.11836">
        <ele>217.60000610352</ele>
        <time>2016-01-06T14:53:12Z</time>
      </trkpt>
      <trkpt lat="43.42876" lon="6.11833">
        <ele>217.39999389648</ele>
        <time>2016-01-06T14:53:13Z</time>
      </trkpt>
      <trkpt lat="43.42876" lon="6.11831">
        <ele>217.19999694824</ele>
        <time>2016-01-06T14:53:14Z</time>
      </trkpt>
      <trkpt lat="43.42876" lon="6.11826">
        <ele>217.19999694824</ele>
        <time>2016-01-06T14:53:16Z</time>
      </trkpt>
      <trkpt lat="43.42876" lon="6.11823">
        <ele>217</ele>
        <time>2016-01-06T14:53:17Z</time>
      </trkpt>
      <trkpt lat="43.42877" lon="6.11818">
        <ele>216.80000305176</ele>
        <time>2016-01-06T14:53:18Z</time>
      </trkpt>
      <trkpt lat="43.42878" lon="6.11815">
        <ele>216.60000610352</ele>
        <time>2016-01-06T14:53:19Z</time>
      </trkpt>
      <trkpt lat="43.42878" lon="6.11812">
        <ele>216.39999389648</ele>
        <time>2016-01-06T14:53:20Z</time>
      </trkpt>
      <trkpt lat="43.42879" lon="6.11805">
        <ele>215.80000305176</ele>
        <time>2016-01-06T14:53:22Z</time>
      </trkpt>
      <trkpt lat="43.4288" lon="6.11799">
        <ele>215.60000610352</ele>
        <time>2016-01-06T14:53:24Z</time>
      </trkpt>
      <trkpt lat="43.42881" lon="6.11792">
        <ele>214.39999389648</ele>
        <time>2016-01-06T14:53:26Z</time>
      </trkpt>
      <trkpt lat="43.42883" lon="6.11786">
        <ele>214</ele>
        <time>2016-01-06T14:53:28Z</time>
      </trkpt>
      <trkpt lat="43.42883" lon="6.11779">
        <ele>213.80000305176</ele>
        <time>2016-01-06T14:53:30Z</time>
      </trkpt>
      <trkpt lat="43.42883" lon="6.11775">
        <ele>213.60000610352</ele>
        <time>2016-01-06T14:53:32Z</time>
      </trkpt>
      <trkpt lat="43.42883" lon="6.11773">
        <ele>213.39999389648</ele>
        <time>2016-01-06T14:53:34Z</time>
      </trkpt>
      <trkpt lat="43.42883" lon="6.11772">
        <ele>213.39999389648</ele>
        <time>2016-01-06T14:53:36Z</time>
      </trkpt>
      <trkpt lat="43.42883" lon="6.11771">
        <ele>213.39999389648</ele>
        <time>2016-01-06T14:53:37Z</time>
      </trkpt>
      <trkpt lat="43.42884" lon="6.1177">
        <ele>213.39999389648</ele>
        <time>2016-01-06T14:53:38Z</time>
      </trkpt>
      <trkpt lat="43.42884" lon="6.11769">
        <ele>213.39999389648</ele>
        <time>2016-01-06T14:53:40Z</time>
      </trkpt>
      <trkpt lat="43.42884" lon="6.11768">
        <ele>213.39999389648</ele>
        <time>2016-01-06T14:53:42Z</time>
      </trkpt>
      <trkpt lat="43.42884" lon="6.11768">
        <ele>213.19999694824</ele>
        <time>2016-01-06T14:53:43Z</time>
      </trkpt>
      <trkpt lat="43.42884" lon="6.11768">
        <ele>213.19999694824</ele>
        <time>2016-01-06T14:53:44Z</time>
      </trkpt>
      <trkpt lat="43.42884" lon="6.11768">
        <ele>213</ele>
        <time>2016-01-06T14:53:46Z</time>
      </trkpt>
      <trkpt lat="43.42884" lon="6.11767">
        <ele>213</ele>
        <time>2016-01-06T14:53:48Z</time>
      </trkpt>
      <trkpt lat="43.42885" lon="6.11766">
        <ele>212.60000610352</ele>
        <time>2016-01-06T14:53:50Z</time>
      </trkpt>
      <trkpt lat="43.42886" lon="6.11765">
        <ele>212.19999694824</ele>
        <time>2016-01-06T14:53:52Z</time>
      </trkpt>
      <trkpt lat="43.42886" lon="6.11765">
        <ele>212</ele>
        <time>2016-01-06T14:53:54Z</time>
      </trkpt>
      <trkpt lat="43.42886" lon="6.11766">
        <ele>211.80000305176</ele>
        <time>2016-01-06T14:53:56Z</time>
      </trkpt>
      <trkpt lat="43.42886" lon="6.11766">
        <ele>211.60000610352</ele>
        <time>2016-01-06T14:53:57Z</time>
      </trkpt>
      <trkpt lat="43.42886" lon="6.11766">
        <ele>211.39999389648</ele>
        <time>2016-01-06T14:53:58Z</time>
      </trkpt>
      <trkpt lat="43.42886" lon="6.11766">
        <ele>211.19999694824</ele>
        <time>2016-01-06T14:54:00Z</time>
      </trkpt>
      <trkpt lat="43.42887" lon="6.11766">
        <ele>211</ele>
        <time>2016-01-06T14:54:02Z</time>
      </trkpt>
      <trkpt lat="43.42887" lon="6.11766">
        <ele>211</ele>
        <time>2016-01-06T14:54:04Z</time>
      </trkpt>
      <trkpt lat="43.42887" lon="6.11766">
        <ele>211</ele>
        <time>2016-01-06T14:54:06Z</time>
      </trkpt>
      <trkpt lat="43.42888" lon="6.11767">
        <ele>211</ele>
        <time>2016-01-06T14:54:08Z</time>
      </trkpt>
      <trkpt lat="43.42889" lon="6.11767">
        <ele>210.39999389648</ele>
        <time>2016-01-06T14:54:10Z</time>
      </trkpt>
      <trkpt lat="43.4289" lon="6.11767">
        <ele>210.19999694824</ele>
        <time>2016-01-06T14:54:11Z</time>
      </trkpt>
      <trkpt lat="43.42891" lon="6.11768">
        <ele>210</ele>
        <time>2016-01-06T14:54:12Z</time>
      </trkpt>
      <trkpt lat="43.4289" lon="6.11767">
        <ele>210.19999694824</ele>
        <time>2016-01-06T14:54:13Z</time>
      </trkpt>
      <trkpt lat="43.42891" lon="6.11768">
        <ele>210.19999694824</ele>
        <time>2016-01-06T14:54:14Z</time>
      </trkpt>
      <trkpt lat="43.42891" lon="6.11768">
        <ele>210.19999694824</ele>
        <time>2016-01-06T14:54:16Z</time>
      </trkpt>
      <trkpt lat="43.42891" lon="6.11768">
        <ele>210.39999389648</ele>
        <time>2016-01-06T14:54:18Z</time>
      </trkpt>
      <trkpt lat="43.42892" lon="6.11769">
        <ele>210.39999389648</ele>
        <time>2016-01-06T14:54:20Z</time>
      </trkpt>
      <trkpt lat="43.42892" lon="6.11769">
        <ele>210.60000610352</ele>
        <time>2016-01-06T14:54:22Z</time>
      </trkpt>
      <trkpt lat="43.42892" lon="6.1177">
        <ele>210.60000610352</ele>
        <time>2016-01-06T14:54:24Z</time>
      </trkpt>
      <trkpt lat="43.42892" lon="6.1177">
        <ele>210.60000610352</ele>
        <time>2016-01-06T14:54:26Z</time>
      </trkpt>
      <trkpt lat="43.42892" lon="6.1177">
        <ele>210.80000305176</ele>
        <time>2016-01-06T14:54:28Z</time>
      </trkpt>
      <trkpt lat="43.42892" lon="6.1177">
        <ele>210.60000610352</ele>
        <time>2016-01-06T14:54:30Z</time>
      </trkpt>
      <trkpt lat="43.42893" lon="6.1177">
        <ele>210.39999389648</ele>
        <time>2016-01-06T14:54:31Z</time>
      </trkpt>
      <trkpt lat="43.42894" lon="6.11772">
        <ele>210.39999389648</ele>
        <time>2016-01-06T14:54:32Z</time>
      </trkpt>
      <trkpt lat="43.42897" lon="6.11779">
        <ele>210.19999694824</ele>
        <time>2016-01-06T14:54:34Z</time>
      </trkpt>
      <trkpt lat="43.42899" lon="6.11782">
        <ele>209.80000305176</ele>
        <time>2016-01-06T14:54:35Z</time>
      </trkpt>
      <trkpt lat="43.429" lon="6.11786">
        <ele>209.39999389648</ele>
        <time>2016-01-06T14:54:36Z</time>
      </trkpt>
      <trkpt lat="43.42901" lon="6.11793">
        <ele>209.19999694824</ele>
        <time>2016-01-06T14:54:38Z</time>
      </trkpt>
      <trkpt lat="43.42902" lon="6.118">
        <ele>209</ele>
        <time>2016-01-06T14:54:40Z</time>
      </trkpt>
      <trkpt lat="43.42902" lon="6.11806">
        <ele>208.80000305176</ele>
        <time>2016-01-06T14:54:42Z</time>
      </trkpt>
      <trkpt lat="43.42904" lon="6.11813">
        <ele>208.60000610352</ele>
        <time>2016-01-06T14:54:44Z</time>
      </trkpt>
      <trkpt lat="43.42905" lon="6.11817">
        <ele>208.60000610352</ele>
        <time>2016-01-06T14:54:45Z</time>
      </trkpt>
      <trkpt lat="43.42907" lon="6.11821">
        <ele>208.60000610352</ele>
        <time>2016-01-06T14:54:46Z</time>
      </trkpt>
      <trkpt lat="43.42907" lon="6.11824">
        <ele>208.39999389648</ele>
        <time>2016-01-06T14:54:47Z</time>
      </trkpt>
      <trkpt lat="43.42907" lon="6.11828">
        <ele>208</ele>
        <time>2016-01-06T14:54:48Z</time>
      </trkpt>
      <trkpt lat="43.42908" lon="6.11831">
        <ele>207.60000610352</ele>
        <time>2016-01-06T14:54:49Z</time>
      </trkpt>
      <trkpt lat="43.42908" lon="6.11836">
        <ele>207.39999389648</ele>
        <time>2016-01-06T14:54:50Z</time>
      </trkpt>
      <trkpt lat="43.4291" lon="6.11844">
        <ele>207.19999694824</ele>
        <time>2016-01-06T14:54:52Z</time>
      </trkpt>
      <trkpt lat="43.42911" lon="6.11851">
        <ele>207.19999694824</ele>
        <time>2016-01-06T14:54:54Z</time>
      </trkpt>
      <trkpt lat="43.42912" lon="6.11854">
        <ele>207</ele>
        <time>2016-01-06T14:54:55Z</time>
      </trkpt>
      <trkpt lat="43.42912" lon="6.11856">
        <ele>206.80000305176</ele>
        <time>2016-01-06T14:54:56Z</time>
      </trkpt>
      <trkpt lat="43.42913" lon="6.11858">
        <ele>206.60000610352</ele>
        <time>2016-01-06T14:54:57Z</time>
      </trkpt>
      <trkpt lat="43.42913" lon="6.1186">
        <ele>206.39999389648</ele>
        <time>2016-01-06T14:54:58Z</time>
      </trkpt>
      <trkpt lat="43.42914" lon="6.11864">
        <ele>206.60000610352</ele>
        <time>2016-01-06T14:55:00Z</time>
      </trkpt>
      <trkpt lat="43.42915" lon="6.11868">
        <ele>206.39999389648</ele>
        <time>2016-01-06T14:55:02Z</time>
      </trkpt>
      <trkpt lat="43.42916" lon="6.11871">
        <ele>206</ele>
        <time>2016-01-06T14:55:04Z</time>
      </trkpt>
      <trkpt lat="43.42917" lon="6.11875">
        <ele>206</ele>
        <time>2016-01-06T14:55:06Z</time>
      </trkpt>
      <trkpt lat="43.42919" lon="6.1188">
        <ele>206</ele>
        <time>2016-01-06T14:55:08Z</time>
      </trkpt>
      <trkpt lat="43.42921" lon="6.11886">
        <ele>205.60000610352</ele>
        <time>2016-01-06T14:55:10Z</time>
      </trkpt>
      <trkpt lat="43.42921" lon="6.11888">
        <ele>205.60000610352</ele>
        <time>2016-01-06T14:55:11Z</time>
      </trkpt>
      <trkpt lat="43.42922" lon="6.1189">
        <ele>205.39999389648</ele>
        <time>2016-01-06T14:55:12Z</time>
      </trkpt>
      <trkpt lat="43.42922" lon="6.11893">
        <ele>205.19999694824</ele>
        <time>2016-01-06T14:55:13Z</time>
      </trkpt>
      <trkpt lat="43.42923" lon="6.11895">
        <ele>205.19999694824</ele>
        <time>2016-01-06T14:55:14Z</time>
      </trkpt>
      <trkpt lat="43.42923" lon="6.11899">
        <ele>205.19999694824</ele>
        <time>2016-01-06T14:55:16Z</time>
      </trkpt>
      <trkpt lat="43.42924" lon="6.11904">
        <ele>205</ele>
        <time>2016-01-06T14:55:18Z</time>
      </trkpt>
      <trkpt lat="43.42924" lon="6.11908">
        <ele>205</ele>
        <time>2016-01-06T14:55:19Z</time>
      </trkpt>
      <trkpt lat="43.42924" lon="6.11911">
        <ele>205</ele>
        <time>2016-01-06T14:55:20Z</time>
      </trkpt>
      <trkpt lat="43.42924" lon="6.11913">
        <ele>205</ele>
        <time>2016-01-06T14:55:21Z</time>
      </trkpt>
      <trkpt lat="43.42923" lon="6.11915">
        <ele>204.80000305176</ele>
        <time>2016-01-06T14:55:22Z</time>
      </trkpt>
      <trkpt lat="43.42923" lon="6.11915">
        <ele>205</ele>
        <time>2016-01-06T14:55:23Z</time>
      </trkpt>
      <trkpt lat="43.42923" lon="6.11916">
        <ele>204.80000305176</ele>
        <time>2016-01-06T14:55:24Z</time>
      </trkpt>
      <trkpt lat="43.42923" lon="6.11919">
        <ele>204.80000305176</ele>
        <time>2016-01-06T14:55:26Z</time>
      </trkpt>
      <trkpt lat="43.42924" lon="6.11921">
        <ele>205</ele>
        <time>2016-01-06T14:55:28Z</time>
      </trkpt>
      <trkpt lat="43.42925" lon="6.11923">
        <ele>204.80000305176</ele>
        <time>2016-01-06T14:55:30Z</time>
      </trkpt>
      <trkpt lat="43.42925" lon="6.11924">
        <ele>205</ele>
        <time>2016-01-06T14:55:32Z</time>
      </trkpt>
      <trkpt lat="43.42925" lon="6.11924">
        <ele>204.80000305176</ele>
        <time>2016-01-06T14:55:34Z</time>
      </trkpt>
      <trkpt lat="43.42925" lon="6.11924">
        <ele>204.80000305176</ele>
        <time>2016-01-06T14:55:35Z</time>
      </trkpt>
      <trkpt lat="43.42925" lon="6.11924">
        <ele>204.80000305176</ele>
        <time>2016-01-06T14:55:36Z</time>
      </trkpt>
      <trkpt lat="43.42925" lon="6.11924">
        <ele>204.80000305176</ele>
        <time>2016-01-06T14:55:38Z</time>
      </trkpt>
      <trkpt lat="43.42925" lon="6.11924">
        <ele>204.80000305176</ele>
        <time>2016-01-06T14:55:40Z</time>
      </trkpt>
      <trkpt lat="43.42925" lon="6.11924">
        <ele>204.80000305176</ele>
        <time>2016-01-06T14:55:42Z</time>
      </trkpt>
      <trkpt lat="43.42925" lon="6.11924">
        <ele>204.80000305176</ele>
        <time>2016-01-06T14:55:44Z</time>
      </trkpt>
      <trkpt lat="43.42925" lon="6.11924">
        <ele>205</ele>
        <time>2016-01-06T14:55:46Z</time>
      </trkpt>
      <trkpt lat="43.42925" lon="6.11924">
        <ele>205.19999694824</ele>
        <time>2016-01-06T14:55:48Z</time>
      </trkpt>
      <trkpt lat="43.42925" lon="6.11924">
        <ele>205.19999694824</ele>
        <time>2016-01-06T14:55:49Z</time>
      </trkpt>
      <trkpt lat="43.42925" lon="6.11924">
        <ele>205.19999694824</ele>
        <time>2016-01-06T14:55:50Z</time>
      </trkpt>
      <trkpt lat="43.42924" lon="6.11923">
        <ele>205.19999694824</ele>
        <time>2016-01-06T14:55:52Z</time>
      </trkpt>
      <trkpt lat="43.42925" lon="6.11923">
        <ele>205.19999694824</ele>
        <time>2016-01-06T14:55:54Z</time>
      </trkpt>
      <trkpt lat="43.42925" lon="6.11923">
        <ele>205.19999694824</ele>
        <time>2016-01-06T14:55:55Z</time>
      </trkpt>
      <trkpt lat="43.42925" lon="6.11923">
        <ele>205</ele>
        <time>2016-01-06T14:55:56Z</time>
      </trkpt>
      <trkpt lat="43.42924" lon="6.11923">
        <ele>205</ele>
        <time>2016-01-06T14:55:58Z</time>
      </trkpt>
      <trkpt lat="43.42924" lon="6.11923">
        <ele>205</ele>
        <time>2016-01-06T14:56:00Z</time>
      </trkpt>
      <trkpt lat="43.42924" lon="6.11923">
        <ele>205</ele>
        <time>2016-01-06T14:56:02Z</time>
      </trkpt>
      <trkpt lat="43.42924" lon="6.11923">
        <ele>205</ele>
        <time>2016-01-06T14:56:04Z</time>
      </trkpt>
      <trkpt lat="43.42924" lon="6.11923">
        <ele>204.80000305176</ele>
        <time>2016-01-06T14:56:06Z</time>
      </trkpt>
      <trkpt lat="43.42924" lon="6.11923">
        <ele>204.80000305176</ele>
        <time>2016-01-06T14:56:08Z</time>
      </trkpt>
      <trkpt lat="43.42924" lon="6.11923">
        <ele>204.80000305176</ele>
        <time>2016-01-06T14:56:10Z</time>
      </trkpt>
      <trkpt lat="43.42924" lon="6.11923">
        <ele>204.80000305176</ele>
        <time>2016-01-06T14:56:12Z</time>
      </trkpt>
      <trkpt lat="43.42924" lon="6.11924">
        <ele>204.60000610352</ele>
        <time>2016-01-06T14:56:13Z</time>
      </trkpt>
      <trkpt lat="43.42924" lon="6.11923">
        <ele>204.39999389648</ele>
        <time>2016-01-06T14:56:16Z</time>
      </trkpt>
      <trkpt lat="43.42924" lon="6.11922">
        <ele>204.39999389648</ele>
        <time>2016-01-06T14:56:18Z</time>
      </trkpt>
      <trkpt lat="43.42924" lon="6.11918">
        <ele>204.80000305176</ele>
        <time>2016-01-06T14:56:20Z</time>
      </trkpt>
      <trkpt lat="43.42925" lon="6.11916">
        <ele>205</ele>
        <time>2016-01-06T14:56:21Z</time>
      </trkpt>
      <trkpt lat="43.42925" lon="6.11913">
        <ele>205</ele>
        <time>2016-01-06T14:56:22Z</time>
      </trkpt>
      <trkpt lat="43.42925" lon="6.1191">
        <ele>205</ele>
        <time>2016-01-06T14:56:23Z</time>
      </trkpt>
      <trkpt lat="43.42924" lon="6.11906">
        <ele>205</ele>
        <time>2016-01-06T14:56:24Z</time>
      </trkpt>
      <trkpt lat="43.42923" lon="6.11902">
        <ele>204.80000305176</ele>
        <time>2016-01-06T14:56:25Z</time>
      </trkpt>
      <trkpt lat="43.42921" lon="6.11899">
        <ele>204.80000305176</ele>
        <time>2016-01-06T14:56:26Z</time>
      </trkpt>
      <trkpt lat="43.42919" lon="6.11893">
        <ele>205.19999694824</ele>
        <time>2016-01-06T14:56:28Z</time>
      </trkpt>
      <trkpt lat="43.42918" lon="6.11886">
        <ele>205.39999389648</ele>
        <time>2016-01-06T14:56:30Z</time>
      </trkpt>
      <trkpt lat="43.42918" lon="6.11883">
        <ele>205.60000610352</ele>
        <time>2016-01-06T14:56:31Z</time>
      </trkpt>
      <trkpt lat="43.42918" lon="6.1188">
        <ele>205.60000610352</ele>
        <time>2016-01-06T14:56:32Z</time>
      </trkpt>
      <trkpt lat="43.42916" lon="6.11873">
        <ele>205.60000610352</ele>
        <time>2016-01-06T14:56:34Z</time>
      </trkpt>
      <trkpt lat="43.42916" lon="6.1187">
        <ele>206</ele>
        <time>2016-01-06T14:56:35Z</time>
      </trkpt>
      <trkpt lat="43.42917" lon="6.11867">
        <ele>206.39999389648</ele>
        <time>2016-01-06T14:56:36Z</time>
      </trkpt>
      <trkpt lat="43.42916" lon="6.11864">
        <ele>206.60000610352</ele>
        <time>2016-01-06T14:56:37Z</time>
      </trkpt>
      <trkpt lat="43.42915" lon="6.11861">
        <ele>206.60000610352</ele>
        <time>2016-01-06T14:56:38Z</time>
      </trkpt>
      <trkpt lat="43.42915" lon="6.11854">
        <ele>206.80000305176</ele>
        <time>2016-01-06T14:56:40Z</time>
      </trkpt>
      <trkpt lat="43.42914" lon="6.11848">
        <ele>207</ele>
        <time>2016-01-06T14:56:42Z</time>
      </trkpt>
      <trkpt lat="43.42913" lon="6.11845">
        <ele>207.19999694824</ele>
        <time>2016-01-06T14:56:43Z</time>
      </trkpt>
      <trkpt lat="43.42913" lon="6.11841">
        <ele>207.19999694824</ele>
        <time>2016-01-06T14:56:44Z</time>
      </trkpt>
      <trkpt lat="43.42912" lon="6.11834">
        <ele>207.39999389648</ele>
        <time>2016-01-06T14:56:46Z</time>
      </trkpt>
      <trkpt lat="43.42911" lon="6.11827">
        <ele>207.19999694824</ele>
        <time>2016-01-06T14:56:48Z</time>
      </trkpt>
      <trkpt lat="43.42909" lon="6.11821">
        <ele>207.19999694824</ele>
        <time>2016-01-06T14:56:50Z</time>
      </trkpt>
      <trkpt lat="43.42907" lon="6.11817">
        <ele>207.19999694824</ele>
        <time>2016-01-06T14:56:51Z</time>
      </trkpt>
      <trkpt lat="43.42906" lon="6.11814">
        <ele>207.60000610352</ele>
        <time>2016-01-06T14:56:52Z</time>
      </trkpt>
      <trkpt lat="43.42905" lon="6.11807">
        <ele>208</ele>
        <time>2016-01-06T14:56:54Z</time>
      </trkpt>
      <trkpt lat="43.42905" lon="6.11804">
        <ele>208.19999694824</ele>
        <time>2016-01-06T14:56:55Z</time>
      </trkpt>
      <trkpt lat="43.42904" lon="6.118">
        <ele>208.19999694824</ele>
        <time>2016-01-06T14:56:56Z</time>
      </trkpt>
      <trkpt lat="43.42904" lon="6.11797">
        <ele>208</ele>
        <time>2016-01-06T14:56:57Z</time>
      </trkpt>
      <trkpt lat="43.42903" lon="6.11793">
        <ele>208</ele>
        <time>2016-01-06T14:56:58Z</time>
      </trkpt>
      <trkpt lat="43.429" lon="6.11788">
        <ele>208.60000610352</ele>
        <time>2016-01-06T14:57:00Z</time>
      </trkpt>
      <trkpt lat="43.42898" lon="6.11784">
        <ele>208.80000305176</ele>
        <time>2016-01-06T14:57:02Z</time>
      </trkpt>
      <trkpt lat="43.42895" lon="6.11779">
        <ele>209.19999694824</ele>
        <time>2016-01-06T14:57:04Z</time>
      </trkpt>
      <trkpt lat="43.42893" lon="6.11774">
        <ele>209.60000610352</ele>
        <time>2016-01-06T14:57:06Z</time>
      </trkpt>
      <trkpt lat="43.42892" lon="6.11773">
        <ele>210</ele>
        <time>2016-01-06T14:57:07Z</time>
      </trkpt>
      <trkpt lat="43.42891" lon="6.11771">
        <ele>210.39999389648</ele>
        <time>2016-01-06T14:57:08Z</time>
      </trkpt>
      <trkpt lat="43.42889" lon="6.11769">
        <ele>210.39999389648</ele>
        <time>2016-01-06T14:57:10Z</time>
      </trkpt>
      <trkpt lat="43.42889" lon="6.11768">
        <ele>210.39999389648</ele>
        <time>2016-01-06T14:57:12Z</time>
      </trkpt>
      <trkpt lat="43.42888" lon="6.11768">
        <ele>210.39999389648</ele>
        <time>2016-01-06T14:57:14Z</time>
      </trkpt>
      <trkpt lat="43.42887" lon="6.11768">
        <ele>210.39999389648</ele>
        <time>2016-01-06T14:57:16Z</time>
      </trkpt>
      <trkpt lat="43.42887" lon="6.11767">
        <ele>210.60000610352</ele>
        <time>2016-01-06T14:57:18Z</time>
      </trkpt>
      <trkpt lat="43.42886" lon="6.11766">
        <ele>210.80000305176</ele>
        <time>2016-01-06T14:57:20Z</time>
      </trkpt>
      <trkpt lat="43.42886" lon="6.11766">
        <ele>211</ele>
        <time>2016-01-06T14:57:21Z</time>
      </trkpt>
      <trkpt lat="43.42885" lon="6.11765">
        <ele>211</ele>
        <time>2016-01-06T14:57:22Z</time>
      </trkpt>
      <trkpt lat="43.42885" lon="6.11765">
        <ele>211.19999694824</ele>
        <time>2016-01-06T14:57:24Z</time>
      </trkpt>
      <trkpt lat="43.42884" lon="6.11765">
        <ele>211.39999389648</ele>
        <time>2016-01-06T14:57:26Z</time>
      </trkpt>
      <trkpt lat="43.42884" lon="6.11764">
        <ele>211.39999389648</ele>
        <time>2016-01-06T14:57:28Z</time>
      </trkpt>
      <trkpt lat="43.42883" lon="6.11764">
        <ele>211.60000610352</ele>
        <time>2016-01-06T14:57:29Z</time>
      </trkpt>
      <trkpt lat="43.42883" lon="6.11764">
        <ele>211.60000610352</ele>
        <time>2016-01-06T14:57:30Z</time>
      </trkpt>
      <trkpt lat="43.42883" lon="6.11764">
        <ele>211.80000305176</ele>
        <time>2016-01-06T14:57:31Z</time>
      </trkpt>
      <trkpt lat="43.42883" lon="6.11765">
        <ele>211.80000305176</ele>
        <time>2016-01-06T14:57:32Z</time>
      </trkpt>
      <trkpt lat="43.42882" lon="6.11765">
        <ele>211.80000305176</ele>
        <time>2016-01-06T14:57:34Z</time>
      </trkpt>
      <trkpt lat="43.4288" lon="6.11766">
        <ele>212.19999694824</ele>
        <time>2016-01-06T14:57:36Z</time>
      </trkpt>
      <trkpt lat="43.4288" lon="6.11766">
        <ele>212.60000610352</ele>
        <time>2016-01-06T14:57:38Z</time>
      </trkpt>
      <trkpt lat="43.42881" lon="6.11766">
        <ele>212.80000305176</ele>
        <time>2016-01-06T14:57:40Z</time>
      </trkpt>
      <trkpt lat="43.42881" lon="6.11767">
        <ele>212.60000610352</ele>
        <time>2016-01-06T14:57:42Z</time>
      </trkpt>
      <trkpt lat="43.42881" lon="6.11767">
        <ele>212.60000610352</ele>
        <time>2016-01-06T14:57:44Z</time>
      </trkpt>
      <trkpt lat="43.42881" lon="6.11767">
        <ele>212.60000610352</ele>
        <time>2016-01-06T14:57:46Z</time>
      </trkpt>
      <trkpt lat="43.42881" lon="6.11767">
        <ele>212.60000610352</ele>
        <time>2016-01-06T14:57:48Z</time>
      </trkpt>
      <trkpt lat="43.42881" lon="6.11767">
        <ele>212.60000610352</ele>
        <time>2016-01-06T14:57:50Z</time>
      </trkpt>
      <trkpt lat="43.42881" lon="6.11767">
        <ele>212.60000610352</ele>
        <time>2016-01-06T14:57:52Z</time>
      </trkpt>
      <trkpt lat="43.42881" lon="6.11767">
        <ele>212.60000610352</ele>
        <time>2016-01-06T14:57:54Z</time>
      </trkpt>
      <trkpt lat="43.42881" lon="6.11767">
        <ele>212.80000305176</ele>
        <time>2016-01-06T14:57:56Z</time>
      </trkpt>
      <trkpt lat="43.42881" lon="6.11767">
        <ele>212.80000305176</ele>
        <time>2016-01-06T14:57:58Z</time>
      </trkpt>
      <trkpt lat="43.42881" lon="6.11767">
        <ele>212.80000305176</ele>
        <time>2016-01-06T14:58:00Z</time>
      </trkpt>
      <trkpt lat="43.42881" lon="6.11767">
        <ele>212.80000305176</ele>
        <time>2016-01-06T14:58:02Z</time>
      </trkpt>
      <trkpt lat="43.42881" lon="6.11767">
        <ele>212.60000610352</ele>
        <time>2016-01-06T14:58:04Z</time>
      </trkpt>
      <trkpt lat="43.42881" lon="6.11767">
        <ele>212.60000610352</ele>
        <time>2016-01-06T14:58:06Z</time>
      </trkpt>
      <trkpt lat="43.42881" lon="6.11767">
        <ele>212.39999389648</ele>
        <time>2016-01-06T14:58:08Z</time>
      </trkpt>
      <trkpt lat="43.42881" lon="6.11767">
        <ele>212.60000610352</ele>
        <time>2016-01-06T14:58:10Z</time>
      </trkpt>
      <trkpt lat="43.42881" lon="6.11767">
        <ele>212.60000610352</ele>
        <time>2016-01-06T14:58:12Z</time>
      </trkpt>
      <trkpt lat="43.42881" lon="6.11767">
        <ele>212.60000610352</ele>
        <time>2016-01-06T14:58:14Z</time>
      </trkpt>
      <trkpt lat="43.42881" lon="6.11767">
        <ele>212.60000610352</ele>
        <time>2016-01-06T14:58:15Z</time>
      </trkpt>
      <trkpt lat="43.42881" lon="6.11767">
        <ele>212.60000610352</ele>
        <time>2016-01-06T14:58:16Z</time>
      </trkpt>
      <trkpt lat="43.42881" lon="6.11767">
        <ele>212.60000610352</ele>
        <time>2016-01-06T14:58:18Z</time>
      </trkpt>
      <trkpt lat="43.42881" lon="6.11767">
        <ele>212.39999389648</ele>
        <time>2016-01-06T14:58:20Z</time>
      </trkpt>
      <trkpt lat="43.42881" lon="6.11767">
        <ele>212.60000610352</ele>
        <time>2016-01-06T14:58:22Z</time>
      </trkpt>
      <trkpt lat="43.42881" lon="6.11767">
        <ele>212.60000610352</ele>
        <time>2016-01-06T14:58:24Z</time>
      </trkpt>
      <trkpt lat="43.42881" lon="6.11767">
        <ele>212.60000610352</ele>
        <time>2016-01-06T14:58:26Z</time>
      </trkpt>
      <trkpt lat="43.42881" lon="6.11767">
        <ele>212.39999389648</ele>
        <time>2016-01-06T14:58:28Z</time>
      </trkpt>
      <trkpt lat="43.42881" lon="6.11767">
        <ele>212.19999694824</ele>
        <time>2016-01-06T14:58:30Z</time>
      </trkpt>
      <trkpt lat="43.42881" lon="6.11767">
        <ele>212.19999694824</ele>
        <time>2016-01-06T14:58:32Z</time>
      </trkpt>
      <trkpt lat="43.42881" lon="6.11767">
        <ele>212.39999389648</ele>
        <time>2016-01-06T14:58:34Z</time>
      </trkpt>
      <trkpt lat="43.42881" lon="6.11767">
        <ele>212.60000610352</ele>
        <time>2016-01-06T14:58:36Z</time>
      </trkpt>
      <trkpt lat="43.42881" lon="6.11767">
        <ele>212.39999389648</ele>
        <time>2016-01-06T14:58:38Z</time>
      </trkpt>
      <trkpt lat="43.42881" lon="6.11767">
        <ele>212.39999389648</ele>
        <time>2016-01-06T14:58:40Z</time>
      </trkpt>
      <trkpt lat="43.42881" lon="6.11767">
        <ele>212.39999389648</ele>
        <time>2016-01-06T14:58:42Z</time>
      </trkpt>
      <trkpt lat="43.42881" lon="6.11767">
        <ele>212.39999389648</ele>
        <time>2016-01-06T14:58:44Z</time>
      </trkpt>
      <trkpt lat="43.42881" lon="6.11767">
        <ele>212.60000610352</ele>
        <time>2016-01-06T14:58:46Z</time>
      </trkpt>
      <trkpt lat="43.42881" lon="6.11767">
        <ele>212.39999389648</ele>
        <time>2016-01-06T14:58:47Z</time>
      </trkpt>
      <trkpt lat="43.42881" lon="6.11767">
        <ele>212.19999694824</ele>
        <time>2016-01-06T14:58:48Z</time>
      </trkpt>
      <trkpt lat="43.42881" lon="6.11767">
        <ele>212.19999694824</ele>
        <time>2016-01-06T14:58:50Z</time>
      </trkpt>
      <trkpt lat="43.42881" lon="6.11767">
        <ele>212.19999694824</ele>
        <time>2016-01-06T14:58:52Z</time>
      </trkpt>
      <trkpt lat="43.42881" lon="6.11767">
        <ele>212.19999694824</ele>
        <time>2016-01-06T14:58:54Z</time>
      </trkpt>
      <trkpt lat="43.42881" lon="6.11767">
        <ele>212.19999694824</ele>
        <time>2016-01-06T14:58:56Z</time>
      </trkpt>
      <trkpt lat="43.42881" lon="6.11767">
        <ele>212</ele>
        <time>2016-01-06T14:58:58Z</time>
      </trkpt>
      <trkpt lat="43.42881" lon="6.11767">
        <ele>212.39999389648</ele>
        <time>2016-01-06T14:59:00Z</time>
      </trkpt>
      <trkpt lat="43.42881" lon="6.11767">
        <ele>212.39999389648</ele>
        <time>2016-01-06T14:59:02Z</time>
      </trkpt>
      <trkpt lat="43.42881" lon="6.11767">
        <ele>212.60000610352</ele>
        <time>2016-01-06T14:59:04Z</time>
      </trkpt>
      <trkpt lat="43.42881" lon="6.11767">
        <ele>212.80000305176</ele>
        <time>2016-01-06T14:59:06Z</time>
      </trkpt>
      <trkpt lat="43.42881" lon="6.11767">
        <ele>212.80000305176</ele>
        <time>2016-01-06T14:59:07Z</time>
      </trkpt>
      <trkpt lat="43.42881" lon="6.11767">
        <ele>212.60000610352</ele>
        <time>2016-01-06T14:59:08Z</time>
      </trkpt>
      <trkpt lat="43.42881" lon="6.11767">
        <ele>212.39999389648</ele>
        <time>2016-01-06T14:59:10Z</time>
      </trkpt>
      <trkpt lat="43.42881" lon="6.11767">
        <ele>212.39999389648</ele>
        <time>2016-01-06T14:59:12Z</time>
      </trkpt>
      <trkpt lat="43.42881" lon="6.11767">
        <ele>212.19999694824</ele>
        <time>2016-01-06T14:59:14Z</time>
      </trkpt>
      <trkpt lat="43.42881" lon="6.11767">
        <ele>212.39999389648</ele>
        <time>2016-01-06T14:59:16Z</time>
      </trkpt>
      <trkpt lat="43.42881" lon="6.11767">
        <ele>212.39999389648</ele>
        <time>2016-01-06T14:59:18Z</time>
      </trkpt>
      <trkpt lat="43.42881" lon="6.11767">
        <ele>212.60000610352</ele>
        <time>2016-01-06T14:59:20Z</time>
      </trkpt>
      <trkpt lat="43.42881" lon="6.11767">
        <ele>212.60000610352</ele>
        <time>2016-01-06T14:59:22Z</time>
      </trkpt>
      <trkpt lat="43.42881" lon="6.11767">
        <ele>212.60000610352</ele>
        <time>2016-01-06T14:59:24Z</time>
      </trkpt>
      <trkpt lat="43.42881" lon="6.11767">
        <ele>212.60000610352</ele>
        <time>2016-01-06T14:59:26Z</time>
      </trkpt>
      <trkpt lat="43.42881" lon="6.11767">
        <ele>212.60000610352</ele>
        <time>2016-01-06T14:59:28Z</time>
      </trkpt>
      <trkpt lat="43.42881" lon="6.11767">
        <ele>212.80000305176</ele>
        <time>2016-01-06T14:59:30Z</time>
      </trkpt>
      <trkpt lat="43.42881" lon="6.11767">
        <ele>212.80000305176</ele>
        <time>2016-01-06T14:59:31Z</time>
      </trkpt>
      <trkpt lat="43.42881" lon="6.11767">
        <ele>213</ele>
        <time>2016-01-06T14:59:34Z</time>
      </trkpt>
      <trkpt lat="43.42881" lon="6.11767">
        <ele>213</ele>
        <time>2016-01-06T14:59:36Z</time>
      </trkpt>
      <trkpt lat="43.42881" lon="6.11767">
        <ele>213</ele>
        <time>2016-01-06T14:59:38Z</time>
      </trkpt>
      <trkpt lat="43.42881" lon="6.11767">
        <ele>213.19999694824</ele>
        <time>2016-01-06T14:59:40Z</time>
      </trkpt>
      <trkpt lat="43.42881" lon="6.11767">
        <ele>213.39999389648</ele>
        <time>2016-01-06T14:59:42Z</time>
      </trkpt>
      <trkpt lat="43.42881" lon="6.11767">
        <ele>213.39999389648</ele>
        <time>2016-01-06T14:59:44Z</time>
      </trkpt>
      <trkpt lat="43.42881" lon="6.11767">
        <ele>213.39999389648</ele>
        <time>2016-01-06T14:59:46Z</time>
      </trkpt>
      <trkpt lat="43.42881" lon="6.11767">
        <ele>213.19999694824</ele>
        <time>2016-01-06T14:59:48Z</time>
      </trkpt>
      <trkpt lat="43.42881" lon="6.11767">
        <ele>213.39999389648</ele>
        <time>2016-01-06T14:59:50Z</time>
      </trkpt>
      <trkpt lat="43.42881" lon="6.11767">
        <ele>213.60000610352</ele>
        <time>2016-01-06T14:59:51Z</time>
      </trkpt>
      <trkpt lat="43.42881" lon="6.11767">
        <ele>213.39999389648</ele>
        <time>2016-01-06T14:59:52Z</time>
      </trkpt>
      <trkpt lat="43.42881" lon="6.11767">
        <ele>213.19999694824</ele>
        <time>2016-01-06T14:59:54Z</time>
      </trkpt>
      <trkpt lat="43.42881" lon="6.11767">
        <ele>213.19999694824</ele>
        <time>2016-01-06T14:59:56Z</time>
      </trkpt>
      <trkpt lat="43.42881" lon="6.11767">
        <ele>213.19999694824</ele>
        <time>2016-01-06T14:59:58Z</time>
      </trkpt>
      <trkpt lat="43.42881" lon="6.11767">
        <ele>213.19999694824</ele>
        <time>2016-01-06T15:00:00Z</time>
      </trkpt>
      <trkpt lat="43.42881" lon="6.11767">
        <ele>213.19999694824</ele>
        <time>2016-01-06T15:00:02Z</time>
      </trkpt>
      <trkpt lat="43.42881" lon="6.11767">
        <ele>213.19999694824</ele>
        <time>2016-01-06T15:00:04Z</time>
      </trkpt>
      <trkpt lat="43.42881" lon="6.11767">
        <ele>213.19999694824</ele>
        <time>2016-01-06T15:00:06Z</time>
      </trkpt>
      <trkpt lat="43.42881" lon="6.11767">
        <ele>213.19999694824</ele>
        <time>2016-01-06T15:00:08Z</time>
      </trkpt>
      <trkpt lat="43.42881" lon="6.11767">
        <ele>213.39999389648</ele>
        <time>2016-01-06T15:00:10Z</time>
      </trkpt>
      <trkpt lat="43.42881" lon="6.11767">
        <ele>213.39999389648</ele>
        <time>2016-01-06T15:00:12Z</time>
      </trkpt>
      <trkpt lat="43.42881" lon="6.11767">
        <ele>213.39999389648</ele>
        <time>2016-01-06T15:00:14Z</time>
      </trkpt>
      <trkpt lat="43.42881" lon="6.11767">
        <ele>213.39999389648</ele>
        <time>2016-01-06T15:00:16Z</time>
      </trkpt>
      <trkpt lat="43.42881" lon="6.11767">
        <ele>213.39999389648</ele>
        <time>2016-01-06T15:00:18Z</time>
      </trkpt>
      <trkpt lat="43.42881" lon="6.11767">
        <ele>213.60000610352</ele>
        <time>2016-01-06T15:00:20Z</time>
      </trkpt>
      <trkpt lat="43.42881" lon="6.11767">
        <ele>213.60000610352</ele>
        <time>2016-01-06T15:00:22Z</time>
      </trkpt>
      <trkpt lat="43.42881" lon="6.11767">
        <ele>213.39999389648</ele>
        <time>2016-01-06T15:00:24Z</time>
      </trkpt>
      <trkpt lat="43.42881" lon="6.11767">
        <ele>213.39999389648</ele>
        <time>2016-01-06T15:00:26Z</time>
      </trkpt>
      <trkpt lat="43.42881" lon="6.11767">
        <ele>213.19999694824</ele>
        <time>2016-01-06T15:00:28Z</time>
      </trkpt>
      <trkpt lat="43.42881" lon="6.11767">
        <ele>213</ele>
        <time>2016-01-06T15:00:30Z</time>
      </trkpt>
      <trkpt lat="43.42881" lon="6.11767">
        <ele>213.19999694824</ele>
        <time>2016-01-06T15:00:32Z</time>
      </trkpt>
      <trkpt lat="43.42881" lon="6.11767">
        <ele>213.19999694824</ele>
        <time>2016-01-06T15:00:34Z</time>
      </trkpt>
      <trkpt lat="43.42881" lon="6.11767">
        <ele>213.19999694824</ele>
        <time>2016-01-06T15:00:36Z</time>
      </trkpt>
      <trkpt lat="43.42881" lon="6.11767">
        <ele>213</ele>
        <time>2016-01-06T15:00:37Z</time>
      </trkpt>
      <trkpt lat="43.42881" lon="6.11767">
        <ele>213</ele>
        <time>2016-01-06T15:00:38Z</time>
      </trkpt>
      <trkpt lat="43.42881" lon="6.11767">
        <ele>213</ele>
        <time>2016-01-06T15:00:40Z</time>
      </trkpt>
      <trkpt lat="43.42881" lon="6.11767">
        <ele>212.60000610352</ele>
        <time>2016-01-06T15:00:42Z</time>
      </trkpt>
      <trkpt lat="43.42881" lon="6.11767">
        <ele>212.80000305176</ele>
        <time>2016-01-06T15:00:44Z</time>
      </trkpt>
      <trkpt lat="43.42881" lon="6.11767">
        <ele>212.80000305176</ele>
        <time>2016-01-06T15:00:46Z</time>
      </trkpt>
      <trkpt lat="43.42881" lon="6.11767">
        <ele>213.19999694824</ele>
        <time>2016-01-06T15:00:48Z</time>
      </trkpt>
      <trkpt lat="43.42881" lon="6.11767">
        <ele>213.39999389648</ele>
        <time>2016-01-06T15:00:50Z</time>
      </trkpt>
      <trkpt lat="43.42881" lon="6.11767">
        <ele>213.39999389648</ele>
        <time>2016-01-06T15:00:52Z</time>
      </trkpt>
      <trkpt lat="43.42881" lon="6.11767">
        <ele>213</ele>
        <time>2016-01-06T15:00:54Z</time>
      </trkpt>
      <trkpt lat="43.42881" lon="6.11767">
        <ele>212.80000305176</ele>
        <time>2016-01-06T15:00:56Z</time>
      </trkpt>
      <trkpt lat="43.42881" lon="6.11768">
        <ele>212.80000305176</ele>
        <time>2016-01-06T15:00:58Z</time>
      </trkpt>
      <trkpt lat="43.42881" lon="6.11768">
        <ele>212.80000305176</ele>
        <time>2016-01-06T15:01:00Z</time>
      </trkpt>
      <trkpt lat="43.42881" lon="6.11768">
        <ele>212.80000305176</ele>
        <time>2016-01-06T15:01:02Z</time>
      </trkpt>
      <trkpt lat="43.42881" lon="6.11768">
        <ele>213</ele>
        <time>2016-01-06T15:01:04Z</time>
      </trkpt>
      <trkpt lat="43.42881" lon="6.11768">
        <ele>213.19999694824</ele>
        <time>2016-01-06T15:01:06Z</time>
      </trkpt>
      <trkpt lat="43.42881" lon="6.11768">
        <ele>213.39999389648</ele>
        <time>2016-01-06T15:01:08Z</time>
      </trkpt>
      <trkpt lat="43.42881" lon="6.11768">
        <ele>213.60000610352</ele>
        <time>2016-01-06T15:01:09Z</time>
      </trkpt>
      <trkpt lat="43.42881" lon="6.11768">
        <ele>213.80000305176</ele>
        <time>2016-01-06T15:01:10Z</time>
      </trkpt>
      <trkpt lat="43.42881" lon="6.11768">
        <ele>213.39999389648</ele>
        <time>2016-01-06T15:01:12Z</time>
      </trkpt>
      <trkpt lat="43.42881" lon="6.11768">
        <ele>213.60000610352</ele>
        <time>2016-01-06T15:01:14Z</time>
      </trkpt>
      <trkpt lat="43.42881" lon="6.11768">
        <ele>213.39999389648</ele>
        <time>2016-01-06T15:01:16Z</time>
      </trkpt>
      <trkpt lat="43.42881" lon="6.11768">
        <ele>213.39999389648</ele>
        <time>2016-01-06T15:01:18Z</time>
      </trkpt>
      <trkpt lat="43.42881" lon="6.11768">
        <ele>213.39999389648</ele>
        <time>2016-01-06T15:01:20Z</time>
      </trkpt>
      <trkpt lat="43.42881" lon="6.11768">
        <ele>213.39999389648</ele>
        <time>2016-01-06T15:01:22Z</time>
      </trkpt>
      <trkpt lat="43.42881" lon="6.11768">
        <ele>213.39999389648</ele>
        <time>2016-01-06T15:01:24Z</time>
      </trkpt>
      <trkpt lat="43.42881" lon="6.11768">
        <ele>213.39999389648</ele>
        <time>2016-01-06T15:01:26Z</time>
      </trkpt>
      <trkpt lat="43.42881" lon="6.11768">
        <ele>213.60000610352</ele>
        <time>2016-01-06T15:01:28Z</time>
      </trkpt>
      <trkpt lat="43.42881" lon="6.11768">
        <ele>213.60000610352</ele>
        <time>2016-01-06T15:01:30Z</time>
      </trkpt>
      <trkpt lat="43.42881" lon="6.11768">
        <ele>213.60000610352</ele>
        <time>2016-01-06T15:01:32Z</time>
      </trkpt>
      <trkpt lat="43.42881" lon="6.11768">
        <ele>213.60000610352</ele>
        <time>2016-01-06T15:01:34Z</time>
      </trkpt>
      <trkpt lat="43.42881" lon="6.11768">
        <ele>213.80000305176</ele>
        <time>2016-01-06T15:01:36Z</time>
      </trkpt>
      <trkpt lat="43.42881" lon="6.11768">
        <ele>213.60000610352</ele>
        <time>2016-01-06T15:01:38Z</time>
      </trkpt>
      <trkpt lat="43.42881" lon="6.11768">
        <ele>213.39999389648</ele>
        <time>2016-01-06T15:01:40Z</time>
      </trkpt>
      <trkpt lat="43.42881" lon="6.11768">
        <ele>213.39999389648</ele>
        <time>2016-01-06T15:01:42Z</time>
      </trkpt>
      <trkpt lat="43.42881" lon="6.11768">
        <ele>213.60000610352</ele>
        <time>2016-01-06T15:01:44Z</time>
      </trkpt>
      <trkpt lat="43.42881" lon="6.11768">
        <ele>213.39999389648</ele>
        <time>2016-01-06T15:01:46Z</time>
      </trkpt>
      <trkpt lat="43.42881" lon="6.11768">
        <ele>213.39999389648</ele>
        <time>2016-01-06T15:01:48Z</time>
      </trkpt>
      <trkpt lat="43.42881" lon="6.11768">
        <ele>213.19999694824</ele>
        <time>2016-01-06T15:01:50Z</time>
      </trkpt>
      <trkpt lat="43.42881" lon="6.11768">
        <ele>213.19999694824</ele>
        <time>2016-01-06T15:01:52Z</time>
      </trkpt>
      <trkpt lat="43.42881" lon="6.11768">
        <ele>213</ele>
        <time>2016-01-06T15:01:54Z</time>
      </trkpt>
      <trkpt lat="43.42881" lon="6.11768">
        <ele>213.19999694824</ele>
        <time>2016-01-06T15:01:56Z</time>
      </trkpt>
      <trkpt lat="43.42881" lon="6.11768">
        <ele>213.19999694824</ele>
        <time>2016-01-06T15:01:58Z</time>
      </trkpt>
      <trkpt lat="43.42881" lon="6.11768">
        <ele>213.19999694824</ele>
        <time>2016-01-06T15:02:00Z</time>
      </trkpt>
      <trkpt lat="43.42881" lon="6.11768">
        <ele>213.19999694824</ele>
        <time>2016-01-06T15:02:02Z</time>
      </trkpt>
      <trkpt lat="43.42881" lon="6.11768">
        <ele>213.19999694824</ele>
        <time>2016-01-06T15:02:03Z</time>
      </trkpt>
      <trkpt lat="43.42881" lon="6.11768">
        <ele>213</ele>
        <time>2016-01-06T15:02:04Z</time>
      </trkpt>
      <trkpt lat="43.42881" lon="6.11768">
        <ele>212.80000305176</ele>
        <time>2016-01-06T15:02:06Z</time>
      </trkpt>
      <trkpt lat="43.42881" lon="6.11768">
        <ele>213</ele>
        <time>2016-01-06T15:02:08Z</time>
      </trkpt>
      <trkpt lat="43.42881" lon="6.11768">
        <ele>212.80000305176</ele>
        <time>2016-01-06T15:02:10Z</time>
      </trkpt>
      <trkpt lat="43.42881" lon="6.11768">
        <ele>212.80000305176</ele>
        <time>2016-01-06T15:02:12Z</time>
      </trkpt>
      <trkpt lat="43.42881" lon="6.11768">
        <ele>212.80000305176</ele>
        <time>2016-01-06T15:02:14Z</time>
      </trkpt>
      <trkpt lat="43.42881" lon="6.11768">
        <ele>212.80000305176</ele>
        <time>2016-01-06T15:02:16Z</time>
      </trkpt>
      <trkpt lat="43.42881" lon="6.11768">
        <ele>212.60000610352</ele>
        <time>2016-01-06T15:02:18Z</time>
      </trkpt>
      <trkpt lat="43.42881" lon="6.11768">
        <ele>212.60000610352</ele>
        <time>2016-01-06T15:02:20Z</time>
      </trkpt>
      <trkpt lat="43.42881" lon="6.11768">
        <ele>212.60000610352</ele>
        <time>2016-01-06T15:02:22Z</time>
      </trkpt>
      <trkpt lat="43.42881" lon="6.11768">
        <ele>212.80000305176</ele>
        <time>2016-01-06T15:02:24Z</time>
      </trkpt>
      <trkpt lat="43.42881" lon="6.11768">
        <ele>212.60000610352</ele>
        <time>2016-01-06T15:02:26Z</time>
      </trkpt>
      <trkpt lat="43.42881" lon="6.11768">
        <ele>212.60000610352</ele>
        <time>2016-01-06T15:02:27Z</time>
      </trkpt>
      <trkpt lat="43.42881" lon="6.11768">
        <ele>212.80000305176</ele>
        <time>2016-01-06T15:02:28Z</time>
      </trkpt>
      <trkpt lat="43.42881" lon="6.11768">
        <ele>212.80000305176</ele>
        <time>2016-01-06T15:02:30Z</time>
      </trkpt>
      <trkpt lat="43.42881" lon="6.11768">
        <ele>212.80000305176</ele>
        <time>2016-01-06T15:02:32Z</time>
      </trkpt>
      <trkpt lat="43.42881" lon="6.11768">
        <ele>212.80000305176</ele>
        <time>2016-01-06T15:02:34Z</time>
      </trkpt>
      <trkpt lat="43.42881" lon="6.11768">
        <ele>212.80000305176</ele>
        <time>2016-01-06T15:02:36Z</time>
      </trkpt>
      <trkpt lat="43.42881" lon="6.11768">
        <ele>212.80000305176</ele>
        <time>2016-01-06T15:02:38Z</time>
      </trkpt>
      <trkpt lat="43.42881" lon="6.11768">
        <ele>212.80000305176</ele>
        <time>2016-01-06T15:02:40Z</time>
      </trkpt>
      <trkpt lat="43.42881" lon="6.11768">
        <ele>212.80000305176</ele>
        <time>2016-01-06T15:02:42Z</time>
      </trkpt>
      <trkpt lat="43.42881" lon="6.11768">
        <ele>213</ele>
        <time>2016-01-06T15:02:44Z</time>
      </trkpt>
      <trkpt lat="43.42881" lon="6.11768">
        <ele>213</ele>
        <time>2016-01-06T15:02:46Z</time>
      </trkpt>
      <trkpt lat="43.42881" lon="6.11768">
        <ele>213</ele>
        <time>2016-01-06T15:02:48Z</time>
      </trkpt>
      <trkpt lat="43.42881" lon="6.11768">
        <ele>213</ele>
        <time>2016-01-06T15:02:50Z</time>
      </trkpt>
      <trkpt lat="43.42881" lon="6.11768">
        <ele>212.80000305176</ele>
        <time>2016-01-06T15:02:51Z</time>
      </trkpt>
      <trkpt lat="43.42881" lon="6.11768">
        <ele>212.80000305176</ele>
        <time>2016-01-06T15:02:52Z</time>
      </trkpt>
      <trkpt lat="43.42881" lon="6.11768">
        <ele>212.80000305176</ele>
        <time>2016-01-06T15:02:54Z</time>
      </trkpt>
      <trkpt lat="43.42881" lon="6.11768">
        <ele>212.80000305176</ele>
        <time>2016-01-06T15:02:56Z</time>
      </trkpt>
      <trkpt lat="43.42881" lon="6.11768">
        <ele>212.60000610352</ele>
        <time>2016-01-06T15:02:58Z</time>
      </trkpt>
      <trkpt lat="43.42881" lon="6.11768">
        <ele>212.39999389648</ele>
        <time>2016-01-06T15:03:00Z</time>
      </trkpt>
      <trkpt lat="43.42881" lon="6.11768">
        <ele>212.39999389648</ele>
        <time>2016-01-06T15:03:02Z</time>
      </trkpt>
      <trkpt lat="43.42881" lon="6.11768">
        <ele>212.19999694824</ele>
        <time>2016-01-06T15:03:04Z</time>
      </trkpt>
      <trkpt lat="43.42881" lon="6.11768">
        <ele>212.19999694824</ele>
        <time>2016-01-06T15:03:06Z</time>
      </trkpt>
      <trkpt lat="43.42881" lon="6.11769">
        <ele>212.39999389648</ele>
        <time>2016-01-06T15:03:08Z</time>
      </trkpt>
      <trkpt lat="43.42881" lon="6.11769">
        <ele>212.80000305176</ele>
        <time>2016-01-06T15:03:10Z</time>
      </trkpt>
      <trkpt lat="43.42881" lon="6.1177">
        <ele>213</ele>
        <time>2016-01-06T15:03:12Z</time>
      </trkpt>
      <trkpt lat="43.42881" lon="6.1177">
        <ele>213.19999694824</ele>
        <time>2016-01-06T15:03:14Z</time>
      </trkpt>
      <trkpt lat="43.42881" lon="6.11772">
        <ele>213.19999694824</ele>
        <time>2016-01-06T15:03:16Z</time>
      </trkpt>
      <trkpt lat="43.42881" lon="6.11773">
        <ele>213.39999389648</ele>
        <time>2016-01-06T15:03:18Z</time>
      </trkpt>
      <trkpt lat="43.42881" lon="6.11774">
        <ele>213.60000610352</ele>
        <time>2016-01-06T15:03:20Z</time>
      </trkpt>
      <trkpt lat="43.4288" lon="6.11775">
        <ele>213.60000610352</ele>
        <time>2016-01-06T15:03:22Z</time>
      </trkpt>
      <trkpt lat="43.4288" lon="6.11776">
        <ele>213.60000610352</ele>
        <time>2016-01-06T15:03:24Z</time>
      </trkpt>
      <trkpt lat="43.4288" lon="6.11775">
        <ele>213.80000305176</ele>
        <time>2016-01-06T15:03:25Z</time>
      </trkpt>
      <trkpt lat="43.4288" lon="6.11776">
        <ele>213.80000305176</ele>
        <time>2016-01-06T15:03:26Z</time>
      </trkpt>
      <trkpt lat="43.4288" lon="6.11776">
        <ele>213.60000610352</ele>
        <time>2016-01-06T15:03:28Z</time>
      </trkpt>
      <trkpt lat="43.4288" lon="6.11777">
        <ele>213.80000305176</ele>
        <time>2016-01-06T15:03:30Z</time>
      </trkpt>
      <trkpt lat="43.42881" lon="6.1178">
        <ele>214.19999694824</ele>
        <time>2016-01-06T15:03:32Z</time>
      </trkpt>
      <trkpt lat="43.42881" lon="6.11782">
        <ele>214.39999389648</ele>
        <time>2016-01-06T15:03:33Z</time>
      </trkpt>
      <trkpt lat="43.42881" lon="6.11784">
        <ele>214.39999389648</ele>
        <time>2016-01-06T15:03:34Z</time>
      </trkpt>
      <trkpt lat="43.42881" lon="6.11788">
        <ele>214.39999389648</ele>
        <time>2016-01-06T15:03:36Z</time>
      </trkpt>
      <trkpt lat="43.4288" lon="6.11791">
        <ele>214.60000610352</ele>
        <time>2016-01-06T15:03:38Z</time>
      </trkpt>
      <trkpt lat="43.42879" lon="6.11794">
        <ele>214.80000305176</ele>
        <time>2016-01-06T15:03:40Z</time>
      </trkpt>
      <trkpt lat="43.42878" lon="6.11798">
        <ele>215.39999389648</ele>
        <time>2016-01-06T15:03:42Z</time>
      </trkpt>
      <trkpt lat="43.42878" lon="6.118">
        <ele>215.39999389648</ele>
        <time>2016-01-06T15:03:43Z</time>
      </trkpt>
      <trkpt lat="43.42877" lon="6.11802">
        <ele>215.60000610352</ele>
        <time>2016-01-06T15:03:44Z</time>
      </trkpt>
      <trkpt lat="43.42877" lon="6.11806">
        <ele>215.80000305176</ele>
        <time>2016-01-06T15:03:46Z</time>
      </trkpt>
      <trkpt lat="43.42877" lon="6.11808">
        <ele>215.80000305176</ele>
        <time>2016-01-06T15:03:47Z</time>
      </trkpt>
      <trkpt lat="43.42878" lon="6.1181">
        <ele>216</ele>
        <time>2016-01-06T15:03:48Z</time>
      </trkpt>
      <trkpt lat="43.42877" lon="6.11814">
        <ele>216</ele>
        <time>2016-01-06T15:03:50Z</time>
      </trkpt>
      <trkpt lat="43.42876" lon="6.11817">
        <ele>216.19999694824</ele>
        <time>2016-01-06T15:03:52Z</time>
      </trkpt>
      <trkpt lat="43.42876" lon="6.11819">
        <ele>216.39999389648</ele>
        <time>2016-01-06T15:03:53Z</time>
      </trkpt>
      <trkpt lat="43.42875" lon="6.11821">
        <ele>216.39999389648</ele>
        <time>2016-01-06T15:03:54Z</time>
      </trkpt>
      <trkpt lat="43.42875" lon="6.11823">
        <ele>216.60000610352</ele>
        <time>2016-01-06T15:03:55Z</time>
      </trkpt>
      <trkpt lat="43.42875" lon="6.11825">
        <ele>216.60000610352</ele>
        <time>2016-01-06T15:03:56Z</time>
      </trkpt>
      <trkpt lat="43.42875" lon="6.11829">
        <ele>216.80000305176</ele>
        <time>2016-01-06T15:03:58Z</time>
      </trkpt>
      <trkpt lat="43.42875" lon="6.11831">
        <ele>217</ele>
        <time>2016-01-06T15:03:59Z</time>
      </trkpt>
      <trkpt lat="43.42875" lon="6.11833">
        <ele>217.19999694824</ele>
        <time>2016-01-06T15:04:00Z</time>
      </trkpt>
      <trkpt lat="43.42874" lon="6.11836">
        <ele>217.19999694824</ele>
        <time>2016-01-06T15:04:02Z</time>
      </trkpt>
      <trkpt lat="43.42873" lon="6.1184">
        <ele>217.60000610352</ele>
        <time>2016-01-06T15:04:04Z</time>
      </trkpt>
      <trkpt lat="43.42873" lon="6.11842">
        <ele>217.60000610352</ele>
        <time>2016-01-06T15:04:05Z</time>
      </trkpt>
      <trkpt lat="43.42873" lon="6.11844">
        <ele>217.80000305176</ele>
        <time>2016-01-06T15:04:06Z</time>
      </trkpt>
      <trkpt lat="43.42874" lon="6.11847">
        <ele>218.19999694824</ele>
        <time>2016-01-06T15:04:08Z</time>
      </trkpt>
      <trkpt lat="43.42875" lon="6.1185">
        <ele>218.39999389648</ele>
        <time>2016-01-06T15:04:10Z</time>
      </trkpt>
      <trkpt lat="43.42876" lon="6.11852">
        <ele>218.39999389648</ele>
        <time>2016-01-06T15:04:11Z</time>
      </trkpt>
      <trkpt lat="43.42876" lon="6.11854">
        <ele>218.60000610352</ele>
        <time>2016-01-06T15:04:12Z</time>
      </trkpt>
      <trkpt lat="43.42877" lon="6.11856">
        <ele>218.60000610352</ele>
        <time>2016-01-06T15:04:14Z</time>
      </trkpt>
      <trkpt lat="43.42877" lon="6.11857">
        <ele>218.39999389648</ele>
        <time>2016-01-06T15:04:16Z</time>
      </trkpt>
      <trkpt lat="43.42877" lon="6.11857">
        <ele>218.39999389648</ele>
        <time>2016-01-06T15:04:18Z</time>
      </trkpt>
      <trkpt lat="43.42877" lon="6.11857">
        <ele>218.39999389648</ele>
        <time>2016-01-06T15:04:20Z</time>
      </trkpt>
      <trkpt lat="43.42877" lon="6.11857">
        <ele>218.39999389648</ele>
        <time>2016-01-06T15:04:22Z</time>
      </trkpt>
      <trkpt lat="43.42877" lon="6.11857">
        <ele>218.39999389648</ele>
        <time>2016-01-06T15:04:24Z</time>
      </trkpt>
      <trkpt lat="43.42878" lon="6.11858">
        <ele>218.19999694824</ele>
        <time>2016-01-06T15:04:26Z</time>
      </trkpt>
      <trkpt lat="43.42878" lon="6.11859">
        <ele>218.19999694824</ele>
        <time>2016-01-06T15:04:28Z</time>
      </trkpt>
      <trkpt lat="43.42878" lon="6.1186">
        <ele>218.19999694824</ele>
        <time>2016-01-06T15:04:30Z</time>
      </trkpt>
      <trkpt lat="43.42879" lon="6.11861">
        <ele>218.19999694824</ele>
        <time>2016-01-06T15:04:32Z</time>
      </trkpt>
      <trkpt lat="43.42879" lon="6.11861">
        <ele>218.19999694824</ele>
        <time>2016-01-06T15:04:34Z</time>
      </trkpt>
      <trkpt lat="43.42879" lon="6.11861">
        <ele>218.19999694824</ele>
        <time>2016-01-06T15:04:35Z</time>
      </trkpt>
      <trkpt lat="43.42879" lon="6.11861">
        <ele>218.19999694824</ele>
        <time>2016-01-06T15:04:36Z</time>
      </trkpt>
      <trkpt lat="43.4288" lon="6.11862">
        <ele>218.60000610352</ele>
        <time>2016-01-06T15:04:38Z</time>
      </trkpt>
      <trkpt lat="43.42881" lon="6.11864">
        <ele>218.80000305176</ele>
        <time>2016-01-06T15:04:40Z</time>
      </trkpt>
      <trkpt lat="43.42881" lon="6.11868">
        <ele>219</ele>
        <time>2016-01-06T15:04:42Z</time>
      </trkpt>
      <trkpt lat="43.42879" lon="6.11868">
        <ele>219.19999694824</ele>
        <time>2016-01-06T15:04:44Z</time>
      </trkpt>
      <trkpt lat="43.42879" lon="6.11869">
        <ele>219.19999694824</ele>
        <time>2016-01-06T15:04:46Z</time>
      </trkpt>
      <trkpt lat="43.42879" lon="6.11869">
        <ele>219.19999694824</ele>
        <time>2016-01-06T15:04:47Z</time>
      </trkpt>
      <trkpt lat="43.42879" lon="6.11869">
        <ele>219.19999694824</ele>
        <time>2016-01-06T15:04:48Z</time>
      </trkpt>
      <trkpt lat="43.4288" lon="6.11868">
        <ele>219</ele>
        <time>2016-01-06T15:04:50Z</time>
      </trkpt>
      <trkpt lat="43.42879" lon="6.1187">
        <ele>219.19999694824</ele>
        <time>2016-01-06T15:04:52Z</time>
      </trkpt>
      <trkpt lat="43.42879" lon="6.11871">
        <ele>219.19999694824</ele>
        <time>2016-01-06T15:04:53Z</time>
      </trkpt>
      <trkpt lat="43.42879" lon="6.11873">
        <ele>219.39999389648</ele>
        <time>2016-01-06T15:04:54Z</time>
      </trkpt>
      <trkpt lat="43.42879" lon="6.11875">
        <ele>219.60000610352</ele>
        <time>2016-01-06T15:04:56Z</time>
      </trkpt>
      <trkpt lat="43.42879" lon="6.11875">
        <ele>219.80000305176</ele>
        <time>2016-01-06T15:04:57Z</time>
      </trkpt>
      <trkpt lat="43.42879" lon="6.11875">
        <ele>219.80000305176</ele>
        <time>2016-01-06T15:04:58Z</time>
      </trkpt>
      <trkpt lat="43.42879" lon="6.11875">
        <ele>219.60000610352</ele>
        <time>2016-01-06T15:05:00Z</time>
      </trkpt>
      <trkpt lat="43.42879" lon="6.11875">
        <ele>219.80000305176</ele>
        <time>2016-01-06T15:05:02Z</time>
      </trkpt>
      <trkpt lat="43.42879" lon="6.11875">
        <ele>220</ele>
        <time>2016-01-06T15:05:04Z</time>
      </trkpt>
      <trkpt lat="43.42878" lon="6.11876">
        <ele>219.80000305176</ele>
        <time>2016-01-06T15:05:06Z</time>
      </trkpt>
      <trkpt lat="43.42878" lon="6.11878">
        <ele>219.80000305176</ele>
        <time>2016-01-06T15:05:08Z</time>
      </trkpt>
      <trkpt lat="43.42878" lon="6.1188">
        <ele>220</ele>
        <time>2016-01-06T15:05:09Z</time>
      </trkpt>
      <trkpt lat="43.42877" lon="6.11883">
        <ele>220.19999694824</ele>
        <time>2016-01-06T15:05:10Z</time>
      </trkpt>
      <trkpt lat="43.42878" lon="6.11887">
        <ele>220.39999389648</ele>
        <time>2016-01-06T15:05:12Z</time>
      </trkpt>
      <trkpt lat="43.42878" lon="6.11888">
        <ele>220.60000610352</ele>
        <time>2016-01-06T15:05:13Z</time>
      </trkpt>
      <trkpt lat="43.42878" lon="6.11888">
        <ele>220.60000610352</ele>
        <time>2016-01-06T15:05:14Z</time>
      </trkpt>
      <trkpt lat="43.42879" lon="6.11889">
        <ele>220.60000610352</ele>
        <time>2016-01-06T15:05:16Z</time>
      </trkpt>
      <trkpt lat="43.4288" lon="6.1189">
        <ele>221</ele>
        <time>2016-01-06T15:05:18Z</time>
      </trkpt>
      <trkpt lat="43.4288" lon="6.11892">
        <ele>221.19999694824</ele>
        <time>2016-01-06T15:05:20Z</time>
      </trkpt>
      <trkpt lat="43.42881" lon="6.11895">
        <ele>221.39999389648</ele>
        <time>2016-01-06T15:05:22Z</time>
      </trkpt>
      <trkpt lat="43.42882" lon="6.11899">
        <ele>221.39999389648</ele>
        <time>2016-01-06T15:05:24Z</time>
      </trkpt>
      <trkpt lat="43.42881" lon="6.11901">
        <ele>221.60000610352</ele>
        <time>2016-01-06T15:05:26Z</time>
      </trkpt>
      <trkpt lat="43.42881" lon="6.11901">
        <ele>221.80000305176</ele>
        <time>2016-01-06T15:05:28Z</time>
      </trkpt>
      <trkpt lat="43.42881" lon="6.11902">
        <ele>222</ele>
        <time>2016-01-06T15:05:30Z</time>
      </trkpt>
      <trkpt lat="43.42881" lon="6.11902">
        <ele>222</ele>
        <time>2016-01-06T15:05:32Z</time>
      </trkpt>
      <trkpt lat="43.42881" lon="6.11903">
        <ele>222</ele>
        <time>2016-01-06T15:05:34Z</time>
      </trkpt>
      <trkpt lat="43.42881" lon="6.11905">
        <ele>222</ele>
        <time>2016-01-06T15:05:36Z</time>
      </trkpt>
      <trkpt lat="43.42881" lon="6.11907">
        <ele>221.80000305176</ele>
        <time>2016-01-06T15:05:38Z</time>
      </trkpt>
      <trkpt lat="43.4288" lon="6.11907">
        <ele>222.19999694824</ele>
        <time>2016-01-06T15:05:40Z</time>
      </trkpt>
      <trkpt lat="43.4288" lon="6.11907">
        <ele>222</ele>
        <time>2016-01-06T15:05:42Z</time>
      </trkpt>
      <trkpt lat="43.4288" lon="6.11908">
        <ele>222</ele>
        <time>2016-01-06T15:05:44Z</time>
      </trkpt>
      <trkpt lat="43.4288" lon="6.11908">
        <ele>222</ele>
        <time>2016-01-06T15:05:45Z</time>
      </trkpt>
      <trkpt lat="43.4288" lon="6.11908">
        <ele>222</ele>
        <time>2016-01-06T15:05:46Z</time>
      </trkpt>
      <trkpt lat="43.4288" lon="6.11909">
        <ele>222</ele>
        <time>2016-01-06T15:05:48Z</time>
      </trkpt>
      <trkpt lat="43.42879" lon="6.11913">
        <ele>222.19999694824</ele>
        <time>2016-01-06T15:05:50Z</time>
      </trkpt>
      <trkpt lat="43.42879" lon="6.11915">
        <ele>222.39999389648</ele>
        <time>2016-01-06T15:05:51Z</time>
      </trkpt>
      <trkpt lat="43.42879" lon="6.11917">
        <ele>222.60000610352</ele>
        <time>2016-01-06T15:05:52Z</time>
      </trkpt>
      <trkpt lat="43.42878" lon="6.11923">
        <ele>222.60000610352</ele>
        <time>2016-01-06T15:05:54Z</time>
      </trkpt>
      <trkpt lat="43.42879" lon="6.11929">
        <ele>222.80000305176</ele>
        <time>2016-01-06T15:05:56Z</time>
      </trkpt>
      <trkpt lat="43.42879" lon="6.11933">
        <ele>223</ele>
        <time>2016-01-06T15:05:58Z</time>
      </trkpt>
      <trkpt lat="43.4288" lon="6.11935">
        <ele>223.19999694824</ele>
        <time>2016-01-06T15:05:59Z</time>
      </trkpt>
      <trkpt lat="43.42879" lon="6.11937">
        <ele>223.39999389648</ele>
        <time>2016-01-06T15:06:00Z</time>
      </trkpt>
      <trkpt lat="43.4288" lon="6.1194">
        <ele>223.39999389648</ele>
        <time>2016-01-06T15:06:02Z</time>
      </trkpt>
      <trkpt lat="43.42881" lon="6.11943">
        <ele>223.39999389648</ele>
        <time>2016-01-06T15:06:03Z</time>
      </trkpt>
      <trkpt lat="43.42881" lon="6.11945">
        <ele>223.60000610352</ele>
        <time>2016-01-06T15:06:04Z</time>
      </trkpt>
      <trkpt lat="43.42882" lon="6.11949">
        <ele>224</ele>
        <time>2016-01-06T15:06:06Z</time>
      </trkpt>
      <trkpt lat="43.42883" lon="6.11953">
        <ele>224.19999694824</ele>
        <time>2016-01-06T15:06:08Z</time>
      </trkpt>
      <trkpt lat="43.42883" lon="6.11956">
        <ele>224.39999389648</ele>
        <time>2016-01-06T15:06:10Z</time>
      </trkpt>
      <trkpt lat="43.42883" lon="6.11961">
        <ele>224.39999389648</ele>
        <time>2016-01-06T15:06:12Z</time>
      </trkpt>
      <trkpt lat="43.42884" lon="6.11966">
        <ele>224.80000305176</ele>
        <time>2016-01-06T15:06:14Z</time>
      </trkpt>
      <trkpt lat="43.42884" lon="6.11967">
        <ele>225</ele>
        <time>2016-01-06T15:06:15Z</time>
      </trkpt>
      <trkpt lat="43.42884" lon="6.11969">
        <ele>225.19999694824</ele>
        <time>2016-01-06T15:06:16Z</time>
      </trkpt>
      <trkpt lat="43.42885" lon="6.1197">
        <ele>225.19999694824</ele>
        <time>2016-01-06T15:06:17Z</time>
      </trkpt>
      <trkpt lat="43.42886" lon="6.11972">
        <ele>225.39999389648</ele>
        <time>2016-01-06T15:06:18Z</time>
      </trkpt>
      <trkpt lat="43.42886" lon="6.11974">
        <ele>225.39999389648</ele>
        <time>2016-01-06T15:06:19Z</time>
      </trkpt>
      <trkpt lat="43.42887" lon="6.11976">
        <ele>225.39999389648</ele>
        <time>2016-01-06T15:06:20Z</time>
      </trkpt>
      <trkpt lat="43.42886" lon="6.11977">
        <ele>225.60000610352</ele>
        <time>2016-01-06T15:06:21Z</time>
      </trkpt>
      <trkpt lat="43.42887" lon="6.11979">
        <ele>225.60000610352</ele>
        <time>2016-01-06T15:06:22Z</time>
      </trkpt>
      <trkpt lat="43.42888" lon="6.11982">
        <ele>225.60000610352</ele>
        <time>2016-01-06T15:06:23Z</time>
      </trkpt>
      <trkpt lat="43.42889" lon="6.11984">
        <ele>225.60000610352</ele>
        <time>2016-01-06T15:06:24Z</time>
      </trkpt>
      <trkpt lat="43.42892" lon="6.11989">
        <ele>225.60000610352</ele>
        <time>2016-01-06T15:06:26Z</time>
      </trkpt>
      <trkpt lat="43.42894" lon="6.11994">
        <ele>225.39999389648</ele>
        <time>2016-01-06T15:06:28Z</time>
      </trkpt>
      <trkpt lat="43.42896" lon="6.11998">
        <ele>225.80000305176</ele>
        <time>2016-01-06T15:06:30Z</time>
      </trkpt>
      <trkpt lat="43.42897" lon="6.12003">
        <ele>225.80000305176</ele>
        <time>2016-01-06T15:06:32Z</time>
      </trkpt>
      <trkpt lat="43.42898" lon="6.12007">
        <ele>226</ele>
        <time>2016-01-06T15:06:34Z</time>
      </trkpt>
      <trkpt lat="43.42898" lon="6.12011">
        <ele>226.39999389648</ele>
        <time>2016-01-06T15:06:36Z</time>
      </trkpt>
      <trkpt lat="43.42898" lon="6.12015">
        <ele>226.39999389648</ele>
        <time>2016-01-06T15:06:38Z</time>
      </trkpt>
      <trkpt lat="43.42899" lon="6.12017">
        <ele>226.60000610352</ele>
        <time>2016-01-06T15:06:39Z</time>
      </trkpt>
      <trkpt lat="43.42899" lon="6.12019">
        <ele>226.60000610352</ele>
        <time>2016-01-06T15:06:40Z</time>
      </trkpt>
      <trkpt lat="43.429" lon="6.12023">
        <ele>226.80000305176</ele>
        <time>2016-01-06T15:06:42Z</time>
      </trkpt>
      <trkpt lat="43.429" lon="6.12027">
        <ele>227.39999389648</ele>
        <time>2016-01-06T15:06:44Z</time>
      </trkpt>
      <trkpt lat="43.429" lon="6.12032">
        <ele>227.60000610352</ele>
        <time>2016-01-06T15:06:46Z</time>
      </trkpt>
      <trkpt lat="43.42901" lon="6.12034">
        <ele>227.39999389648</ele>
        <time>2016-01-06T15:06:47Z</time>
      </trkpt>
      <trkpt lat="43.42901" lon="6.12036">
        <ele>227.39999389648</ele>
        <time>2016-01-06T15:06:48Z</time>
      </trkpt>
      <trkpt lat="43.42901" lon="6.12041">
        <ele>227.60000610352</ele>
        <time>2016-01-06T15:06:50Z</time>
      </trkpt>
      <trkpt lat="43.42902" lon="6.12045">
        <ele>228.19999694824</ele>
        <time>2016-01-06T15:06:52Z</time>
      </trkpt>
      <trkpt lat="43.42902" lon="6.12047">
        <ele>228.19999694824</ele>
        <time>2016-01-06T15:06:53Z</time>
      </trkpt>
      <trkpt lat="43.42903" lon="6.12049">
        <ele>228.19999694824</ele>
        <time>2016-01-06T15:06:54Z</time>
      </trkpt>
      <trkpt lat="43.42904" lon="6.12051">
        <ele>228.39999389648</ele>
        <time>2016-01-06T15:06:55Z</time>
      </trkpt>
      <trkpt lat="43.42904" lon="6.12054">
        <ele>228.60000610352</ele>
        <time>2016-01-06T15:06:56Z</time>
      </trkpt>
      <trkpt lat="43.42906" lon="6.12058">
        <ele>228.60000610352</ele>
        <time>2016-01-06T15:06:58Z</time>
      </trkpt>
      <trkpt lat="43.42907" lon="6.12063">
        <ele>229</ele>
        <time>2016-01-06T15:07:00Z</time>
      </trkpt>
      <trkpt lat="43.42908" lon="6.12068">
        <ele>229</ele>
        <time>2016-01-06T15:07:02Z</time>
      </trkpt>
      <trkpt lat="43.42909" lon="6.12073">
        <ele>229.19999694824</ele>
        <time>2016-01-06T15:07:04Z</time>
      </trkpt>
      <trkpt lat="43.42909" lon="6.12077">
        <ele>229.60000610352</ele>
        <time>2016-01-06T15:07:06Z</time>
      </trkpt>
      <trkpt lat="43.42909" lon="6.12082">
        <ele>229.39999389648</ele>
        <time>2016-01-06T15:07:08Z</time>
      </trkpt>
      <trkpt lat="43.42909" lon="6.12087">
        <ele>229.39999389648</ele>
        <time>2016-01-06T15:07:10Z</time>
      </trkpt>
      <trkpt lat="43.42909" lon="6.12091">
        <ele>229.39999389648</ele>
        <time>2016-01-06T15:07:12Z</time>
      </trkpt>
      <trkpt lat="43.42909" lon="6.12096">
        <ele>229.80000305176</ele>
        <time>2016-01-06T15:07:14Z</time>
      </trkpt>
      <trkpt lat="43.4291" lon="6.121">
        <ele>230.19999694824</ele>
        <time>2016-01-06T15:07:16Z</time>
      </trkpt>
      <trkpt lat="43.42911" lon="6.12104">
        <ele>230.60000610352</ele>
        <time>2016-01-06T15:07:18Z</time>
      </trkpt>
      <trkpt lat="43.42912" lon="6.12108">
        <ele>230.39999389648</ele>
        <time>2016-01-06T15:07:20Z</time>
      </trkpt>
      <trkpt lat="43.42912" lon="6.12113">
        <ele>230.19999694824</ele>
        <time>2016-01-06T15:07:22Z</time>
      </trkpt>
      <trkpt lat="43.42912" lon="6.12115">
        <ele>230.19999694824</ele>
        <time>2016-01-06T15:07:23Z</time>
      </trkpt>
      <trkpt lat="43.42911" lon="6.12116">
        <ele>230.19999694824</ele>
        <time>2016-01-06T15:07:24Z</time>
      </trkpt>
      <trkpt lat="43.42911" lon="6.12118">
        <ele>230.60000610352</ele>
        <time>2016-01-06T15:07:25Z</time>
      </trkpt>
      <trkpt lat="43.4291" lon="6.12121">
        <ele>231</ele>
        <time>2016-01-06T15:07:26Z</time>
      </trkpt>
      <trkpt lat="43.4291" lon="6.12123">
        <ele>231.19999694824</ele>
        <time>2016-01-06T15:07:27Z</time>
      </trkpt>
      <trkpt lat="43.4291" lon="6.12125">
        <ele>231.19999694824</ele>
        <time>2016-01-06T15:07:28Z</time>
      </trkpt>
      <trkpt lat="43.42912" lon="6.12128">
        <ele>231.80000305176</ele>
        <time>2016-01-06T15:07:30Z</time>
      </trkpt>
      <trkpt lat="43.42912" lon="6.12131">
        <ele>232.60000610352</ele>
        <time>2016-01-06T15:07:32Z</time>
      </trkpt>
      <trkpt lat="43.42912" lon="6.12136">
        <ele>232.80000305176</ele>
        <time>2016-01-06T15:07:34Z</time>
      </trkpt>
      <trkpt lat="43.42911" lon="6.1214">
        <ele>233</ele>
        <time>2016-01-06T15:07:36Z</time>
      </trkpt>
      <trkpt lat="43.42909" lon="6.12143">
        <ele>233.60000610352</ele>
        <time>2016-01-06T15:07:38Z</time>
      </trkpt>
      <trkpt lat="43.42908" lon="6.12145">
        <ele>234.19999694824</ele>
        <time>2016-01-06T15:07:40Z</time>
      </trkpt>
      <trkpt lat="43.42907" lon="6.12147">
        <ele>235</ele>
        <time>2016-01-06T15:07:41Z</time>
      </trkpt>
      <trkpt lat="43.42906" lon="6.12149">
        <ele>235.19999694824</ele>
        <time>2016-01-06T15:07:42Z</time>
      </trkpt>
      <trkpt lat="43.42906" lon="6.1215">
        <ele>235.39999389648</ele>
        <time>2016-01-06T15:07:43Z</time>
      </trkpt>
      <trkpt lat="43.42905" lon="6.12152">
        <ele>235.60000610352</ele>
        <time>2016-01-06T15:07:44Z</time>
      </trkpt>
      <trkpt lat="43.42904" lon="6.12155">
        <ele>235.80000305176</ele>
        <time>2016-01-06T15:07:46Z</time>
      </trkpt>
      <trkpt lat="43.42902" lon="6.12156">
        <ele>235.80000305176</ele>
        <time>2016-01-06T15:07:47Z</time>
      </trkpt>
      <trkpt lat="43.42901" lon="6.12157">
        <ele>235.80000305176</ele>
        <time>2016-01-06T15:07:48Z</time>
      </trkpt>
      <trkpt lat="43.42898" lon="6.12158">
        <ele>235.60000610352</ele>
        <time>2016-01-06T15:07:50Z</time>
      </trkpt>
      <trkpt lat="43.42895" lon="6.12159">
        <ele>235.60000610352</ele>
        <time>2016-01-06T15:07:52Z</time>
      </trkpt>
      <trkpt lat="43.42891" lon="6.1216">
        <ele>235.80000305176</ele>
        <time>2016-01-06T15:07:54Z</time>
      </trkpt>
      <trkpt lat="43.42889" lon="6.12161">
        <ele>236.19999694824</ele>
        <time>2016-01-06T15:07:55Z</time>
      </trkpt>
      <trkpt lat="43.42887" lon="6.12161">
        <ele>236.39999389648</ele>
        <time>2016-01-06T15:07:56Z</time>
      </trkpt>
      <trkpt lat="43.42886" lon="6.12161">
        <ele>236.60000610352</ele>
        <time>2016-01-06T15:07:57Z</time>
      </trkpt>
      <trkpt lat="43.42884" lon="6.12162">
        <ele>236.80000305176</ele>
        <time>2016-01-06T15:07:58Z</time>
      </trkpt>
      <trkpt lat="43.42881" lon="6.12163">
        <ele>237</ele>
        <time>2016-01-06T15:08:00Z</time>
      </trkpt>
      <trkpt lat="43.42877" lon="6.12164">
        <ele>236.80000305176</ele>
        <time>2016-01-06T15:08:02Z</time>
      </trkpt>
      <trkpt lat="43.42874" lon="6.12164">
        <ele>236.60000610352</ele>
        <time>2016-01-06T15:08:04Z</time>
      </trkpt>
      <trkpt lat="43.42871" lon="6.12165">
        <ele>236.19999694824</ele>
        <time>2016-01-06T15:08:06Z</time>
      </trkpt>
      <trkpt lat="43.42869" lon="6.12165">
        <ele>236.60000610352</ele>
        <time>2016-01-06T15:08:08Z</time>
      </trkpt>
      <trkpt lat="43.42866" lon="6.12164">
        <ele>236.80000305176</ele>
        <time>2016-01-06T15:08:10Z</time>
      </trkpt>
      <trkpt lat="43.42863" lon="6.12163">
        <ele>237.19999694824</ele>
        <time>2016-01-06T15:08:12Z</time>
      </trkpt>
      <trkpt lat="43.42863" lon="6.12162">
        <ele>237.39999389648</ele>
        <time>2016-01-06T15:08:13Z</time>
      </trkpt>
      <trkpt lat="43.42862" lon="6.12162">
        <ele>237.60000610352</ele>
        <time>2016-01-06T15:08:14Z</time>
      </trkpt>
      <trkpt lat="43.42859" lon="6.12162">
        <ele>237.80000305176</ele>
        <time>2016-01-06T15:08:16Z</time>
      </trkpt>
      <trkpt lat="43.42857" lon="6.12161">
        <ele>238.19999694824</ele>
        <time>2016-01-06T15:08:18Z</time>
      </trkpt>
      <trkpt lat="43.42854" lon="6.12161">
        <ele>238</ele>
        <time>2016-01-06T15:08:20Z</time>
      </trkpt>
      <trkpt lat="43.42852" lon="6.12161">
        <ele>237.80000305176</ele>
        <time>2016-01-06T15:08:22Z</time>
      </trkpt>
      <trkpt lat="43.42849" lon="6.12161">
        <ele>237.80000305176</ele>
        <time>2016-01-06T15:08:24Z</time>
      </trkpt>
      <trkpt lat="43.42847" lon="6.12161">
        <ele>238.19999694824</ele>
        <time>2016-01-06T15:08:26Z</time>
      </trkpt>
      <trkpt lat="43.42846" lon="6.12161">
        <ele>238.60000610352</ele>
        <time>2016-01-06T15:08:27Z</time>
      </trkpt>
      <trkpt lat="43.42844" lon="6.12161">
        <ele>238.80000305176</ele>
        <time>2016-01-06T15:08:28Z</time>
      </trkpt>
      <trkpt lat="43.42842" lon="6.12161">
        <ele>238.80000305176</ele>
        <time>2016-01-06T15:08:30Z</time>
      </trkpt>
      <trkpt lat="43.42839" lon="6.12161">
        <ele>238.80000305176</ele>
        <time>2016-01-06T15:08:32Z</time>
      </trkpt>
      <trkpt lat="43.42836" lon="6.12162">
        <ele>238.80000305176</ele>
        <time>2016-01-06T15:08:34Z</time>
      </trkpt>
      <trkpt lat="43.42834" lon="6.12162">
        <ele>239</ele>
        <time>2016-01-06T15:08:35Z</time>
      </trkpt>
      <trkpt lat="43.42833" lon="6.12161">
        <ele>239.19999694824</ele>
        <time>2016-01-06T15:08:36Z</time>
      </trkpt>
      <trkpt lat="43.4283" lon="6.12162">
        <ele>239.39999389648</ele>
        <time>2016-01-06T15:08:38Z</time>
      </trkpt>
      <trkpt lat="43.42829" lon="6.12162">
        <ele>239.39999389648</ele>
        <time>2016-01-06T15:08:39Z</time>
      </trkpt>
      <trkpt lat="43.42827" lon="6.12162">
        <ele>239.60000610352</ele>
        <time>2016-01-06T15:08:40Z</time>
      </trkpt>
      <trkpt lat="43.42826" lon="6.12163">
        <ele>239.80000305176</ele>
        <time>2016-01-06T15:08:41Z</time>
      </trkpt>
      <trkpt lat="43.42825" lon="6.12163">
        <ele>240</ele>
        <time>2016-01-06T15:08:42Z</time>
      </trkpt>
      <trkpt lat="43.42823" lon="6.12163">
        <ele>240</ele>
        <time>2016-01-06T15:08:43Z</time>
      </trkpt>
      <trkpt lat="43.42821" lon="6.12162">
        <ele>240</ele>
        <time>2016-01-06T15:08:44Z</time>
      </trkpt>
      <trkpt lat="43.42818" lon="6.12162">
        <ele>240.19999694824</ele>
        <time>2016-01-06T15:08:46Z</time>
      </trkpt>
      <trkpt lat="43.42815" lon="6.12162">
        <ele>240.39999389648</ele>
        <time>2016-01-06T15:08:48Z</time>
      </trkpt>
      <trkpt lat="43.42811" lon="6.12162">
        <ele>240.39999389648</ele>
        <time>2016-01-06T15:08:50Z</time>
      </trkpt>
      <trkpt lat="43.42806" lon="6.12162">
        <ele>240.19999694824</ele>
        <time>2016-01-06T15:08:52Z</time>
      </trkpt>
      <trkpt lat="43.42803" lon="6.1216">
        <ele>240</ele>
        <time>2016-01-06T15:08:54Z</time>
      </trkpt>
      <trkpt lat="43.42801" lon="6.1216">
        <ele>239.80000305176</ele>
        <time>2016-01-06T15:08:56Z</time>
      </trkpt>
      <trkpt lat="43.428" lon="6.1216">
        <ele>240.19999694824</ele>
        <time>2016-01-06T15:08:57Z</time>
      </trkpt>
      <trkpt lat="43.42798" lon="6.1216">
        <ele>240.39999389648</ele>
        <time>2016-01-06T15:08:58Z</time>
      </trkpt>
      <trkpt lat="43.42795" lon="6.12158">
        <ele>240.80000305176</ele>
        <time>2016-01-06T15:09:00Z</time>
      </trkpt>
      <trkpt lat="43.42793" lon="6.12156">
        <ele>240.80000305176</ele>
        <time>2016-01-06T15:09:02Z</time>
      </trkpt>
      <trkpt lat="43.42793" lon="6.12155">
        <ele>240.80000305176</ele>
        <time>2016-01-06T15:09:03Z</time>
      </trkpt>
      <trkpt lat="43.42791" lon="6.12154">
        <ele>241.19999694824</ele>
        <time>2016-01-06T15:09:04Z</time>
      </trkpt>
      <trkpt lat="43.42789" lon="6.12151">
        <ele>241.80000305176</ele>
        <time>2016-01-06T15:09:06Z</time>
      </trkpt>
      <trkpt lat="43.42788" lon="6.12148">
        <ele>241.80000305176</ele>
        <time>2016-01-06T15:09:08Z</time>
      </trkpt>
      <trkpt lat="43.42787" lon="6.12147">
        <ele>241.80000305176</ele>
        <time>2016-01-06T15:09:09Z</time>
      </trkpt>
      <trkpt lat="43.42786" lon="6.12146">
        <ele>241.80000305176</ele>
        <time>2016-01-06T15:09:10Z</time>
      </trkpt>
      <trkpt lat="43.42784" lon="6.12144">
        <ele>242.19999694824</ele>
        <time>2016-01-06T15:09:12Z</time>
      </trkpt>
      <trkpt lat="43.42781" lon="6.12142">
        <ele>242.19999694824</ele>
        <time>2016-01-06T15:09:14Z</time>
      </trkpt>
      <trkpt lat="43.4278" lon="6.12141">
        <ele>242.39999389648</ele>
        <time>2016-01-06T15:09:15Z</time>
      </trkpt>
      <trkpt lat="43.42779" lon="6.1214">
        <ele>242.39999389648</ele>
        <time>2016-01-06T15:09:16Z</time>
      </trkpt>
      <trkpt lat="43.42776" lon="6.12138">
        <ele>242.60000610352</ele>
        <time>2016-01-06T15:09:18Z</time>
      </trkpt>
      <trkpt lat="43.42774" lon="6.12134">
        <ele>243</ele>
        <time>2016-01-06T15:09:20Z</time>
      </trkpt>
      <trkpt lat="43.42773" lon="6.12131">
        <ele>242.80000305176</ele>
        <time>2016-01-06T15:09:22Z</time>
      </trkpt>
      <trkpt lat="43.4277" lon="6.12127">
        <ele>242.80000305176</ele>
        <time>2016-01-06T15:09:24Z</time>
      </trkpt>
      <trkpt lat="43.42769" lon="6.12123">
        <ele>242.80000305176</ele>
        <time>2016-01-06T15:09:26Z</time>
      </trkpt>
      <trkpt lat="43.42768" lon="6.12121">
        <ele>242.80000305176</ele>
        <time>2016-01-06T15:09:27Z</time>
      </trkpt>
      <trkpt lat="43.42768" lon="6.12119">
        <ele>243</ele>
        <time>2016-01-06T15:09:28Z</time>
      </trkpt>
      <trkpt lat="43.42767" lon="6.12118">
        <ele>243.60000610352</ele>
        <time>2016-01-06T15:09:29Z</time>
      </trkpt>
      <trkpt lat="43.42766" lon="6.12116">
        <ele>244</ele>
        <time>2016-01-06T15:09:30Z</time>
      </trkpt>
      <trkpt lat="43.42763" lon="6.12114">
        <ele>244.19999694824</ele>
        <time>2016-01-06T15:09:32Z</time>
      </trkpt>
      <trkpt lat="43.42761" lon="6.12111">
        <ele>244.19999694824</ele>
        <time>2016-01-06T15:09:34Z</time>
      </trkpt>
      <trkpt lat="43.42759" lon="6.12108">
        <ele>244.39999389648</ele>
        <time>2016-01-06T15:09:36Z</time>
      </trkpt>
      <trkpt lat="43.42757" lon="6.12107">
        <ele>244.60000610352</ele>
        <time>2016-01-06T15:09:37Z</time>
      </trkpt>
      <trkpt lat="43.42756" lon="6.12105">
        <ele>244.60000610352</ele>
        <time>2016-01-06T15:09:38Z</time>
      </trkpt>
      <trkpt lat="43.42755" lon="6.12103">
        <ele>244.60000610352</ele>
        <time>2016-01-06T15:09:39Z</time>
      </trkpt>
      <trkpt lat="43.42754" lon="6.12101">
        <ele>244.80000305176</ele>
        <time>2016-01-06T15:09:40Z</time>
      </trkpt>
      <trkpt lat="43.42751" lon="6.12096">
        <ele>245.19999694824</ele>
        <time>2016-01-06T15:09:42Z</time>
      </trkpt>
      <trkpt lat="43.4275" lon="6.12094">
        <ele>245.39999389648</ele>
        <time>2016-01-06T15:09:43Z</time>
      </trkpt>
      <trkpt lat="43.42749" lon="6.12092">
        <ele>245.39999389648</ele>
        <time>2016-01-06T15:09:44Z</time>
      </trkpt>
      <trkpt lat="43.42747" lon="6.12088">
        <ele>245.60000610352</ele>
        <time>2016-01-06T15:09:46Z</time>
      </trkpt>
      <trkpt lat="43.42745" lon="6.12084">
        <ele>246</ele>
        <time>2016-01-06T15:09:48Z</time>
      </trkpt>
      <trkpt lat="43.42743" lon="6.12081">
        <ele>246</ele>
        <time>2016-01-06T15:09:50Z</time>
      </trkpt>
      <trkpt lat="43.42742" lon="6.12077">
        <ele>246.19999694824</ele>
        <time>2016-01-06T15:09:52Z</time>
      </trkpt>
      <trkpt lat="43.42742" lon="6.12075">
        <ele>246.19999694824</ele>
        <time>2016-01-06T15:09:53Z</time>
      </trkpt>
      <trkpt lat="43.42741" lon="6.12072">
        <ele>246.19999694824</ele>
        <time>2016-01-06T15:09:54Z</time>
      </trkpt>
      <trkpt lat="43.42741" lon="6.12068">
        <ele>246.39999389648</ele>
        <time>2016-01-06T15:09:56Z</time>
      </trkpt>
      <trkpt lat="43.4274" lon="6.12064">
        <ele>247</ele>
        <time>2016-01-06T15:09:58Z</time>
      </trkpt>
      <trkpt lat="43.42739" lon="6.12059">
        <ele>247.39999389648</ele>
        <time>2016-01-06T15:10:00Z</time>
      </trkpt>
      <trkpt lat="43.42739" lon="6.12055">
        <ele>247.60000610352</ele>
        <time>2016-01-06T15:10:02Z</time>
      </trkpt>
      <trkpt lat="43.42739" lon="6.12053">
        <ele>247.80000305176</ele>
        <time>2016-01-06T15:10:03Z</time>
      </trkpt>
      <trkpt lat="43.42738" lon="6.1205">
        <ele>247.80000305176</ele>
        <time>2016-01-06T15:10:04Z</time>
      </trkpt>
      <trkpt lat="43.42738" lon="6.12047">
        <ele>247.80000305176</ele>
        <time>2016-01-06T15:10:06Z</time>
      </trkpt>
      <trkpt lat="43.42738" lon="6.12043">
        <ele>247.80000305176</ele>
        <time>2016-01-06T15:10:08Z</time>
      </trkpt>
      <trkpt lat="43.42738" lon="6.12039">
        <ele>248</ele>
        <time>2016-01-06T15:10:10Z</time>
      </trkpt>
      <trkpt lat="43.42737" lon="6.12037">
        <ele>248</ele>
        <time>2016-01-06T15:10:11Z</time>
      </trkpt>
      <trkpt lat="43.42736" lon="6.12035">
        <ele>248.19999694824</ele>
        <time>2016-01-06T15:10:12Z</time>
      </trkpt>
      <trkpt lat="43.42736" lon="6.12031">
        <ele>248.39999389648</ele>
        <time>2016-01-06T15:10:14Z</time>
      </trkpt>
      <trkpt lat="43.42737" lon="6.12026">
        <ele>248.60000610352</ele>
        <time>2016-01-06T15:10:16Z</time>
      </trkpt>
      <trkpt lat="43.42737" lon="6.12024">
        <ele>248.60000610352</ele>
        <time>2016-01-06T15:10:17Z</time>
      </trkpt>
      <trkpt lat="43.42738" lon="6.12022">
        <ele>248.60000610352</ele>
        <time>2016-01-06T15:10:18Z</time>
      </trkpt>
      <trkpt lat="43.42738" lon="6.12018">
        <ele>249</ele>
        <time>2016-01-06T15:10:20Z</time>
      </trkpt>
      <trkpt lat="43.42738" lon="6.12016">
        <ele>249.19999694824</ele>
        <time>2016-01-06T15:10:21Z</time>
      </trkpt>
      <trkpt lat="43.42737" lon="6.12014">
        <ele>249.19999694824</ele>
        <time>2016-01-06T15:10:22Z</time>
      </trkpt>
      <trkpt lat="43.42737" lon="6.12012">
        <ele>249.19999694824</ele>
        <time>2016-01-06T15:10:23Z</time>
      </trkpt>
      <trkpt lat="43.42736" lon="6.12009">
        <ele>249.39999389648</ele>
        <time>2016-01-06T15:10:24Z</time>
      </trkpt>
      <trkpt lat="43.42736" lon="6.12006">
        <ele>249.39999389648</ele>
        <time>2016-01-06T15:10:25Z</time>
      </trkpt>
      <trkpt lat="43.42735" lon="6.12004">
        <ele>249.39999389648</ele>
        <time>2016-01-06T15:10:26Z</time>
      </trkpt>
      <trkpt lat="43.42735" lon="6.11999">
        <ele>249.39999389648</ele>
        <time>2016-01-06T15:10:28Z</time>
      </trkpt>
      <trkpt lat="43.42736" lon="6.11994">
        <ele>249.39999389648</ele>
        <time>2016-01-06T15:10:30Z</time>
      </trkpt>
      <trkpt lat="43.42736" lon="6.11988">
        <ele>249.39999389648</ele>
        <time>2016-01-06T15:10:32Z</time>
      </trkpt>
      <trkpt lat="43.42736" lon="6.11983">
        <ele>249.39999389648</ele>
        <time>2016-01-06T15:10:34Z</time>
      </trkpt>
      <trkpt lat="43.42736" lon="6.11978">
        <ele>249.39999389648</ele>
        <time>2016-01-06T15:10:36Z</time>
      </trkpt>
      <trkpt lat="43.42737" lon="6.11973">
        <ele>249.39999389648</ele>
        <time>2016-01-06T15:10:38Z</time>
      </trkpt>
      <trkpt lat="43.42737" lon="6.11968">
        <ele>249.39999389648</ele>
        <time>2016-01-06T15:10:40Z</time>
      </trkpt>
      <trkpt lat="43.42736" lon="6.11963">
        <ele>249.80000305176</ele>
        <time>2016-01-06T15:10:42Z</time>
      </trkpt>
      <trkpt lat="43.42736" lon="6.11958">
        <ele>249.80000305176</ele>
        <time>2016-01-06T15:10:44Z</time>
      </trkpt>
      <trkpt lat="43.42734" lon="6.11954">
        <ele>249.60000610352</ele>
        <time>2016-01-06T15:10:46Z</time>
      </trkpt>
      <trkpt lat="43.42733" lon="6.11952">
        <ele>249.80000305176</ele>
        <time>2016-01-06T15:10:47Z</time>
      </trkpt>
      <trkpt lat="43.42731" lon="6.1195">
        <ele>250</ele>
        <time>2016-01-06T15:10:48Z</time>
      </trkpt>
      <trkpt lat="43.4273" lon="6.1195">
        <ele>250.19999694824</ele>
        <time>2016-01-06T15:10:49Z</time>
      </trkpt>
      <trkpt lat="43.42729" lon="6.11949">
        <ele>250.39999389648</ele>
        <time>2016-01-06T15:10:50Z</time>
      </trkpt>
      <trkpt lat="43.42726" lon="6.11947">
        <ele>250.60000610352</ele>
        <time>2016-01-06T15:10:52Z</time>
      </trkpt>
      <trkpt lat="43.42725" lon="6.11945">
        <ele>250.80000305176</ele>
        <time>2016-01-06T15:10:53Z</time>
      </trkpt>
      <trkpt lat="43.42724" lon="6.11943">
        <ele>251</ele>
        <time>2016-01-06T15:10:54Z</time>
      </trkpt>
      <trkpt lat="43.42722" lon="6.1194">
        <ele>251.39999389648</ele>
        <time>2016-01-06T15:10:56Z</time>
      </trkpt>
      <trkpt lat="43.42719" lon="6.11938">
        <ele>252</ele>
        <time>2016-01-06T15:10:58Z</time>
      </trkpt>
      <trkpt lat="43.42717" lon="6.11936">
        <ele>252</ele>
        <time>2016-01-06T15:11:00Z</time>
      </trkpt>
      <trkpt lat="43.42715" lon="6.11935">
        <ele>252</ele>
        <time>2016-01-06T15:11:01Z</time>
      </trkpt>
      <trkpt lat="43.42714" lon="6.11934">
        <ele>252.19999694824</ele>
        <time>2016-01-06T15:11:02Z</time>
      </trkpt>
      <trkpt lat="43.42712" lon="6.11932">
        <ele>252.39999389648</ele>
        <time>2016-01-06T15:11:04Z</time>
      </trkpt>
      <trkpt lat="43.4271" lon="6.1193">
        <ele>252.60000610352</ele>
        <time>2016-01-06T15:11:06Z</time>
      </trkpt>
      <trkpt lat="43.42708" lon="6.11929">
        <ele>252.60000610352</ele>
        <time>2016-01-06T15:11:07Z</time>
      </trkpt>
      <trkpt lat="43.42706" lon="6.11928">
        <ele>253</ele>
        <time>2016-01-06T15:11:08Z</time>
      </trkpt>
      <trkpt lat="43.42704" lon="6.11923">
        <ele>253.19999694824</ele>
        <time>2016-01-06T15:11:10Z</time>
      </trkpt>
      <trkpt lat="43.42703" lon="6.1192">
        <ele>253.39999389648</ele>
        <time>2016-01-06T15:11:11Z</time>
      </trkpt>
      <trkpt lat="43.42702" lon="6.11918">
        <ele>253.39999389648</ele>
        <time>2016-01-06T15:11:12Z</time>
      </trkpt>
      <trkpt lat="43.42701" lon="6.11916">
        <ele>253.60000610352</ele>
        <time>2016-01-06T15:11:13Z</time>
      </trkpt>
      <trkpt lat="43.42701" lon="6.11913">
        <ele>253.60000610352</ele>
        <time>2016-01-06T15:11:14Z</time>
      </trkpt>
      <trkpt lat="43.42701" lon="6.11909">
        <ele>253.60000610352</ele>
        <time>2016-01-06T15:11:16Z</time>
      </trkpt>
      <trkpt lat="43.427" lon="6.11905">
        <ele>253.80000305176</ele>
        <time>2016-01-06T15:11:18Z</time>
      </trkpt>
      <trkpt lat="43.42699" lon="6.11903">
        <ele>254</ele>
        <time>2016-01-06T15:11:19Z</time>
      </trkpt>
      <trkpt lat="43.42699" lon="6.119">
        <ele>254</ele>
        <time>2016-01-06T15:11:20Z</time>
      </trkpt>
      <trkpt lat="43.42699" lon="6.11898">
        <ele>254.19999694824</ele>
        <time>2016-01-06T15:11:21Z</time>
      </trkpt>
      <trkpt lat="43.427" lon="6.11896">
        <ele>254.39999389648</ele>
        <time>2016-01-06T15:11:22Z</time>
      </trkpt>
      <trkpt lat="43.42702" lon="6.11892">
        <ele>254.60000610352</ele>
        <time>2016-01-06T15:11:24Z</time>
      </trkpt>
      <trkpt lat="43.42703" lon="6.1189">
        <ele>254.80000305176</ele>
        <time>2016-01-06T15:11:25Z</time>
      </trkpt>
      <trkpt lat="43.42705" lon="6.11888">
        <ele>255</ele>
        <time>2016-01-06T15:11:26Z</time>
      </trkpt>
      <trkpt lat="43.42708" lon="6.11885">
        <ele>254.60000610352</ele>
        <time>2016-01-06T15:11:28Z</time>
      </trkpt>
      <trkpt lat="43.42711" lon="6.11883">
        <ele>255</ele>
        <time>2016-01-06T15:11:30Z</time>
      </trkpt>
      <trkpt lat="43.42714" lon="6.11882">
        <ele>255</ele>
        <time>2016-01-06T15:11:32Z</time>
      </trkpt>
      <trkpt lat="43.42716" lon="6.1188">
        <ele>255</ele>
        <time>2016-01-06T15:11:34Z</time>
      </trkpt>
      <trkpt lat="43.42717" lon="6.11877">
        <ele>255</ele>
        <time>2016-01-06T15:11:36Z</time>
      </trkpt>
      <trkpt lat="43.42717" lon="6.11877">
        <ele>255</ele>
        <time>2016-01-06T15:11:38Z</time>
      </trkpt>
      <trkpt lat="43.42718" lon="6.11877">
        <ele>254.80000305176</ele>
        <time>2016-01-06T15:11:40Z</time>
      </trkpt>
      <trkpt lat="43.42718" lon="6.11877">
        <ele>255</ele>
        <time>2016-01-06T15:11:42Z</time>
      </trkpt>
      <trkpt lat="43.42718" lon="6.11877">
        <ele>255</ele>
        <time>2016-01-06T15:11:44Z</time>
      </trkpt>
      <trkpt lat="43.42718" lon="6.11877">
        <ele>255</ele>
        <time>2016-01-06T15:11:46Z</time>
      </trkpt>
      <trkpt lat="43.42718" lon="6.11877">
        <ele>255</ele>
        <time>2016-01-06T15:11:47Z</time>
      </trkpt>
      <trkpt lat="43.42718" lon="6.11877">
        <ele>254.80000305176</ele>
        <time>2016-01-06T15:11:48Z</time>
      </trkpt>
      <trkpt lat="43.42718" lon="6.11877">
        <ele>254.60000610352</ele>
        <time>2016-01-06T15:11:50Z</time>
      </trkpt>
      <trkpt lat="43.42718" lon="6.11877">
        <ele>254.80000305176</ele>
        <time>2016-01-06T15:11:52Z</time>
      </trkpt>
      <trkpt lat="43.42718" lon="6.11877">
        <ele>254.80000305176</ele>
        <time>2016-01-06T15:11:54Z</time>
      </trkpt>
      <trkpt lat="43.42718" lon="6.11877">
        <ele>255</ele>
        <time>2016-01-06T15:11:56Z</time>
      </trkpt>
      <trkpt lat="43.42718" lon="6.11877">
        <ele>255</ele>
        <time>2016-01-06T15:11:58Z</time>
      </trkpt>
      <trkpt lat="43.42718" lon="6.11877">
        <ele>255.19999694824</ele>
        <time>2016-01-06T15:12:00Z</time>
      </trkpt>
      <trkpt lat="43.42718" lon="6.11877">
        <ele>255.19999694824</ele>
        <time>2016-01-06T15:12:02Z</time>
      </trkpt>
      <trkpt lat="43.42718" lon="6.11877">
        <ele>255</ele>
        <time>2016-01-06T15:12:04Z</time>
      </trkpt>
      <trkpt lat="43.42718" lon="6.11877">
        <ele>255</ele>
        <time>2016-01-06T15:12:06Z</time>
      </trkpt>
      <trkpt lat="43.42718" lon="6.11877">
        <ele>255</ele>
        <time>2016-01-06T15:12:08Z</time>
      </trkpt>
      <trkpt lat="43.42718" lon="6.11877">
        <ele>255</ele>
        <time>2016-01-06T15:12:09Z</time>
      </trkpt>
      <trkpt lat="43.42718" lon="6.11877">
        <ele>255</ele>
        <time>2016-01-06T15:12:10Z</time>
      </trkpt>
      <trkpt lat="43.42718" lon="6.11877">
        <ele>254.80000305176</ele>
        <time>2016-01-06T15:12:12Z</time>
      </trkpt>
      <trkpt lat="43.42718" lon="6.11877">
        <ele>254.60000610352</ele>
        <time>2016-01-06T15:12:14Z</time>
      </trkpt>
      <trkpt lat="43.42718" lon="6.11877">
        <ele>254.39999389648</ele>
        <time>2016-01-06T15:12:16Z</time>
      </trkpt>
      <trkpt lat="43.42718" lon="6.11877">
        <ele>254.39999389648</ele>
        <time>2016-01-06T15:12:18Z</time>
      </trkpt>
      <trkpt lat="43.42718" lon="6.11877">
        <ele>254.39999389648</ele>
        <time>2016-01-06T15:12:20Z</time>
      </trkpt>
      <trkpt lat="43.42718" lon="6.11877">
        <ele>254.39999389648</ele>
        <time>2016-01-06T15:12:22Z</time>
      </trkpt>
      <trkpt lat="43.42718" lon="6.11877">
        <ele>254.19999694824</ele>
        <time>2016-01-06T15:12:24Z</time>
      </trkpt>
      <trkpt lat="43.42718" lon="6.11877">
        <ele>254.19999694824</ele>
        <time>2016-01-06T15:12:26Z</time>
      </trkpt>
      <trkpt lat="43.42718" lon="6.11877">
        <ele>254.19999694824</ele>
        <time>2016-01-06T15:12:28Z</time>
      </trkpt>
      <trkpt lat="43.42718" lon="6.11877">
        <ele>254.39999389648</ele>
        <time>2016-01-06T15:12:30Z</time>
      </trkpt>
      <trkpt lat="43.42718" lon="6.11877">
        <ele>254.39999389648</ele>
        <time>2016-01-06T15:12:32Z</time>
      </trkpt>
      <trkpt lat="43.42718" lon="6.11877">
        <ele>254.39999389648</ele>
        <time>2016-01-06T15:12:34Z</time>
      </trkpt>
      <trkpt lat="43.42718" lon="6.11877">
        <ele>254.60000610352</ele>
        <time>2016-01-06T15:12:36Z</time>
      </trkpt>
      <trkpt lat="43.42718" lon="6.11877">
        <ele>254.80000305176</ele>
        <time>2016-01-06T15:12:37Z</time>
      </trkpt>
      <trkpt lat="43.42718" lon="6.11877">
        <ele>255.19999694824</ele>
        <time>2016-01-06T15:12:38Z</time>
      </trkpt>
      <trkpt lat="43.42718" lon="6.11877">
        <ele>255.39999389648</ele>
        <time>2016-01-06T15:12:39Z</time>
      </trkpt>
      <trkpt lat="43.42718" lon="6.11877">
        <ele>255.39999389648</ele>
        <time>2016-01-06T15:12:40Z</time>
      </trkpt>
      <trkpt lat="43.42718" lon="6.11877">
        <ele>255.39999389648</ele>
        <time>2016-01-06T15:12:42Z</time>
      </trkpt>
      <trkpt lat="43.42718" lon="6.11877">
        <ele>255.19999694824</ele>
        <time>2016-01-06T15:12:44Z</time>
      </trkpt>
      <trkpt lat="43.42718" lon="6.11877">
        <ele>255.19999694824</ele>
        <time>2016-01-06T15:12:46Z</time>
      </trkpt>
      <trkpt lat="43.42718" lon="6.11877">
        <ele>255.19999694824</ele>
        <time>2016-01-06T15:12:48Z</time>
      </trkpt>
      <trkpt lat="43.42718" lon="6.11877">
        <ele>255.19999694824</ele>
        <time>2016-01-06T15:12:50Z</time>
      </trkpt>
      <trkpt lat="43.42718" lon="6.11877">
        <ele>255</ele>
        <time>2016-01-06T15:12:52Z</time>
      </trkpt>
      <trkpt lat="43.42718" lon="6.11877">
        <ele>255</ele>
        <time>2016-01-06T15:12:54Z</time>
      </trkpt>
      <trkpt lat="43.42718" lon="6.11877">
        <ele>255</ele>
        <time>2016-01-06T15:12:56Z</time>
      </trkpt>
      <trkpt lat="43.42718" lon="6.11877">
        <ele>254.80000305176</ele>
        <time>2016-01-06T15:12:58Z</time>
      </trkpt>
      <trkpt lat="43.42718" lon="6.11877">
        <ele>254.80000305176</ele>
        <time>2016-01-06T15:13:00Z</time>
      </trkpt>
      <trkpt lat="43.42718" lon="6.11877">
        <ele>255</ele>
        <time>2016-01-06T15:13:02Z</time>
      </trkpt>
      <trkpt lat="43.42718" lon="6.11877">
        <ele>255</ele>
        <time>2016-01-06T15:13:04Z</time>
      </trkpt>
      <trkpt lat="43.42718" lon="6.11877">
        <ele>254.80000305176</ele>
        <time>2016-01-06T15:13:06Z</time>
      </trkpt>
      <trkpt lat="43.42718" lon="6.11876">
        <ele>255</ele>
        <time>2016-01-06T15:13:08Z</time>
      </trkpt>
      <trkpt lat="43.42718" lon="6.11877">
        <ele>255</ele>
        <time>2016-01-06T15:13:10Z</time>
      </trkpt>
      <trkpt lat="43.42718" lon="6.11877">
        <ele>255</ele>
        <time>2016-01-06T15:13:12Z</time>
      </trkpt>
      <trkpt lat="43.42718" lon="6.11877">
        <ele>255</ele>
        <time>2016-01-06T15:13:14Z</time>
      </trkpt>
      <trkpt lat="43.42718" lon="6.11877">
        <ele>255</ele>
        <time>2016-01-06T15:13:16Z</time>
      </trkpt>
      <trkpt lat="43.42718" lon="6.11877">
        <ele>255</ele>
        <time>2016-01-06T15:13:18Z</time>
      </trkpt>
      <trkpt lat="43.42718" lon="6.11877">
        <ele>254.80000305176</ele>
        <time>2016-01-06T15:13:20Z</time>
      </trkpt>
      <trkpt lat="43.42718" lon="6.11877">
        <ele>254.80000305176</ele>
        <time>2016-01-06T15:13:22Z</time>
      </trkpt>
      <trkpt lat="43.42718" lon="6.11876">
        <ele>254.80000305176</ele>
        <time>2016-01-06T15:13:24Z</time>
      </trkpt>
      <trkpt lat="43.42718" lon="6.11876">
        <ele>254.80000305176</ele>
        <time>2016-01-06T15:13:26Z</time>
      </trkpt>
      <trkpt lat="43.42718" lon="6.11876">
        <ele>254.80000305176</ele>
        <time>2016-01-06T15:13:28Z</time>
      </trkpt>
      <trkpt lat="43.42718" lon="6.11876">
        <ele>254.80000305176</ele>
        <time>2016-01-06T15:13:30Z</time>
      </trkpt>
      <trkpt lat="43.42718" lon="6.11876">
        <ele>254.80000305176</ele>
        <time>2016-01-06T15:13:32Z</time>
      </trkpt>
      <trkpt lat="43.42718" lon="6.11876">
        <ele>254.60000610352</ele>
        <time>2016-01-06T15:13:34Z</time>
      </trkpt>
      <trkpt lat="43.42718" lon="6.11876">
        <ele>254.60000610352</ele>
        <time>2016-01-06T15:13:36Z</time>
      </trkpt>
      <trkpt lat="43.42718" lon="6.11876">
        <ele>254.80000305176</ele>
        <time>2016-01-06T15:13:38Z</time>
      </trkpt>
      <trkpt lat="43.42718" lon="6.11876">
        <ele>254.80000305176</ele>
        <time>2016-01-06T15:13:40Z</time>
      </trkpt>
      <trkpt lat="43.42718" lon="6.11876">
        <ele>254.80000305176</ele>
        <time>2016-01-06T15:13:42Z</time>
      </trkpt>
      <trkpt lat="43.42718" lon="6.11876">
        <ele>254.60000610352</ele>
        <time>2016-01-06T15:13:44Z</time>
      </trkpt>
      <trkpt lat="43.42718" lon="6.11876">
        <ele>254.60000610352</ele>
        <time>2016-01-06T15:13:46Z</time>
      </trkpt>
      <trkpt lat="43.42718" lon="6.11876">
        <ele>254.80000305176</ele>
        <time>2016-01-06T15:13:48Z</time>
      </trkpt>
      <trkpt lat="43.42718" lon="6.11876">
        <ele>255</ele>
        <time>2016-01-06T15:13:50Z</time>
      </trkpt>
      <trkpt lat="43.42718" lon="6.11876">
        <ele>255</ele>
        <time>2016-01-06T15:13:52Z</time>
      </trkpt>
      <trkpt lat="43.42718" lon="6.11876">
        <ele>254.80000305176</ele>
        <time>2016-01-06T15:13:54Z</time>
      </trkpt>
      <trkpt lat="43.42718" lon="6.11876">
        <ele>254.80000305176</ele>
        <time>2016-01-06T15:13:56Z</time>
      </trkpt>
      <trkpt lat="43.42718" lon="6.11876">
        <ele>254.80000305176</ele>
        <time>2016-01-06T15:13:58Z</time>
      </trkpt>
      <trkpt lat="43.42718" lon="6.11876">
        <ele>254.80000305176</ele>
        <time>2016-01-06T15:14:00Z</time>
      </trkpt>
      <trkpt lat="43.42718" lon="6.11876">
        <ele>255</ele>
        <time>2016-01-06T15:14:02Z</time>
      </trkpt>
      <trkpt lat="43.42718" lon="6.11876">
        <ele>255.19999694824</ele>
        <time>2016-01-06T15:14:04Z</time>
      </trkpt>
      <trkpt lat="43.42718" lon="6.11876">
        <ele>255</ele>
        <time>2016-01-06T15:14:06Z</time>
      </trkpt>
      <trkpt lat="43.42718" lon="6.11876">
        <ele>254.60000610352</ele>
        <time>2016-01-06T15:14:08Z</time>
      </trkpt>
      <trkpt lat="43.42718" lon="6.11876">
        <ele>254.80000305176</ele>
        <time>2016-01-06T15:14:10Z</time>
      </trkpt>
      <trkpt lat="43.42718" lon="6.11876">
        <ele>254.80000305176</ele>
        <time>2016-01-06T15:14:12Z</time>
      </trkpt>
      <trkpt lat="43.42718" lon="6.11876">
        <ele>254.60000610352</ele>
        <time>2016-01-06T15:14:14Z</time>
      </trkpt>
      <trkpt lat="43.42718" lon="6.11876">
        <ele>254.80000305176</ele>
        <time>2016-01-06T15:14:16Z</time>
      </trkpt>
      <trkpt lat="43.42718" lon="6.11877">
        <ele>255</ele>
        <time>2016-01-06T15:14:18Z</time>
      </trkpt>
      <trkpt lat="43.42718" lon="6.11877">
        <ele>254.80000305176</ele>
        <time>2016-01-06T15:14:20Z</time>
      </trkpt>
      <trkpt lat="43.42718" lon="6.11877">
        <ele>254.80000305176</ele>
        <time>2016-01-06T15:14:22Z</time>
      </trkpt>
      <trkpt lat="43.42718" lon="6.11877">
        <ele>254.80000305176</ele>
        <time>2016-01-06T15:14:23Z</time>
      </trkpt>
      <trkpt lat="43.42718" lon="6.11877">
        <ele>255</ele>
        <time>2016-01-06T15:14:26Z</time>
      </trkpt>
      <trkpt lat="43.42718" lon="6.11877">
        <ele>255</ele>
        <time>2016-01-06T15:14:28Z</time>
      </trkpt>
      <trkpt lat="43.42718" lon="6.11877">
        <ele>255</ele>
        <time>2016-01-06T15:14:30Z</time>
      </trkpt>
      <trkpt lat="43.42718" lon="6.11877">
        <ele>254.80000305176</ele>
        <time>2016-01-06T15:14:32Z</time>
      </trkpt>
      <trkpt lat="43.42718" lon="6.11877">
        <ele>254.80000305176</ele>
        <time>2016-01-06T15:14:34Z</time>
      </trkpt>
      <trkpt lat="43.42718" lon="6.11877">
        <ele>254.80000305176</ele>
        <time>2016-01-06T15:14:36Z</time>
      </trkpt>
      <trkpt lat="43.42718" lon="6.11877">
        <ele>254.60000610352</ele>
        <time>2016-01-06T15:14:37Z</time>
      </trkpt>
      <trkpt lat="43.42718" lon="6.11877">
        <ele>254.80000305176</ele>
        <time>2016-01-06T15:14:38Z</time>
      </trkpt>
      <trkpt lat="43.42718" lon="6.11877">
        <ele>254.60000610352</ele>
        <time>2016-01-06T15:14:40Z</time>
      </trkpt>
      <trkpt lat="43.42719" lon="6.11877">
        <ele>254.80000305176</ele>
        <time>2016-01-06T15:14:42Z</time>
      </trkpt>
      <trkpt lat="43.42722" lon="6.11873">
        <ele>254.80000305176</ele>
        <time>2016-01-06T15:14:44Z</time>
      </trkpt>
      <trkpt lat="43.42726" lon="6.11871">
        <ele>254.60000610352</ele>
        <time>2016-01-06T15:14:46Z</time>
      </trkpt>
      <trkpt lat="43.42732" lon="6.11869">
        <ele>254.39999389648</ele>
        <time>2016-01-06T15:14:48Z</time>
      </trkpt>
      <trkpt lat="43.42735" lon="6.11869">
        <ele>254.19999694824</ele>
        <time>2016-01-06T15:14:49Z</time>
      </trkpt>
      <trkpt lat="43.42738" lon="6.11869">
        <ele>254</ele>
        <time>2016-01-06T15:14:50Z</time>
      </trkpt>
      <trkpt lat="43.42743" lon="6.11865">
        <ele>253.60000610352</ele>
        <time>2016-01-06T15:14:52Z</time>
      </trkpt>
      <trkpt lat="43.42745" lon="6.11862">
        <ele>252.60000610352</ele>
        <time>2016-01-06T15:14:53Z</time>
      </trkpt>
      <trkpt lat="43.42748" lon="6.1186">
        <ele>251.80000305176</ele>
        <time>2016-01-06T15:14:54Z</time>
      </trkpt>
      <trkpt lat="43.42751" lon="6.1186">
        <ele>251.19999694824</ele>
        <time>2016-01-06T15:14:55Z</time>
      </trkpt>
      <trkpt lat="43.42755" lon="6.1186">
        <ele>250.60000610352</ele>
        <time>2016-01-06T15:14:56Z</time>
      </trkpt>
      <trkpt lat="43.42757" lon="6.11859">
        <ele>249.60000610352</ele>
        <time>2016-01-06T15:14:57Z</time>
      </trkpt>
      <trkpt lat="43.42759" lon="6.11857">
        <ele>249.19999694824</ele>
        <time>2016-01-06T15:14:58Z</time>
      </trkpt>
      <trkpt lat="43.42761" lon="6.11856">
        <ele>248.19999694824</ele>
        <time>2016-01-06T15:14:59Z</time>
      </trkpt>
      <trkpt lat="43.42764" lon="6.11854">
        <ele>247.19999694824</ele>
        <time>2016-01-06T15:15:00Z</time>
      </trkpt>
      <trkpt lat="43.42768" lon="6.11852">
        <ele>246.80000305176</ele>
        <time>2016-01-06T15:15:01Z</time>
      </trkpt>
      <trkpt lat="43.42773" lon="6.11851">
        <ele>246.39999389648</ele>
        <time>2016-01-06T15:15:02Z</time>
      </trkpt>
      <trkpt lat="43.42776" lon="6.11852">
        <ele>245.60000610352</ele>
        <time>2016-01-06T15:15:03Z</time>
      </trkpt>
      <trkpt lat="43.4278" lon="6.11855">
        <ele>245</ele>
        <time>2016-01-06T15:15:04Z</time>
      </trkpt>
      <trkpt lat="43.42783" lon="6.11857">
        <ele>244.60000610352</ele>
        <time>2016-01-06T15:15:05Z</time>
      </trkpt>
      <trkpt lat="43.42785" lon="6.11858">
        <ele>244.39999389648</ele>
        <time>2016-01-06T15:15:06Z</time>
      </trkpt>
      <trkpt lat="43.42791" lon="6.11858">
        <ele>244.60000610352</ele>
        <time>2016-01-06T15:15:08Z</time>
      </trkpt>
      <trkpt lat="43.42796" lon="6.11852">
        <ele>244.80000305176</ele>
        <time>2016-01-06T15:15:10Z</time>
      </trkpt>
      <trkpt lat="43.42798" lon="6.11848">
        <ele>244.39999389648</ele>
        <time>2016-01-06T15:15:11Z</time>
      </trkpt>
      <trkpt lat="43.428" lon="6.11844">
        <ele>244</ele>
        <time>2016-01-06T15:15:12Z</time>
      </trkpt>
      <trkpt lat="43.42801" lon="6.11839">
        <ele>243.80000305176</ele>
        <time>2016-01-06T15:15:13Z</time>
      </trkpt>
      <trkpt lat="43.42801" lon="6.11834">
        <ele>243.60000610352</ele>
        <time>2016-01-06T15:15:14Z</time>
      </trkpt>
      <trkpt lat="43.42802" lon="6.1183">
        <ele>243.19999694824</ele>
        <time>2016-01-06T15:15:15Z</time>
      </trkpt>
      <trkpt lat="43.42803" lon="6.11825">
        <ele>242.60000610352</ele>
        <time>2016-01-06T15:15:16Z</time>
      </trkpt>
      <trkpt lat="43.42803" lon="6.11821">
        <ele>241.60000610352</ele>
        <time>2016-01-06T15:15:17Z</time>
      </trkpt>
      <trkpt lat="43.42802" lon="6.11815">
        <ele>241.60000610352</ele>
        <time>2016-01-06T15:15:18Z</time>
      </trkpt>
      <trkpt lat="43.42801" lon="6.1181">
        <ele>241.60000610352</ele>
        <time>2016-01-06T15:15:19Z</time>
      </trkpt>
      <trkpt lat="43.42801" lon="6.11804">
        <ele>241.60000610352</ele>
        <time>2016-01-06T15:15:20Z</time>
      </trkpt>
      <trkpt lat="43.428" lon="6.11792">
        <ele>241.60000610352</ele>
        <time>2016-01-06T15:15:22Z</time>
      </trkpt>
      <trkpt lat="43.42798" lon="6.11781">
        <ele>241</ele>
        <time>2016-01-06T15:15:24Z</time>
      </trkpt>
      <trkpt lat="43.42799" lon="6.11769">
        <ele>241</ele>
        <time>2016-01-06T15:15:26Z</time>
      </trkpt>
      <trkpt lat="43.42805" lon="6.11759">
        <ele>241</ele>
        <time>2016-01-06T15:15:28Z</time>
      </trkpt>
      <trkpt lat="43.42807" lon="6.11755">
        <ele>240</ele>
        <time>2016-01-06T15:15:29Z</time>
      </trkpt>
      <trkpt lat="43.42809" lon="6.1175">
        <ele>239.39999389648</ele>
        <time>2016-01-06T15:15:30Z</time>
      </trkpt>
      <trkpt lat="43.42812" lon="6.11744">
        <ele>239.19999694824</ele>
        <time>2016-01-06T15:15:32Z</time>
      </trkpt>
      <trkpt lat="43.42814" lon="6.11738">
        <ele>239</ele>
        <time>2016-01-06T15:15:34Z</time>
      </trkpt>
      <trkpt lat="43.42814" lon="6.11736">
        <ele>239</ele>
        <time>2016-01-06T15:15:35Z</time>
      </trkpt>
      <trkpt lat="43.42814" lon="6.11732">
        <ele>239</ele>
        <time>2016-01-06T15:15:36Z</time>
      </trkpt>
      <trkpt lat="43.42813" lon="6.11729">
        <ele>239</ele>
        <time>2016-01-06T15:15:37Z</time>
      </trkpt>
      <trkpt lat="43.42814" lon="6.11726">
        <ele>239.19999694824</ele>
        <time>2016-01-06T15:15:38Z</time>
      </trkpt>
      <trkpt lat="43.42813" lon="6.1172">
        <ele>239.60000610352</ele>
        <time>2016-01-06T15:15:40Z</time>
      </trkpt>
      <trkpt lat="43.42812" lon="6.11715">
        <ele>240</ele>
        <time>2016-01-06T15:15:42Z</time>
      </trkpt>
      <trkpt lat="43.42812" lon="6.11712">
        <ele>240.19999694824</ele>
        <time>2016-01-06T15:15:43Z</time>
      </trkpt>
      <trkpt lat="43.42812" lon="6.1171">
        <ele>240.39999389648</ele>
        <time>2016-01-06T15:15:44Z</time>
      </trkpt>
      <trkpt lat="43.42811" lon="6.11704">
        <ele>240.60000610352</ele>
        <time>2016-01-06T15:15:46Z</time>
      </trkpt>
      <trkpt lat="43.42809" lon="6.11699">
        <ele>240.80000305176</ele>
        <time>2016-01-06T15:15:48Z</time>
      </trkpt>
      <trkpt lat="43.42808" lon="6.11697">
        <ele>241.19999694824</ele>
        <time>2016-01-06T15:15:49Z</time>
      </trkpt>
      <trkpt lat="43.42807" lon="6.11695">
        <ele>241.60000610352</ele>
        <time>2016-01-06T15:15:50Z</time>
      </trkpt>
      <trkpt lat="43.42804" lon="6.11691">
        <ele>242.19999694824</ele>
        <time>2016-01-06T15:15:52Z</time>
      </trkpt>
      <trkpt lat="43.42802" lon="6.1169">
        <ele>242.39999389648</ele>
        <time>2016-01-06T15:15:53Z</time>
      </trkpt>
      <trkpt lat="43.428" lon="6.11689">
        <ele>242.60000610352</ele>
        <time>2016-01-06T15:15:54Z</time>
      </trkpt>
      <trkpt lat="43.42797" lon="6.1169">
        <ele>243</ele>
        <time>2016-01-06T15:15:56Z</time>
      </trkpt>
      <trkpt lat="43.42795" lon="6.11693">
        <ele>243.39999389648</ele>
        <time>2016-01-06T15:15:58Z</time>
      </trkpt>
      <trkpt lat="43.42793" lon="6.11694">
        <ele>243.39999389648</ele>
        <time>2016-01-06T15:15:59Z</time>
      </trkpt>
      <trkpt lat="43.42792" lon="6.11696">
        <ele>243.80000305176</ele>
        <time>2016-01-06T15:16:00Z</time>
      </trkpt>
      <trkpt lat="43.42789" lon="6.11699">
        <ele>244.19999694824</ele>
        <time>2016-01-06T15:16:02Z</time>
      </trkpt>
      <trkpt lat="43.42788" lon="6.11701">
        <ele>244.80000305176</ele>
        <time>2016-01-06T15:16:03Z</time>
      </trkpt>
      <trkpt lat="43.42787" lon="6.11702">
        <ele>245</ele>
        <time>2016-01-06T15:16:04Z</time>
      </trkpt>
      <trkpt lat="43.42785" lon="6.11702">
        <ele>245.60000610352</ele>
        <time>2016-01-06T15:16:06Z</time>
      </trkpt>
      <trkpt lat="43.42783" lon="6.11703">
        <ele>245.80000305176</ele>
        <time>2016-01-06T15:16:08Z</time>
      </trkpt>
      <trkpt lat="43.42783" lon="6.11703">
        <ele>246</ele>
        <time>2016-01-06T15:16:10Z</time>
      </trkpt>
      <trkpt lat="43.42781" lon="6.11704">
        <ele>246.19999694824</ele>
        <time>2016-01-06T15:16:12Z</time>
      </trkpt>
      <trkpt lat="43.42781" lon="6.11705">
        <ele>246.39999389648</ele>
        <time>2016-01-06T15:16:14Z</time>
      </trkpt>
      <trkpt lat="43.42779" lon="6.11706">
        <ele>246.60000610352</ele>
        <time>2016-01-06T15:16:16Z</time>
      </trkpt>
      <trkpt lat="43.42778" lon="6.11708">
        <ele>246.60000610352</ele>
        <time>2016-01-06T15:16:18Z</time>
      </trkpt>
      <trkpt lat="43.42776" lon="6.11709">
        <ele>247</ele>
        <time>2016-01-06T15:16:20Z</time>
      </trkpt>
      <trkpt lat="43.42775" lon="6.1171">
        <ele>247</ele>
        <time>2016-01-06T15:16:22Z</time>
      </trkpt>
      <trkpt lat="43.42773" lon="6.11711">
        <ele>247.19999694824</ele>
        <time>2016-01-06T15:16:24Z</time>
      </trkpt>
      <trkpt lat="43.42772" lon="6.11713">
        <ele>247.39999389648</ele>
        <time>2016-01-06T15:16:26Z</time>
      </trkpt>
      <trkpt lat="43.4277" lon="6.11714">
        <ele>247.60000610352</ele>
        <time>2016-01-06T15:16:28Z</time>
      </trkpt>
      <trkpt lat="43.42768" lon="6.11715">
        <ele>248</ele>
        <time>2016-01-06T15:16:30Z</time>
      </trkpt>
      <trkpt lat="43.42766" lon="6.11713">
        <ele>248</ele>
        <time>2016-01-06T15:16:32Z</time>
      </trkpt>
      <trkpt lat="43.42764" lon="6.11713">
        <ele>248.19999694824</ele>
        <time>2016-01-06T15:16:34Z</time>
      </trkpt>
      <trkpt lat="43.42763" lon="6.11711">
        <ele>248</ele>
        <time>2016-01-06T15:16:36Z</time>
      </trkpt>
      <trkpt lat="43.42763" lon="6.1171">
        <ele>248</ele>
        <time>2016-01-06T15:16:37Z</time>
      </trkpt>
      <trkpt lat="43.42763" lon="6.11708">
        <ele>248.19999694824</ele>
        <time>2016-01-06T15:16:38Z</time>
      </trkpt>
      <trkpt lat="43.42762" lon="6.11707">
        <ele>248.19999694824</ele>
        <time>2016-01-06T15:16:40Z</time>
      </trkpt>
      <trkpt lat="43.4276" lon="6.11706">
        <ele>248.19999694824</ele>
        <time>2016-01-06T15:16:42Z</time>
      </trkpt>
      <trkpt lat="43.42759" lon="6.11706">
        <ele>248.19999694824</ele>
        <time>2016-01-06T15:16:43Z</time>
      </trkpt>
      <trkpt lat="43.42759" lon="6.11706">
        <ele>248.39999389648</ele>
        <time>2016-01-06T15:16:44Z</time>
      </trkpt>
      <trkpt lat="43.42756" lon="6.11706">
        <ele>248.60000610352</ele>
        <time>2016-01-06T15:16:46Z</time>
      </trkpt>
      <trkpt lat="43.42755" lon="6.11707">
        <ele>248.80000305176</ele>
        <time>2016-01-06T15:16:47Z</time>
      </trkpt>
      <trkpt lat="43.42754" lon="6.11706">
        <ele>249</ele>
        <time>2016-01-06T15:16:48Z</time>
      </trkpt>
      <trkpt lat="43.42754" lon="6.11706">
        <ele>249.19999694824</ele>
        <time>2016-01-06T15:16:49Z</time>
      </trkpt>
      <trkpt lat="43.42753" lon="6.11706">
        <ele>249.19999694824</ele>
        <time>2016-01-06T15:16:50Z</time>
      </trkpt>
      <trkpt lat="43.42752" lon="6.11706">
        <ele>249.39999389648</ele>
        <time>2016-01-06T15:16:52Z</time>
      </trkpt>
      <trkpt lat="43.42752" lon="6.11706">
        <ele>249.39999389648</ele>
        <time>2016-01-06T15:16:54Z</time>
      </trkpt>
      <trkpt lat="43.42752" lon="6.11706">
        <ele>249.39999389648</ele>
        <time>2016-01-06T15:16:56Z</time>
      </trkpt>
      <trkpt lat="43.42752" lon="6.11706">
        <ele>249.39999389648</ele>
        <time>2016-01-06T15:16:57Z</time>
      </trkpt>
      <trkpt lat="43.42752" lon="6.11705">
        <ele>249.39999389648</ele>
        <time>2016-01-06T15:16:58Z</time>
      </trkpt>
      <trkpt lat="43.42752" lon="6.11705">
        <ele>249.39999389648</ele>
        <time>2016-01-06T15:17:00Z</time>
      </trkpt>
      <trkpt lat="43.42752" lon="6.11704">
        <ele>249.60000610352</ele>
        <time>2016-01-06T15:17:02Z</time>
      </trkpt>
      <trkpt lat="43.42752" lon="6.11704">
        <ele>249.39999389648</ele>
        <time>2016-01-06T15:17:04Z</time>
      </trkpt>
      <trkpt lat="43.42751" lon="6.11704">
        <ele>249.39999389648</ele>
        <time>2016-01-06T15:17:06Z</time>
      </trkpt>
      <trkpt lat="43.42751" lon="6.11704">
        <ele>249.60000610352</ele>
        <time>2016-01-06T15:17:08Z</time>
      </trkpt>
      <trkpt lat="43.42751" lon="6.11704">
        <ele>249.39999389648</ele>
        <time>2016-01-06T15:17:10Z</time>
      </trkpt>
      <trkpt lat="43.42751" lon="6.11704">
        <ele>249.39999389648</ele>
        <time>2016-01-06T15:17:12Z</time>
      </trkpt>
      <trkpt lat="43.42751" lon="6.11704">
        <ele>249.39999389648</ele>
        <time>2016-01-06T15:17:14Z</time>
      </trkpt>
      <trkpt lat="43.42751" lon="6.11704">
        <ele>249.39999389648</ele>
        <time>2016-01-06T15:17:16Z</time>
      </trkpt>
      <trkpt lat="43.42751" lon="6.11704">
        <ele>249.39999389648</ele>
        <time>2016-01-06T15:17:17Z</time>
      </trkpt>
      <trkpt lat="43.42751" lon="6.11704">
        <ele>249.39999389648</ele>
        <time>2016-01-06T15:17:18Z</time>
      </trkpt>
      <trkpt lat="43.42751" lon="6.11704">
        <ele>249.39999389648</ele>
        <time>2016-01-06T15:17:20Z</time>
      </trkpt>
      <trkpt lat="43.42751" lon="6.11704">
        <ele>249.60000610352</ele>
        <time>2016-01-06T15:17:22Z</time>
      </trkpt>
      <trkpt lat="43.42751" lon="6.11704">
        <ele>249.60000610352</ele>
        <time>2016-01-06T15:17:24Z</time>
      </trkpt>
      <trkpt lat="43.42751" lon="6.11704">
        <ele>249.60000610352</ele>
        <time>2016-01-06T15:17:26Z</time>
      </trkpt>
      <trkpt lat="43.42751" lon="6.11704">
        <ele>249.60000610352</ele>
        <time>2016-01-06T15:17:27Z</time>
      </trkpt>
      <trkpt lat="43.42751" lon="6.11704">
        <ele>249.60000610352</ele>
        <time>2016-01-06T15:17:28Z</time>
      </trkpt>
      <trkpt lat="43.42751" lon="6.11704">
        <ele>249.80000305176</ele>
        <time>2016-01-06T15:17:30Z</time>
      </trkpt>
      <trkpt lat="43.42751" lon="6.11704">
        <ele>249.80000305176</ele>
        <time>2016-01-06T15:17:32Z</time>
      </trkpt>
      <trkpt lat="43.42751" lon="6.11704">
        <ele>249.80000305176</ele>
        <time>2016-01-06T15:17:33Z</time>
      </trkpt>
      <trkpt lat="43.42751" lon="6.11704">
        <ele>249.80000305176</ele>
        <time>2016-01-06T15:17:34Z</time>
      </trkpt>
      <trkpt lat="43.42751" lon="6.11704">
        <ele>249.60000610352</ele>
        <time>2016-01-06T15:17:36Z</time>
      </trkpt>
      <trkpt lat="43.4275" lon="6.11703">
        <ele>249.60000610352</ele>
        <time>2016-01-06T15:17:38Z</time>
      </trkpt>
      <trkpt lat="43.42746" lon="6.11702">
        <ele>249.80000305176</ele>
        <time>2016-01-06T15:17:40Z</time>
      </trkpt>
      <trkpt lat="43.42745" lon="6.11701">
        <ele>250.19999694824</ele>
        <time>2016-01-06T15:17:41Z</time>
      </trkpt>
      <trkpt lat="43.42744" lon="6.11701">
        <ele>250.60000610352</ele>
        <time>2016-01-06T15:17:42Z</time>
      </trkpt>
      <trkpt lat="43.42743" lon="6.11699">
        <ele>251.19999694824</ele>
        <time>2016-01-06T15:17:43Z</time>
      </trkpt>
      <trkpt lat="43.42742" lon="6.11698">
        <ele>251.60000610352</ele>
        <time>2016-01-06T15:17:44Z</time>
      </trkpt>
      <trkpt lat="43.42741" lon="6.11697">
        <ele>251.80000305176</ele>
        <time>2016-01-06T15:17:45Z</time>
      </trkpt>
      <trkpt lat="43.4274" lon="6.11695">
        <ele>251.80000305176</ele>
        <time>2016-01-06T15:17:46Z</time>
      </trkpt>
      <trkpt lat="43.4274" lon="6.11696">
        <ele>252</ele>
        <time>2016-01-06T15:17:47Z</time>
      </trkpt>
      <trkpt lat="43.42739" lon="6.11696">
        <ele>252.19999694824</ele>
        <time>2016-01-06T15:17:48Z</time>
      </trkpt>
      <trkpt lat="43.42739" lon="6.11696">
        <ele>252.39999389648</ele>
        <time>2016-01-06T15:17:50Z</time>
      </trkpt>
      <trkpt lat="43.42739" lon="6.11696">
        <ele>252.39999389648</ele>
        <time>2016-01-06T15:17:52Z</time>
      </trkpt>
      <trkpt lat="43.42738" lon="6.11695">
        <ele>252.60000610352</ele>
        <time>2016-01-06T15:17:53Z</time>
      </trkpt>
      <trkpt lat="43.42738" lon="6.11694">
        <ele>253</ele>
        <time>2016-01-06T15:17:54Z</time>
      </trkpt>
      <trkpt lat="43.42738" lon="6.11694">
        <ele>253</ele>
        <time>2016-01-06T15:17:55Z</time>
      </trkpt>
      <trkpt lat="43.42738" lon="6.11694">
        <ele>253</ele>
        <time>2016-01-06T15:17:56Z</time>
      </trkpt>
      <trkpt lat="43.42737" lon="6.11694">
        <ele>253.39999389648</ele>
        <time>2016-01-06T15:17:58Z</time>
      </trkpt>
      <trkpt lat="43.42735" lon="6.11693">
        <ele>253.39999389648</ele>
        <time>2016-01-06T15:18:00Z</time>
      </trkpt>
      <trkpt lat="43.42734" lon="6.11692">
        <ele>253.60000610352</ele>
        <time>2016-01-06T15:18:02Z</time>
      </trkpt>
      <trkpt lat="43.42733" lon="6.11691">
        <ele>253.80000305176</ele>
        <time>2016-01-06T15:18:03Z</time>
      </trkpt>
      <trkpt lat="43.42733" lon="6.11691">
        <ele>253.80000305176</ele>
        <time>2016-01-06T15:18:04Z</time>
      </trkpt>
      <trkpt lat="43.42732" lon="6.1169">
        <ele>254.19999694824</ele>
        <time>2016-01-06T15:18:06Z</time>
      </trkpt>
      <trkpt lat="43.42731" lon="6.1169">
        <ele>254.39999389648</ele>
        <time>2016-01-06T15:18:08Z</time>
      </trkpt>
      <trkpt lat="43.4273" lon="6.11689">
        <ele>254.39999389648</ele>
        <time>2016-01-06T15:18:10Z</time>
      </trkpt>
      <trkpt lat="43.42729" lon="6.11688">
        <ele>254.60000610352</ele>
        <time>2016-01-06T15:18:12Z</time>
      </trkpt>
      <trkpt lat="43.42728" lon="6.11686">
        <ele>254.80000305176</ele>
        <time>2016-01-06T15:18:14Z</time>
      </trkpt>
      <trkpt lat="43.42727" lon="6.11685">
        <ele>255.39999389648</ele>
        <time>2016-01-06T15:18:16Z</time>
      </trkpt>
      <trkpt lat="43.42726" lon="6.11684">
        <ele>255.60000610352</ele>
        <time>2016-01-06T15:18:18Z</time>
      </trkpt>
      <trkpt lat="43.42725" lon="6.11683">
        <ele>256.20001220703</ele>
        <time>2016-01-06T15:18:20Z</time>
      </trkpt>
      <trkpt lat="43.42725" lon="6.11682">
        <ele>256.20001220703</ele>
        <time>2016-01-06T15:18:22Z</time>
      </trkpt>
      <trkpt lat="43.42724" lon="6.11681">
        <ele>256.60000610352</ele>
        <time>2016-01-06T15:18:24Z</time>
      </trkpt>
      <trkpt lat="43.42723" lon="6.1168">
        <ele>256.79998779297</ele>
        <time>2016-01-06T15:18:26Z</time>
      </trkpt>
      <trkpt lat="43.42722" lon="6.11679">
        <ele>256.79998779297</ele>
        <time>2016-01-06T15:18:27Z</time>
      </trkpt>
      <trkpt lat="43.42721" lon="6.11678">
        <ele>257</ele>
        <time>2016-01-06T15:18:28Z</time>
      </trkpt>
      <trkpt lat="43.4272" lon="6.11677">
        <ele>257.20001220703</ele>
        <time>2016-01-06T15:18:30Z</time>
      </trkpt>
      <trkpt lat="43.4272" lon="6.11676">
        <ele>257.39999389648</ele>
        <time>2016-01-06T15:18:32Z</time>
      </trkpt>
      <trkpt lat="43.42719" lon="6.11676">
        <ele>257.60000610352</ele>
        <time>2016-01-06T15:18:34Z</time>
      </trkpt>
      <trkpt lat="43.42719" lon="6.11676">
        <ele>257.60000610352</ele>
        <time>2016-01-06T15:18:36Z</time>
      </trkpt>
      <trkpt lat="43.42719" lon="6.11675">
        <ele>257.60000610352</ele>
        <time>2016-01-06T15:18:38Z</time>
      </trkpt>
      <trkpt lat="43.42719" lon="6.11674">
        <ele>258.20001220703</ele>
        <time>2016-01-06T15:18:40Z</time>
      </trkpt>
      <trkpt lat="43.42718" lon="6.11673">
        <ele>258.60000610352</ele>
        <time>2016-01-06T15:18:42Z</time>
      </trkpt>
      <trkpt lat="43.42717" lon="6.11671">
        <ele>258.79998779297</ele>
        <time>2016-01-06T15:18:44Z</time>
      </trkpt>
      <trkpt lat="43.42717" lon="6.1167">
        <ele>259.20001220703</ele>
        <time>2016-01-06T15:18:46Z</time>
      </trkpt>
      <trkpt lat="43.42716" lon="6.11668">
        <ele>259.39999389648</ele>
        <time>2016-01-06T15:18:48Z</time>
      </trkpt>
      <trkpt lat="43.42716" lon="6.11667">
        <ele>259.39999389648</ele>
        <time>2016-01-06T15:18:50Z</time>
      </trkpt>
      <trkpt lat="43.42717" lon="6.11665">
        <ele>259.79998779297</ele>
        <time>2016-01-06T15:18:52Z</time>
      </trkpt>
      <trkpt lat="43.42717" lon="6.11664">
        <ele>259.79998779297</ele>
        <time>2016-01-06T15:18:54Z</time>
      </trkpt>
      <trkpt lat="43.42716" lon="6.11664">
        <ele>259.79998779297</ele>
        <time>2016-01-06T15:18:56Z</time>
      </trkpt>
      <trkpt lat="43.42717" lon="6.11663">
        <ele>259.79998779297</ele>
        <time>2016-01-06T15:18:58Z</time>
      </trkpt>
      <trkpt lat="43.42717" lon="6.11662">
        <ele>259.79998779297</ele>
        <time>2016-01-06T15:18:59Z</time>
      </trkpt>
      <trkpt lat="43.42717" lon="6.11661">
        <ele>259.79998779297</ele>
        <time>2016-01-06T15:19:00Z</time>
      </trkpt>
      <trkpt lat="43.42719" lon="6.11657">
        <ele>259.60000610352</ele>
        <time>2016-01-06T15:19:02Z</time>
      </trkpt>
      <trkpt lat="43.4272" lon="6.11654">
        <ele>260</ele>
        <time>2016-01-06T15:19:04Z</time>
      </trkpt>
      <trkpt lat="43.42722" lon="6.11651">
        <ele>259.79998779297</ele>
        <time>2016-01-06T15:19:06Z</time>
      </trkpt>
      <trkpt lat="43.42723" lon="6.11648">
        <ele>260</ele>
        <time>2016-01-06T15:19:08Z</time>
      </trkpt>
      <trkpt lat="43.42725" lon="6.11646">
        <ele>260</ele>
        <time>2016-01-06T15:19:10Z</time>
      </trkpt>
      <trkpt lat="43.42726" lon="6.11642">
        <ele>260</ele>
        <time>2016-01-06T15:19:12Z</time>
      </trkpt>
      <trkpt lat="43.42728" lon="6.11641">
        <ele>259.60000610352</ele>
        <time>2016-01-06T15:19:14Z</time>
      </trkpt>
      <trkpt lat="43.42732" lon="6.1164">
        <ele>259.79998779297</ele>
        <time>2016-01-06T15:19:16Z</time>
      </trkpt>
      <trkpt lat="43.42733" lon="6.11639">
        <ele>259.79998779297</ele>
        <time>2016-01-06T15:19:17Z</time>
      </trkpt>
      <trkpt lat="43.42735" lon="6.11638">
        <ele>259.79998779297</ele>
        <time>2016-01-06T15:19:18Z</time>
      </trkpt>
      <trkpt lat="43.42738" lon="6.11636">
        <ele>259.60000610352</ele>
        <time>2016-01-06T15:19:20Z</time>
      </trkpt>
      <trkpt lat="43.42741" lon="6.11635">
        <ele>259.79998779297</ele>
        <time>2016-01-06T15:19:22Z</time>
      </trkpt>
      <trkpt lat="43.42743" lon="6.11633">
        <ele>259.79998779297</ele>
        <time>2016-01-06T15:19:24Z</time>
      </trkpt>
      <trkpt lat="43.42744" lon="6.11632">
        <ele>259.79998779297</ele>
        <time>2016-01-06T15:19:25Z</time>
      </trkpt>
      <trkpt lat="43.42746" lon="6.11631">
        <ele>260</ele>
        <time>2016-01-06T15:19:26Z</time>
      </trkpt>
      <trkpt lat="43.42748" lon="6.11629">
        <ele>260.20001220703</ele>
        <time>2016-01-06T15:19:28Z</time>
      </trkpt>
      <trkpt lat="43.42751" lon="6.11627">
        <ele>260.60000610352</ele>
        <time>2016-01-06T15:19:30Z</time>
      </trkpt>
      <trkpt lat="43.42752" lon="6.11624">
        <ele>261</ele>
        <time>2016-01-06T15:19:32Z</time>
      </trkpt>
      <trkpt lat="43.42753" lon="6.11621">
        <ele>261.20001220703</ele>
        <time>2016-01-06T15:19:34Z</time>
      </trkpt>
      <trkpt lat="43.42755" lon="6.11619">
        <ele>261.39999389648</ele>
        <time>2016-01-06T15:19:36Z</time>
      </trkpt>
      <trkpt lat="43.42756" lon="6.11616">
        <ele>261.79998779297</ele>
        <time>2016-01-06T15:19:38Z</time>
      </trkpt>
      <trkpt lat="43.42756" lon="6.11612">
        <ele>262.39999389648</ele>
        <time>2016-01-06T15:19:40Z</time>
      </trkpt>
      <trkpt lat="43.42757" lon="6.1161">
        <ele>262.60000610352</ele>
        <time>2016-01-06T15:19:41Z</time>
      </trkpt>
      <trkpt lat="43.42757" lon="6.11609">
        <ele>262.79998779297</ele>
        <time>2016-01-06T15:19:42Z</time>
      </trkpt>
      <trkpt lat="43.42757" lon="6.11609">
        <ele>262.79998779297</ele>
        <time>2016-01-06T15:19:44Z</time>
      </trkpt>
      <trkpt lat="43.42757" lon="6.11607">
        <ele>263</ele>
        <time>2016-01-06T15:19:46Z</time>
      </trkpt>
      <trkpt lat="43.42758" lon="6.11605">
        <ele>263</ele>
        <time>2016-01-06T15:19:48Z</time>
      </trkpt>
      <trkpt lat="43.42758" lon="6.11601">
        <ele>262.79998779297</ele>
        <time>2016-01-06T15:19:50Z</time>
      </trkpt>
      <trkpt lat="43.42758" lon="6.11598">
        <ele>263</ele>
        <time>2016-01-06T15:19:51Z</time>
      </trkpt>
      <trkpt lat="43.42758" lon="6.11596">
        <ele>263</ele>
        <time>2016-01-06T15:19:52Z</time>
      </trkpt>
      <trkpt lat="43.42757" lon="6.11591">
        <ele>263.20001220703</ele>
        <time>2016-01-06T15:19:54Z</time>
      </trkpt>
      <trkpt lat="43.42757" lon="6.11587">
        <ele>263</ele>
        <time>2016-01-06T15:19:56Z</time>
      </trkpt>
      <trkpt lat="43.42757" lon="6.11584">
        <ele>263.20001220703</ele>
        <time>2016-01-06T15:19:57Z</time>
      </trkpt>
      <trkpt lat="43.42756" lon="6.11582">
        <ele>263.20001220703</ele>
        <time>2016-01-06T15:19:58Z</time>
      </trkpt>
      <trkpt lat="43.42756" lon="6.11576">
        <ele>263</ele>
        <time>2016-01-06T15:20:00Z</time>
      </trkpt>
      <trkpt lat="43.42755" lon="6.11569">
        <ele>262.79998779297</ele>
        <time>2016-01-06T15:20:02Z</time>
      </trkpt>
      <trkpt lat="43.42754" lon="6.11564">
        <ele>262.79998779297</ele>
        <time>2016-01-06T15:20:03Z</time>
      </trkpt>
      <trkpt lat="43.42754" lon="6.1156">
        <ele>262.20001220703</ele>
        <time>2016-01-06T15:20:04Z</time>
      </trkpt>
      <trkpt lat="43.42753" lon="6.11549">
        <ele>262</ele>
        <time>2016-01-06T15:20:06Z</time>
      </trkpt>
      <trkpt lat="43.42751" lon="6.11539">
        <ele>261.60000610352</ele>
        <time>2016-01-06T15:20:08Z</time>
      </trkpt>
      <trkpt lat="43.42749" lon="6.11529">
        <ele>261</ele>
        <time>2016-01-06T15:20:10Z</time>
      </trkpt>
      <trkpt lat="43.42749" lon="6.11521">
        <ele>260.39999389648</ele>
        <time>2016-01-06T15:20:12Z</time>
      </trkpt>
      <trkpt lat="43.42747" lon="6.11515">
        <ele>260.60000610352</ele>
        <time>2016-01-06T15:20:14Z</time>
      </trkpt>
      <trkpt lat="43.42746" lon="6.11513">
        <ele>260.79998779297</ele>
        <time>2016-01-06T15:20:15Z</time>
      </trkpt>
      <trkpt lat="43.42746" lon="6.11511">
        <ele>261</ele>
        <time>2016-01-06T15:20:16Z</time>
      </trkpt>
      <trkpt lat="43.42744" lon="6.11507">
        <ele>261.39999389648</ele>
        <time>2016-01-06T15:20:18Z</time>
      </trkpt>
      <trkpt lat="43.42743" lon="6.11504">
        <ele>261.39999389648</ele>
        <time>2016-01-06T15:20:19Z</time>
      </trkpt>
      <trkpt lat="43.42743" lon="6.11503">
        <ele>261.79998779297</ele>
        <time>2016-01-06T15:20:20Z</time>
      </trkpt>
      <trkpt lat="43.42742" lon="6.115">
        <ele>261.60000610352</ele>
        <time>2016-01-06T15:20:21Z</time>
      </trkpt>
      <trkpt lat="43.42741" lon="6.11498">
        <ele>261.39999389648</ele>
        <time>2016-01-06T15:20:22Z</time>
      </trkpt>
      <trkpt lat="43.42741" lon="6.11493">
        <ele>261.79998779297</ele>
        <time>2016-01-06T15:20:24Z</time>
      </trkpt>
      <trkpt lat="43.42742" lon="6.11489">
        <ele>262.39999389648</ele>
        <time>2016-01-06T15:20:26Z</time>
      </trkpt>
      <trkpt lat="43.42743" lon="6.11485">
        <ele>263</ele>
        <time>2016-01-06T15:20:28Z</time>
      </trkpt>
      <trkpt lat="43.42743" lon="6.11484">
        <ele>263.60000610352</ele>
        <time>2016-01-06T15:20:29Z</time>
      </trkpt>
      <trkpt lat="43.42744" lon="6.11482">
        <ele>263.79998779297</ele>
        <time>2016-01-06T15:20:30Z</time>
      </trkpt>
      <trkpt lat="43.42746" lon="6.11478">
        <ele>264.20001220703</ele>
        <time>2016-01-06T15:20:32Z</time>
      </trkpt>
      <trkpt lat="43.42746" lon="6.11476">
        <ele>264.39999389648</ele>
        <time>2016-01-06T15:20:33Z</time>
      </trkpt>
      <trkpt lat="43.42747" lon="6.11475">
        <ele>264.60000610352</ele>
        <time>2016-01-06T15:20:34Z</time>
      </trkpt>
      <trkpt lat="43.42748" lon="6.11471">
        <ele>265.20001220703</ele>
        <time>2016-01-06T15:20:36Z</time>
      </trkpt>
      <trkpt lat="43.42749" lon="6.11466">
        <ele>265.60000610352</ele>
        <time>2016-01-06T15:20:38Z</time>
      </trkpt>
      <trkpt lat="43.4275" lon="6.11461">
        <ele>266</ele>
        <time>2016-01-06T15:20:40Z</time>
      </trkpt>
      <trkpt lat="43.42751" lon="6.11457">
        <ele>266.60000610352</ele>
        <time>2016-01-06T15:20:42Z</time>
      </trkpt>
      <trkpt lat="43.42752" lon="6.11453">
        <ele>267.20001220703</ele>
        <time>2016-01-06T15:20:44Z</time>
      </trkpt>
      <trkpt lat="43.42753" lon="6.11449">
        <ele>267.39999389648</ele>
        <time>2016-01-06T15:20:46Z</time>
      </trkpt>
      <trkpt lat="43.42754" lon="6.11445">
        <ele>267.60000610352</ele>
        <time>2016-01-06T15:20:48Z</time>
      </trkpt>
      <trkpt lat="43.42755" lon="6.11441">
        <ele>268</ele>
        <time>2016-01-06T15:20:50Z</time>
      </trkpt>
      <trkpt lat="43.42756" lon="6.11437">
        <ele>268.20001220703</ele>
        <time>2016-01-06T15:20:52Z</time>
      </trkpt>
      <trkpt lat="43.42756" lon="6.11434">
        <ele>268.60000610352</ele>
        <time>2016-01-06T15:20:54Z</time>
      </trkpt>
      <trkpt lat="43.42757" lon="6.11432">
        <ele>269</ele>
        <time>2016-01-06T15:20:55Z</time>
      </trkpt>
      <trkpt lat="43.42757" lon="6.1143">
        <ele>269</ele>
        <time>2016-01-06T15:20:56Z</time>
      </trkpt>
      <trkpt lat="43.42759" lon="6.11427">
        <ele>269.39999389648</ele>
        <time>2016-01-06T15:20:58Z</time>
      </trkpt>
      <trkpt lat="43.42761" lon="6.11424">
        <ele>270</ele>
        <time>2016-01-06T15:21:00Z</time>
      </trkpt>
      <trkpt lat="43.42763" lon="6.11421">
        <ele>270</ele>
        <time>2016-01-06T15:21:02Z</time>
      </trkpt>
      <trkpt lat="43.42764" lon="6.1142">
        <ele>270</ele>
        <time>2016-01-06T15:21:03Z</time>
      </trkpt>
      <trkpt lat="43.42765" lon="6.11418">
        <ele>270</ele>
        <time>2016-01-06T15:21:04Z</time>
      </trkpt>
      <trkpt lat="43.42767" lon="6.11415">
        <ele>270</ele>
        <time>2016-01-06T15:21:06Z</time>
      </trkpt>
      <trkpt lat="43.42767" lon="6.11413">
        <ele>270</ele>
        <time>2016-01-06T15:21:07Z</time>
      </trkpt>
      <trkpt lat="43.42768" lon="6.11412">
        <ele>270</ele>
        <time>2016-01-06T15:21:08Z</time>
      </trkpt>
      <trkpt lat="43.42768" lon="6.11409">
        <ele>270.39999389648</ele>
        <time>2016-01-06T15:21:10Z</time>
      </trkpt>
      <trkpt lat="43.4277" lon="6.11406">
        <ele>270.60000610352</ele>
        <time>2016-01-06T15:21:12Z</time>
      </trkpt>
      <trkpt lat="43.42772" lon="6.11402">
        <ele>270.79998779297</ele>
        <time>2016-01-06T15:21:14Z</time>
      </trkpt>
      <trkpt lat="43.42774" lon="6.11399">
        <ele>270.79998779297</ele>
        <time>2016-01-06T15:21:16Z</time>
      </trkpt>
      <trkpt lat="43.42776" lon="6.11397">
        <ele>270.79998779297</ele>
        <time>2016-01-06T15:21:18Z</time>
      </trkpt>
      <trkpt lat="43.42779" lon="6.11394">
        <ele>270.79998779297</ele>
        <time>2016-01-06T15:21:20Z</time>
      </trkpt>
      <trkpt lat="43.42781" lon="6.11392">
        <ele>270.60000610352</ele>
        <time>2016-01-06T15:21:22Z</time>
      </trkpt>
      <trkpt lat="43.42784" lon="6.1139">
        <ele>270.79998779297</ele>
        <time>2016-01-06T15:21:24Z</time>
      </trkpt>
      <trkpt lat="43.42786" lon="6.11387">
        <ele>270.79998779297</ele>
        <time>2016-01-06T15:21:26Z</time>
      </trkpt>
      <trkpt lat="43.42789" lon="6.11386">
        <ele>271</ele>
        <time>2016-01-06T15:21:28Z</time>
      </trkpt>
      <trkpt lat="43.42791" lon="6.11384">
        <ele>271.20001220703</ele>
        <time>2016-01-06T15:21:30Z</time>
      </trkpt>
      <trkpt lat="43.42792" lon="6.11383">
        <ele>271.20001220703</ele>
        <time>2016-01-06T15:21:31Z</time>
      </trkpt>
      <trkpt lat="43.42793" lon="6.11382">
        <ele>271.20001220703</ele>
        <time>2016-01-06T15:21:32Z</time>
      </trkpt>
      <trkpt lat="43.42796" lon="6.1138">
        <ele>271</ele>
        <time>2016-01-06T15:21:34Z</time>
      </trkpt>
      <trkpt lat="43.42799" lon="6.11378">
        <ele>271.20001220703</ele>
        <time>2016-01-06T15:21:36Z</time>
      </trkpt>
      <trkpt lat="43.42801" lon="6.11376">
        <ele>271</ele>
        <time>2016-01-06T15:21:38Z</time>
      </trkpt>
      <trkpt lat="43.42803" lon="6.11375">
        <ele>271</ele>
        <time>2016-01-06T15:21:39Z</time>
      </trkpt>
      <trkpt lat="43.42804" lon="6.11375">
        <ele>271.20001220703</ele>
        <time>2016-01-06T15:21:40Z</time>
      </trkpt>
      <trkpt lat="43.42806" lon="6.11372">
        <ele>271.39999389648</ele>
        <time>2016-01-06T15:21:42Z</time>
      </trkpt>
      <trkpt lat="43.42809" lon="6.1137">
        <ele>271.39999389648</ele>
        <time>2016-01-06T15:21:44Z</time>
      </trkpt>
      <trkpt lat="43.4281" lon="6.11369">
        <ele>271.39999389648</ele>
        <time>2016-01-06T15:21:45Z</time>
      </trkpt>
      <trkpt lat="43.42812" lon="6.11368">
        <ele>271.60000610352</ele>
        <time>2016-01-06T15:21:46Z</time>
      </trkpt>
      <trkpt lat="43.42815" lon="6.11364">
        <ele>271.60000610352</ele>
        <time>2016-01-06T15:21:48Z</time>
      </trkpt>
      <trkpt lat="43.42817" lon="6.1136">
        <ele>271.39999389648</ele>
        <time>2016-01-06T15:21:50Z</time>
      </trkpt>
      <trkpt lat="43.42818" lon="6.11358">
        <ele>271.60000610352</ele>
        <time>2016-01-06T15:21:51Z</time>
      </trkpt>
      <trkpt lat="43.42819" lon="6.11356">
        <ele>272</ele>
        <time>2016-01-06T15:21:52Z</time>
      </trkpt>
      <trkpt lat="43.4282" lon="6.11353">
        <ele>272</ele>
        <time>2016-01-06T15:21:53Z</time>
      </trkpt>
      <trkpt lat="43.42821" lon="6.11351">
        <ele>272</ele>
        <time>2016-01-06T15:21:54Z</time>
      </trkpt>
      <trkpt lat="43.42823" lon="6.11347">
        <ele>272.39999389648</ele>
        <time>2016-01-06T15:21:56Z</time>
      </trkpt>
      <trkpt lat="43.42825" lon="6.11343">
        <ele>272.39999389648</ele>
        <time>2016-01-06T15:21:58Z</time>
      </trkpt>
      <trkpt lat="43.42827" lon="6.11339">
        <ele>272.79998779297</ele>
        <time>2016-01-06T15:22:00Z</time>
      </trkpt>
      <trkpt lat="43.42828" lon="6.11334">
        <ele>273</ele>
        <time>2016-01-06T15:22:02Z</time>
      </trkpt>
      <trkpt lat="43.4283" lon="6.11332">
        <ele>273</ele>
        <time>2016-01-06T15:22:03Z</time>
      </trkpt>
      <trkpt lat="43.42831" lon="6.11329">
        <ele>273.20001220703</ele>
        <time>2016-01-06T15:22:04Z</time>
      </trkpt>
      <trkpt lat="43.42831" lon="6.11327">
        <ele>273.39999389648</ele>
        <time>2016-01-06T15:22:05Z</time>
      </trkpt>
      <trkpt lat="43.42832" lon="6.11324">
        <ele>273.39999389648</ele>
        <time>2016-01-06T15:22:06Z</time>
      </trkpt>
      <trkpt lat="43.42834" lon="6.1132">
        <ele>273.20001220703</ele>
        <time>2016-01-06T15:22:08Z</time>
      </trkpt>
      <trkpt lat="43.42835" lon="6.11316">
        <ele>273.20001220703</ele>
        <time>2016-01-06T15:22:10Z</time>
      </trkpt>
      <trkpt lat="43.42836" lon="6.11314">
        <ele>273.39999389648</ele>
        <time>2016-01-06T15:22:11Z</time>
      </trkpt>
      <trkpt lat="43.42838" lon="6.11312">
        <ele>273.39999389648</ele>
        <time>2016-01-06T15:22:12Z</time>
      </trkpt>
      <trkpt lat="43.42841" lon="6.11307">
        <ele>273.60000610352</ele>
        <time>2016-01-06T15:22:14Z</time>
      </trkpt>
      <trkpt lat="43.42844" lon="6.113">
        <ele>274</ele>
        <time>2016-01-06T15:22:16Z</time>
      </trkpt>
      <trkpt lat="43.42846" lon="6.11297">
        <ele>274</ele>
        <time>2016-01-06T15:22:17Z</time>
      </trkpt>
      <trkpt lat="43.42847" lon="6.11293">
        <ele>274.20001220703</ele>
        <time>2016-01-06T15:22:18Z</time>
      </trkpt>
      <trkpt lat="43.42849" lon="6.11285">
        <ele>274.39999389648</ele>
        <time>2016-01-06T15:22:20Z</time>
      </trkpt>
      <trkpt lat="43.42852" lon="6.11278">
        <ele>274.20001220703</ele>
        <time>2016-01-06T15:22:22Z</time>
      </trkpt>
      <trkpt lat="43.42856" lon="6.11272">
        <ele>274.39999389648</ele>
        <time>2016-01-06T15:22:24Z</time>
      </trkpt>
      <trkpt lat="43.4286" lon="6.11265">
        <ele>274.20001220703</ele>
        <time>2016-01-06T15:22:26Z</time>
      </trkpt>
      <trkpt lat="43.42862" lon="6.11264">
        <ele>274.39999389648</ele>
        <time>2016-01-06T15:22:27Z</time>
      </trkpt>
      <trkpt lat="43.42865" lon="6.11261">
        <ele>274.79998779297</ele>
        <time>2016-01-06T15:22:28Z</time>
      </trkpt>
      <trkpt lat="43.4287" lon="6.11255">
        <ele>274.79998779297</ele>
        <time>2016-01-06T15:22:30Z</time>
      </trkpt>
      <trkpt lat="43.42875" lon="6.11248">
        <ele>274.60000610352</ele>
        <time>2016-01-06T15:22:32Z</time>
      </trkpt>
      <trkpt lat="43.42877" lon="6.11244">
        <ele>274.20001220703</ele>
        <time>2016-01-06T15:22:33Z</time>
      </trkpt>
      <trkpt lat="43.4288" lon="6.11239">
        <ele>273.60000610352</ele>
        <time>2016-01-06T15:22:34Z</time>
      </trkpt>
      <trkpt lat="43.42885" lon="6.11231">
        <ele>273.20001220703</ele>
        <time>2016-01-06T15:22:36Z</time>
      </trkpt>
      <trkpt lat="43.42891" lon="6.11225">
        <ele>273.20001220703</ele>
        <time>2016-01-06T15:22:38Z</time>
      </trkpt>
      <trkpt lat="43.42894" lon="6.11222">
        <ele>273.20001220703</ele>
        <time>2016-01-06T15:22:39Z</time>
      </trkpt>
      <trkpt lat="43.42896" lon="6.11218">
        <ele>272.79998779297</ele>
        <time>2016-01-06T15:22:40Z</time>
      </trkpt>
      <trkpt lat="43.42898" lon="6.11209">
        <ele>272.20001220703</ele>
        <time>2016-01-06T15:22:42Z</time>
      </trkpt>
      <trkpt lat="43.42898" lon="6.11205">
        <ele>272.20001220703</ele>
        <time>2016-01-06T15:22:43Z</time>
      </trkpt>
      <trkpt lat="43.42897" lon="6.11202">
        <ele>272.60000610352</ele>
        <time>2016-01-06T15:22:44Z</time>
      </trkpt>
      <trkpt lat="43.42896" lon="6.11196">
        <ele>273</ele>
        <time>2016-01-06T15:22:46Z</time>
      </trkpt>
      <trkpt lat="43.42894" lon="6.1119">
        <ele>273.60000610352</ele>
        <time>2016-01-06T15:22:48Z</time>
      </trkpt>
      <trkpt lat="43.42894" lon="6.11187">
        <ele>274.20001220703</ele>
        <time>2016-01-06T15:22:49Z</time>
      </trkpt>
      <trkpt lat="43.42892" lon="6.11185">
        <ele>274.39999389648</ele>
        <time>2016-01-06T15:22:50Z</time>
      </trkpt>
      <trkpt lat="43.42891" lon="6.11181">
        <ele>273.79998779297</ele>
        <time>2016-01-06T15:22:52Z</time>
      </trkpt>
      <trkpt lat="43.42889" lon="6.11176">
        <ele>274.20001220703</ele>
        <time>2016-01-06T15:22:54Z</time>
      </trkpt>
      <trkpt lat="43.42888" lon="6.11174">
        <ele>274.39999389648</ele>
        <time>2016-01-06T15:22:55Z</time>
      </trkpt>
      <trkpt lat="43.42886" lon="6.11171">
        <ele>274.39999389648</ele>
        <time>2016-01-06T15:22:56Z</time>
      </trkpt>
      <trkpt lat="43.42883" lon="6.11166">
        <ele>274.79998779297</ele>
        <time>2016-01-06T15:22:58Z</time>
      </trkpt>
      <trkpt lat="43.42881" lon="6.11161">
        <ele>275.20001220703</ele>
        <time>2016-01-06T15:23:00Z</time>
      </trkpt>
      <trkpt lat="43.42879" lon="6.11159">
        <ele>275.20001220703</ele>
        <time>2016-01-06T15:23:01Z</time>
      </trkpt>
      <trkpt lat="43.42878" lon="6.11156">
        <ele>275.20001220703</ele>
        <time>2016-01-06T15:23:02Z</time>
      </trkpt>
      <trkpt lat="43.42877" lon="6.11152">
        <ele>275.20001220703</ele>
        <time>2016-01-06T15:23:03Z</time>
      </trkpt>
      <trkpt lat="43.42876" lon="6.11149">
        <ele>275.20001220703</ele>
        <time>2016-01-06T15:23:04Z</time>
      </trkpt>
      <trkpt lat="43.42875" lon="6.11144">
        <ele>275.39999389648</ele>
        <time>2016-01-06T15:23:06Z</time>
      </trkpt>
      <trkpt lat="43.42872" lon="6.1114">
        <ele>275.39999389648</ele>
        <time>2016-01-06T15:23:08Z</time>
      </trkpt>
      <trkpt lat="43.42868" lon="6.11136">
        <ele>275.39999389648</ele>
        <time>2016-01-06T15:23:10Z</time>
      </trkpt>
      <trkpt lat="43.42865" lon="6.11132">
        <ele>275.60000610352</ele>
        <time>2016-01-06T15:23:12Z</time>
      </trkpt>
      <trkpt lat="43.42862" lon="6.11129">
        <ele>275.79998779297</ele>
        <time>2016-01-06T15:23:14Z</time>
      </trkpt>
      <trkpt lat="43.42859" lon="6.11125">
        <ele>276.20001220703</ele>
        <time>2016-01-06T15:23:16Z</time>
      </trkpt>
      <trkpt lat="43.42858" lon="6.11124">
        <ele>276.20001220703</ele>
        <time>2016-01-06T15:23:17Z</time>
      </trkpt>
      <trkpt lat="43.42857" lon="6.11122">
        <ele>276.39999389648</ele>
        <time>2016-01-06T15:23:18Z</time>
      </trkpt>
      <trkpt lat="43.42854" lon="6.11117">
        <ele>276.20001220703</ele>
        <time>2016-01-06T15:23:20Z</time>
      </trkpt>
      <trkpt lat="43.42852" lon="6.11113">
        <ele>276.39999389648</ele>
        <time>2016-01-06T15:23:22Z</time>
      </trkpt>
      <trkpt lat="43.42851" lon="6.11108">
        <ele>276.39999389648</ele>
        <time>2016-01-06T15:23:24Z</time>
      </trkpt>
      <trkpt lat="43.4285" lon="6.11104">
        <ele>276.20001220703</ele>
        <time>2016-01-06T15:23:26Z</time>
      </trkpt>
      <trkpt lat="43.4285" lon="6.11102">
        <ele>276.20001220703</ele>
        <time>2016-01-06T15:23:28Z</time>
      </trkpt>
      <trkpt lat="43.4285" lon="6.11101">
        <ele>276.20001220703</ele>
        <time>2016-01-06T15:23:30Z</time>
      </trkpt>
      <trkpt lat="43.42849" lon="6.11101">
        <ele>276</ele>
        <time>2016-01-06T15:23:32Z</time>
      </trkpt>
      <trkpt lat="43.42849" lon="6.11101">
        <ele>276</ele>
        <time>2016-01-06T15:23:34Z</time>
      </trkpt>
      <trkpt lat="43.42849" lon="6.11101">
        <ele>275.79998779297</ele>
        <time>2016-01-06T15:23:36Z</time>
      </trkpt>
      <trkpt lat="43.42849" lon="6.11101">
        <ele>276</ele>
        <time>2016-01-06T15:23:38Z</time>
      </trkpt>
      <trkpt lat="43.4285" lon="6.11101">
        <ele>275.79998779297</ele>
        <time>2016-01-06T15:23:40Z</time>
      </trkpt>
      <trkpt lat="43.4285" lon="6.11101">
        <ele>276</ele>
        <time>2016-01-06T15:23:41Z</time>
      </trkpt>
      <trkpt lat="43.4285" lon="6.11101">
        <ele>276.20001220703</ele>
        <time>2016-01-06T15:23:44Z</time>
      </trkpt>
      <trkpt lat="43.4285" lon="6.11101">
        <ele>276.20001220703</ele>
        <time>2016-01-06T15:23:46Z</time>
      </trkpt>
      <trkpt lat="43.4285" lon="6.11101">
        <ele>276</ele>
        <time>2016-01-06T15:23:48Z</time>
      </trkpt>
      <trkpt lat="43.4285" lon="6.11101">
        <ele>276.20001220703</ele>
        <time>2016-01-06T15:23:50Z</time>
      </trkpt>
      <trkpt lat="43.4285" lon="6.11101">
        <ele>276.39999389648</ele>
        <time>2016-01-06T15:23:52Z</time>
      </trkpt>
      <trkpt lat="43.42849" lon="6.11101">
        <ele>276.39999389648</ele>
        <time>2016-01-06T15:23:54Z</time>
      </trkpt>
      <trkpt lat="43.4285" lon="6.11101">
        <ele>276.39999389648</ele>
        <time>2016-01-06T15:23:56Z</time>
      </trkpt>
      <trkpt lat="43.4285" lon="6.11101">
        <ele>276.20001220703</ele>
        <time>2016-01-06T15:23:58Z</time>
      </trkpt>
      <trkpt lat="43.4285" lon="6.11101">
        <ele>276.39999389648</ele>
        <time>2016-01-06T15:24:00Z</time>
      </trkpt>
      <trkpt lat="43.4285" lon="6.11101">
        <ele>276.39999389648</ele>
        <time>2016-01-06T15:24:01Z</time>
      </trkpt>
      <trkpt lat="43.4285" lon="6.11101">
        <ele>276.20001220703</ele>
        <time>2016-01-06T15:24:02Z</time>
      </trkpt>
      <trkpt lat="43.4285" lon="6.11101">
        <ele>276.20001220703</ele>
        <time>2016-01-06T15:24:04Z</time>
      </trkpt>
      <trkpt lat="43.4285" lon="6.11101">
        <ele>276</ele>
        <time>2016-01-06T15:24:06Z</time>
      </trkpt>
      <trkpt lat="43.4285" lon="6.11101">
        <ele>275.79998779297</ele>
        <time>2016-01-06T15:24:08Z</time>
      </trkpt>
      <trkpt lat="43.4285" lon="6.11101">
        <ele>275.79998779297</ele>
        <time>2016-01-06T15:24:10Z</time>
      </trkpt>
      <trkpt lat="43.4285" lon="6.11101">
        <ele>275.60000610352</ele>
        <time>2016-01-06T15:24:12Z</time>
      </trkpt>
      <trkpt lat="43.4285" lon="6.11101">
        <ele>276.20001220703</ele>
        <time>2016-01-06T15:24:14Z</time>
      </trkpt>
      <trkpt lat="43.4285" lon="6.11101">
        <ele>276.39999389648</ele>
        <time>2016-01-06T15:24:16Z</time>
      </trkpt>
      <trkpt lat="43.4285" lon="6.11101">
        <ele>276.39999389648</ele>
        <time>2016-01-06T15:24:18Z</time>
      </trkpt>
      <trkpt lat="43.4285" lon="6.11101">
        <ele>276</ele>
        <time>2016-01-06T15:24:20Z</time>
      </trkpt>
      <trkpt lat="43.4285" lon="6.11101">
        <ele>276</ele>
        <time>2016-01-06T15:24:22Z</time>
      </trkpt>
      <trkpt lat="43.4285" lon="6.11101">
        <ele>276.20001220703</ele>
        <time>2016-01-06T15:24:24Z</time>
      </trkpt>
      <trkpt lat="43.4285" lon="6.11101">
        <ele>275.79998779297</ele>
        <time>2016-01-06T15:24:26Z</time>
      </trkpt>
      <trkpt lat="43.4285" lon="6.11101">
        <ele>275.60000610352</ele>
        <time>2016-01-06T15:24:28Z</time>
      </trkpt>
      <trkpt lat="43.4285" lon="6.11101">
        <ele>275.79998779297</ele>
        <time>2016-01-06T15:24:30Z</time>
      </trkpt>
      <trkpt lat="43.4285" lon="6.11101">
        <ele>276.39999389648</ele>
        <time>2016-01-06T15:24:32Z</time>
      </trkpt>
      <trkpt lat="43.4285" lon="6.11101">
        <ele>276.60000610352</ele>
        <time>2016-01-06T15:24:34Z</time>
      </trkpt>
      <trkpt lat="43.4285" lon="6.11101">
        <ele>276.39999389648</ele>
        <time>2016-01-06T15:24:36Z</time>
      </trkpt>
      <trkpt lat="43.4285" lon="6.11101">
        <ele>276.39999389648</ele>
        <time>2016-01-06T15:24:38Z</time>
      </trkpt>
      <trkpt lat="43.4285" lon="6.11101">
        <ele>276.39999389648</ele>
        <time>2016-01-06T15:24:40Z</time>
      </trkpt>
      <trkpt lat="43.4285" lon="6.11101">
        <ele>276.20001220703</ele>
        <time>2016-01-06T15:24:42Z</time>
      </trkpt>
      <trkpt lat="43.4285" lon="6.11101">
        <ele>276.39999389648</ele>
        <time>2016-01-06T15:24:44Z</time>
      </trkpt>
      <trkpt lat="43.4285" lon="6.11101">
        <ele>276.20001220703</ele>
        <time>2016-01-06T15:24:46Z</time>
      </trkpt>
      <trkpt lat="43.4285" lon="6.11101">
        <ele>276</ele>
        <time>2016-01-06T15:24:48Z</time>
      </trkpt>
      <trkpt lat="43.4285" lon="6.11101">
        <ele>276</ele>
        <time>2016-01-06T15:24:50Z</time>
      </trkpt>
      <trkpt lat="43.4285" lon="6.11101">
        <ele>275.79998779297</ele>
        <time>2016-01-06T15:24:52Z</time>
      </trkpt>
      <trkpt lat="43.4285" lon="6.11101">
        <ele>275.79998779297</ele>
        <time>2016-01-06T15:24:54Z</time>
      </trkpt>
      <trkpt lat="43.4285" lon="6.11101">
        <ele>275.79998779297</ele>
        <time>2016-01-06T15:24:56Z</time>
      </trkpt>
      <trkpt lat="43.4285" lon="6.11101">
        <ele>275.79998779297</ele>
        <time>2016-01-06T15:24:58Z</time>
      </trkpt>
      <trkpt lat="43.4285" lon="6.11101">
        <ele>275.79998779297</ele>
        <time>2016-01-06T15:25:00Z</time>
      </trkpt>
      <trkpt lat="43.4285" lon="6.11101">
        <ele>275.79998779297</ele>
        <time>2016-01-06T15:25:02Z</time>
      </trkpt>
      <trkpt lat="43.4285" lon="6.11101">
        <ele>276</ele>
        <time>2016-01-06T15:25:04Z</time>
      </trkpt>
      <trkpt lat="43.4285" lon="6.11101">
        <ele>276</ele>
        <time>2016-01-06T15:25:06Z</time>
      </trkpt>
      <trkpt lat="43.4285" lon="6.11101">
        <ele>276</ele>
        <time>2016-01-06T15:25:08Z</time>
      </trkpt>
      <trkpt lat="43.4285" lon="6.11101">
        <ele>276</ele>
        <time>2016-01-06T15:25:10Z</time>
      </trkpt>
      <trkpt lat="43.4285" lon="6.11101">
        <ele>276.20001220703</ele>
        <time>2016-01-06T15:25:12Z</time>
      </trkpt>
      <trkpt lat="43.4285" lon="6.11101">
        <ele>276</ele>
        <time>2016-01-06T15:25:14Z</time>
      </trkpt>
      <trkpt lat="43.4285" lon="6.11101">
        <ele>276</ele>
        <time>2016-01-06T15:25:16Z</time>
      </trkpt>
      <trkpt lat="43.4285" lon="6.11101">
        <ele>275.79998779297</ele>
        <time>2016-01-06T15:25:18Z</time>
      </trkpt>
      <trkpt lat="43.4285" lon="6.11101">
        <ele>275.79998779297</ele>
        <time>2016-01-06T15:25:20Z</time>
      </trkpt>
      <trkpt lat="43.4285" lon="6.11101">
        <ele>275.79998779297</ele>
        <time>2016-01-06T15:25:22Z</time>
      </trkpt>
      <trkpt lat="43.4285" lon="6.11101">
        <ele>275.79998779297</ele>
        <time>2016-01-06T15:25:24Z</time>
      </trkpt>
      <trkpt lat="43.4285" lon="6.11101">
        <ele>276</ele>
        <time>2016-01-06T15:25:26Z</time>
      </trkpt>
      <trkpt lat="43.4285" lon="6.11101">
        <ele>276</ele>
        <time>2016-01-06T15:25:28Z</time>
      </trkpt>
      <trkpt lat="43.4285" lon="6.11101">
        <ele>276</ele>
        <time>2016-01-06T15:25:30Z</time>
      </trkpt>
      <trkpt lat="43.4285" lon="6.11101">
        <ele>276.20001220703</ele>
        <time>2016-01-06T15:25:32Z</time>
      </trkpt>
      <trkpt lat="43.4285" lon="6.11101">
        <ele>276.39999389648</ele>
        <time>2016-01-06T15:25:34Z</time>
      </trkpt>
      <trkpt lat="43.4285" lon="6.11101">
        <ele>276.20001220703</ele>
        <time>2016-01-06T15:25:36Z</time>
      </trkpt>
      <trkpt lat="43.4285" lon="6.11101">
        <ele>276.20001220703</ele>
        <time>2016-01-06T15:25:38Z</time>
      </trkpt>
      <trkpt lat="43.4285" lon="6.11101">
        <ele>276.20001220703</ele>
        <time>2016-01-06T15:25:40Z</time>
      </trkpt>
      <trkpt lat="43.4285" lon="6.11101">
        <ele>276.39999389648</ele>
        <time>2016-01-06T15:25:42Z</time>
      </trkpt>
      <trkpt lat="43.4285" lon="6.11101">
        <ele>276.39999389648</ele>
        <time>2016-01-06T15:25:44Z</time>
      </trkpt>
      <trkpt lat="43.4285" lon="6.11101">
        <ele>276.39999389648</ele>
        <time>2016-01-06T15:25:46Z</time>
      </trkpt>
      <trkpt lat="43.4285" lon="6.11101">
        <ele>276.39999389648</ele>
        <time>2016-01-06T15:25:48Z</time>
      </trkpt>
      <trkpt lat="43.4285" lon="6.11101">
        <ele>276.39999389648</ele>
        <time>2016-01-06T15:25:50Z</time>
      </trkpt>
      <trkpt lat="43.4285" lon="6.11101">
        <ele>276.39999389648</ele>
        <time>2016-01-06T15:25:51Z</time>
      </trkpt>
      <trkpt lat="43.4285" lon="6.11101">
        <ele>276.60000610352</ele>
        <time>2016-01-06T15:25:52Z</time>
      </trkpt>
      <trkpt lat="43.4285" lon="6.11101">
        <ele>276.39999389648</ele>
        <time>2016-01-06T15:25:54Z</time>
      </trkpt>
      <trkpt lat="43.4285" lon="6.11101">
        <ele>276.20001220703</ele>
        <time>2016-01-06T15:25:56Z</time>
      </trkpt>
      <trkpt lat="43.4285" lon="6.11101">
        <ele>276.20001220703</ele>
        <time>2016-01-06T15:25:58Z</time>
      </trkpt>
      <trkpt lat="43.4285" lon="6.11101">
        <ele>276.20001220703</ele>
        <time>2016-01-06T15:26:00Z</time>
      </trkpt>
      <trkpt lat="43.4285" lon="6.11101">
        <ele>276.20001220703</ele>
        <time>2016-01-06T15:26:02Z</time>
      </trkpt>
      <trkpt lat="43.4285" lon="6.11101">
        <ele>276</ele>
        <time>2016-01-06T15:26:04Z</time>
      </trkpt>
      <trkpt lat="43.4285" lon="6.11101">
        <ele>276</ele>
        <time>2016-01-06T15:26:06Z</time>
      </trkpt>
      <trkpt lat="43.4285" lon="6.11101">
        <ele>275.79998779297</ele>
        <time>2016-01-06T15:26:08Z</time>
      </trkpt>
      <trkpt lat="43.4285" lon="6.11101">
        <ele>275.79998779297</ele>
        <time>2016-01-06T15:26:10Z</time>
      </trkpt>
      <trkpt lat="43.4285" lon="6.111">
        <ele>275.79998779297</ele>
        <time>2016-01-06T15:26:12Z</time>
      </trkpt>
      <trkpt lat="43.4285" lon="6.11099">
        <ele>276</ele>
        <time>2016-01-06T15:26:14Z</time>
      </trkpt>
      <trkpt lat="43.4285" lon="6.11099">
        <ele>276</ele>
        <time>2016-01-06T15:26:16Z</time>
      </trkpt>
      <trkpt lat="43.4285" lon="6.11099">
        <ele>276</ele>
        <time>2016-01-06T15:26:18Z</time>
      </trkpt>
      <trkpt lat="43.4285" lon="6.11099">
        <ele>276.20001220703</ele>
        <time>2016-01-06T15:26:20Z</time>
      </trkpt>
      <trkpt lat="43.4285" lon="6.11099">
        <ele>276.20001220703</ele>
        <time>2016-01-06T15:26:22Z</time>
      </trkpt>
      <trkpt lat="43.4285" lon="6.11099">
        <ele>276.20001220703</ele>
        <time>2016-01-06T15:26:24Z</time>
      </trkpt>
      <trkpt lat="43.4285" lon="6.11099">
        <ele>276.39999389648</ele>
        <time>2016-01-06T15:26:26Z</time>
      </trkpt>
      <trkpt lat="43.4285" lon="6.11099">
        <ele>276.60000610352</ele>
        <time>2016-01-06T15:26:28Z</time>
      </trkpt>
      <trkpt lat="43.4285" lon="6.11099">
        <ele>276.39999389648</ele>
        <time>2016-01-06T15:26:30Z</time>
      </trkpt>
      <trkpt lat="43.4285" lon="6.11099">
        <ele>276.20001220703</ele>
        <time>2016-01-06T15:26:32Z</time>
      </trkpt>
      <trkpt lat="43.4285" lon="6.11099">
        <ele>276.20001220703</ele>
        <time>2016-01-06T15:26:34Z</time>
      </trkpt>
      <trkpt lat="43.4285" lon="6.11099">
        <ele>276</ele>
        <time>2016-01-06T15:26:36Z</time>
      </trkpt>
      <trkpt lat="43.4285" lon="6.11099">
        <ele>276</ele>
        <time>2016-01-06T15:26:38Z</time>
      </trkpt>
      <trkpt lat="43.4285" lon="6.11099">
        <ele>276</ele>
        <time>2016-01-06T15:26:40Z</time>
      </trkpt>
      <trkpt lat="43.4285" lon="6.11099">
        <ele>276</ele>
        <time>2016-01-06T15:26:42Z</time>
      </trkpt>
      <trkpt lat="43.4285" lon="6.11099">
        <ele>276.20001220703</ele>
        <time>2016-01-06T15:26:44Z</time>
      </trkpt>
      <trkpt lat="43.4285" lon="6.11099">
        <ele>276.20001220703</ele>
        <time>2016-01-06T15:26:46Z</time>
      </trkpt>
      <trkpt lat="43.4285" lon="6.11099">
        <ele>276.20001220703</ele>
        <time>2016-01-06T15:26:48Z</time>
      </trkpt>
      <trkpt lat="43.4285" lon="6.11099">
        <ele>276.20001220703</ele>
        <time>2016-01-06T15:26:50Z</time>
      </trkpt>
      <trkpt lat="43.4285" lon="6.11098">
        <ele>276.20001220703</ele>
        <time>2016-01-06T15:26:52Z</time>
      </trkpt>
      <trkpt lat="43.4285" lon="6.11098">
        <ele>276.20001220703</ele>
        <time>2016-01-06T15:26:54Z</time>
      </trkpt>
      <trkpt lat="43.4285" lon="6.11098">
        <ele>276.20001220703</ele>
        <time>2016-01-06T15:26:56Z</time>
      </trkpt>
      <trkpt lat="43.42851" lon="6.11096">
        <ele>276</ele>
        <time>2016-01-06T15:26:58Z</time>
      </trkpt>
      <trkpt lat="43.4285" lon="6.11093">
        <ele>276.20001220703</ele>
        <time>2016-01-06T15:27:00Z</time>
      </trkpt>
      <trkpt lat="43.42851" lon="6.11092">
        <ele>276.20001220703</ele>
        <time>2016-01-06T15:27:01Z</time>
      </trkpt>
      <trkpt lat="43.42851" lon="6.11091">
        <ele>276.20001220703</ele>
        <time>2016-01-06T15:27:02Z</time>
      </trkpt>
      <trkpt lat="43.42852" lon="6.1109">
        <ele>276</ele>
        <time>2016-01-06T15:27:04Z</time>
      </trkpt>
      <trkpt lat="43.42854" lon="6.11089">
        <ele>276</ele>
        <time>2016-01-06T15:27:06Z</time>
      </trkpt>
      <trkpt lat="43.42854" lon="6.11087">
        <ele>276</ele>
        <time>2016-01-06T15:27:07Z</time>
      </trkpt>
      <trkpt lat="43.42855" lon="6.11085">
        <ele>276.20001220703</ele>
        <time>2016-01-06T15:27:08Z</time>
      </trkpt>
      <trkpt lat="43.42858" lon="6.11081">
        <ele>276</ele>
        <time>2016-01-06T15:27:10Z</time>
      </trkpt>
      <trkpt lat="43.4286" lon="6.11074">
        <ele>275.39999389648</ele>
        <time>2016-01-06T15:27:12Z</time>
      </trkpt>
      <trkpt lat="43.42861" lon="6.11071">
        <ele>274.79998779297</ele>
        <time>2016-01-06T15:27:13Z</time>
      </trkpt>
      <trkpt lat="43.42861" lon="6.11068">
        <ele>274.39999389648</ele>
        <time>2016-01-06T15:27:14Z</time>
      </trkpt>
      <trkpt lat="43.4286" lon="6.1106">
        <ele>273.79998779297</ele>
        <time>2016-01-06T15:27:16Z</time>
      </trkpt>
      <trkpt lat="43.42859" lon="6.11057">
        <ele>273.60000610352</ele>
        <time>2016-01-06T15:27:17Z</time>
      </trkpt>
      <trkpt lat="43.42859" lon="6.11054">
        <ele>273.60000610352</ele>
        <time>2016-01-06T15:27:18Z</time>
      </trkpt>
      <trkpt lat="43.42856" lon="6.11045">
        <ele>273.20001220703</ele>
        <time>2016-01-06T15:27:20Z</time>
      </trkpt>
      <trkpt lat="43.42853" lon="6.11036">
        <ele>272.79998779297</ele>
        <time>2016-01-06T15:27:22Z</time>
      </trkpt>
      <trkpt lat="43.42851" lon="6.11031">
        <ele>272.79998779297</ele>
        <time>2016-01-06T15:27:23Z</time>
      </trkpt>
      <trkpt lat="43.42849" lon="6.11025">
        <ele>272.79998779297</ele>
        <time>2016-01-06T15:27:24Z</time>
      </trkpt>
      <trkpt lat="43.42844" lon="6.11015">
        <ele>272.39999389648</ele>
        <time>2016-01-06T15:27:26Z</time>
      </trkpt>
      <trkpt lat="43.42842" lon="6.1101">
        <ele>271</ele>
        <time>2016-01-06T15:27:27Z</time>
      </trkpt>
      <trkpt lat="43.42839" lon="6.11005">
        <ele>270.39999389648</ele>
        <time>2016-01-06T15:27:28Z</time>
      </trkpt>
      <trkpt lat="43.42834" lon="6.10995">
        <ele>269.79998779297</ele>
        <time>2016-01-06T15:27:30Z</time>
      </trkpt>
      <trkpt lat="43.42828" lon="6.10987">
        <ele>269</ele>
        <time>2016-01-06T15:27:32Z</time>
      </trkpt>
      <trkpt lat="43.42824" lon="6.10983">
        <ele>268.79998779297</ele>
        <time>2016-01-06T15:27:33Z</time>
      </trkpt>
      <trkpt lat="43.4282" lon="6.10978">
        <ele>268.39999389648</ele>
        <time>2016-01-06T15:27:34Z</time>
      </trkpt>
      <trkpt lat="43.42814" lon="6.1097">
        <ele>268.20001220703</ele>
        <time>2016-01-06T15:27:36Z</time>
      </trkpt>
      <trkpt lat="43.42812" lon="6.10959">
        <ele>268.79998779297</ele>
        <time>2016-01-06T15:27:38Z</time>
      </trkpt>
      <trkpt lat="43.42812" lon="6.10954">
        <ele>269</ele>
        <time>2016-01-06T15:27:39Z</time>
      </trkpt>
      <trkpt lat="43.42811" lon="6.10949">
        <ele>268.79998779297</ele>
        <time>2016-01-06T15:27:40Z</time>
      </trkpt>
      <trkpt lat="43.42811" lon="6.10938">
        <ele>268.60000610352</ele>
        <time>2016-01-06T15:27:42Z</time>
      </trkpt>
      <trkpt lat="43.42811" lon="6.10928">
        <ele>268.60000610352</ele>
        <time>2016-01-06T15:27:44Z</time>
      </trkpt>
      <trkpt lat="43.42812" lon="6.10923">
        <ele>268.60000610352</ele>
        <time>2016-01-06T15:27:45Z</time>
      </trkpt>
      <trkpt lat="43.42812" lon="6.10917">
        <ele>268.79998779297</ele>
        <time>2016-01-06T15:27:46Z</time>
      </trkpt>
      <trkpt lat="43.42812" lon="6.10907">
        <ele>269.20001220703</ele>
        <time>2016-01-06T15:27:48Z</time>
      </trkpt>
      <trkpt lat="43.42812" lon="6.10896">
        <ele>270.20001220703</ele>
        <time>2016-01-06T15:27:50Z</time>
      </trkpt>
      <trkpt lat="43.42813" lon="6.10887">
        <ele>270.39999389648</ele>
        <time>2016-01-06T15:27:52Z</time>
      </trkpt>
      <trkpt lat="43.42814" lon="6.10879">
        <ele>270.60000610352</ele>
        <time>2016-01-06T15:27:54Z</time>
      </trkpt>
      <trkpt lat="43.42817" lon="6.10872">
        <ele>270.60000610352</ele>
        <time>2016-01-06T15:27:56Z</time>
      </trkpt>
      <trkpt lat="43.4282" lon="6.10865">
        <ele>271.20001220703</ele>
        <time>2016-01-06T15:27:58Z</time>
      </trkpt>
      <trkpt lat="43.42821" lon="6.10861">
        <ele>271.60000610352</ele>
        <time>2016-01-06T15:27:59Z</time>
      </trkpt>
      <trkpt lat="43.42822" lon="6.10858">
        <ele>272.20001220703</ele>
        <time>2016-01-06T15:28:00Z</time>
      </trkpt>
      <trkpt lat="43.42824" lon="6.1085">
        <ele>272.20001220703</ele>
        <time>2016-01-06T15:28:02Z</time>
      </trkpt>
      <trkpt lat="43.42826" lon="6.10843">
        <ele>272.60000610352</ele>
        <time>2016-01-06T15:28:04Z</time>
      </trkpt>
      <trkpt lat="43.42827" lon="6.10839">
        <ele>273</ele>
        <time>2016-01-06T15:28:05Z</time>
      </trkpt>
      <trkpt lat="43.42828" lon="6.10835">
        <ele>273.39999389648</ele>
        <time>2016-01-06T15:28:06Z</time>
      </trkpt>
      <trkpt lat="43.42829" lon="6.10827">
        <ele>273</ele>
        <time>2016-01-06T15:28:08Z</time>
      </trkpt>
      <trkpt lat="43.42831" lon="6.10819">
        <ele>272.60000610352</ele>
        <time>2016-01-06T15:28:10Z</time>
      </trkpt>
      <trkpt lat="43.42832" lon="6.10811">
        <ele>272.79998779297</ele>
        <time>2016-01-06T15:28:12Z</time>
      </trkpt>
      <trkpt lat="43.42834" lon="6.10803">
        <ele>273.60000610352</ele>
        <time>2016-01-06T15:28:14Z</time>
      </trkpt>
      <trkpt lat="43.42836" lon="6.10796">
        <ele>273.39999389648</ele>
        <time>2016-01-06T15:28:16Z</time>
      </trkpt>
      <trkpt lat="43.42836" lon="6.10788">
        <ele>273.60000610352</ele>
        <time>2016-01-06T15:28:18Z</time>
      </trkpt>
      <trkpt lat="43.42837" lon="6.1078">
        <ele>273.39999389648</ele>
        <time>2016-01-06T15:28:20Z</time>
      </trkpt>
      <trkpt lat="43.42837" lon="6.10771">
        <ele>273.79998779297</ele>
        <time>2016-01-06T15:28:22Z</time>
      </trkpt>
      <trkpt lat="43.42837" lon="6.10763">
        <ele>273.79998779297</ele>
        <time>2016-01-06T15:28:24Z</time>
      </trkpt>
      <trkpt lat="43.42837" lon="6.10756">
        <ele>273.60000610352</ele>
        <time>2016-01-06T15:28:26Z</time>
      </trkpt>
      <trkpt lat="43.42837" lon="6.10748">
        <ele>274</ele>
        <time>2016-01-06T15:28:28Z</time>
      </trkpt>
      <trkpt lat="43.42838" lon="6.10745">
        <ele>274.20001220703</ele>
        <time>2016-01-06T15:28:29Z</time>
      </trkpt>
      <trkpt lat="43.42837" lon="6.10741">
        <ele>274.20001220703</ele>
        <time>2016-01-06T15:28:30Z</time>
      </trkpt>
      <trkpt lat="43.42837" lon="6.10737">
        <ele>274.39999389648</ele>
        <time>2016-01-06T15:28:31Z</time>
      </trkpt>
      <trkpt lat="43.42837" lon="6.10734">
        <ele>274.20001220703</ele>
        <time>2016-01-06T15:28:32Z</time>
      </trkpt>
      <trkpt lat="43.42836" lon="6.10726">
        <ele>274.39999389648</ele>
        <time>2016-01-06T15:28:34Z</time>
      </trkpt>
      <trkpt lat="43.42835" lon="6.10718">
        <ele>274.20001220703</ele>
        <time>2016-01-06T15:28:36Z</time>
      </trkpt>
      <trkpt lat="43.42835" lon="6.1071">
        <ele>274.39999389648</ele>
        <time>2016-01-06T15:28:38Z</time>
      </trkpt>
      <trkpt lat="43.42835" lon="6.10706">
        <ele>274.39999389648</ele>
        <time>2016-01-06T15:28:39Z</time>
      </trkpt>
      <trkpt lat="43.42836" lon="6.10702">
        <ele>274.39999389648</ele>
        <time>2016-01-06T15:28:40Z</time>
      </trkpt>
      <trkpt lat="43.42836" lon="6.10694">
        <ele>274.39999389648</ele>
        <time>2016-01-06T15:28:42Z</time>
      </trkpt>
      <trkpt lat="43.42836" lon="6.10686">
        <ele>274.60000610352</ele>
        <time>2016-01-06T15:28:44Z</time>
      </trkpt>
      <trkpt lat="43.42836" lon="6.10678">
        <ele>274.60000610352</ele>
        <time>2016-01-06T15:28:46Z</time>
      </trkpt>
      <trkpt lat="43.42837" lon="6.1067">
        <ele>275</ele>
        <time>2016-01-06T15:28:48Z</time>
      </trkpt>
      <trkpt lat="43.42836" lon="6.10664">
        <ele>275</ele>
        <time>2016-01-06T15:28:50Z</time>
      </trkpt>
      <trkpt lat="43.42837" lon="6.1066">
        <ele>275.39999389648</ele>
        <time>2016-01-06T15:28:51Z</time>
      </trkpt>
      <trkpt lat="43.42837" lon="6.10657">
        <ele>275.39999389648</ele>
        <time>2016-01-06T15:28:52Z</time>
      </trkpt>
      <trkpt lat="43.42837" lon="6.1065">
        <ele>276</ele>
        <time>2016-01-06T15:28:54Z</time>
      </trkpt>
      <trkpt lat="43.42838" lon="6.10648">
        <ele>276</ele>
        <time>2016-01-06T15:28:55Z</time>
      </trkpt>
      <trkpt lat="43.42839" lon="6.10645">
        <ele>276.20001220703</ele>
        <time>2016-01-06T15:28:56Z</time>
      </trkpt>
      <trkpt lat="43.42841" lon="6.10643">
        <ele>276.20001220703</ele>
        <time>2016-01-06T15:28:57Z</time>
      </trkpt>
      <trkpt lat="43.42841" lon="6.1064">
        <ele>276.39999389648</ele>
        <time>2016-01-06T15:28:58Z</time>
      </trkpt>
      <trkpt lat="43.42841" lon="6.10636">
        <ele>276.20001220703</ele>
        <time>2016-01-06T15:29:00Z</time>
      </trkpt>
      <trkpt lat="43.42841" lon="6.10633">
        <ele>276.39999389648</ele>
        <time>2016-01-06T15:29:01Z</time>
      </trkpt>
      <trkpt lat="43.42841" lon="6.10631">
        <ele>276.60000610352</ele>
        <time>2016-01-06T15:29:02Z</time>
      </trkpt>
      <trkpt lat="43.4284" lon="6.10626">
        <ele>277</ele>
        <time>2016-01-06T15:29:04Z</time>
      </trkpt>
      <trkpt lat="43.42839" lon="6.10624">
        <ele>277</ele>
        <time>2016-01-06T15:29:05Z</time>
      </trkpt>
      <trkpt lat="43.42839" lon="6.10622">
        <ele>277.20001220703</ele>
        <time>2016-01-06T15:29:06Z</time>
      </trkpt>
      <trkpt lat="43.42837" lon="6.10617">
        <ele>277.60000610352</ele>
        <time>2016-01-06T15:29:08Z</time>
      </trkpt>
      <trkpt lat="43.42836" lon="6.10612">
        <ele>277.60000610352</ele>
        <time>2016-01-06T15:29:10Z</time>
      </trkpt>
      <trkpt lat="43.42834" lon="6.10608">
        <ele>278</ele>
        <time>2016-01-06T15:29:12Z</time>
      </trkpt>
      <trkpt lat="43.42834" lon="6.10603">
        <ele>278.20001220703</ele>
        <time>2016-01-06T15:29:14Z</time>
      </trkpt>
      <trkpt lat="43.42833" lon="6.10601">
        <ele>278.60000610352</ele>
        <time>2016-01-06T15:29:15Z</time>
      </trkpt>
      <trkpt lat="43.42833" lon="6.10599">
        <ele>278.79998779297</ele>
        <time>2016-01-06T15:29:16Z</time>
      </trkpt>
      <trkpt lat="43.42831" lon="6.10595">
        <ele>278.79998779297</ele>
        <time>2016-01-06T15:29:18Z</time>
      </trkpt>
      <trkpt lat="43.42831" lon="6.10591">
        <ele>279.39999389648</ele>
        <time>2016-01-06T15:29:20Z</time>
      </trkpt>
      <trkpt lat="43.42831" lon="6.10588">
        <ele>279.79998779297</ele>
        <time>2016-01-06T15:29:21Z</time>
      </trkpt>
      <trkpt lat="43.4283" lon="6.10586">
        <ele>279.79998779297</ele>
        <time>2016-01-06T15:29:22Z</time>
      </trkpt>
      <trkpt lat="43.4283" lon="6.10581">
        <ele>280</ele>
        <time>2016-01-06T15:29:24Z</time>
      </trkpt>
      <trkpt lat="43.42828" lon="6.10576">
        <ele>280.39999389648</ele>
        <time>2016-01-06T15:29:26Z</time>
      </trkpt>
      <trkpt lat="43.42827" lon="6.10572">
        <ele>280.60000610352</ele>
        <time>2016-01-06T15:29:28Z</time>
      </trkpt>
      <trkpt lat="43.42826" lon="6.1057">
        <ele>280.79998779297</ele>
        <time>2016-01-06T15:29:29Z</time>
      </trkpt>
      <trkpt lat="43.42826" lon="6.10568">
        <ele>281</ele>
        <time>2016-01-06T15:29:30Z</time>
      </trkpt>
      <trkpt lat="43.42824" lon="6.10564">
        <ele>280.79998779297</ele>
        <time>2016-01-06T15:29:32Z</time>
      </trkpt>
      <trkpt lat="43.42822" lon="6.1056">
        <ele>281.20001220703</ele>
        <time>2016-01-06T15:29:34Z</time>
      </trkpt>
      <trkpt lat="43.42821" lon="6.10555">
        <ele>281.60000610352</ele>
        <time>2016-01-06T15:29:36Z</time>
      </trkpt>
      <trkpt lat="43.42819" lon="6.1055">
        <ele>281.60000610352</ele>
        <time>2016-01-06T15:29:38Z</time>
      </trkpt>
      <trkpt lat="43.42819" lon="6.10548">
        <ele>282</ele>
        <time>2016-01-06T15:29:39Z</time>
      </trkpt>
      <trkpt lat="43.42818" lon="6.10546">
        <ele>282.20001220703</ele>
        <time>2016-01-06T15:29:40Z</time>
      </trkpt>
      <trkpt lat="43.42816" lon="6.10542">
        <ele>282</ele>
        <time>2016-01-06T15:29:42Z</time>
      </trkpt>
      <trkpt lat="43.42814" lon="6.10538">
        <ele>282.39999389648</ele>
        <time>2016-01-06T15:29:44Z</time>
      </trkpt>
      <trkpt lat="43.42812" lon="6.10534">
        <ele>282.60000610352</ele>
        <time>2016-01-06T15:29:46Z</time>
      </trkpt>
      <trkpt lat="43.42811" lon="6.1053">
        <ele>282.60000610352</ele>
        <time>2016-01-06T15:29:48Z</time>
      </trkpt>
      <trkpt lat="43.42809" lon="6.10526">
        <ele>282.79998779297</ele>
        <time>2016-01-06T15:29:50Z</time>
      </trkpt>
      <trkpt lat="43.42808" lon="6.10521">
        <ele>283</ele>
        <time>2016-01-06T15:29:52Z</time>
      </trkpt>
      <trkpt lat="43.42807" lon="6.10516">
        <ele>283.39999389648</ele>
        <time>2016-01-06T15:29:54Z</time>
      </trkpt>
      <trkpt lat="43.42806" lon="6.10514">
        <ele>283.60000610352</ele>
        <time>2016-01-06T15:29:55Z</time>
      </trkpt>
      <trkpt lat="43.42805" lon="6.10511">
        <ele>283.79998779297</ele>
        <time>2016-01-06T15:29:56Z</time>
      </trkpt>
      <trkpt lat="43.42804" lon="6.10509">
        <ele>284.20001220703</ele>
        <time>2016-01-06T15:29:57Z</time>
      </trkpt>
      <trkpt lat="43.42804" lon="6.10506">
        <ele>284.20001220703</ele>
        <time>2016-01-06T15:29:58Z</time>
      </trkpt>
      <trkpt lat="43.42803" lon="6.10501">
        <ele>284.20001220703</ele>
        <time>2016-01-06T15:30:00Z</time>
      </trkpt>
      <trkpt lat="43.42802" lon="6.10496">
        <ele>284.20001220703</ele>
        <time>2016-01-06T15:30:02Z</time>
      </trkpt>
      <trkpt lat="43.42802" lon="6.10493">
        <ele>284.20001220703</ele>
        <time>2016-01-06T15:30:03Z</time>
      </trkpt>
      <trkpt lat="43.42801" lon="6.10491">
        <ele>284.39999389648</ele>
        <time>2016-01-06T15:30:04Z</time>
      </trkpt>
      <trkpt lat="43.428" lon="6.10486">
        <ele>284.60000610352</ele>
        <time>2016-01-06T15:30:06Z</time>
      </trkpt>
      <trkpt lat="43.428" lon="6.1048">
        <ele>284.60000610352</ele>
        <time>2016-01-06T15:30:08Z</time>
      </trkpt>
      <trkpt lat="43.42799" lon="6.10475">
        <ele>285</ele>
        <time>2016-01-06T15:30:10Z</time>
      </trkpt>
      <trkpt lat="43.42799" lon="6.10473">
        <ele>285.20001220703</ele>
        <time>2016-01-06T15:30:11Z</time>
      </trkpt>
      <trkpt lat="43.42799" lon="6.1047">
        <ele>285.39999389648</ele>
        <time>2016-01-06T15:30:12Z</time>
      </trkpt>
      <trkpt lat="43.42797" lon="6.10464">
        <ele>285.60000610352</ele>
        <time>2016-01-06T15:30:14Z</time>
      </trkpt>
      <trkpt lat="43.42797" lon="6.10458">
        <ele>285.60000610352</ele>
        <time>2016-01-06T15:30:16Z</time>
      </trkpt>
      <trkpt lat="43.42796" lon="6.10452">
        <ele>285.60000610352</ele>
        <time>2016-01-06T15:30:18Z</time>
      </trkpt>
      <trkpt lat="43.42794" lon="6.10445">
        <ele>285.20001220703</ele>
        <time>2016-01-06T15:30:20Z</time>
      </trkpt>
      <trkpt lat="43.42793" lon="6.10436">
        <ele>284.20001220703</ele>
        <time>2016-01-06T15:30:22Z</time>
      </trkpt>
      <trkpt lat="43.42792" lon="6.10431">
        <ele>284.20001220703</ele>
        <time>2016-01-06T15:30:23Z</time>
      </trkpt>
      <trkpt lat="43.42791" lon="6.10425">
        <ele>284.39999389648</ele>
        <time>2016-01-06T15:30:24Z</time>
      </trkpt>
      <trkpt lat="43.42788" lon="6.10412">
        <ele>283.60000610352</ele>
        <time>2016-01-06T15:30:26Z</time>
      </trkpt>
      <trkpt lat="43.42785" lon="6.10401">
        <ele>283</ele>
        <time>2016-01-06T15:30:28Z</time>
      </trkpt>
      <trkpt lat="43.42782" lon="6.10397">
        <ele>282.39999389648</ele>
        <time>2016-01-06T15:30:29Z</time>
      </trkpt>
      <trkpt lat="43.4278" lon="6.10392">
        <ele>282.39999389648</ele>
        <time>2016-01-06T15:30:30Z</time>
      </trkpt>
      <trkpt lat="43.42777" lon="6.10388">
        <ele>282.20001220703</ele>
        <time>2016-01-06T15:30:31Z</time>
      </trkpt>
      <trkpt lat="43.42775" lon="6.10383">
        <ele>282.20001220703</ele>
        <time>2016-01-06T15:30:32Z</time>
      </trkpt>
      <trkpt lat="43.42772" lon="6.10372">
        <ele>282</ele>
        <time>2016-01-06T15:30:34Z</time>
      </trkpt>
      <trkpt lat="43.4277" lon="6.10363">
        <ele>281.39999389648</ele>
        <time>2016-01-06T15:30:36Z</time>
      </trkpt>
      <trkpt lat="43.4277" lon="6.10357">
        <ele>281.20001220703</ele>
        <time>2016-01-06T15:30:38Z</time>
      </trkpt>
      <trkpt lat="43.4277" lon="6.10351">
        <ele>280.79998779297</ele>
        <time>2016-01-06T15:30:40Z</time>
      </trkpt>
      <trkpt lat="43.42772" lon="6.10346">
        <ele>280.60000610352</ele>
        <time>2016-01-06T15:30:42Z</time>
      </trkpt>
      <trkpt lat="43.42772" lon="6.10344">
        <ele>280.60000610352</ele>
        <time>2016-01-06T15:30:43Z</time>
      </trkpt>
      <trkpt lat="43.42771" lon="6.10341">
        <ele>280.39999389648</ele>
        <time>2016-01-06T15:30:44Z</time>
      </trkpt>
      <trkpt lat="43.42771" lon="6.10334">
        <ele>279.79998779297</ele>
        <time>2016-01-06T15:30:46Z</time>
      </trkpt>
      <trkpt lat="43.42773" lon="6.10324">
        <ele>280</ele>
        <time>2016-01-06T15:30:48Z</time>
      </trkpt>
      <trkpt lat="43.42775" lon="6.10318">
        <ele>279.39999389648</ele>
        <time>2016-01-06T15:30:49Z</time>
      </trkpt>
      <trkpt lat="43.42779" lon="6.10313">
        <ele>278.60000610352</ele>
        <time>2016-01-06T15:30:50Z</time>
      </trkpt>
      <trkpt lat="43.42782" lon="6.10307">
        <ele>278</ele>
        <time>2016-01-06T15:30:51Z</time>
      </trkpt>
      <trkpt lat="43.42785" lon="6.10302">
        <ele>277.39999389648</ele>
        <time>2016-01-06T15:30:52Z</time>
      </trkpt>
      <trkpt lat="43.42791" lon="6.10294">
        <ele>277.20001220703</ele>
        <time>2016-01-06T15:30:54Z</time>
      </trkpt>
      <trkpt lat="43.42792" lon="6.10285">
        <ele>277</ele>
        <time>2016-01-06T15:30:56Z</time>
      </trkpt>
      <trkpt lat="43.42794" lon="6.10275">
        <ele>276.60000610352</ele>
        <time>2016-01-06T15:30:58Z</time>
      </trkpt>
      <trkpt lat="43.42795" lon="6.10266">
        <ele>276.39999389648</ele>
        <time>2016-01-06T15:31:00Z</time>
      </trkpt>
      <trkpt lat="43.42796" lon="6.10258">
        <ele>276.60000610352</ele>
        <time>2016-01-06T15:31:02Z</time>
      </trkpt>
      <trkpt lat="43.42797" lon="6.10255">
        <ele>276.60000610352</ele>
        <time>2016-01-06T15:31:03Z</time>
      </trkpt>
      <trkpt lat="43.42797" lon="6.10251">
        <ele>276.60000610352</ele>
        <time>2016-01-06T15:31:04Z</time>
      </trkpt>
      <trkpt lat="43.428" lon="6.10244">
        <ele>276.60000610352</ele>
        <time>2016-01-06T15:31:06Z</time>
      </trkpt>
      <trkpt lat="43.42803" lon="6.10238">
        <ele>276.20001220703</ele>
        <time>2016-01-06T15:31:08Z</time>
      </trkpt>
      <trkpt lat="43.42805" lon="6.10236">
        <ele>276</ele>
        <time>2016-01-06T15:31:09Z</time>
      </trkpt>
      <trkpt lat="43.42807" lon="6.10233">
        <ele>276.39999389648</ele>
        <time>2016-01-06T15:31:10Z</time>
      </trkpt>
      <trkpt lat="43.42811" lon="6.10227">
        <ele>276.20001220703</ele>
        <time>2016-01-06T15:31:12Z</time>
      </trkpt>
      <trkpt lat="43.42813" lon="6.10224">
        <ele>275.79998779297</ele>
        <time>2016-01-06T15:31:13Z</time>
      </trkpt>
      <trkpt lat="43.42815" lon="6.1022">
        <ele>275.60000610352</ele>
        <time>2016-01-06T15:31:14Z</time>
      </trkpt>
      <trkpt lat="43.42818" lon="6.10214">
        <ele>275.60000610352</ele>
        <time>2016-01-06T15:31:16Z</time>
      </trkpt>
      <trkpt lat="43.42821" lon="6.10208">
        <ele>275.60000610352</ele>
        <time>2016-01-06T15:31:18Z</time>
      </trkpt>
      <trkpt lat="43.42824" lon="6.10204">
        <ele>275.60000610352</ele>
        <time>2016-01-06T15:31:20Z</time>
      </trkpt>
      <trkpt lat="43.42825" lon="6.10203">
        <ele>275.39999389648</ele>
        <time>2016-01-06T15:31:21Z</time>
      </trkpt>
      <trkpt lat="43.42826" lon="6.10201">
        <ele>275.39999389648</ele>
        <time>2016-01-06T15:31:22Z</time>
      </trkpt>
      <trkpt lat="43.42828" lon="6.10197">
        <ele>275.20001220703</ele>
        <time>2016-01-06T15:31:24Z</time>
      </trkpt>
      <trkpt lat="43.4283" lon="6.10192">
        <ele>275.39999389648</ele>
        <time>2016-01-06T15:31:26Z</time>
      </trkpt>
      <trkpt lat="43.42831" lon="6.10187">
        <ele>275.60000610352</ele>
        <time>2016-01-06T15:31:28Z</time>
      </trkpt>
      <trkpt lat="43.42832" lon="6.10183">
        <ele>276</ele>
        <time>2016-01-06T15:31:30Z</time>
      </trkpt>
      <trkpt lat="43.42833" lon="6.10181">
        <ele>275.79998779297</ele>
        <time>2016-01-06T15:31:32Z</time>
      </trkpt>
      <trkpt lat="43.42833" lon="6.10181">
        <ele>276.20001220703</ele>
        <time>2016-01-06T15:31:33Z</time>
      </trkpt>
      <trkpt lat="43.42833" lon="6.10181">
        <ele>276</ele>
        <time>2016-01-06T15:31:34Z</time>
      </trkpt>
      <trkpt lat="43.42833" lon="6.10182">
        <ele>276</ele>
        <time>2016-01-06T15:31:36Z</time>
      </trkpt>
      <trkpt lat="43.42833" lon="6.10181">
        <ele>276</ele>
        <time>2016-01-06T15:31:38Z</time>
      </trkpt>
      <trkpt lat="43.42833" lon="6.10181">
        <ele>276.20001220703</ele>
        <time>2016-01-06T15:31:40Z</time>
      </trkpt>
      <trkpt lat="43.42833" lon="6.10181">
        <ele>276.20001220703</ele>
        <time>2016-01-06T15:31:42Z</time>
      </trkpt>
      <trkpt lat="43.42833" lon="6.10181">
        <ele>276.20001220703</ele>
        <time>2016-01-06T15:31:44Z</time>
      </trkpt>
      <trkpt lat="43.42833" lon="6.10181">
        <ele>276</ele>
        <time>2016-01-06T15:31:46Z</time>
      </trkpt>
      <trkpt lat="43.42833" lon="6.10181">
        <ele>276</ele>
        <time>2016-01-06T15:31:48Z</time>
      </trkpt>
      <trkpt lat="43.42833" lon="6.10181">
        <ele>276</ele>
        <time>2016-01-06T15:31:50Z</time>
      </trkpt>
      <trkpt lat="43.42835" lon="6.1018">
        <ele>276</ele>
        <time>2016-01-06T15:31:52Z</time>
      </trkpt>
      <trkpt lat="43.42837" lon="6.10178">
        <ele>276.20001220703</ele>
        <time>2016-01-06T15:31:54Z</time>
      </trkpt>
      <trkpt lat="43.42838" lon="6.10177">
        <ele>276.39999389648</ele>
        <time>2016-01-06T15:31:55Z</time>
      </trkpt>
      <trkpt lat="43.4284" lon="6.10175">
        <ele>276.79998779297</ele>
        <time>2016-01-06T15:31:56Z</time>
      </trkpt>
      <trkpt lat="43.42842" lon="6.10171">
        <ele>276.39999389648</ele>
        <time>2016-01-06T15:31:58Z</time>
      </trkpt>
      <trkpt lat="43.42845" lon="6.10166">
        <ele>276.20001220703</ele>
        <time>2016-01-06T15:32:00Z</time>
      </trkpt>
      <trkpt lat="43.42848" lon="6.10162">
        <ele>276.60000610352</ele>
        <time>2016-01-06T15:32:02Z</time>
      </trkpt>
      <trkpt lat="43.42851" lon="6.10157">
        <ele>276.60000610352</ele>
        <time>2016-01-06T15:32:04Z</time>
      </trkpt>
      <trkpt lat="43.42853" lon="6.10153">
        <ele>277</ele>
        <time>2016-01-06T15:32:06Z</time>
      </trkpt>
      <trkpt lat="43.42855" lon="6.1015">
        <ele>277.20001220703</ele>
        <time>2016-01-06T15:32:08Z</time>
      </trkpt>
      <trkpt lat="43.42855" lon="6.10148">
        <ele>277.39999389648</ele>
        <time>2016-01-06T15:32:09Z</time>
      </trkpt>
      <trkpt lat="43.42856" lon="6.10146">
        <ele>277.39999389648</ele>
        <time>2016-01-06T15:32:10Z</time>
      </trkpt>
      <trkpt lat="43.42859" lon="6.10142">
        <ele>277.79998779297</ele>
        <time>2016-01-06T15:32:12Z</time>
      </trkpt>
      <trkpt lat="43.4286" lon="6.1014">
        <ele>278</ele>
        <time>2016-01-06T15:32:13Z</time>
      </trkpt>
      <trkpt lat="43.42861" lon="6.10138">
        <ele>278.39999389648</ele>
        <time>2016-01-06T15:32:14Z</time>
      </trkpt>
      <trkpt lat="43.42863" lon="6.10134">
        <ele>279</ele>
        <time>2016-01-06T15:32:16Z</time>
      </trkpt>
      <trkpt lat="43.42863" lon="6.10132">
        <ele>279.20001220703</ele>
        <time>2016-01-06T15:32:17Z</time>
      </trkpt>
      <trkpt lat="43.42864" lon="6.1013">
        <ele>279.20001220703</ele>
        <time>2016-01-06T15:32:18Z</time>
      </trkpt>
      <trkpt lat="43.42865" lon="6.10125">
        <ele>278.79998779297</ele>
        <time>2016-01-06T15:32:20Z</time>
      </trkpt>
      <trkpt lat="43.42866" lon="6.10121">
        <ele>279.20001220703</ele>
        <time>2016-01-06T15:32:22Z</time>
      </trkpt>
      <trkpt lat="43.42867" lon="6.10119">
        <ele>279.20001220703</ele>
        <time>2016-01-06T15:32:23Z</time>
      </trkpt>
      <trkpt lat="43.42867" lon="6.10117">
        <ele>279.20001220703</ele>
        <time>2016-01-06T15:32:24Z</time>
      </trkpt>
      <trkpt lat="43.42867" lon="6.10114">
        <ele>279.79998779297</ele>
        <time>2016-01-06T15:32:26Z</time>
      </trkpt>
      <trkpt lat="43.42867" lon="6.1011">
        <ele>279.79998779297</ele>
        <time>2016-01-06T15:32:28Z</time>
      </trkpt>
      <trkpt lat="43.42868" lon="6.10108">
        <ele>280</ele>
        <time>2016-01-06T15:32:29Z</time>
      </trkpt>
      <trkpt lat="43.42868" lon="6.10105">
        <ele>280</ele>
        <time>2016-01-06T15:32:30Z</time>
      </trkpt>
      <trkpt lat="43.42868" lon="6.10101">
        <ele>280.39999389648</ele>
        <time>2016-01-06T15:32:32Z</time>
      </trkpt>
      <trkpt lat="43.42868" lon="6.10097">
        <ele>280.60000610352</ele>
        <time>2016-01-06T15:32:34Z</time>
      </trkpt>
      <trkpt lat="43.42868" lon="6.10093">
        <ele>281.20001220703</ele>
        <time>2016-01-06T15:32:36Z</time>
      </trkpt>
      <trkpt lat="43.42868" lon="6.1009">
        <ele>281.20001220703</ele>
        <time>2016-01-06T15:32:38Z</time>
      </trkpt>
      <trkpt lat="43.42869" lon="6.10086">
        <ele>281.39999389648</ele>
        <time>2016-01-06T15:32:40Z</time>
      </trkpt>
      <trkpt lat="43.4287" lon="6.10082">
        <ele>281.39999389648</ele>
        <time>2016-01-06T15:32:42Z</time>
      </trkpt>
      <trkpt lat="43.4287" lon="6.1008">
        <ele>281.60000610352</ele>
        <time>2016-01-06T15:32:43Z</time>
      </trkpt>
      <trkpt lat="43.4287" lon="6.10079">
        <ele>282</ele>
        <time>2016-01-06T15:32:44Z</time>
      </trkpt>
      <trkpt lat="43.4287" lon="6.1008">
        <ele>282.39999389648</ele>
        <time>2016-01-06T15:32:46Z</time>
      </trkpt>
      <trkpt lat="43.4287" lon="6.1008">
        <ele>282.39999389648</ele>
        <time>2016-01-06T15:32:47Z</time>
      </trkpt>
      <trkpt lat="43.42871" lon="6.1008">
        <ele>282.60000610352</ele>
        <time>2016-01-06T15:32:48Z</time>
      </trkpt>
      <trkpt lat="43.42871" lon="6.1008">
        <ele>282.60000610352</ele>
        <time>2016-01-06T15:32:50Z</time>
      </trkpt>
      <trkpt lat="43.42871" lon="6.10079">
        <ele>283</ele>
        <time>2016-01-06T15:32:52Z</time>
      </trkpt>
      <trkpt lat="43.42871" lon="6.10078">
        <ele>283.20001220703</ele>
        <time>2016-01-06T15:32:54Z</time>
      </trkpt>
      <trkpt lat="43.42871" lon="6.10077">
        <ele>283.39999389648</ele>
        <time>2016-01-06T15:32:55Z</time>
      </trkpt>
      <trkpt lat="43.42871" lon="6.10077">
        <ele>283.39999389648</ele>
        <time>2016-01-06T15:32:56Z</time>
      </trkpt>
      <trkpt lat="43.42871" lon="6.10077">
        <ele>283.60000610352</ele>
        <time>2016-01-06T15:32:57Z</time>
      </trkpt>
      <trkpt lat="43.42871" lon="6.10077">
        <ele>283.60000610352</ele>
        <time>2016-01-06T15:32:58Z</time>
      </trkpt>
      <trkpt lat="43.42871" lon="6.10077">
        <ele>283.39999389648</ele>
        <time>2016-01-06T15:33:00Z</time>
      </trkpt>
      <trkpt lat="43.4287" lon="6.10077">
        <ele>283.39999389648</ele>
        <time>2016-01-06T15:33:02Z</time>
      </trkpt>
      <trkpt lat="43.4287" lon="6.10077">
        <ele>283.20001220703</ele>
        <time>2016-01-06T15:33:04Z</time>
      </trkpt>
      <trkpt lat="43.4287" lon="6.10077">
        <ele>283.20001220703</ele>
        <time>2016-01-06T15:33:05Z</time>
      </trkpt>
      <trkpt lat="43.4287" lon="6.10077">
        <ele>283</ele>
        <time>2016-01-06T15:33:06Z</time>
      </trkpt>
      <trkpt lat="43.4287" lon="6.10077">
        <ele>283</ele>
        <time>2016-01-06T15:33:08Z</time>
      </trkpt>
      <trkpt lat="43.4287" lon="6.10077">
        <ele>283.20001220703</ele>
        <time>2016-01-06T15:33:10Z</time>
      </trkpt>
      <trkpt lat="43.42871" lon="6.10076">
        <ele>283.39999389648</ele>
        <time>2016-01-06T15:33:12Z</time>
      </trkpt>
      <trkpt lat="43.42871" lon="6.10076">
        <ele>283.60000610352</ele>
        <time>2016-01-06T15:33:14Z</time>
      </trkpt>
      <trkpt lat="43.42871" lon="6.10076">
        <ele>283.60000610352</ele>
        <time>2016-01-06T15:33:16Z</time>
      </trkpt>
      <trkpt lat="43.42871" lon="6.10076">
        <ele>283.79998779297</ele>
        <time>2016-01-06T15:33:18Z</time>
      </trkpt>
      <trkpt lat="43.42871" lon="6.10076">
        <ele>284</ele>
        <time>2016-01-06T15:33:20Z</time>
      </trkpt>
      <trkpt lat="43.42871" lon="6.10076">
        <ele>284.20001220703</ele>
        <time>2016-01-06T15:33:22Z</time>
      </trkpt>
      <trkpt lat="43.42871" lon="6.10075">
        <ele>284</ele>
        <time>2016-01-06T15:33:24Z</time>
      </trkpt>
      <trkpt lat="43.42871" lon="6.10075">
        <ele>284</ele>
        <time>2016-01-06T15:33:26Z</time>
      </trkpt>
      <trkpt lat="43.42871" lon="6.10072">
        <ele>284.39999389648</ele>
        <time>2016-01-06T15:33:28Z</time>
      </trkpt>
      <trkpt lat="43.42871" lon="6.10068">
        <ele>284.39999389648</ele>
        <time>2016-01-06T15:33:30Z</time>
      </trkpt>
      <trkpt lat="43.42871" lon="6.10066">
        <ele>284.60000610352</ele>
        <time>2016-01-06T15:33:31Z</time>
      </trkpt>
      <trkpt lat="43.42871" lon="6.10063">
        <ele>284.60000610352</ele>
        <time>2016-01-06T15:33:32Z</time>
      </trkpt>
      <trkpt lat="43.4287" lon="6.10059">
        <ele>285</ele>
        <time>2016-01-06T15:33:34Z</time>
      </trkpt>
      <trkpt lat="43.4287" lon="6.10055">
        <ele>285.39999389648</ele>
        <time>2016-01-06T15:33:36Z</time>
      </trkpt>
      <trkpt lat="43.4287" lon="6.10051">
        <ele>286</ele>
        <time>2016-01-06T15:33:38Z</time>
      </trkpt>
      <trkpt lat="43.4287" lon="6.1005">
        <ele>286.20001220703</ele>
        <time>2016-01-06T15:33:39Z</time>
      </trkpt>
      <trkpt lat="43.42871" lon="6.10048">
        <ele>286.20001220703</ele>
        <time>2016-01-06T15:33:40Z</time>
      </trkpt>
      <trkpt lat="43.42871" lon="6.10044">
        <ele>286.79998779297</ele>
        <time>2016-01-06T15:33:42Z</time>
      </trkpt>
      <trkpt lat="43.42871" lon="6.1004">
        <ele>287</ele>
        <time>2016-01-06T15:33:44Z</time>
      </trkpt>
      <trkpt lat="43.42871" lon="6.10038">
        <ele>287.20001220703</ele>
        <time>2016-01-06T15:33:45Z</time>
      </trkpt>
      <trkpt lat="43.42871" lon="6.10037">
        <ele>287.20001220703</ele>
        <time>2016-01-06T15:33:46Z</time>
      </trkpt>
      <trkpt lat="43.42871" lon="6.10033">
        <ele>287</ele>
        <time>2016-01-06T15:33:48Z</time>
      </trkpt>
      <trkpt lat="43.4287" lon="6.10031">
        <ele>286.79998779297</ele>
        <time>2016-01-06T15:33:50Z</time>
      </trkpt>
      <trkpt lat="43.4287" lon="6.10031">
        <ele>287</ele>
        <time>2016-01-06T15:33:52Z</time>
      </trkpt>
      <trkpt lat="43.4287" lon="6.10031">
        <ele>287.20001220703</ele>
        <time>2016-01-06T15:33:54Z</time>
      </trkpt>
      <trkpt lat="43.4287" lon="6.1003">
        <ele>287.20001220703</ele>
        <time>2016-01-06T15:33:56Z</time>
      </trkpt>
      <trkpt lat="43.4287" lon="6.1003">
        <ele>287.20001220703</ele>
        <time>2016-01-06T15:33:58Z</time>
      </trkpt>
      <trkpt lat="43.4287" lon="6.1003">
        <ele>287.20001220703</ele>
        <time>2016-01-06T15:34:00Z</time>
      </trkpt>
      <trkpt lat="43.4287" lon="6.1003">
        <ele>287.20001220703</ele>
        <time>2016-01-06T15:34:02Z</time>
      </trkpt>
      <trkpt lat="43.4287" lon="6.1003">
        <ele>287.39999389648</ele>
        <time>2016-01-06T15:34:03Z</time>
      </trkpt>
      <trkpt lat="43.4287" lon="6.1003">
        <ele>287.60000610352</ele>
        <time>2016-01-06T15:34:04Z</time>
      </trkpt>
      <trkpt lat="43.4287" lon="6.1003">
        <ele>287.60000610352</ele>
        <time>2016-01-06T15:34:06Z</time>
      </trkpt>
      <trkpt lat="43.4287" lon="6.1003">
        <ele>287.39999389648</ele>
        <time>2016-01-06T15:34:08Z</time>
      </trkpt>
      <trkpt lat="43.42871" lon="6.1003">
        <ele>287.20001220703</ele>
        <time>2016-01-06T15:34:10Z</time>
      </trkpt>
      <trkpt lat="43.4287" lon="6.1003">
        <ele>287.20001220703</ele>
        <time>2016-01-06T15:34:12Z</time>
      </trkpt>
      <trkpt lat="43.4287" lon="6.1003">
        <ele>287.20001220703</ele>
        <time>2016-01-06T15:34:14Z</time>
      </trkpt>
      <trkpt lat="43.4287" lon="6.1003">
        <ele>287.20001220703</ele>
        <time>2016-01-06T15:34:16Z</time>
      </trkpt>
      <trkpt lat="43.4287" lon="6.1003">
        <ele>287.20001220703</ele>
        <time>2016-01-06T15:34:18Z</time>
      </trkpt>
      <trkpt lat="43.4287" lon="6.1003">
        <ele>287</ele>
        <time>2016-01-06T15:34:20Z</time>
      </trkpt>
      <trkpt lat="43.4287" lon="6.1003">
        <ele>287.20001220703</ele>
        <time>2016-01-06T15:34:22Z</time>
      </trkpt>
      <trkpt lat="43.4287" lon="6.1003">
        <ele>287.20001220703</ele>
        <time>2016-01-06T15:34:24Z</time>
      </trkpt>
      <trkpt lat="43.4287" lon="6.1003">
        <ele>287.20001220703</ele>
        <time>2016-01-06T15:34:26Z</time>
      </trkpt>
      <trkpt lat="43.4287" lon="6.1003">
        <ele>287</ele>
        <time>2016-01-06T15:34:28Z</time>
      </trkpt>
      <trkpt lat="43.4287" lon="6.1003">
        <ele>287.20001220703</ele>
        <time>2016-01-06T15:34:30Z</time>
      </trkpt>
      <trkpt lat="43.4287" lon="6.1003">
        <ele>287.20001220703</ele>
        <time>2016-01-06T15:34:32Z</time>
      </trkpt>
      <trkpt lat="43.4287" lon="6.1003">
        <ele>287.20001220703</ele>
        <time>2016-01-06T15:34:34Z</time>
      </trkpt>
      <trkpt lat="43.4287" lon="6.1003">
        <ele>287.20001220703</ele>
        <time>2016-01-06T15:34:35Z</time>
      </trkpt>
      <trkpt lat="43.4287" lon="6.1003">
        <ele>287.39999389648</ele>
        <time>2016-01-06T15:34:38Z</time>
      </trkpt>
      <trkpt lat="43.4287" lon="6.1003">
        <ele>287.20001220703</ele>
        <time>2016-01-06T15:34:40Z</time>
      </trkpt>
      <trkpt lat="43.4287" lon="6.1003">
        <ele>287.20001220703</ele>
        <time>2016-01-06T15:34:42Z</time>
      </trkpt>
      <trkpt lat="43.4287" lon="6.1003">
        <ele>287.20001220703</ele>
        <time>2016-01-06T15:34:44Z</time>
      </trkpt>
      <trkpt lat="43.4287" lon="6.1003">
        <ele>287.39999389648</ele>
        <time>2016-01-06T15:34:46Z</time>
      </trkpt>
      <trkpt lat="43.4287" lon="6.1003">
        <ele>287.79998779297</ele>
        <time>2016-01-06T15:34:48Z</time>
      </trkpt>
      <trkpt lat="43.4287" lon="6.1003">
        <ele>287.60000610352</ele>
        <time>2016-01-06T15:34:50Z</time>
      </trkpt>
      <trkpt lat="43.4287" lon="6.1003">
        <ele>287.60000610352</ele>
        <time>2016-01-06T15:34:52Z</time>
      </trkpt>
      <trkpt lat="43.4287" lon="6.1003">
        <ele>287.39999389648</ele>
        <time>2016-01-06T15:34:54Z</time>
      </trkpt>
      <trkpt lat="43.4287" lon="6.1003">
        <ele>287.39999389648</ele>
        <time>2016-01-06T15:34:56Z</time>
      </trkpt>
      <trkpt lat="43.4287" lon="6.1003">
        <ele>287.39999389648</ele>
        <time>2016-01-06T15:34:58Z</time>
      </trkpt>
      <trkpt lat="43.4287" lon="6.1003">
        <ele>287.60000610352</ele>
        <time>2016-01-06T15:35:00Z</time>
      </trkpt>
      <trkpt lat="43.4287" lon="6.1003">
        <ele>287.79998779297</ele>
        <time>2016-01-06T15:35:02Z</time>
      </trkpt>
      <trkpt lat="43.4287" lon="6.1003">
        <ele>287.79998779297</ele>
        <time>2016-01-06T15:35:04Z</time>
      </trkpt>
      <trkpt lat="43.4287" lon="6.1003">
        <ele>287.79998779297</ele>
        <time>2016-01-06T15:35:06Z</time>
      </trkpt>
      <trkpt lat="43.4287" lon="6.1003">
        <ele>287.60000610352</ele>
        <time>2016-01-06T15:35:08Z</time>
      </trkpt>
      <trkpt lat="43.4287" lon="6.1003">
        <ele>287.39999389648</ele>
        <time>2016-01-06T15:35:09Z</time>
      </trkpt>
      <trkpt lat="43.4287" lon="6.1003">
        <ele>287.39999389648</ele>
        <time>2016-01-06T15:35:10Z</time>
      </trkpt>
      <trkpt lat="43.4287" lon="6.1003">
        <ele>287.60000610352</ele>
        <time>2016-01-06T15:35:12Z</time>
      </trkpt>
      <trkpt lat="43.4287" lon="6.1003">
        <ele>287.79998779297</ele>
        <time>2016-01-06T15:35:14Z</time>
      </trkpt>
      <trkpt lat="43.4287" lon="6.10029">
        <ele>287.60000610352</ele>
        <time>2016-01-06T15:35:16Z</time>
      </trkpt>
      <trkpt lat="43.4287" lon="6.10029">
        <ele>287.60000610352</ele>
        <time>2016-01-06T15:35:18Z</time>
      </trkpt>
      <trkpt lat="43.4287" lon="6.10029">
        <ele>287.79998779297</ele>
        <time>2016-01-06T15:35:20Z</time>
      </trkpt>
      <trkpt lat="43.4287" lon="6.10029">
        <ele>287.79998779297</ele>
        <time>2016-01-06T15:35:22Z</time>
      </trkpt>
      <trkpt lat="43.4287" lon="6.10029">
        <ele>287.79998779297</ele>
        <time>2016-01-06T15:35:24Z</time>
      </trkpt>
      <trkpt lat="43.4287" lon="6.10029">
        <ele>288</ele>
        <time>2016-01-06T15:35:26Z</time>
      </trkpt>
      <trkpt lat="43.4287" lon="6.10029">
        <ele>287.79998779297</ele>
        <time>2016-01-06T15:35:28Z</time>
      </trkpt>
      <trkpt lat="43.4287" lon="6.10029">
        <ele>288</ele>
        <time>2016-01-06T15:35:30Z</time>
      </trkpt>
      <trkpt lat="43.4287" lon="6.10029">
        <ele>287.39999389648</ele>
        <time>2016-01-06T15:35:32Z</time>
      </trkpt>
      <trkpt lat="43.4287" lon="6.10029">
        <ele>287.60000610352</ele>
        <time>2016-01-06T15:35:34Z</time>
      </trkpt>
      <trkpt lat="43.4287" lon="6.10029">
        <ele>287.60000610352</ele>
        <time>2016-01-06T15:35:36Z</time>
      </trkpt>
      <trkpt lat="43.4287" lon="6.10029">
        <ele>287.79998779297</ele>
        <time>2016-01-06T15:35:38Z</time>
      </trkpt>
      <trkpt lat="43.4287" lon="6.10028">
        <ele>288</ele>
        <time>2016-01-06T15:35:40Z</time>
      </trkpt>
      <trkpt lat="43.4287" lon="6.10028">
        <ele>287.79998779297</ele>
        <time>2016-01-06T15:35:41Z</time>
      </trkpt>
      <trkpt lat="43.4287" lon="6.10028">
        <ele>287.79998779297</ele>
        <time>2016-01-06T15:35:42Z</time>
      </trkpt>
      <trkpt lat="43.4287" lon="6.10028">
        <ele>287.60000610352</ele>
        <time>2016-01-06T15:35:44Z</time>
      </trkpt>
      <trkpt lat="43.4287" lon="6.10028">
        <ele>287.60000610352</ele>
        <time>2016-01-06T15:35:46Z</time>
      </trkpt>
      <trkpt lat="43.4287" lon="6.10028">
        <ele>287.60000610352</ele>
        <time>2016-01-06T15:35:48Z</time>
      </trkpt>
      <trkpt lat="43.42871" lon="6.10026">
        <ele>287.79998779297</ele>
        <time>2016-01-06T15:35:50Z</time>
      </trkpt>
      <trkpt lat="43.42871" lon="6.10025">
        <ele>288</ele>
        <time>2016-01-06T15:35:51Z</time>
      </trkpt>
      <trkpt lat="43.42873" lon="6.10024">
        <ele>288.20001220703</ele>
        <time>2016-01-06T15:35:52Z</time>
      </trkpt>
      <trkpt lat="43.42876" lon="6.10022">
        <ele>288.20001220703</ele>
        <time>2016-01-06T15:35:54Z</time>
      </trkpt>
      <trkpt lat="43.42879" lon="6.10019">
        <ele>288.20001220703</ele>
        <time>2016-01-06T15:35:56Z</time>
      </trkpt>
      <trkpt lat="43.42883" lon="6.10017">
        <ele>288.20001220703</ele>
        <time>2016-01-06T15:35:58Z</time>
      </trkpt>
      <trkpt lat="43.42886" lon="6.10013">
        <ele>288</ele>
        <time>2016-01-06T15:36:00Z</time>
      </trkpt>
      <trkpt lat="43.42887" lon="6.10008">
        <ele>287.79998779297</ele>
        <time>2016-01-06T15:36:01Z</time>
      </trkpt>
      <trkpt lat="43.42889" lon="6.10003">
        <ele>287</ele>
        <time>2016-01-06T15:36:02Z</time>
      </trkpt>
      <trkpt lat="43.42891" lon="6.09998">
        <ele>286.20001220703</ele>
        <time>2016-01-06T15:36:03Z</time>
      </trkpt>
      <trkpt lat="43.42893" lon="6.09993">
        <ele>285.20001220703</ele>
        <time>2016-01-06T15:36:04Z</time>
      </trkpt>
      <trkpt lat="43.42896" lon="6.09989">
        <ele>284.79998779297</ele>
        <time>2016-01-06T15:36:05Z</time>
      </trkpt>
      <trkpt lat="43.42898" lon="6.09984">
        <ele>284.60000610352</ele>
        <time>2016-01-06T15:36:06Z</time>
      </trkpt>
      <trkpt lat="43.429" lon="6.09979">
        <ele>284.60000610352</ele>
        <time>2016-01-06T15:36:07Z</time>
      </trkpt>
      <trkpt lat="43.42902" lon="6.09974">
        <ele>284.20001220703</ele>
        <time>2016-01-06T15:36:08Z</time>
      </trkpt>
      <trkpt lat="43.42905" lon="6.09969">
        <ele>283.79998779297</ele>
        <time>2016-01-06T15:36:09Z</time>
      </trkpt>
      <trkpt lat="43.42908" lon="6.09966">
        <ele>283.79998779297</ele>
        <time>2016-01-06T15:36:10Z</time>
      </trkpt>
      <trkpt lat="43.42915" lon="6.09959">
        <ele>283.20001220703</ele>
        <time>2016-01-06T15:36:12Z</time>
      </trkpt>
      <trkpt lat="43.42922" lon="6.09954">
        <ele>283.20001220703</ele>
        <time>2016-01-06T15:36:14Z</time>
      </trkpt>
      <trkpt lat="43.42928" lon="6.09951">
        <ele>282.79998779297</ele>
        <time>2016-01-06T15:36:16Z</time>
      </trkpt>
      <trkpt lat="43.42931" lon="6.0995">
        <ele>282.60000610352</ele>
        <time>2016-01-06T15:36:17Z</time>
      </trkpt>
      <trkpt lat="43.42934" lon="6.09948">
        <ele>282.79998779297</ele>
        <time>2016-01-06T15:36:18Z</time>
      </trkpt>
      <trkpt lat="43.4294" lon="6.09947">
        <ele>282.79998779297</ele>
        <time>2016-01-06T15:36:20Z</time>
      </trkpt>
      <trkpt lat="43.42946" lon="6.09941">
        <ele>282</ele>
        <time>2016-01-06T15:36:22Z</time>
      </trkpt>
      <trkpt lat="43.42949" lon="6.09935">
        <ele>281.60000610352</ele>
        <time>2016-01-06T15:36:23Z</time>
      </trkpt>
      <trkpt lat="43.4295" lon="6.09929">
        <ele>281.39999389648</ele>
        <time>2016-01-06T15:36:24Z</time>
      </trkpt>
      <trkpt lat="43.4295" lon="6.09921">
        <ele>280.39999389648</ele>
        <time>2016-01-06T15:36:25Z</time>
      </trkpt>
      <trkpt lat="43.42952" lon="6.09913">
        <ele>279.20001220703</ele>
        <time>2016-01-06T15:36:26Z</time>
      </trkpt>
      <trkpt lat="43.42953" lon="6.09896">
        <ele>279.39999389648</ele>
        <time>2016-01-06T15:36:28Z</time>
      </trkpt>
      <trkpt lat="43.42954" lon="6.09881">
        <ele>278.60000610352</ele>
        <time>2016-01-06T15:36:30Z</time>
      </trkpt>
      <trkpt lat="43.42955" lon="6.09873">
        <ele>278.39999389648</ele>
        <time>2016-01-06T15:36:31Z</time>
      </trkpt>
      <trkpt lat="43.42956" lon="6.09866">
        <ele>278</ele>
        <time>2016-01-06T15:36:32Z</time>
      </trkpt>
      <trkpt lat="43.42957" lon="6.09852">
        <ele>277.79998779297</ele>
        <time>2016-01-06T15:36:34Z</time>
      </trkpt>
      <trkpt lat="43.42956" lon="6.09837">
        <ele>277.79998779297</ele>
        <time>2016-01-06T15:36:36Z</time>
      </trkpt>
      <trkpt lat="43.42955" lon="6.09824">
        <ele>277.60000610352</ele>
        <time>2016-01-06T15:36:38Z</time>
      </trkpt>
      <trkpt lat="43.42957" lon="6.09811">
        <ele>277.20001220703</ele>
        <time>2016-01-06T15:36:40Z</time>
      </trkpt>
      <trkpt lat="43.42958" lon="6.09805">
        <ele>276.79998779297</ele>
        <time>2016-01-06T15:36:41Z</time>
      </trkpt>
      <trkpt lat="43.4296" lon="6.09798">
        <ele>275.60000610352</ele>
        <time>2016-01-06T15:36:42Z</time>
      </trkpt>
      <trkpt lat="43.42962" lon="6.09791">
        <ele>274.39999389648</ele>
        <time>2016-01-06T15:36:43Z</time>
      </trkpt>
      <trkpt lat="43.42962" lon="6.09784">
        <ele>273.60000610352</ele>
        <time>2016-01-06T15:36:44Z</time>
      </trkpt>
      <trkpt lat="43.42963" lon="6.09776">
        <ele>274</ele>
        <time>2016-01-06T15:36:45Z</time>
      </trkpt>
      <trkpt lat="43.42963" lon="6.09766">
        <ele>274</ele>
        <time>2016-01-06T15:36:46Z</time>
      </trkpt>
      <trkpt lat="43.42964" lon="6.09758">
        <ele>273.60000610352</ele>
        <time>2016-01-06T15:36:47Z</time>
      </trkpt>
      <trkpt lat="43.42965" lon="6.0975">
        <ele>273.20001220703</ele>
        <time>2016-01-06T15:36:48Z</time>
      </trkpt>
      <trkpt lat="43.42966" lon="6.09741">
        <ele>272.79998779297</ele>
        <time>2016-01-06T15:36:50Z</time>
      </trkpt>
      <trkpt lat="43.42967" lon="6.09739">
        <ele>272.60000610352</ele>
        <time>2016-01-06T15:36:51Z</time>
      </trkpt>
      <trkpt lat="43.42967" lon="6.09736">
        <ele>272.60000610352</ele>
        <time>2016-01-06T15:36:52Z</time>
      </trkpt>
      <trkpt lat="43.42968" lon="6.0973">
        <ele>272.60000610352</ele>
        <time>2016-01-06T15:36:54Z</time>
      </trkpt>
      <trkpt lat="43.42968" lon="6.09723">
        <ele>272</ele>
        <time>2016-01-06T15:36:56Z</time>
      </trkpt>
      <trkpt lat="43.42968" lon="6.09718">
        <ele>271.60000610352</ele>
        <time>2016-01-06T15:36:57Z</time>
      </trkpt>
      <trkpt lat="43.42966" lon="6.09711">
        <ele>271.20001220703</ele>
        <time>2016-01-06T15:36:58Z</time>
      </trkpt>
      <trkpt lat="43.42967" lon="6.09705">
        <ele>270.79998779297</ele>
        <time>2016-01-06T15:36:59Z</time>
      </trkpt>
      <trkpt lat="43.42968" lon="6.09697">
        <ele>270.60000610352</ele>
        <time>2016-01-06T15:37:00Z</time>
      </trkpt>
      <trkpt lat="43.42969" lon="6.0969">
        <ele>270.79998779297</ele>
        <time>2016-01-06T15:37:01Z</time>
      </trkpt>
      <trkpt lat="43.42969" lon="6.09682">
        <ele>270.60000610352</ele>
        <time>2016-01-06T15:37:02Z</time>
      </trkpt>
      <trkpt lat="43.42971" lon="6.09666">
        <ele>269.39999389648</ele>
        <time>2016-01-06T15:37:04Z</time>
      </trkpt>
      <trkpt lat="43.42971" lon="6.0965">
        <ele>269</ele>
        <time>2016-01-06T15:37:06Z</time>
      </trkpt>
      <trkpt lat="43.42972" lon="6.09638">
        <ele>269.20001220703</ele>
        <time>2016-01-06T15:37:08Z</time>
      </trkpt>
      <trkpt lat="43.42973" lon="6.09626">
        <ele>269.20001220703</ele>
        <time>2016-01-06T15:37:10Z</time>
      </trkpt>
      <trkpt lat="43.42973" lon="6.0962">
        <ele>268.20001220703</ele>
        <time>2016-01-06T15:37:11Z</time>
      </trkpt>
      <trkpt lat="43.42973" lon="6.09614">
        <ele>267.79998779297</ele>
        <time>2016-01-06T15:37:12Z</time>
      </trkpt>
      <trkpt lat="43.42974" lon="6.09601">
        <ele>268.39999389648</ele>
        <time>2016-01-06T15:37:14Z</time>
      </trkpt>
      <trkpt lat="43.42975" lon="6.0959">
        <ele>268</ele>
        <time>2016-01-06T15:37:16Z</time>
      </trkpt>
      <trkpt lat="43.42977" lon="6.09577">
        <ele>268.39999389648</ele>
        <time>2016-01-06T15:37:18Z</time>
      </trkpt>
      <trkpt lat="43.42978" lon="6.0957">
        <ele>267.39999389648</ele>
        <time>2016-01-06T15:37:19Z</time>
      </trkpt>
      <trkpt lat="43.42979" lon="6.09564">
        <ele>267</ele>
        <time>2016-01-06T15:37:20Z</time>
      </trkpt>
      <trkpt lat="43.42981" lon="6.09559">
        <ele>267.60000610352</ele>
        <time>2016-01-06T15:37:21Z</time>
      </trkpt>
      <trkpt lat="43.42982" lon="6.09553">
        <ele>268</ele>
        <time>2016-01-06T15:37:22Z</time>
      </trkpt>
      <trkpt lat="43.42984" lon="6.09546">
        <ele>267.79998779297</ele>
        <time>2016-01-06T15:37:24Z</time>
      </trkpt>
      <trkpt lat="43.42986" lon="6.09542">
        <ele>268.79998779297</ele>
        <time>2016-01-06T15:37:26Z</time>
      </trkpt>
      <trkpt lat="43.42987" lon="6.09541">
        <ele>269</ele>
        <time>2016-01-06T15:37:27Z</time>
      </trkpt>
      <trkpt lat="43.42987" lon="6.09539">
        <ele>269</ele>
        <time>2016-01-06T15:37:28Z</time>
      </trkpt>
      <trkpt lat="43.42987" lon="6.09538">
        <ele>269.20001220703</ele>
        <time>2016-01-06T15:37:29Z</time>
      </trkpt>
      <trkpt lat="43.42988" lon="6.09536">
        <ele>269.39999389648</ele>
        <time>2016-01-06T15:37:30Z</time>
      </trkpt>
      <trkpt lat="43.42988" lon="6.09532">
        <ele>270.20001220703</ele>
        <time>2016-01-06T15:37:32Z</time>
      </trkpt>
      <trkpt lat="43.42989" lon="6.09528">
        <ele>270.79998779297</ele>
        <time>2016-01-06T15:37:34Z</time>
      </trkpt>
      <trkpt lat="43.42989" lon="6.09526">
        <ele>271</ele>
        <time>2016-01-06T15:37:35Z</time>
      </trkpt>
      <trkpt lat="43.42988" lon="6.09523">
        <ele>271.39999389648</ele>
        <time>2016-01-06T15:37:36Z</time>
      </trkpt>
      <trkpt lat="43.42987" lon="6.09516">
        <ele>271.79998779297</ele>
        <time>2016-01-06T15:37:38Z</time>
      </trkpt>
      <trkpt lat="43.42985" lon="6.09508">
        <ele>271.39999389648</ele>
        <time>2016-01-06T15:37:40Z</time>
      </trkpt>
      <trkpt lat="43.42984" lon="6.09497">
        <ele>270</ele>
        <time>2016-01-06T15:37:42Z</time>
      </trkpt>
      <trkpt lat="43.42985" lon="6.09484">
        <ele>269.60000610352</ele>
        <time>2016-01-06T15:37:44Z</time>
      </trkpt>
      <trkpt lat="43.42985" lon="6.09472">
        <ele>269.20001220703</ele>
        <time>2016-01-06T15:37:46Z</time>
      </trkpt>
      <trkpt lat="43.42985" lon="6.09466">
        <ele>268.39999389648</ele>
        <time>2016-01-06T15:37:47Z</time>
      </trkpt>
      <trkpt lat="43.42985" lon="6.09459">
        <ele>267.39999389648</ele>
        <time>2016-01-06T15:37:48Z</time>
      </trkpt>
      <trkpt lat="43.42986" lon="6.09445">
        <ele>267.39999389648</ele>
        <time>2016-01-06T15:37:50Z</time>
      </trkpt>
      <trkpt lat="43.42987" lon="6.0944">
        <ele>267.39999389648</ele>
        <time>2016-01-06T15:37:51Z</time>
      </trkpt>
      <trkpt lat="43.42987" lon="6.09435">
        <ele>267.39999389648</ele>
        <time>2016-01-06T15:37:52Z</time>
      </trkpt>
      <trkpt lat="43.42987" lon="6.09429">
        <ele>267.20001220703</ele>
        <time>2016-01-06T15:37:54Z</time>
      </trkpt>
      <trkpt lat="43.42986" lon="6.09428">
        <ele>267.20001220703</ele>
        <time>2016-01-06T15:37:55Z</time>
      </trkpt>
      <trkpt lat="43.42985" lon="6.09427">
        <ele>267.20001220703</ele>
        <time>2016-01-06T15:37:56Z</time>
      </trkpt>
      <trkpt lat="43.42984" lon="6.09427">
        <ele>267</ele>
        <time>2016-01-06T15:37:58Z</time>
      </trkpt>
      <trkpt lat="43.42984" lon="6.09427">
        <ele>266.79998779297</ele>
        <time>2016-01-06T15:37:59Z</time>
      </trkpt>
      <trkpt lat="43.42984" lon="6.09428">
        <ele>266.79998779297</ele>
        <time>2016-01-06T15:38:00Z</time>
      </trkpt>
      <trkpt lat="43.42984" lon="6.09428">
        <ele>266.60000610352</ele>
        <time>2016-01-06T15:38:02Z</time>
      </trkpt>
      <trkpt lat="43.42984" lon="6.09428">
        <ele>266.79998779297</ele>
        <time>2016-01-06T15:38:04Z</time>
      </trkpt>
      <trkpt lat="43.42984" lon="6.09428">
        <ele>267.39999389648</ele>
        <time>2016-01-06T15:38:06Z</time>
      </trkpt>
      <trkpt lat="43.42984" lon="6.09428">
        <ele>267.79998779297</ele>
        <time>2016-01-06T15:38:08Z</time>
      </trkpt>
      <trkpt lat="43.42984" lon="6.09428">
        <ele>267.79998779297</ele>
        <time>2016-01-06T15:38:10Z</time>
      </trkpt>
      <trkpt lat="43.42984" lon="6.09428">
        <ele>267.60000610352</ele>
        <time>2016-01-06T15:38:12Z</time>
      </trkpt>
      <trkpt lat="43.42984" lon="6.09428">
        <ele>267.79998779297</ele>
        <time>2016-01-06T15:38:14Z</time>
      </trkpt>
      <trkpt lat="43.42984" lon="6.09428">
        <ele>267.39999389648</ele>
        <time>2016-01-06T15:38:16Z</time>
      </trkpt>
      <trkpt lat="43.42984" lon="6.09428">
        <ele>267</ele>
        <time>2016-01-06T15:38:18Z</time>
      </trkpt>
      <trkpt lat="43.42984" lon="6.09428">
        <ele>266.79998779297</ele>
        <time>2016-01-06T15:38:20Z</time>
      </trkpt>
      <trkpt lat="43.42984" lon="6.09428">
        <ele>267</ele>
        <time>2016-01-06T15:38:21Z</time>
      </trkpt>
      <trkpt lat="43.42984" lon="6.09428">
        <ele>267</ele>
        <time>2016-01-06T15:38:22Z</time>
      </trkpt>
      <trkpt lat="43.42984" lon="6.09428">
        <ele>267</ele>
        <time>2016-01-06T15:38:24Z</time>
      </trkpt>
      <trkpt lat="43.42984" lon="6.09428">
        <ele>267</ele>
        <time>2016-01-06T15:38:26Z</time>
      </trkpt>
      <trkpt lat="43.42984" lon="6.09428">
        <ele>267.20001220703</ele>
        <time>2016-01-06T15:38:28Z</time>
      </trkpt>
      <trkpt lat="43.42984" lon="6.09428">
        <ele>267</ele>
        <time>2016-01-06T15:38:30Z</time>
      </trkpt>
      <trkpt lat="43.42984" lon="6.09428">
        <ele>266.79998779297</ele>
        <time>2016-01-06T15:38:32Z</time>
      </trkpt>
      <trkpt lat="43.42984" lon="6.09428">
        <ele>266.60000610352</ele>
        <time>2016-01-06T15:38:34Z</time>
      </trkpt>
      <trkpt lat="43.42984" lon="6.09428">
        <ele>267</ele>
        <time>2016-01-06T15:38:36Z</time>
      </trkpt>
      <trkpt lat="43.42981" lon="6.09428">
        <ele>267.20001220703</ele>
        <time>2016-01-06T15:38:38Z</time>
      </trkpt>
      <trkpt lat="43.42978" lon="6.09428">
        <ele>267.39999389648</ele>
        <time>2016-01-06T15:38:39Z</time>
      </trkpt>
      <trkpt lat="43.42976" lon="6.09429">
        <ele>267.39999389648</ele>
        <time>2016-01-06T15:38:40Z</time>
      </trkpt>
      <trkpt lat="43.4297" lon="6.09432">
        <ele>267</ele>
        <time>2016-01-06T15:38:42Z</time>
      </trkpt>
      <trkpt lat="43.42965" lon="6.09436">
        <ele>266.60000610352</ele>
        <time>2016-01-06T15:38:44Z</time>
      </trkpt>
      <trkpt lat="43.42962" lon="6.09438">
        <ele>266.20001220703</ele>
        <time>2016-01-06T15:38:45Z</time>
      </trkpt>
      <trkpt lat="43.42958" lon="6.0944">
        <ele>265.79998779297</ele>
        <time>2016-01-06T15:38:46Z</time>
      </trkpt>
      <trkpt lat="43.42953" lon="6.0944">
        <ele>265.60000610352</ele>
        <time>2016-01-06T15:38:48Z</time>
      </trkpt>
      <trkpt lat="43.42947" lon="6.09438">
        <ele>265.39999389648</ele>
        <time>2016-01-06T15:38:50Z</time>
      </trkpt>
      <trkpt lat="43.42941" lon="6.09435">
        <ele>265</ele>
        <time>2016-01-06T15:38:52Z</time>
      </trkpt>
      <trkpt lat="43.42939" lon="6.09433">
        <ele>264.79998779297</ele>
        <time>2016-01-06T15:38:53Z</time>
      </trkpt>
      <trkpt lat="43.42936" lon="6.09432">
        <ele>264.60000610352</ele>
        <time>2016-01-06T15:38:54Z</time>
      </trkpt>
      <trkpt lat="43.42931" lon="6.0943">
        <ele>264.60000610352</ele>
        <time>2016-01-06T15:38:56Z</time>
      </trkpt>
      <trkpt lat="43.42926" lon="6.09427">
        <ele>265</ele>
        <time>2016-01-06T15:38:58Z</time>
      </trkpt>
      <trkpt lat="43.42921" lon="6.09423">
        <ele>265.20001220703</ele>
        <time>2016-01-06T15:39:00Z</time>
      </trkpt>
      <trkpt lat="43.42918" lon="6.0942">
        <ele>265.39999389648</ele>
        <time>2016-01-06T15:39:02Z</time>
      </trkpt>
      <trkpt lat="43.42916" lon="6.09417">
        <ele>265.39999389648</ele>
        <time>2016-01-06T15:39:04Z</time>
      </trkpt>
      <trkpt lat="43.42912" lon="6.09414">
        <ele>265</ele>
        <time>2016-01-06T15:39:06Z</time>
      </trkpt>
      <trkpt lat="43.42908" lon="6.0941">
        <ele>265</ele>
        <time>2016-01-06T15:39:08Z</time>
      </trkpt>
      <trkpt lat="43.42904" lon="6.09406">
        <ele>264.79998779297</ele>
        <time>2016-01-06T15:39:10Z</time>
      </trkpt>
      <trkpt lat="43.429" lon="6.09401">
        <ele>265</ele>
        <time>2016-01-06T15:39:12Z</time>
      </trkpt>
      <trkpt lat="43.42899" lon="6.09394">
        <ele>265.39999389648</ele>
        <time>2016-01-06T15:39:14Z</time>
      </trkpt>
      <trkpt lat="43.42899" lon="6.09387">
        <ele>266</ele>
        <time>2016-01-06T15:39:16Z</time>
      </trkpt>
      <trkpt lat="43.429" lon="6.09382">
        <ele>266.20001220703</ele>
        <time>2016-01-06T15:39:18Z</time>
      </trkpt>
      <trkpt lat="43.42901" lon="6.09376">
        <ele>266</ele>
        <time>2016-01-06T15:39:20Z</time>
      </trkpt>
      <trkpt lat="43.42902" lon="6.0937">
        <ele>266</ele>
        <time>2016-01-06T15:39:22Z</time>
      </trkpt>
      <trkpt lat="43.42901" lon="6.09367">
        <ele>266.20001220703</ele>
        <time>2016-01-06T15:39:23Z</time>
      </trkpt>
      <trkpt lat="43.42901" lon="6.09363">
        <ele>266.39999389648</ele>
        <time>2016-01-06T15:39:24Z</time>
      </trkpt>
      <trkpt lat="43.429" lon="6.09357">
        <ele>266.20001220703</ele>
        <time>2016-01-06T15:39:26Z</time>
      </trkpt>
      <trkpt lat="43.429" lon="6.09352">
        <ele>266.60000610352</ele>
        <time>2016-01-06T15:39:28Z</time>
      </trkpt>
      <trkpt lat="43.42901" lon="6.09348">
        <ele>266.60000610352</ele>
        <time>2016-01-06T15:39:30Z</time>
      </trkpt>
      <trkpt lat="43.42902" lon="6.09346">
        <ele>266.60000610352</ele>
        <time>2016-01-06T15:39:31Z</time>
      </trkpt>
      <trkpt lat="43.42902" lon="6.09343">
        <ele>266.39999389648</ele>
        <time>2016-01-06T15:39:32Z</time>
      </trkpt>
      <trkpt lat="43.42903" lon="6.09337">
        <ele>266.60000610352</ele>
        <time>2016-01-06T15:39:34Z</time>
      </trkpt>
      <trkpt lat="43.42904" lon="6.09331">
        <ele>266.20001220703</ele>
        <time>2016-01-06T15:39:36Z</time>
      </trkpt>
      <trkpt lat="43.42905" lon="6.09324">
        <ele>266.60000610352</ele>
        <time>2016-01-06T15:39:38Z</time>
      </trkpt>
      <trkpt lat="43.42906" lon="6.09318">
        <ele>266.60000610352</ele>
        <time>2016-01-06T15:39:40Z</time>
      </trkpt>
      <trkpt lat="43.42906" lon="6.09316">
        <ele>267</ele>
        <time>2016-01-06T15:39:41Z</time>
      </trkpt>
      <trkpt lat="43.42906" lon="6.09312">
        <ele>267.39999389648</ele>
        <time>2016-01-06T15:39:42Z</time>
      </trkpt>
      <trkpt lat="43.42907" lon="6.09306">
        <ele>267.60000610352</ele>
        <time>2016-01-06T15:39:44Z</time>
      </trkpt>
      <trkpt lat="43.42907" lon="6.093">
        <ele>267.79998779297</ele>
        <time>2016-01-06T15:39:46Z</time>
      </trkpt>
      <trkpt lat="43.42907" lon="6.09297">
        <ele>268.20001220703</ele>
        <time>2016-01-06T15:39:47Z</time>
      </trkpt>
      <trkpt lat="43.42907" lon="6.09294">
        <ele>268.39999389648</ele>
        <time>2016-01-06T15:39:48Z</time>
      </trkpt>
      <trkpt lat="43.42907" lon="6.09288">
        <ele>267.60000610352</ele>
        <time>2016-01-06T15:39:50Z</time>
      </trkpt>
      <trkpt lat="43.42906" lon="6.09283">
        <ele>267.79998779297</ele>
        <time>2016-01-06T15:39:52Z</time>
      </trkpt>
      <trkpt lat="43.42905" lon="6.09278">
        <ele>267.60000610352</ele>
        <time>2016-01-06T15:39:54Z</time>
      </trkpt>
      <trkpt lat="43.42902" lon="6.09273">
        <ele>267.60000610352</ele>
        <time>2016-01-06T15:39:56Z</time>
      </trkpt>
      <trkpt lat="43.42902" lon="6.0927">
        <ele>267.60000610352</ele>
        <time>2016-01-06T15:39:57Z</time>
      </trkpt>
      <trkpt lat="43.42902" lon="6.09268">
        <ele>267.79998779297</ele>
        <time>2016-01-06T15:39:58Z</time>
      </trkpt>
      <trkpt lat="43.42901" lon="6.09263">
        <ele>268.60000610352</ele>
        <time>2016-01-06T15:40:00Z</time>
      </trkpt>
      <trkpt lat="43.429" lon="6.09258">
        <ele>269.60000610352</ele>
        <time>2016-01-06T15:40:02Z</time>
      </trkpt>
      <trkpt lat="43.42899" lon="6.09253">
        <ele>270</ele>
        <time>2016-01-06T15:40:04Z</time>
      </trkpt>
      <trkpt lat="43.42899" lon="6.09248">
        <ele>270.20001220703</ele>
        <time>2016-01-06T15:40:06Z</time>
      </trkpt>
      <trkpt lat="43.42898" lon="6.09243">
        <ele>270.20001220703</ele>
        <time>2016-01-06T15:40:08Z</time>
      </trkpt>
      <trkpt lat="43.42897" lon="6.09237">
        <ele>270.20001220703</ele>
        <time>2016-01-06T15:40:10Z</time>
      </trkpt>
      <trkpt lat="43.42898" lon="6.09232">
        <ele>270.20001220703</ele>
        <time>2016-01-06T15:40:12Z</time>
      </trkpt>
      <trkpt lat="43.42899" lon="6.09226">
        <ele>271.20001220703</ele>
        <time>2016-01-06T15:40:14Z</time>
      </trkpt>
      <trkpt lat="43.429" lon="6.09223">
        <ele>271.79998779297</ele>
        <time>2016-01-06T15:40:15Z</time>
      </trkpt>
      <trkpt lat="43.42901" lon="6.09221">
        <ele>272</ele>
        <time>2016-01-06T15:40:16Z</time>
      </trkpt>
      <trkpt lat="43.42903" lon="6.09216">
        <ele>271.60000610352</ele>
        <time>2016-01-06T15:40:18Z</time>
      </trkpt>
      <trkpt lat="43.42905" lon="6.09211">
        <ele>271.79998779297</ele>
        <time>2016-01-06T15:40:20Z</time>
      </trkpt>
      <trkpt lat="43.42907" lon="6.09209">
        <ele>271.39999389648</ele>
        <time>2016-01-06T15:40:21Z</time>
      </trkpt>
      <trkpt lat="43.42908" lon="6.09207">
        <ele>271.20001220703</ele>
        <time>2016-01-06T15:40:22Z</time>
      </trkpt>
      <trkpt lat="43.42911" lon="6.09204">
        <ele>271</ele>
        <time>2016-01-06T15:40:24Z</time>
      </trkpt>
      <trkpt lat="43.42915" lon="6.09201">
        <ele>271.39999389648</ele>
        <time>2016-01-06T15:40:26Z</time>
      </trkpt>
      <trkpt lat="43.42918" lon="6.09198">
        <ele>272.39999389648</ele>
        <time>2016-01-06T15:40:28Z</time>
      </trkpt>
      <trkpt lat="43.42922" lon="6.09195">
        <ele>272.79998779297</ele>
        <time>2016-01-06T15:40:30Z</time>
      </trkpt>
      <trkpt lat="43.42925" lon="6.09193">
        <ele>272.79998779297</ele>
        <time>2016-01-06T15:40:32Z</time>
      </trkpt>
      <trkpt lat="43.42928" lon="6.09189">
        <ele>273</ele>
        <time>2016-01-06T15:40:34Z</time>
      </trkpt>
      <trkpt lat="43.42929" lon="6.09186">
        <ele>273.60000610352</ele>
        <time>2016-01-06T15:40:36Z</time>
      </trkpt>
      <trkpt lat="43.42931" lon="6.09183">
        <ele>273.79998779297</ele>
        <time>2016-01-06T15:40:38Z</time>
      </trkpt>
      <trkpt lat="43.42931" lon="6.09181">
        <ele>274</ele>
        <time>2016-01-06T15:40:39Z</time>
      </trkpt>
      <trkpt lat="43.4293" lon="6.09179">
        <ele>274</ele>
        <time>2016-01-06T15:40:40Z</time>
      </trkpt>
      <trkpt lat="43.42931" lon="6.09175">
        <ele>273.60000610352</ele>
        <time>2016-01-06T15:40:42Z</time>
      </trkpt>
      <trkpt lat="43.4293" lon="6.09171">
        <ele>274</ele>
        <time>2016-01-06T15:40:44Z</time>
      </trkpt>
      <trkpt lat="43.4293" lon="6.09169">
        <ele>274.20001220703</ele>
        <time>2016-01-06T15:40:45Z</time>
      </trkpt>
      <trkpt lat="43.4293" lon="6.09168">
        <ele>274.20001220703</ele>
        <time>2016-01-06T15:40:46Z</time>
      </trkpt>
      <trkpt lat="43.42929" lon="6.09164">
        <ele>274.60000610352</ele>
        <time>2016-01-06T15:40:48Z</time>
      </trkpt>
      <trkpt lat="43.4293" lon="6.09162">
        <ele>274.79998779297</ele>
        <time>2016-01-06T15:40:49Z</time>
      </trkpt>
      <trkpt lat="43.4293" lon="6.0916">
        <ele>274.79998779297</ele>
        <time>2016-01-06T15:40:50Z</time>
      </trkpt>
      <trkpt lat="43.42931" lon="6.09157">
        <ele>274.79998779297</ele>
        <time>2016-01-06T15:40:52Z</time>
      </trkpt>
      <trkpt lat="43.42931" lon="6.09154">
        <ele>275.39999389648</ele>
        <time>2016-01-06T15:40:54Z</time>
      </trkpt>
      <trkpt lat="43.42931" lon="6.09152">
        <ele>275.60000610352</ele>
        <time>2016-01-06T15:40:55Z</time>
      </trkpt>
      <trkpt lat="43.42931" lon="6.0915">
        <ele>275.60000610352</ele>
        <time>2016-01-06T15:40:56Z</time>
      </trkpt>
      <trkpt lat="43.42931" lon="6.09146">
        <ele>275.60000610352</ele>
        <time>2016-01-06T15:40:58Z</time>
      </trkpt>
      <trkpt lat="43.4293" lon="6.09142">
        <ele>276</ele>
        <time>2016-01-06T15:41:00Z</time>
      </trkpt>
      <trkpt lat="43.4293" lon="6.09138">
        <ele>276.20001220703</ele>
        <time>2016-01-06T15:41:02Z</time>
      </trkpt>
      <trkpt lat="43.4293" lon="6.09134">
        <ele>276.20001220703</ele>
        <time>2016-01-06T15:41:04Z</time>
      </trkpt>
      <trkpt lat="43.42931" lon="6.09131">
        <ele>276.60000610352</ele>
        <time>2016-01-06T15:41:06Z</time>
      </trkpt>
      <trkpt lat="43.42931" lon="6.09129">
        <ele>276.79998779297</ele>
        <time>2016-01-06T15:41:07Z</time>
      </trkpt>
      <trkpt lat="43.42931" lon="6.09127">
        <ele>277.20001220703</ele>
        <time>2016-01-06T15:41:08Z</time>
      </trkpt>
      <trkpt lat="43.42933" lon="6.09124">
        <ele>277.60000610352</ele>
        <time>2016-01-06T15:41:10Z</time>
      </trkpt>
      <trkpt lat="43.42933" lon="6.09123">
        <ele>278</ele>
        <time>2016-01-06T15:41:11Z</time>
      </trkpt>
      <trkpt lat="43.42934" lon="6.09121">
        <ele>278</ele>
        <time>2016-01-06T15:41:12Z</time>
      </trkpt>
      <trkpt lat="43.42935" lon="6.09119">
        <ele>278.60000610352</ele>
        <time>2016-01-06T15:41:14Z</time>
      </trkpt>
      <trkpt lat="43.42936" lon="6.09116">
        <ele>279</ele>
        <time>2016-01-06T15:41:16Z</time>
      </trkpt>
      <trkpt lat="43.42937" lon="6.09114">
        <ele>279.20001220703</ele>
        <time>2016-01-06T15:41:17Z</time>
      </trkpt>
      <trkpt lat="43.42937" lon="6.09113">
        <ele>279.39999389648</ele>
        <time>2016-01-06T15:41:18Z</time>
      </trkpt>
      <trkpt lat="43.4294" lon="6.0911">
        <ele>280.39999389648</ele>
        <time>2016-01-06T15:41:20Z</time>
      </trkpt>
      <trkpt lat="43.42942" lon="6.09108">
        <ele>280.79998779297</ele>
        <time>2016-01-06T15:41:22Z</time>
      </trkpt>
      <trkpt lat="43.42943" lon="6.09106">
        <ele>281</ele>
        <time>2016-01-06T15:41:23Z</time>
      </trkpt>
      <trkpt lat="43.42944" lon="6.09105">
        <ele>281.20001220703</ele>
        <time>2016-01-06T15:41:24Z</time>
      </trkpt>
      <trkpt lat="43.42945" lon="6.09103">
        <ele>281.20001220703</ele>
        <time>2016-01-06T15:41:26Z</time>
      </trkpt>
      <trkpt lat="43.42947" lon="6.09102">
        <ele>281.39999389648</ele>
        <time>2016-01-06T15:41:27Z</time>
      </trkpt>
      <trkpt lat="43.42947" lon="6.09101">
        <ele>281.79998779297</ele>
        <time>2016-01-06T15:41:28Z</time>
      </trkpt>
      <trkpt lat="43.42948" lon="6.091">
        <ele>282</ele>
        <time>2016-01-06T15:41:29Z</time>
      </trkpt>
      <trkpt lat="43.42949" lon="6.09099">
        <ele>282.39999389648</ele>
        <time>2016-01-06T15:41:30Z</time>
      </trkpt>
      <trkpt lat="43.4295" lon="6.09099">
        <ele>282.60000610352</ele>
        <time>2016-01-06T15:41:31Z</time>
      </trkpt>
      <trkpt lat="43.4295" lon="6.09098">
        <ele>282.79998779297</ele>
        <time>2016-01-06T15:41:32Z</time>
      </trkpt>
      <trkpt lat="43.42952" lon="6.09096">
        <ele>283</ele>
        <time>2016-01-06T15:41:34Z</time>
      </trkpt>
      <trkpt lat="43.42953" lon="6.09093">
        <ele>283.39999389648</ele>
        <time>2016-01-06T15:41:36Z</time>
      </trkpt>
      <trkpt lat="43.42955" lon="6.09093">
        <ele>283.60000610352</ele>
        <time>2016-01-06T15:41:37Z</time>
      </trkpt>
      <trkpt lat="43.42956" lon="6.09093">
        <ele>283.79998779297</ele>
        <time>2016-01-06T15:41:38Z</time>
      </trkpt>
      <trkpt lat="43.42958" lon="6.09092">
        <ele>284</ele>
        <time>2016-01-06T15:41:39Z</time>
      </trkpt>
      <trkpt lat="43.42959" lon="6.09091">
        <ele>283.79998779297</ele>
        <time>2016-01-06T15:41:40Z</time>
      </trkpt>
      <trkpt lat="43.4296" lon="6.09091">
        <ele>284.20001220703</ele>
        <time>2016-01-06T15:41:42Z</time>
      </trkpt>
      <trkpt lat="43.42962" lon="6.09091">
        <ele>284.79998779297</ele>
        <time>2016-01-06T15:41:44Z</time>
      </trkpt>
      <trkpt lat="43.42963" lon="6.0909">
        <ele>285</ele>
        <time>2016-01-06T15:41:45Z</time>
      </trkpt>
      <trkpt lat="43.42964" lon="6.0909">
        <ele>285.20001220703</ele>
        <time>2016-01-06T15:41:46Z</time>
      </trkpt>
      <trkpt lat="43.42966" lon="6.09089">
        <ele>285.20001220703</ele>
        <time>2016-01-06T15:41:48Z</time>
      </trkpt>
      <trkpt lat="43.42968" lon="6.09088">
        <ele>285.39999389648</ele>
        <time>2016-01-06T15:41:50Z</time>
      </trkpt>
      <trkpt lat="43.4297" lon="6.09087">
        <ele>285.39999389648</ele>
        <time>2016-01-06T15:41:52Z</time>
      </trkpt>
      <trkpt lat="43.42972" lon="6.09085">
        <ele>285.60000610352</ele>
        <time>2016-01-06T15:41:54Z</time>
      </trkpt>
      <trkpt lat="43.42974" lon="6.09082">
        <ele>285.60000610352</ele>
        <time>2016-01-06T15:41:56Z</time>
      </trkpt>
      <trkpt lat="43.42975" lon="6.09081">
        <ele>286</ele>
        <time>2016-01-06T15:41:57Z</time>
      </trkpt>
      <trkpt lat="43.42976" lon="6.0908">
        <ele>286</ele>
        <time>2016-01-06T15:41:58Z</time>
      </trkpt>
      <trkpt lat="43.42978" lon="6.09078">
        <ele>286</ele>
        <time>2016-01-06T15:42:00Z</time>
      </trkpt>
      <trkpt lat="43.42979" lon="6.09076">
        <ele>286</ele>
        <time>2016-01-06T15:42:01Z</time>
      </trkpt>
      <trkpt lat="43.42981" lon="6.09075">
        <ele>286.20001220703</ele>
        <time>2016-01-06T15:42:02Z</time>
      </trkpt>
      <trkpt lat="43.42983" lon="6.09073">
        <ele>285.79998779297</ele>
        <time>2016-01-06T15:42:03Z</time>
      </trkpt>
      <trkpt lat="43.42985" lon="6.09071">
        <ele>285.39999389648</ele>
        <time>2016-01-06T15:42:04Z</time>
      </trkpt>
      <trkpt lat="43.42987" lon="6.09068">
        <ele>285</ele>
        <time>2016-01-06T15:42:05Z</time>
      </trkpt>
      <trkpt lat="43.42989" lon="6.09065">
        <ele>284.79998779297</ele>
        <time>2016-01-06T15:42:06Z</time>
      </trkpt>
      <trkpt lat="43.42993" lon="6.0906">
        <ele>285</ele>
        <time>2016-01-06T15:42:08Z</time>
      </trkpt>
      <trkpt lat="43.42999" lon="6.09056">
        <ele>284.79998779297</ele>
        <time>2016-01-06T15:42:10Z</time>
      </trkpt>
      <trkpt lat="43.43003" lon="6.09051">
        <ele>284.39999389648</ele>
        <time>2016-01-06T15:42:12Z</time>
      </trkpt>
      <trkpt lat="43.43004" lon="6.09048">
        <ele>284.39999389648</ele>
        <time>2016-01-06T15:42:13Z</time>
      </trkpt>
      <trkpt lat="43.43007" lon="6.09046">
        <ele>284.39999389648</ele>
        <time>2016-01-06T15:42:14Z</time>
      </trkpt>
      <trkpt lat="43.4301" lon="6.09042">
        <ele>284.20001220703</ele>
        <time>2016-01-06T15:42:16Z</time>
      </trkpt>
      <trkpt lat="43.43011" lon="6.09039">
        <ele>284</ele>
        <time>2016-01-06T15:42:17Z</time>
      </trkpt>
      <trkpt lat="43.43013" lon="6.09036">
        <ele>284.20001220703</ele>
        <time>2016-01-06T15:42:18Z</time>
      </trkpt>
      <trkpt lat="43.43014" lon="6.09032">
        <ele>284.20001220703</ele>
        <time>2016-01-06T15:42:19Z</time>
      </trkpt>
      <trkpt lat="43.43015" lon="6.09029">
        <ele>284.20001220703</ele>
        <time>2016-01-06T15:42:20Z</time>
      </trkpt>
      <trkpt lat="43.43017" lon="6.09021">
        <ele>283.60000610352</ele>
        <time>2016-01-06T15:42:22Z</time>
      </trkpt>
      <trkpt lat="43.43018" lon="6.09013">
        <ele>283.60000610352</ele>
        <time>2016-01-06T15:42:24Z</time>
      </trkpt>
      <trkpt lat="43.43018" lon="6.09003">
        <ele>283</ele>
        <time>2016-01-06T15:42:26Z</time>
      </trkpt>
      <trkpt lat="43.43018" lon="6.08993">
        <ele>283.20001220703</ele>
        <time>2016-01-06T15:42:28Z</time>
      </trkpt>
      <trkpt lat="43.43019" lon="6.08982">
        <ele>282.39999389648</ele>
        <time>2016-01-06T15:42:30Z</time>
      </trkpt>
      <trkpt lat="43.43019" lon="6.08971">
        <ele>281.79998779297</ele>
        <time>2016-01-06T15:42:32Z</time>
      </trkpt>
      <trkpt lat="43.4302" lon="6.0896">
        <ele>281.20001220703</ele>
        <time>2016-01-06T15:42:34Z</time>
      </trkpt>
      <trkpt lat="43.43018" lon="6.08951">
        <ele>280.79998779297</ele>
        <time>2016-01-06T15:42:36Z</time>
      </trkpt>
      <trkpt lat="43.43018" lon="6.08949">
        <ele>280.20001220703</ele>
        <time>2016-01-06T15:42:37Z</time>
      </trkpt>
      <trkpt lat="43.43017" lon="6.08947">
        <ele>279.79998779297</ele>
        <time>2016-01-06T15:42:38Z</time>
      </trkpt>
      <trkpt lat="43.43018" lon="6.08947">
        <ele>279.60000610352</ele>
        <time>2016-01-06T15:42:40Z</time>
      </trkpt>
      <trkpt lat="43.43018" lon="6.08947">
        <ele>279.60000610352</ele>
        <time>2016-01-06T15:42:42Z</time>
      </trkpt>
      <trkpt lat="43.43018" lon="6.08947">
        <ele>279.79998779297</ele>
        <time>2016-01-06T15:42:44Z</time>
      </trkpt>
      <trkpt lat="43.43018" lon="6.08947">
        <ele>279.39999389648</ele>
        <time>2016-01-06T15:42:46Z</time>
      </trkpt>
      <trkpt lat="43.43018" lon="6.08947">
        <ele>279.39999389648</ele>
        <time>2016-01-06T15:42:48Z</time>
      </trkpt>
      <trkpt lat="43.43018" lon="6.08947">
        <ele>279.20001220703</ele>
        <time>2016-01-06T15:42:50Z</time>
      </trkpt>
      <trkpt lat="43.43018" lon="6.08947">
        <ele>279.20001220703</ele>
        <time>2016-01-06T15:42:52Z</time>
      </trkpt>
      <trkpt lat="43.43018" lon="6.08946">
        <ele>279.39999389648</ele>
        <time>2016-01-06T15:42:54Z</time>
      </trkpt>
      <trkpt lat="43.43018" lon="6.08946">
        <ele>279.20001220703</ele>
        <time>2016-01-06T15:42:55Z</time>
      </trkpt>
      <trkpt lat="43.43018" lon="6.08946">
        <ele>279</ele>
        <time>2016-01-06T15:42:56Z</time>
      </trkpt>
      <trkpt lat="43.43018" lon="6.08946">
        <ele>279</ele>
        <time>2016-01-06T15:42:58Z</time>
      </trkpt>
      <trkpt lat="43.43018" lon="6.08946">
        <ele>279.20001220703</ele>
        <time>2016-01-06T15:43:00Z</time>
      </trkpt>
      <trkpt lat="43.43018" lon="6.08946">
        <ele>279.60000610352</ele>
        <time>2016-01-06T15:43:02Z</time>
      </trkpt>
      <trkpt lat="43.43018" lon="6.08947">
        <ele>279.79998779297</ele>
        <time>2016-01-06T15:43:04Z</time>
      </trkpt>
      <trkpt lat="43.43018" lon="6.08946">
        <ele>279.60000610352</ele>
        <time>2016-01-06T15:43:06Z</time>
      </trkpt>
      <trkpt lat="43.43018" lon="6.08946">
        <ele>279.79998779297</ele>
        <time>2016-01-06T15:43:08Z</time>
      </trkpt>
      <trkpt lat="43.43018" lon="6.08946">
        <ele>279.60000610352</ele>
        <time>2016-01-06T15:43:10Z</time>
      </trkpt>
      <trkpt lat="43.43018" lon="6.08946">
        <ele>279.60000610352</ele>
        <time>2016-01-06T15:43:12Z</time>
      </trkpt>
      <trkpt lat="43.43018" lon="6.08946">
        <ele>279.60000610352</ele>
        <time>2016-01-06T15:43:14Z</time>
      </trkpt>
      <trkpt lat="43.43018" lon="6.08946">
        <ele>279.60000610352</ele>
        <time>2016-01-06T15:43:16Z</time>
      </trkpt>
      <trkpt lat="43.43018" lon="6.08946">
        <ele>279.79998779297</ele>
        <time>2016-01-06T15:43:18Z</time>
      </trkpt>
      <trkpt lat="43.43018" lon="6.08946">
        <ele>279.39999389648</ele>
        <time>2016-01-06T15:43:20Z</time>
      </trkpt>
      <trkpt lat="43.43018" lon="6.08946">
        <ele>279.60000610352</ele>
        <time>2016-01-06T15:43:22Z</time>
      </trkpt>
      <trkpt lat="43.43018" lon="6.08946">
        <ele>279.60000610352</ele>
        <time>2016-01-06T15:43:23Z</time>
      </trkpt>
      <trkpt lat="43.43018" lon="6.08946">
        <ele>279.60000610352</ele>
        <time>2016-01-06T15:43:26Z</time>
      </trkpt>
      <trkpt lat="43.43018" lon="6.08946">
        <ele>279.39999389648</ele>
        <time>2016-01-06T15:43:28Z</time>
      </trkpt>
      <trkpt lat="43.43018" lon="6.08946">
        <ele>279.60000610352</ele>
        <time>2016-01-06T15:43:30Z</time>
      </trkpt>
      <trkpt lat="43.43018" lon="6.08946">
        <ele>279.79998779297</ele>
        <time>2016-01-06T15:43:32Z</time>
      </trkpt>
      <trkpt lat="43.43018" lon="6.08946">
        <ele>280</ele>
        <time>2016-01-06T15:43:34Z</time>
      </trkpt>
      <trkpt lat="43.43018" lon="6.08946">
        <ele>280</ele>
        <time>2016-01-06T15:43:36Z</time>
      </trkpt>
      <trkpt lat="43.43018" lon="6.08946">
        <ele>279.79998779297</ele>
        <time>2016-01-06T15:43:38Z</time>
      </trkpt>
      <trkpt lat="43.43018" lon="6.08946">
        <ele>279.79998779297</ele>
        <time>2016-01-06T15:43:40Z</time>
      </trkpt>
      <trkpt lat="43.43018" lon="6.08946">
        <ele>279.79998779297</ele>
        <time>2016-01-06T15:43:42Z</time>
      </trkpt>
      <trkpt lat="43.43018" lon="6.08946">
        <ele>279.79998779297</ele>
        <time>2016-01-06T15:43:44Z</time>
      </trkpt>
      <trkpt lat="43.43018" lon="6.08946">
        <ele>279.79998779297</ele>
        <time>2016-01-06T15:43:46Z</time>
      </trkpt>
      <trkpt lat="43.43018" lon="6.08946">
        <ele>280</ele>
        <time>2016-01-06T15:43:48Z</time>
      </trkpt>
      <trkpt lat="43.43018" lon="6.08946">
        <ele>279.79998779297</ele>
        <time>2016-01-06T15:43:50Z</time>
      </trkpt>
      <trkpt lat="43.43018" lon="6.08946">
        <ele>279.60000610352</ele>
        <time>2016-01-06T15:43:52Z</time>
      </trkpt>
      <trkpt lat="43.43018" lon="6.08946">
        <ele>279.79998779297</ele>
        <time>2016-01-06T15:43:54Z</time>
      </trkpt>
      <trkpt lat="43.43018" lon="6.08946">
        <ele>279.60000610352</ele>
        <time>2016-01-06T15:43:56Z</time>
      </trkpt>
      <trkpt lat="43.43018" lon="6.08946">
        <ele>279.60000610352</ele>
        <time>2016-01-06T15:43:57Z</time>
      </trkpt>
      <trkpt lat="43.43018" lon="6.08946">
        <ele>279.60000610352</ele>
        <time>2016-01-06T15:43:58Z</time>
      </trkpt>
      <trkpt lat="43.43018" lon="6.08946">
        <ele>279.60000610352</ele>
        <time>2016-01-06T15:44:00Z</time>
      </trkpt>
      <trkpt lat="43.43018" lon="6.08946">
        <ele>279.60000610352</ele>
        <time>2016-01-06T15:44:02Z</time>
      </trkpt>
      <trkpt lat="43.43018" lon="6.08946">
        <ele>279.39999389648</ele>
        <time>2016-01-06T15:44:04Z</time>
      </trkpt>
      <trkpt lat="43.43018" lon="6.08946">
        <ele>279.39999389648</ele>
        <time>2016-01-06T15:44:06Z</time>
      </trkpt>
      <trkpt lat="43.43018" lon="6.08946">
        <ele>279.60000610352</ele>
        <time>2016-01-06T15:44:08Z</time>
      </trkpt>
      <trkpt lat="43.43018" lon="6.08946">
        <ele>279.39999389648</ele>
        <time>2016-01-06T15:44:10Z</time>
      </trkpt>
      <trkpt lat="43.43018" lon="6.08946">
        <ele>279.60000610352</ele>
        <time>2016-01-06T15:44:12Z</time>
      </trkpt>
      <trkpt lat="43.43018" lon="6.08946">
        <ele>279.60000610352</ele>
        <time>2016-01-06T15:44:14Z</time>
      </trkpt>
      <trkpt lat="43.43018" lon="6.08946">
        <ele>279</ele>
        <time>2016-01-06T15:44:16Z</time>
      </trkpt>
      <trkpt lat="43.43018" lon="6.08946">
        <ele>279</ele>
        <time>2016-01-06T15:44:17Z</time>
      </trkpt>
      <trkpt lat="43.43018" lon="6.08946">
        <ele>279</ele>
        <time>2016-01-06T15:44:18Z</time>
      </trkpt>
      <trkpt lat="43.43018" lon="6.08946">
        <ele>279.20001220703</ele>
        <time>2016-01-06T15:44:20Z</time>
      </trkpt>
      <trkpt lat="43.43018" lon="6.08946">
        <ele>279</ele>
        <time>2016-01-06T15:44:22Z</time>
      </trkpt>
      <trkpt lat="43.43018" lon="6.08946">
        <ele>279</ele>
        <time>2016-01-06T15:44:24Z</time>
      </trkpt>
      <trkpt lat="43.43018" lon="6.08946">
        <ele>279</ele>
        <time>2016-01-06T15:44:26Z</time>
      </trkpt>
      <trkpt lat="43.43018" lon="6.08946">
        <ele>279</ele>
        <time>2016-01-06T15:44:28Z</time>
      </trkpt>
      <trkpt lat="43.43018" lon="6.08946">
        <ele>278.79998779297</ele>
        <time>2016-01-06T15:44:30Z</time>
      </trkpt>
      <trkpt lat="43.43018" lon="6.08946">
        <ele>278.79998779297</ele>
        <time>2016-01-06T15:44:32Z</time>
      </trkpt>
      <trkpt lat="43.43018" lon="6.08946">
        <ele>279.20001220703</ele>
        <time>2016-01-06T15:44:34Z</time>
      </trkpt>
      <trkpt lat="43.43018" lon="6.08946">
        <ele>279.39999389648</ele>
        <time>2016-01-06T15:44:36Z</time>
      </trkpt>
      <trkpt lat="43.43018" lon="6.08946">
        <ele>279.20001220703</ele>
        <time>2016-01-06T15:44:38Z</time>
      </trkpt>
      <trkpt lat="43.43018" lon="6.08946">
        <ele>279.20001220703</ele>
        <time>2016-01-06T15:44:40Z</time>
      </trkpt>
      <trkpt lat="43.43018" lon="6.08946">
        <ele>279</ele>
        <time>2016-01-06T15:44:42Z</time>
      </trkpt>
      <trkpt lat="43.43018" lon="6.08946">
        <ele>279</ele>
        <time>2016-01-06T15:44:44Z</time>
      </trkpt>
      <trkpt lat="43.43018" lon="6.08946">
        <ele>278.79998779297</ele>
        <time>2016-01-06T15:44:46Z</time>
      </trkpt>
      <trkpt lat="43.43018" lon="6.08946">
        <ele>278.39999389648</ele>
        <time>2016-01-06T15:44:48Z</time>
      </trkpt>
      <trkpt lat="43.43018" lon="6.08946">
        <ele>278.39999389648</ele>
        <time>2016-01-06T15:44:50Z</time>
      </trkpt>
      <trkpt lat="43.43018" lon="6.08946">
        <ele>278.60000610352</ele>
        <time>2016-01-06T15:44:52Z</time>
      </trkpt>
      <trkpt lat="43.43018" lon="6.08946">
        <ele>278.79998779297</ele>
        <time>2016-01-06T15:44:54Z</time>
      </trkpt>
      <trkpt lat="43.43018" lon="6.08946">
        <ele>278.79998779297</ele>
        <time>2016-01-06T15:44:56Z</time>
      </trkpt>
      <trkpt lat="43.43018" lon="6.08946">
        <ele>279</ele>
        <time>2016-01-06T15:44:58Z</time>
      </trkpt>
      <trkpt lat="43.43018" lon="6.08946">
        <ele>279</ele>
        <time>2016-01-06T15:45:00Z</time>
      </trkpt>
      <trkpt lat="43.43018" lon="6.08946">
        <ele>279</ele>
        <time>2016-01-06T15:45:02Z</time>
      </trkpt>
      <trkpt lat="43.43018" lon="6.08945">
        <ele>279</ele>
        <time>2016-01-06T15:45:04Z</time>
      </trkpt>
      <trkpt lat="43.43018" lon="6.08945">
        <ele>279</ele>
        <time>2016-01-06T15:45:06Z</time>
      </trkpt>
      <trkpt lat="43.43019" lon="6.08945">
        <ele>279</ele>
        <time>2016-01-06T15:45:08Z</time>
      </trkpt>
      <trkpt lat="43.43019" lon="6.08945">
        <ele>279.20001220703</ele>
        <time>2016-01-06T15:45:10Z</time>
      </trkpt>
      <trkpt lat="43.43019" lon="6.08945">
        <ele>279.20001220703</ele>
        <time>2016-01-06T15:45:11Z</time>
      </trkpt>
      <trkpt lat="43.43019" lon="6.08945">
        <ele>279.20001220703</ele>
        <time>2016-01-06T15:45:12Z</time>
      </trkpt>
      <trkpt lat="43.43019" lon="6.08945">
        <ele>279.20001220703</ele>
        <time>2016-01-06T15:45:14Z</time>
      </trkpt>
      <trkpt lat="43.43019" lon="6.08945">
        <ele>279</ele>
        <time>2016-01-06T15:45:16Z</time>
      </trkpt>
      <trkpt lat="43.43019" lon="6.08945">
        <ele>279</ele>
        <time>2016-01-06T15:45:18Z</time>
      </trkpt>
      <trkpt lat="43.43019" lon="6.08945">
        <ele>279.20001220703</ele>
        <time>2016-01-06T15:45:20Z</time>
      </trkpt>
      <trkpt lat="43.43019" lon="6.08945">
        <ele>279.20001220703</ele>
        <time>2016-01-06T15:45:22Z</time>
      </trkpt>
      <trkpt lat="43.43019" lon="6.08945">
        <ele>279.20001220703</ele>
        <time>2016-01-06T15:45:24Z</time>
      </trkpt>
      <trkpt lat="43.43019" lon="6.08945">
        <ele>279.20001220703</ele>
        <time>2016-01-06T15:45:26Z</time>
      </trkpt>
      <trkpt lat="43.43019" lon="6.08945">
        <ele>279</ele>
        <time>2016-01-06T15:45:28Z</time>
      </trkpt>
      <trkpt lat="43.43019" lon="6.08945">
        <ele>278.79998779297</ele>
        <time>2016-01-06T15:45:30Z</time>
      </trkpt>
      <trkpt lat="43.43019" lon="6.08945">
        <ele>278.79998779297</ele>
        <time>2016-01-06T15:45:32Z</time>
      </trkpt>
      <trkpt lat="43.43019" lon="6.08945">
        <ele>278.60000610352</ele>
        <time>2016-01-06T15:45:34Z</time>
      </trkpt>
      <trkpt lat="43.43019" lon="6.08945">
        <ele>278.79998779297</ele>
        <time>2016-01-06T15:45:36Z</time>
      </trkpt>
      <trkpt lat="43.43019" lon="6.08945">
        <ele>279</ele>
        <time>2016-01-06T15:45:38Z</time>
      </trkpt>
      <trkpt lat="43.43019" lon="6.08945">
        <ele>279</ele>
        <time>2016-01-06T15:45:40Z</time>
      </trkpt>
      <trkpt lat="43.43019" lon="6.08945">
        <ele>279</ele>
        <time>2016-01-06T15:45:42Z</time>
      </trkpt>
      <trkpt lat="43.43019" lon="6.08945">
        <ele>279</ele>
        <time>2016-01-06T15:45:44Z</time>
      </trkpt>
      <trkpt lat="43.43019" lon="6.08945">
        <ele>279.20001220703</ele>
        <time>2016-01-06T15:45:46Z</time>
      </trkpt>
      <trkpt lat="43.43019" lon="6.08945">
        <ele>279.20001220703</ele>
        <time>2016-01-06T15:45:48Z</time>
      </trkpt>
      <trkpt lat="43.43019" lon="6.08945">
        <ele>279.20001220703</ele>
        <time>2016-01-06T15:45:50Z</time>
      </trkpt>
      <trkpt lat="43.43019" lon="6.08945">
        <ele>279</ele>
        <time>2016-01-06T15:45:52Z</time>
      </trkpt>
      <trkpt lat="43.43019" lon="6.08945">
        <ele>279</ele>
        <time>2016-01-06T15:45:54Z</time>
      </trkpt>
      <trkpt lat="43.43019" lon="6.08945">
        <ele>279.20001220703</ele>
        <time>2016-01-06T15:45:56Z</time>
      </trkpt>
      <trkpt lat="43.43019" lon="6.08945">
        <ele>279.20001220703</ele>
        <time>2016-01-06T15:45:57Z</time>
      </trkpt>
      <trkpt lat="43.43019" lon="6.08945">
        <ele>279.20001220703</ele>
        <time>2016-01-06T15:45:58Z</time>
      </trkpt>
      <trkpt lat="43.43019" lon="6.08945">
        <ele>279</ele>
        <time>2016-01-06T15:46:00Z</time>
      </trkpt>
      <trkpt lat="43.43019" lon="6.08945">
        <ele>278.79998779297</ele>
        <time>2016-01-06T15:46:02Z</time>
      </trkpt>
      <trkpt lat="43.43019" lon="6.08945">
        <ele>279</ele>
        <time>2016-01-06T15:46:04Z</time>
      </trkpt>
      <trkpt lat="43.43019" lon="6.08945">
        <ele>279</ele>
        <time>2016-01-06T15:46:06Z</time>
      </trkpt>
      <trkpt lat="43.43019" lon="6.08945">
        <ele>279</ele>
        <time>2016-01-06T15:46:08Z</time>
      </trkpt>
      <trkpt lat="43.43019" lon="6.08945">
        <ele>279.20001220703</ele>
        <time>2016-01-06T15:46:10Z</time>
      </trkpt>
      <trkpt lat="43.43019" lon="6.08945">
        <ele>279.20001220703</ele>
        <time>2016-01-06T15:46:12Z</time>
      </trkpt>
      <trkpt lat="43.43019" lon="6.08944">
        <ele>279</ele>
        <time>2016-01-06T15:46:14Z</time>
      </trkpt>
      <trkpt lat="43.43019" lon="6.08943">
        <ele>279</ele>
        <time>2016-01-06T15:46:15Z</time>
      </trkpt>
      <trkpt lat="43.43019" lon="6.08941">
        <ele>279</ele>
        <time>2016-01-06T15:46:16Z</time>
      </trkpt>
      <trkpt lat="43.43018" lon="6.08937">
        <ele>279</ele>
        <time>2016-01-06T15:46:18Z</time>
      </trkpt>
      <trkpt lat="43.43017" lon="6.08931">
        <ele>278.60000610352</ele>
        <time>2016-01-06T15:46:20Z</time>
      </trkpt>
      <trkpt lat="43.43015" lon="6.08928">
        <ele>278.60000610352</ele>
        <time>2016-01-06T15:46:21Z</time>
      </trkpt>
      <trkpt lat="43.43014" lon="6.08925">
        <ele>278.60000610352</ele>
        <time>2016-01-06T15:46:22Z</time>
      </trkpt>
      <trkpt lat="43.43013" lon="6.08918">
        <ele>279.20001220703</ele>
        <time>2016-01-06T15:46:24Z</time>
      </trkpt>
      <trkpt lat="43.43015" lon="6.08909">
        <ele>279.39999389648</ele>
        <time>2016-01-06T15:46:26Z</time>
      </trkpt>
      <trkpt lat="43.43018" lon="6.089">
        <ele>279.60000610352</ele>
        <time>2016-01-06T15:46:28Z</time>
      </trkpt>
      <trkpt lat="43.43018" lon="6.08895">
        <ele>280.20001220703</ele>
        <time>2016-01-06T15:46:29Z</time>
      </trkpt>
      <trkpt lat="43.43019" lon="6.0889">
        <ele>280</ele>
        <time>2016-01-06T15:46:30Z</time>
      </trkpt>
      <trkpt lat="43.43018" lon="6.0888">
        <ele>279.60000610352</ele>
        <time>2016-01-06T15:46:32Z</time>
      </trkpt>
      <trkpt lat="43.43017" lon="6.0887">
        <ele>278.39999389648</ele>
        <time>2016-01-06T15:46:34Z</time>
      </trkpt>
      <trkpt lat="43.43018" lon="6.0886">
        <ele>277.60000610352</ele>
        <time>2016-01-06T15:46:36Z</time>
      </trkpt>
      <trkpt lat="43.43019" lon="6.08855">
        <ele>277.79998779297</ele>
        <time>2016-01-06T15:46:37Z</time>
      </trkpt>
      <trkpt lat="43.4302" lon="6.0885">
        <ele>278.20001220703</ele>
        <time>2016-01-06T15:46:38Z</time>
      </trkpt>
      <trkpt lat="43.4302" lon="6.0884">
        <ele>277</ele>
        <time>2016-01-06T15:46:40Z</time>
      </trkpt>
      <trkpt lat="43.43019" lon="6.08829">
        <ele>276.79998779297</ele>
        <time>2016-01-06T15:46:42Z</time>
      </trkpt>
      <trkpt lat="43.43018" lon="6.08824">
        <ele>276.79998779297</ele>
        <time>2016-01-06T15:46:43Z</time>
      </trkpt>
      <trkpt lat="43.43016" lon="6.08818">
        <ele>276.20001220703</ele>
        <time>2016-01-06T15:46:44Z</time>
      </trkpt>
      <trkpt lat="43.43015" lon="6.08813">
        <ele>275.79998779297</ele>
        <time>2016-01-06T15:46:45Z</time>
      </trkpt>
      <trkpt lat="43.43014" lon="6.08807">
        <ele>275.79998779297</ele>
        <time>2016-01-06T15:46:46Z</time>
      </trkpt>
      <trkpt lat="43.43012" lon="6.08796">
        <ele>275</ele>
        <time>2016-01-06T15:46:48Z</time>
      </trkpt>
      <trkpt lat="43.43012" lon="6.08791">
        <ele>274.60000610352</ele>
        <time>2016-01-06T15:46:49Z</time>
      </trkpt>
      <trkpt lat="43.43011" lon="6.08786">
        <ele>275</ele>
        <time>2016-01-06T15:46:50Z</time>
      </trkpt>
      <trkpt lat="43.43011" lon="6.08776">
        <ele>275.39999389648</ele>
        <time>2016-01-06T15:46:52Z</time>
      </trkpt>
      <trkpt lat="43.43011" lon="6.08765">
        <ele>274.79998779297</ele>
        <time>2016-01-06T15:46:54Z</time>
      </trkpt>
      <trkpt lat="43.43009" lon="6.08755">
        <ele>274.79998779297</ele>
        <time>2016-01-06T15:46:56Z</time>
      </trkpt>
      <trkpt lat="43.43006" lon="6.08746">
        <ele>274.60000610352</ele>
        <time>2016-01-06T15:46:58Z</time>
      </trkpt>
      <trkpt lat="43.43003" lon="6.08736">
        <ele>274.60000610352</ele>
        <time>2016-01-06T15:47:00Z</time>
      </trkpt>
      <trkpt lat="43.42999" lon="6.08727">
        <ele>273.60000610352</ele>
        <time>2016-01-06T15:47:02Z</time>
      </trkpt>
      <trkpt lat="43.42997" lon="6.08722">
        <ele>273.20001220703</ele>
        <time>2016-01-06T15:47:03Z</time>
      </trkpt>
      <trkpt lat="43.42995" lon="6.08717">
        <ele>272.79998779297</ele>
        <time>2016-01-06T15:47:04Z</time>
      </trkpt>
      <trkpt lat="43.42991" lon="6.08707">
        <ele>273</ele>
        <time>2016-01-06T15:47:06Z</time>
      </trkpt>
      <trkpt lat="43.42986" lon="6.08696">
        <ele>272.39999389648</ele>
        <time>2016-01-06T15:47:08Z</time>
      </trkpt>
      <trkpt lat="43.42984" lon="6.08691">
        <ele>272.39999389648</ele>
        <time>2016-01-06T15:47:09Z</time>
      </trkpt>
      <trkpt lat="43.42983" lon="6.08685">
        <ele>272.60000610352</ele>
        <time>2016-01-06T15:47:10Z</time>
      </trkpt>
      <trkpt lat="43.4298" lon="6.08673">
        <ele>272.20001220703</ele>
        <time>2016-01-06T15:47:12Z</time>
      </trkpt>
      <trkpt lat="43.42978" lon="6.08668">
        <ele>271.79998779297</ele>
        <time>2016-01-06T15:47:13Z</time>
      </trkpt>
      <trkpt lat="43.42977" lon="6.08662">
        <ele>271.39999389648</ele>
        <time>2016-01-06T15:47:14Z</time>
      </trkpt>
      <trkpt lat="43.42974" lon="6.08651">
        <ele>271.20001220703</ele>
        <time>2016-01-06T15:47:16Z</time>
      </trkpt>
      <trkpt lat="43.42972" lon="6.08646">
        <ele>271.60000610352</ele>
        <time>2016-01-06T15:47:17Z</time>
      </trkpt>
      <trkpt lat="43.42971" lon="6.0864">
        <ele>271.39999389648</ele>
        <time>2016-01-06T15:47:18Z</time>
      </trkpt>
      <trkpt lat="43.42968" lon="6.08629">
        <ele>270.79998779297</ele>
        <time>2016-01-06T15:47:20Z</time>
      </trkpt>
      <trkpt lat="43.42966" lon="6.08618">
        <ele>271.20001220703</ele>
        <time>2016-01-06T15:47:22Z</time>
      </trkpt>
      <trkpt lat="43.42963" lon="6.08605">
        <ele>270.79998779297</ele>
        <time>2016-01-06T15:47:24Z</time>
      </trkpt>
      <trkpt lat="43.4296" lon="6.08594">
        <ele>271</ele>
        <time>2016-01-06T15:47:26Z</time>
      </trkpt>
      <trkpt lat="43.42956" lon="6.08583">
        <ele>271</ele>
        <time>2016-01-06T15:47:28Z</time>
      </trkpt>
      <trkpt lat="43.42953" lon="6.08572">
        <ele>270.60000610352</ele>
        <time>2016-01-06T15:47:30Z</time>
      </trkpt>
      <trkpt lat="43.42951" lon="6.08562">
        <ele>270.20001220703</ele>
        <time>2016-01-06T15:47:32Z</time>
      </trkpt>
      <trkpt lat="43.4295" lon="6.08557">
        <ele>270.39999389648</ele>
        <time>2016-01-06T15:47:33Z</time>
      </trkpt>
      <trkpt lat="43.42949" lon="6.08551">
        <ele>270</ele>
        <time>2016-01-06T15:47:34Z</time>
      </trkpt>
      <trkpt lat="43.42945" lon="6.08541">
        <ele>270</ele>
        <time>2016-01-06T15:47:36Z</time>
      </trkpt>
      <trkpt lat="43.42941" lon="6.08531">
        <ele>269.60000610352</ele>
        <time>2016-01-06T15:47:38Z</time>
      </trkpt>
      <trkpt lat="43.4294" lon="6.08526">
        <ele>269.60000610352</ele>
        <time>2016-01-06T15:47:39Z</time>
      </trkpt>
      <trkpt lat="43.42939" lon="6.08521">
        <ele>269.60000610352</ele>
        <time>2016-01-06T15:47:40Z</time>
      </trkpt>
      <trkpt lat="43.42935" lon="6.08511">
        <ele>269.60000610352</ele>
        <time>2016-01-06T15:47:42Z</time>
      </trkpt>
      <trkpt lat="43.4293" lon="6.08504">
        <ele>269.20001220703</ele>
        <time>2016-01-06T15:47:44Z</time>
      </trkpt>
      <trkpt lat="43.42928" lon="6.085">
        <ele>269.60000610352</ele>
        <time>2016-01-06T15:47:45Z</time>
      </trkpt>
      <trkpt lat="43.42924" lon="6.08497">
        <ele>269.79998779297</ele>
        <time>2016-01-06T15:47:46Z</time>
      </trkpt>
      <trkpt lat="43.42918" lon="6.08491">
        <ele>269</ele>
        <time>2016-01-06T15:47:48Z</time>
      </trkpt>
      <trkpt lat="43.42912" lon="6.08486">
        <ele>270</ele>
        <time>2016-01-06T15:47:50Z</time>
      </trkpt>
      <trkpt lat="43.42906" lon="6.08479">
        <ele>270.20001220703</ele>
        <time>2016-01-06T15:47:52Z</time>
      </trkpt>
      <trkpt lat="43.42901" lon="6.08471">
        <ele>270</ele>
        <time>2016-01-06T15:47:54Z</time>
      </trkpt>
      <trkpt lat="43.42896" lon="6.08462">
        <ele>270.20001220703</ele>
        <time>2016-01-06T15:47:56Z</time>
      </trkpt>
      <trkpt lat="43.42891" lon="6.08452">
        <ele>269.60000610352</ele>
        <time>2016-01-06T15:47:58Z</time>
      </trkpt>
      <trkpt lat="43.42888" lon="6.08448">
        <ele>269.20001220703</ele>
        <time>2016-01-06T15:47:59Z</time>
      </trkpt>
      <trkpt lat="43.42885" lon="6.08443">
        <ele>269</ele>
        <time>2016-01-06T15:48:00Z</time>
      </trkpt>
      <trkpt lat="43.42882" lon="6.08439">
        <ele>268.60000610352</ele>
        <time>2016-01-06T15:48:01Z</time>
      </trkpt>
      <trkpt lat="43.42879" lon="6.08434">
        <ele>268.60000610352</ele>
        <time>2016-01-06T15:48:02Z</time>
      </trkpt>
      <trkpt lat="43.42873" lon="6.08426">
        <ele>268.60000610352</ele>
        <time>2016-01-06T15:48:04Z</time>
      </trkpt>
      <trkpt lat="43.42866" lon="6.08418">
        <ele>268.60000610352</ele>
        <time>2016-01-06T15:48:06Z</time>
      </trkpt>
      <trkpt lat="43.4286" lon="6.0841">
        <ele>268.20001220703</ele>
        <time>2016-01-06T15:48:08Z</time>
      </trkpt>
      <trkpt lat="43.42857" lon="6.084">
        <ele>268.20001220703</ele>
        <time>2016-01-06T15:48:10Z</time>
      </trkpt>
      <trkpt lat="43.42855" lon="6.0839">
        <ele>267.60000610352</ele>
        <time>2016-01-06T15:48:12Z</time>
      </trkpt>
      <trkpt lat="43.42854" lon="6.08384">
        <ele>267.60000610352</ele>
        <time>2016-01-06T15:48:13Z</time>
      </trkpt>
      <trkpt lat="43.42852" lon="6.08378">
        <ele>267.60000610352</ele>
        <time>2016-01-06T15:48:14Z</time>
      </trkpt>
      <trkpt lat="43.42849" lon="6.08367">
        <ele>267.20001220703</ele>
        <time>2016-01-06T15:48:16Z</time>
      </trkpt>
      <trkpt lat="43.42846" lon="6.08356">
        <ele>266.79998779297</ele>
        <time>2016-01-06T15:48:18Z</time>
      </trkpt>
      <trkpt lat="43.42845" lon="6.0835">
        <ele>266.79998779297</ele>
        <time>2016-01-06T15:48:19Z</time>
      </trkpt>
      <trkpt lat="43.42844" lon="6.08345">
        <ele>267</ele>
        <time>2016-01-06T15:48:20Z</time>
      </trkpt>
      <trkpt lat="43.42842" lon="6.08335">
        <ele>267.39999389648</ele>
        <time>2016-01-06T15:48:22Z</time>
      </trkpt>
      <trkpt lat="43.42838" lon="6.08324">
        <ele>267.39999389648</ele>
        <time>2016-01-06T15:48:24Z</time>
      </trkpt>
      <trkpt lat="43.42836" lon="6.08318">
        <ele>267.20001220703</ele>
        <time>2016-01-06T15:48:25Z</time>
      </trkpt>
      <trkpt lat="43.42835" lon="6.08312">
        <ele>267</ele>
        <time>2016-01-06T15:48:26Z</time>
      </trkpt>
      <trkpt lat="43.42833" lon="6.083">
        <ele>266.60000610352</ele>
        <time>2016-01-06T15:48:28Z</time>
      </trkpt>
      <trkpt lat="43.42833" lon="6.08294">
        <ele>266</ele>
        <time>2016-01-06T15:48:29Z</time>
      </trkpt>
      <trkpt lat="43.42832" lon="6.08287">
        <ele>265.60000610352</ele>
        <time>2016-01-06T15:48:30Z</time>
      </trkpt>
      <trkpt lat="43.42831" lon="6.08281">
        <ele>265.60000610352</ele>
        <time>2016-01-06T15:48:31Z</time>
      </trkpt>
      <trkpt lat="43.42829" lon="6.08276">
        <ele>265.20001220703</ele>
        <time>2016-01-06T15:48:32Z</time>
      </trkpt>
      <trkpt lat="43.42825" lon="6.08266">
        <ele>265.79998779297</ele>
        <time>2016-01-06T15:48:34Z</time>
      </trkpt>
      <trkpt lat="43.42821" lon="6.08257">
        <ele>265.79998779297</ele>
        <time>2016-01-06T15:48:36Z</time>
      </trkpt>
      <trkpt lat="43.42818" lon="6.08254">
        <ele>266.20001220703</ele>
        <time>2016-01-06T15:48:37Z</time>
      </trkpt>
      <trkpt lat="43.42815" lon="6.08252">
        <ele>266.60000610352</ele>
        <time>2016-01-06T15:48:38Z</time>
      </trkpt>
      <trkpt lat="43.42812" lon="6.08251">
        <ele>267</ele>
        <time>2016-01-06T15:48:39Z</time>
      </trkpt>
      <trkpt lat="43.42809" lon="6.08251">
        <ele>266.79998779297</ele>
        <time>2016-01-06T15:48:40Z</time>
      </trkpt>
      <trkpt lat="43.42802" lon="6.08251">
        <ele>266</ele>
        <time>2016-01-06T15:48:42Z</time>
      </trkpt>
      <trkpt lat="43.42797" lon="6.08252">
        <ele>265.79998779297</ele>
        <time>2016-01-06T15:48:43Z</time>
      </trkpt>
      <trkpt lat="43.42794" lon="6.08252">
        <ele>265.60000610352</ele>
        <time>2016-01-06T15:48:44Z</time>
      </trkpt>
      <trkpt lat="43.42791" lon="6.08249">
        <ele>265.60000610352</ele>
        <time>2016-01-06T15:48:45Z</time>
      </trkpt>
      <trkpt lat="43.42789" lon="6.08244">
        <ele>265.60000610352</ele>
        <time>2016-01-06T15:48:46Z</time>
      </trkpt>
      <trkpt lat="43.42788" lon="6.08239">
        <ele>265.60000610352</ele>
        <time>2016-01-06T15:48:47Z</time>
      </trkpt>
      <trkpt lat="43.42787" lon="6.08233">
        <ele>265.20001220703</ele>
        <time>2016-01-06T15:48:48Z</time>
      </trkpt>
      <trkpt lat="43.42786" lon="6.08227">
        <ele>264.79998779297</ele>
        <time>2016-01-06T15:48:49Z</time>
      </trkpt>
      <trkpt lat="43.42784" lon="6.08221">
        <ele>264.79998779297</ele>
        <time>2016-01-06T15:48:50Z</time>
      </trkpt>
      <trkpt lat="43.42782" lon="6.08215">
        <ele>264.39999389648</ele>
        <time>2016-01-06T15:48:51Z</time>
      </trkpt>
      <trkpt lat="43.42781" lon="6.08208">
        <ele>264.39999389648</ele>
        <time>2016-01-06T15:48:52Z</time>
      </trkpt>
      <trkpt lat="43.42781" lon="6.08194">
        <ele>263.39999389648</ele>
        <time>2016-01-06T15:48:54Z</time>
      </trkpt>
      <trkpt lat="43.42781" lon="6.08187">
        <ele>262.79998779297</ele>
        <time>2016-01-06T15:48:55Z</time>
      </trkpt>
      <trkpt lat="43.4278" lon="6.08181">
        <ele>262.79998779297</ele>
        <time>2016-01-06T15:48:56Z</time>
      </trkpt>
      <trkpt lat="43.42778" lon="6.08176">
        <ele>262.79998779297</ele>
        <time>2016-01-06T15:48:57Z</time>
      </trkpt>
      <trkpt lat="43.42775" lon="6.0817">
        <ele>262.39999389648</ele>
        <time>2016-01-06T15:48:58Z</time>
      </trkpt>
      <trkpt lat="43.42772" lon="6.08167">
        <ele>262</ele>
        <time>2016-01-06T15:48:59Z</time>
      </trkpt>
      <trkpt lat="43.42768" lon="6.08163">
        <ele>261.60000610352</ele>
        <time>2016-01-06T15:49:00Z</time>
      </trkpt>
      <trkpt lat="43.42761" lon="6.08154">
        <ele>261.79998779297</ele>
        <time>2016-01-06T15:49:02Z</time>
      </trkpt>
      <trkpt lat="43.42758" lon="6.0815">
        <ele>261.39999389648</ele>
        <time>2016-01-06T15:49:03Z</time>
      </trkpt>
      <trkpt lat="43.42756" lon="6.08145">
        <ele>261</ele>
        <time>2016-01-06T15:49:04Z</time>
      </trkpt>
      <trkpt lat="43.42753" lon="6.08141">
        <ele>260.60000610352</ele>
        <time>2016-01-06T15:49:05Z</time>
      </trkpt>
      <trkpt lat="43.42749" lon="6.08138">
        <ele>259.79998779297</ele>
        <time>2016-01-06T15:49:06Z</time>
      </trkpt>
      <trkpt lat="43.42741" lon="6.08138">
        <ele>260</ele>
        <time>2016-01-06T15:49:08Z</time>
      </trkpt>
      <trkpt lat="43.42734" lon="6.08131">
        <ele>259.60000610352</ele>
        <time>2016-01-06T15:49:10Z</time>
      </trkpt>
      <trkpt lat="43.42731" lon="6.08128">
        <ele>259.39999389648</ele>
        <time>2016-01-06T15:49:11Z</time>
      </trkpt>
      <trkpt lat="43.42728" lon="6.08124">
        <ele>259.39999389648</ele>
        <time>2016-01-06T15:49:12Z</time>
      </trkpt>
      <trkpt lat="43.42723" lon="6.08116">
        <ele>259.60000610352</ele>
        <time>2016-01-06T15:49:14Z</time>
      </trkpt>
      <trkpt lat="43.42718" lon="6.08113">
        <ele>259.20001220703</ele>
        <time>2016-01-06T15:49:16Z</time>
      </trkpt>
      <trkpt lat="43.42715" lon="6.08111">
        <ele>258.60000610352</ele>
        <time>2016-01-06T15:49:17Z</time>
      </trkpt>
      <trkpt lat="43.42711" lon="6.08108">
        <ele>258.60000610352</ele>
        <time>2016-01-06T15:49:18Z</time>
      </trkpt>
      <trkpt lat="43.42704" lon="6.08103">
        <ele>258.60000610352</ele>
        <time>2016-01-06T15:49:20Z</time>
      </trkpt>
      <trkpt lat="43.42698" lon="6.08098">
        <ele>258.39999389648</ele>
        <time>2016-01-06T15:49:22Z</time>
      </trkpt>
      <trkpt lat="43.4269" lon="6.08093">
        <ele>258</ele>
        <time>2016-01-06T15:49:24Z</time>
      </trkpt>
      <trkpt lat="43.42685" lon="6.08088">
        <ele>257.79998779297</ele>
        <time>2016-01-06T15:49:26Z</time>
      </trkpt>
      <trkpt lat="43.42678" lon="6.08081">
        <ele>257.20001220703</ele>
        <time>2016-01-06T15:49:28Z</time>
      </trkpt>
      <trkpt lat="43.42675" lon="6.08077">
        <ele>257</ele>
        <time>2016-01-06T15:49:29Z</time>
      </trkpt>
      <trkpt lat="43.42673" lon="6.08073">
        <ele>256.79998779297</ele>
        <time>2016-01-06T15:49:30Z</time>
      </trkpt>
      <trkpt lat="43.42667" lon="6.08068">
        <ele>257</ele>
        <time>2016-01-06T15:49:32Z</time>
      </trkpt>
      <trkpt lat="43.42659" lon="6.08065">
        <ele>256.39999389648</ele>
        <time>2016-01-06T15:49:34Z</time>
      </trkpt>
      <trkpt lat="43.42652" lon="6.08067">
        <ele>256.20001220703</ele>
        <time>2016-01-06T15:49:36Z</time>
      </trkpt>
      <trkpt lat="43.42646" lon="6.08072">
        <ele>256.20001220703</ele>
        <time>2016-01-06T15:49:38Z</time>
      </trkpt>
      <trkpt lat="43.42643" lon="6.08075">
        <ele>256</ele>
        <time>2016-01-06T15:49:39Z</time>
      </trkpt>
      <trkpt lat="43.4264" lon="6.08077">
        <ele>255.80000305176</ele>
        <time>2016-01-06T15:49:40Z</time>
      </trkpt>
      <trkpt lat="43.42634" lon="6.0808">
        <ele>255.80000305176</ele>
        <time>2016-01-06T15:49:42Z</time>
      </trkpt>
      <trkpt lat="43.42631" lon="6.08079">
        <ele>255.80000305176</ele>
        <time>2016-01-06T15:49:43Z</time>
      </trkpt>
      <trkpt lat="43.42628" lon="6.08076">
        <ele>255.80000305176</ele>
        <time>2016-01-06T15:49:44Z</time>
      </trkpt>
      <trkpt lat="43.42623" lon="6.0807">
        <ele>255.80000305176</ele>
        <time>2016-01-06T15:49:46Z</time>
      </trkpt>
      <trkpt lat="43.42619" lon="6.08061">
        <ele>255</ele>
        <time>2016-01-06T15:49:48Z</time>
      </trkpt>
      <trkpt lat="43.42618" lon="6.08056">
        <ele>255.19999694824</ele>
        <time>2016-01-06T15:49:49Z</time>
      </trkpt>
      <trkpt lat="43.42617" lon="6.08051">
        <ele>255.80000305176</ele>
        <time>2016-01-06T15:49:50Z</time>
      </trkpt>
      <trkpt lat="43.42618" lon="6.08046">
        <ele>255.60000610352</ele>
        <time>2016-01-06T15:49:51Z</time>
      </trkpt>
      <trkpt lat="43.42619" lon="6.08039">
        <ele>255.19999694824</ele>
        <time>2016-01-06T15:49:52Z</time>
      </trkpt>
      <trkpt lat="43.42617" lon="6.08027">
        <ele>254.80000305176</ele>
        <time>2016-01-06T15:49:54Z</time>
      </trkpt>
      <trkpt lat="43.42616" lon="6.08016">
        <ele>253.80000305176</ele>
        <time>2016-01-06T15:49:56Z</time>
      </trkpt>
      <trkpt lat="43.42615" lon="6.08005">
        <ele>253.80000305176</ele>
        <time>2016-01-06T15:49:58Z</time>
      </trkpt>
      <trkpt lat="43.42614" lon="6.07995">
        <ele>253.60000610352</ele>
        <time>2016-01-06T15:50:00Z</time>
      </trkpt>
      <trkpt lat="43.42612" lon="6.0799">
        <ele>253.60000610352</ele>
        <time>2016-01-06T15:50:01Z</time>
      </trkpt>
      <trkpt lat="43.4261" lon="6.07985">
        <ele>253</ele>
        <time>2016-01-06T15:50:02Z</time>
      </trkpt>
      <trkpt lat="43.42607" lon="6.07981">
        <ele>252.60000610352</ele>
        <time>2016-01-06T15:50:03Z</time>
      </trkpt>
      <trkpt lat="43.42604" lon="6.07977">
        <ele>252.39999389648</ele>
        <time>2016-01-06T15:50:04Z</time>
      </trkpt>
      <trkpt lat="43.42598" lon="6.0797">
        <ele>252</ele>
        <time>2016-01-06T15:50:06Z</time>
      </trkpt>
      <trkpt lat="43.42595" lon="6.07967">
        <ele>252</ele>
        <time>2016-01-06T15:50:07Z</time>
      </trkpt>
      <trkpt lat="43.42591" lon="6.07964">
        <ele>251.80000305176</ele>
        <time>2016-01-06T15:50:08Z</time>
      </trkpt>
      <trkpt lat="43.42589" lon="6.07962">
        <ele>251.39999389648</ele>
        <time>2016-01-06T15:50:09Z</time>
      </trkpt>
      <trkpt lat="43.42586" lon="6.07959">
        <ele>251.19999694824</ele>
        <time>2016-01-06T15:50:10Z</time>
      </trkpt>
      <trkpt lat="43.4258" lon="6.07953">
        <ele>250.80000305176</ele>
        <time>2016-01-06T15:50:12Z</time>
      </trkpt>
      <trkpt lat="43.42576" lon="6.07949">
        <ele>250.19999694824</ele>
        <time>2016-01-06T15:50:13Z</time>
      </trkpt>
      <trkpt lat="43.42572" lon="6.07945">
        <ele>249.60000610352</ele>
        <time>2016-01-06T15:50:14Z</time>
      </trkpt>
      <trkpt lat="43.42562" lon="6.07937">
        <ele>250</ele>
        <time>2016-01-06T15:50:16Z</time>
      </trkpt>
      <trkpt lat="43.42558" lon="6.07931">
        <ele>250</ele>
        <time>2016-01-06T15:50:17Z</time>
      </trkpt>
      <trkpt lat="43.42555" lon="6.07924">
        <ele>249.80000305176</ele>
        <time>2016-01-06T15:50:18Z</time>
      </trkpt>
      <trkpt lat="43.42551" lon="6.07908">
        <ele>249.39999389648</ele>
        <time>2016-01-06T15:50:20Z</time>
      </trkpt>
      <trkpt lat="43.4255" lon="6.07902">
        <ele>248.39999389648</ele>
        <time>2016-01-06T15:50:21Z</time>
      </trkpt>
      <trkpt lat="43.42545" lon="6.07896">
        <ele>248.19999694824</ele>
        <time>2016-01-06T15:50:22Z</time>
      </trkpt>
      <trkpt lat="43.4254" lon="6.07894">
        <ele>248</ele>
        <time>2016-01-06T15:50:23Z</time>
      </trkpt>
      <trkpt lat="43.42535" lon="6.07891">
        <ele>247.60000610352</ele>
        <time>2016-01-06T15:50:24Z</time>
      </trkpt>
      <trkpt lat="43.42529" lon="6.07889">
        <ele>247.19999694824</ele>
        <time>2016-01-06T15:50:25Z</time>
      </trkpt>
      <trkpt lat="43.42524" lon="6.07889">
        <ele>247.19999694824</ele>
        <time>2016-01-06T15:50:26Z</time>
      </trkpt>
      <trkpt lat="43.42518" lon="6.0789">
        <ele>247</ele>
        <time>2016-01-06T15:50:27Z</time>
      </trkpt>
      <trkpt lat="43.42511" lon="6.07891">
        <ele>246.19999694824</ele>
        <time>2016-01-06T15:50:28Z</time>
      </trkpt>
      <trkpt lat="43.42505" lon="6.0789">
        <ele>245.19999694824</ele>
        <time>2016-01-06T15:50:29Z</time>
      </trkpt>
      <trkpt lat="43.42498" lon="6.07892">
        <ele>245.39999389648</ele>
        <time>2016-01-06T15:50:30Z</time>
      </trkpt>
      <trkpt lat="43.42486" lon="6.07895">
        <ele>244.60000610352</ele>
        <time>2016-01-06T15:50:32Z</time>
      </trkpt>
      <trkpt lat="43.42479" lon="6.07897">
        <ele>243.80000305176</ele>
        <time>2016-01-06T15:50:34Z</time>
      </trkpt>
      <trkpt lat="43.42475" lon="6.07899">
        <ele>243.60000610352</ele>
        <time>2016-01-06T15:50:35Z</time>
      </trkpt>
      <trkpt lat="43.42472" lon="6.07899">
        <ele>243.60000610352</ele>
        <time>2016-01-06T15:50:36Z</time>
      </trkpt>
      <trkpt lat="43.4247" lon="6.07902">
        <ele>242.80000305176</ele>
        <time>2016-01-06T15:50:38Z</time>
      </trkpt>
      <trkpt lat="43.42466" lon="6.07906">
        <ele>242.60000610352</ele>
        <time>2016-01-06T15:50:40Z</time>
      </trkpt>
      <trkpt lat="43.42465" lon="6.07907">
        <ele>242.60000610352</ele>
        <time>2016-01-06T15:50:41Z</time>
      </trkpt>
      <trkpt lat="43.42463" lon="6.07909">
        <ele>242.39999389648</ele>
        <time>2016-01-06T15:50:42Z</time>
      </trkpt>
      <trkpt lat="43.42461" lon="6.07912">
        <ele>242.19999694824</ele>
        <time>2016-01-06T15:50:44Z</time>
      </trkpt>
      <trkpt lat="43.42456" lon="6.07912">
        <ele>242.39999389648</ele>
        <time>2016-01-06T15:50:46Z</time>
      </trkpt>
      <trkpt lat="43.4245" lon="6.0791">
        <ele>242</ele>
        <time>2016-01-06T15:50:48Z</time>
      </trkpt>
      <trkpt lat="43.42442" lon="6.07909">
        <ele>242</ele>
        <time>2016-01-06T15:50:50Z</time>
      </trkpt>
      <trkpt lat="43.42439" lon="6.07908">
        <ele>242</ele>
        <time>2016-01-06T15:50:51Z</time>
      </trkpt>
      <trkpt lat="43.42435" lon="6.07908">
        <ele>242.19999694824</ele>
        <time>2016-01-06T15:50:52Z</time>
      </trkpt>
      <trkpt lat="43.42427" lon="6.07906">
        <ele>242.19999694824</ele>
        <time>2016-01-06T15:50:54Z</time>
      </trkpt>
      <trkpt lat="43.4242" lon="6.07904">
        <ele>242.39999389648</ele>
        <time>2016-01-06T15:50:56Z</time>
      </trkpt>
      <trkpt lat="43.42417" lon="6.07903">
        <ele>242.19999694824</ele>
        <time>2016-01-06T15:50:57Z</time>
      </trkpt>
      <trkpt lat="43.42412" lon="6.07903">
        <ele>242</ele>
        <time>2016-01-06T15:50:58Z</time>
      </trkpt>
      <trkpt lat="43.42405" lon="6.07905">
        <ele>242</ele>
        <time>2016-01-06T15:51:00Z</time>
      </trkpt>
      <trkpt lat="43.42398" lon="6.07906">
        <ele>242.39999389648</ele>
        <time>2016-01-06T15:51:02Z</time>
      </trkpt>
      <trkpt lat="43.42392" lon="6.07909">
        <ele>242.39999389648</ele>
        <time>2016-01-06T15:51:04Z</time>
      </trkpt>
      <trkpt lat="43.42385" lon="6.07915">
        <ele>243</ele>
        <time>2016-01-06T15:51:06Z</time>
      </trkpt>
      <trkpt lat="43.42383" lon="6.07919">
        <ele>243</ele>
        <time>2016-01-06T15:51:07Z</time>
      </trkpt>
      <trkpt lat="43.42379" lon="6.07925">
        <ele>243.19999694824</ele>
        <time>2016-01-06T15:51:08Z</time>
      </trkpt>
      <trkpt lat="43.42376" lon="6.07928">
        <ele>243.19999694824</ele>
        <time>2016-01-06T15:51:09Z</time>
      </trkpt>
      <trkpt lat="43.42373" lon="6.07932">
        <ele>242.39999389648</ele>
        <time>2016-01-06T15:51:10Z</time>
      </trkpt>
      <trkpt lat="43.42369" lon="6.07936">
        <ele>242</ele>
        <time>2016-01-06T15:51:11Z</time>
      </trkpt>
      <trkpt lat="43.42366" lon="6.07939">
        <ele>242</ele>
        <time>2016-01-06T15:51:12Z</time>
      </trkpt>
      <trkpt lat="43.42361" lon="6.07945">
        <ele>242</ele>
        <time>2016-01-06T15:51:14Z</time>
      </trkpt>
      <trkpt lat="43.42355" lon="6.0795">
        <ele>241.80000305176</ele>
        <time>2016-01-06T15:51:16Z</time>
      </trkpt>
      <trkpt lat="43.4235" lon="6.07959">
        <ele>241.80000305176</ele>
        <time>2016-01-06T15:51:18Z</time>
      </trkpt>
      <trkpt lat="43.42345" lon="6.07965">
        <ele>241.60000610352</ele>
        <time>2016-01-06T15:51:20Z</time>
      </trkpt>
      <trkpt lat="43.42342" lon="6.07972">
        <ele>240.39999389648</ele>
        <time>2016-01-06T15:51:22Z</time>
      </trkpt>
      <trkpt lat="43.4234" lon="6.07976">
        <ele>239.80000305176</ele>
        <time>2016-01-06T15:51:23Z</time>
      </trkpt>
      <trkpt lat="43.4234" lon="6.07979">
        <ele>239</ele>
        <time>2016-01-06T15:51:24Z</time>
      </trkpt>
      <trkpt lat="43.42339" lon="6.07985">
        <ele>238.39999389648</ele>
        <time>2016-01-06T15:51:26Z</time>
      </trkpt>
      <trkpt lat="43.42338" lon="6.07986">
        <ele>238</ele>
        <time>2016-01-06T15:51:27Z</time>
      </trkpt>
      <trkpt lat="43.42338" lon="6.07986">
        <ele>237.80000305176</ele>
        <time>2016-01-06T15:51:28Z</time>
      </trkpt>
      <trkpt lat="43.42338" lon="6.07986">
        <ele>237.60000610352</ele>
        <time>2016-01-06T15:51:30Z</time>
      </trkpt>
      <trkpt lat="43.42337" lon="6.07986">
        <ele>237.60000610352</ele>
        <time>2016-01-06T15:51:32Z</time>
      </trkpt>
      <trkpt lat="43.42337" lon="6.07986">
        <ele>237.60000610352</ele>
        <time>2016-01-06T15:51:34Z</time>
      </trkpt>
      <trkpt lat="43.42337" lon="6.07986">
        <ele>237.60000610352</ele>
        <time>2016-01-06T15:51:36Z</time>
      </trkpt>
      <trkpt lat="43.42337" lon="6.07986">
        <ele>238</ele>
        <time>2016-01-06T15:51:38Z</time>
      </trkpt>
      <trkpt lat="43.42337" lon="6.07986">
        <ele>237.80000305176</ele>
        <time>2016-01-06T15:51:40Z</time>
      </trkpt>
      <trkpt lat="43.42337" lon="6.07986">
        <ele>237.80000305176</ele>
        <time>2016-01-06T15:51:42Z</time>
      </trkpt>
      <trkpt lat="43.42337" lon="6.07986">
        <ele>237.80000305176</ele>
        <time>2016-01-06T15:51:44Z</time>
      </trkpt>
      <trkpt lat="43.42337" lon="6.07986">
        <ele>237.60000610352</ele>
        <time>2016-01-06T15:51:46Z</time>
      </trkpt>
      <trkpt lat="43.42337" lon="6.07986">
        <ele>237.60000610352</ele>
        <time>2016-01-06T15:51:48Z</time>
      </trkpt>
      <trkpt lat="43.42337" lon="6.07986">
        <ele>237.60000610352</ele>
        <time>2016-01-06T15:51:50Z</time>
      </trkpt>
      <trkpt lat="43.42337" lon="6.07986">
        <ele>237.80000305176</ele>
        <time>2016-01-06T15:51:52Z</time>
      </trkpt>
      <trkpt lat="43.42337" lon="6.07986">
        <ele>238</ele>
        <time>2016-01-06T15:51:54Z</time>
      </trkpt>
      <trkpt lat="43.42337" lon="6.07986">
        <ele>238</ele>
        <time>2016-01-06T15:51:56Z</time>
      </trkpt>
      <trkpt lat="43.42337" lon="6.07986">
        <ele>237.80000305176</ele>
        <time>2016-01-06T15:51:58Z</time>
      </trkpt>
      <trkpt lat="43.42337" lon="6.07986">
        <ele>238</ele>
        <time>2016-01-06T15:52:00Z</time>
      </trkpt>
      <trkpt lat="43.42337" lon="6.07986">
        <ele>238</ele>
        <time>2016-01-06T15:52:02Z</time>
      </trkpt>
      <trkpt lat="43.42337" lon="6.07986">
        <ele>238</ele>
        <time>2016-01-06T15:52:04Z</time>
      </trkpt>
      <trkpt lat="43.42337" lon="6.07986">
        <ele>238</ele>
        <time>2016-01-06T15:52:06Z</time>
      </trkpt>
      <trkpt lat="43.42337" lon="6.07986">
        <ele>238</ele>
        <time>2016-01-06T15:52:08Z</time>
      </trkpt>
      <trkpt lat="43.42337" lon="6.07986">
        <ele>238.19999694824</ele>
        <time>2016-01-06T15:52:10Z</time>
      </trkpt>
      <trkpt lat="43.42337" lon="6.07986">
        <ele>238</ele>
        <time>2016-01-06T15:52:12Z</time>
      </trkpt>
      <trkpt lat="43.42337" lon="6.07986">
        <ele>238</ele>
        <time>2016-01-06T15:52:14Z</time>
      </trkpt>
      <trkpt lat="43.42337" lon="6.07986">
        <ele>238</ele>
        <time>2016-01-06T15:52:16Z</time>
      </trkpt>
      <trkpt lat="43.42337" lon="6.07986">
        <ele>238</ele>
        <time>2016-01-06T15:52:18Z</time>
      </trkpt>
      <trkpt lat="43.42337" lon="6.07986">
        <ele>238</ele>
        <time>2016-01-06T15:52:20Z</time>
      </trkpt>
      <trkpt lat="43.42337" lon="6.07986">
        <ele>238</ele>
        <time>2016-01-06T15:52:22Z</time>
      </trkpt>
      <trkpt lat="43.42337" lon="6.07986">
        <ele>238.19999694824</ele>
        <time>2016-01-06T15:52:24Z</time>
      </trkpt>
      <trkpt lat="43.42337" lon="6.07986">
        <ele>238.19999694824</ele>
        <time>2016-01-06T15:52:26Z</time>
      </trkpt>
      <trkpt lat="43.42337" lon="6.07986">
        <ele>238.19999694824</ele>
        <time>2016-01-06T15:52:28Z</time>
      </trkpt>
      <trkpt lat="43.42337" lon="6.07986">
        <ele>238.19999694824</ele>
        <time>2016-01-06T15:52:30Z</time>
      </trkpt>
      <trkpt lat="43.42337" lon="6.07986">
        <ele>238</ele>
        <time>2016-01-06T15:52:32Z</time>
      </trkpt>
      <trkpt lat="43.42337" lon="6.07986">
        <ele>238</ele>
        <time>2016-01-06T15:52:34Z</time>
      </trkpt>
      <trkpt lat="43.42337" lon="6.07986">
        <ele>237.80000305176</ele>
        <time>2016-01-06T15:52:36Z</time>
      </trkpt>
      <trkpt lat="43.42337" lon="6.07986">
        <ele>237.80000305176</ele>
        <time>2016-01-06T15:52:38Z</time>
      </trkpt>
      <trkpt lat="43.42337" lon="6.07986">
        <ele>237.80000305176</ele>
        <time>2016-01-06T15:52:39Z</time>
      </trkpt>
      <trkpt lat="43.42337" lon="6.07986">
        <ele>237.80000305176</ele>
        <time>2016-01-06T15:52:40Z</time>
      </trkpt>
      <trkpt lat="43.42337" lon="6.07986">
        <ele>237.80000305176</ele>
        <time>2016-01-06T15:52:42Z</time>
      </trkpt>
      <trkpt lat="43.42337" lon="6.07986">
        <ele>238</ele>
        <time>2016-01-06T15:52:44Z</time>
      </trkpt>
      <trkpt lat="43.42337" lon="6.07986">
        <ele>238</ele>
        <time>2016-01-06T15:52:45Z</time>
      </trkpt>
      <trkpt lat="43.42337" lon="6.07986">
        <ele>238</ele>
        <time>2016-01-06T15:52:46Z</time>
      </trkpt>
      <trkpt lat="43.42337" lon="6.07986">
        <ele>237.80000305176</ele>
        <time>2016-01-06T15:52:48Z</time>
      </trkpt>
      <trkpt lat="43.42337" lon="6.07986">
        <ele>237.80000305176</ele>
        <time>2016-01-06T15:52:50Z</time>
      </trkpt>
      <trkpt lat="43.42337" lon="6.07986">
        <ele>237.60000610352</ele>
        <time>2016-01-06T15:52:52Z</time>
      </trkpt>
      <trkpt lat="43.42337" lon="6.07986">
        <ele>237.60000610352</ele>
        <time>2016-01-06T15:52:54Z</time>
      </trkpt>
      <trkpt lat="43.42337" lon="6.07986">
        <ele>237.80000305176</ele>
        <time>2016-01-06T15:52:56Z</time>
      </trkpt>
      <trkpt lat="43.42337" lon="6.07986">
        <ele>237.80000305176</ele>
        <time>2016-01-06T15:52:58Z</time>
      </trkpt>
      <trkpt lat="43.42337" lon="6.07986">
        <ele>237.80000305176</ele>
        <time>2016-01-06T15:53:00Z</time>
      </trkpt>
      <trkpt lat="43.42337" lon="6.07986">
        <ele>237.60000610352</ele>
        <time>2016-01-06T15:53:01Z</time>
      </trkpt>
      <trkpt lat="43.42337" lon="6.07986">
        <ele>237.60000610352</ele>
        <time>2016-01-06T15:53:02Z</time>
      </trkpt>
      <trkpt lat="43.42337" lon="6.07986">
        <ele>237.60000610352</ele>
        <time>2016-01-06T15:53:04Z</time>
      </trkpt>
      <trkpt lat="43.42337" lon="6.07986">
        <ele>237.60000610352</ele>
        <time>2016-01-06T15:53:06Z</time>
      </trkpt>
      <trkpt lat="43.42337" lon="6.07986">
        <ele>237.39999389648</ele>
        <time>2016-01-06T15:53:08Z</time>
      </trkpt>
      <trkpt lat="43.42337" lon="6.07986">
        <ele>237.60000610352</ele>
        <time>2016-01-06T15:53:10Z</time>
      </trkpt>
      <trkpt lat="43.42337" lon="6.07986">
        <ele>237.39999389648</ele>
        <time>2016-01-06T15:53:12Z</time>
      </trkpt>
      <trkpt lat="43.42337" lon="6.07986">
        <ele>237.39999389648</ele>
        <time>2016-01-06T15:53:14Z</time>
      </trkpt>
      <trkpt lat="43.42337" lon="6.07986">
        <ele>237.19999694824</ele>
        <time>2016-01-06T15:53:16Z</time>
      </trkpt>
      <trkpt lat="43.42337" lon="6.07986">
        <ele>237.39999389648</ele>
        <time>2016-01-06T15:53:18Z</time>
      </trkpt>
      <trkpt lat="43.42337" lon="6.07986">
        <ele>237.39999389648</ele>
        <time>2016-01-06T15:53:20Z</time>
      </trkpt>
      <trkpt lat="43.42337" lon="6.07986">
        <ele>237.39999389648</ele>
        <time>2016-01-06T15:53:22Z</time>
      </trkpt>
      <trkpt lat="43.42336" lon="6.07986">
        <ele>237.39999389648</ele>
        <time>2016-01-06T15:53:24Z</time>
      </trkpt>
      <trkpt lat="43.42336" lon="6.07986">
        <ele>237.39999389648</ele>
        <time>2016-01-06T15:53:26Z</time>
      </trkpt>
      <trkpt lat="43.42336" lon="6.07986">
        <ele>237.60000610352</ele>
        <time>2016-01-06T15:53:30Z</time>
      </trkpt>
      <trkpt lat="43.42336" lon="6.07986">
        <ele>237.60000610352</ele>
        <time>2016-01-06T15:53:32Z</time>
      </trkpt>
      <trkpt lat="43.42336" lon="6.07986">
        <ele>237.80000305176</ele>
        <time>2016-01-06T15:53:34Z</time>
      </trkpt>
      <trkpt lat="43.42336" lon="6.07986">
        <ele>237.80000305176</ele>
        <time>2016-01-06T15:53:36Z</time>
      </trkpt>
      <trkpt lat="43.42336" lon="6.07986">
        <ele>237.60000610352</ele>
        <time>2016-01-06T15:53:38Z</time>
      </trkpt>
      <trkpt lat="43.42336" lon="6.07986">
        <ele>237.80000305176</ele>
        <time>2016-01-06T15:53:40Z</time>
      </trkpt>
      <trkpt lat="43.42336" lon="6.07986">
        <ele>238</ele>
        <time>2016-01-06T15:53:42Z</time>
      </trkpt>
      <trkpt lat="43.42336" lon="6.07986">
        <ele>237.80000305176</ele>
        <time>2016-01-06T15:53:44Z</time>
      </trkpt>
      <trkpt lat="43.42336" lon="6.07986">
        <ele>237.80000305176</ele>
        <time>2016-01-06T15:53:45Z</time>
      </trkpt>
      <trkpt lat="43.42336" lon="6.07986">
        <ele>237.60000610352</ele>
        <time>2016-01-06T15:53:48Z</time>
      </trkpt>
      <trkpt lat="43.42336" lon="6.07986">
        <ele>237.60000610352</ele>
        <time>2016-01-06T15:53:50Z</time>
      </trkpt>
      <trkpt lat="43.42336" lon="6.07987">
        <ele>237.60000610352</ele>
        <time>2016-01-06T15:53:52Z</time>
      </trkpt>
      <trkpt lat="43.42336" lon="6.07987">
        <ele>237.60000610352</ele>
        <time>2016-01-06T15:53:54Z</time>
      </trkpt>
      <trkpt lat="43.42336" lon="6.07987">
        <ele>237.60000610352</ele>
        <time>2016-01-06T15:53:56Z</time>
      </trkpt>
      <trkpt lat="43.42336" lon="6.07987">
        <ele>237.60000610352</ele>
        <time>2016-01-06T15:53:58Z</time>
      </trkpt>
      <trkpt lat="43.42336" lon="6.07987">
        <ele>237.60000610352</ele>
        <time>2016-01-06T15:54:00Z</time>
      </trkpt>
      <trkpt lat="43.42336" lon="6.07987">
        <ele>237.60000610352</ele>
        <time>2016-01-06T15:54:02Z</time>
      </trkpt>
      <trkpt lat="43.42336" lon="6.07987">
        <ele>237.60000610352</ele>
        <time>2016-01-06T15:54:04Z</time>
      </trkpt>
      <trkpt lat="43.42336" lon="6.07987">
        <ele>237.60000610352</ele>
        <time>2016-01-06T15:54:06Z</time>
      </trkpt>
      <trkpt lat="43.42336" lon="6.07987">
        <ele>237.60000610352</ele>
        <time>2016-01-06T15:54:08Z</time>
      </trkpt>
      <trkpt lat="43.42336" lon="6.07987">
        <ele>237.39999389648</ele>
        <time>2016-01-06T15:54:10Z</time>
      </trkpt>
      <trkpt lat="43.42336" lon="6.07987">
        <ele>237.39999389648</ele>
        <time>2016-01-06T15:54:12Z</time>
      </trkpt>
      <trkpt lat="43.42336" lon="6.07987">
        <ele>237.19999694824</ele>
        <time>2016-01-06T15:54:13Z</time>
      </trkpt>
      <trkpt lat="43.42336" lon="6.07987">
        <ele>237.39999389648</ele>
        <time>2016-01-06T15:54:16Z</time>
      </trkpt>
      <trkpt lat="43.42336" lon="6.07987">
        <ele>237.60000610352</ele>
        <time>2016-01-06T15:54:18Z</time>
      </trkpt>
      <trkpt lat="43.42336" lon="6.07987">
        <ele>237.39999389648</ele>
        <time>2016-01-06T15:54:20Z</time>
      </trkpt>
      <trkpt lat="43.42336" lon="6.07987">
        <ele>237.39999389648</ele>
        <time>2016-01-06T15:54:22Z</time>
      </trkpt>
      <trkpt lat="43.42336" lon="6.07987">
        <ele>237.39999389648</ele>
        <time>2016-01-06T15:54:24Z</time>
      </trkpt>
      <trkpt lat="43.42336" lon="6.07987">
        <ele>237.39999389648</ele>
        <time>2016-01-06T15:54:26Z</time>
      </trkpt>
      <trkpt lat="43.42336" lon="6.07987">
        <ele>237.19999694824</ele>
        <time>2016-01-06T15:54:28Z</time>
      </trkpt>
      <trkpt lat="43.42336" lon="6.07987">
        <ele>237.19999694824</ele>
        <time>2016-01-06T15:54:30Z</time>
      </trkpt>
      <trkpt lat="43.42336" lon="6.07987">
        <ele>237.19999694824</ele>
        <time>2016-01-06T15:54:32Z</time>
      </trkpt>
      <trkpt lat="43.42336" lon="6.07987">
        <ele>237.19999694824</ele>
        <time>2016-01-06T15:54:34Z</time>
      </trkpt>
      <trkpt lat="43.42336" lon="6.07987">
        <ele>237.19999694824</ele>
        <time>2016-01-06T15:54:36Z</time>
      </trkpt>
      <trkpt lat="43.42336" lon="6.07987">
        <ele>237.19999694824</ele>
        <time>2016-01-06T15:54:38Z</time>
      </trkpt>
      <trkpt lat="43.42336" lon="6.07987">
        <ele>237.39999389648</ele>
        <time>2016-01-06T15:54:40Z</time>
      </trkpt>
      <trkpt lat="43.42336" lon="6.07987">
        <ele>237.39999389648</ele>
        <time>2016-01-06T15:54:42Z</time>
      </trkpt>
      <trkpt lat="43.42336" lon="6.07987">
        <ele>237.39999389648</ele>
        <time>2016-01-06T15:54:44Z</time>
      </trkpt>
      <trkpt lat="43.42336" lon="6.07987">
        <ele>237.19999694824</ele>
        <time>2016-01-06T15:54:46Z</time>
      </trkpt>
      <trkpt lat="43.42336" lon="6.07987">
        <ele>237.19999694824</ele>
        <time>2016-01-06T15:54:47Z</time>
      </trkpt>
      <trkpt lat="43.42336" lon="6.07987">
        <ele>237.19999694824</ele>
        <time>2016-01-06T15:54:48Z</time>
      </trkpt>
      <trkpt lat="43.42335" lon="6.07988">
        <ele>237.19999694824</ele>
        <time>2016-01-06T15:54:50Z</time>
      </trkpt>
      <trkpt lat="43.42334" lon="6.07988">
        <ele>237</ele>
        <time>2016-01-06T15:54:51Z</time>
      </trkpt>
      <trkpt lat="43.42332" lon="6.07988">
        <ele>237</ele>
        <time>2016-01-06T15:54:52Z</time>
      </trkpt>
      <trkpt lat="43.42329" lon="6.07987">
        <ele>237</ele>
        <time>2016-01-06T15:54:54Z</time>
      </trkpt>
      <trkpt lat="43.42327" lon="6.07986">
        <ele>237</ele>
        <time>2016-01-06T15:54:55Z</time>
      </trkpt>
      <trkpt lat="43.42325" lon="6.07985">
        <ele>237</ele>
        <time>2016-01-06T15:54:56Z</time>
      </trkpt>
      <trkpt lat="43.4232" lon="6.07981">
        <ele>236.60000610352</ele>
        <time>2016-01-06T15:54:58Z</time>
      </trkpt>
      <trkpt lat="43.42318" lon="6.07979">
        <ele>236.39999389648</ele>
        <time>2016-01-06T15:54:59Z</time>
      </trkpt>
      <trkpt lat="43.42315" lon="6.07977">
        <ele>236</ele>
        <time>2016-01-06T15:55:00Z</time>
      </trkpt>
      <trkpt lat="43.42307" lon="6.0797">
        <ele>235.19999694824</ele>
        <time>2016-01-06T15:55:02Z</time>
      </trkpt>
      <trkpt lat="43.42303" lon="6.07967">
        <ele>235</ele>
        <time>2016-01-06T15:55:03Z</time>
      </trkpt>
      <trkpt lat="43.423" lon="6.07964">
        <ele>234.80000305176</ele>
        <time>2016-01-06T15:55:04Z</time>
      </trkpt>
      <trkpt lat="43.42294" lon="6.07958">
        <ele>235</ele>
        <time>2016-01-06T15:55:06Z</time>
      </trkpt>
      <trkpt lat="43.42289" lon="6.07955">
        <ele>235.19999694824</ele>
        <time>2016-01-06T15:55:08Z</time>
      </trkpt>
      <trkpt lat="43.42282" lon="6.07954">
        <ele>235.19999694824</ele>
        <time>2016-01-06T15:55:10Z</time>
      </trkpt>
      <trkpt lat="43.42273" lon="6.07954">
        <ele>235.19999694824</ele>
        <time>2016-01-06T15:55:12Z</time>
      </trkpt>
      <trkpt lat="43.42269" lon="6.07956">
        <ele>234.80000305176</ele>
        <time>2016-01-06T15:55:13Z</time>
      </trkpt>
      <trkpt lat="43.42264" lon="6.07958">
        <ele>234.39999389648</ele>
        <time>2016-01-06T15:55:14Z</time>
      </trkpt>
      <trkpt lat="43.42255" lon="6.07958">
        <ele>234.19999694824</ele>
        <time>2016-01-06T15:55:16Z</time>
      </trkpt>
      <trkpt lat="43.42251" lon="6.07956">
        <ele>234.19999694824</ele>
        <time>2016-01-06T15:55:17Z</time>
      </trkpt>
      <trkpt lat="43.42248" lon="6.07952">
        <ele>234.39999389648</ele>
        <time>2016-01-06T15:55:18Z</time>
      </trkpt>
      <trkpt lat="43.42245" lon="6.07945">
        <ele>234.60000610352</ele>
        <time>2016-01-06T15:55:20Z</time>
      </trkpt>
      <trkpt lat="43.42244" lon="6.0794">
        <ele>235</ele>
        <time>2016-01-06T15:55:22Z</time>
      </trkpt>
      <trkpt lat="43.42242" lon="6.07936">
        <ele>235.19999694824</ele>
        <time>2016-01-06T15:55:24Z</time>
      </trkpt>
      <trkpt lat="43.42242" lon="6.07935">
        <ele>235.19999694824</ele>
        <time>2016-01-06T15:55:25Z</time>
      </trkpt>
      <trkpt lat="43.42242" lon="6.07935">
        <ele>235.19999694824</ele>
        <time>2016-01-06T15:55:26Z</time>
      </trkpt>
      <trkpt lat="43.42242" lon="6.07936">
        <ele>235.60000610352</ele>
        <time>2016-01-06T15:55:28Z</time>
      </trkpt>
      <trkpt lat="43.42241" lon="6.07936">
        <ele>235.60000610352</ele>
        <time>2016-01-06T15:55:29Z</time>
      </trkpt>
      <trkpt lat="43.42241" lon="6.07936">
        <ele>235.80000305176</ele>
        <time>2016-01-06T15:55:30Z</time>
      </trkpt>
      <trkpt lat="43.42241" lon="6.07936">
        <ele>236</ele>
        <time>2016-01-06T15:55:32Z</time>
      </trkpt>
      <trkpt lat="43.42241" lon="6.07936">
        <ele>236</ele>
        <time>2016-01-06T15:55:34Z</time>
      </trkpt>
      <trkpt lat="43.42241" lon="6.07935">
        <ele>236</ele>
        <time>2016-01-06T15:55:36Z</time>
      </trkpt>
      <trkpt lat="43.4224" lon="6.0793">
        <ele>236.39999389648</ele>
        <time>2016-01-06T15:55:38Z</time>
      </trkpt>
      <trkpt lat="43.42239" lon="6.07924">
        <ele>236.80000305176</ele>
        <time>2016-01-06T15:55:40Z</time>
      </trkpt>
      <trkpt lat="43.42239" lon="6.07917">
        <ele>236.60000610352</ele>
        <time>2016-01-06T15:55:42Z</time>
      </trkpt>
      <trkpt lat="43.42237" lon="6.07909">
        <ele>236.39999389648</ele>
        <time>2016-01-06T15:55:44Z</time>
      </trkpt>
      <trkpt lat="43.42236" lon="6.07901">
        <ele>236.19999694824</ele>
        <time>2016-01-06T15:55:46Z</time>
      </trkpt>
      <trkpt lat="43.42232" lon="6.07896">
        <ele>235.80000305176</ele>
        <time>2016-01-06T15:55:48Z</time>
      </trkpt>
      <trkpt lat="43.4223" lon="6.07894">
        <ele>235.60000610352</ele>
        <time>2016-01-06T15:55:49Z</time>
      </trkpt>
      <trkpt lat="43.42225" lon="6.07892">
        <ele>235.39999389648</ele>
        <time>2016-01-06T15:55:50Z</time>
      </trkpt>
      <trkpt lat="43.42216" lon="6.07888">
        <ele>234.39999389648</ele>
        <time>2016-01-06T15:55:52Z</time>
      </trkpt>
      <trkpt lat="43.42207" lon="6.07883">
        <ele>234.39999389648</ele>
        <time>2016-01-06T15:55:54Z</time>
      </trkpt>
      <trkpt lat="43.42197" lon="6.07879">
        <ele>234.19999694824</ele>
        <time>2016-01-06T15:55:56Z</time>
      </trkpt>
      <trkpt lat="43.42187" lon="6.07876">
        <ele>234.19999694824</ele>
        <time>2016-01-06T15:55:58Z</time>
      </trkpt>
      <trkpt lat="43.42182" lon="6.07875">
        <ele>234.19999694824</ele>
        <time>2016-01-06T15:55:59Z</time>
      </trkpt>
      <trkpt lat="43.42177" lon="6.07874">
        <ele>234</ele>
        <time>2016-01-06T15:56:00Z</time>
      </trkpt>
      <trkpt lat="43.42168" lon="6.07874">
        <ele>234</ele>
        <time>2016-01-06T15:56:02Z</time>
      </trkpt>
      <trkpt lat="43.42156" lon="6.07877">
        <ele>234.39999389648</ele>
        <time>2016-01-06T15:56:04Z</time>
      </trkpt>
      <trkpt lat="43.42152" lon="6.07877">
        <ele>234.60000610352</ele>
        <time>2016-01-06T15:56:05Z</time>
      </trkpt>
      <trkpt lat="43.42147" lon="6.07877">
        <ele>234.80000305176</ele>
        <time>2016-01-06T15:56:06Z</time>
      </trkpt>
      <trkpt lat="43.42142" lon="6.07876">
        <ele>235.19999694824</ele>
        <time>2016-01-06T15:56:07Z</time>
      </trkpt>
      <trkpt lat="43.42138" lon="6.07877">
        <ele>235.80000305176</ele>
        <time>2016-01-06T15:56:08Z</time>
      </trkpt>
      <trkpt lat="43.4213" lon="6.07878">
        <ele>236.60000610352</ele>
        <time>2016-01-06T15:56:10Z</time>
      </trkpt>
      <trkpt lat="43.42126" lon="6.07879">
        <ele>237</ele>
        <time>2016-01-06T15:56:11Z</time>
      </trkpt>
      <trkpt lat="43.42122" lon="6.0788">
        <ele>237.39999389648</ele>
        <time>2016-01-06T15:56:12Z</time>
      </trkpt>
      <trkpt lat="43.42115" lon="6.0788">
        <ele>238.19999694824</ele>
        <time>2016-01-06T15:56:14Z</time>
      </trkpt>
      <trkpt lat="43.42107" lon="6.07879">
        <ele>239</ele>
        <time>2016-01-06T15:56:16Z</time>
      </trkpt>
      <trkpt lat="43.42101" lon="6.07878">
        <ele>238.60000610352</ele>
        <time>2016-01-06T15:56:18Z</time>
      </trkpt>
      <trkpt lat="43.42097" lon="6.07873">
        <ele>239.19999694824</ele>
        <time>2016-01-06T15:56:20Z</time>
      </trkpt>
      <trkpt lat="43.42096" lon="6.07871">
        <ele>239.60000610352</ele>
        <time>2016-01-06T15:56:21Z</time>
      </trkpt>
      <trkpt lat="43.42095" lon="6.0787">
        <ele>239.80000305176</ele>
        <time>2016-01-06T15:56:22Z</time>
      </trkpt>
      <trkpt lat="43.42093" lon="6.07866">
        <ele>240.19999694824</ele>
        <time>2016-01-06T15:56:24Z</time>
      </trkpt>
      <trkpt lat="43.42093" lon="6.07862">
        <ele>240.19999694824</ele>
        <time>2016-01-06T15:56:26Z</time>
      </trkpt>
      <trkpt lat="43.42092" lon="6.07859">
        <ele>240.80000305176</ele>
        <time>2016-01-06T15:56:28Z</time>
      </trkpt>
      <trkpt lat="43.42091" lon="6.07856">
        <ele>240.80000305176</ele>
        <time>2016-01-06T15:56:30Z</time>
      </trkpt>
      <trkpt lat="43.4209" lon="6.07854">
        <ele>241.19999694824</ele>
        <time>2016-01-06T15:56:32Z</time>
      </trkpt>
      <trkpt lat="43.42089" lon="6.07851">
        <ele>241.39999389648</ele>
        <time>2016-01-06T15:56:34Z</time>
      </trkpt>
      <trkpt lat="43.42089" lon="6.07849">
        <ele>241.39999389648</ele>
        <time>2016-01-06T15:56:36Z</time>
      </trkpt>
      <trkpt lat="43.42088" lon="6.07846">
        <ele>241.80000305176</ele>
        <time>2016-01-06T15:56:38Z</time>
      </trkpt>
      <trkpt lat="43.42089" lon="6.07842">
        <ele>241.60000610352</ele>
        <time>2016-01-06T15:56:40Z</time>
      </trkpt>
      <trkpt lat="43.42091" lon="6.07837">
        <ele>242</ele>
        <time>2016-01-06T15:56:42Z</time>
      </trkpt>
      <trkpt lat="43.42093" lon="6.0783">
        <ele>241.80000305176</ele>
        <time>2016-01-06T15:56:44Z</time>
      </trkpt>
      <trkpt lat="43.42096" lon="6.0782">
        <ele>240.80000305176</ele>
        <time>2016-01-06T15:56:46Z</time>
      </trkpt>
      <trkpt lat="43.42097" lon="6.07815">
        <ele>240.39999389648</ele>
        <time>2016-01-06T15:56:47Z</time>
      </trkpt>
      <trkpt lat="43.42099" lon="6.07808">
        <ele>239.80000305176</ele>
        <time>2016-01-06T15:56:48Z</time>
      </trkpt>
      <trkpt lat="43.42101" lon="6.07802">
        <ele>239.39999389648</ele>
        <time>2016-01-06T15:56:49Z</time>
      </trkpt>
      <trkpt lat="43.42102" lon="6.07794">
        <ele>239.39999389648</ele>
        <time>2016-01-06T15:56:50Z</time>
      </trkpt>
      <trkpt lat="43.42107" lon="6.0778">
        <ele>239.19999694824</ele>
        <time>2016-01-06T15:56:52Z</time>
      </trkpt>
      <trkpt lat="43.42109" lon="6.07772">
        <ele>238.39999389648</ele>
        <time>2016-01-06T15:56:53Z</time>
      </trkpt>
      <trkpt lat="43.42112" lon="6.07763">
        <ele>237.80000305176</ele>
        <time>2016-01-06T15:56:54Z</time>
      </trkpt>
      <trkpt lat="43.42114" lon="6.07755">
        <ele>237.39999389648</ele>
        <time>2016-01-06T15:56:55Z</time>
      </trkpt>
      <trkpt lat="43.42117" lon="6.07745">
        <ele>237.19999694824</ele>
        <time>2016-01-06T15:56:56Z</time>
      </trkpt>
      <trkpt lat="43.42119" lon="6.07737">
        <ele>236.39999389648</ele>
        <time>2016-01-06T15:56:57Z</time>
      </trkpt>
      <trkpt lat="43.42122" lon="6.07727">
        <ele>235</ele>
        <time>2016-01-06T15:56:58Z</time>
      </trkpt>
      <trkpt lat="43.42125" lon="6.07718">
        <ele>234.39999389648</ele>
        <time>2016-01-06T15:56:59Z</time>
      </trkpt>
      <trkpt lat="43.42127" lon="6.07708">
        <ele>233.80000305176</ele>
        <time>2016-01-06T15:57:00Z</time>
      </trkpt>
      <trkpt lat="43.42133" lon="6.07688">
        <ele>233.39999389648</ele>
        <time>2016-01-06T15:57:02Z</time>
      </trkpt>
      <trkpt lat="43.42138" lon="6.07667">
        <ele>233</ele>
        <time>2016-01-06T15:57:04Z</time>
      </trkpt>
      <trkpt lat="43.42144" lon="6.07647">
        <ele>233</ele>
        <time>2016-01-06T15:57:06Z</time>
      </trkpt>
      <trkpt lat="43.42147" lon="6.07637">
        <ele>232.39999389648</ele>
        <time>2016-01-06T15:57:07Z</time>
      </trkpt>
      <trkpt lat="43.4215" lon="6.07627">
        <ele>231.80000305176</ele>
        <time>2016-01-06T15:57:08Z</time>
      </trkpt>
      <trkpt lat="43.42152" lon="6.07617">
        <ele>231.39999389648</ele>
        <time>2016-01-06T15:57:09Z</time>
      </trkpt>
      <trkpt lat="43.42155" lon="6.07606">
        <ele>231.39999389648</ele>
        <time>2016-01-06T15:57:10Z</time>
      </trkpt>
      <trkpt lat="43.4216" lon="6.07586">
        <ele>231.19999694824</ele>
        <time>2016-01-06T15:57:12Z</time>
      </trkpt>
      <trkpt lat="43.42163" lon="6.07566">
        <ele>230.80000305176</ele>
        <time>2016-01-06T15:57:14Z</time>
      </trkpt>
      <trkpt lat="43.42167" lon="6.07548">
        <ele>229.39999389648</ele>
        <time>2016-01-06T15:57:16Z</time>
      </trkpt>
      <trkpt lat="43.42171" lon="6.0753">
        <ele>228.80000305176</ele>
        <time>2016-01-06T15:57:18Z</time>
      </trkpt>
      <trkpt lat="43.42174" lon="6.07513">
        <ele>228.60000610352</ele>
        <time>2016-01-06T15:57:20Z</time>
      </trkpt>
      <trkpt lat="43.42175" lon="6.07506">
        <ele>227.80000305176</ele>
        <time>2016-01-06T15:57:21Z</time>
      </trkpt>
      <trkpt lat="43.42178" lon="6.07498">
        <ele>227.39999389648</ele>
        <time>2016-01-06T15:57:22Z</time>
      </trkpt>
      <trkpt lat="43.42181" lon="6.07483">
        <ele>227.80000305176</ele>
        <time>2016-01-06T15:57:24Z</time>
      </trkpt>
      <trkpt lat="43.42185" lon="6.07469">
        <ele>228</ele>
        <time>2016-01-06T15:57:26Z</time>
      </trkpt>
      <trkpt lat="43.42186" lon="6.07462">
        <ele>227.80000305176</ele>
        <time>2016-01-06T15:57:27Z</time>
      </trkpt>
      <trkpt lat="43.42188" lon="6.07455">
        <ele>227.60000610352</ele>
        <time>2016-01-06T15:57:28Z</time>
      </trkpt>
      <trkpt lat="43.4219" lon="6.07442">
        <ele>227.80000305176</ele>
        <time>2016-01-06T15:57:30Z</time>
      </trkpt>
      <trkpt lat="43.42192" lon="6.07431">
        <ele>227.39999389648</ele>
        <time>2016-01-06T15:57:32Z</time>
      </trkpt>
      <trkpt lat="43.42192" lon="6.07427">
        <ele>227</ele>
        <time>2016-01-06T15:57:33Z</time>
      </trkpt>
      <trkpt lat="43.42193" lon="6.07422">
        <ele>226.80000305176</ele>
        <time>2016-01-06T15:57:34Z</time>
      </trkpt>
      <trkpt lat="43.42193" lon="6.07417">
        <ele>226.60000610352</ele>
        <time>2016-01-06T15:57:35Z</time>
      </trkpt>
      <trkpt lat="43.42194" lon="6.07412">
        <ele>226.39999389648</ele>
        <time>2016-01-06T15:57:36Z</time>
      </trkpt>
      <trkpt lat="43.42195" lon="6.07404">
        <ele>226.39999389648</ele>
        <time>2016-01-06T15:57:38Z</time>
      </trkpt>
      <trkpt lat="43.42196" lon="6.07394">
        <ele>226.60000610352</ele>
        <time>2016-01-06T15:57:40Z</time>
      </trkpt>
      <trkpt lat="43.42198" lon="6.07384">
        <ele>226.60000610352</ele>
        <time>2016-01-06T15:57:42Z</time>
      </trkpt>
      <trkpt lat="43.42199" lon="6.07373">
        <ele>226.60000610352</ele>
        <time>2016-01-06T15:57:44Z</time>
      </trkpt>
      <trkpt lat="43.42201" lon="6.07362">
        <ele>226.60000610352</ele>
        <time>2016-01-06T15:57:46Z</time>
      </trkpt>
      <trkpt lat="43.42202" lon="6.0735">
        <ele>226.39999389648</ele>
        <time>2016-01-06T15:57:48Z</time>
      </trkpt>
      <trkpt lat="43.42204" lon="6.07338">
        <ele>226.60000610352</ele>
        <time>2016-01-06T15:57:50Z</time>
      </trkpt>
      <trkpt lat="43.42205" lon="6.07333">
        <ele>226.60000610352</ele>
        <time>2016-01-06T15:57:51Z</time>
      </trkpt>
      <trkpt lat="43.42206" lon="6.07327">
        <ele>226.60000610352</ele>
        <time>2016-01-06T15:57:52Z</time>
      </trkpt>
      <trkpt lat="43.42208" lon="6.07315">
        <ele>226.80000305176</ele>
        <time>2016-01-06T15:57:54Z</time>
      </trkpt>
      <trkpt lat="43.42208" lon="6.07309">
        <ele>226.60000610352</ele>
        <time>2016-01-06T15:57:55Z</time>
      </trkpt>
      <trkpt lat="43.42209" lon="6.07303">
        <ele>226.80000305176</ele>
        <time>2016-01-06T15:57:56Z</time>
      </trkpt>
      <trkpt lat="43.42211" lon="6.0729">
        <ele>226.80000305176</ele>
        <time>2016-01-06T15:57:58Z</time>
      </trkpt>
      <trkpt lat="43.42213" lon="6.07278">
        <ele>227</ele>
        <time>2016-01-06T15:58:00Z</time>
      </trkpt>
      <trkpt lat="43.42215" lon="6.07265">
        <ele>226.80000305176</ele>
        <time>2016-01-06T15:58:02Z</time>
      </trkpt>
      <trkpt lat="43.42216" lon="6.07253">
        <ele>226.80000305176</ele>
        <time>2016-01-06T15:58:04Z</time>
      </trkpt>
      <trkpt lat="43.42218" lon="6.07241">
        <ele>226.39999389648</ele>
        <time>2016-01-06T15:58:06Z</time>
      </trkpt>
      <trkpt lat="43.42219" lon="6.07235">
        <ele>226.60000610352</ele>
        <time>2016-01-06T15:58:07Z</time>
      </trkpt>
      <trkpt lat="43.4222" lon="6.07229">
        <ele>226.80000305176</ele>
        <time>2016-01-06T15:58:08Z</time>
      </trkpt>
      <trkpt lat="43.42221" lon="6.07218">
        <ele>226.80000305176</ele>
        <time>2016-01-06T15:58:10Z</time>
      </trkpt>
      <trkpt lat="43.42222" lon="6.07213">
        <ele>227</ele>
        <time>2016-01-06T15:58:11Z</time>
      </trkpt>
      <trkpt lat="43.42223" lon="6.07206">
        <ele>227</ele>
        <time>2016-01-06T15:58:12Z</time>
      </trkpt>
      <trkpt lat="43.42224" lon="6.07194">
        <ele>226.80000305176</ele>
        <time>2016-01-06T15:58:14Z</time>
      </trkpt>
      <trkpt lat="43.42226" lon="6.07182">
        <ele>226.60000610352</ele>
        <time>2016-01-06T15:58:16Z</time>
      </trkpt>
      <trkpt lat="43.42228" lon="6.0717">
        <ele>226.39999389648</ele>
        <time>2016-01-06T15:58:18Z</time>
      </trkpt>
      <trkpt lat="43.42229" lon="6.07164">
        <ele>226.39999389648</ele>
        <time>2016-01-06T15:58:19Z</time>
      </trkpt>
      <trkpt lat="43.42229" lon="6.07158">
        <ele>226.60000610352</ele>
        <time>2016-01-06T15:58:20Z</time>
      </trkpt>
      <trkpt lat="43.42231" lon="6.07147">
        <ele>226.60000610352</ele>
        <time>2016-01-06T15:58:22Z</time>
      </trkpt>
      <trkpt lat="43.42234" lon="6.07136">
        <ele>226.60000610352</ele>
        <time>2016-01-06T15:58:24Z</time>
      </trkpt>
      <trkpt lat="43.42234" lon="6.0713">
        <ele>226.80000305176</ele>
        <time>2016-01-06T15:58:25Z</time>
      </trkpt>
      <trkpt lat="43.42235" lon="6.07123">
        <ele>226.60000610352</ele>
        <time>2016-01-06T15:58:26Z</time>
      </trkpt>
      <trkpt lat="43.42236" lon="6.07112">
        <ele>226.39999389648</ele>
        <time>2016-01-06T15:58:28Z</time>
      </trkpt>
      <trkpt lat="43.42237" lon="6.07101">
        <ele>226.19999694824</ele>
        <time>2016-01-06T15:58:30Z</time>
      </trkpt>
      <trkpt lat="43.42237" lon="6.07096">
        <ele>226.19999694824</ele>
        <time>2016-01-06T15:58:31Z</time>
      </trkpt>
      <trkpt lat="43.42237" lon="6.07091">
        <ele>226.39999389648</ele>
        <time>2016-01-06T15:58:32Z</time>
      </trkpt>
      <trkpt lat="43.42237" lon="6.07081">
        <ele>226.80000305176</ele>
        <time>2016-01-06T15:58:34Z</time>
      </trkpt>
      <trkpt lat="43.42235" lon="6.07073">
        <ele>227.19999694824</ele>
        <time>2016-01-06T15:58:36Z</time>
      </trkpt>
      <trkpt lat="43.42233" lon="6.0707">
        <ele>227.39999389648</ele>
        <time>2016-01-06T15:58:37Z</time>
      </trkpt>
      <trkpt lat="43.4223" lon="6.07068">
        <ele>227.60000610352</ele>
        <time>2016-01-06T15:58:38Z</time>
      </trkpt>
      <trkpt lat="43.42224" lon="6.07065">
        <ele>227.80000305176</ele>
        <time>2016-01-06T15:58:40Z</time>
      </trkpt>
      <trkpt lat="43.42221" lon="6.07064">
        <ele>228</ele>
        <time>2016-01-06T15:58:41Z</time>
      </trkpt>
      <trkpt lat="43.42218" lon="6.07063">
        <ele>228</ele>
        <time>2016-01-06T15:58:42Z</time>
      </trkpt>
      <trkpt lat="43.42213" lon="6.07059">
        <ele>227.80000305176</ele>
        <time>2016-01-06T15:58:44Z</time>
      </trkpt>
      <trkpt lat="43.42208" lon="6.07056">
        <ele>227.19999694824</ele>
        <time>2016-01-06T15:58:46Z</time>
      </trkpt>
      <trkpt lat="43.42203" lon="6.07053">
        <ele>227</ele>
        <time>2016-01-06T15:58:48Z</time>
      </trkpt>
      <trkpt lat="43.42193" lon="6.07052">
        <ele>226.80000305176</ele>
        <time>2016-01-06T15:58:50Z</time>
      </trkpt>
      <trkpt lat="43.42194" lon="6.07056">
        <ele>226.60000610352</ele>
        <time>2016-01-06T15:58:51Z</time>
      </trkpt>
      <trkpt lat="43.42187" lon="6.07054">
        <ele>226.39999389648</ele>
        <time>2016-01-06T15:58:52Z</time>
      </trkpt>
      <trkpt lat="43.4218" lon="6.07055">
        <ele>226.19999694824</ele>
        <time>2016-01-06T15:58:53Z</time>
      </trkpt>
      <trkpt lat="43.42174" lon="6.07056">
        <ele>226.19999694824</ele>
        <time>2016-01-06T15:58:54Z</time>
      </trkpt>
      <trkpt lat="43.42169" lon="6.07058">
        <ele>225.80000305176</ele>
        <time>2016-01-06T15:58:55Z</time>
      </trkpt>
      <trkpt lat="43.42165" lon="6.07061">
        <ele>225.39999389648</ele>
        <time>2016-01-06T15:58:56Z</time>
      </trkpt>
      <trkpt lat="43.42163" lon="6.07065">
        <ele>225</ele>
        <time>2016-01-06T15:58:57Z</time>
      </trkpt>
      <trkpt lat="43.42162" lon="6.0707">
        <ele>225</ele>
        <time>2016-01-06T15:58:58Z</time>
      </trkpt>
      <trkpt lat="43.42164" lon="6.07078">
        <ele>224.60000610352</ele>
        <time>2016-01-06T15:59:00Z</time>
      </trkpt>
      <trkpt lat="43.42164" lon="6.07082">
        <ele>224.39999389648</ele>
        <time>2016-01-06T15:59:01Z</time>
      </trkpt>
      <trkpt lat="43.42165" lon="6.07086">
        <ele>224.39999389648</ele>
        <time>2016-01-06T15:59:02Z</time>
      </trkpt>
      <trkpt lat="43.42166" lon="6.07092">
        <ele>224</ele>
        <time>2016-01-06T15:59:04Z</time>
      </trkpt>
      <trkpt lat="43.42167" lon="6.07093">
        <ele>223.80000305176</ele>
        <time>2016-01-06T15:59:05Z</time>
      </trkpt>
      <trkpt lat="43.42167" lon="6.07095">
        <ele>223.60000610352</ele>
        <time>2016-01-06T15:59:06Z</time>
      </trkpt>
      <trkpt lat="43.42167" lon="6.07095">
        <ele>223.80000305176</ele>
        <time>2016-01-06T15:59:08Z</time>
      </trkpt>
      <trkpt lat="43.42167" lon="6.07096">
        <ele>223.80000305176</ele>
        <time>2016-01-06T15:59:10Z</time>
      </trkpt>
      <trkpt lat="43.42167" lon="6.07096">
        <ele>223.80000305176</ele>
        <time>2016-01-06T15:59:11Z</time>
      </trkpt>
      <trkpt lat="43.42167" lon="6.07096">
        <ele>223.60000610352</ele>
        <time>2016-01-06T15:59:12Z</time>
      </trkpt>
      <trkpt lat="43.42167" lon="6.07096">
        <ele>223.39999389648</ele>
        <time>2016-01-06T15:59:14Z</time>
      </trkpt>
      <trkpt lat="43.42167" lon="6.07096">
        <ele>223.39999389648</ele>
        <time>2016-01-06T15:59:16Z</time>
      </trkpt>
      <trkpt lat="43.42167" lon="6.07096">
        <ele>223.60000610352</ele>
        <time>2016-01-06T15:59:18Z</time>
      </trkpt>
      <trkpt lat="43.42167" lon="6.07096">
        <ele>223.39999389648</ele>
        <time>2016-01-06T15:59:20Z</time>
      </trkpt>
      <trkpt lat="43.42167" lon="6.07096">
        <ele>223.39999389648</ele>
        <time>2016-01-06T15:59:22Z</time>
      </trkpt>
      <trkpt lat="43.42167" lon="6.07096">
        <ele>223.39999389648</ele>
        <time>2016-01-06T15:59:24Z</time>
      </trkpt>
      <trkpt lat="43.42167" lon="6.07096">
        <ele>223.60000610352</ele>
        <time>2016-01-06T15:59:26Z</time>
      </trkpt>
      <trkpt lat="43.42167" lon="6.07096">
        <ele>223.60000610352</ele>
        <time>2016-01-06T15:59:28Z</time>
      </trkpt>
      <trkpt lat="43.42167" lon="6.07096">
        <ele>223.60000610352</ele>
        <time>2016-01-06T15:59:30Z</time>
      </trkpt>
      <trkpt lat="43.42167" lon="6.07097">
        <ele>223.19999694824</ele>
        <time>2016-01-06T15:59:32Z</time>
      </trkpt>
      <trkpt lat="43.42167" lon="6.07097">
        <ele>223.39999389648</ele>
        <time>2016-01-06T15:59:34Z</time>
      </trkpt>
      <trkpt lat="43.42167" lon="6.07097">
        <ele>223.39999389648</ele>
        <time>2016-01-06T15:59:36Z</time>
      </trkpt>
      <trkpt lat="43.42167" lon="6.07097">
        <ele>223.19999694824</ele>
        <time>2016-01-06T15:59:37Z</time>
      </trkpt>
      <trkpt lat="43.42167" lon="6.07097">
        <ele>223.19999694824</ele>
        <time>2016-01-06T15:59:38Z</time>
      </trkpt>
      <trkpt lat="43.42167" lon="6.07097">
        <ele>223.19999694824</ele>
        <time>2016-01-06T15:59:40Z</time>
      </trkpt>
      <trkpt lat="43.42167" lon="6.07097">
        <ele>223.39999389648</ele>
        <time>2016-01-06T15:59:42Z</time>
      </trkpt>
      <trkpt lat="43.42167" lon="6.07097">
        <ele>223.19999694824</ele>
        <time>2016-01-06T15:59:44Z</time>
      </trkpt>
      <trkpt lat="43.42167" lon="6.07097">
        <ele>223.19999694824</ele>
        <time>2016-01-06T15:59:46Z</time>
      </trkpt>
      <trkpt lat="43.42167" lon="6.07097">
        <ele>223.19999694824</ele>
        <time>2016-01-06T15:59:48Z</time>
      </trkpt>
      <trkpt lat="43.42167" lon="6.07097">
        <ele>223.19999694824</ele>
        <time>2016-01-06T15:59:50Z</time>
      </trkpt>
      <trkpt lat="43.42167" lon="6.07097">
        <ele>223</ele>
        <time>2016-01-06T15:59:52Z</time>
      </trkpt>
      <trkpt lat="43.42167" lon="6.07097">
        <ele>223</ele>
        <time>2016-01-06T15:59:54Z</time>
      </trkpt>
      <trkpt lat="43.42167" lon="6.07097">
        <ele>223.19999694824</ele>
        <time>2016-01-06T15:59:56Z</time>
      </trkpt>
      <trkpt lat="43.42167" lon="6.07097">
        <ele>223.19999694824</ele>
        <time>2016-01-06T15:59:58Z</time>
      </trkpt>
      <trkpt lat="43.42167" lon="6.07097">
        <ele>223.19999694824</ele>
        <time>2016-01-06T16:00:00Z</time>
      </trkpt>
      <trkpt lat="43.42167" lon="6.07097">
        <ele>223.19999694824</ele>
        <time>2016-01-06T16:00:02Z</time>
      </trkpt>
      <trkpt lat="43.42167" lon="6.07097">
        <ele>223.19999694824</ele>
        <time>2016-01-06T16:00:04Z</time>
      </trkpt>
      <trkpt lat="43.42167" lon="6.07097">
        <ele>223.19999694824</ele>
        <time>2016-01-06T16:00:06Z</time>
      </trkpt>
      <trkpt lat="43.42167" lon="6.07097">
        <ele>223.39999389648</ele>
        <time>2016-01-06T16:00:08Z</time>
      </trkpt>
      <trkpt lat="43.42167" lon="6.07097">
        <ele>223.39999389648</ele>
        <time>2016-01-06T16:00:10Z</time>
      </trkpt>
      <trkpt lat="43.42167" lon="6.07097">
        <ele>223.60000610352</ele>
        <time>2016-01-06T16:00:12Z</time>
      </trkpt>
      <trkpt lat="43.42167" lon="6.07097">
        <ele>223.60000610352</ele>
        <time>2016-01-06T16:00:14Z</time>
      </trkpt>
      <trkpt lat="43.42167" lon="6.07097">
        <ele>223.39999389648</ele>
        <time>2016-01-06T16:00:16Z</time>
      </trkpt>
      <trkpt lat="43.42167" lon="6.07097">
        <ele>223.39999389648</ele>
        <time>2016-01-06T16:00:17Z</time>
      </trkpt>
      <trkpt lat="43.42167" lon="6.07097">
        <ele>223.39999389648</ele>
        <time>2016-01-06T16:00:18Z</time>
      </trkpt>
      <trkpt lat="43.42167" lon="6.07097">
        <ele>223.60000610352</ele>
        <time>2016-01-06T16:00:20Z</time>
      </trkpt>
      <trkpt lat="43.42167" lon="6.07097">
        <ele>223.60000610352</ele>
        <time>2016-01-06T16:00:22Z</time>
      </trkpt>
      <trkpt lat="43.42167" lon="6.07097">
        <ele>223.80000305176</ele>
        <time>2016-01-06T16:00:24Z</time>
      </trkpt>
      <trkpt lat="43.42167" lon="6.07098">
        <ele>223.60000610352</ele>
        <time>2016-01-06T16:00:26Z</time>
      </trkpt>
      <trkpt lat="43.42167" lon="6.07098">
        <ele>223.60000610352</ele>
        <time>2016-01-06T16:00:28Z</time>
      </trkpt>
      <trkpt lat="43.42167" lon="6.07098">
        <ele>223.60000610352</ele>
        <time>2016-01-06T16:00:29Z</time>
      </trkpt>
      <trkpt lat="43.42167" lon="6.07098">
        <ele>223.60000610352</ele>
        <time>2016-01-06T16:00:30Z</time>
      </trkpt>
      <trkpt lat="43.42168" lon="6.07098">
        <ele>223.80000305176</ele>
        <time>2016-01-06T16:00:32Z</time>
      </trkpt>
      <trkpt lat="43.42167" lon="6.07098">
        <ele>223.60000610352</ele>
        <time>2016-01-06T16:00:34Z</time>
      </trkpt>
      <trkpt lat="43.42167" lon="6.07098">
        <ele>223.39999389648</ele>
        <time>2016-01-06T16:00:36Z</time>
      </trkpt>
      <trkpt lat="43.42167" lon="6.07098">
        <ele>223.39999389648</ele>
        <time>2016-01-06T16:00:38Z</time>
      </trkpt>
      <trkpt lat="43.42167" lon="6.07098">
        <ele>223.60000610352</ele>
        <time>2016-01-06T16:00:40Z</time>
      </trkpt>
      <trkpt lat="43.42167" lon="6.07098">
        <ele>223.39999389648</ele>
        <time>2016-01-06T16:00:42Z</time>
      </trkpt>
      <trkpt lat="43.42167" lon="6.07098">
        <ele>223.39999389648</ele>
        <time>2016-01-06T16:00:44Z</time>
      </trkpt>
      <trkpt lat="43.42167" lon="6.07098">
        <ele>223.60000610352</ele>
        <time>2016-01-06T16:00:46Z</time>
      </trkpt>
      <trkpt lat="43.42167" lon="6.07098">
        <ele>223.60000610352</ele>
        <time>2016-01-06T16:00:48Z</time>
      </trkpt>
      <trkpt lat="43.42167" lon="6.07098">
        <ele>223.60000610352</ele>
        <time>2016-01-06T16:00:50Z</time>
      </trkpt>
      <trkpt lat="43.42167" lon="6.07098">
        <ele>223.60000610352</ele>
        <time>2016-01-06T16:00:52Z</time>
      </trkpt>
      <trkpt lat="43.42167" lon="6.07098">
        <ele>223.60000610352</ele>
        <time>2016-01-06T16:00:54Z</time>
      </trkpt>
      <trkpt lat="43.42167" lon="6.07098">
        <ele>223.80000305176</ele>
        <time>2016-01-06T16:00:56Z</time>
      </trkpt>
      <trkpt lat="43.42167" lon="6.07098">
        <ele>223.60000610352</ele>
        <time>2016-01-06T16:00:58Z</time>
      </trkpt>
      <trkpt lat="43.42167" lon="6.07098">
        <ele>223.60000610352</ele>
        <time>2016-01-06T16:01:00Z</time>
      </trkpt>
      <trkpt lat="43.42167" lon="6.07098">
        <ele>223.39999389648</ele>
        <time>2016-01-06T16:01:02Z</time>
      </trkpt>
      <trkpt lat="43.42167" lon="6.07098">
        <ele>223.60000610352</ele>
        <time>2016-01-06T16:01:04Z</time>
      </trkpt>
      <trkpt lat="43.42167" lon="6.07098">
        <ele>223.60000610352</ele>
        <time>2016-01-06T16:01:06Z</time>
      </trkpt>
      <trkpt lat="43.42167" lon="6.07098">
        <ele>223.39999389648</ele>
        <time>2016-01-06T16:01:08Z</time>
      </trkpt>
      <trkpt lat="43.42167" lon="6.07098">
        <ele>223.39999389648</ele>
        <time>2016-01-06T16:01:10Z</time>
      </trkpt>
      <trkpt lat="43.42167" lon="6.07098">
        <ele>223.19999694824</ele>
        <time>2016-01-06T16:01:12Z</time>
      </trkpt>
      <trkpt lat="43.42167" lon="6.07099">
        <ele>223.19999694824</ele>
        <time>2016-01-06T16:01:14Z</time>
      </trkpt>
      <trkpt lat="43.42167" lon="6.07099">
        <ele>223</ele>
        <time>2016-01-06T16:01:16Z</time>
      </trkpt>
      <trkpt lat="43.42167" lon="6.07099">
        <ele>223.39999389648</ele>
        <time>2016-01-06T16:01:18Z</time>
      </trkpt>
      <trkpt lat="43.42167" lon="6.07099">
        <ele>223.39999389648</ele>
        <time>2016-01-06T16:01:19Z</time>
      </trkpt>
      <trkpt lat="43.42167" lon="6.07099">
        <ele>223.60000610352</ele>
        <time>2016-01-06T16:01:20Z</time>
      </trkpt>
      <trkpt lat="43.42167" lon="6.07099">
        <ele>223.39999389648</ele>
        <time>2016-01-06T16:01:22Z</time>
      </trkpt>
      <trkpt lat="43.42167" lon="6.07099">
        <ele>223.39999389648</ele>
        <time>2016-01-06T16:01:24Z</time>
      </trkpt>
      <trkpt lat="43.42167" lon="6.071">
        <ele>223.39999389648</ele>
        <time>2016-01-06T16:01:26Z</time>
      </trkpt>
      <trkpt lat="43.42166" lon="6.07103">
        <ele>223.39999389648</ele>
        <time>2016-01-06T16:01:28Z</time>
      </trkpt>
      <trkpt lat="43.42166" lon="6.07105">
        <ele>223.39999389648</ele>
        <time>2016-01-06T16:01:30Z</time>
      </trkpt>
      <trkpt lat="43.42166" lon="6.07108">
        <ele>223.60000610352</ele>
        <time>2016-01-06T16:01:32Z</time>
      </trkpt>
      <trkpt lat="43.42167" lon="6.0711">
        <ele>223.60000610352</ele>
        <time>2016-01-06T16:01:33Z</time>
      </trkpt>
      <trkpt lat="43.42167" lon="6.07112">
        <ele>223.60000610352</ele>
        <time>2016-01-06T16:01:34Z</time>
      </trkpt>
      <trkpt lat="43.42166" lon="6.07114">
        <ele>223.60000610352</ele>
        <time>2016-01-06T16:01:35Z</time>
      </trkpt>
      <trkpt lat="43.42167" lon="6.07117">
        <ele>223.39999389648</ele>
        <time>2016-01-06T16:01:36Z</time>
      </trkpt>
      <trkpt lat="43.42167" lon="6.07122">
        <ele>223.39999389648</ele>
        <time>2016-01-06T16:01:38Z</time>
      </trkpt>
      <trkpt lat="43.42167" lon="6.07125">
        <ele>223.60000610352</ele>
        <time>2016-01-06T16:01:39Z</time>
      </trkpt>
      <trkpt lat="43.42167" lon="6.07128">
        <ele>223.80000305176</ele>
        <time>2016-01-06T16:01:40Z</time>
      </trkpt>
      <trkpt lat="43.42169" lon="6.07132">
        <ele>223.60000610352</ele>
        <time>2016-01-06T16:01:42Z</time>
      </trkpt>
      <trkpt lat="43.42171" lon="6.07138">
        <ele>223.60000610352</ele>
        <time>2016-01-06T16:01:44Z</time>
      </trkpt>
      <trkpt lat="43.42172" lon="6.07141">
        <ele>223.60000610352</ele>
        <time>2016-01-06T16:01:45Z</time>
      </trkpt>
      <trkpt lat="43.42173" lon="6.07144">
        <ele>223.60000610352</ele>
        <time>2016-01-06T16:01:46Z</time>
      </trkpt>
      <trkpt lat="43.42174" lon="6.07152">
        <ele>224</ele>
        <time>2016-01-06T16:01:48Z</time>
      </trkpt>
      <trkpt lat="43.42174" lon="6.07159">
        <ele>224.39999389648</ele>
        <time>2016-01-06T16:01:50Z</time>
      </trkpt>
      <trkpt lat="43.42173" lon="6.07166">
        <ele>224.60000610352</ele>
        <time>2016-01-06T16:01:52Z</time>
      </trkpt>
      <trkpt lat="43.42173" lon="6.07174">
        <ele>225.19999694824</ele>
        <time>2016-01-06T16:01:54Z</time>
      </trkpt>
      <trkpt lat="43.42172" lon="6.07178">
        <ele>225.60000610352</ele>
        <time>2016-01-06T16:01:55Z</time>
      </trkpt>
      <trkpt lat="43.42171" lon="6.07182">
        <ele>225.60000610352</ele>
        <time>2016-01-06T16:01:56Z</time>
      </trkpt>
      <trkpt lat="43.4217" lon="6.07191">
        <ele>226</ele>
        <time>2016-01-06T16:01:58Z</time>
      </trkpt>
      <trkpt lat="43.42169" lon="6.07199">
        <ele>226.39999389648</ele>
        <time>2016-01-06T16:02:00Z</time>
      </trkpt>
      <trkpt lat="43.42168" lon="6.07204">
        <ele>226.60000610352</ele>
        <time>2016-01-06T16:02:01Z</time>
      </trkpt>
      <trkpt lat="43.42168" lon="6.07209">
        <ele>226.80000305176</ele>
        <time>2016-01-06T16:02:02Z</time>
      </trkpt>
      <trkpt lat="43.42167" lon="6.07219">
        <ele>227</ele>
        <time>2016-01-06T16:02:04Z</time>
      </trkpt>
      <trkpt lat="43.42166" lon="6.07228">
        <ele>227</ele>
        <time>2016-01-06T16:02:06Z</time>
      </trkpt>
      <trkpt lat="43.42163" lon="6.07239">
        <ele>227</ele>
        <time>2016-01-06T16:02:08Z</time>
      </trkpt>
      <trkpt lat="43.42162" lon="6.07245">
        <ele>226.39999389648</ele>
        <time>2016-01-06T16:02:09Z</time>
      </trkpt>
      <trkpt lat="43.42161" lon="6.07252">
        <ele>226.19999694824</ele>
        <time>2016-01-06T16:02:10Z</time>
      </trkpt>
      <trkpt lat="43.42157" lon="6.07266">
        <ele>226.19999694824</ele>
        <time>2016-01-06T16:02:12Z</time>
      </trkpt>
      <trkpt lat="43.42154" lon="6.07282">
        <ele>225.60000610352</ele>
        <time>2016-01-06T16:02:14Z</time>
      </trkpt>
      <trkpt lat="43.42152" lon="6.0729">
        <ele>225.39999389648</ele>
        <time>2016-01-06T16:02:15Z</time>
      </trkpt>
      <trkpt lat="43.4215" lon="6.07299">
        <ele>225.19999694824</ele>
        <time>2016-01-06T16:02:16Z</time>
      </trkpt>
      <trkpt lat="43.42148" lon="6.07316">
        <ele>225.19999694824</ele>
        <time>2016-01-06T16:02:18Z</time>
      </trkpt>
      <trkpt lat="43.42147" lon="6.07331">
        <ele>225</ele>
        <time>2016-01-06T16:02:20Z</time>
      </trkpt>
      <trkpt lat="43.42146" lon="6.07338">
        <ele>225</ele>
        <time>2016-01-06T16:02:21Z</time>
      </trkpt>
      <trkpt lat="43.42146" lon="6.07346">
        <ele>225</ele>
        <time>2016-01-06T16:02:22Z</time>
      </trkpt>
      <trkpt lat="43.42144" lon="6.0736">
        <ele>225</ele>
        <time>2016-01-06T16:02:24Z</time>
      </trkpt>
      <trkpt lat="43.42142" lon="6.07375">
        <ele>225.19999694824</ele>
        <time>2016-01-06T16:02:26Z</time>
      </trkpt>
      <trkpt lat="43.4214" lon="6.07388">
        <ele>225.19999694824</ele>
        <time>2016-01-06T16:02:28Z</time>
      </trkpt>
      <trkpt lat="43.42139" lon="6.07402">
        <ele>224.80000305176</ele>
        <time>2016-01-06T16:02:30Z</time>
      </trkpt>
      <trkpt lat="43.42137" lon="6.07415">
        <ele>225</ele>
        <time>2016-01-06T16:02:32Z</time>
      </trkpt>
      <trkpt lat="43.42135" lon="6.07428">
        <ele>225.19999694824</ele>
        <time>2016-01-06T16:02:34Z</time>
      </trkpt>
      <trkpt lat="43.42134" lon="6.07434">
        <ele>225.19999694824</ele>
        <time>2016-01-06T16:02:35Z</time>
      </trkpt>
      <trkpt lat="43.42133" lon="6.0744">
        <ele>225.19999694824</ele>
        <time>2016-01-06T16:02:36Z</time>
      </trkpt>
      <trkpt lat="43.42131" lon="6.07452">
        <ele>225.39999389648</ele>
        <time>2016-01-06T16:02:38Z</time>
      </trkpt>
      <trkpt lat="43.42128" lon="6.07461">
        <ele>225.80000305176</ele>
        <time>2016-01-06T16:02:40Z</time>
      </trkpt>
      <trkpt lat="43.42127" lon="6.07466">
        <ele>226</ele>
        <time>2016-01-06T16:02:41Z</time>
      </trkpt>
      <trkpt lat="43.42125" lon="6.07471">
        <ele>226.39999389648</ele>
        <time>2016-01-06T16:02:42Z</time>
      </trkpt>
      <trkpt lat="43.42123" lon="6.0748">
        <ele>227</ele>
        <time>2016-01-06T16:02:44Z</time>
      </trkpt>
      <trkpt lat="43.42118" lon="6.07488">
        <ele>227.39999389648</ele>
        <time>2016-01-06T16:02:46Z</time>
      </trkpt>
      <trkpt lat="43.42115" lon="6.0749">
        <ele>227.80000305176</ele>
        <time>2016-01-06T16:02:47Z</time>
      </trkpt>
      <trkpt lat="43.42112" lon="6.07492">
        <ele>228.19999694824</ele>
        <time>2016-01-06T16:02:48Z</time>
      </trkpt>
      <trkpt lat="43.42108" lon="6.07493">
        <ele>228.60000610352</ele>
        <time>2016-01-06T16:02:49Z</time>
      </trkpt>
      <trkpt lat="43.42104" lon="6.07494">
        <ele>229</ele>
        <time>2016-01-06T16:02:50Z</time>
      </trkpt>
      <trkpt lat="43.42101" lon="6.07494">
        <ele>229.19999694824</ele>
        <time>2016-01-06T16:02:51Z</time>
      </trkpt>
      <trkpt lat="43.42097" lon="6.07494">
        <ele>229.39999389648</ele>
        <time>2016-01-06T16:02:52Z</time>
      </trkpt>
      <trkpt lat="43.42094" lon="6.07493">
        <ele>229.60000610352</ele>
        <time>2016-01-06T16:02:53Z</time>
      </trkpt>
      <trkpt lat="43.4209" lon="6.07494">
        <ele>229.80000305176</ele>
        <time>2016-01-06T16:02:54Z</time>
      </trkpt>
      <trkpt lat="43.42083" lon="6.07495">
        <ele>230.19999694824</ele>
        <time>2016-01-06T16:02:56Z</time>
      </trkpt>
      <trkpt lat="43.42076" lon="6.07496">
        <ele>230.39999389648</ele>
        <time>2016-01-06T16:02:58Z</time>
      </trkpt>
      <trkpt lat="43.42069" lon="6.07497">
        <ele>230.60000610352</ele>
        <time>2016-01-06T16:03:00Z</time>
      </trkpt>
      <trkpt lat="43.42063" lon="6.07496">
        <ele>230.60000610352</ele>
        <time>2016-01-06T16:03:02Z</time>
      </trkpt>
      <trkpt lat="43.42057" lon="6.07496">
        <ele>230.39999389648</ele>
        <time>2016-01-06T16:03:04Z</time>
      </trkpt>
      <trkpt lat="43.4205" lon="6.07496">
        <ele>230.60000610352</ele>
        <time>2016-01-06T16:03:06Z</time>
      </trkpt>
      <trkpt lat="43.42045" lon="6.07496">
        <ele>230.60000610352</ele>
        <time>2016-01-06T16:03:08Z</time>
      </trkpt>
      <trkpt lat="43.42039" lon="6.07496">
        <ele>230.60000610352</ele>
        <time>2016-01-06T16:03:10Z</time>
      </trkpt>
      <trkpt lat="43.42033" lon="6.07497">
        <ele>230.39999389648</ele>
        <time>2016-01-06T16:03:12Z</time>
      </trkpt>
      <trkpt lat="43.42026" lon="6.07497">
        <ele>230.19999694824</ele>
        <time>2016-01-06T16:03:14Z</time>
      </trkpt>
      <trkpt lat="43.42022" lon="6.07498">
        <ele>230.39999389648</ele>
        <time>2016-01-06T16:03:15Z</time>
      </trkpt>
      <trkpt lat="43.42018" lon="6.07497">
        <ele>230.39999389648</ele>
        <time>2016-01-06T16:03:16Z</time>
      </trkpt>
      <trkpt lat="43.42014" lon="6.07495">
        <ele>230.60000610352</ele>
        <time>2016-01-06T16:03:17Z</time>
      </trkpt>
      <trkpt lat="43.42012" lon="6.0749">
        <ele>230.60000610352</ele>
        <time>2016-01-06T16:03:18Z</time>
      </trkpt>
      <trkpt lat="43.42009" lon="6.07486">
        <ele>230.60000610352</ele>
        <time>2016-01-06T16:03:19Z</time>
      </trkpt>
      <trkpt lat="43.42008" lon="6.0748">
        <ele>230.60000610352</ele>
        <time>2016-01-06T16:03:20Z</time>
      </trkpt>
      <trkpt lat="43.42006" lon="6.07476">
        <ele>230.60000610352</ele>
        <time>2016-01-06T16:03:21Z</time>
      </trkpt>
      <trkpt lat="43.42005" lon="6.0747">
        <ele>230.60000610352</ele>
        <time>2016-01-06T16:03:22Z</time>
      </trkpt>
      <trkpt lat="43.42002" lon="6.07461">
        <ele>230.39999389648</ele>
        <time>2016-01-06T16:03:24Z</time>
      </trkpt>
      <trkpt lat="43.41999" lon="6.0745">
        <ele>230.19999694824</ele>
        <time>2016-01-06T16:03:26Z</time>
      </trkpt>
      <trkpt lat="43.41997" lon="6.07441">
        <ele>230.39999389648</ele>
        <time>2016-01-06T16:03:28Z</time>
      </trkpt>
      <trkpt lat="43.41995" lon="6.07432">
        <ele>230</ele>
        <time>2016-01-06T16:03:30Z</time>
      </trkpt>
      <trkpt lat="43.41992" lon="6.07427">
        <ele>229.39999389648</ele>
        <time>2016-01-06T16:03:32Z</time>
      </trkpt>
      <trkpt lat="43.4199" lon="6.07427">
        <ele>229.39999389648</ele>
        <time>2016-01-06T16:03:33Z</time>
      </trkpt>
      <trkpt lat="43.41989" lon="6.07426">
        <ele>229.19999694824</ele>
        <time>2016-01-06T16:03:34Z</time>
      </trkpt>
      <trkpt lat="43.41987" lon="6.07424">
        <ele>229</ele>
        <time>2016-01-06T16:03:36Z</time>
      </trkpt>
      <trkpt lat="43.41988" lon="6.07424">
        <ele>229.19999694824</ele>
        <time>2016-01-06T16:03:38Z</time>
      </trkpt>
      <trkpt lat="43.41988" lon="6.07424">
        <ele>229</ele>
        <time>2016-01-06T16:03:39Z</time>
      </trkpt>
      <trkpt lat="43.41988" lon="6.07424">
        <ele>229</ele>
        <time>2016-01-06T16:03:40Z</time>
      </trkpt>
      <trkpt lat="43.41988" lon="6.07424">
        <ele>229</ele>
        <time>2016-01-06T16:03:42Z</time>
      </trkpt>
      <trkpt lat="43.41988" lon="6.07424">
        <ele>229.19999694824</ele>
        <time>2016-01-06T16:03:44Z</time>
      </trkpt>
      <trkpt lat="43.41988" lon="6.07424">
        <ele>229.19999694824</ele>
        <time>2016-01-06T16:03:46Z</time>
      </trkpt>
      <trkpt lat="43.41988" lon="6.07424">
        <ele>229.19999694824</ele>
        <time>2016-01-06T16:03:48Z</time>
      </trkpt>
      <trkpt lat="43.41988" lon="6.07424">
        <ele>229.39999389648</ele>
        <time>2016-01-06T16:03:50Z</time>
      </trkpt>
      <trkpt lat="43.41987" lon="6.07424">
        <ele>229.19999694824</ele>
        <time>2016-01-06T16:03:52Z</time>
      </trkpt>
      <trkpt lat="43.41987" lon="6.07424">
        <ele>229.19999694824</ele>
        <time>2016-01-06T16:03:54Z</time>
      </trkpt>
      <trkpt lat="43.41987" lon="6.07424">
        <ele>229.19999694824</ele>
        <time>2016-01-06T16:03:56Z</time>
      </trkpt>
      <trkpt lat="43.41987" lon="6.07424">
        <ele>229.39999389648</ele>
        <time>2016-01-06T16:03:58Z</time>
      </trkpt>
      <trkpt lat="43.41987" lon="6.07424">
        <ele>229.19999694824</ele>
        <time>2016-01-06T16:04:00Z</time>
      </trkpt>
      <trkpt lat="43.41987" lon="6.07424">
        <ele>229</ele>
        <time>2016-01-06T16:04:02Z</time>
      </trkpt>
      <trkpt lat="43.41986" lon="6.07425">
        <ele>229</ele>
        <time>2016-01-06T16:04:04Z</time>
      </trkpt>
      <trkpt lat="43.41986" lon="6.07425">
        <ele>229</ele>
        <time>2016-01-06T16:04:05Z</time>
      </trkpt>
      <trkpt lat="43.41985" lon="6.07425">
        <ele>229</ele>
        <time>2016-01-06T16:04:06Z</time>
      </trkpt>
      <trkpt lat="43.41985" lon="6.07425">
        <ele>229</ele>
        <time>2016-01-06T16:04:08Z</time>
      </trkpt>
      <trkpt lat="43.41985" lon="6.07425">
        <ele>229</ele>
        <time>2016-01-06T16:04:10Z</time>
      </trkpt>
      <trkpt lat="43.41985" lon="6.07425">
        <ele>229</ele>
        <time>2016-01-06T16:04:12Z</time>
      </trkpt>
      <trkpt lat="43.41985" lon="6.07425">
        <ele>229</ele>
        <time>2016-01-06T16:04:14Z</time>
      </trkpt>
      <trkpt lat="43.41985" lon="6.07425">
        <ele>229</ele>
        <time>2016-01-06T16:04:15Z</time>
      </trkpt>
      <trkpt lat="43.41985" lon="6.07426">
        <ele>229</ele>
        <time>2016-01-06T16:04:16Z</time>
      </trkpt>
      <trkpt lat="43.41985" lon="6.07426">
        <ele>228.80000305176</ele>
        <time>2016-01-06T16:04:18Z</time>
      </trkpt>
      <trkpt lat="43.41985" lon="6.07426">
        <ele>229</ele>
        <time>2016-01-06T16:04:20Z</time>
      </trkpt>
      <trkpt lat="43.41984" lon="6.07426">
        <ele>229</ele>
        <time>2016-01-06T16:04:22Z</time>
      </trkpt>
      <trkpt lat="43.41982" lon="6.07427">
        <ele>228.80000305176</ele>
        <time>2016-01-06T16:04:24Z</time>
      </trkpt>
      <trkpt lat="43.4198" lon="6.07428">
        <ele>228.60000610352</ele>
        <time>2016-01-06T16:04:25Z</time>
      </trkpt>
      <trkpt lat="43.41978" lon="6.07429">
        <ele>228.60000610352</ele>
        <time>2016-01-06T16:04:26Z</time>
      </trkpt>
      <trkpt lat="43.41975" lon="6.07429">
        <ele>228.39999389648</ele>
        <time>2016-01-06T16:04:27Z</time>
      </trkpt>
      <trkpt lat="43.41972" lon="6.07429">
        <ele>228.19999694824</ele>
        <time>2016-01-06T16:04:28Z</time>
      </trkpt>
      <trkpt lat="43.41965" lon="6.0743">
        <ele>227.60000610352</ele>
        <time>2016-01-06T16:04:30Z</time>
      </trkpt>
      <trkpt lat="43.41961" lon="6.0743">
        <ele>227.39999389648</ele>
        <time>2016-01-06T16:04:31Z</time>
      </trkpt>
      <trkpt lat="43.41957" lon="6.07431">
        <ele>227</ele>
        <time>2016-01-06T16:04:32Z</time>
      </trkpt>
      <trkpt lat="43.41947" lon="6.07435">
        <ele>227</ele>
        <time>2016-01-06T16:04:34Z</time>
      </trkpt>
      <trkpt lat="43.41942" lon="6.07436">
        <ele>226.60000610352</ele>
        <time>2016-01-06T16:04:35Z</time>
      </trkpt>
      <trkpt lat="43.41936" lon="6.07437">
        <ele>226.39999389648</ele>
        <time>2016-01-06T16:04:36Z</time>
      </trkpt>
      <trkpt lat="43.4193" lon="6.07438">
        <ele>226</ele>
        <time>2016-01-06T16:04:37Z</time>
      </trkpt>
      <trkpt lat="43.41923" lon="6.07439">
        <ele>225.80000305176</ele>
        <time>2016-01-06T16:04:38Z</time>
      </trkpt>
      <trkpt lat="43.41909" lon="6.07438">
        <ele>225</ele>
        <time>2016-01-06T16:04:40Z</time>
      </trkpt>
      <trkpt lat="43.41893" lon="6.07439">
        <ele>223.39999389648</ele>
        <time>2016-01-06T16:04:42Z</time>
      </trkpt>
      <trkpt lat="43.41876" lon="6.07439">
        <ele>222.19999694824</ele>
        <time>2016-01-06T16:04:44Z</time>
      </trkpt>
      <trkpt lat="43.41867" lon="6.07439">
        <ele>221.19999694824</ele>
        <time>2016-01-06T16:04:45Z</time>
      </trkpt>
      <trkpt lat="43.41857" lon="6.07439">
        <ele>221</ele>
        <time>2016-01-06T16:04:46Z</time>
      </trkpt>
      <trkpt lat="43.41839" lon="6.07441">
        <ele>220</ele>
        <time>2016-01-06T16:04:48Z</time>
      </trkpt>
      <trkpt lat="43.41832" lon="6.07442">
        <ele>219.60000610352</ele>
        <time>2016-01-06T16:04:49Z</time>
      </trkpt>
      <trkpt lat="43.41825" lon="6.07441">
        <ele>219.19999694824</ele>
        <time>2016-01-06T16:04:50Z</time>
      </trkpt>
      <trkpt lat="43.4182" lon="6.0744">
        <ele>219</ele>
        <time>2016-01-06T16:04:51Z</time>
      </trkpt>
      <trkpt lat="43.41815" lon="6.07437">
        <ele>218.80000305176</ele>
        <time>2016-01-06T16:04:52Z</time>
      </trkpt>
      <trkpt lat="43.41812" lon="6.07433">
        <ele>219</ele>
        <time>2016-01-06T16:04:53Z</time>
      </trkpt>
      <trkpt lat="43.41809" lon="6.07427">
        <ele>218.80000305176</ele>
        <time>2016-01-06T16:04:54Z</time>
      </trkpt>
      <trkpt lat="43.41807" lon="6.0742">
        <ele>218.60000610352</ele>
        <time>2016-01-06T16:04:55Z</time>
      </trkpt>
      <trkpt lat="43.41804" lon="6.07414">
        <ele>218</ele>
        <time>2016-01-06T16:04:56Z</time>
      </trkpt>
      <trkpt lat="43.41801" lon="6.0741">
        <ele>217.60000610352</ele>
        <time>2016-01-06T16:04:57Z</time>
      </trkpt>
      <trkpt lat="43.41794" lon="6.07407">
        <ele>217</ele>
        <time>2016-01-06T16:04:58Z</time>
      </trkpt>
      <trkpt lat="43.41788" lon="6.07406">
        <ele>216.80000305176</ele>
        <time>2016-01-06T16:04:59Z</time>
      </trkpt>
      <trkpt lat="43.41782" lon="6.07405">
        <ele>216.19999694824</ele>
        <time>2016-01-06T16:05:00Z</time>
      </trkpt>
      <trkpt lat="43.41776" lon="6.07405">
        <ele>215.39999389648</ele>
        <time>2016-01-06T16:05:01Z</time>
      </trkpt>
      <trkpt lat="43.41769" lon="6.07408">
        <ele>215</ele>
        <time>2016-01-06T16:05:02Z</time>
      </trkpt>
      <trkpt lat="43.41762" lon="6.07408">
        <ele>214</ele>
        <time>2016-01-06T16:05:03Z</time>
      </trkpt>
      <trkpt lat="43.41755" lon="6.07408">
        <ele>213.60000610352</ele>
        <time>2016-01-06T16:05:04Z</time>
      </trkpt>
      <trkpt lat="43.41739" lon="6.07409">
        <ele>212.60000610352</ele>
        <time>2016-01-06T16:05:06Z</time>
      </trkpt>
      <trkpt lat="43.41731" lon="6.07411">
        <ele>211.39999389648</ele>
        <time>2016-01-06T16:05:07Z</time>
      </trkpt>
      <trkpt lat="43.41722" lon="6.07412">
        <ele>210.39999389648</ele>
        <time>2016-01-06T16:05:08Z</time>
      </trkpt>
      <trkpt lat="43.41714" lon="6.07413">
        <ele>209.39999389648</ele>
        <time>2016-01-06T16:05:09Z</time>
      </trkpt>
      <trkpt lat="43.41704" lon="6.07415">
        <ele>208.80000305176</ele>
        <time>2016-01-06T16:05:10Z</time>
      </trkpt>
      <trkpt lat="43.41695" lon="6.07417">
        <ele>208</ele>
        <time>2016-01-06T16:05:11Z</time>
      </trkpt>
      <trkpt lat="43.41684" lon="6.07419">
        <ele>207.60000610352</ele>
        <time>2016-01-06T16:05:12Z</time>
      </trkpt>
      <trkpt lat="43.41674" lon="6.0742">
        <ele>206.60000610352</ele>
        <time>2016-01-06T16:05:13Z</time>
      </trkpt>
      <trkpt lat="43.41664" lon="6.07422">
        <ele>205.80000305176</ele>
        <time>2016-01-06T16:05:14Z</time>
      </trkpt>
      <trkpt lat="43.41654" lon="6.07424">
        <ele>205.39999389648</ele>
        <time>2016-01-06T16:05:15Z</time>
      </trkpt>
      <trkpt lat="43.41643" lon="6.07425">
        <ele>205</ele>
        <time>2016-01-06T16:05:16Z</time>
      </trkpt>
      <trkpt lat="43.41634" lon="6.07426">
        <ele>204</ele>
        <time>2016-01-06T16:05:17Z</time>
      </trkpt>
      <trkpt lat="43.41624" lon="6.07426">
        <ele>203.19999694824</ele>
        <time>2016-01-06T16:05:18Z</time>
      </trkpt>
      <trkpt lat="43.41614" lon="6.07427">
        <ele>202.60000610352</ele>
        <time>2016-01-06T16:05:19Z</time>
      </trkpt>
      <trkpt lat="43.41605" lon="6.07428">
        <ele>202.60000610352</ele>
        <time>2016-01-06T16:05:20Z</time>
      </trkpt>
      <trkpt lat="43.41588" lon="6.07432">
        <ele>202.80000305176</ele>
        <time>2016-01-06T16:05:22Z</time>
      </trkpt>
      <trkpt lat="43.4157" lon="6.07435">
        <ele>201.39999389648</ele>
        <time>2016-01-06T16:05:24Z</time>
      </trkpt>
      <trkpt lat="43.41556" lon="6.07438">
        <ele>199.80000305176</ele>
        <time>2016-01-06T16:05:26Z</time>
      </trkpt>
      <trkpt lat="43.41546" lon="6.07439">
        <ele>199.19999694824</ele>
        <time>2016-01-06T16:05:28Z</time>
      </trkpt>
      <trkpt lat="43.41543" lon="6.0744">
        <ele>198.80000305176</ele>
        <time>2016-01-06T16:05:29Z</time>
      </trkpt>
      <trkpt lat="43.4154" lon="6.0744">
        <ele>198.60000610352</ele>
        <time>2016-01-06T16:05:30Z</time>
      </trkpt>
      <trkpt lat="43.41538" lon="6.07438">
        <ele>198.39999389648</ele>
        <time>2016-01-06T16:05:31Z</time>
      </trkpt>
      <trkpt lat="43.41536" lon="6.07436">
        <ele>198.19999694824</ele>
        <time>2016-01-06T16:05:32Z</time>
      </trkpt>
      <trkpt lat="43.41535" lon="6.07433">
        <ele>198</ele>
        <time>2016-01-06T16:05:33Z</time>
      </trkpt>
      <trkpt lat="43.41534" lon="6.07429">
        <ele>197.80000305176</ele>
        <time>2016-01-06T16:05:34Z</time>
      </trkpt>
      <trkpt lat="43.41533" lon="6.07425">
        <ele>197.80000305176</ele>
        <time>2016-01-06T16:05:35Z</time>
      </trkpt>
      <trkpt lat="43.41531" lon="6.07421">
        <ele>198</ele>
        <time>2016-01-06T16:05:36Z</time>
      </trkpt>
      <trkpt lat="43.41527" lon="6.07412">
        <ele>197.60000610352</ele>
        <time>2016-01-06T16:05:38Z</time>
      </trkpt>
      <trkpt lat="43.41522" lon="6.07401">
        <ele>197.60000610352</ele>
        <time>2016-01-06T16:05:40Z</time>
      </trkpt>
      <trkpt lat="43.4152" lon="6.07395">
        <ele>197.39999389648</ele>
        <time>2016-01-06T16:05:41Z</time>
      </trkpt>
      <trkpt lat="43.41516" lon="6.07389">
        <ele>197.39999389648</ele>
        <time>2016-01-06T16:05:42Z</time>
      </trkpt>
      <trkpt lat="43.4151" lon="6.07378">
        <ele>197.19999694824</ele>
        <time>2016-01-06T16:05:44Z</time>
      </trkpt>
      <trkpt lat="43.41502" lon="6.07368">
        <ele>197.60000610352</ele>
        <time>2016-01-06T16:05:46Z</time>
      </trkpt>
      <trkpt lat="43.41494" lon="6.07357">
        <ele>197.60000610352</ele>
        <time>2016-01-06T16:05:48Z</time>
      </trkpt>
      <trkpt lat="43.41486" lon="6.07347">
        <ele>197.39999389648</ele>
        <time>2016-01-06T16:05:50Z</time>
      </trkpt>
      <trkpt lat="43.41482" lon="6.07344">
        <ele>197.39999389648</ele>
        <time>2016-01-06T16:05:52Z</time>
      </trkpt>
      <trkpt lat="43.41481" lon="6.07343">
        <ele>197.39999389648</ele>
        <time>2016-01-06T16:05:54Z</time>
      </trkpt>
      <trkpt lat="43.41481" lon="6.07344">
        <ele>197.39999389648</ele>
        <time>2016-01-06T16:05:56Z</time>
      </trkpt>
      <trkpt lat="43.41481" lon="6.07344">
        <ele>197.60000610352</ele>
        <time>2016-01-06T16:05:58Z</time>
      </trkpt>
      <trkpt lat="43.41481" lon="6.07344">
        <ele>197.60000610352</ele>
        <time>2016-01-06T16:06:00Z</time>
      </trkpt>
      <trkpt lat="43.41481" lon="6.07344">
        <ele>197.39999389648</ele>
        <time>2016-01-06T16:06:02Z</time>
      </trkpt>
      <trkpt lat="43.41481" lon="6.07344">
        <ele>197.39999389648</ele>
        <time>2016-01-06T16:06:04Z</time>
      </trkpt>
      <trkpt lat="43.41481" lon="6.07344">
        <ele>197.39999389648</ele>
        <time>2016-01-06T16:06:06Z</time>
      </trkpt>
      <trkpt lat="43.41481" lon="6.07344">
        <ele>197.19999694824</ele>
        <time>2016-01-06T16:06:08Z</time>
      </trkpt>
      <trkpt lat="43.41481" lon="6.07344">
        <ele>197.60000610352</ele>
        <time>2016-01-06T16:06:10Z</time>
      </trkpt>
      <trkpt lat="43.41481" lon="6.07344">
        <ele>197.80000305176</ele>
        <time>2016-01-06T16:06:11Z</time>
      </trkpt>
      <trkpt lat="43.41481" lon="6.07344">
        <ele>197.60000610352</ele>
        <time>2016-01-06T16:06:12Z</time>
      </trkpt>
      <trkpt lat="43.41481" lon="6.07344">
        <ele>197.39999389648</ele>
        <time>2016-01-06T16:06:14Z</time>
      </trkpt>
      <trkpt lat="43.41481" lon="6.07344">
        <ele>197.19999694824</ele>
        <time>2016-01-06T16:06:16Z</time>
      </trkpt>
      <trkpt lat="43.41481" lon="6.07344">
        <ele>197.39999389648</ele>
        <time>2016-01-06T16:06:18Z</time>
      </trkpt>
      <trkpt lat="43.41481" lon="6.07344">
        <ele>197.19999694824</ele>
        <time>2016-01-06T16:06:20Z</time>
      </trkpt>
      <trkpt lat="43.41481" lon="6.07344">
        <ele>197.19999694824</ele>
        <time>2016-01-06T16:06:22Z</time>
      </trkpt>
      <trkpt lat="43.41481" lon="6.07344">
        <ele>197</ele>
        <time>2016-01-06T16:06:24Z</time>
      </trkpt>
      <trkpt lat="43.41481" lon="6.07344">
        <ele>196.80000305176</ele>
        <time>2016-01-06T16:06:26Z</time>
      </trkpt>
      <trkpt lat="43.41482" lon="6.07343">
        <ele>197.19999694824</ele>
        <time>2016-01-06T16:06:28Z</time>
      </trkpt>
      <trkpt lat="43.41482" lon="6.07343">
        <ele>197.19999694824</ele>
        <time>2016-01-06T16:06:30Z</time>
      </trkpt>
      <trkpt lat="43.41482" lon="6.07343">
        <ele>197.19999694824</ele>
        <time>2016-01-06T16:06:32Z</time>
      </trkpt>
      <trkpt lat="43.41482" lon="6.07343">
        <ele>197.39999389648</ele>
        <time>2016-01-06T16:06:33Z</time>
      </trkpt>
      <trkpt lat="43.41482" lon="6.07343">
        <ele>197.60000610352</ele>
        <time>2016-01-06T16:06:34Z</time>
      </trkpt>
      <trkpt lat="43.41482" lon="6.07343">
        <ele>197.39999389648</ele>
        <time>2016-01-06T16:06:36Z</time>
      </trkpt>
      <trkpt lat="43.41483" lon="6.07343">
        <ele>197.19999694824</ele>
        <time>2016-01-06T16:06:37Z</time>
      </trkpt>
      <trkpt lat="43.41485" lon="6.07344">
        <ele>197.19999694824</ele>
        <time>2016-01-06T16:06:38Z</time>
      </trkpt>
      <trkpt lat="43.41486" lon="6.07345">
        <ele>197.39999389648</ele>
        <time>2016-01-06T16:06:39Z</time>
      </trkpt>
      <trkpt lat="43.41487" lon="6.07346">
        <ele>197.39999389648</ele>
        <time>2016-01-06T16:06:40Z</time>
      </trkpt>
      <trkpt lat="43.41488" lon="6.07346">
        <ele>197.39999389648</ele>
        <time>2016-01-06T16:06:41Z</time>
      </trkpt>
      <trkpt lat="43.4149" lon="6.07346">
        <ele>197.39999389648</ele>
        <time>2016-01-06T16:06:42Z</time>
      </trkpt>
      <trkpt lat="43.41491" lon="6.07345">
        <ele>197.19999694824</ele>
        <time>2016-01-06T16:06:43Z</time>
      </trkpt>
      <trkpt lat="43.41492" lon="6.07344">
        <ele>197.39999389648</ele>
        <time>2016-01-06T16:06:44Z</time>
      </trkpt>
      <trkpt lat="43.41493" lon="6.0734">
        <ele>197.39999389648</ele>
        <time>2016-01-06T16:06:46Z</time>
      </trkpt>
      <trkpt lat="43.41497" lon="6.07335">
        <ele>197.19999694824</ele>
        <time>2016-01-06T16:06:48Z</time>
      </trkpt>
      <trkpt lat="43.41499" lon="6.07334">
        <ele>196.80000305176</ele>
        <time>2016-01-06T16:06:49Z</time>
      </trkpt>
      <trkpt lat="43.41502" lon="6.07333">
        <ele>196.60000610352</ele>
        <time>2016-01-06T16:06:50Z</time>
      </trkpt>
      <trkpt lat="43.41508" lon="6.07331">
        <ele>196.80000305176</ele>
        <time>2016-01-06T16:06:52Z</time>
      </trkpt>
      <trkpt lat="43.41515" lon="6.07329">
        <ele>197</ele>
        <time>2016-01-06T16:06:54Z</time>
      </trkpt>
      <trkpt lat="43.41518" lon="6.07328">
        <ele>197.19999694824</ele>
        <time>2016-01-06T16:06:55Z</time>
      </trkpt>
      <trkpt lat="43.41521" lon="6.07327">
        <ele>197</ele>
        <time>2016-01-06T16:06:56Z</time>
      </trkpt>
      <trkpt lat="43.41526" lon="6.07319">
        <ele>197.19999694824</ele>
        <time>2016-01-06T16:06:58Z</time>
      </trkpt>
      <trkpt lat="43.41526" lon="6.07314">
        <ele>197.19999694824</ele>
        <time>2016-01-06T16:06:59Z</time>
      </trkpt>
      <trkpt lat="43.41526" lon="6.07308">
        <ele>197</ele>
        <time>2016-01-06T16:07:00Z</time>
      </trkpt>
      <trkpt lat="43.41525" lon="6.07297">
        <ele>197</ele>
        <time>2016-01-06T16:07:02Z</time>
      </trkpt>
      <trkpt lat="43.41524" lon="6.07284">
        <ele>196.80000305176</ele>
        <time>2016-01-06T16:07:04Z</time>
      </trkpt>
      <trkpt lat="43.41523" lon="6.07272">
        <ele>197</ele>
        <time>2016-01-06T16:07:06Z</time>
      </trkpt>
      <trkpt lat="43.41522" lon="6.07261">
        <ele>196.80000305176</ele>
        <time>2016-01-06T16:07:08Z</time>
      </trkpt>
      <trkpt lat="43.41521" lon="6.0725">
        <ele>196.80000305176</ele>
        <time>2016-01-06T16:07:10Z</time>
      </trkpt>
      <trkpt lat="43.41521" lon="6.07239">
        <ele>197</ele>
        <time>2016-01-06T16:07:12Z</time>
      </trkpt>
      <trkpt lat="43.41522" lon="6.07228">
        <ele>197.39999389648</ele>
        <time>2016-01-06T16:07:14Z</time>
      </trkpt>
      <trkpt lat="43.41523" lon="6.07218">
        <ele>197.39999389648</ele>
        <time>2016-01-06T16:07:16Z</time>
      </trkpt>
      <trkpt lat="43.41523" lon="6.07208">
        <ele>197</ele>
        <time>2016-01-06T16:07:18Z</time>
      </trkpt>
      <trkpt lat="43.41523" lon="6.07204">
        <ele>197</ele>
        <time>2016-01-06T16:07:19Z</time>
      </trkpt>
      <trkpt lat="43.41523" lon="6.072">
        <ele>197</ele>
        <time>2016-01-06T16:07:20Z</time>
      </trkpt>
      <trkpt lat="43.41523" lon="6.07192">
        <ele>197</ele>
        <time>2016-01-06T16:07:22Z</time>
      </trkpt>
      <trkpt lat="43.41521" lon="6.07186">
        <ele>196.80000305176</ele>
        <time>2016-01-06T16:07:24Z</time>
      </trkpt>
      <trkpt lat="43.41518" lon="6.07182">
        <ele>196.80000305176</ele>
        <time>2016-01-06T16:07:26Z</time>
      </trkpt>
      <trkpt lat="43.41513" lon="6.07181">
        <ele>197.19999694824</ele>
        <time>2016-01-06T16:07:28Z</time>
      </trkpt>
      <trkpt lat="43.4151" lon="6.07181">
        <ele>197.19999694824</ele>
        <time>2016-01-06T16:07:30Z</time>
      </trkpt>
      <trkpt lat="43.41506" lon="6.07181">
        <ele>197.19999694824</ele>
        <time>2016-01-06T16:07:32Z</time>
      </trkpt>
      <trkpt lat="43.41502" lon="6.07183">
        <ele>197.39999389648</ele>
        <time>2016-01-06T16:07:34Z</time>
      </trkpt>
      <trkpt lat="43.41499" lon="6.07183">
        <ele>197.60000610352</ele>
        <time>2016-01-06T16:07:35Z</time>
      </trkpt>
      <trkpt lat="43.41496" lon="6.07184">
        <ele>197.80000305176</ele>
        <time>2016-01-06T16:07:36Z</time>
      </trkpt>
      <trkpt lat="43.4149" lon="6.07183">
        <ele>197.80000305176</ele>
        <time>2016-01-06T16:07:38Z</time>
      </trkpt>
      <trkpt lat="43.41488" lon="6.07182">
        <ele>198</ele>
        <time>2016-01-06T16:07:39Z</time>
      </trkpt>
      <trkpt lat="43.41484" lon="6.0718">
        <ele>198</ele>
        <time>2016-01-06T16:07:40Z</time>
      </trkpt>
      <trkpt lat="43.41481" lon="6.07173">
        <ele>197.80000305176</ele>
        <time>2016-01-06T16:07:42Z</time>
      </trkpt>
      <trkpt lat="43.41481" lon="6.07169">
        <ele>197.80000305176</ele>
        <time>2016-01-06T16:07:43Z</time>
      </trkpt>
      <trkpt lat="43.41481" lon="6.07165">
        <ele>197.80000305176</ele>
        <time>2016-01-06T16:07:44Z</time>
      </trkpt>
      <trkpt lat="43.41479" lon="6.07157">
        <ele>197.19999694824</ele>
        <time>2016-01-06T16:07:46Z</time>
      </trkpt>
      <trkpt lat="43.41479" lon="6.07149">
        <ele>197.80000305176</ele>
        <time>2016-01-06T16:07:48Z</time>
      </trkpt>
      <trkpt lat="43.41478" lon="6.0714">
        <ele>198</ele>
        <time>2016-01-06T16:07:50Z</time>
      </trkpt>
      <trkpt lat="43.41479" lon="6.07137">
        <ele>198</ele>
        <time>2016-01-06T16:07:51Z</time>
      </trkpt>
      <trkpt lat="43.4148" lon="6.07132">
        <ele>197.80000305176</ele>
        <time>2016-01-06T16:07:52Z</time>
      </trkpt>
      <trkpt lat="43.41484" lon="6.07126">
        <ele>198.19999694824</ele>
        <time>2016-01-06T16:07:54Z</time>
      </trkpt>
      <trkpt lat="43.41486" lon="6.07123">
        <ele>198</ele>
        <time>2016-01-06T16:07:55Z</time>
      </trkpt>
      <trkpt lat="43.41488" lon="6.0712">
        <ele>198</ele>
        <time>2016-01-06T16:07:56Z</time>
      </trkpt>
      <trkpt lat="43.41491" lon="6.07113">
        <ele>197.80000305176</ele>
        <time>2016-01-06T16:07:58Z</time>
      </trkpt>
      <trkpt lat="43.41493" lon="6.07106">
        <ele>197.80000305176</ele>
        <time>2016-01-06T16:08:00Z</time>
      </trkpt>
      <trkpt lat="43.41493" lon="6.07103">
        <ele>197.60000610352</ele>
        <time>2016-01-06T16:08:01Z</time>
      </trkpt>
      <trkpt lat="43.41493" lon="6.071">
        <ele>197.60000610352</ele>
        <time>2016-01-06T16:08:02Z</time>
      </trkpt>
      <trkpt lat="43.41493" lon="6.07094">
        <ele>198.19999694824</ele>
        <time>2016-01-06T16:08:04Z</time>
      </trkpt>
      <trkpt lat="43.41493" lon="6.07088">
        <ele>198.19999694824</ele>
        <time>2016-01-06T16:08:06Z</time>
      </trkpt>
      <trkpt lat="43.41494" lon="6.07085">
        <ele>198.19999694824</ele>
        <time>2016-01-06T16:08:07Z</time>
      </trkpt>
      <trkpt lat="43.41496" lon="6.07083">
        <ele>198</ele>
        <time>2016-01-06T16:08:08Z</time>
      </trkpt>
      <trkpt lat="43.41501" lon="6.07081">
        <ele>198</ele>
        <time>2016-01-06T16:08:10Z</time>
      </trkpt>
      <trkpt lat="43.41504" lon="6.07081">
        <ele>198</ele>
        <time>2016-01-06T16:08:11Z</time>
      </trkpt>
      <trkpt lat="43.41506" lon="6.0708">
        <ele>198.19999694824</ele>
        <time>2016-01-06T16:08:12Z</time>
      </trkpt>
      <trkpt lat="43.41512" lon="6.07079">
        <ele>198</ele>
        <time>2016-01-06T16:08:14Z</time>
      </trkpt>
      <trkpt lat="43.41517" lon="6.07078">
        <ele>198</ele>
        <time>2016-01-06T16:08:16Z</time>
      </trkpt>
      <trkpt lat="43.41523" lon="6.07077">
        <ele>198.19999694824</ele>
        <time>2016-01-06T16:08:18Z</time>
      </trkpt>
      <trkpt lat="43.41529" lon="6.07075">
        <ele>198.39999389648</ele>
        <time>2016-01-06T16:08:20Z</time>
      </trkpt>
      <trkpt lat="43.41534" lon="6.07077">
        <ele>198.39999389648</ele>
        <time>2016-01-06T16:08:22Z</time>
      </trkpt>
      <trkpt lat="43.41536" lon="6.07079">
        <ele>198.60000610352</ele>
        <time>2016-01-06T16:08:23Z</time>
      </trkpt>
      <trkpt lat="43.41537" lon="6.07082">
        <ele>198.80000305176</ele>
        <time>2016-01-06T16:08:24Z</time>
      </trkpt>
      <trkpt lat="43.4154" lon="6.07088">
        <ele>199.39999389648</ele>
        <time>2016-01-06T16:08:26Z</time>
      </trkpt>
      <trkpt lat="43.41541" lon="6.07096">
        <ele>199.60000610352</ele>
        <time>2016-01-06T16:08:28Z</time>
      </trkpt>
      <trkpt lat="43.41542" lon="6.07104">
        <ele>199.39999389648</ele>
        <time>2016-01-06T16:08:30Z</time>
      </trkpt>
      <trkpt lat="43.41545" lon="6.07112">
        <ele>199.19999694824</ele>
        <time>2016-01-06T16:08:32Z</time>
      </trkpt>
      <trkpt lat="43.41547" lon="6.07114">
        <ele>199.19999694824</ele>
        <time>2016-01-06T16:08:33Z</time>
      </trkpt>
      <trkpt lat="43.4155" lon="6.07116">
        <ele>199.39999389648</ele>
        <time>2016-01-06T16:08:34Z</time>
      </trkpt>
      <trkpt lat="43.41557" lon="6.07115">
        <ele>199.60000610352</ele>
        <time>2016-01-06T16:08:36Z</time>
      </trkpt>
      <trkpt lat="43.4156" lon="6.07115">
        <ele>199.60000610352</ele>
        <time>2016-01-06T16:08:37Z</time>
      </trkpt>
      <trkpt lat="43.41563" lon="6.07114">
        <ele>199.60000610352</ele>
        <time>2016-01-06T16:08:38Z</time>
      </trkpt>
      <trkpt lat="43.41569" lon="6.07111">
        <ele>199.80000305176</ele>
        <time>2016-01-06T16:08:40Z</time>
      </trkpt>
      <trkpt lat="43.41574" lon="6.07109">
        <ele>199.60000610352</ele>
        <time>2016-01-06T16:08:42Z</time>
      </trkpt>
      <trkpt lat="43.41578" lon="6.07108">
        <ele>199.80000305176</ele>
        <time>2016-01-06T16:08:43Z</time>
      </trkpt>
      <trkpt lat="43.4158" lon="6.07108">
        <ele>199.80000305176</ele>
        <time>2016-01-06T16:08:44Z</time>
      </trkpt>
      <trkpt lat="43.41582" lon="6.07105">
        <ele>199.60000610352</ele>
        <time>2016-01-06T16:08:46Z</time>
      </trkpt>
      <trkpt lat="43.41582" lon="6.07102">
        <ele>199.60000610352</ele>
        <time>2016-01-06T16:08:47Z</time>
      </trkpt>
      <trkpt lat="43.41581" lon="6.07097">
        <ele>199.60000610352</ele>
        <time>2016-01-06T16:08:48Z</time>
      </trkpt>
      <trkpt lat="43.41581" lon="6.0709">
        <ele>199.80000305176</ele>
        <time>2016-01-06T16:08:50Z</time>
      </trkpt>
      <trkpt lat="43.41581" lon="6.07083">
        <ele>200</ele>
        <time>2016-01-06T16:08:52Z</time>
      </trkpt>
      <trkpt lat="43.4158" lon="6.0708">
        <ele>200</ele>
        <time>2016-01-06T16:08:53Z</time>
      </trkpt>
      <trkpt lat="43.4158" lon="6.07076">
        <ele>200</ele>
        <time>2016-01-06T16:08:54Z</time>
      </trkpt>
      <trkpt lat="43.4158" lon="6.07071">
        <ele>200</ele>
        <time>2016-01-06T16:08:56Z</time>
      </trkpt>
      <trkpt lat="43.41579" lon="6.07065">
        <ele>199.80000305176</ele>
        <time>2016-01-06T16:08:58Z</time>
      </trkpt>
      <trkpt lat="43.41579" lon="6.07062">
        <ele>199.80000305176</ele>
        <time>2016-01-06T16:08:59Z</time>
      </trkpt>
      <trkpt lat="43.41578" lon="6.07058">
        <ele>200</ele>
        <time>2016-01-06T16:09:00Z</time>
      </trkpt>
      <trkpt lat="43.41578" lon="6.07051">
        <ele>200</ele>
        <time>2016-01-06T16:09:02Z</time>
      </trkpt>
      <trkpt lat="43.41577" lon="6.07045">
        <ele>200</ele>
        <time>2016-01-06T16:09:04Z</time>
      </trkpt>
      <trkpt lat="43.41578" lon="6.07041">
        <ele>200</ele>
        <time>2016-01-06T16:09:06Z</time>
      </trkpt>
      <trkpt lat="43.41577" lon="6.07038">
        <ele>200</ele>
        <time>2016-01-06T16:09:08Z</time>
      </trkpt>
      <trkpt lat="43.41577" lon="6.07038">
        <ele>200.39999389648</ele>
        <time>2016-01-06T16:09:10Z</time>
      </trkpt>
      <trkpt lat="43.41576" lon="6.07038">
        <ele>200.39999389648</ele>
        <time>2016-01-06T16:09:11Z</time>
      </trkpt>
      <trkpt lat="43.41576" lon="6.07038">
        <ele>200</ele>
        <time>2016-01-06T16:09:12Z</time>
      </trkpt>
      <trkpt lat="43.41576" lon="6.07038">
        <ele>200</ele>
        <time>2016-01-06T16:09:14Z</time>
      </trkpt>
      <trkpt lat="43.41576" lon="6.07038">
        <ele>200.19999694824</ele>
        <time>2016-01-06T16:09:16Z</time>
      </trkpt>
      <trkpt lat="43.41576" lon="6.07038">
        <ele>200.19999694824</ele>
        <time>2016-01-06T16:09:18Z</time>
      </trkpt>
      <trkpt lat="43.41576" lon="6.07038">
        <ele>200.19999694824</ele>
        <time>2016-01-06T16:09:20Z</time>
      </trkpt>
      <trkpt lat="43.41577" lon="6.07038">
        <ele>200</ele>
        <time>2016-01-06T16:09:22Z</time>
      </trkpt>
      <trkpt lat="43.41577" lon="6.07038">
        <ele>200</ele>
        <time>2016-01-06T16:09:23Z</time>
      </trkpt>
      <trkpt lat="43.41577" lon="6.07038">
        <ele>200</ele>
        <time>2016-01-06T16:09:24Z</time>
      </trkpt>
      <trkpt lat="43.41577" lon="6.07038">
        <ele>200</ele>
        <time>2016-01-06T16:09:26Z</time>
      </trkpt>
      <trkpt lat="43.41577" lon="6.07038">
        <ele>199.80000305176</ele>
        <time>2016-01-06T16:09:28Z</time>
      </trkpt>
      <trkpt lat="43.41577" lon="6.07038">
        <ele>200</ele>
        <time>2016-01-06T16:09:30Z</time>
      </trkpt>
      <trkpt lat="43.41577" lon="6.07038">
        <ele>199.80000305176</ele>
        <time>2016-01-06T16:09:32Z</time>
      </trkpt>
      <trkpt lat="43.41577" lon="6.07038">
        <ele>200</ele>
        <time>2016-01-06T16:09:34Z</time>
      </trkpt>
      <trkpt lat="43.41577" lon="6.07038">
        <ele>200</ele>
        <time>2016-01-06T16:09:36Z</time>
      </trkpt>
      <trkpt lat="43.41577" lon="6.07038">
        <ele>200</ele>
        <time>2016-01-06T16:09:38Z</time>
      </trkpt>
      <trkpt lat="43.41577" lon="6.07038">
        <ele>200</ele>
        <time>2016-01-06T16:09:40Z</time>
      </trkpt>
      <trkpt lat="43.41577" lon="6.07038">
        <ele>200</ele>
        <time>2016-01-06T16:09:42Z</time>
      </trkpt>
      <trkpt lat="43.41577" lon="6.07038">
        <ele>200.19999694824</ele>
        <time>2016-01-06T16:09:44Z</time>
      </trkpt>
      <trkpt lat="43.41577" lon="6.07038">
        <ele>200.39999389648</ele>
        <time>2016-01-06T16:09:46Z</time>
      </trkpt>
      <trkpt lat="43.41577" lon="6.07038">
        <ele>200</ele>
        <time>2016-01-06T16:09:48Z</time>
      </trkpt>
      <trkpt lat="43.41577" lon="6.07038">
        <ele>200</ele>
        <time>2016-01-06T16:09:50Z</time>
      </trkpt>
      <trkpt lat="43.41577" lon="6.07038">
        <ele>200</ele>
        <time>2016-01-06T16:09:52Z</time>
      </trkpt>
      <trkpt lat="43.41577" lon="6.07038">
        <ele>200</ele>
        <time>2016-01-06T16:09:53Z</time>
      </trkpt>
      <trkpt lat="43.41577" lon="6.07038">
        <ele>200.19999694824</ele>
        <time>2016-01-06T16:09:54Z</time>
      </trkpt>
      <trkpt lat="43.41577" lon="6.07038">
        <ele>200.19999694824</ele>
        <time>2016-01-06T16:09:56Z</time>
      </trkpt>
      <trkpt lat="43.41577" lon="6.07037">
        <ele>200.19999694824</ele>
        <time>2016-01-06T16:09:58Z</time>
      </trkpt>
      <trkpt lat="43.41577" lon="6.07038">
        <ele>200.19999694824</ele>
        <time>2016-01-06T16:10:00Z</time>
      </trkpt>
      <trkpt lat="43.41577" lon="6.07037">
        <ele>200.39999389648</ele>
        <time>2016-01-06T16:10:02Z</time>
      </trkpt>
      <trkpt lat="43.41577" lon="6.07037">
        <ele>200.19999694824</ele>
        <time>2016-01-06T16:10:04Z</time>
      </trkpt>
      <trkpt lat="43.41577" lon="6.07038">
        <ele>200.19999694824</ele>
        <time>2016-01-06T16:10:06Z</time>
      </trkpt>
      <trkpt lat="43.41577" lon="6.07038">
        <ele>200.19999694824</ele>
        <time>2016-01-06T16:10:08Z</time>
      </trkpt>
      <trkpt lat="43.41577" lon="6.07038">
        <ele>200</ele>
        <time>2016-01-06T16:10:10Z</time>
      </trkpt>
      <trkpt lat="43.41577" lon="6.07038">
        <ele>200</ele>
        <time>2016-01-06T16:10:12Z</time>
      </trkpt>
      <trkpt lat="43.41577" lon="6.07038">
        <ele>200.19999694824</ele>
        <time>2016-01-06T16:10:14Z</time>
      </trkpt>
      <trkpt lat="43.41577" lon="6.07038">
        <ele>200.19999694824</ele>
        <time>2016-01-06T16:10:16Z</time>
      </trkpt>
      <trkpt lat="43.41577" lon="6.07038">
        <ele>200</ele>
        <time>2016-01-06T16:10:18Z</time>
      </trkpt>
      <trkpt lat="43.41577" lon="6.07037">
        <ele>200.19999694824</ele>
        <time>2016-01-06T16:10:20Z</time>
      </trkpt>
      <trkpt lat="43.41577" lon="6.07038">
        <ele>200.19999694824</ele>
        <time>2016-01-06T16:10:22Z</time>
      </trkpt>
      <trkpt lat="43.41577" lon="6.07038">
        <ele>200</ele>
        <time>2016-01-06T16:10:24Z</time>
      </trkpt>
      <trkpt lat="43.41577" lon="6.07038">
        <ele>200</ele>
        <time>2016-01-06T16:10:25Z</time>
      </trkpt>
      <trkpt lat="43.41577" lon="6.07038">
        <ele>200</ele>
        <time>2016-01-06T16:10:26Z</time>
      </trkpt>
      <trkpt lat="43.41577" lon="6.07038">
        <ele>200</ele>
        <time>2016-01-06T16:10:28Z</time>
      </trkpt>
      <trkpt lat="43.41577" lon="6.07038">
        <ele>200.19999694824</ele>
        <time>2016-01-06T16:10:30Z</time>
      </trkpt>
      <trkpt lat="43.41577" lon="6.07038">
        <ele>200</ele>
        <time>2016-01-06T16:10:32Z</time>
      </trkpt>
      <trkpt lat="43.41577" lon="6.07038">
        <ele>200</ele>
        <time>2016-01-06T16:10:34Z</time>
      </trkpt>
      <trkpt lat="43.41577" lon="6.07038">
        <ele>200</ele>
        <time>2016-01-06T16:10:36Z</time>
      </trkpt>
      <trkpt lat="43.41577" lon="6.07038">
        <ele>200.19999694824</ele>
        <time>2016-01-06T16:10:38Z</time>
      </trkpt>
      <trkpt lat="43.41577" lon="6.07038">
        <ele>200</ele>
        <time>2016-01-06T16:10:40Z</time>
      </trkpt>
      <trkpt lat="43.41577" lon="6.07038">
        <ele>200</ele>
        <time>2016-01-06T16:10:42Z</time>
      </trkpt>
      <trkpt lat="43.41577" lon="6.07038">
        <ele>200</ele>
        <time>2016-01-06T16:10:44Z</time>
      </trkpt>
      <trkpt lat="43.41577" lon="6.07038">
        <ele>200</ele>
        <time>2016-01-06T16:10:46Z</time>
      </trkpt>
      <trkpt lat="43.41577" lon="6.07038">
        <ele>200</ele>
        <time>2016-01-06T16:10:48Z</time>
      </trkpt>
      <trkpt lat="43.41577" lon="6.07038">
        <ele>200</ele>
        <time>2016-01-06T16:10:50Z</time>
      </trkpt>
      <trkpt lat="43.41577" lon="6.07038">
        <ele>200</ele>
        <time>2016-01-06T16:10:52Z</time>
      </trkpt>
      <trkpt lat="43.41577" lon="6.07038">
        <ele>200</ele>
        <time>2016-01-06T16:10:54Z</time>
      </trkpt>
      <trkpt lat="43.41577" lon="6.07038">
        <ele>200.19999694824</ele>
        <time>2016-01-06T16:10:56Z</time>
      </trkpt>
      <trkpt lat="43.41577" lon="6.07038">
        <ele>200</ele>
        <time>2016-01-06T16:10:58Z</time>
      </trkpt>
      <trkpt lat="43.41577" lon="6.07038">
        <ele>200</ele>
        <time>2016-01-06T16:11:00Z</time>
      </trkpt>
      <trkpt lat="43.41577" lon="6.07038">
        <ele>200</ele>
        <time>2016-01-06T16:11:02Z</time>
      </trkpt>
      <trkpt lat="43.41577" lon="6.07038">
        <ele>200</ele>
        <time>2016-01-06T16:11:04Z</time>
      </trkpt>
      <trkpt lat="43.41577" lon="6.07038">
        <ele>200</ele>
        <time>2016-01-06T16:11:06Z</time>
      </trkpt>
      <trkpt lat="43.41577" lon="6.07038">
        <ele>200</ele>
        <time>2016-01-06T16:11:08Z</time>
      </trkpt>
      <trkpt lat="43.41577" lon="6.07038">
        <ele>200</ele>
        <time>2016-01-06T16:11:10Z</time>
      </trkpt>
      <trkpt lat="43.41577" lon="6.07038">
        <ele>200</ele>
        <time>2016-01-06T16:11:12Z</time>
      </trkpt>
      <trkpt lat="43.41577" lon="6.07038">
        <ele>200</ele>
        <time>2016-01-06T16:11:13Z</time>
      </trkpt>
      <trkpt lat="43.41577" lon="6.07038">
        <ele>200</ele>
        <time>2016-01-06T16:11:14Z</time>
      </trkpt>
      <trkpt lat="43.41577" lon="6.07038">
        <ele>200</ele>
        <time>2016-01-06T16:11:16Z</time>
      </trkpt>
    </trkseg>
  </trk>
</gpx>